<?xml version="1.0" encoding="UTF-8"?>
<gpx version="1.1" creator="https://www.youtrack.es" xsi:schemaLocation="http://www.topografix.com/GPX/1/1 http://www.topografix.com/GPX/1/1/gpx.xsd http://www.garmin.com/xmlschemas/GpxExtensions/v3 http://www.garmin.com/xmlschemas/GpxExtensionsv3.xsd http://www.garmin.com/xmlschemas/TrackPointExtension/v1 http://www.garmin.com/xmlschemas/TrackPointExtensionv1.xsd" xmlns:gpxtpx="http://www.garmin.com/xmlschemas/TrackPointExtension/v1" xmlns:gpxx="http://www.garmin.com/xmlschemas/GpxExtensions/v3" xmlns:xsi="http://www.w3.org/2001/XMLSchema-instance">
  <metadata>
    <link href="https://www.youtrack.es">
      <text>YouTrack.es</text>
    </link>
    <time>2026-05-08T06:20:20Z</time>
  </metadata>
  <trk>
    <src>https://www.youtrack.es</src>
    <link href="https://www.youtrack.es/ruta/15914-bercianos-del-real-camino-a-tremor">
      <text>YouTrack.es</text>
    </link>
    <trkseg>
      <trkpt lat="42.393521" lon="-5.155298">
        <ele>867.596</ele>
        <time>2018-06-15T09:27:27Z</time>
      </trkpt>
      <trkpt lat="42.393571" lon="-5.155425">
        <ele>867.531</ele>
        <time>2018-06-15T09:27:29Z</time>
      </trkpt>
      <trkpt lat="42.393598" lon="-5.155486">
        <ele>867.524</ele>
        <time>2018-06-15T09:27:30Z</time>
      </trkpt>
      <trkpt lat="42.393651" lon="-5.155598">
        <ele>867.508</ele>
        <time>2018-06-15T09:27:32Z</time>
      </trkpt>
      <trkpt lat="42.393718" lon="-5.155692">
        <ele>867.551</ele>
        <time>2018-06-15T09:27:34Z</time>
      </trkpt>
      <trkpt lat="42.393757" lon="-5.155775">
        <ele>867.564</ele>
        <time>2018-06-15T09:27:36Z</time>
      </trkpt>
      <trkpt lat="42.393800" lon="-5.155857">
        <ele>867.587</ele>
        <time>2018-06-15T09:27:38Z</time>
      </trkpt>
      <trkpt lat="42.393850" lon="-5.155942">
        <ele>867.511</ele>
        <time>2018-06-15T09:27:40Z</time>
      </trkpt>
      <trkpt lat="42.393899" lon="-5.156035">
        <ele>867.540</ele>
        <time>2018-06-15T09:27:42Z</time>
      </trkpt>
      <trkpt lat="42.393946" lon="-5.156120">
        <ele>867.550</ele>
        <time>2018-06-15T09:27:44Z</time>
      </trkpt>
      <trkpt lat="42.393992" lon="-5.156211">
        <ele>867.590</ele>
        <time>2018-06-15T09:27:46Z</time>
      </trkpt>
      <trkpt lat="42.394038" lon="-5.156300">
        <ele>867.530</ele>
        <time>2018-06-15T09:27:48Z</time>
      </trkpt>
      <trkpt lat="42.394082" lon="-5.156394">
        <ele>867.591</ele>
        <time>2018-06-15T09:27:50Z</time>
      </trkpt>
      <trkpt lat="42.394129" lon="-5.156483">
        <ele>867.581</ele>
        <time>2018-06-15T09:27:52Z</time>
      </trkpt>
      <trkpt lat="42.394171" lon="-5.156569">
        <ele>867.519</ele>
        <time>2018-06-15T09:27:54Z</time>
      </trkpt>
      <trkpt lat="42.394215" lon="-5.156656">
        <ele>867.508</ele>
        <time>2018-06-15T09:27:56Z</time>
      </trkpt>
      <trkpt lat="42.394260" lon="-5.156748">
        <ele>867.591</ele>
        <time>2018-06-15T09:27:58Z</time>
      </trkpt>
      <trkpt lat="42.394300" lon="-5.156840">
        <ele>867.584</ele>
        <time>2018-06-15T09:28:00Z</time>
      </trkpt>
      <trkpt lat="42.394339" lon="-5.156926">
        <ele>867.597</ele>
        <time>2018-06-15T09:28:02Z</time>
      </trkpt>
      <trkpt lat="42.394378" lon="-5.157019">
        <ele>867.911</ele>
        <time>2018-06-15T09:28:04Z</time>
      </trkpt>
      <trkpt lat="42.394420" lon="-5.157107">
        <ele>868.170</ele>
        <time>2018-06-15T09:28:06Z</time>
      </trkpt>
      <trkpt lat="42.394460" lon="-5.157198">
        <ele>868.690</ele>
        <time>2018-06-15T09:28:08Z</time>
      </trkpt>
      <trkpt lat="42.394500" lon="-5.157292">
        <ele>868.950</ele>
        <time>2018-06-15T09:28:10Z</time>
      </trkpt>
      <trkpt lat="42.394541" lon="-5.157381">
        <ele>869.140</ele>
        <time>2018-06-15T09:28:12Z</time>
      </trkpt>
      <trkpt lat="42.394582" lon="-5.157476">
        <ele>869.684</ele>
        <time>2018-06-15T09:28:14Z</time>
      </trkpt>
      <trkpt lat="42.394619" lon="-5.157566">
        <ele>870.307</ele>
        <time>2018-06-15T09:28:16Z</time>
      </trkpt>
      <trkpt lat="42.394660" lon="-5.157659">
        <ele>870.717</ele>
        <time>2018-06-15T09:28:18Z</time>
      </trkpt>
      <trkpt lat="42.394697" lon="-5.157754">
        <ele>871.008</ele>
        <time>2018-06-15T09:28:20Z</time>
      </trkpt>
      <trkpt lat="42.394740" lon="-5.157846">
        <ele>871.230</ele>
        <time>2018-06-15T09:28:22Z</time>
      </trkpt>
      <trkpt lat="42.394778" lon="-5.157944">
        <ele>871.713</ele>
        <time>2018-06-15T09:28:24Z</time>
      </trkpt>
      <trkpt lat="42.394819" lon="-5.158041">
        <ele>872.056</ele>
        <time>2018-06-15T09:28:26Z</time>
      </trkpt>
      <trkpt lat="42.394866" lon="-5.158137">
        <ele>872.210</ele>
        <time>2018-06-15T09:28:28Z</time>
      </trkpt>
      <trkpt lat="42.394902" lon="-5.158223">
        <ele>872.399</ele>
        <time>2018-06-15T09:28:30Z</time>
      </trkpt>
      <trkpt lat="42.394935" lon="-5.158305">
        <ele>872.499</ele>
        <time>2018-06-15T09:28:32Z</time>
      </trkpt>
      <trkpt lat="42.394969" lon="-5.158390">
        <ele>872.499</ele>
        <time>2018-06-15T09:28:34Z</time>
      </trkpt>
      <trkpt lat="42.395005" lon="-5.158478">
        <ele>872.839</ele>
        <time>2018-06-15T09:28:36Z</time>
      </trkpt>
      <trkpt lat="42.395042" lon="-5.158565">
        <ele>873.524</ele>
        <time>2018-06-15T09:28:38Z</time>
      </trkpt>
      <trkpt lat="42.395080" lon="-5.158648">
        <ele>873.904</ele>
        <time>2018-06-15T09:28:40Z</time>
      </trkpt>
      <trkpt lat="42.395121" lon="-5.158737">
        <ele>874.514</ele>
        <time>2018-06-15T09:28:42Z</time>
      </trkpt>
      <trkpt lat="42.395159" lon="-5.158822">
        <ele>874.508</ele>
        <time>2018-06-15T09:28:44Z</time>
      </trkpt>
      <trkpt lat="42.395194" lon="-5.158911">
        <ele>874.974</ele>
        <time>2018-06-15T09:28:46Z</time>
      </trkpt>
      <trkpt lat="42.395231" lon="-5.159004">
        <ele>875.527</ele>
        <time>2018-06-15T09:28:48Z</time>
      </trkpt>
      <trkpt lat="42.395270" lon="-5.159091">
        <ele>876.370</ele>
        <time>2018-06-15T09:28:50Z</time>
      </trkpt>
      <trkpt lat="42.395302" lon="-5.159181">
        <ele>876.824</ele>
        <time>2018-06-15T09:28:52Z</time>
      </trkpt>
      <trkpt lat="42.395337" lon="-5.159273">
        <ele>877.153</ele>
        <time>2018-06-15T09:28:54Z</time>
      </trkpt>
      <trkpt lat="42.395371" lon="-5.159361">
        <ele>877.343</ele>
        <time>2018-06-15T09:28:56Z</time>
      </trkpt>
      <trkpt lat="42.395408" lon="-5.159449">
        <ele>877.493</ele>
        <time>2018-06-15T09:28:58Z</time>
      </trkpt>
      <trkpt lat="42.395449" lon="-5.159534">
        <ele>877.973</ele>
        <time>2018-06-15T09:29:00Z</time>
      </trkpt>
      <trkpt lat="42.395478" lon="-5.159600">
        <ele>878.289</ele>
        <time>2018-06-15T09:29:02Z</time>
      </trkpt>
      <trkpt lat="42.395503" lon="-5.159666">
        <ele>878.406</ele>
        <time>2018-06-15T09:29:03Z</time>
      </trkpt>
      <trkpt lat="42.395537" lon="-5.159745">
        <ele>878.526</ele>
        <time>2018-06-15T09:29:06Z</time>
      </trkpt>
      <trkpt lat="42.395588" lon="-5.159875">
        <ele>878.608</ele>
        <time>2018-06-15T09:29:08Z</time>
      </trkpt>
      <trkpt lat="42.395622" lon="-5.159962">
        <ele>878.250</ele>
        <time>2018-06-15T09:29:10Z</time>
      </trkpt>
      <trkpt lat="42.395660" lon="-5.160047">
        <ele>878.093</ele>
        <time>2018-06-15T09:29:12Z</time>
      </trkpt>
      <trkpt lat="42.395700" lon="-5.160137">
        <ele>878.316</ele>
        <time>2018-06-15T09:29:14Z</time>
      </trkpt>
      <trkpt lat="42.395740" lon="-5.160225">
        <ele>878.130</ele>
        <time>2018-06-15T09:29:16Z</time>
      </trkpt>
      <trkpt lat="42.395780" lon="-5.160317">
        <ele>878.059</ele>
        <time>2018-06-15T09:29:18Z</time>
      </trkpt>
      <trkpt lat="42.395823" lon="-5.160409">
        <ele>877.919</ele>
        <time>2018-06-15T09:29:20Z</time>
      </trkpt>
      <trkpt lat="42.395863" lon="-5.160495">
        <ele>877.849</ele>
        <time>2018-06-15T09:29:22Z</time>
      </trkpt>
      <trkpt lat="42.395901" lon="-5.160585">
        <ele>877.829</ele>
        <time>2018-06-15T09:29:24Z</time>
      </trkpt>
      <trkpt lat="42.395941" lon="-5.160674">
        <ele>878.284</ele>
        <time>2018-06-15T09:29:26Z</time>
      </trkpt>
      <trkpt lat="42.395981" lon="-5.160760">
        <ele>878.407</ele>
        <time>2018-06-15T09:29:28Z</time>
      </trkpt>
      <trkpt lat="42.396018" lon="-5.160852">
        <ele>878.117</ele>
        <time>2018-06-15T09:29:30Z</time>
      </trkpt>
      <trkpt lat="42.396057" lon="-5.160945">
        <ele>878.308</ele>
        <time>2018-06-15T09:29:32Z</time>
      </trkpt>
      <trkpt lat="42.396098" lon="-5.161037">
        <ele>878.490</ele>
        <time>2018-06-15T09:29:34Z</time>
      </trkpt>
      <trkpt lat="42.396132" lon="-5.161132">
        <ele>878.513</ele>
        <time>2018-06-15T09:29:36Z</time>
      </trkpt>
      <trkpt lat="42.396172" lon="-5.161224">
        <ele>878.646</ele>
        <time>2018-06-15T09:29:38Z</time>
      </trkpt>
      <trkpt lat="42.396210" lon="-5.161314">
        <ele>878.260</ele>
        <time>2018-06-15T09:29:40Z</time>
      </trkpt>
      <trkpt lat="42.396246" lon="-5.161408">
        <ele>878.069</ele>
        <time>2018-06-15T09:29:42Z</time>
      </trkpt>
      <trkpt lat="42.396287" lon="-5.161499">
        <ele>877.989</ele>
        <time>2018-06-15T09:29:44Z</time>
      </trkpt>
      <trkpt lat="42.396328" lon="-5.161594">
        <ele>877.849</ele>
        <time>2018-06-15T09:29:46Z</time>
      </trkpt>
      <trkpt lat="42.396370" lon="-5.161686">
        <ele>877.499</ele>
        <time>2018-06-15T09:29:48Z</time>
      </trkpt>
      <trkpt lat="42.396412" lon="-5.161782">
        <ele>877.127</ele>
        <time>2018-06-15T09:29:50Z</time>
      </trkpt>
      <trkpt lat="42.396457" lon="-5.161877">
        <ele>876.968</ele>
        <time>2018-06-15T09:29:52Z</time>
      </trkpt>
      <trkpt lat="42.396505" lon="-5.161976">
        <ele>876.814</ele>
        <time>2018-06-15T09:29:54Z</time>
      </trkpt>
      <trkpt lat="42.396529" lon="-5.162030">
        <ele>876.308</ele>
        <time>2018-06-15T09:29:55Z</time>
      </trkpt>
      <trkpt lat="42.396553" lon="-5.162088">
        <ele>876.074</ele>
        <time>2018-06-15T09:29:56Z</time>
      </trkpt>
      <trkpt lat="42.396576" lon="-5.162142">
        <ele>875.857</ele>
        <time>2018-06-15T09:29:57Z</time>
      </trkpt>
      <trkpt lat="42.396601" lon="-5.162199">
        <ele>875.350</ele>
        <time>2018-06-15T09:29:58Z</time>
      </trkpt>
      <trkpt lat="42.396630" lon="-5.162255">
        <ele>875.024</ele>
        <time>2018-06-15T09:29:59Z</time>
      </trkpt>
      <trkpt lat="42.396657" lon="-5.162314">
        <ele>874.863</ele>
        <time>2018-06-15T09:30:00Z</time>
      </trkpt>
      <trkpt lat="42.396687" lon="-5.162379">
        <ele>874.743</ele>
        <time>2018-06-15T09:30:01Z</time>
      </trkpt>
      <trkpt lat="42.396714" lon="-5.162451">
        <ele>874.683</ele>
        <time>2018-06-15T09:30:02Z</time>
      </trkpt>
      <trkpt lat="42.396742" lon="-5.162516">
        <ele>874.213</ele>
        <time>2018-06-15T09:30:03Z</time>
      </trkpt>
      <trkpt lat="42.396770" lon="-5.162585">
        <ele>873.954</ele>
        <time>2018-06-15T09:30:04Z</time>
      </trkpt>
      <trkpt lat="42.396796" lon="-5.162653">
        <ele>873.356</ele>
        <time>2018-06-15T09:30:05Z</time>
      </trkpt>
      <trkpt lat="42.396822" lon="-5.162713">
        <ele>873.011</ele>
        <time>2018-06-15T09:30:06Z</time>
      </trkpt>
      <trkpt lat="42.396847" lon="-5.162768">
        <ele>872.808</ele>
        <time>2018-06-15T09:30:07Z</time>
      </trkpt>
      <trkpt lat="42.396869" lon="-5.162822">
        <ele>872.767</ele>
        <time>2018-06-15T09:30:08Z</time>
      </trkpt>
      <trkpt lat="42.396908" lon="-5.162913">
        <ele>872.230</ele>
        <time>2018-06-15T09:30:10Z</time>
      </trkpt>
      <trkpt lat="42.396935" lon="-5.162971">
        <ele>871.593</ele>
        <time>2018-06-15T09:30:12Z</time>
      </trkpt>
      <trkpt lat="42.396971" lon="-5.163052">
        <ele>871.197</ele>
        <time>2018-06-15T09:30:15Z</time>
      </trkpt>
      <trkpt lat="42.397002" lon="-5.163116">
        <ele>870.936</ele>
        <time>2018-06-15T09:30:17Z</time>
      </trkpt>
      <trkpt lat="42.397029" lon="-5.163175">
        <ele>870.846</ele>
        <time>2018-06-15T09:30:19Z</time>
      </trkpt>
      <trkpt lat="42.397052" lon="-5.163231">
        <ele>870.386</ele>
        <time>2018-06-15T09:30:21Z</time>
      </trkpt>
      <trkpt lat="42.397075" lon="-5.163293">
        <ele>870.076</ele>
        <time>2018-06-15T09:30:23Z</time>
      </trkpt>
      <trkpt lat="42.397134" lon="-5.163452">
        <ele>869.836</ele>
        <time>2018-06-15T09:30:25Z</time>
      </trkpt>
      <trkpt lat="42.397160" lon="-5.163565">
        <ele>869.317</ele>
        <time>2018-06-15T09:30:27Z</time>
      </trkpt>
      <trkpt lat="42.397173" lon="-5.163629">
        <ele>869.018</ele>
        <time>2018-06-15T09:30:28Z</time>
      </trkpt>
      <trkpt lat="42.397188" lon="-5.163692">
        <ele>868.808</ele>
        <time>2018-06-15T09:30:29Z</time>
      </trkpt>
      <trkpt lat="42.397204" lon="-5.163752">
        <ele>868.725</ele>
        <time>2018-06-15T09:30:30Z</time>
      </trkpt>
      <trkpt lat="42.397219" lon="-5.163812">
        <ele>868.648</ele>
        <time>2018-06-15T09:30:31Z</time>
      </trkpt>
      <trkpt lat="42.397230" lon="-5.163875">
        <ele>868.231</ele>
        <time>2018-06-15T09:30:32Z</time>
      </trkpt>
      <trkpt lat="42.397246" lon="-5.163941">
        <ele>867.965</ele>
        <time>2018-06-15T09:30:33Z</time>
      </trkpt>
      <trkpt lat="42.397264" lon="-5.164002">
        <ele>867.714</ele>
        <time>2018-06-15T09:30:34Z</time>
      </trkpt>
      <trkpt lat="42.397279" lon="-5.164070">
        <ele>867.644</ele>
        <time>2018-06-15T09:30:35Z</time>
      </trkpt>
      <trkpt lat="42.397296" lon="-5.164133">
        <ele>867.564</ele>
        <time>2018-06-15T09:30:36Z</time>
      </trkpt>
      <trkpt lat="42.397314" lon="-5.164201">
        <ele>867.534</ele>
        <time>2018-06-15T09:30:37Z</time>
      </trkpt>
      <trkpt lat="42.397324" lon="-5.164267">
        <ele>867.965</ele>
        <time>2018-06-15T09:30:38Z</time>
      </trkpt>
      <trkpt lat="42.397338" lon="-5.164329">
        <ele>867.768</ele>
        <time>2018-06-15T09:30:39Z</time>
      </trkpt>
      <trkpt lat="42.397355" lon="-5.164393">
        <ele>867.614</ele>
        <time>2018-06-15T09:30:40Z</time>
      </trkpt>
      <trkpt lat="42.397375" lon="-5.164460">
        <ele>867.508</ele>
        <time>2018-06-15T09:30:41Z</time>
      </trkpt>
      <trkpt lat="42.397392" lon="-5.164533">
        <ele>867.538</ele>
        <time>2018-06-15T09:30:42Z</time>
      </trkpt>
      <trkpt lat="42.397407" lon="-5.164603">
        <ele>867.591</ele>
        <time>2018-06-15T09:30:43Z</time>
      </trkpt>
      <trkpt lat="42.397419" lon="-5.164667">
        <ele>867.574</ele>
        <time>2018-06-15T09:30:44Z</time>
      </trkpt>
      <trkpt lat="42.397437" lon="-5.164742">
        <ele>867.538</ele>
        <time>2018-06-15T09:30:45Z</time>
      </trkpt>
      <trkpt lat="42.397450" lon="-5.164814">
        <ele>867.577</ele>
        <time>2018-06-15T09:30:46Z</time>
      </trkpt>
      <trkpt lat="42.397469" lon="-5.164879">
        <ele>867.547</ele>
        <time>2018-06-15T09:30:47Z</time>
      </trkpt>
      <trkpt lat="42.397485" lon="-5.164948">
        <ele>867.547</ele>
        <time>2018-06-15T09:30:48Z</time>
      </trkpt>
      <trkpt lat="42.397500" lon="-5.165015">
        <ele>867.527</ele>
        <time>2018-06-15T09:30:49Z</time>
      </trkpt>
      <trkpt lat="42.397519" lon="-5.165078">
        <ele>867.157</ele>
        <time>2018-06-15T09:30:50Z</time>
      </trkpt>
      <trkpt lat="42.397536" lon="-5.165141">
        <ele>866.900</ele>
        <time>2018-06-15T09:30:51Z</time>
      </trkpt>
      <trkpt lat="42.397555" lon="-5.165254">
        <ele>866.820</ele>
        <time>2018-06-15T09:30:53Z</time>
      </trkpt>
      <trkpt lat="42.397580" lon="-5.165370">
        <ele>866.708</ele>
        <time>2018-06-15T09:30:55Z</time>
      </trkpt>
      <trkpt lat="42.397597" lon="-5.165430">
        <ele>866.697</ele>
        <time>2018-06-15T09:30:56Z</time>
      </trkpt>
      <trkpt lat="42.397613" lon="-5.165498">
        <ele>866.610</ele>
        <time>2018-06-15T09:30:57Z</time>
      </trkpt>
      <trkpt lat="42.397630" lon="-5.165564">
        <ele>866.663</ele>
        <time>2018-06-15T09:30:58Z</time>
      </trkpt>
      <trkpt lat="42.397647" lon="-5.165632">
        <ele>867.017</ele>
        <time>2018-06-15T09:30:59Z</time>
      </trkpt>
      <trkpt lat="42.397663" lon="-5.165694">
        <ele>866.896</ele>
        <time>2018-06-15T09:31:00Z</time>
      </trkpt>
      <trkpt lat="42.397675" lon="-5.165757">
        <ele>866.746</ele>
        <time>2018-06-15T09:31:01Z</time>
      </trkpt>
      <trkpt lat="42.397687" lon="-5.165819">
        <ele>866.626</ele>
        <time>2018-06-15T09:31:02Z</time>
      </trkpt>
      <trkpt lat="42.397698" lon="-5.165880">
        <ele>866.646</ele>
        <time>2018-06-15T09:31:03Z</time>
      </trkpt>
      <trkpt lat="42.397713" lon="-5.165939">
        <ele>866.689</ele>
        <time>2018-06-15T09:31:04Z</time>
      </trkpt>
      <trkpt lat="42.397727" lon="-5.165998">
        <ele>866.606</ele>
        <time>2018-06-15T09:31:05Z</time>
      </trkpt>
      <trkpt lat="42.397742" lon="-5.166058">
        <ele>866.626</ele>
        <time>2018-06-15T09:31:06Z</time>
      </trkpt>
      <trkpt lat="42.397756" lon="-5.166117">
        <ele>866.608</ele>
        <time>2018-06-15T09:31:07Z</time>
      </trkpt>
      <trkpt lat="42.397768" lon="-5.166180">
        <ele>866.640</ele>
        <time>2018-06-15T09:31:08Z</time>
      </trkpt>
      <trkpt lat="42.397781" lon="-5.166244">
        <ele>867.053</ele>
        <time>2018-06-15T09:31:09Z</time>
      </trkpt>
      <trkpt lat="42.397810" lon="-5.166355">
        <ele>866.836</ele>
        <time>2018-06-15T09:31:11Z</time>
      </trkpt>
      <trkpt lat="42.397822" lon="-5.166415">
        <ele>866.710</ele>
        <time>2018-06-15T09:31:12Z</time>
      </trkpt>
      <trkpt lat="42.397849" lon="-5.166537">
        <ele>866.679</ele>
        <time>2018-06-15T09:31:14Z</time>
      </trkpt>
      <trkpt lat="42.397880" lon="-5.166654">
        <ele>866.619</ele>
        <time>2018-06-15T09:31:16Z</time>
      </trkpt>
      <trkpt lat="42.397898" lon="-5.166717">
        <ele>865.899</ele>
        <time>2018-06-15T09:31:17Z</time>
      </trkpt>
      <trkpt lat="42.397913" lon="-5.166781">
        <ele>865.369</ele>
        <time>2018-06-15T09:31:18Z</time>
      </trkpt>
      <trkpt lat="42.397933" lon="-5.166840">
        <ele>865.425</ele>
        <time>2018-06-15T09:31:19Z</time>
      </trkpt>
      <trkpt lat="42.397952" lon="-5.166910">
        <ele>865.126</ele>
        <time>2018-06-15T09:31:20Z</time>
      </trkpt>
      <trkpt lat="42.397979" lon="-5.166962">
        <ele>865.308</ele>
        <time>2018-06-15T09:31:21Z</time>
      </trkpt>
      <trkpt lat="42.398000" lon="-5.167019">
        <ele>865.808</ele>
        <time>2018-06-15T09:31:22Z</time>
      </trkpt>
      <trkpt lat="42.398025" lon="-5.167075">
        <ele>866.164</ele>
        <time>2018-06-15T09:31:23Z</time>
      </trkpt>
      <trkpt lat="42.398049" lon="-5.167142">
        <ele>865.947</ele>
        <time>2018-06-15T09:31:24Z</time>
      </trkpt>
      <trkpt lat="42.398093" lon="-5.167256">
        <ele>865.450</ele>
        <time>2018-06-15T09:31:26Z</time>
      </trkpt>
      <trkpt lat="42.398113" lon="-5.167320">
        <ele>865.184</ele>
        <time>2018-06-15T09:31:27Z</time>
      </trkpt>
      <trkpt lat="42.398159" lon="-5.167426">
        <ele>865.733</ele>
        <time>2018-06-15T09:31:29Z</time>
      </trkpt>
      <trkpt lat="42.398183" lon="-5.167484">
        <ele>866.183</ele>
        <time>2018-06-15T09:31:30Z</time>
      </trkpt>
      <trkpt lat="42.398207" lon="-5.167540">
        <ele>866.313</ele>
        <time>2018-06-15T09:31:31Z</time>
      </trkpt>
      <trkpt lat="42.398233" lon="-5.167594">
        <ele>866.023</ele>
        <time>2018-06-15T09:31:32Z</time>
      </trkpt>
      <trkpt lat="42.398259" lon="-5.167659">
        <ele>866.263</ele>
        <time>2018-06-15T09:31:33Z</time>
      </trkpt>
      <trkpt lat="42.398282" lon="-5.167723">
        <ele>866.744</ele>
        <time>2018-06-15T09:31:34Z</time>
      </trkpt>
      <trkpt lat="42.398302" lon="-5.167783">
        <ele>867.018</ele>
        <time>2018-06-15T09:31:35Z</time>
      </trkpt>
      <trkpt lat="42.398341" lon="-5.167893">
        <ele>867.208</ele>
        <time>2018-06-15T09:31:37Z</time>
      </trkpt>
      <trkpt lat="42.398362" lon="-5.167954">
        <ele>867.778</ele>
        <time>2018-06-15T09:31:38Z</time>
      </trkpt>
      <trkpt lat="42.398383" lon="-5.168008">
        <ele>868.051</ele>
        <time>2018-06-15T09:31:39Z</time>
      </trkpt>
      <trkpt lat="42.398423" lon="-5.168117">
        <ele>868.284</ele>
        <time>2018-06-15T09:31:41Z</time>
      </trkpt>
      <trkpt lat="42.398463" lon="-5.168217">
        <ele>868.388</ele>
        <time>2018-06-15T09:31:43Z</time>
      </trkpt>
      <trkpt lat="42.398502" lon="-5.168315">
        <ele>868.457</ele>
        <time>2018-06-15T09:31:45Z</time>
      </trkpt>
      <trkpt lat="42.398527" lon="-5.168384">
        <ele>868.817</ele>
        <time>2018-06-15T09:31:47Z</time>
      </trkpt>
      <trkpt lat="42.398559" lon="-5.168461">
        <ele>869.137</ele>
        <time>2018-06-15T09:31:50Z</time>
      </trkpt>
      <trkpt lat="42.398582" lon="-5.168515">
        <ele>869.797</ele>
        <time>2018-06-15T09:31:52Z</time>
      </trkpt>
      <trkpt lat="42.398625" lon="-5.168617">
        <ele>870.098</ele>
        <time>2018-06-15T09:31:53Z</time>
      </trkpt>
      <trkpt lat="42.398665" lon="-5.168714">
        <ele>870.215</ele>
        <time>2018-06-15T09:31:55Z</time>
      </trkpt>
      <trkpt lat="42.398710" lon="-5.168808">
        <ele>870.726</ele>
        <time>2018-06-15T09:31:57Z</time>
      </trkpt>
      <trkpt lat="42.398752" lon="-5.168903">
        <ele>871.008</ele>
        <time>2018-06-15T09:31:59Z</time>
      </trkpt>
      <trkpt lat="42.398787" lon="-5.169006">
        <ele>871.261</ele>
        <time>2018-06-15T09:32:01Z</time>
      </trkpt>
      <trkpt lat="42.398818" lon="-5.169108">
        <ele>870.944</ele>
        <time>2018-06-15T09:32:03Z</time>
      </trkpt>
      <trkpt lat="42.398856" lon="-5.169203">
        <ele>870.777</ele>
        <time>2018-06-15T09:32:05Z</time>
      </trkpt>
      <trkpt lat="42.398893" lon="-5.169303">
        <ele>871.091</ele>
        <time>2018-06-15T09:32:07Z</time>
      </trkpt>
      <trkpt lat="42.398932" lon="-5.169399">
        <ele>871.230</ele>
        <time>2018-06-15T09:32:09Z</time>
      </trkpt>
      <trkpt lat="42.398968" lon="-5.169499">
        <ele>871.390</ele>
        <time>2018-06-15T09:32:11Z</time>
      </trkpt>
      <trkpt lat="42.399008" lon="-5.169594">
        <ele>871.430</ele>
        <time>2018-06-15T09:32:13Z</time>
      </trkpt>
      <trkpt lat="42.399045" lon="-5.169689">
        <ele>871.850</ele>
        <time>2018-06-15T09:32:15Z</time>
      </trkpt>
      <trkpt lat="42.399080" lon="-5.169789">
        <ele>872.139</ele>
        <time>2018-06-15T09:32:17Z</time>
      </trkpt>
      <trkpt lat="42.399113" lon="-5.169885">
        <ele>872.301</ele>
        <time>2018-06-15T09:32:19Z</time>
      </trkpt>
      <trkpt lat="42.399151" lon="-5.169978">
        <ele>872.421</ele>
        <time>2018-06-15T09:32:21Z</time>
      </trkpt>
      <trkpt lat="42.399191" lon="-5.170073">
        <ele>872.908</ele>
        <time>2018-06-15T09:32:23Z</time>
      </trkpt>
      <trkpt lat="42.399228" lon="-5.170174">
        <ele>873.255</ele>
        <time>2018-06-15T09:32:25Z</time>
      </trkpt>
      <trkpt lat="42.399267" lon="-5.170280">
        <ele>873.478</ele>
        <time>2018-06-15T09:32:27Z</time>
      </trkpt>
      <trkpt lat="42.399309" lon="-5.170383">
        <ele>873.921</ele>
        <time>2018-06-15T09:32:29Z</time>
      </trkpt>
      <trkpt lat="42.399348" lon="-5.170481">
        <ele>874.255</ele>
        <time>2018-06-15T09:32:31Z</time>
      </trkpt>
      <trkpt lat="42.399391" lon="-5.170579">
        <ele>874.454</ele>
        <time>2018-06-15T09:32:33Z</time>
      </trkpt>
      <trkpt lat="42.399430" lon="-5.170673">
        <ele>874.524</ele>
        <time>2018-06-15T09:32:35Z</time>
      </trkpt>
      <trkpt lat="42.399468" lon="-5.170773">
        <ele>875.024</ele>
        <time>2018-06-15T09:32:37Z</time>
      </trkpt>
      <trkpt lat="42.399505" lon="-5.170874">
        <ele>875.354</ele>
        <time>2018-06-15T09:32:39Z</time>
      </trkpt>
      <trkpt lat="42.399543" lon="-5.170964">
        <ele>875.598</ele>
        <time>2018-06-15T09:32:41Z</time>
      </trkpt>
      <trkpt lat="42.399577" lon="-5.171056">
        <ele>876.015</ele>
        <time>2018-06-15T09:32:43Z</time>
      </trkpt>
      <trkpt lat="42.399611" lon="-5.171152">
        <ele>876.726</ele>
        <time>2018-06-15T09:32:45Z</time>
      </trkpt>
      <trkpt lat="42.399648" lon="-5.171240">
        <ele>877.108</ele>
        <time>2018-06-15T09:32:47Z</time>
      </trkpt>
      <trkpt lat="42.399687" lon="-5.171327">
        <ele>877.451</ele>
        <time>2018-06-15T09:32:49Z</time>
      </trkpt>
      <trkpt lat="42.399724" lon="-5.171426">
        <ele>877.624</ele>
        <time>2018-06-15T09:32:51Z</time>
      </trkpt>
      <trkpt lat="42.399764" lon="-5.171521">
        <ele>877.757</ele>
        <time>2018-06-15T09:32:53Z</time>
      </trkpt>
      <trkpt lat="42.399801" lon="-5.171610">
        <ele>878.261</ele>
        <time>2018-06-15T09:32:55Z</time>
      </trkpt>
      <trkpt lat="42.399837" lon="-5.171702">
        <ele>878.520</ele>
        <time>2018-06-15T09:32:57Z</time>
      </trkpt>
      <trkpt lat="42.399875" lon="-5.171791">
        <ele>878.730</ele>
        <time>2018-06-15T09:32:59Z</time>
      </trkpt>
      <trkpt lat="42.399914" lon="-5.171882">
        <ele>878.860</ele>
        <time>2018-06-15T09:33:01Z</time>
      </trkpt>
      <trkpt lat="42.399947" lon="-5.171976">
        <ele>879.330</ele>
        <time>2018-06-15T09:33:03Z</time>
      </trkpt>
      <trkpt lat="42.399983" lon="-5.172071">
        <ele>879.655</ele>
        <time>2018-06-15T09:33:05Z</time>
      </trkpt>
      <trkpt lat="42.400016" lon="-5.172167">
        <ele>879.807</ele>
        <time>2018-06-15T09:33:07Z</time>
      </trkpt>
      <trkpt lat="42.400050" lon="-5.172266">
        <ele>879.917</ele>
        <time>2018-06-15T09:33:09Z</time>
      </trkpt>
      <trkpt lat="42.400087" lon="-5.172361">
        <ele>880.408</ele>
        <time>2018-06-15T09:33:11Z</time>
      </trkpt>
      <trkpt lat="42.400130" lon="-5.172464">
        <ele>880.737</ele>
        <time>2018-06-15T09:33:13Z</time>
      </trkpt>
      <trkpt lat="42.400172" lon="-5.172568">
        <ele>881.340</ele>
        <time>2018-06-15T09:33:15Z</time>
      </trkpt>
      <trkpt lat="42.400213" lon="-5.172670">
        <ele>881.613</ele>
        <time>2018-06-15T09:33:17Z</time>
      </trkpt>
      <trkpt lat="42.400250" lon="-5.172774">
        <ele>881.827</ele>
        <time>2018-06-15T09:33:19Z</time>
      </trkpt>
      <trkpt lat="42.400289" lon="-5.172876">
        <ele>881.536</ele>
        <time>2018-06-15T09:33:21Z</time>
      </trkpt>
      <trkpt lat="42.400330" lon="-5.172984">
        <ele>881.356</ele>
        <time>2018-06-15T09:33:23Z</time>
      </trkpt>
      <trkpt lat="42.400372" lon="-5.173090">
        <ele>881.626</ele>
        <time>2018-06-15T09:33:25Z</time>
      </trkpt>
      <trkpt lat="42.400414" lon="-5.173194">
        <ele>881.876</ele>
        <time>2018-06-15T09:33:27Z</time>
      </trkpt>
      <trkpt lat="42.400460" lon="-5.173288">
        <ele>881.987</ele>
        <time>2018-06-15T09:33:29Z</time>
      </trkpt>
      <trkpt lat="42.400505" lon="-5.173384">
        <ele>882.042</ele>
        <time>2018-06-15T09:33:31Z</time>
      </trkpt>
      <trkpt lat="42.400546" lon="-5.173480">
        <ele>882.026</ele>
        <time>2018-06-15T09:33:33Z</time>
      </trkpt>
      <trkpt lat="42.400585" lon="-5.173570">
        <ele>882.008</ele>
        <time>2018-06-15T09:33:35Z</time>
      </trkpt>
      <trkpt lat="42.400622" lon="-5.173666">
        <ele>882.010</ele>
        <time>2018-06-15T09:33:37Z</time>
      </trkpt>
      <trkpt lat="42.400659" lon="-5.173767">
        <ele>882.053</ele>
        <time>2018-06-15T09:33:39Z</time>
      </trkpt>
      <trkpt lat="42.400694" lon="-5.173857">
        <ele>882.046</ele>
        <time>2018-06-15T09:33:41Z</time>
      </trkpt>
      <trkpt lat="42.400721" lon="-5.173924">
        <ele>882.010</ele>
        <time>2018-06-15T09:33:43Z</time>
      </trkpt>
      <trkpt lat="42.400758" lon="-5.174008">
        <ele>882.029</ele>
        <time>2018-06-15T09:33:46Z</time>
      </trkpt>
      <trkpt lat="42.400804" lon="-5.174104">
        <ele>881.689</ele>
        <time>2018-06-15T09:33:47Z</time>
      </trkpt>
      <trkpt lat="42.400845" lon="-5.174195">
        <ele>881.429</ele>
        <time>2018-06-15T09:33:49Z</time>
      </trkpt>
      <trkpt lat="42.400879" lon="-5.174279">
        <ele>881.389</ele>
        <time>2018-06-15T09:33:51Z</time>
      </trkpt>
      <trkpt lat="42.400914" lon="-5.174375">
        <ele>881.268</ele>
        <time>2018-06-15T09:33:53Z</time>
      </trkpt>
      <trkpt lat="42.400950" lon="-5.174469">
        <ele>881.142</ele>
        <time>2018-06-15T09:33:55Z</time>
      </trkpt>
      <trkpt lat="42.400985" lon="-5.174568">
        <ele>881.126</ele>
        <time>2018-06-15T09:33:57Z</time>
      </trkpt>
      <trkpt lat="42.401020" lon="-5.174658">
        <ele>881.108</ele>
        <time>2018-06-15T09:33:59Z</time>
      </trkpt>
      <trkpt lat="42.401054" lon="-5.174752">
        <ele>881.138</ele>
        <time>2018-06-15T09:34:01Z</time>
      </trkpt>
      <trkpt lat="42.401088" lon="-5.174837">
        <ele>881.191</ele>
        <time>2018-06-15T09:34:03Z</time>
      </trkpt>
      <trkpt lat="42.401127" lon="-5.174927">
        <ele>881.164</ele>
        <time>2018-06-15T09:34:05Z</time>
      </trkpt>
      <trkpt lat="42.401160" lon="-5.175014">
        <ele>881.138</ele>
        <time>2018-06-15T09:34:07Z</time>
      </trkpt>
      <trkpt lat="42.401198" lon="-5.175098">
        <ele>881.197</ele>
        <time>2018-06-15T09:34:09Z</time>
      </trkpt>
      <trkpt lat="42.401236" lon="-5.175190">
        <ele>881.127</ele>
        <time>2018-06-15T09:34:11Z</time>
      </trkpt>
      <trkpt lat="42.401271" lon="-5.175283">
        <ele>881.567</ele>
        <time>2018-06-15T09:34:13Z</time>
      </trkpt>
      <trkpt lat="42.401310" lon="-5.175377">
        <ele>881.747</ele>
        <time>2018-06-15T09:34:15Z</time>
      </trkpt>
      <trkpt lat="42.401338" lon="-5.175444">
        <ele>881.847</ele>
        <time>2018-06-15T09:34:17Z</time>
      </trkpt>
      <trkpt lat="42.401361" lon="-5.175512">
        <ele>881.929</ele>
        <time>2018-06-15T09:34:18Z</time>
      </trkpt>
      <trkpt lat="42.401396" lon="-5.175603">
        <ele>881.621</ele>
        <time>2018-06-15T09:34:20Z</time>
      </trkpt>
      <trkpt lat="42.401434" lon="-5.175691">
        <ele>881.408</ele>
        <time>2018-06-15T09:34:22Z</time>
      </trkpt>
      <trkpt lat="42.401473" lon="-5.175786">
        <ele>881.386</ele>
        <time>2018-06-15T09:34:24Z</time>
      </trkpt>
      <trkpt lat="42.401508" lon="-5.175883">
        <ele>881.619</ele>
        <time>2018-06-15T09:34:26Z</time>
      </trkpt>
      <trkpt lat="42.401545" lon="-5.175974">
        <ele>881.832</ele>
        <time>2018-06-15T09:34:28Z</time>
      </trkpt>
      <trkpt lat="42.401586" lon="-5.176069">
        <ele>881.926</ele>
        <time>2018-06-15T09:34:30Z</time>
      </trkpt>
      <trkpt lat="42.401621" lon="-5.176163">
        <ele>881.635</ele>
        <time>2018-06-15T09:34:32Z</time>
      </trkpt>
      <trkpt lat="42.401657" lon="-5.176258">
        <ele>881.485</ele>
        <time>2018-06-15T09:34:34Z</time>
      </trkpt>
      <trkpt lat="42.401695" lon="-5.176358">
        <ele>881.735</ele>
        <time>2018-06-15T09:34:36Z</time>
      </trkpt>
      <trkpt lat="42.401736" lon="-5.176459">
        <ele>881.915</ele>
        <time>2018-06-15T09:34:38Z</time>
      </trkpt>
      <trkpt lat="42.401774" lon="-5.176554">
        <ele>882.025</ele>
        <time>2018-06-15T09:34:40Z</time>
      </trkpt>
      <trkpt lat="42.401808" lon="-5.176648">
        <ele>882.126</ele>
        <time>2018-06-15T09:34:42Z</time>
      </trkpt>
      <trkpt lat="42.401845" lon="-5.176741">
        <ele>882.108</ele>
        <time>2018-06-15T09:34:44Z</time>
      </trkpt>
      <trkpt lat="42.401888" lon="-5.176839">
        <ele>882.108</ele>
        <time>2018-06-15T09:34:46Z</time>
      </trkpt>
      <trkpt lat="42.401930" lon="-5.176934">
        <ele>882.184</ele>
        <time>2018-06-15T09:34:48Z</time>
      </trkpt>
      <trkpt lat="42.401967" lon="-5.177029">
        <ele>882.167</ele>
        <time>2018-06-15T09:34:50Z</time>
      </trkpt>
      <trkpt lat="42.402001" lon="-5.177121">
        <ele>882.170</ele>
        <time>2018-06-15T09:34:52Z</time>
      </trkpt>
      <trkpt lat="42.402035" lon="-5.177216">
        <ele>882.134</ele>
        <time>2018-06-15T09:34:54Z</time>
      </trkpt>
      <trkpt lat="42.402074" lon="-5.177309">
        <ele>882.173</ele>
        <time>2018-06-15T09:34:56Z</time>
      </trkpt>
      <trkpt lat="42.402114" lon="-5.177407">
        <ele>882.583</ele>
        <time>2018-06-15T09:34:58Z</time>
      </trkpt>
      <trkpt lat="42.402151" lon="-5.177504">
        <ele>882.713</ele>
        <time>2018-06-15T09:35:00Z</time>
      </trkpt>
      <trkpt lat="42.402187" lon="-5.177596">
        <ele>882.493</ele>
        <time>2018-06-15T09:35:02Z</time>
      </trkpt>
      <trkpt lat="42.402224" lon="-5.177686">
        <ele>882.255</ele>
        <time>2018-06-15T09:35:04Z</time>
      </trkpt>
      <trkpt lat="42.402265" lon="-5.177784">
        <ele>882.107</ele>
        <time>2018-06-15T09:35:06Z</time>
      </trkpt>
      <trkpt lat="42.402304" lon="-5.177883">
        <ele>882.017</ele>
        <time>2018-06-15T09:35:08Z</time>
      </trkpt>
      <trkpt lat="42.402342" lon="-5.177981">
        <ele>882.008</ele>
        <time>2018-06-15T09:35:10Z</time>
      </trkpt>
      <trkpt lat="42.402378" lon="-5.178071">
        <ele>882.057</ele>
        <time>2018-06-15T09:35:12Z</time>
      </trkpt>
      <trkpt lat="42.402414" lon="-5.178169">
        <ele>882.020</ele>
        <time>2018-06-15T09:35:14Z</time>
      </trkpt>
      <trkpt lat="42.402455" lon="-5.178266">
        <ele>882.073</ele>
        <time>2018-06-15T09:35:16Z</time>
      </trkpt>
      <trkpt lat="42.402490" lon="-5.178361">
        <ele>882.057</ele>
        <time>2018-06-15T09:35:18Z</time>
      </trkpt>
      <trkpt lat="42.402527" lon="-5.178461">
        <ele>882.076</ele>
        <time>2018-06-15T09:35:20Z</time>
      </trkpt>
      <trkpt lat="42.402564" lon="-5.178555">
        <ele>882.426</ele>
        <time>2018-06-15T09:35:22Z</time>
      </trkpt>
      <trkpt lat="42.402603" lon="-5.178651">
        <ele>882.656</ele>
        <time>2018-06-15T09:35:24Z</time>
      </trkpt>
      <trkpt lat="42.402640" lon="-5.178742">
        <ele>882.396</ele>
        <time>2018-06-15T09:35:26Z</time>
      </trkpt>
      <trkpt lat="42.402676" lon="-5.178837">
        <ele>882.192</ele>
        <time>2018-06-15T09:35:28Z</time>
      </trkpt>
      <trkpt lat="42.402708" lon="-5.178928">
        <ele>882.073</ele>
        <time>2018-06-15T09:35:30Z</time>
      </trkpt>
      <trkpt lat="42.402750" lon="-5.179019">
        <ele>881.920</ele>
        <time>2018-06-15T09:35:32Z</time>
      </trkpt>
      <trkpt lat="42.402786" lon="-5.179110">
        <ele>881.908</ele>
        <time>2018-06-15T09:35:34Z</time>
      </trkpt>
      <trkpt lat="42.402825" lon="-5.179198">
        <ele>881.951</ele>
        <time>2018-06-15T09:35:36Z</time>
      </trkpt>
      <trkpt lat="42.402860" lon="-5.179289">
        <ele>881.984</ele>
        <time>2018-06-15T09:35:38Z</time>
      </trkpt>
      <trkpt lat="42.402900" lon="-5.179376">
        <ele>881.987</ele>
        <time>2018-06-15T09:35:40Z</time>
      </trkpt>
      <trkpt lat="42.402932" lon="-5.179466">
        <ele>881.991</ele>
        <time>2018-06-15T09:35:42Z</time>
      </trkpt>
      <trkpt lat="42.402969" lon="-5.179554">
        <ele>881.960</ele>
        <time>2018-06-15T09:35:44Z</time>
      </trkpt>
      <trkpt lat="42.402997" lon="-5.179621">
        <ele>881.920</ele>
        <time>2018-06-15T09:35:46Z</time>
      </trkpt>
      <trkpt lat="42.403030" lon="-5.179705">
        <ele>881.950</ele>
        <time>2018-06-15T09:35:49Z</time>
      </trkpt>
      <trkpt lat="42.403059" lon="-5.179776">
        <ele>881.540</ele>
        <time>2018-06-15T09:35:51Z</time>
      </trkpt>
      <trkpt lat="42.403089" lon="-5.179850">
        <ele>881.769</ele>
        <time>2018-06-15T09:35:53Z</time>
      </trkpt>
      <trkpt lat="42.403119" lon="-5.179921">
        <ele>881.404</ele>
        <time>2018-06-15T09:35:55Z</time>
      </trkpt>
      <trkpt lat="42.403149" lon="-5.179997">
        <ele>881.224</ele>
        <time>2018-06-15T09:35:57Z</time>
      </trkpt>
      <trkpt lat="42.403180" lon="-5.180078">
        <ele>881.108</ele>
        <time>2018-06-15T09:35:59Z</time>
      </trkpt>
      <trkpt lat="42.403212" lon="-5.180164">
        <ele>881.448</ele>
        <time>2018-06-15T09:36:01Z</time>
      </trkpt>
      <trkpt lat="42.403246" lon="-5.180246">
        <ele>881.291</ele>
        <time>2018-06-15T09:36:03Z</time>
      </trkpt>
      <trkpt lat="42.403280" lon="-5.180327">
        <ele>881.194</ele>
        <time>2018-06-15T09:36:05Z</time>
      </trkpt>
      <trkpt lat="42.403332" lon="-5.180455">
        <ele>881.028</ele>
        <time>2018-06-15T09:36:06Z</time>
      </trkpt>
      <trkpt lat="42.403357" lon="-5.180521">
        <ele>881.057</ele>
        <time>2018-06-15T09:36:08Z</time>
      </trkpt>
      <trkpt lat="42.403378" lon="-5.180577">
        <ele>880.617</ele>
        <time>2018-06-15T09:36:10Z</time>
      </trkpt>
      <trkpt lat="42.403404" lon="-5.180644">
        <ele>880.747</ele>
        <time>2018-06-15T09:36:12Z</time>
      </trkpt>
      <trkpt lat="42.403435" lon="-5.180717">
        <ele>880.897</ele>
        <time>2018-06-15T09:36:14Z</time>
      </trkpt>
      <trkpt lat="42.403483" lon="-5.180836">
        <ele>880.976</ele>
        <time>2018-06-15T09:36:15Z</time>
      </trkpt>
      <trkpt lat="42.403516" lon="-5.180925">
        <ele>880.990</ele>
        <time>2018-06-15T09:36:17Z</time>
      </trkpt>
      <trkpt lat="42.403552" lon="-5.181019">
        <ele>881.319</ele>
        <time>2018-06-15T09:36:19Z</time>
      </trkpt>
      <trkpt lat="42.403592" lon="-5.181117">
        <ele>881.608</ele>
        <time>2018-06-15T09:36:21Z</time>
      </trkpt>
      <trkpt lat="42.403634" lon="-5.181212">
        <ele>881.869</ele>
        <time>2018-06-15T09:36:23Z</time>
      </trkpt>
      <trkpt lat="42.403674" lon="-5.181308">
        <ele>881.952</ele>
        <time>2018-06-15T09:36:25Z</time>
      </trkpt>
      <trkpt lat="42.403713" lon="-5.181402">
        <ele>882.065</ele>
        <time>2018-06-15T09:36:27Z</time>
      </trkpt>
      <trkpt lat="42.403751" lon="-5.181502">
        <ele>882.049</ele>
        <time>2018-06-15T09:36:29Z</time>
      </trkpt>
      <trkpt lat="42.403787" lon="-5.181599">
        <ele>882.098</ele>
        <time>2018-06-15T09:36:31Z</time>
      </trkpt>
      <trkpt lat="42.403823" lon="-5.181692">
        <ele>882.068</ele>
        <time>2018-06-15T09:36:33Z</time>
      </trkpt>
      <trkpt lat="42.403862" lon="-5.181787">
        <ele>882.028</ele>
        <time>2018-06-15T09:36:35Z</time>
      </trkpt>
      <trkpt lat="42.403902" lon="-5.181887">
        <ele>882.088</ele>
        <time>2018-06-15T09:36:37Z</time>
      </trkpt>
      <trkpt lat="42.403942" lon="-5.181978">
        <ele>882.067</ele>
        <time>2018-06-15T09:36:39Z</time>
      </trkpt>
      <trkpt lat="42.403975" lon="-5.182070">
        <ele>882.081</ele>
        <time>2018-06-15T09:36:41Z</time>
      </trkpt>
      <trkpt lat="42.404015" lon="-5.182163">
        <ele>882.419</ele>
        <time>2018-06-15T09:36:43Z</time>
      </trkpt>
      <trkpt lat="42.404054" lon="-5.182265">
        <ele>882.608</ele>
        <time>2018-06-15T09:36:45Z</time>
      </trkpt>
      <trkpt lat="42.404088" lon="-5.182357">
        <ele>883.188</ele>
        <time>2018-06-15T09:36:47Z</time>
      </trkpt>
      <trkpt lat="42.404123" lon="-5.182451">
        <ele>883.081</ele>
        <time>2018-06-15T09:36:49Z</time>
      </trkpt>
      <trkpt lat="42.404161" lon="-5.182541">
        <ele>883.074</ele>
        <time>2018-06-15T09:36:51Z</time>
      </trkpt>
      <trkpt lat="42.404199" lon="-5.182634">
        <ele>883.068</ele>
        <time>2018-06-15T09:36:53Z</time>
      </trkpt>
      <trkpt lat="42.404234" lon="-5.182731">
        <ele>883.447</ele>
        <time>2018-06-15T09:36:55Z</time>
      </trkpt>
      <trkpt lat="42.404270" lon="-5.182830">
        <ele>883.627</ele>
        <time>2018-06-15T09:36:57Z</time>
      </trkpt>
      <trkpt lat="42.404305" lon="-5.182923">
        <ele>883.717</ele>
        <time>2018-06-15T09:36:59Z</time>
      </trkpt>
      <trkpt lat="42.404344" lon="-5.183015">
        <ele>883.877</ele>
        <time>2018-06-15T09:37:01Z</time>
      </trkpt>
      <trkpt lat="42.404383" lon="-5.183114">
        <ele>883.878</ele>
        <time>2018-06-15T09:37:03Z</time>
      </trkpt>
      <trkpt lat="42.404422" lon="-5.183209">
        <ele>883.833</ele>
        <time>2018-06-15T09:37:05Z</time>
      </trkpt>
      <trkpt lat="42.404464" lon="-5.183312">
        <ele>883.826</ele>
        <time>2018-06-15T09:37:07Z</time>
      </trkpt>
      <trkpt lat="42.404501" lon="-5.183410">
        <ele>884.208</ele>
        <time>2018-06-15T09:37:09Z</time>
      </trkpt>
      <trkpt lat="42.404539" lon="-5.183505">
        <ele>884.459</ele>
        <time>2018-06-15T09:37:11Z</time>
      </trkpt>
      <trkpt lat="42.404577" lon="-5.183601">
        <ele>884.592</ele>
        <time>2018-06-15T09:37:13Z</time>
      </trkpt>
      <trkpt lat="42.404618" lon="-5.183688">
        <ele>884.685</ele>
        <time>2018-06-15T09:37:15Z</time>
      </trkpt>
      <trkpt lat="42.404655" lon="-5.183786">
        <ele>884.779</ele>
        <time>2018-06-15T09:37:17Z</time>
      </trkpt>
      <trkpt lat="42.404689" lon="-5.183877">
        <ele>884.778</ele>
        <time>2018-06-15T09:37:19Z</time>
      </trkpt>
      <trkpt lat="42.404712" lon="-5.183946">
        <ele>884.778</ele>
        <time>2018-06-15T09:37:21Z</time>
      </trkpt>
      <trkpt lat="42.404732" lon="-5.184016">
        <ele>884.378</ele>
        <time>2018-06-15T09:37:22Z</time>
      </trkpt>
      <trkpt lat="42.404774" lon="-5.184106">
        <ele>884.178</ele>
        <time>2018-06-15T09:37:24Z</time>
      </trkpt>
      <trkpt lat="42.404810" lon="-5.184201">
        <ele>884.026</ele>
        <time>2018-06-15T09:37:26Z</time>
      </trkpt>
      <trkpt lat="42.404843" lon="-5.184297">
        <ele>883.947</ele>
        <time>2018-06-15T09:37:28Z</time>
      </trkpt>
      <trkpt lat="42.404882" lon="-5.184390">
        <ele>884.211</ele>
        <time>2018-06-15T09:37:30Z</time>
      </trkpt>
      <trkpt lat="42.404925" lon="-5.184481">
        <ele>884.408</ele>
        <time>2018-06-15T09:37:32Z</time>
      </trkpt>
      <trkpt lat="42.404966" lon="-5.184570">
        <ele>884.524</ele>
        <time>2018-06-15T09:37:34Z</time>
      </trkpt>
      <trkpt lat="42.405009" lon="-5.184658">
        <ele>884.677</ele>
        <time>2018-06-15T09:37:36Z</time>
      </trkpt>
      <trkpt lat="42.405049" lon="-5.184743">
        <ele>885.090</ele>
        <time>2018-06-15T09:37:38Z</time>
      </trkpt>
      <trkpt lat="42.405094" lon="-5.184830">
        <ele>884.954</ele>
        <time>2018-06-15T09:37:40Z</time>
      </trkpt>
      <trkpt lat="42.405139" lon="-5.184910">
        <ele>884.863</ele>
        <time>2018-06-15T09:37:42Z</time>
      </trkpt>
      <trkpt lat="42.405181" lon="-5.184996">
        <ele>884.823</ele>
        <time>2018-06-15T09:37:44Z</time>
      </trkpt>
      <trkpt lat="42.405224" lon="-5.185083">
        <ele>884.853</ele>
        <time>2018-06-15T09:37:46Z</time>
      </trkpt>
      <trkpt lat="42.405266" lon="-5.185171">
        <ele>884.893</ele>
        <time>2018-06-15T09:37:48Z</time>
      </trkpt>
      <trkpt lat="42.405309" lon="-5.185261">
        <ele>884.812</ele>
        <time>2018-06-15T09:37:50Z</time>
      </trkpt>
      <trkpt lat="42.405356" lon="-5.185344">
        <ele>885.232</ele>
        <time>2018-06-15T09:37:52Z</time>
      </trkpt>
      <trkpt lat="42.405399" lon="-5.185433">
        <ele>885.405</ele>
        <time>2018-06-15T09:37:54Z</time>
      </trkpt>
      <trkpt lat="42.405440" lon="-5.185524">
        <ele>885.908</ele>
        <time>2018-06-15T09:37:56Z</time>
      </trkpt>
      <trkpt lat="42.405480" lon="-5.185611">
        <ele>886.243</ele>
        <time>2018-06-15T09:37:58Z</time>
      </trkpt>
      <trkpt lat="42.405522" lon="-5.185696">
        <ele>886.446</ele>
        <time>2018-06-15T09:38:00Z</time>
      </trkpt>
      <trkpt lat="42.405564" lon="-5.185784">
        <ele>886.169</ele>
        <time>2018-06-15T09:38:02Z</time>
      </trkpt>
      <trkpt lat="42.405606" lon="-5.185876">
        <ele>886.363</ele>
        <time>2018-06-15T09:38:04Z</time>
      </trkpt>
      <trkpt lat="42.405646" lon="-5.185969">
        <ele>886.492</ele>
        <time>2018-06-15T09:38:06Z</time>
      </trkpt>
      <trkpt lat="42.405690" lon="-5.186057">
        <ele>886.512</ele>
        <time>2018-06-15T09:38:08Z</time>
      </trkpt>
      <trkpt lat="42.405732" lon="-5.186146">
        <ele>886.512</ele>
        <time>2018-06-15T09:38:10Z</time>
      </trkpt>
      <trkpt lat="42.405771" lon="-5.186235">
        <ele>886.542</ele>
        <time>2018-06-15T09:38:12Z</time>
      </trkpt>
      <trkpt lat="42.405812" lon="-5.186322">
        <ele>886.922</ele>
        <time>2018-06-15T09:38:14Z</time>
      </trkpt>
      <trkpt lat="42.405859" lon="-5.186410">
        <ele>887.262</ele>
        <time>2018-06-15T09:38:16Z</time>
      </trkpt>
      <trkpt lat="42.405900" lon="-5.186496">
        <ele>887.408</ele>
        <time>2018-06-15T09:38:18Z</time>
      </trkpt>
      <trkpt lat="42.405941" lon="-5.186588">
        <ele>887.508</ele>
        <time>2018-06-15T09:38:20Z</time>
      </trkpt>
      <trkpt lat="42.405984" lon="-5.186676">
        <ele>887.614</ele>
        <time>2018-06-15T09:38:22Z</time>
      </trkpt>
      <trkpt lat="42.406026" lon="-5.186763">
        <ele>887.627</ele>
        <time>2018-06-15T09:38:24Z</time>
      </trkpt>
      <trkpt lat="42.406071" lon="-5.186850">
        <ele>887.650</ele>
        <time>2018-06-15T09:38:26Z</time>
      </trkpt>
      <trkpt lat="42.406115" lon="-5.186934">
        <ele>887.654</ele>
        <time>2018-06-15T09:38:28Z</time>
      </trkpt>
      <trkpt lat="42.406156" lon="-5.187025">
        <ele>887.643</ele>
        <time>2018-06-15T09:38:30Z</time>
      </trkpt>
      <trkpt lat="42.406199" lon="-5.187118">
        <ele>888.013</ele>
        <time>2018-06-15T09:38:32Z</time>
      </trkpt>
      <trkpt lat="42.406236" lon="-5.187210">
        <ele>887.853</ele>
        <time>2018-06-15T09:38:34Z</time>
      </trkpt>
      <trkpt lat="42.406279" lon="-5.187301">
        <ele>888.153</ele>
        <time>2018-06-15T09:38:36Z</time>
      </trkpt>
      <trkpt lat="42.406324" lon="-5.187393">
        <ele>887.927</ele>
        <time>2018-06-15T09:38:38Z</time>
      </trkpt>
      <trkpt lat="42.406367" lon="-5.187482">
        <ele>887.868</ele>
        <time>2018-06-15T09:38:40Z</time>
      </trkpt>
      <trkpt lat="42.406412" lon="-5.187578">
        <ele>887.714</ele>
        <time>2018-06-15T09:38:42Z</time>
      </trkpt>
      <trkpt lat="42.406456" lon="-5.187677">
        <ele>887.708</ele>
        <time>2018-06-15T09:38:44Z</time>
      </trkpt>
      <trkpt lat="42.406502" lon="-5.187777">
        <ele>888.154</ele>
        <time>2018-06-15T09:38:46Z</time>
      </trkpt>
      <trkpt lat="42.406548" lon="-5.187877">
        <ele>888.317</ele>
        <time>2018-06-15T09:38:48Z</time>
      </trkpt>
      <trkpt lat="42.406596" lon="-5.187973">
        <ele>888.460</ele>
        <time>2018-06-15T09:38:50Z</time>
      </trkpt>
      <trkpt lat="42.406644" lon="-5.188074">
        <ele>888.584</ele>
        <time>2018-06-15T09:38:52Z</time>
      </trkpt>
      <trkpt lat="42.406689" lon="-5.188170">
        <ele>888.983</ele>
        <time>2018-06-15T09:38:54Z</time>
      </trkpt>
      <trkpt lat="42.406734" lon="-5.188264">
        <ele>889.283</ele>
        <time>2018-06-15T09:38:56Z</time>
      </trkpt>
      <trkpt lat="42.406778" lon="-5.188354">
        <ele>889.433</ele>
        <time>2018-06-15T09:38:58Z</time>
      </trkpt>
      <trkpt lat="42.406821" lon="-5.188446">
        <ele>889.533</ele>
        <time>2018-06-15T09:39:00Z</time>
      </trkpt>
      <trkpt lat="42.406865" lon="-5.188540">
        <ele>889.661</ele>
        <time>2018-06-15T09:39:02Z</time>
      </trkpt>
      <trkpt lat="42.406911" lon="-5.188638">
        <ele>889.621</ele>
        <time>2018-06-15T09:39:04Z</time>
      </trkpt>
      <trkpt lat="42.406959" lon="-5.188734">
        <ele>889.613</ele>
        <time>2018-06-15T09:39:06Z</time>
      </trkpt>
      <trkpt lat="42.407003" lon="-5.188831">
        <ele>889.608</ele>
        <time>2018-06-15T09:39:08Z</time>
      </trkpt>
      <trkpt lat="42.407047" lon="-5.188925">
        <ele>889.688</ele>
        <time>2018-06-15T09:39:10Z</time>
      </trkpt>
      <trkpt lat="42.407089" lon="-5.189020">
        <ele>889.651</ele>
        <time>2018-06-15T09:39:12Z</time>
      </trkpt>
      <trkpt lat="42.407131" lon="-5.189113">
        <ele>889.664</ele>
        <time>2018-06-15T09:39:14Z</time>
      </trkpt>
      <trkpt lat="42.407176" lon="-5.189207">
        <ele>889.638</ele>
        <time>2018-06-15T09:39:16Z</time>
      </trkpt>
      <trkpt lat="42.407222" lon="-5.189303">
        <ele>889.667</ele>
        <time>2018-06-15T09:39:18Z</time>
      </trkpt>
      <trkpt lat="42.407267" lon="-5.189400">
        <ele>889.647</ele>
        <time>2018-06-15T09:39:20Z</time>
      </trkpt>
      <trkpt lat="42.407292" lon="-5.189451">
        <ele>889.697</ele>
        <time>2018-06-15T09:39:21Z</time>
      </trkpt>
      <trkpt lat="42.407338" lon="-5.189544">
        <ele>889.687</ele>
        <time>2018-06-15T09:39:23Z</time>
      </trkpt>
      <trkpt lat="42.407383" lon="-5.189646">
        <ele>889.634</ele>
        <time>2018-06-15T09:39:25Z</time>
      </trkpt>
      <trkpt lat="42.407430" lon="-5.189743">
        <ele>889.655</ele>
        <time>2018-06-15T09:39:27Z</time>
      </trkpt>
      <trkpt lat="42.407477" lon="-5.189843">
        <ele>889.610</ele>
        <time>2018-06-15T09:39:29Z</time>
      </trkpt>
      <trkpt lat="42.407524" lon="-5.189941">
        <ele>889.608</ele>
        <time>2018-06-15T09:39:31Z</time>
      </trkpt>
      <trkpt lat="42.407569" lon="-5.190038">
        <ele>889.685</ele>
        <time>2018-06-15T09:39:33Z</time>
      </trkpt>
      <trkpt lat="42.407613" lon="-5.190136">
        <ele>889.678</ele>
        <time>2018-06-15T09:39:35Z</time>
      </trkpt>
      <trkpt lat="42.407657" lon="-5.190231">
        <ele>889.631</ele>
        <time>2018-06-15T09:39:37Z</time>
      </trkpt>
      <trkpt lat="42.407702" lon="-5.190325">
        <ele>889.655</ele>
        <time>2018-06-15T09:39:39Z</time>
      </trkpt>
      <trkpt lat="42.407746" lon="-5.190423">
        <ele>889.664</ele>
        <time>2018-06-15T09:39:41Z</time>
      </trkpt>
      <trkpt lat="42.407788" lon="-5.190518">
        <ele>889.224</ele>
        <time>2018-06-15T09:39:43Z</time>
      </trkpt>
      <trkpt lat="42.407830" lon="-5.190610">
        <ele>889.424</ele>
        <time>2018-06-15T09:39:45Z</time>
      </trkpt>
      <trkpt lat="42.407870" lon="-5.190703">
        <ele>889.584</ele>
        <time>2018-06-15T09:39:47Z</time>
      </trkpt>
      <trkpt lat="42.407918" lon="-5.190803">
        <ele>889.648</ele>
        <time>2018-06-15T09:39:49Z</time>
      </trkpt>
      <trkpt lat="42.407966" lon="-5.190902">
        <ele>889.661</ele>
        <time>2018-06-15T09:39:51Z</time>
      </trkpt>
      <trkpt lat="42.408012" lon="-5.191002">
        <ele>889.617</ele>
        <time>2018-06-15T09:39:53Z</time>
      </trkpt>
      <trkpt lat="42.408038" lon="-5.191056">
        <ele>889.608</ele>
        <time>2018-06-15T09:39:54Z</time>
      </trkpt>
      <trkpt lat="42.408063" lon="-5.191110">
        <ele>889.646</ele>
        <time>2018-06-15T09:39:55Z</time>
      </trkpt>
      <trkpt lat="42.408108" lon="-5.191214">
        <ele>889.699</ele>
        <time>2018-06-15T09:39:57Z</time>
      </trkpt>
      <trkpt lat="42.408154" lon="-5.191317">
        <ele>889.622</ele>
        <time>2018-06-15T09:39:59Z</time>
      </trkpt>
      <trkpt lat="42.408200" lon="-5.191415">
        <ele>889.666</ele>
        <time>2018-06-15T09:40:01Z</time>
      </trkpt>
      <trkpt lat="42.408245" lon="-5.191510">
        <ele>889.665</ele>
        <time>2018-06-15T09:40:03Z</time>
      </trkpt>
      <trkpt lat="42.408287" lon="-5.191602">
        <ele>889.615</ele>
        <time>2018-06-15T09:40:05Z</time>
      </trkpt>
      <trkpt lat="42.408330" lon="-5.191696">
        <ele>889.615</ele>
        <time>2018-06-15T09:40:07Z</time>
      </trkpt>
      <trkpt lat="42.408355" lon="-5.191748">
        <ele>889.655</ele>
        <time>2018-06-15T09:40:08Z</time>
      </trkpt>
      <trkpt lat="42.408399" lon="-5.191847">
        <ele>890.049</ele>
        <time>2018-06-15T09:40:10Z</time>
      </trkpt>
      <trkpt lat="42.408444" lon="-5.191944">
        <ele>890.202</ele>
        <time>2018-06-15T09:40:12Z</time>
      </trkpt>
      <trkpt lat="42.408490" lon="-5.192044">
        <ele>890.322</ele>
        <time>2018-06-15T09:40:14Z</time>
      </trkpt>
      <trkpt lat="42.408539" lon="-5.192145">
        <ele>890.408</ele>
        <time>2018-06-15T09:40:16Z</time>
      </trkpt>
      <trkpt lat="42.408563" lon="-5.192197">
        <ele>890.526</ele>
        <time>2018-06-15T09:40:17Z</time>
      </trkpt>
      <trkpt lat="42.408614" lon="-5.192301">
        <ele>890.539</ele>
        <time>2018-06-15T09:40:19Z</time>
      </trkpt>
      <trkpt lat="42.408655" lon="-5.192403">
        <ele>890.592</ele>
        <time>2018-06-15T09:40:21Z</time>
      </trkpt>
      <trkpt lat="42.408681" lon="-5.192459">
        <ele>890.546</ele>
        <time>2018-06-15T09:40:22Z</time>
      </trkpt>
      <trkpt lat="42.408707" lon="-5.192511">
        <ele>890.555</ele>
        <time>2018-06-15T09:40:23Z</time>
      </trkpt>
      <trkpt lat="42.408731" lon="-5.192565">
        <ele>890.575</ele>
        <time>2018-06-15T09:40:24Z</time>
      </trkpt>
      <trkpt lat="42.408756" lon="-5.192618">
        <ele>890.595</ele>
        <time>2018-06-15T09:40:25Z</time>
      </trkpt>
      <trkpt lat="42.408781" lon="-5.192671">
        <ele>890.585</ele>
        <time>2018-06-15T09:40:26Z</time>
      </trkpt>
      <trkpt lat="42.408804" lon="-5.192728">
        <ele>890.597</ele>
        <time>2018-06-15T09:40:27Z</time>
      </trkpt>
      <trkpt lat="42.408830" lon="-5.192785">
        <ele>890.523</ele>
        <time>2018-06-15T09:40:28Z</time>
      </trkpt>
      <trkpt lat="42.408855" lon="-5.192839">
        <ele>890.525</ele>
        <time>2018-06-15T09:40:29Z</time>
      </trkpt>
      <trkpt lat="42.408880" lon="-5.192892">
        <ele>890.508</ele>
        <time>2018-06-15T09:40:30Z</time>
      </trkpt>
      <trkpt lat="42.408927" lon="-5.192992">
        <ele>890.541</ele>
        <time>2018-06-15T09:40:32Z</time>
      </trkpt>
      <trkpt lat="42.408973" lon="-5.193091">
        <ele>890.524</ele>
        <time>2018-06-15T09:40:34Z</time>
      </trkpt>
      <trkpt lat="42.409024" lon="-5.193193">
        <ele>890.517</ele>
        <time>2018-06-15T09:40:36Z</time>
      </trkpt>
      <trkpt lat="42.409048" lon="-5.193246">
        <ele>890.511</ele>
        <time>2018-06-15T09:40:37Z</time>
      </trkpt>
      <trkpt lat="42.409093" lon="-5.193349">
        <ele>890.960</ele>
        <time>2018-06-15T09:40:39Z</time>
      </trkpt>
      <trkpt lat="42.409136" lon="-5.193445">
        <ele>890.750</ele>
        <time>2018-06-15T09:40:41Z</time>
      </trkpt>
      <trkpt lat="42.409163" lon="-5.193498">
        <ele>890.680</ele>
        <time>2018-06-15T09:40:42Z</time>
      </trkpt>
      <trkpt lat="42.409187" lon="-5.193552">
        <ele>890.530</ele>
        <time>2018-06-15T09:40:43Z</time>
      </trkpt>
      <trkpt lat="42.409212" lon="-5.193605">
        <ele>890.534</ele>
        <time>2018-06-15T09:40:44Z</time>
      </trkpt>
      <trkpt lat="42.409261" lon="-5.193706">
        <ele>890.555</ele>
        <time>2018-06-15T09:40:46Z</time>
      </trkpt>
      <trkpt lat="42.409286" lon="-5.193760">
        <ele>890.510</ele>
        <time>2018-06-15T09:40:47Z</time>
      </trkpt>
      <trkpt lat="42.409312" lon="-5.193817">
        <ele>890.508</ele>
        <time>2018-06-15T09:40:48Z</time>
      </trkpt>
      <trkpt lat="42.409338" lon="-5.193876">
        <ele>890.565</ele>
        <time>2018-06-15T09:40:49Z</time>
      </trkpt>
      <trkpt lat="42.409367" lon="-5.193935">
        <ele>890.568</ele>
        <time>2018-06-15T09:40:50Z</time>
      </trkpt>
      <trkpt lat="42.409394" lon="-5.193994">
        <ele>890.591</ele>
        <time>2018-06-15T09:40:51Z</time>
      </trkpt>
      <trkpt lat="42.409421" lon="-5.194053">
        <ele>890.565</ele>
        <time>2018-06-15T09:40:52Z</time>
      </trkpt>
      <trkpt lat="42.409450" lon="-5.194115">
        <ele>890.114</ele>
        <time>2018-06-15T09:40:53Z</time>
      </trkpt>
      <trkpt lat="42.409474" lon="-5.194173">
        <ele>889.994</ele>
        <time>2018-06-15T09:40:54Z</time>
      </trkpt>
      <trkpt lat="42.409499" lon="-5.194230">
        <ele>889.814</ele>
        <time>2018-06-15T09:40:55Z</time>
      </trkpt>
      <trkpt lat="42.409524" lon="-5.194287">
        <ele>890.194</ele>
        <time>2018-06-15T09:40:56Z</time>
      </trkpt>
      <trkpt lat="42.409551" lon="-5.194343">
        <ele>890.377</ele>
        <time>2018-06-15T09:40:57Z</time>
      </trkpt>
      <trkpt lat="42.409576" lon="-5.194400">
        <ele>890.061</ele>
        <time>2018-06-15T09:40:58Z</time>
      </trkpt>
      <trkpt lat="42.409602" lon="-5.194460">
        <ele>889.827</ele>
        <time>2018-06-15T09:40:59Z</time>
      </trkpt>
      <trkpt lat="42.409624" lon="-5.194520">
        <ele>889.708</ele>
        <time>2018-06-15T09:41:00Z</time>
      </trkpt>
      <trkpt lat="42.409655" lon="-5.194582">
        <ele>890.039</ele>
        <time>2018-06-15T09:41:01Z</time>
      </trkpt>
      <trkpt lat="42.409683" lon="-5.194642">
        <ele>889.812</ele>
        <time>2018-06-15T09:41:02Z</time>
      </trkpt>
      <trkpt lat="42.409713" lon="-5.194706">
        <ele>889.795</ele>
        <time>2018-06-15T09:41:03Z</time>
      </trkpt>
      <trkpt lat="42.409743" lon="-5.194771">
        <ele>889.659</ele>
        <time>2018-06-15T09:41:04Z</time>
      </trkpt>
      <trkpt lat="42.409774" lon="-5.194839">
        <ele>889.618</ele>
        <time>2018-06-15T09:41:05Z</time>
      </trkpt>
      <trkpt lat="42.409805" lon="-5.194906">
        <ele>889.618</ele>
        <time>2018-06-15T09:41:06Z</time>
      </trkpt>
      <trkpt lat="42.409837" lon="-5.194974">
        <ele>889.638</ele>
        <time>2018-06-15T09:41:07Z</time>
      </trkpt>
      <trkpt lat="42.409866" lon="-5.195038">
        <ele>889.658</ele>
        <time>2018-06-15T09:41:08Z</time>
      </trkpt>
      <trkpt lat="42.409895" lon="-5.195102">
        <ele>889.273</ele>
        <time>2018-06-15T09:41:09Z</time>
      </trkpt>
      <trkpt lat="42.409926" lon="-5.195167">
        <ele>889.085</ele>
        <time>2018-06-15T09:41:10Z</time>
      </trkpt>
      <trkpt lat="42.409955" lon="-5.195229">
        <ele>888.913</ele>
        <time>2018-06-15T09:41:11Z</time>
      </trkpt>
      <trkpt lat="42.409985" lon="-5.195294">
        <ele>888.808</ele>
        <time>2018-06-15T09:41:12Z</time>
      </trkpt>
      <trkpt lat="42.410016" lon="-5.195360">
        <ele>888.779</ele>
        <time>2018-06-15T09:41:13Z</time>
      </trkpt>
      <trkpt lat="42.410045" lon="-5.195424">
        <ele>888.792</ele>
        <time>2018-06-15T09:41:14Z</time>
      </trkpt>
      <trkpt lat="42.410072" lon="-5.195490">
        <ele>888.785</ele>
        <time>2018-06-15T09:41:15Z</time>
      </trkpt>
      <trkpt lat="42.410104" lon="-5.195549">
        <ele>888.749</ele>
        <time>2018-06-15T09:41:16Z</time>
      </trkpt>
      <trkpt lat="42.410130" lon="-5.195605">
        <ele>888.328</ele>
        <time>2018-06-15T09:41:17Z</time>
      </trkpt>
      <trkpt lat="42.410158" lon="-5.195670">
        <ele>888.128</ele>
        <time>2018-06-15T09:41:18Z</time>
      </trkpt>
      <trkpt lat="42.410188" lon="-5.195731">
        <ele>888.048</ele>
        <time>2018-06-15T09:41:19Z</time>
      </trkpt>
      <trkpt lat="42.410220" lon="-5.195797">
        <ele>887.958</ele>
        <time>2018-06-15T09:41:20Z</time>
      </trkpt>
      <trkpt lat="42.410248" lon="-5.195863">
        <ele>887.895</ele>
        <time>2018-06-15T09:41:21Z</time>
      </trkpt>
      <trkpt lat="42.410278" lon="-5.195929">
        <ele>887.849</ele>
        <time>2018-06-15T09:41:22Z</time>
      </trkpt>
      <trkpt lat="42.410308" lon="-5.195994">
        <ele>887.823</ele>
        <time>2018-06-15T09:41:23Z</time>
      </trkpt>
      <trkpt lat="42.410338" lon="-5.196057">
        <ele>887.808</ele>
        <time>2018-06-15T09:41:24Z</time>
      </trkpt>
      <trkpt lat="42.410365" lon="-5.196121">
        <ele>887.851</ele>
        <time>2018-06-15T09:41:25Z</time>
      </trkpt>
      <trkpt lat="42.410396" lon="-5.196185">
        <ele>887.824</ele>
        <time>2018-06-15T09:41:26Z</time>
      </trkpt>
      <trkpt lat="42.410422" lon="-5.196249">
        <ele>887.857</ele>
        <time>2018-06-15T09:41:27Z</time>
      </trkpt>
      <trkpt lat="42.410449" lon="-5.196312">
        <ele>887.891</ele>
        <time>2018-06-15T09:41:28Z</time>
      </trkpt>
      <trkpt lat="42.410476" lon="-5.196369">
        <ele>887.470</ele>
        <time>2018-06-15T09:41:29Z</time>
      </trkpt>
      <trkpt lat="42.410505" lon="-5.196429">
        <ele>887.270</ele>
        <time>2018-06-15T09:41:30Z</time>
      </trkpt>
      <trkpt lat="42.410531" lon="-5.196489">
        <ele>887.130</ele>
        <time>2018-06-15T09:41:31Z</time>
      </trkpt>
      <trkpt lat="42.410559" lon="-5.196550">
        <ele>887.010</ele>
        <time>2018-06-15T09:41:32Z</time>
      </trkpt>
      <trkpt lat="42.410585" lon="-5.196608">
        <ele>886.979</ele>
        <time>2018-06-15T09:41:33Z</time>
      </trkpt>
      <trkpt lat="42.410611" lon="-5.196664">
        <ele>886.905</ele>
        <time>2018-06-15T09:41:34Z</time>
      </trkpt>
      <trkpt lat="42.410640" lon="-5.196725">
        <ele>886.925</ele>
        <time>2018-06-15T09:41:35Z</time>
      </trkpt>
      <trkpt lat="42.410668" lon="-5.196787">
        <ele>886.908</ele>
        <time>2018-06-15T09:41:36Z</time>
      </trkpt>
      <trkpt lat="42.410695" lon="-5.196852">
        <ele>886.989</ele>
        <time>2018-06-15T09:41:37Z</time>
      </trkpt>
      <trkpt lat="42.410726" lon="-5.196918">
        <ele>886.932</ele>
        <time>2018-06-15T09:41:38Z</time>
      </trkpt>
      <trkpt lat="42.410756" lon="-5.196981">
        <ele>886.925</ele>
        <time>2018-06-15T09:41:39Z</time>
      </trkpt>
      <trkpt lat="42.410784" lon="-5.197045">
        <ele>886.999</ele>
        <time>2018-06-15T09:41:40Z</time>
      </trkpt>
      <trkpt lat="42.410814" lon="-5.197106">
        <ele>886.988</ele>
        <time>2018-06-15T09:41:41Z</time>
      </trkpt>
      <trkpt lat="42.410841" lon="-5.197168">
        <ele>886.968</ele>
        <time>2018-06-15T09:41:42Z</time>
      </trkpt>
      <trkpt lat="42.410869" lon="-5.197231">
        <ele>886.928</ele>
        <time>2018-06-15T09:41:43Z</time>
      </trkpt>
      <trkpt lat="42.410897" lon="-5.197291">
        <ele>886.998</ele>
        <time>2018-06-15T09:41:44Z</time>
      </trkpt>
      <trkpt lat="42.410924" lon="-5.197350">
        <ele>886.917</ele>
        <time>2018-06-15T09:41:45Z</time>
      </trkpt>
      <trkpt lat="42.410950" lon="-5.197412">
        <ele>886.987</ele>
        <time>2018-06-15T09:41:46Z</time>
      </trkpt>
      <trkpt lat="42.410978" lon="-5.197472">
        <ele>886.915</ele>
        <time>2018-06-15T09:41:47Z</time>
      </trkpt>
      <trkpt lat="42.411006" lon="-5.197528">
        <ele>886.908</ele>
        <time>2018-06-15T09:41:48Z</time>
      </trkpt>
      <trkpt lat="42.411036" lon="-5.197590">
        <ele>886.963</ele>
        <time>2018-06-15T09:41:49Z</time>
      </trkpt>
      <trkpt lat="42.411063" lon="-5.197647">
        <ele>886.996</ele>
        <time>2018-06-15T09:41:50Z</time>
      </trkpt>
      <trkpt lat="42.411089" lon="-5.197706">
        <ele>886.979</ele>
        <time>2018-06-15T09:41:51Z</time>
      </trkpt>
      <trkpt lat="42.411117" lon="-5.197764">
        <ele>886.933</ele>
        <time>2018-06-15T09:41:52Z</time>
      </trkpt>
      <trkpt lat="42.411145" lon="-5.197824">
        <ele>886.992</ele>
        <time>2018-06-15T09:41:53Z</time>
      </trkpt>
      <trkpt lat="42.411170" lon="-5.197880">
        <ele>886.942</ele>
        <time>2018-06-15T09:41:54Z</time>
      </trkpt>
      <trkpt lat="42.411197" lon="-5.197943">
        <ele>886.972</ele>
        <time>2018-06-15T09:41:55Z</time>
      </trkpt>
      <trkpt lat="42.411225" lon="-5.198001">
        <ele>886.912</ele>
        <time>2018-06-15T09:41:56Z</time>
      </trkpt>
      <trkpt lat="42.411252" lon="-5.198063">
        <ele>886.944</ele>
        <time>2018-06-15T09:41:57Z</time>
      </trkpt>
      <trkpt lat="42.411283" lon="-5.198124">
        <ele>886.905</ele>
        <time>2018-06-15T09:41:58Z</time>
      </trkpt>
      <trkpt lat="42.411311" lon="-5.198183">
        <ele>886.915</ele>
        <time>2018-06-15T09:41:59Z</time>
      </trkpt>
      <trkpt lat="42.411338" lon="-5.198243">
        <ele>886.908</ele>
        <time>2018-06-15T09:42:00Z</time>
      </trkpt>
      <trkpt lat="42.411363" lon="-5.198300">
        <ele>886.946</ele>
        <time>2018-06-15T09:42:01Z</time>
      </trkpt>
      <trkpt lat="42.411388" lon="-5.198354">
        <ele>886.919</ele>
        <time>2018-06-15T09:42:02Z</time>
      </trkpt>
      <trkpt lat="42.411414" lon="-5.198409">
        <ele>886.972</ele>
        <time>2018-06-15T09:42:03Z</time>
      </trkpt>
      <trkpt lat="42.411438" lon="-5.198468">
        <ele>886.916</ele>
        <time>2018-06-15T09:42:04Z</time>
      </trkpt>
      <trkpt lat="42.411463" lon="-5.198526">
        <ele>886.985</ele>
        <time>2018-06-15T09:42:05Z</time>
      </trkpt>
      <trkpt lat="42.411491" lon="-5.198589">
        <ele>886.975</ele>
        <time>2018-06-15T09:42:06Z</time>
      </trkpt>
      <trkpt lat="42.411518" lon="-5.198651">
        <ele>886.935</ele>
        <time>2018-06-15T09:42:07Z</time>
      </trkpt>
      <trkpt lat="42.411541" lon="-5.198711">
        <ele>886.985</ele>
        <time>2018-06-15T09:42:08Z</time>
      </trkpt>
      <trkpt lat="42.411566" lon="-5.198777">
        <ele>886.972</ele>
        <time>2018-06-15T09:42:09Z</time>
      </trkpt>
      <trkpt lat="42.411594" lon="-5.198840">
        <ele>886.913</ele>
        <time>2018-06-15T09:42:10Z</time>
      </trkpt>
      <trkpt lat="42.411620" lon="-5.198900">
        <ele>886.914</ele>
        <time>2018-06-15T09:42:11Z</time>
      </trkpt>
      <trkpt lat="42.411647" lon="-5.198961">
        <ele>886.908</ele>
        <time>2018-06-15T09:42:12Z</time>
      </trkpt>
      <trkpt lat="42.411672" lon="-5.199020">
        <ele>886.979</ele>
        <time>2018-06-15T09:42:13Z</time>
      </trkpt>
      <trkpt lat="42.411697" lon="-5.199078">
        <ele>886.952</ele>
        <time>2018-06-15T09:42:14Z</time>
      </trkpt>
      <trkpt lat="42.411721" lon="-5.199136">
        <ele>886.965</ele>
        <time>2018-06-15T09:42:15Z</time>
      </trkpt>
      <trkpt lat="42.411741" lon="-5.199194">
        <ele>886.939</ele>
        <time>2018-06-15T09:42:16Z</time>
      </trkpt>
      <trkpt lat="42.411766" lon="-5.199252">
        <ele>886.948</ele>
        <time>2018-06-15T09:42:17Z</time>
      </trkpt>
      <trkpt lat="42.411792" lon="-5.199312">
        <ele>886.968</ele>
        <time>2018-06-15T09:42:18Z</time>
      </trkpt>
      <trkpt lat="42.411816" lon="-5.199370">
        <ele>886.998</ele>
        <time>2018-06-15T09:42:19Z</time>
      </trkpt>
      <trkpt lat="42.411842" lon="-5.199428">
        <ele>886.978</ele>
        <time>2018-06-15T09:42:20Z</time>
      </trkpt>
      <trkpt lat="42.411865" lon="-5.199484">
        <ele>886.963</ele>
        <time>2018-06-15T09:42:21Z</time>
      </trkpt>
      <trkpt lat="42.411888" lon="-5.199544">
        <ele>886.944</ele>
        <time>2018-06-15T09:42:22Z</time>
      </trkpt>
      <trkpt lat="42.411913" lon="-5.199604">
        <ele>886.918</ele>
        <time>2018-06-15T09:42:23Z</time>
      </trkpt>
      <trkpt lat="42.411934" lon="-5.199664">
        <ele>886.908</ele>
        <time>2018-06-15T09:42:24Z</time>
      </trkpt>
      <trkpt lat="42.411957" lon="-5.199722">
        <ele>886.928</ele>
        <time>2018-06-15T09:42:25Z</time>
      </trkpt>
      <trkpt lat="42.411982" lon="-5.199782">
        <ele>886.571</ele>
        <time>2018-06-15T09:42:26Z</time>
      </trkpt>
      <trkpt lat="42.412008" lon="-5.199837">
        <ele>886.324</ele>
        <time>2018-06-15T09:42:27Z</time>
      </trkpt>
      <trkpt lat="42.412029" lon="-5.199894">
        <ele>886.298</ele>
        <time>2018-06-15T09:42:28Z</time>
      </trkpt>
      <trkpt lat="42.412051" lon="-5.199950">
        <ele>886.157</ele>
        <time>2018-06-15T09:42:29Z</time>
      </trkpt>
      <trkpt lat="42.412076" lon="-5.200009">
        <ele>886.087</ele>
        <time>2018-06-15T09:42:30Z</time>
      </trkpt>
      <trkpt lat="42.412099" lon="-5.200067">
        <ele>886.077</ele>
        <time>2018-06-15T09:42:31Z</time>
      </trkpt>
      <trkpt lat="42.412120" lon="-5.200122">
        <ele>886.477</ele>
        <time>2018-06-15T09:42:32Z</time>
      </trkpt>
      <trkpt lat="42.412140" lon="-5.200179">
        <ele>886.633</ele>
        <time>2018-06-15T09:42:33Z</time>
      </trkpt>
      <trkpt lat="42.412162" lon="-5.200235">
        <ele>886.723</ele>
        <time>2018-06-15T09:42:34Z</time>
      </trkpt>
      <trkpt lat="42.412184" lon="-5.200289">
        <ele>886.815</ele>
        <time>2018-06-15T09:42:35Z</time>
      </trkpt>
      <trkpt lat="42.412210" lon="-5.200342">
        <ele>886.808</ele>
        <time>2018-06-15T09:42:36Z</time>
      </trkpt>
      <trkpt lat="42.412234" lon="-5.200399">
        <ele>886.855</ele>
        <time>2018-06-15T09:42:37Z</time>
      </trkpt>
      <trkpt lat="42.412257" lon="-5.200455">
        <ele>886.888</ele>
        <time>2018-06-15T09:42:38Z</time>
      </trkpt>
      <trkpt lat="42.412282" lon="-5.200514">
        <ele>887.261</ele>
        <time>2018-06-15T09:42:39Z</time>
      </trkpt>
      <trkpt lat="42.412307" lon="-5.200570">
        <ele>887.875</ele>
        <time>2018-06-15T09:42:40Z</time>
      </trkpt>
      <trkpt lat="42.412333" lon="-5.200624">
        <ele>888.284</ele>
        <time>2018-06-15T09:42:41Z</time>
      </trkpt>
      <trkpt lat="42.412359" lon="-5.200686">
        <ele>888.454</ele>
        <time>2018-06-15T09:42:42Z</time>
      </trkpt>
      <trkpt lat="42.412384" lon="-5.200747">
        <ele>888.564</ele>
        <time>2018-06-15T09:42:43Z</time>
      </trkpt>
      <trkpt lat="42.412408" lon="-5.200804">
        <ele>888.694</ele>
        <time>2018-06-15T09:42:44Z</time>
      </trkpt>
      <trkpt lat="42.412434" lon="-5.200863">
        <ele>888.792</ele>
        <time>2018-06-15T09:42:45Z</time>
      </trkpt>
      <trkpt lat="42.412461" lon="-5.200922">
        <ele>888.773</ele>
        <time>2018-06-15T09:42:46Z</time>
      </trkpt>
      <trkpt lat="42.412485" lon="-5.200982">
        <ele>888.720</ele>
        <time>2018-06-15T09:42:47Z</time>
      </trkpt>
      <trkpt lat="42.412511" lon="-5.201043">
        <ele>888.708</ele>
        <time>2018-06-15T09:42:48Z</time>
      </trkpt>
      <trkpt lat="42.412536" lon="-5.201101">
        <ele>888.711</ele>
        <time>2018-06-15T09:42:49Z</time>
      </trkpt>
      <trkpt lat="42.412556" lon="-5.201161">
        <ele>888.774</ele>
        <time>2018-06-15T09:42:50Z</time>
      </trkpt>
      <trkpt lat="42.412607" lon="-5.201274">
        <ele>888.747</ele>
        <time>2018-06-15T09:42:52Z</time>
      </trkpt>
      <trkpt lat="42.412630" lon="-5.201330">
        <ele>888.381</ele>
        <time>2018-06-15T09:42:53Z</time>
      </trkpt>
      <trkpt lat="42.412658" lon="-5.201390">
        <ele>888.110</ele>
        <time>2018-06-15T09:42:54Z</time>
      </trkpt>
      <trkpt lat="42.412686" lon="-5.201450">
        <ele>888.050</ele>
        <time>2018-06-15T09:42:55Z</time>
      </trkpt>
      <trkpt lat="42.412712" lon="-5.201507">
        <ele>887.980</ele>
        <time>2018-06-15T09:42:56Z</time>
      </trkpt>
      <trkpt lat="42.412743" lon="-5.201567">
        <ele>887.850</ele>
        <time>2018-06-15T09:42:57Z</time>
      </trkpt>
      <trkpt lat="42.412773" lon="-5.201628">
        <ele>887.813</ele>
        <time>2018-06-15T09:42:58Z</time>
      </trkpt>
      <trkpt lat="42.412802" lon="-5.201686">
        <ele>887.843</ele>
        <time>2018-06-15T09:42:59Z</time>
      </trkpt>
      <trkpt lat="42.412832" lon="-5.201743">
        <ele>887.807</ele>
        <time>2018-06-15T09:43:00Z</time>
      </trkpt>
      <trkpt lat="42.412863" lon="-5.201797">
        <ele>887.808</ele>
        <time>2018-06-15T09:43:01Z</time>
      </trkpt>
      <trkpt lat="42.412890" lon="-5.201851">
        <ele>887.843</ele>
        <time>2018-06-15T09:43:02Z</time>
      </trkpt>
      <trkpt lat="42.412920" lon="-5.201907">
        <ele>887.856</ele>
        <time>2018-06-15T09:43:03Z</time>
      </trkpt>
      <trkpt lat="42.412949" lon="-5.201970">
        <ele>887.879</ele>
        <time>2018-06-15T09:43:04Z</time>
      </trkpt>
      <trkpt lat="42.412979" lon="-5.202028">
        <ele>887.813</ele>
        <time>2018-06-15T09:43:05Z</time>
      </trkpt>
      <trkpt lat="42.413006" lon="-5.202083">
        <ele>887.862</ele>
        <time>2018-06-15T09:43:06Z</time>
      </trkpt>
      <trkpt lat="42.413035" lon="-5.202136">
        <ele>887.882</ele>
        <time>2018-06-15T09:43:07Z</time>
      </trkpt>
      <trkpt lat="42.413063" lon="-5.202190">
        <ele>887.882</ele>
        <time>2018-06-15T09:43:08Z</time>
      </trkpt>
      <trkpt lat="42.413089" lon="-5.202241">
        <ele>887.852</ele>
        <time>2018-06-15T09:43:09Z</time>
      </trkpt>
      <trkpt lat="42.413116" lon="-5.202291">
        <ele>887.891</ele>
        <time>2018-06-15T09:43:10Z</time>
      </trkpt>
      <trkpt lat="42.413142" lon="-5.202343">
        <ele>887.881</ele>
        <time>2018-06-15T09:43:11Z</time>
      </trkpt>
      <trkpt lat="42.413170" lon="-5.202396">
        <ele>887.819</ele>
        <time>2018-06-15T09:43:12Z</time>
      </trkpt>
      <trkpt lat="42.413226" lon="-5.202502">
        <ele>887.408</ele>
        <time>2018-06-15T09:43:14Z</time>
      </trkpt>
      <trkpt lat="42.413256" lon="-5.202554">
        <ele>887.261</ele>
        <time>2018-06-15T09:43:15Z</time>
      </trkpt>
      <trkpt lat="42.413283" lon="-5.202610">
        <ele>887.184</ele>
        <time>2018-06-15T09:43:16Z</time>
      </trkpt>
      <trkpt lat="42.413311" lon="-5.202666">
        <ele>887.087</ele>
        <time>2018-06-15T09:43:17Z</time>
      </trkpt>
      <trkpt lat="42.413338" lon="-5.202716">
        <ele>886.961</ele>
        <time>2018-06-15T09:43:18Z</time>
      </trkpt>
      <trkpt lat="42.413364" lon="-5.202772">
        <ele>886.910</ele>
        <time>2018-06-15T09:43:19Z</time>
      </trkpt>
      <trkpt lat="42.413392" lon="-5.202831">
        <ele>886.950</ele>
        <time>2018-06-15T09:43:20Z</time>
      </trkpt>
      <trkpt lat="42.413419" lon="-5.202886">
        <ele>886.950</ele>
        <time>2018-06-15T09:43:21Z</time>
      </trkpt>
      <trkpt lat="42.413448" lon="-5.202937">
        <ele>886.920</ele>
        <time>2018-06-15T09:43:22Z</time>
      </trkpt>
      <trkpt lat="42.413477" lon="-5.202986">
        <ele>886.917</ele>
        <time>2018-06-15T09:43:23Z</time>
      </trkpt>
      <trkpt lat="42.413523" lon="-5.203076">
        <ele>886.987</ele>
        <time>2018-06-15T09:43:25Z</time>
      </trkpt>
      <trkpt lat="42.413561" lon="-5.203131">
        <ele>886.915</ele>
        <time>2018-06-15T09:43:27Z</time>
      </trkpt>
      <trkpt lat="42.413591" lon="-5.203177">
        <ele>886.908</ele>
        <time>2018-06-15T09:43:29Z</time>
      </trkpt>
      <trkpt lat="42.413638" lon="-5.203259">
        <ele>886.993</ele>
        <time>2018-06-15T09:43:30Z</time>
      </trkpt>
      <trkpt lat="42.413687" lon="-5.203346">
        <ele>886.976</ele>
        <time>2018-06-15T09:43:32Z</time>
      </trkpt>
      <trkpt lat="42.413714" lon="-5.203396">
        <ele>886.989</ele>
        <time>2018-06-15T09:43:33Z</time>
      </trkpt>
      <trkpt lat="42.413745" lon="-5.203500">
        <ele>887.323</ele>
        <time>2018-06-15T09:43:35Z</time>
      </trkpt>
      <trkpt lat="42.413757" lon="-5.203568">
        <ele>887.112</ele>
        <time>2018-06-15T09:43:36Z</time>
      </trkpt>
      <trkpt lat="42.413784" lon="-5.203637">
        <ele>887.482</ele>
        <time>2018-06-15T09:43:37Z</time>
      </trkpt>
      <trkpt lat="42.413794" lon="-5.203711">
        <ele>888.042</ele>
        <time>2018-06-15T09:43:38Z</time>
      </trkpt>
      <trkpt lat="42.413833" lon="-5.203825">
        <ele>888.782</ele>
        <time>2018-06-15T09:43:40Z</time>
      </trkpt>
      <trkpt lat="42.413854" lon="-5.203894">
        <ele>889.557</ele>
        <time>2018-06-15T09:43:41Z</time>
      </trkpt>
      <trkpt lat="42.413902" lon="-5.203917">
        <ele>889.200</ele>
        <time>2018-06-15T09:43:42Z</time>
      </trkpt>
      <trkpt lat="42.413952" lon="-5.204012">
        <ele>888.620</ele>
        <time>2018-06-15T09:43:44Z</time>
      </trkpt>
      <trkpt lat="42.413981" lon="-5.204062">
        <ele>887.908</ele>
        <time>2018-06-15T09:43:45Z</time>
      </trkpt>
      <trkpt lat="42.414014" lon="-5.204113">
        <ele>887.557</ele>
        <time>2018-06-15T09:43:46Z</time>
      </trkpt>
      <trkpt lat="42.414043" lon="-5.204164">
        <ele>886.810</ele>
        <time>2018-06-15T09:43:47Z</time>
      </trkpt>
      <trkpt lat="42.414071" lon="-5.204215">
        <ele>886.823</ele>
        <time>2018-06-15T09:43:48Z</time>
      </trkpt>
      <trkpt lat="42.414096" lon="-5.204268">
        <ele>887.217</ele>
        <time>2018-06-15T09:43:49Z</time>
      </trkpt>
      <trkpt lat="42.414130" lon="-5.204319">
        <ele>887.456</ele>
        <time>2018-06-15T09:43:50Z</time>
      </trkpt>
      <trkpt lat="42.414140" lon="-5.204381">
        <ele>887.136</ele>
        <time>2018-06-15T09:43:51Z</time>
      </trkpt>
      <trkpt lat="42.414158" lon="-5.204445">
        <ele>886.996</ele>
        <time>2018-06-15T09:43:52Z</time>
      </trkpt>
      <trkpt lat="42.414180" lon="-5.204502">
        <ele>886.486</ele>
        <time>2018-06-15T09:43:53Z</time>
      </trkpt>
      <trkpt lat="42.414211" lon="-5.204558">
        <ele>886.113</ele>
        <time>2018-06-15T09:43:54Z</time>
      </trkpt>
      <trkpt lat="42.414237" lon="-5.204621">
        <ele>885.943</ele>
        <time>2018-06-15T09:43:55Z</time>
      </trkpt>
      <trkpt lat="42.414262" lon="-5.204680">
        <ele>885.807</ele>
        <time>2018-06-15T09:43:56Z</time>
      </trkpt>
      <trkpt lat="42.414288" lon="-5.204735">
        <ele>885.708</ele>
        <time>2018-06-15T09:43:57Z</time>
      </trkpt>
      <trkpt lat="42.414312" lon="-5.204790">
        <ele>885.743</ele>
        <time>2018-06-15T09:43:58Z</time>
      </trkpt>
      <trkpt lat="42.414337" lon="-5.204843">
        <ele>885.786</ele>
        <time>2018-06-15T09:43:59Z</time>
      </trkpt>
      <trkpt lat="42.414364" lon="-5.204894">
        <ele>885.799</ele>
        <time>2018-06-15T09:44:00Z</time>
      </trkpt>
      <trkpt lat="42.414409" lon="-5.204993">
        <ele>885.793</ele>
        <time>2018-06-15T09:44:02Z</time>
      </trkpt>
      <trkpt lat="42.414438" lon="-5.205041">
        <ele>885.732</ele>
        <time>2018-06-15T09:44:03Z</time>
      </trkpt>
      <trkpt lat="42.414483" lon="-5.205146">
        <ele>886.142</ele>
        <time>2018-06-15T09:44:05Z</time>
      </trkpt>
      <trkpt lat="42.414507" lon="-5.205199">
        <ele>886.392</ele>
        <time>2018-06-15T09:44:06Z</time>
      </trkpt>
      <trkpt lat="42.414551" lon="-5.205307">
        <ele>886.812</ele>
        <time>2018-06-15T09:44:08Z</time>
      </trkpt>
      <trkpt lat="42.414580" lon="-5.205360">
        <ele>887.187</ele>
        <time>2018-06-15T09:44:09Z</time>
      </trkpt>
      <trkpt lat="42.414608" lon="-5.205408">
        <ele>887.342</ele>
        <time>2018-06-15T09:44:10Z</time>
      </trkpt>
      <trkpt lat="42.414637" lon="-5.205458">
        <ele>887.426</ele>
        <time>2018-06-15T09:44:11Z</time>
      </trkpt>
      <trkpt lat="42.414667" lon="-5.205504">
        <ele>887.508</ele>
        <time>2018-06-15T09:44:12Z</time>
      </trkpt>
      <trkpt lat="42.414689" lon="-5.205566">
        <ele>887.180</ele>
        <time>2018-06-15T09:44:13Z</time>
      </trkpt>
      <trkpt lat="42.414713" lon="-5.205627">
        <ele>886.923</ele>
        <time>2018-06-15T09:44:14Z</time>
      </trkpt>
      <trkpt lat="42.414736" lon="-5.205680">
        <ele>886.466</ele>
        <time>2018-06-15T09:44:15Z</time>
      </trkpt>
      <trkpt lat="42.414764" lon="-5.205737">
        <ele>886.120</ele>
        <time>2018-06-15T09:44:16Z</time>
      </trkpt>
      <trkpt lat="42.414834" lon="-5.205845">
        <ele>885.999</ele>
        <time>2018-06-15T09:44:18Z</time>
      </trkpt>
      <trkpt lat="42.414859" lon="-5.205901">
        <ele>885.819</ele>
        <time>2018-06-15T09:44:19Z</time>
      </trkpt>
      <trkpt lat="42.414963" lon="-5.205941">
        <ele>885.749</ele>
        <time>2018-06-15T09:44:22Z</time>
      </trkpt>
      <trkpt lat="42.414986" lon="-5.206006">
        <ele>885.339</ele>
        <time>2018-06-15T09:44:23Z</time>
      </trkpt>
      <trkpt lat="42.415014" lon="-5.206088">
        <ele>885.888</ele>
        <time>2018-06-15T09:44:25Z</time>
      </trkpt>
      <trkpt lat="42.415051" lon="-5.206135">
        <ele>886.524</ele>
        <time>2018-06-15T09:44:26Z</time>
      </trkpt>
      <trkpt lat="42.415082" lon="-5.206181">
        <ele>887.326</ele>
        <time>2018-06-15T09:44:27Z</time>
      </trkpt>
      <trkpt lat="42.415131" lon="-5.206285">
        <ele>887.808</ele>
        <time>2018-06-15T09:44:29Z</time>
      </trkpt>
      <trkpt lat="42.415129" lon="-5.206366">
        <ele>886.580</ele>
        <time>2018-06-15T09:44:31Z</time>
      </trkpt>
      <trkpt lat="42.415181" lon="-5.206456">
        <ele>885.793</ele>
        <time>2018-06-15T09:44:33Z</time>
      </trkpt>
      <trkpt lat="42.415226" lon="-5.206549">
        <ele>885.656</ele>
        <time>2018-06-15T09:44:35Z</time>
      </trkpt>
      <trkpt lat="42.415269" lon="-5.206639">
        <ele>885.620</ele>
        <time>2018-06-15T09:44:37Z</time>
      </trkpt>
      <trkpt lat="42.415317" lon="-5.206729">
        <ele>885.639</ele>
        <time>2018-06-15T09:44:39Z</time>
      </trkpt>
      <trkpt lat="42.415345" lon="-5.206777">
        <ele>885.649</ele>
        <time>2018-06-15T09:44:40Z</time>
      </trkpt>
      <trkpt lat="42.415392" lon="-5.206880">
        <ele>885.689</ele>
        <time>2018-06-15T09:44:42Z</time>
      </trkpt>
      <trkpt lat="42.415418" lon="-5.206930">
        <ele>885.649</ele>
        <time>2018-06-15T09:44:43Z</time>
      </trkpt>
      <trkpt lat="42.415469" lon="-5.207026">
        <ele>885.668</ele>
        <time>2018-06-15T09:44:45Z</time>
      </trkpt>
      <trkpt lat="42.415516" lon="-5.207125">
        <ele>885.642</ele>
        <time>2018-06-15T09:44:47Z</time>
      </trkpt>
      <trkpt lat="42.415539" lon="-5.207178">
        <ele>885.626</ele>
        <time>2018-06-15T09:44:48Z</time>
      </trkpt>
      <trkpt lat="42.415592" lon="-5.207273">
        <ele>885.608</ele>
        <time>2018-06-15T09:44:50Z</time>
      </trkpt>
      <trkpt lat="42.415645" lon="-5.207362">
        <ele>886.058</ele>
        <time>2018-06-15T09:44:52Z</time>
      </trkpt>
      <trkpt lat="42.415671" lon="-5.207412">
        <ele>886.291</ele>
        <time>2018-06-15T09:44:53Z</time>
      </trkpt>
      <trkpt lat="42.415722" lon="-5.207511">
        <ele>886.374</ele>
        <time>2018-06-15T09:44:55Z</time>
      </trkpt>
      <trkpt lat="42.415749" lon="-5.207563">
        <ele>886.458</ele>
        <time>2018-06-15T09:44:56Z</time>
      </trkpt>
      <trkpt lat="42.415776" lon="-5.207614">
        <ele>886.567</ele>
        <time>2018-06-15T09:44:57Z</time>
      </trkpt>
      <trkpt lat="42.415800" lon="-5.207669">
        <ele>886.147</ele>
        <time>2018-06-15T09:44:58Z</time>
      </trkpt>
      <trkpt lat="42.415825" lon="-5.207721">
        <ele>885.937</ele>
        <time>2018-06-15T09:44:59Z</time>
      </trkpt>
      <trkpt lat="42.415850" lon="-5.207776">
        <ele>885.847</ele>
        <time>2018-06-15T09:45:00Z</time>
      </trkpt>
      <trkpt lat="42.415877" lon="-5.207825">
        <ele>886.179</ele>
        <time>2018-06-15T09:45:01Z</time>
      </trkpt>
      <trkpt lat="42.415908" lon="-5.207870">
        <ele>885.905</ele>
        <time>2018-06-15T09:45:02Z</time>
      </trkpt>
      <trkpt lat="42.415960" lon="-5.207968">
        <ele>885.825</ele>
        <time>2018-06-15T09:45:04Z</time>
      </trkpt>
      <trkpt lat="42.416018" lon="-5.208065">
        <ele>885.708</ele>
        <time>2018-06-15T09:45:06Z</time>
      </trkpt>
      <trkpt lat="42.416047" lon="-5.208117">
        <ele>885.769</ele>
        <time>2018-06-15T09:45:07Z</time>
      </trkpt>
      <trkpt lat="42.416076" lon="-5.208170">
        <ele>885.722</ele>
        <time>2018-06-15T09:45:08Z</time>
      </trkpt>
      <trkpt lat="42.416104" lon="-5.208225">
        <ele>885.725</ele>
        <time>2018-06-15T09:45:09Z</time>
      </trkpt>
      <trkpt lat="42.416135" lon="-5.208274">
        <ele>886.129</ele>
        <time>2018-06-15T09:45:10Z</time>
      </trkpt>
      <trkpt lat="42.416167" lon="-5.208323">
        <ele>886.398</ele>
        <time>2018-06-15T09:45:11Z</time>
      </trkpt>
      <trkpt lat="42.416197" lon="-5.208374">
        <ele>886.088</ele>
        <time>2018-06-15T09:45:12Z</time>
      </trkpt>
      <trkpt lat="42.416231" lon="-5.208428">
        <ele>885.848</ele>
        <time>2018-06-15T09:45:13Z</time>
      </trkpt>
      <trkpt lat="42.416263" lon="-5.208483">
        <ele>885.788</ele>
        <time>2018-06-15T09:45:14Z</time>
      </trkpt>
      <trkpt lat="42.416295" lon="-5.208534">
        <ele>885.656</ele>
        <time>2018-06-15T09:45:15Z</time>
      </trkpt>
      <trkpt lat="42.416325" lon="-5.208588">
        <ele>885.659</ele>
        <time>2018-06-15T09:45:16Z</time>
      </trkpt>
      <trkpt lat="42.416356" lon="-5.208640">
        <ele>885.614</ele>
        <time>2018-06-15T09:45:17Z</time>
      </trkpt>
      <trkpt lat="42.416387" lon="-5.208694">
        <ele>885.608</ele>
        <time>2018-06-15T09:45:18Z</time>
      </trkpt>
      <trkpt lat="42.416419" lon="-5.208744">
        <ele>885.667</ele>
        <time>2018-06-15T09:45:19Z</time>
      </trkpt>
      <trkpt lat="42.416451" lon="-5.208795">
        <ele>885.690</ele>
        <time>2018-06-15T09:45:20Z</time>
      </trkpt>
      <trkpt lat="42.416483" lon="-5.208848">
        <ele>886.073</ele>
        <time>2018-06-15T09:45:21Z</time>
      </trkpt>
      <trkpt lat="42.416513" lon="-5.208899">
        <ele>885.867</ele>
        <time>2018-06-15T09:45:22Z</time>
      </trkpt>
      <trkpt lat="42.416542" lon="-5.208950">
        <ele>885.766</ele>
        <time>2018-06-15T09:45:23Z</time>
      </trkpt>
      <trkpt lat="42.416573" lon="-5.209003">
        <ele>885.656</ele>
        <time>2018-06-15T09:45:24Z</time>
      </trkpt>
      <trkpt lat="42.416604" lon="-5.209056">
        <ele>885.686</ele>
        <time>2018-06-15T09:45:25Z</time>
      </trkpt>
      <trkpt lat="42.416634" lon="-5.209106">
        <ele>885.626</ele>
        <time>2018-06-15T09:45:26Z</time>
      </trkpt>
      <trkpt lat="42.416662" lon="-5.209157">
        <ele>885.691</ele>
        <time>2018-06-15T09:45:27Z</time>
      </trkpt>
      <trkpt lat="42.416693" lon="-5.209204">
        <ele>885.681</ele>
        <time>2018-06-15T09:45:28Z</time>
      </trkpt>
      <trkpt lat="42.416724" lon="-5.209259">
        <ele>886.019</ele>
        <time>2018-06-15T09:45:29Z</time>
      </trkpt>
      <trkpt lat="42.416780" lon="-5.209353">
        <ele>886.208</ele>
        <time>2018-06-15T09:45:31Z</time>
      </trkpt>
      <trkpt lat="42.416810" lon="-5.209402">
        <ele>886.311</ele>
        <time>2018-06-15T09:45:32Z</time>
      </trkpt>
      <trkpt lat="42.416844" lon="-5.209451">
        <ele>886.484</ele>
        <time>2018-06-15T09:45:33Z</time>
      </trkpt>
      <trkpt lat="42.416875" lon="-5.209499">
        <ele>886.527</ele>
        <time>2018-06-15T09:45:34Z</time>
      </trkpt>
      <trkpt lat="42.416932" lon="-5.209591">
        <ele>886.151</ele>
        <time>2018-06-15T09:45:36Z</time>
      </trkpt>
      <trkpt lat="42.416963" lon="-5.209645">
        <ele>885.940</ele>
        <time>2018-06-15T09:45:37Z</time>
      </trkpt>
      <trkpt lat="42.416993" lon="-5.209698">
        <ele>885.870</ele>
        <time>2018-06-15T09:45:38Z</time>
      </trkpt>
      <trkpt lat="42.417023" lon="-5.209749">
        <ele>885.720</ele>
        <time>2018-06-15T09:45:39Z</time>
      </trkpt>
      <trkpt lat="42.417051" lon="-5.209805">
        <ele>885.720</ele>
        <time>2018-06-15T09:45:40Z</time>
      </trkpt>
      <trkpt lat="42.417082" lon="-5.209860">
        <ele>885.386</ele>
        <time>2018-06-15T09:45:41Z</time>
      </trkpt>
      <trkpt lat="42.417115" lon="-5.209911">
        <ele>885.060</ele>
        <time>2018-06-15T09:45:42Z</time>
      </trkpt>
      <trkpt lat="42.417146" lon="-5.209965">
        <ele>884.826</ele>
        <time>2018-06-15T09:45:43Z</time>
      </trkpt>
      <trkpt lat="42.417174" lon="-5.210014">
        <ele>884.708</ele>
        <time>2018-06-15T09:45:44Z</time>
      </trkpt>
      <trkpt lat="42.417205" lon="-5.210064">
        <ele>885.060</ele>
        <time>2018-06-15T09:45:45Z</time>
      </trkpt>
      <trkpt lat="42.417238" lon="-5.210114">
        <ele>885.213</ele>
        <time>2018-06-15T09:45:46Z</time>
      </trkpt>
      <trkpt lat="42.417293" lon="-5.210202">
        <ele>885.776</ele>
        <time>2018-06-15T09:45:48Z</time>
      </trkpt>
      <trkpt lat="42.417347" lon="-5.210285">
        <ele>886.070</ele>
        <time>2018-06-15T09:45:50Z</time>
      </trkpt>
      <trkpt lat="42.417396" lon="-5.210369">
        <ele>886.249</ele>
        <time>2018-06-15T09:45:52Z</time>
      </trkpt>
      <trkpt lat="42.417439" lon="-5.210449">
        <ele>885.989</ele>
        <time>2018-06-15T09:45:54Z</time>
      </trkpt>
      <trkpt lat="42.417480" lon="-5.210541">
        <ele>886.119</ele>
        <time>2018-06-15T09:45:56Z</time>
      </trkpt>
      <trkpt lat="42.417514" lon="-5.210596">
        <ele>886.269</ele>
        <time>2018-06-15T09:45:59Z</time>
      </trkpt>
      <trkpt lat="42.417559" lon="-5.210671">
        <ele>886.361</ele>
        <time>2018-06-15T09:46:00Z</time>
      </trkpt>
      <trkpt lat="42.417607" lon="-5.210753">
        <ele>886.321</ele>
        <time>2018-06-15T09:46:02Z</time>
      </trkpt>
      <trkpt lat="42.417660" lon="-5.210839">
        <ele>885.913</ele>
        <time>2018-06-15T09:46:04Z</time>
      </trkpt>
      <trkpt lat="42.417713" lon="-5.210928">
        <ele>885.708</ele>
        <time>2018-06-15T09:46:06Z</time>
      </trkpt>
      <trkpt lat="42.417765" lon="-5.211024">
        <ele>885.678</ele>
        <time>2018-06-15T09:46:08Z</time>
      </trkpt>
      <trkpt lat="42.417794" lon="-5.211071">
        <ele>885.571</ele>
        <time>2018-06-15T09:46:09Z</time>
      </trkpt>
      <trkpt lat="42.417848" lon="-5.211166">
        <ele>885.534</ele>
        <time>2018-06-15T09:46:11Z</time>
      </trkpt>
      <trkpt lat="42.417876" lon="-5.211214">
        <ele>885.928</ele>
        <time>2018-06-15T09:46:12Z</time>
      </trkpt>
      <trkpt lat="42.417904" lon="-5.211264">
        <ele>886.187</ele>
        <time>2018-06-15T09:46:13Z</time>
      </trkpt>
      <trkpt lat="42.417933" lon="-5.211313">
        <ele>886.267</ele>
        <time>2018-06-15T09:46:14Z</time>
      </trkpt>
      <trkpt lat="42.417988" lon="-5.211414">
        <ele>886.787</ele>
        <time>2018-06-15T09:46:16Z</time>
      </trkpt>
      <trkpt lat="42.418017" lon="-5.211463">
        <ele>886.677</ele>
        <time>2018-06-15T09:46:17Z</time>
      </trkpt>
      <trkpt lat="42.418047" lon="-5.211514">
        <ele>886.968</ele>
        <time>2018-06-15T09:46:18Z</time>
      </trkpt>
      <trkpt lat="42.418076" lon="-5.211562">
        <ele>887.142</ele>
        <time>2018-06-15T09:46:19Z</time>
      </trkpt>
      <trkpt lat="42.418102" lon="-5.211614">
        <ele>887.226</ele>
        <time>2018-06-15T09:46:20Z</time>
      </trkpt>
      <trkpt lat="42.418131" lon="-5.211662">
        <ele>887.308</ele>
        <time>2018-06-15T09:46:21Z</time>
      </trkpt>
      <trkpt lat="42.418159" lon="-5.211715">
        <ele>887.368</ele>
        <time>2018-06-15T09:46:22Z</time>
      </trkpt>
      <trkpt lat="42.418183" lon="-5.211768">
        <ele>887.371</ele>
        <time>2018-06-15T09:46:23Z</time>
      </trkpt>
      <trkpt lat="42.418212" lon="-5.211820">
        <ele>887.364</ele>
        <time>2018-06-15T09:46:24Z</time>
      </trkpt>
      <trkpt lat="42.418240" lon="-5.211867">
        <ele>887.388</ele>
        <time>2018-06-15T09:46:25Z</time>
      </trkpt>
      <trkpt lat="42.418265" lon="-5.211920">
        <ele>887.377</ele>
        <time>2018-06-15T09:46:26Z</time>
      </trkpt>
      <trkpt lat="42.418290" lon="-5.211974">
        <ele>887.337</ele>
        <time>2018-06-15T09:46:27Z</time>
      </trkpt>
      <trkpt lat="42.418341" lon="-5.212077">
        <ele>887.747</ele>
        <time>2018-06-15T09:46:29Z</time>
      </trkpt>
      <trkpt lat="42.418367" lon="-5.212132">
        <ele>887.557</ele>
        <time>2018-06-15T09:46:30Z</time>
      </trkpt>
      <trkpt lat="42.418409" lon="-5.212238">
        <ele>887.443</ele>
        <time>2018-06-15T09:46:32Z</time>
      </trkpt>
      <trkpt lat="42.418437" lon="-5.212294">
        <ele>887.364</ele>
        <time>2018-06-15T09:46:33Z</time>
      </trkpt>
      <trkpt lat="42.418463" lon="-5.212346">
        <ele>887.310</ele>
        <time>2018-06-15T09:46:34Z</time>
      </trkpt>
      <trkpt lat="42.418490" lon="-5.212399">
        <ele>887.708</ele>
        <time>2018-06-15T09:46:35Z</time>
      </trkpt>
      <trkpt lat="42.418541" lon="-5.212505">
        <ele>887.536</ele>
        <time>2018-06-15T09:46:37Z</time>
      </trkpt>
      <trkpt lat="42.418568" lon="-5.212561">
        <ele>887.819</ele>
        <time>2018-06-15T09:46:38Z</time>
      </trkpt>
      <trkpt lat="42.418619" lon="-5.212655">
        <ele>887.652</ele>
        <time>2018-06-15T09:46:40Z</time>
      </trkpt>
      <trkpt lat="42.418643" lon="-5.212708">
        <ele>887.586</ele>
        <time>2018-06-15T09:46:41Z</time>
      </trkpt>
      <trkpt lat="42.418694" lon="-5.212806">
        <ele>887.495</ele>
        <time>2018-06-15T09:46:43Z</time>
      </trkpt>
      <trkpt lat="42.418742" lon="-5.212907">
        <ele>887.065</ele>
        <time>2018-06-15T09:46:45Z</time>
      </trkpt>
      <trkpt lat="42.418765" lon="-5.212960">
        <ele>886.785</ele>
        <time>2018-06-15T09:46:46Z</time>
      </trkpt>
      <trkpt lat="42.418790" lon="-5.213017">
        <ele>886.575</ele>
        <time>2018-06-15T09:46:47Z</time>
      </trkpt>
      <trkpt lat="42.418814" lon="-5.213070">
        <ele>886.837</ele>
        <time>2018-06-15T09:46:48Z</time>
      </trkpt>
      <trkpt lat="42.418862" lon="-5.213166">
        <ele>887.049</ele>
        <time>2018-06-15T09:46:50Z</time>
      </trkpt>
      <trkpt lat="42.418904" lon="-5.213261">
        <ele>887.113</ele>
        <time>2018-06-15T09:46:52Z</time>
      </trkpt>
      <trkpt lat="42.418951" lon="-5.213356">
        <ele>887.208</ele>
        <time>2018-06-15T09:46:54Z</time>
      </trkpt>
      <trkpt lat="42.419004" lon="-5.213454">
        <ele>886.875</ele>
        <time>2018-06-15T09:46:56Z</time>
      </trkpt>
      <trkpt lat="42.419058" lon="-5.213548">
        <ele>886.638</ele>
        <time>2018-06-15T09:46:58Z</time>
      </trkpt>
      <trkpt lat="42.419097" lon="-5.213658">
        <ele>886.971</ele>
        <time>2018-06-15T09:47:00Z</time>
      </trkpt>
      <trkpt lat="42.419121" lon="-5.213710">
        <ele>887.195</ele>
        <time>2018-06-15T09:47:01Z</time>
      </trkpt>
      <trkpt lat="42.419171" lon="-5.213809">
        <ele>887.214</ele>
        <time>2018-06-15T09:47:03Z</time>
      </trkpt>
      <trkpt lat="42.419221" lon="-5.213905">
        <ele>887.364</ele>
        <time>2018-06-15T09:47:05Z</time>
      </trkpt>
      <trkpt lat="42.419269" lon="-5.214005">
        <ele>887.384</ele>
        <time>2018-06-15T09:47:07Z</time>
      </trkpt>
      <trkpt lat="42.419318" lon="-5.214105">
        <ele>887.314</ele>
        <time>2018-06-15T09:47:09Z</time>
      </trkpt>
      <trkpt lat="42.419343" lon="-5.214157">
        <ele>887.353</ele>
        <time>2018-06-15T09:47:10Z</time>
      </trkpt>
      <trkpt lat="42.419390" lon="-5.214260">
        <ele>887.304</ele>
        <time>2018-06-15T09:47:12Z</time>
      </trkpt>
      <trkpt lat="42.419417" lon="-5.214310">
        <ele>887.314</ele>
        <time>2018-06-15T09:47:13Z</time>
      </trkpt>
      <trkpt lat="42.419445" lon="-5.214364">
        <ele>887.308</ele>
        <time>2018-06-15T09:47:14Z</time>
      </trkpt>
      <trkpt lat="42.419476" lon="-5.214421">
        <ele>887.367</ele>
        <time>2018-06-15T09:47:15Z</time>
      </trkpt>
      <trkpt lat="42.419502" lon="-5.214476">
        <ele>887.360</ele>
        <time>2018-06-15T09:47:16Z</time>
      </trkpt>
      <trkpt lat="42.419527" lon="-5.214528">
        <ele>887.333</ele>
        <time>2018-06-15T09:47:17Z</time>
      </trkpt>
      <trkpt lat="42.419555" lon="-5.214582">
        <ele>887.397</ele>
        <time>2018-06-15T09:47:18Z</time>
      </trkpt>
      <trkpt lat="42.419581" lon="-5.214632">
        <ele>887.376</ele>
        <time>2018-06-15T09:47:19Z</time>
      </trkpt>
      <trkpt lat="42.419610" lon="-5.214684">
        <ele>887.796</ele>
        <time>2018-06-15T09:47:20Z</time>
      </trkpt>
      <trkpt lat="42.419661" lon="-5.214788">
        <ele>887.566</ele>
        <time>2018-06-15T09:47:22Z</time>
      </trkpt>
      <trkpt lat="42.419687" lon="-5.214839">
        <ele>887.426</ele>
        <time>2018-06-15T09:47:23Z</time>
      </trkpt>
      <trkpt lat="42.419737" lon="-5.214934">
        <ele>887.371</ele>
        <time>2018-06-15T09:47:25Z</time>
      </trkpt>
      <trkpt lat="42.419782" lon="-5.215028">
        <ele>887.341</ele>
        <time>2018-06-15T09:47:27Z</time>
      </trkpt>
      <trkpt lat="42.419831" lon="-5.215120">
        <ele>887.315</ele>
        <time>2018-06-15T09:47:29Z</time>
      </trkpt>
      <trkpt lat="42.419883" lon="-5.215205">
        <ele>887.708</ele>
        <time>2018-06-15T09:47:31Z</time>
      </trkpt>
      <trkpt lat="42.419921" lon="-5.215261">
        <ele>887.999</ele>
        <time>2018-06-15T09:47:34Z</time>
      </trkpt>
      <trkpt lat="42.419968" lon="-5.215312">
        <ele>888.032</ele>
        <time>2018-06-15T09:47:37Z</time>
      </trkpt>
      <trkpt lat="42.420029" lon="-5.215352">
        <ele>887.755</ele>
        <time>2018-06-15T09:47:40Z</time>
      </trkpt>
      <trkpt lat="42.420074" lon="-5.215375">
        <ele>887.559</ele>
        <time>2018-06-15T09:47:42Z</time>
      </trkpt>
      <trkpt lat="42.420121" lon="-5.215411">
        <ele>887.478</ele>
        <time>2018-06-15T09:47:44Z</time>
      </trkpt>
      <trkpt lat="42.420163" lon="-5.215463">
        <ele>887.338</ele>
        <time>2018-06-15T09:47:46Z</time>
      </trkpt>
      <trkpt lat="42.420202" lon="-5.215525">
        <ele>887.318</ele>
        <time>2018-06-15T09:47:48Z</time>
      </trkpt>
      <trkpt lat="42.420241" lon="-5.215594">
        <ele>887.348</ele>
        <time>2018-06-15T09:47:50Z</time>
      </trkpt>
      <trkpt lat="42.420279" lon="-5.215669">
        <ele>887.346</ele>
        <time>2018-06-15T09:47:52Z</time>
      </trkpt>
      <trkpt lat="42.420316" lon="-5.215746">
        <ele>887.388</ele>
        <time>2018-06-15T09:47:54Z</time>
      </trkpt>
      <trkpt lat="42.420353" lon="-5.215822">
        <ele>887.716</ele>
        <time>2018-06-15T09:47:56Z</time>
      </trkpt>
      <trkpt lat="42.420392" lon="-5.215892">
        <ele>887.908</ele>
        <time>2018-06-15T09:47:58Z</time>
      </trkpt>
      <trkpt lat="42.420433" lon="-5.215966">
        <ele>887.646</ele>
        <time>2018-06-15T09:48:00Z</time>
      </trkpt>
      <trkpt lat="42.420472" lon="-5.216036">
        <ele>887.419</ele>
        <time>2018-06-15T09:48:02Z</time>
      </trkpt>
      <trkpt lat="42.420508" lon="-5.216101">
        <ele>887.332</ele>
        <time>2018-06-15T09:48:04Z</time>
      </trkpt>
      <trkpt lat="42.420538" lon="-5.216162">
        <ele>887.266</ele>
        <time>2018-06-15T09:48:06Z</time>
      </trkpt>
      <trkpt lat="42.420564" lon="-5.216220">
        <ele>887.265</ele>
        <time>2018-06-15T09:48:08Z</time>
      </trkpt>
      <trkpt lat="42.420589" lon="-5.216285">
        <ele>887.285</ele>
        <time>2018-06-15T09:48:10Z</time>
      </trkpt>
      <trkpt lat="42.420618" lon="-5.216353">
        <ele>887.235</ele>
        <time>2018-06-15T09:48:12Z</time>
      </trkpt>
      <trkpt lat="42.420651" lon="-5.216424">
        <ele>887.645</ele>
        <time>2018-06-15T09:48:14Z</time>
      </trkpt>
      <trkpt lat="42.420690" lon="-5.216499">
        <ele>887.889</ele>
        <time>2018-06-15T09:48:16Z</time>
      </trkpt>
      <trkpt lat="42.420728" lon="-5.216578">
        <ele>887.906</ele>
        <time>2018-06-15T09:48:18Z</time>
      </trkpt>
      <trkpt lat="42.420760" lon="-5.216650">
        <ele>888.426</ele>
        <time>2018-06-15T09:48:20Z</time>
      </trkpt>
      <trkpt lat="42.420792" lon="-5.216720">
        <ele>888.708</ele>
        <time>2018-06-15T09:48:22Z</time>
      </trkpt>
      <trkpt lat="42.420825" lon="-5.216793">
        <ele>888.940</ele>
        <time>2018-06-15T09:48:24Z</time>
      </trkpt>
      <trkpt lat="42.420863" lon="-5.216877">
        <ele>889.493</ele>
        <time>2018-06-15T09:48:26Z</time>
      </trkpt>
      <trkpt lat="42.420904" lon="-5.216954">
        <ele>889.786</ele>
        <time>2018-06-15T09:48:28Z</time>
      </trkpt>
      <trkpt lat="42.420943" lon="-5.217030">
        <ele>889.990</ele>
        <time>2018-06-15T09:48:30Z</time>
      </trkpt>
      <trkpt lat="42.420979" lon="-5.217116">
        <ele>889.629</ele>
        <time>2018-06-15T09:48:32Z</time>
      </trkpt>
      <trkpt lat="42.421017" lon="-5.217196">
        <ele>889.049</ele>
        <time>2018-06-15T09:48:34Z</time>
      </trkpt>
      <trkpt lat="42.421053" lon="-5.217276">
        <ele>888.769</ele>
        <time>2018-06-15T09:48:36Z</time>
      </trkpt>
      <trkpt lat="42.421107" lon="-5.217384">
        <ele>888.549</ele>
        <time>2018-06-15T09:48:37Z</time>
      </trkpt>
      <trkpt lat="42.421147" lon="-5.217454">
        <ele>888.471</ele>
        <time>2018-06-15T09:48:40Z</time>
      </trkpt>
      <trkpt lat="42.421176" lon="-5.217516">
        <ele>888.741</ele>
        <time>2018-06-15T09:48:42Z</time>
      </trkpt>
      <trkpt lat="42.421208" lon="-5.217585">
        <ele>888.515</ele>
        <time>2018-06-15T09:48:44Z</time>
      </trkpt>
      <trkpt lat="42.421242" lon="-5.217657">
        <ele>888.408</ele>
        <time>2018-06-15T09:48:46Z</time>
      </trkpt>
      <trkpt lat="42.421309" lon="-5.217804">
        <ele>888.329</ele>
        <time>2018-06-15T09:48:48Z</time>
      </trkpt>
      <trkpt lat="42.421343" lon="-5.217877">
        <ele>887.922</ele>
        <time>2018-06-15T09:48:51Z</time>
      </trkpt>
      <trkpt lat="42.421381" lon="-5.217939">
        <ele>887.695</ele>
        <time>2018-06-15T09:48:53Z</time>
      </trkpt>
      <trkpt lat="42.421436" lon="-5.218031">
        <ele>887.849</ele>
        <time>2018-06-15T09:48:54Z</time>
      </trkpt>
      <trkpt lat="42.421469" lon="-5.218103">
        <ele>887.558</ele>
        <time>2018-06-15T09:48:57Z</time>
      </trkpt>
      <trkpt lat="42.421497" lon="-5.218156">
        <ele>886.948</ele>
        <time>2018-06-15T09:48:59Z</time>
      </trkpt>
      <trkpt lat="42.421532" lon="-5.218220">
        <ele>886.688</ele>
        <time>2018-06-15T09:49:01Z</time>
      </trkpt>
      <trkpt lat="42.421570" lon="-5.218289">
        <ele>886.478</ele>
        <time>2018-06-15T09:49:03Z</time>
      </trkpt>
      <trkpt lat="42.421610" lon="-5.218367">
        <ele>886.762</ele>
        <time>2018-06-15T09:49:05Z</time>
      </trkpt>
      <trkpt lat="42.421647" lon="-5.218450">
        <ele>886.983</ele>
        <time>2018-06-15T09:49:07Z</time>
      </trkpt>
      <trkpt lat="42.421719" lon="-5.218592">
        <ele>887.411</ele>
        <time>2018-06-15T09:49:09Z</time>
      </trkpt>
      <trkpt lat="42.421760" lon="-5.218676">
        <ele>887.708</ele>
        <time>2018-06-15T09:49:11Z</time>
      </trkpt>
      <trkpt lat="42.421802" lon="-5.218755">
        <ele>887.928</ele>
        <time>2018-06-15T09:49:13Z</time>
      </trkpt>
      <trkpt lat="42.421845" lon="-5.218837">
        <ele>888.031</ele>
        <time>2018-06-15T09:49:15Z</time>
      </trkpt>
      <trkpt lat="42.421881" lon="-5.218896">
        <ele>888.134</ele>
        <time>2018-06-15T09:49:17Z</time>
      </trkpt>
      <trkpt lat="42.421929" lon="-5.219000">
        <ele>888.118</ele>
        <time>2018-06-15T09:49:19Z</time>
      </trkpt>
      <trkpt lat="42.421959" lon="-5.219064">
        <ele>888.187</ele>
        <time>2018-06-15T09:49:21Z</time>
      </trkpt>
      <trkpt lat="42.421986" lon="-5.219129">
        <ele>888.587</ele>
        <time>2018-06-15T09:49:23Z</time>
      </trkpt>
      <trkpt lat="42.422031" lon="-5.219227">
        <ele>888.797</ele>
        <time>2018-06-15T09:49:24Z</time>
      </trkpt>
      <trkpt lat="42.422077" lon="-5.219317">
        <ele>888.817</ele>
        <time>2018-06-15T09:49:26Z</time>
      </trkpt>
      <trkpt lat="42.422137" lon="-5.219438">
        <ele>888.597</ele>
        <time>2018-06-15T09:49:29Z</time>
      </trkpt>
      <trkpt lat="42.422178" lon="-5.219542">
        <ele>889.123</ele>
        <time>2018-06-15T09:49:31Z</time>
      </trkpt>
      <trkpt lat="42.422211" lon="-5.219630">
        <ele>889.525</ele>
        <time>2018-06-15T09:49:33Z</time>
      </trkpt>
      <trkpt lat="42.422248" lon="-5.219723">
        <ele>890.108</ele>
        <time>2018-06-15T09:49:35Z</time>
      </trkpt>
      <trkpt lat="42.422288" lon="-5.219815">
        <ele>890.541</ele>
        <time>2018-06-15T09:49:37Z</time>
      </trkpt>
      <trkpt lat="42.422332" lon="-5.219904">
        <ele>890.734</ele>
        <time>2018-06-15T09:49:39Z</time>
      </trkpt>
      <trkpt lat="42.422375" lon="-5.219995">
        <ele>890.817</ele>
        <time>2018-06-15T09:49:41Z</time>
      </trkpt>
      <trkpt lat="42.422415" lon="-5.220097">
        <ele>891.361</ele>
        <time>2018-06-15T09:49:43Z</time>
      </trkpt>
      <trkpt lat="42.422448" lon="-5.220197">
        <ele>891.640</ele>
        <time>2018-06-15T09:49:45Z</time>
      </trkpt>
      <trkpt lat="42.422482" lon="-5.220292">
        <ele>891.880</ele>
        <time>2018-06-15T09:49:47Z</time>
      </trkpt>
      <trkpt lat="42.422507" lon="-5.220388">
        <ele>891.580</ele>
        <time>2018-06-15T09:49:49Z</time>
      </trkpt>
      <trkpt lat="42.422523" lon="-5.220490">
        <ele>891.320</ele>
        <time>2018-06-15T09:49:51Z</time>
      </trkpt>
      <trkpt lat="42.422557" lon="-5.220580">
        <ele>891.284</ele>
        <time>2018-06-15T09:49:53Z</time>
      </trkpt>
      <trkpt lat="42.422576" lon="-5.220683">
        <ele>891.107</ele>
        <time>2018-06-15T09:49:55Z</time>
      </trkpt>
      <trkpt lat="42.422600" lon="-5.220776">
        <ele>891.117</ele>
        <time>2018-06-15T09:49:57Z</time>
      </trkpt>
      <trkpt lat="42.422624" lon="-5.220872">
        <ele>891.108</ele>
        <time>2018-06-15T09:49:59Z</time>
      </trkpt>
      <trkpt lat="42.422644" lon="-5.220975">
        <ele>890.770</ele>
        <time>2018-06-15T09:50:01Z</time>
      </trkpt>
      <trkpt lat="42.422661" lon="-5.221085">
        <ele>890.963</ele>
        <time>2018-06-15T09:50:03Z</time>
      </trkpt>
      <trkpt lat="42.422676" lon="-5.221188">
        <ele>891.046</ele>
        <time>2018-06-15T09:50:05Z</time>
      </trkpt>
      <trkpt lat="42.422697" lon="-5.221296">
        <ele>891.920</ele>
        <time>2018-06-15T09:50:07Z</time>
      </trkpt>
      <trkpt lat="42.422708" lon="-5.221376">
        <ele>891.679</ele>
        <time>2018-06-15T09:50:10Z</time>
      </trkpt>
      <trkpt lat="42.422709" lon="-5.221465">
        <ele>891.459</ele>
        <time>2018-06-15T09:50:13Z</time>
      </trkpt>
      <trkpt lat="42.422712" lon="-5.221534">
        <ele>890.959</ele>
        <time>2018-06-15T09:50:15Z</time>
      </trkpt>
      <trkpt lat="42.422728" lon="-5.221605">
        <ele>890.239</ele>
        <time>2018-06-15T09:50:17Z</time>
      </trkpt>
      <trkpt lat="42.422770" lon="-5.221770">
        <ele>890.212</ele>
        <time>2018-06-15T09:50:19Z</time>
      </trkpt>
      <trkpt lat="42.422813" lon="-5.221856">
        <ele>890.632</ele>
        <time>2018-06-15T09:50:21Z</time>
      </trkpt>
      <trkpt lat="42.422835" lon="-5.221926">
        <ele>890.405</ele>
        <time>2018-06-15T09:50:23Z</time>
      </trkpt>
      <trkpt lat="42.422858" lon="-5.221999">
        <ele>890.308</ele>
        <time>2018-06-15T09:50:24Z</time>
      </trkpt>
      <trkpt lat="42.422889" lon="-5.222100">
        <ele>890.243</ele>
        <time>2018-06-15T09:50:26Z</time>
      </trkpt>
      <trkpt lat="42.422915" lon="-5.222203">
        <ele>890.646</ele>
        <time>2018-06-15T09:50:28Z</time>
      </trkpt>
      <trkpt lat="42.422946" lon="-5.222301">
        <ele>891.269</ele>
        <time>2018-06-15T09:50:30Z</time>
      </trkpt>
      <trkpt lat="42.422974" lon="-5.222366">
        <ele>891.633</ele>
        <time>2018-06-15T09:50:32Z</time>
      </trkpt>
      <trkpt lat="42.423042" lon="-5.222493">
        <ele>891.482</ele>
        <time>2018-06-15T09:50:35Z</time>
      </trkpt>
      <trkpt lat="42.423076" lon="-5.222553">
        <ele>891.382</ele>
        <time>2018-06-15T09:50:37Z</time>
      </trkpt>
      <trkpt lat="42.423127" lon="-5.222616">
        <ele>890.872</ele>
        <time>2018-06-15T09:50:40Z</time>
      </trkpt>
      <trkpt lat="42.423172" lon="-5.222663">
        <ele>890.162</ele>
        <time>2018-06-15T09:50:42Z</time>
      </trkpt>
      <trkpt lat="42.423265" lon="-5.222769">
        <ele>889.721</ele>
        <time>2018-06-15T09:50:44Z</time>
      </trkpt>
      <trkpt lat="42.423327" lon="-5.222833">
        <ele>889.141</ele>
        <time>2018-06-15T09:50:46Z</time>
      </trkpt>
      <trkpt lat="42.423385" lon="-5.222911">
        <ele>888.705</ele>
        <time>2018-06-15T09:50:48Z</time>
      </trkpt>
      <trkpt lat="42.423448" lon="-5.222978">
        <ele>888.508</ele>
        <time>2018-06-15T09:50:50Z</time>
      </trkpt>
      <trkpt lat="42.423506" lon="-5.223048">
        <ele>888.444</ele>
        <time>2018-06-15T09:50:52Z</time>
      </trkpt>
      <trkpt lat="42.423562" lon="-5.223123">
        <ele>888.337</ele>
        <time>2018-06-15T09:50:54Z</time>
      </trkpt>
      <trkpt lat="42.423618" lon="-5.223199">
        <ele>888.240</ele>
        <time>2018-06-15T09:50:56Z</time>
      </trkpt>
      <trkpt lat="42.423675" lon="-5.223270">
        <ele>888.274</ele>
        <time>2018-06-15T09:50:58Z</time>
      </trkpt>
      <trkpt lat="42.423731" lon="-5.223341">
        <ele>888.243</ele>
        <time>2018-06-15T09:51:00Z</time>
      </trkpt>
      <trkpt lat="42.423783" lon="-5.223412">
        <ele>888.653</ele>
        <time>2018-06-15T09:51:02Z</time>
      </trkpt>
      <trkpt lat="42.423839" lon="-5.223476">
        <ele>888.863</ele>
        <time>2018-06-15T09:51:04Z</time>
      </trkpt>
      <trkpt lat="42.423896" lon="-5.223544">
        <ele>888.993</ele>
        <time>2018-06-15T09:51:06Z</time>
      </trkpt>
      <trkpt lat="42.423947" lon="-5.223618">
        <ele>889.031</ele>
        <time>2018-06-15T09:51:08Z</time>
      </trkpt>
      <trkpt lat="42.423996" lon="-5.223701">
        <ele>889.161</ele>
        <time>2018-06-15T09:51:10Z</time>
      </trkpt>
      <trkpt lat="42.424061" lon="-5.223769">
        <ele>889.107</ele>
        <time>2018-06-15T09:51:12Z</time>
      </trkpt>
      <trkpt lat="42.424116" lon="-5.223861">
        <ele>889.108</ele>
        <time>2018-06-15T09:51:14Z</time>
      </trkpt>
      <trkpt lat="42.424167" lon="-5.223954">
        <ele>889.145</ele>
        <time>2018-06-15T09:51:16Z</time>
      </trkpt>
      <trkpt lat="42.424216" lon="-5.224046">
        <ele>889.168</ele>
        <time>2018-06-15T09:51:18Z</time>
      </trkpt>
      <trkpt lat="42.424270" lon="-5.224138">
        <ele>889.181</ele>
        <time>2018-06-15T09:51:20Z</time>
      </trkpt>
      <trkpt lat="42.424322" lon="-5.224235">
        <ele>889.175</ele>
        <time>2018-06-15T09:51:22Z</time>
      </trkpt>
      <trkpt lat="42.424350" lon="-5.224285">
        <ele>889.174</ele>
        <time>2018-06-15T09:51:23Z</time>
      </trkpt>
      <trkpt lat="42.424381" lon="-5.224337">
        <ele>889.154</ele>
        <time>2018-06-15T09:51:24Z</time>
      </trkpt>
      <trkpt lat="42.424406" lon="-5.224392">
        <ele>889.184</ele>
        <time>2018-06-15T09:51:25Z</time>
      </trkpt>
      <trkpt lat="42.424430" lon="-5.224445">
        <ele>889.134</ele>
        <time>2018-06-15T09:51:26Z</time>
      </trkpt>
      <trkpt lat="42.424485" lon="-5.224547">
        <ele>889.153</ele>
        <time>2018-06-15T09:51:28Z</time>
      </trkpt>
      <trkpt lat="42.424512" lon="-5.224598">
        <ele>889.104</ele>
        <time>2018-06-15T09:51:29Z</time>
      </trkpt>
      <trkpt lat="42.424540" lon="-5.224648">
        <ele>889.114</ele>
        <time>2018-06-15T09:51:30Z</time>
      </trkpt>
      <trkpt lat="42.424570" lon="-5.224699">
        <ele>889.108</ele>
        <time>2018-06-15T09:51:31Z</time>
      </trkpt>
      <trkpt lat="42.424596" lon="-5.224754">
        <ele>889.157</ele>
        <time>2018-06-15T09:51:32Z</time>
      </trkpt>
      <trkpt lat="42.424622" lon="-5.224809">
        <ele>889.150</ele>
        <time>2018-06-15T09:51:33Z</time>
      </trkpt>
      <trkpt lat="42.424651" lon="-5.224865">
        <ele>889.183</ele>
        <time>2018-06-15T09:51:34Z</time>
      </trkpt>
      <trkpt lat="42.424683" lon="-5.224917">
        <ele>889.157</ele>
        <time>2018-06-15T09:51:35Z</time>
      </trkpt>
      <trkpt lat="42.424711" lon="-5.224970">
        <ele>889.116</ele>
        <time>2018-06-15T09:51:36Z</time>
      </trkpt>
      <trkpt lat="42.424739" lon="-5.225025">
        <ele>889.196</ele>
        <time>2018-06-15T09:51:37Z</time>
      </trkpt>
      <trkpt lat="42.424768" lon="-5.225084">
        <ele>889.186</ele>
        <time>2018-06-15T09:51:38Z</time>
      </trkpt>
      <trkpt lat="42.424796" lon="-5.225136">
        <ele>889.126</ele>
        <time>2018-06-15T09:51:39Z</time>
      </trkpt>
      <trkpt lat="42.424825" lon="-5.225188">
        <ele>889.131</ele>
        <time>2018-06-15T09:51:40Z</time>
      </trkpt>
      <trkpt lat="42.424856" lon="-5.225242">
        <ele>889.161</ele>
        <time>2018-06-15T09:51:41Z</time>
      </trkpt>
      <trkpt lat="42.424884" lon="-5.225298">
        <ele>889.107</ele>
        <time>2018-06-15T09:51:42Z</time>
      </trkpt>
      <trkpt lat="42.424913" lon="-5.225351">
        <ele>889.108</ele>
        <time>2018-06-15T09:51:43Z</time>
      </trkpt>
      <trkpt lat="42.424944" lon="-5.225403">
        <ele>889.165</ele>
        <time>2018-06-15T09:51:44Z</time>
      </trkpt>
      <trkpt lat="42.424972" lon="-5.225457">
        <ele>889.568</ele>
        <time>2018-06-15T09:51:45Z</time>
      </trkpt>
      <trkpt lat="42.425001" lon="-5.225511">
        <ele>889.781</ele>
        <time>2018-06-15T09:51:46Z</time>
      </trkpt>
      <trkpt lat="42.425032" lon="-5.225568">
        <ele>889.865</ele>
        <time>2018-06-15T09:51:47Z</time>
      </trkpt>
      <trkpt lat="42.425062" lon="-5.225627">
        <ele>889.924</ele>
        <time>2018-06-15T09:51:48Z</time>
      </trkpt>
      <trkpt lat="42.425092" lon="-5.225680">
        <ele>890.074</ele>
        <time>2018-06-15T09:51:49Z</time>
      </trkpt>
      <trkpt lat="42.425125" lon="-5.225730">
        <ele>890.014</ele>
        <time>2018-06-15T09:51:50Z</time>
      </trkpt>
      <trkpt lat="42.425162" lon="-5.225782">
        <ele>890.084</ele>
        <time>2018-06-15T09:51:51Z</time>
      </trkpt>
      <trkpt lat="42.425198" lon="-5.225833">
        <ele>890.076</ele>
        <time>2018-06-15T09:51:52Z</time>
      </trkpt>
      <trkpt lat="42.425231" lon="-5.225883">
        <ele>890.090</ele>
        <time>2018-06-15T09:51:53Z</time>
      </trkpt>
      <trkpt lat="42.425266" lon="-5.225934">
        <ele>890.019</ele>
        <time>2018-06-15T09:51:54Z</time>
      </trkpt>
      <trkpt lat="42.425300" lon="-5.225981">
        <ele>889.608</ele>
        <time>2018-06-15T09:51:55Z</time>
      </trkpt>
      <trkpt lat="42.425335" lon="-5.226032">
        <ele>889.899</ele>
        <time>2018-06-15T09:51:56Z</time>
      </trkpt>
      <trkpt lat="42.425369" lon="-5.226079">
        <ele>889.922</ele>
        <time>2018-06-15T09:51:57Z</time>
      </trkpt>
      <trkpt lat="42.425404" lon="-5.226126">
        <ele>890.065</ele>
        <time>2018-06-15T09:51:58Z</time>
      </trkpt>
      <trkpt lat="42.425438" lon="-5.226176">
        <ele>890.039</ele>
        <time>2018-06-15T09:51:59Z</time>
      </trkpt>
      <trkpt lat="42.425473" lon="-5.226224">
        <ele>890.058</ele>
        <time>2018-06-15T09:52:00Z</time>
      </trkpt>
      <trkpt lat="42.425507" lon="-5.226274">
        <ele>889.668</ele>
        <time>2018-06-15T09:52:01Z</time>
      </trkpt>
      <trkpt lat="42.425541" lon="-5.226325">
        <ele>889.448</ele>
        <time>2018-06-15T09:52:02Z</time>
      </trkpt>
      <trkpt lat="42.425574" lon="-5.226372">
        <ele>889.338</ele>
        <time>2018-06-15T09:52:03Z</time>
      </trkpt>
      <trkpt lat="42.425609" lon="-5.226424">
        <ele>889.227</ele>
        <time>2018-06-15T09:52:04Z</time>
      </trkpt>
      <trkpt lat="42.425642" lon="-5.226473">
        <ele>889.168</ele>
        <time>2018-06-15T09:52:05Z</time>
      </trkpt>
      <trkpt lat="42.425675" lon="-5.226528">
        <ele>889.114</ele>
        <time>2018-06-15T09:52:06Z</time>
      </trkpt>
      <trkpt lat="42.425709" lon="-5.226576">
        <ele>889.108</ele>
        <time>2018-06-15T09:52:07Z</time>
      </trkpt>
      <trkpt lat="42.425744" lon="-5.226625">
        <ele>889.554</ele>
        <time>2018-06-15T09:52:08Z</time>
      </trkpt>
      <trkpt lat="42.425777" lon="-5.226675">
        <ele>889.347</ele>
        <time>2018-06-15T09:52:09Z</time>
      </trkpt>
      <trkpt lat="42.425810" lon="-5.226723">
        <ele>889.240</ele>
        <time>2018-06-15T09:52:10Z</time>
      </trkpt>
      <trkpt lat="42.425843" lon="-5.226773">
        <ele>889.114</ele>
        <time>2018-06-15T09:52:11Z</time>
      </trkpt>
      <trkpt lat="42.425876" lon="-5.226820">
        <ele>889.133</ele>
        <time>2018-06-15T09:52:12Z</time>
      </trkpt>
      <trkpt lat="42.425910" lon="-5.226869">
        <ele>889.163</ele>
        <time>2018-06-15T09:52:13Z</time>
      </trkpt>
      <trkpt lat="42.425945" lon="-5.226923">
        <ele>889.143</ele>
        <time>2018-06-15T09:52:14Z</time>
      </trkpt>
      <trkpt lat="42.425979" lon="-5.226973">
        <ele>889.153</ele>
        <time>2018-06-15T09:52:15Z</time>
      </trkpt>
      <trkpt lat="42.426014" lon="-5.227023">
        <ele>889.114</ele>
        <time>2018-06-15T09:52:16Z</time>
      </trkpt>
      <trkpt lat="42.426051" lon="-5.227073">
        <ele>889.154</ele>
        <time>2018-06-15T09:52:17Z</time>
      </trkpt>
      <trkpt lat="42.426085" lon="-5.227123">
        <ele>889.109</ele>
        <time>2018-06-15T09:52:18Z</time>
      </trkpt>
      <trkpt lat="42.426119" lon="-5.227172">
        <ele>889.108</ele>
        <time>2018-06-15T09:52:19Z</time>
      </trkpt>
      <trkpt lat="42.426151" lon="-5.227223">
        <ele>889.173</ele>
        <time>2018-06-15T09:52:20Z</time>
      </trkpt>
      <trkpt lat="42.426190" lon="-5.227270">
        <ele>889.176</ele>
        <time>2018-06-15T09:52:21Z</time>
      </trkpt>
      <trkpt lat="42.426226" lon="-5.227322">
        <ele>889.199</ele>
        <time>2018-06-15T09:52:22Z</time>
      </trkpt>
      <trkpt lat="42.426263" lon="-5.227368">
        <ele>889.173</ele>
        <time>2018-06-15T09:52:23Z</time>
      </trkpt>
      <trkpt lat="42.426299" lon="-5.227418">
        <ele>889.162</ele>
        <time>2018-06-15T09:52:24Z</time>
      </trkpt>
      <trkpt lat="42.426335" lon="-5.227467">
        <ele>889.122</ele>
        <time>2018-06-15T09:52:25Z</time>
      </trkpt>
      <trkpt lat="42.426369" lon="-5.227517">
        <ele>889.192</ele>
        <time>2018-06-15T09:52:26Z</time>
      </trkpt>
      <trkpt lat="42.426404" lon="-5.227566">
        <ele>889.182</ele>
        <time>2018-06-15T09:52:27Z</time>
      </trkpt>
      <trkpt lat="42.426438" lon="-5.227615">
        <ele>889.188</ele>
        <time>2018-06-15T09:52:28Z</time>
      </trkpt>
      <trkpt lat="42.426471" lon="-5.227663">
        <ele>889.124</ele>
        <time>2018-06-15T09:52:29Z</time>
      </trkpt>
      <trkpt lat="42.426507" lon="-5.227712">
        <ele>889.526</ele>
        <time>2018-06-15T09:52:30Z</time>
      </trkpt>
      <trkpt lat="42.426543" lon="-5.227767">
        <ele>889.708</ele>
        <time>2018-06-15T09:52:31Z</time>
      </trkpt>
      <trkpt lat="42.426576" lon="-5.227823">
        <ele>889.820</ele>
        <time>2018-06-15T09:52:32Z</time>
      </trkpt>
      <trkpt lat="42.426611" lon="-5.227877">
        <ele>889.953</ele>
        <time>2018-06-15T09:52:33Z</time>
      </trkpt>
      <trkpt lat="42.426643" lon="-5.227933">
        <ele>890.056</ele>
        <time>2018-06-15T09:52:34Z</time>
      </trkpt>
      <trkpt lat="42.426678" lon="-5.227992">
        <ele>890.080</ele>
        <time>2018-06-15T09:52:35Z</time>
      </trkpt>
      <trkpt lat="42.426710" lon="-5.228047">
        <ele>890.029</ele>
        <time>2018-06-15T09:52:36Z</time>
      </trkpt>
      <trkpt lat="42.426742" lon="-5.228105">
        <ele>890.049</ele>
        <time>2018-06-15T09:52:37Z</time>
      </trkpt>
      <trkpt lat="42.426773" lon="-5.228163">
        <ele>890.089</ele>
        <time>2018-06-15T09:52:38Z</time>
      </trkpt>
      <trkpt lat="42.426802" lon="-5.228221">
        <ele>890.029</ele>
        <time>2018-06-15T09:52:39Z</time>
      </trkpt>
      <trkpt lat="42.426831" lon="-5.228279">
        <ele>890.035</ele>
        <time>2018-06-15T09:52:40Z</time>
      </trkpt>
      <trkpt lat="42.426858" lon="-5.228342">
        <ele>890.086</ele>
        <time>2018-06-15T09:52:41Z</time>
      </trkpt>
      <trkpt lat="42.426882" lon="-5.228401">
        <ele>890.014</ele>
        <time>2018-06-15T09:52:42Z</time>
      </trkpt>
      <trkpt lat="42.426911" lon="-5.228460">
        <ele>890.008</ele>
        <time>2018-06-15T09:52:43Z</time>
      </trkpt>
      <trkpt lat="42.426938" lon="-5.228523">
        <ele>890.035</ele>
        <time>2018-06-15T09:52:44Z</time>
      </trkpt>
      <trkpt lat="42.426966" lon="-5.228584">
        <ele>890.078</ele>
        <time>2018-06-15T09:52:45Z</time>
      </trkpt>
      <trkpt lat="42.426992" lon="-5.228642">
        <ele>890.011</ele>
        <time>2018-06-15T09:52:46Z</time>
      </trkpt>
      <trkpt lat="42.427022" lon="-5.228699">
        <ele>890.025</ele>
        <time>2018-06-15T09:52:47Z</time>
      </trkpt>
      <trkpt lat="42.427049" lon="-5.228758">
        <ele>890.094</ele>
        <time>2018-06-15T09:52:48Z</time>
      </trkpt>
      <trkpt lat="42.427075" lon="-5.228815">
        <ele>890.094</ele>
        <time>2018-06-15T09:52:49Z</time>
      </trkpt>
      <trkpt lat="42.427104" lon="-5.228874">
        <ele>890.024</ele>
        <time>2018-06-15T09:52:50Z</time>
      </trkpt>
      <trkpt lat="42.427129" lon="-5.228930">
        <ele>890.074</ele>
        <time>2018-06-15T09:52:51Z</time>
      </trkpt>
      <trkpt lat="42.427154" lon="-5.228987">
        <ele>890.052</ele>
        <time>2018-06-15T09:52:52Z</time>
      </trkpt>
      <trkpt lat="42.427182" lon="-5.229044">
        <ele>890.053</ele>
        <time>2018-06-15T09:52:53Z</time>
      </trkpt>
      <trkpt lat="42.427210" lon="-5.229103">
        <ele>890.008</ele>
        <time>2018-06-15T09:52:54Z</time>
      </trkpt>
      <trkpt lat="42.427239" lon="-5.229161">
        <ele>890.008</ele>
        <time>2018-06-15T09:52:55Z</time>
      </trkpt>
      <trkpt lat="42.427268" lon="-5.229220">
        <ele>890.017</ele>
        <time>2018-06-15T09:52:56Z</time>
      </trkpt>
      <trkpt lat="42.427298" lon="-5.229282">
        <ele>890.020</ele>
        <time>2018-06-15T09:52:57Z</time>
      </trkpt>
      <trkpt lat="42.427329" lon="-5.229341">
        <ele>890.023</ele>
        <time>2018-06-15T09:52:58Z</time>
      </trkpt>
      <trkpt lat="42.427357" lon="-5.229402">
        <ele>890.057</ele>
        <time>2018-06-15T09:52:59Z</time>
      </trkpt>
      <trkpt lat="42.427388" lon="-5.229462">
        <ele>889.686</ele>
        <time>2018-06-15T09:53:00Z</time>
      </trkpt>
      <trkpt lat="42.427413" lon="-5.229519">
        <ele>889.486</ele>
        <time>2018-06-15T09:53:01Z</time>
      </trkpt>
      <trkpt lat="42.427439" lon="-5.229573">
        <ele>889.356</ele>
        <time>2018-06-15T09:53:02Z</time>
      </trkpt>
      <trkpt lat="42.427465" lon="-5.229631">
        <ele>889.276</ele>
        <time>2018-06-15T09:53:03Z</time>
      </trkpt>
      <trkpt lat="42.427493" lon="-5.229685">
        <ele>889.153</ele>
        <time>2018-06-15T09:53:04Z</time>
      </trkpt>
      <trkpt lat="42.427521" lon="-5.229746">
        <ele>889.104</ele>
        <time>2018-06-15T09:53:05Z</time>
      </trkpt>
      <trkpt lat="42.427548" lon="-5.229805">
        <ele>889.514</ele>
        <time>2018-06-15T09:53:06Z</time>
      </trkpt>
      <trkpt lat="42.427577" lon="-5.229865">
        <ele>889.708</ele>
        <time>2018-06-15T09:53:07Z</time>
      </trkpt>
      <trkpt lat="42.427602" lon="-5.229923">
        <ele>889.837</ele>
        <time>2018-06-15T09:53:08Z</time>
      </trkpt>
      <trkpt lat="42.427629" lon="-5.229982">
        <ele>889.960</ele>
        <time>2018-06-15T09:53:09Z</time>
      </trkpt>
      <trkpt lat="42.427660" lon="-5.230045">
        <ele>889.963</ele>
        <time>2018-06-15T09:53:10Z</time>
      </trkpt>
      <trkpt lat="42.427690" lon="-5.230104">
        <ele>889.987</ele>
        <time>2018-06-15T09:53:11Z</time>
      </trkpt>
      <trkpt lat="42.427719" lon="-5.230167">
        <ele>889.996</ele>
        <time>2018-06-15T09:53:12Z</time>
      </trkpt>
      <trkpt lat="42.427749" lon="-5.230227">
        <ele>889.916</ele>
        <time>2018-06-15T09:53:13Z</time>
      </trkpt>
      <trkpt lat="42.427778" lon="-5.230291">
        <ele>889.946</ele>
        <time>2018-06-15T09:53:14Z</time>
      </trkpt>
      <trkpt lat="42.427804" lon="-5.230349">
        <ele>889.966</ele>
        <time>2018-06-15T09:53:15Z</time>
      </trkpt>
      <trkpt lat="42.427834" lon="-5.230407">
        <ele>889.999</ele>
        <time>2018-06-15T09:53:16Z</time>
      </trkpt>
      <trkpt lat="42.427861" lon="-5.230467">
        <ele>889.907</ele>
        <time>2018-06-15T09:53:17Z</time>
      </trkpt>
      <trkpt lat="42.427889" lon="-5.230523">
        <ele>889.927</ele>
        <time>2018-06-15T09:53:18Z</time>
      </trkpt>
      <trkpt lat="42.427919" lon="-5.230581">
        <ele>889.908</ele>
        <time>2018-06-15T09:53:19Z</time>
      </trkpt>
      <trkpt lat="42.427945" lon="-5.230634">
        <ele>889.981</ele>
        <time>2018-06-15T09:53:20Z</time>
      </trkpt>
      <trkpt lat="42.427972" lon="-5.230691">
        <ele>889.954</ele>
        <time>2018-06-15T09:53:21Z</time>
      </trkpt>
      <trkpt lat="42.428001" lon="-5.230750">
        <ele>889.937</ele>
        <time>2018-06-15T09:53:22Z</time>
      </trkpt>
      <trkpt lat="42.428032" lon="-5.230812">
        <ele>889.931</ele>
        <time>2018-06-15T09:53:23Z</time>
      </trkpt>
      <trkpt lat="42.428060" lon="-5.230874">
        <ele>889.950</ele>
        <time>2018-06-15T09:53:24Z</time>
      </trkpt>
      <trkpt lat="42.428088" lon="-5.230934">
        <ele>889.930</ele>
        <time>2018-06-15T09:53:25Z</time>
      </trkpt>
      <trkpt lat="42.428116" lon="-5.230995">
        <ele>889.930</ele>
        <time>2018-06-15T09:53:26Z</time>
      </trkpt>
      <trkpt lat="42.428144" lon="-5.231055">
        <ele>889.550</ele>
        <time>2018-06-15T09:53:27Z</time>
      </trkpt>
      <trkpt lat="42.428175" lon="-5.231111">
        <ele>889.329</ele>
        <time>2018-06-15T09:53:28Z</time>
      </trkpt>
      <trkpt lat="42.428202" lon="-5.231166">
        <ele>889.200</ele>
        <time>2018-06-15T09:53:29Z</time>
      </trkpt>
      <trkpt lat="42.428232" lon="-5.231226">
        <ele>889.120</ele>
        <time>2018-06-15T09:53:30Z</time>
      </trkpt>
      <trkpt lat="42.428262" lon="-5.231289">
        <ele>889.008</ele>
        <time>2018-06-15T09:53:31Z</time>
      </trkpt>
      <trkpt lat="42.428293" lon="-5.231345">
        <ele>889.044</ele>
        <time>2018-06-15T09:53:32Z</time>
      </trkpt>
      <trkpt lat="42.428322" lon="-5.231405">
        <ele>889.027</ele>
        <time>2018-06-15T09:53:33Z</time>
      </trkpt>
      <trkpt lat="42.428352" lon="-5.231463">
        <ele>889.420</ele>
        <time>2018-06-15T09:53:34Z</time>
      </trkpt>
      <trkpt lat="42.428382" lon="-5.231522">
        <ele>889.624</ele>
        <time>2018-06-15T09:53:35Z</time>
      </trkpt>
      <trkpt lat="42.428407" lon="-5.231585">
        <ele>889.733</ele>
        <time>2018-06-15T09:53:36Z</time>
      </trkpt>
      <trkpt lat="42.428432" lon="-5.231643">
        <ele>889.863</ele>
        <time>2018-06-15T09:53:37Z</time>
      </trkpt>
      <trkpt lat="42.428459" lon="-5.231700">
        <ele>889.973</ele>
        <time>2018-06-15T09:53:38Z</time>
      </trkpt>
      <trkpt lat="42.428489" lon="-5.231760">
        <ele>889.973</ele>
        <time>2018-06-15T09:53:39Z</time>
      </trkpt>
      <trkpt lat="42.428519" lon="-5.231817">
        <ele>889.958</ele>
        <time>2018-06-15T09:53:40Z</time>
      </trkpt>
      <trkpt lat="42.428550" lon="-5.231877">
        <ele>889.952</ele>
        <time>2018-06-15T09:53:41Z</time>
      </trkpt>
      <trkpt lat="42.428576" lon="-5.231941">
        <ele>889.917</ele>
        <time>2018-06-15T09:53:42Z</time>
      </trkpt>
      <trkpt lat="42.428605" lon="-5.232003">
        <ele>890.308</ele>
        <time>2018-06-15T09:53:43Z</time>
      </trkpt>
      <trkpt lat="42.428633" lon="-5.232061">
        <ele>890.577</ele>
        <time>2018-06-15T09:53:44Z</time>
      </trkpt>
      <trkpt lat="42.428663" lon="-5.232118">
        <ele>890.680</ele>
        <time>2018-06-15T09:53:45Z</time>
      </trkpt>
      <trkpt lat="42.428693" lon="-5.232172">
        <ele>890.343</ele>
        <time>2018-06-15T09:53:46Z</time>
      </trkpt>
      <trkpt lat="42.428722" lon="-5.232225">
        <ele>890.187</ele>
        <time>2018-06-15T09:53:47Z</time>
      </trkpt>
      <trkpt lat="42.428750" lon="-5.232286">
        <ele>890.016</ele>
        <time>2018-06-15T09:53:48Z</time>
      </trkpt>
      <trkpt lat="42.428778" lon="-5.232348">
        <ele>889.966</ele>
        <time>2018-06-15T09:53:49Z</time>
      </trkpt>
      <trkpt lat="42.428807" lon="-5.232402">
        <ele>889.996</ele>
        <time>2018-06-15T09:53:50Z</time>
      </trkpt>
      <trkpt lat="42.428837" lon="-5.232461">
        <ele>889.916</ele>
        <time>2018-06-15T09:53:51Z</time>
      </trkpt>
      <trkpt lat="42.428864" lon="-5.232522">
        <ele>889.953</ele>
        <time>2018-06-15T09:53:52Z</time>
      </trkpt>
      <trkpt lat="42.428893" lon="-5.232578">
        <ele>889.904</ele>
        <time>2018-06-15T09:53:53Z</time>
      </trkpt>
      <trkpt lat="42.428916" lon="-5.232638">
        <ele>889.914</ele>
        <time>2018-06-15T09:53:54Z</time>
      </trkpt>
      <trkpt lat="42.428943" lon="-5.232696">
        <ele>889.908</ele>
        <time>2018-06-15T09:53:55Z</time>
      </trkpt>
      <trkpt lat="42.428969" lon="-5.232753">
        <ele>889.987</ele>
        <time>2018-06-15T09:53:56Z</time>
      </trkpt>
      <trkpt lat="42.428997" lon="-5.232814">
        <ele>889.960</ele>
        <time>2018-06-15T09:53:57Z</time>
      </trkpt>
      <trkpt lat="42.429026" lon="-5.232872">
        <ele>889.913</ele>
        <time>2018-06-15T09:53:58Z</time>
      </trkpt>
      <trkpt lat="42.429057" lon="-5.232935">
        <ele>889.977</ele>
        <time>2018-06-15T09:53:59Z</time>
      </trkpt>
      <trkpt lat="42.429084" lon="-5.232992">
        <ele>889.986</ele>
        <time>2018-06-15T09:54:00Z</time>
      </trkpt>
      <trkpt lat="42.429111" lon="-5.233055">
        <ele>889.986</ele>
        <time>2018-06-15T09:54:01Z</time>
      </trkpt>
      <trkpt lat="42.429141" lon="-5.233117">
        <ele>889.946</ele>
        <time>2018-06-15T09:54:02Z</time>
      </trkpt>
      <trkpt lat="42.429175" lon="-5.233169">
        <ele>889.956</ele>
        <time>2018-06-15T09:54:03Z</time>
      </trkpt>
      <trkpt lat="42.429203" lon="-5.233228">
        <ele>889.957</ele>
        <time>2018-06-15T09:54:04Z</time>
      </trkpt>
      <trkpt lat="42.429232" lon="-5.233291">
        <ele>889.900</ele>
        <time>2018-06-15T09:54:05Z</time>
      </trkpt>
      <trkpt lat="42.429260" lon="-5.233350">
        <ele>889.920</ele>
        <time>2018-06-15T09:54:06Z</time>
      </trkpt>
      <trkpt lat="42.429287" lon="-5.233417">
        <ele>889.908</ele>
        <time>2018-06-15T09:54:07Z</time>
      </trkpt>
      <trkpt lat="42.429314" lon="-5.233483">
        <ele>889.947</ele>
        <time>2018-06-15T09:54:08Z</time>
      </trkpt>
      <trkpt lat="42.429341" lon="-5.233552">
        <ele>889.910</ele>
        <time>2018-06-15T09:54:09Z</time>
      </trkpt>
      <trkpt lat="42.429372" lon="-5.233618">
        <ele>889.993</ele>
        <time>2018-06-15T09:54:10Z</time>
      </trkpt>
      <trkpt lat="42.429405" lon="-5.233681">
        <ele>889.917</ele>
        <time>2018-06-15T09:54:11Z</time>
      </trkpt>
      <trkpt lat="42.429437" lon="-5.233747">
        <ele>889.996</ele>
        <time>2018-06-15T09:54:12Z</time>
      </trkpt>
      <trkpt lat="42.429469" lon="-5.233816">
        <ele>889.986</ele>
        <time>2018-06-15T09:54:13Z</time>
      </trkpt>
      <trkpt lat="42.429504" lon="-5.233881">
        <ele>889.996</ele>
        <time>2018-06-15T09:54:14Z</time>
      </trkpt>
      <trkpt lat="42.429537" lon="-5.233944">
        <ele>890.396</ele>
        <time>2018-06-15T09:54:15Z</time>
      </trkpt>
      <trkpt lat="42.429572" lon="-5.234009">
        <ele>890.559</ele>
        <time>2018-06-15T09:54:16Z</time>
      </trkpt>
      <trkpt lat="42.429606" lon="-5.234076">
        <ele>890.603</ele>
        <time>2018-06-15T09:54:17Z</time>
      </trkpt>
      <trkpt lat="42.429640" lon="-5.234147">
        <ele>890.723</ele>
        <time>2018-06-15T09:54:18Z</time>
      </trkpt>
      <trkpt lat="42.429674" lon="-5.234217">
        <ele>890.808</ele>
        <time>2018-06-15T09:54:19Z</time>
      </trkpt>
      <trkpt lat="42.429712" lon="-5.234281">
        <ele>890.847</ele>
        <time>2018-06-15T09:54:20Z</time>
      </trkpt>
      <trkpt lat="42.429746" lon="-5.234346">
        <ele>890.820</ele>
        <time>2018-06-15T09:54:21Z</time>
      </trkpt>
      <trkpt lat="42.429775" lon="-5.234420">
        <ele>890.813</ele>
        <time>2018-06-15T09:54:22Z</time>
      </trkpt>
      <trkpt lat="42.429805" lon="-5.234490">
        <ele>890.867</ele>
        <time>2018-06-15T09:54:23Z</time>
      </trkpt>
      <trkpt lat="42.429836" lon="-5.234561">
        <ele>890.836</ele>
        <time>2018-06-15T09:54:24Z</time>
      </trkpt>
      <trkpt lat="42.429867" lon="-5.234632">
        <ele>890.816</ele>
        <time>2018-06-15T09:54:25Z</time>
      </trkpt>
      <trkpt lat="42.429901" lon="-5.234697">
        <ele>890.836</ele>
        <time>2018-06-15T09:54:26Z</time>
      </trkpt>
      <trkpt lat="42.429935" lon="-5.234769">
        <ele>890.836</ele>
        <time>2018-06-15T09:54:27Z</time>
      </trkpt>
      <trkpt lat="42.429971" lon="-5.234840">
        <ele>890.869</ele>
        <time>2018-06-15T09:54:28Z</time>
      </trkpt>
      <trkpt lat="42.430003" lon="-5.234909">
        <ele>890.404</ele>
        <time>2018-06-15T09:54:29Z</time>
      </trkpt>
      <trkpt lat="42.430036" lon="-5.234983">
        <ele>890.224</ele>
        <time>2018-06-15T09:54:30Z</time>
      </trkpt>
      <trkpt lat="42.430068" lon="-5.235052">
        <ele>890.108</ele>
        <time>2018-06-15T09:54:31Z</time>
      </trkpt>
      <trkpt lat="42.430101" lon="-5.235122">
        <ele>890.028</ele>
        <time>2018-06-15T09:54:32Z</time>
      </trkpt>
      <trkpt lat="42.430131" lon="-5.235192">
        <ele>889.951</ele>
        <time>2018-06-15T09:54:33Z</time>
      </trkpt>
      <trkpt lat="42.430167" lon="-5.235261">
        <ele>889.984</ele>
        <time>2018-06-15T09:54:34Z</time>
      </trkpt>
      <trkpt lat="42.430201" lon="-5.235329">
        <ele>889.928</ele>
        <time>2018-06-15T09:54:35Z</time>
      </trkpt>
      <trkpt lat="42.430235" lon="-5.235401">
        <ele>889.557</ele>
        <time>2018-06-15T09:54:36Z</time>
      </trkpt>
      <trkpt lat="42.430269" lon="-5.235469">
        <ele>889.337</ele>
        <time>2018-06-15T09:54:37Z</time>
      </trkpt>
      <trkpt lat="42.430303" lon="-5.235535">
        <ele>889.237</ele>
        <time>2018-06-15T09:54:38Z</time>
      </trkpt>
      <trkpt lat="42.430335" lon="-5.235596">
        <ele>889.117</ele>
        <time>2018-06-15T09:54:39Z</time>
      </trkpt>
      <trkpt lat="42.430363" lon="-5.235663">
        <ele>889.063</ele>
        <time>2018-06-15T09:54:40Z</time>
      </trkpt>
      <trkpt lat="42.430393" lon="-5.235724">
        <ele>889.044</ele>
        <time>2018-06-15T09:54:41Z</time>
      </trkpt>
      <trkpt lat="42.430418" lon="-5.235784">
        <ele>888.618</ele>
        <time>2018-06-15T09:54:42Z</time>
      </trkpt>
      <trkpt lat="42.430449" lon="-5.235841">
        <ele>888.308</ele>
        <time>2018-06-15T09:54:43Z</time>
      </trkpt>
      <trkpt lat="42.430475" lon="-5.235902">
        <ele>888.148</ele>
        <time>2018-06-15T09:54:44Z</time>
      </trkpt>
      <trkpt lat="42.430503" lon="-5.235957">
        <ele>888.051</ele>
        <time>2018-06-15T09:54:45Z</time>
      </trkpt>
      <trkpt lat="42.430534" lon="-5.236017">
        <ele>887.924</ele>
        <time>2018-06-15T09:54:46Z</time>
      </trkpt>
      <trkpt lat="42.430562" lon="-5.236079">
        <ele>887.948</ele>
        <time>2018-06-15T09:54:47Z</time>
      </trkpt>
      <trkpt lat="42.430591" lon="-5.236143">
        <ele>887.947</ele>
        <time>2018-06-15T09:54:48Z</time>
      </trkpt>
      <trkpt lat="42.430618" lon="-5.236201">
        <ele>887.957</ele>
        <time>2018-06-15T09:54:49Z</time>
      </trkpt>
      <trkpt lat="42.430646" lon="-5.236263">
        <ele>887.947</ele>
        <time>2018-06-15T09:54:50Z</time>
      </trkpt>
      <trkpt lat="42.430677" lon="-5.236327">
        <ele>887.987</ele>
        <time>2018-06-15T09:54:51Z</time>
      </trkpt>
      <trkpt lat="42.430707" lon="-5.236389">
        <ele>887.914</ele>
        <time>2018-06-15T09:54:52Z</time>
      </trkpt>
      <trkpt lat="42.430739" lon="-5.236452">
        <ele>887.954</ele>
        <time>2018-06-15T09:54:53Z</time>
      </trkpt>
      <trkpt lat="42.430768" lon="-5.236516">
        <ele>887.909</ele>
        <time>2018-06-15T09:54:54Z</time>
      </trkpt>
      <trkpt lat="42.430797" lon="-5.236583">
        <ele>887.908</ele>
        <time>2018-06-15T09:54:55Z</time>
      </trkpt>
      <trkpt lat="42.430828" lon="-5.236644">
        <ele>887.983</ele>
        <time>2018-06-15T09:54:56Z</time>
      </trkpt>
      <trkpt lat="42.430859" lon="-5.236706">
        <ele>887.996</ele>
        <time>2018-06-15T09:54:57Z</time>
      </trkpt>
      <trkpt lat="42.430890" lon="-5.236773">
        <ele>887.949</ele>
        <time>2018-06-15T09:54:58Z</time>
      </trkpt>
      <trkpt lat="42.430918" lon="-5.236841">
        <ele>887.933</ele>
        <time>2018-06-15T09:54:59Z</time>
      </trkpt>
      <trkpt lat="42.430948" lon="-5.236902">
        <ele>887.962</ele>
        <time>2018-06-15T09:55:00Z</time>
      </trkpt>
      <trkpt lat="42.430977" lon="-5.236966">
        <ele>887.912</ele>
        <time>2018-06-15T09:55:01Z</time>
      </trkpt>
      <trkpt lat="42.431004" lon="-5.237028">
        <ele>887.922</ele>
        <time>2018-06-15T09:55:02Z</time>
      </trkpt>
      <trkpt lat="42.431027" lon="-5.237093">
        <ele>887.962</ele>
        <time>2018-06-15T09:55:03Z</time>
      </trkpt>
      <trkpt lat="42.431052" lon="-5.237164">
        <ele>887.934</ele>
        <time>2018-06-15T09:55:04Z</time>
      </trkpt>
      <trkpt lat="42.431076" lon="-5.237231">
        <ele>887.555</ele>
        <time>2018-06-15T09:55:05Z</time>
      </trkpt>
      <trkpt lat="42.431103" lon="-5.237302">
        <ele>887.310</ele>
        <time>2018-06-15T09:55:06Z</time>
      </trkpt>
      <trkpt lat="42.431128" lon="-5.237371">
        <ele>887.208</ele>
        <time>2018-06-15T09:55:07Z</time>
      </trkpt>
      <trkpt lat="42.431153" lon="-5.237436">
        <ele>887.175</ele>
        <time>2018-06-15T09:55:08Z</time>
      </trkpt>
      <trkpt lat="42.431175" lon="-5.237505">
        <ele>887.088</ele>
        <time>2018-06-15T09:55:09Z</time>
      </trkpt>
      <trkpt lat="42.431198" lon="-5.237572">
        <ele>887.081</ele>
        <time>2018-06-15T09:55:10Z</time>
      </trkpt>
      <trkpt lat="42.431221" lon="-5.237638">
        <ele>887.035</ele>
        <time>2018-06-15T09:55:11Z</time>
      </trkpt>
      <trkpt lat="42.431244" lon="-5.237706">
        <ele>887.024</ele>
        <time>2018-06-15T09:55:12Z</time>
      </trkpt>
      <trkpt lat="42.431266" lon="-5.237771">
        <ele>887.024</ele>
        <time>2018-06-15T09:55:13Z</time>
      </trkpt>
      <trkpt lat="42.431291" lon="-5.237838">
        <ele>887.054</ele>
        <time>2018-06-15T09:55:14Z</time>
      </trkpt>
      <trkpt lat="42.431317" lon="-5.237904">
        <ele>887.074</ele>
        <time>2018-06-15T09:55:15Z</time>
      </trkpt>
      <trkpt lat="42.431340" lon="-5.237975">
        <ele>887.069</ele>
        <time>2018-06-15T09:55:16Z</time>
      </trkpt>
      <trkpt lat="42.431364" lon="-5.238041">
        <ele>887.404</ele>
        <time>2018-06-15T09:55:17Z</time>
      </trkpt>
      <trkpt lat="42.431390" lon="-5.238110">
        <ele>887.624</ele>
        <time>2018-06-15T09:55:18Z</time>
      </trkpt>
      <trkpt lat="42.431411" lon="-5.238177">
        <ele>887.308</ele>
        <time>2018-06-15T09:55:19Z</time>
      </trkpt>
      <trkpt lat="42.431434" lon="-5.238244">
        <ele>887.118</ele>
        <time>2018-06-15T09:55:20Z</time>
      </trkpt>
      <trkpt lat="42.431457" lon="-5.238312">
        <ele>887.421</ele>
        <time>2018-06-15T09:55:21Z</time>
      </trkpt>
      <trkpt lat="42.431479" lon="-5.238382">
        <ele>887.644</ele>
        <time>2018-06-15T09:55:22Z</time>
      </trkpt>
      <trkpt lat="42.431500" lon="-5.238450">
        <ele>887.768</ele>
        <time>2018-06-15T09:55:23Z</time>
      </trkpt>
      <trkpt lat="42.431523" lon="-5.238519">
        <ele>887.817</ele>
        <time>2018-06-15T09:55:24Z</time>
      </trkpt>
      <trkpt lat="42.431546" lon="-5.238587">
        <ele>887.887</ele>
        <time>2018-06-15T09:55:25Z</time>
      </trkpt>
      <trkpt lat="42.431571" lon="-5.238655">
        <ele>887.467</ele>
        <time>2018-06-15T09:55:26Z</time>
      </trkpt>
      <trkpt lat="42.431592" lon="-5.238729">
        <ele>887.247</ele>
        <time>2018-06-15T09:55:27Z</time>
      </trkpt>
      <trkpt lat="42.431617" lon="-5.238801">
        <ele>887.522</ele>
        <time>2018-06-15T09:55:28Z</time>
      </trkpt>
      <trkpt lat="42.431640" lon="-5.238869">
        <ele>887.362</ele>
        <time>2018-06-15T09:55:29Z</time>
      </trkpt>
      <trkpt lat="42.431663" lon="-5.238941">
        <ele>887.608</ele>
        <time>2018-06-15T09:55:30Z</time>
      </trkpt>
      <trkpt lat="42.431688" lon="-5.239011">
        <ele>887.808</ele>
        <time>2018-06-15T09:55:31Z</time>
      </trkpt>
      <trkpt lat="42.431713" lon="-5.239082">
        <ele>887.924</ele>
        <time>2018-06-15T09:55:32Z</time>
      </trkpt>
      <trkpt lat="42.431739" lon="-5.239154">
        <ele>888.097</ele>
        <time>2018-06-15T09:55:33Z</time>
      </trkpt>
      <trkpt lat="42.431764" lon="-5.239225">
        <ele>888.080</ele>
        <time>2018-06-15T09:55:34Z</time>
      </trkpt>
      <trkpt lat="42.431786" lon="-5.239299">
        <ele>888.034</ele>
        <time>2018-06-15T09:55:35Z</time>
      </trkpt>
      <trkpt lat="42.431811" lon="-5.239370">
        <ele>888.043</ele>
        <time>2018-06-15T09:55:36Z</time>
      </trkpt>
      <trkpt lat="42.431834" lon="-5.239442">
        <ele>888.043</ele>
        <time>2018-06-15T09:55:37Z</time>
      </trkpt>
      <trkpt lat="42.431859" lon="-5.239513">
        <ele>887.683</ele>
        <time>2018-06-15T09:55:38Z</time>
      </trkpt>
      <trkpt lat="42.431886" lon="-5.239585">
        <ele>887.473</ele>
        <time>2018-06-15T09:55:39Z</time>
      </trkpt>
      <trkpt lat="42.431910" lon="-5.239657">
        <ele>887.336</ele>
        <time>2018-06-15T09:55:40Z</time>
      </trkpt>
      <trkpt lat="42.431932" lon="-5.239732">
        <ele>887.217</ele>
        <time>2018-06-15T09:55:41Z</time>
      </trkpt>
      <trkpt lat="42.431957" lon="-5.239805">
        <ele>887.118</ele>
        <time>2018-06-15T09:55:42Z</time>
      </trkpt>
      <trkpt lat="42.431982" lon="-5.239881">
        <ele>886.708</ele>
        <time>2018-06-15T09:55:43Z</time>
      </trkpt>
      <trkpt lat="42.432006" lon="-5.239960">
        <ele>886.855</ele>
        <time>2018-06-15T09:55:44Z</time>
      </trkpt>
      <trkpt lat="42.432031" lon="-5.240035">
        <ele>886.538</ele>
        <time>2018-06-15T09:55:45Z</time>
      </trkpt>
      <trkpt lat="42.432054" lon="-5.240111">
        <ele>886.321</ele>
        <time>2018-06-15T09:55:46Z</time>
      </trkpt>
      <trkpt lat="42.432079" lon="-5.240184">
        <ele>886.235</ele>
        <time>2018-06-15T09:55:47Z</time>
      </trkpt>
      <trkpt lat="42.432104" lon="-5.240261">
        <ele>886.184</ele>
        <time>2018-06-15T09:55:48Z</time>
      </trkpt>
      <trkpt lat="42.432130" lon="-5.240335">
        <ele>886.144</ele>
        <time>2018-06-15T09:55:49Z</time>
      </trkpt>
      <trkpt lat="42.432154" lon="-5.240412">
        <ele>886.184</ele>
        <time>2018-06-15T09:55:50Z</time>
      </trkpt>
      <trkpt lat="42.432180" lon="-5.240486">
        <ele>886.114</ele>
        <time>2018-06-15T09:55:51Z</time>
      </trkpt>
      <trkpt lat="42.432203" lon="-5.240561">
        <ele>886.199</ele>
        <time>2018-06-15T09:55:52Z</time>
      </trkpt>
      <trkpt lat="42.432231" lon="-5.240635">
        <ele>886.107</ele>
        <time>2018-06-15T09:55:53Z</time>
      </trkpt>
      <trkpt lat="42.432254" lon="-5.240708">
        <ele>886.127</ele>
        <time>2018-06-15T09:55:54Z</time>
      </trkpt>
      <trkpt lat="42.432276" lon="-5.240782">
        <ele>886.108</ele>
        <time>2018-06-15T09:55:55Z</time>
      </trkpt>
      <trkpt lat="42.432301" lon="-5.240855">
        <ele>886.141</ele>
        <time>2018-06-15T09:55:56Z</time>
      </trkpt>
      <trkpt lat="42.432324" lon="-5.240928">
        <ele>886.194</ele>
        <time>2018-06-15T09:55:57Z</time>
      </trkpt>
      <trkpt lat="42.432348" lon="-5.241001">
        <ele>886.187</ele>
        <time>2018-06-15T09:55:58Z</time>
      </trkpt>
      <trkpt lat="42.432373" lon="-5.241075">
        <ele>885.731</ele>
        <time>2018-06-15T09:55:59Z</time>
      </trkpt>
      <trkpt lat="42.432400" lon="-5.241151">
        <ele>885.990</ele>
        <time>2018-06-15T09:56:00Z</time>
      </trkpt>
      <trkpt lat="42.432424" lon="-5.241223">
        <ele>885.650</ele>
        <time>2018-06-15T09:56:01Z</time>
      </trkpt>
      <trkpt lat="42.432445" lon="-5.241300">
        <ele>885.420</ele>
        <time>2018-06-15T09:56:02Z</time>
      </trkpt>
      <trkpt lat="42.432470" lon="-5.241373">
        <ele>885.380</ele>
        <time>2018-06-15T09:56:03Z</time>
      </trkpt>
      <trkpt lat="42.432496" lon="-5.241450">
        <ele>885.275</ele>
        <time>2018-06-15T09:56:04Z</time>
      </trkpt>
      <trkpt lat="42.432523" lon="-5.241522">
        <ele>885.228</ele>
        <time>2018-06-15T09:56:05Z</time>
      </trkpt>
      <trkpt lat="42.432548" lon="-5.241599">
        <ele>885.220</ele>
        <time>2018-06-15T09:56:06Z</time>
      </trkpt>
      <trkpt lat="42.432572" lon="-5.241676">
        <ele>885.208</ele>
        <time>2018-06-15T09:56:07Z</time>
      </trkpt>
      <trkpt lat="42.432597" lon="-5.241752">
        <ele>885.249</ele>
        <time>2018-06-15T09:56:08Z</time>
      </trkpt>
      <trkpt lat="42.432623" lon="-5.241827">
        <ele>885.262</ele>
        <time>2018-06-15T09:56:09Z</time>
      </trkpt>
      <trkpt lat="42.432647" lon="-5.241906">
        <ele>885.285</ele>
        <time>2018-06-15T09:56:10Z</time>
      </trkpt>
      <trkpt lat="42.432673" lon="-5.241980">
        <ele>885.289</ele>
        <time>2018-06-15T09:56:11Z</time>
      </trkpt>
      <trkpt lat="42.432697" lon="-5.242056">
        <ele>885.248</ele>
        <time>2018-06-15T09:56:12Z</time>
      </trkpt>
      <trkpt lat="42.432723" lon="-5.242136">
        <ele>885.298</ele>
        <time>2018-06-15T09:56:13Z</time>
      </trkpt>
      <trkpt lat="42.432748" lon="-5.242214">
        <ele>884.848</ele>
        <time>2018-06-15T09:56:14Z</time>
      </trkpt>
      <trkpt lat="42.432775" lon="-5.242290">
        <ele>885.048</ele>
        <time>2018-06-15T09:56:15Z</time>
      </trkpt>
      <trkpt lat="42.432802" lon="-5.242367">
        <ele>884.738</ele>
        <time>2018-06-15T09:56:16Z</time>
      </trkpt>
      <trkpt lat="42.432829" lon="-5.242443">
        <ele>884.570</ele>
        <time>2018-06-15T09:56:17Z</time>
      </trkpt>
      <trkpt lat="42.432852" lon="-5.242520">
        <ele>884.417</ele>
        <time>2018-06-15T09:56:18Z</time>
      </trkpt>
      <trkpt lat="42.432877" lon="-5.242600">
        <ele>884.308</ele>
        <time>2018-06-15T09:56:19Z</time>
      </trkpt>
      <trkpt lat="42.432903" lon="-5.242675">
        <ele>884.345</ele>
        <time>2018-06-15T09:56:20Z</time>
      </trkpt>
      <trkpt lat="42.432929" lon="-5.242756">
        <ele>883.948</ele>
        <time>2018-06-15T09:56:21Z</time>
      </trkpt>
      <trkpt lat="42.432957" lon="-5.242836">
        <ele>883.661</ele>
        <time>2018-06-15T09:56:22Z</time>
      </trkpt>
      <trkpt lat="42.432982" lon="-5.242923">
        <ele>883.475</ele>
        <time>2018-06-15T09:56:23Z</time>
      </trkpt>
      <trkpt lat="42.433010" lon="-5.243008">
        <ele>882.924</ele>
        <time>2018-06-15T09:56:24Z</time>
      </trkpt>
      <trkpt lat="42.433038" lon="-5.243093">
        <ele>882.634</ele>
        <time>2018-06-15T09:56:25Z</time>
      </trkpt>
      <trkpt lat="42.433066" lon="-5.243182">
        <ele>882.484</ele>
        <time>2018-06-15T09:56:26Z</time>
      </trkpt>
      <trkpt lat="42.433092" lon="-5.243268">
        <ele>881.934</ele>
        <time>2018-06-15T09:56:27Z</time>
      </trkpt>
      <trkpt lat="42.433120" lon="-5.243356">
        <ele>881.665</ele>
        <time>2018-06-15T09:56:28Z</time>
      </trkpt>
      <trkpt lat="42.433151" lon="-5.243444">
        <ele>881.468</ele>
        <time>2018-06-15T09:56:29Z</time>
      </trkpt>
      <trkpt lat="42.433183" lon="-5.243532">
        <ele>880.914</ele>
        <time>2018-06-15T09:56:30Z</time>
      </trkpt>
      <trkpt lat="42.433213" lon="-5.243624">
        <ele>880.608</ele>
        <time>2018-06-15T09:56:31Z</time>
      </trkpt>
      <trkpt lat="42.433246" lon="-5.243715">
        <ele>880.098</ele>
        <time>2018-06-15T09:56:32Z</time>
      </trkpt>
      <trkpt lat="42.433276" lon="-5.243807">
        <ele>880.021</ele>
        <time>2018-06-15T09:56:33Z</time>
      </trkpt>
      <trkpt lat="42.433307" lon="-5.243896">
        <ele>879.614</ele>
        <time>2018-06-15T09:56:34Z</time>
      </trkpt>
      <trkpt lat="42.433340" lon="-5.243991">
        <ele>879.488</ele>
        <time>2018-06-15T09:56:35Z</time>
      </trkpt>
      <trkpt lat="42.433370" lon="-5.244084">
        <ele>879.337</ele>
        <time>2018-06-15T09:56:36Z</time>
      </trkpt>
      <trkpt lat="42.433397" lon="-5.244171">
        <ele>879.217</ele>
        <time>2018-06-15T09:56:37Z</time>
      </trkpt>
      <trkpt lat="42.433421" lon="-5.244258">
        <ele>879.297</ele>
        <time>2018-06-15T09:56:38Z</time>
      </trkpt>
      <trkpt lat="42.433452" lon="-5.244345">
        <ele>879.227</ele>
        <time>2018-06-15T09:56:39Z</time>
      </trkpt>
      <trkpt lat="42.433480" lon="-5.244425">
        <ele>878.859</ele>
        <time>2018-06-15T09:56:40Z</time>
      </trkpt>
      <trkpt lat="42.433509" lon="-5.244511">
        <ele>878.503</ele>
        <time>2018-06-15T09:56:41Z</time>
      </trkpt>
      <trkpt lat="42.433541" lon="-5.244601">
        <ele>878.323</ele>
        <time>2018-06-15T09:56:42Z</time>
      </trkpt>
      <trkpt lat="42.433571" lon="-5.244687">
        <ele>878.208</ele>
        <time>2018-06-15T09:56:43Z</time>
      </trkpt>
      <trkpt lat="42.433601" lon="-5.244773">
        <ele>878.117</ele>
        <time>2018-06-15T09:56:44Z</time>
      </trkpt>
      <trkpt lat="42.433631" lon="-5.244854">
        <ele>878.120</ele>
        <time>2018-06-15T09:56:45Z</time>
      </trkpt>
      <trkpt lat="42.433662" lon="-5.244929">
        <ele>878.153</ele>
        <time>2018-06-15T09:56:46Z</time>
      </trkpt>
      <trkpt lat="42.433692" lon="-5.245008">
        <ele>878.137</ele>
        <time>2018-06-15T09:56:47Z</time>
      </trkpt>
      <trkpt lat="42.433727" lon="-5.245082">
        <ele>878.196</ele>
        <time>2018-06-15T09:56:48Z</time>
      </trkpt>
      <trkpt lat="42.433759" lon="-5.245152">
        <ele>878.136</ele>
        <time>2018-06-15T09:56:49Z</time>
      </trkpt>
      <trkpt lat="42.433795" lon="-5.245217">
        <ele>878.116</ele>
        <time>2018-06-15T09:56:50Z</time>
      </trkpt>
      <trkpt lat="42.433831" lon="-5.245278">
        <ele>878.526</ele>
        <time>2018-06-15T09:56:51Z</time>
      </trkpt>
      <trkpt lat="42.433864" lon="-5.245340">
        <ele>878.715</ele>
        <time>2018-06-15T09:56:52Z</time>
      </trkpt>
      <trkpt lat="42.433898" lon="-5.245397">
        <ele>879.265</ele>
        <time>2018-06-15T09:56:53Z</time>
      </trkpt>
      <trkpt lat="42.433933" lon="-5.245452">
        <ele>879.511</ele>
        <time>2018-06-15T09:56:54Z</time>
      </trkpt>
      <trkpt lat="42.433964" lon="-5.245512">
        <ele>879.708</ele>
        <time>2018-06-15T09:56:55Z</time>
      </trkpt>
      <trkpt lat="42.433999" lon="-5.245568">
        <ele>879.823</ele>
        <time>2018-06-15T09:56:56Z</time>
      </trkpt>
      <trkpt lat="42.434031" lon="-5.245624">
        <ele>879.976</ele>
        <time>2018-06-15T09:56:57Z</time>
      </trkpt>
      <trkpt lat="42.434066" lon="-5.245670">
        <ele>879.999</ele>
        <time>2018-06-15T09:56:58Z</time>
      </trkpt>
      <trkpt lat="42.434100" lon="-5.245725">
        <ele>879.973</ele>
        <time>2018-06-15T09:56:59Z</time>
      </trkpt>
      <trkpt lat="42.434132" lon="-5.245784">
        <ele>880.352</ele>
        <time>2018-06-15T09:57:00Z</time>
      </trkpt>
      <trkpt lat="42.434163" lon="-5.245838">
        <ele>880.562</ele>
        <time>2018-06-15T09:57:01Z</time>
      </trkpt>
      <trkpt lat="42.434194" lon="-5.245896">
        <ele>880.682</ele>
        <time>2018-06-15T09:57:02Z</time>
      </trkpt>
      <trkpt lat="42.434228" lon="-5.245951">
        <ele>881.142</ele>
        <time>2018-06-15T09:57:03Z</time>
      </trkpt>
      <trkpt lat="42.434258" lon="-5.246006">
        <ele>881.479</ele>
        <time>2018-06-15T09:57:04Z</time>
      </trkpt>
      <trkpt lat="42.434290" lon="-5.246060">
        <ele>881.605</ele>
        <time>2018-06-15T09:57:05Z</time>
      </trkpt>
      <trkpt lat="42.434322" lon="-5.246115">
        <ele>881.725</ele>
        <time>2018-06-15T09:57:06Z</time>
      </trkpt>
      <trkpt lat="42.434353" lon="-5.246167">
        <ele>881.808</ele>
        <time>2018-06-15T09:57:07Z</time>
      </trkpt>
      <trkpt lat="42.434384" lon="-5.246219">
        <ele>881.859</ele>
        <time>2018-06-15T09:57:08Z</time>
      </trkpt>
      <trkpt lat="42.434414" lon="-5.246269">
        <ele>881.842</ele>
        <time>2018-06-15T09:57:09Z</time>
      </trkpt>
      <trkpt lat="42.434445" lon="-5.246320">
        <ele>882.235</ele>
        <time>2018-06-15T09:57:10Z</time>
      </trkpt>
      <trkpt lat="42.434477" lon="-5.246373">
        <ele>882.479</ele>
        <time>2018-06-15T09:57:11Z</time>
      </trkpt>
      <trkpt lat="42.434508" lon="-5.246424">
        <ele>882.598</ele>
        <time>2018-06-15T09:57:12Z</time>
      </trkpt>
      <trkpt lat="42.434539" lon="-5.246476">
        <ele>882.648</ele>
        <time>2018-06-15T09:57:13Z</time>
      </trkpt>
      <trkpt lat="42.434570" lon="-5.246526">
        <ele>882.728</ele>
        <time>2018-06-15T09:57:14Z</time>
      </trkpt>
      <trkpt lat="42.434601" lon="-5.246580">
        <ele>883.198</ele>
        <time>2018-06-15T09:57:15Z</time>
      </trkpt>
      <trkpt lat="42.434632" lon="-5.246631">
        <ele>883.497</ele>
        <time>2018-06-15T09:57:16Z</time>
      </trkpt>
      <trkpt lat="42.434661" lon="-5.246682">
        <ele>883.623</ele>
        <time>2018-06-15T09:57:17Z</time>
      </trkpt>
      <trkpt lat="42.434689" lon="-5.246729">
        <ele>883.725</ele>
        <time>2018-06-15T09:57:18Z</time>
      </trkpt>
      <trkpt lat="42.434716" lon="-5.246782">
        <ele>883.808</ele>
        <time>2018-06-15T09:57:19Z</time>
      </trkpt>
      <trkpt lat="42.434746" lon="-5.246829">
        <ele>883.811</ele>
        <time>2018-06-15T09:57:20Z</time>
      </trkpt>
      <trkpt lat="42.434778" lon="-5.246881">
        <ele>883.814</ele>
        <time>2018-06-15T09:57:21Z</time>
      </trkpt>
      <trkpt lat="42.434809" lon="-5.246934">
        <ele>883.837</ele>
        <time>2018-06-15T09:57:22Z</time>
      </trkpt>
      <trkpt lat="42.434842" lon="-5.246985">
        <ele>883.831</ele>
        <time>2018-06-15T09:57:23Z</time>
      </trkpt>
      <trkpt lat="42.434876" lon="-5.247036">
        <ele>883.890</ele>
        <time>2018-06-15T09:57:24Z</time>
      </trkpt>
      <trkpt lat="42.434906" lon="-5.247088">
        <ele>883.820</ele>
        <time>2018-06-15T09:57:25Z</time>
      </trkpt>
      <trkpt lat="42.434938" lon="-5.247139">
        <ele>883.450</ele>
        <time>2018-06-15T09:57:26Z</time>
      </trkpt>
      <trkpt lat="42.434969" lon="-5.247189">
        <ele>883.220</ele>
        <time>2018-06-15T09:57:27Z</time>
      </trkpt>
      <trkpt lat="42.435001" lon="-5.247239">
        <ele>883.195</ele>
        <time>2018-06-15T09:57:28Z</time>
      </trkpt>
      <trkpt lat="42.435030" lon="-5.247288">
        <ele>883.049</ele>
        <time>2018-06-15T09:57:29Z</time>
      </trkpt>
      <trkpt lat="42.435060" lon="-5.247336">
        <ele>882.923</ele>
        <time>2018-06-15T09:57:30Z</time>
      </trkpt>
      <trkpt lat="42.435091" lon="-5.247384">
        <ele>882.908</ele>
        <time>2018-06-15T09:57:31Z</time>
      </trkpt>
      <trkpt lat="42.435119" lon="-5.247437">
        <ele>882.961</ele>
        <time>2018-06-15T09:57:32Z</time>
      </trkpt>
      <trkpt lat="42.435147" lon="-5.247492">
        <ele>882.954</ele>
        <time>2018-06-15T09:57:33Z</time>
      </trkpt>
      <trkpt lat="42.435179" lon="-5.247549">
        <ele>882.957</ele>
        <time>2018-06-15T09:57:34Z</time>
      </trkpt>
      <trkpt lat="42.435212" lon="-5.247601">
        <ele>882.991</ele>
        <time>2018-06-15T09:57:35Z</time>
      </trkpt>
      <trkpt lat="42.435243" lon="-5.247654">
        <ele>882.970</ele>
        <time>2018-06-15T09:57:36Z</time>
      </trkpt>
      <trkpt lat="42.435275" lon="-5.247709">
        <ele>882.920</ele>
        <time>2018-06-15T09:57:37Z</time>
      </trkpt>
      <trkpt lat="42.435304" lon="-5.247766">
        <ele>882.930</ele>
        <time>2018-06-15T09:57:38Z</time>
      </trkpt>
      <trkpt lat="42.435335" lon="-5.247823">
        <ele>882.910</ele>
        <time>2018-06-15T09:57:39Z</time>
      </trkpt>
      <trkpt lat="42.435370" lon="-5.247874">
        <ele>882.928</ele>
        <time>2018-06-15T09:57:40Z</time>
      </trkpt>
      <trkpt lat="42.435401" lon="-5.247931">
        <ele>882.589</ele>
        <time>2018-06-15T09:57:41Z</time>
      </trkpt>
      <trkpt lat="42.435430" lon="-5.247988">
        <ele>882.317</ele>
        <time>2018-06-15T09:57:42Z</time>
      </trkpt>
      <trkpt lat="42.435464" lon="-5.248043">
        <ele>882.208</ele>
        <time>2018-06-15T09:57:43Z</time>
      </trkpt>
      <trkpt lat="42.435496" lon="-5.248098">
        <ele>882.114</ele>
        <time>2018-06-15T09:57:44Z</time>
      </trkpt>
      <trkpt lat="42.435526" lon="-5.248158">
        <ele>882.077</ele>
        <time>2018-06-15T09:57:45Z</time>
      </trkpt>
      <trkpt lat="42.435558" lon="-5.248221">
        <ele>882.080</ele>
        <time>2018-06-15T09:57:46Z</time>
      </trkpt>
      <trkpt lat="42.435593" lon="-5.248278">
        <ele>882.094</ele>
        <time>2018-06-15T09:57:47Z</time>
      </trkpt>
      <trkpt lat="42.435627" lon="-5.248333">
        <ele>882.013</ele>
        <time>2018-06-15T09:57:48Z</time>
      </trkpt>
      <trkpt lat="42.435664" lon="-5.248394">
        <ele>882.083</ele>
        <time>2018-06-15T09:57:49Z</time>
      </trkpt>
      <trkpt lat="42.435697" lon="-5.248452">
        <ele>882.053</ele>
        <time>2018-06-15T09:57:50Z</time>
      </trkpt>
      <trkpt lat="42.435731" lon="-5.248507">
        <ele>882.083</ele>
        <time>2018-06-15T09:57:51Z</time>
      </trkpt>
      <trkpt lat="42.435766" lon="-5.248562">
        <ele>882.058</ele>
        <time>2018-06-15T09:57:52Z</time>
      </trkpt>
      <trkpt lat="42.435797" lon="-5.248617">
        <ele>882.052</ele>
        <time>2018-06-15T09:57:53Z</time>
      </trkpt>
      <trkpt lat="42.435830" lon="-5.248671">
        <ele>882.017</ele>
        <time>2018-06-15T09:57:54Z</time>
      </trkpt>
      <trkpt lat="42.435861" lon="-5.248728">
        <ele>882.008</ele>
        <time>2018-06-15T09:57:55Z</time>
      </trkpt>
      <trkpt lat="42.435895" lon="-5.248782">
        <ele>882.077</ele>
        <time>2018-06-15T09:57:56Z</time>
      </trkpt>
      <trkpt lat="42.435929" lon="-5.248834">
        <ele>882.040</ele>
        <time>2018-06-15T09:57:57Z</time>
      </trkpt>
      <trkpt lat="42.435962" lon="-5.248887">
        <ele>882.063</ele>
        <time>2018-06-15T09:57:58Z</time>
      </trkpt>
      <trkpt lat="42.435991" lon="-5.248942">
        <ele>882.487</ele>
        <time>2018-06-15T09:57:59Z</time>
      </trkpt>
      <trkpt lat="42.436019" lon="-5.248993">
        <ele>882.666</ele>
        <time>2018-06-15T09:58:00Z</time>
      </trkpt>
      <trkpt lat="42.436051" lon="-5.249046">
        <ele>882.796</ele>
        <time>2018-06-15T09:58:01Z</time>
      </trkpt>
      <trkpt lat="42.436080" lon="-5.249095">
        <ele>882.886</ele>
        <time>2018-06-15T09:58:02Z</time>
      </trkpt>
      <trkpt lat="42.436109" lon="-5.249144">
        <ele>882.936</ele>
        <time>2018-06-15T09:58:03Z</time>
      </trkpt>
      <trkpt lat="42.436135" lon="-5.249194">
        <ele>882.996</ele>
        <time>2018-06-15T09:58:04Z</time>
      </trkpt>
      <trkpt lat="42.436165" lon="-5.249246">
        <ele>883.331</ele>
        <time>2018-06-15T09:58:05Z</time>
      </trkpt>
      <trkpt lat="42.436195" lon="-5.249294">
        <ele>883.624</ele>
        <time>2018-06-15T09:58:06Z</time>
      </trkpt>
      <trkpt lat="42.436249" lon="-5.249387">
        <ele>883.808</ele>
        <time>2018-06-15T09:58:08Z</time>
      </trkpt>
      <trkpt lat="42.436308" lon="-5.249478">
        <ele>883.931</ele>
        <time>2018-06-15T09:58:10Z</time>
      </trkpt>
      <trkpt lat="42.436360" lon="-5.249575">
        <ele>884.054</ele>
        <time>2018-06-15T09:58:12Z</time>
      </trkpt>
      <trkpt lat="42.436414" lon="-5.249675">
        <ele>884.047</ele>
        <time>2018-06-15T09:58:14Z</time>
      </trkpt>
      <trkpt lat="42.436469" lon="-5.249770">
        <ele>884.041</ele>
        <time>2018-06-15T09:58:16Z</time>
      </trkpt>
      <trkpt lat="42.436527" lon="-5.249864">
        <ele>884.020</ele>
        <time>2018-06-15T09:58:18Z</time>
      </trkpt>
      <trkpt lat="42.436557" lon="-5.249913">
        <ele>884.020</ele>
        <time>2018-06-15T09:58:19Z</time>
      </trkpt>
      <trkpt lat="42.436588" lon="-5.249963">
        <ele>884.090</ele>
        <time>2018-06-15T09:58:20Z</time>
      </trkpt>
      <trkpt lat="42.436617" lon="-5.250010">
        <ele>884.060</ele>
        <time>2018-06-15T09:58:21Z</time>
      </trkpt>
      <trkpt lat="42.436675" lon="-5.250105">
        <ele>884.012</ele>
        <time>2018-06-15T09:58:23Z</time>
      </trkpt>
      <trkpt lat="42.436702" lon="-5.250154">
        <ele>884.032</ele>
        <time>2018-06-15T09:58:24Z</time>
      </trkpt>
      <trkpt lat="42.436760" lon="-5.250250">
        <ele>884.005</ele>
        <time>2018-06-15T09:58:26Z</time>
      </trkpt>
      <trkpt lat="42.436789" lon="-5.250300">
        <ele>884.008</ele>
        <time>2018-06-15T09:58:27Z</time>
      </trkpt>
      <trkpt lat="42.436817" lon="-5.250349">
        <ele>884.093</ele>
        <time>2018-06-15T09:58:28Z</time>
      </trkpt>
      <trkpt lat="42.436875" lon="-5.250443">
        <ele>884.036</ele>
        <time>2018-06-15T09:58:30Z</time>
      </trkpt>
      <trkpt lat="42.436929" lon="-5.250539">
        <ele>884.079</ele>
        <time>2018-06-15T09:58:32Z</time>
      </trkpt>
      <trkpt lat="42.436958" lon="-5.250586">
        <ele>884.023</ele>
        <time>2018-06-15T09:58:33Z</time>
      </trkpt>
      <trkpt lat="42.436987" lon="-5.250634">
        <ele>884.022</ele>
        <time>2018-06-15T09:58:34Z</time>
      </trkpt>
      <trkpt lat="42.437018" lon="-5.250681">
        <ele>884.082</ele>
        <time>2018-06-15T09:58:35Z</time>
      </trkpt>
      <trkpt lat="42.437047" lon="-5.250730">
        <ele>883.682</ele>
        <time>2018-06-15T09:58:36Z</time>
      </trkpt>
      <trkpt lat="42.437073" lon="-5.250780">
        <ele>883.872</ele>
        <time>2018-06-15T09:58:37Z</time>
      </trkpt>
      <trkpt lat="42.437128" lon="-5.250873">
        <ele>883.971</ele>
        <time>2018-06-15T09:58:39Z</time>
      </trkpt>
      <trkpt lat="42.437157" lon="-5.250922">
        <ele>884.041</ele>
        <time>2018-06-15T09:58:40Z</time>
      </trkpt>
      <trkpt lat="42.437186" lon="-5.250969">
        <ele>884.015</ele>
        <time>2018-06-15T09:58:41Z</time>
      </trkpt>
      <trkpt lat="42.437243" lon="-5.251067">
        <ele>884.008</ele>
        <time>2018-06-15T09:58:43Z</time>
      </trkpt>
      <trkpt lat="42.437273" lon="-5.251115">
        <ele>884.039</ele>
        <time>2018-06-15T09:58:44Z</time>
      </trkpt>
      <trkpt lat="42.437329" lon="-5.251210">
        <ele>883.632</ele>
        <time>2018-06-15T09:58:46Z</time>
      </trkpt>
      <trkpt lat="42.437382" lon="-5.251302">
        <ele>883.465</ele>
        <time>2018-06-15T09:58:48Z</time>
      </trkpt>
      <trkpt lat="42.437434" lon="-5.251401">
        <ele>883.769</ele>
        <time>2018-06-15T09:58:50Z</time>
      </trkpt>
      <trkpt lat="42.437461" lon="-5.251451">
        <ele>883.998</ele>
        <time>2018-06-15T09:58:51Z</time>
      </trkpt>
      <trkpt lat="42.437522" lon="-5.251541">
        <ele>883.618</ele>
        <time>2018-06-15T09:58:53Z</time>
      </trkpt>
      <trkpt lat="42.437578" lon="-5.251639">
        <ele>883.498</ele>
        <time>2018-06-15T09:58:55Z</time>
      </trkpt>
      <trkpt lat="42.437608" lon="-5.251690">
        <ele>883.388</ele>
        <time>2018-06-15T09:58:56Z</time>
      </trkpt>
      <trkpt lat="42.437635" lon="-5.251741">
        <ele>883.298</ele>
        <time>2018-06-15T09:58:57Z</time>
      </trkpt>
      <trkpt lat="42.437663" lon="-5.251794">
        <ele>883.215</ele>
        <time>2018-06-15T09:58:58Z</time>
      </trkpt>
      <trkpt lat="42.437690" lon="-5.251844">
        <ele>883.226</ele>
        <time>2018-06-15T09:58:59Z</time>
      </trkpt>
      <trkpt lat="42.437719" lon="-5.251895">
        <ele>883.608</ele>
        <time>2018-06-15T09:59:00Z</time>
      </trkpt>
      <trkpt lat="42.437748" lon="-5.251946">
        <ele>883.811</ele>
        <time>2018-06-15T09:59:01Z</time>
      </trkpt>
      <trkpt lat="42.437776" lon="-5.251997">
        <ele>883.954</ele>
        <time>2018-06-15T09:59:02Z</time>
      </trkpt>
      <trkpt lat="42.437804" lon="-5.252048">
        <ele>884.077</ele>
        <time>2018-06-15T09:59:03Z</time>
      </trkpt>
      <trkpt lat="42.437833" lon="-5.252098">
        <ele>884.021</ele>
        <time>2018-06-15T09:59:04Z</time>
      </trkpt>
      <trkpt lat="42.437863" lon="-5.252150">
        <ele>884.070</ele>
        <time>2018-06-15T09:59:05Z</time>
      </trkpt>
      <trkpt lat="42.437893" lon="-5.252199">
        <ele>884.090</ele>
        <time>2018-06-15T09:59:06Z</time>
      </trkpt>
      <trkpt lat="42.437926" lon="-5.252248">
        <ele>884.050</ele>
        <time>2018-06-15T09:59:07Z</time>
      </trkpt>
      <trkpt lat="42.437956" lon="-5.252295">
        <ele>884.040</ele>
        <time>2018-06-15T09:59:08Z</time>
      </trkpt>
      <trkpt lat="42.437989" lon="-5.252343">
        <ele>884.049</ele>
        <time>2018-06-15T09:59:09Z</time>
      </trkpt>
      <trkpt lat="42.438018" lon="-5.252390">
        <ele>884.002</ele>
        <time>2018-06-15T09:59:10Z</time>
      </trkpt>
      <trkpt lat="42.438048" lon="-5.252438">
        <ele>884.022</ele>
        <time>2018-06-15T09:59:11Z</time>
      </trkpt>
      <trkpt lat="42.438076" lon="-5.252488">
        <ele>884.008</ele>
        <time>2018-06-15T09:59:12Z</time>
      </trkpt>
      <trkpt lat="42.438130" lon="-5.252585">
        <ele>884.076</ele>
        <time>2018-06-15T09:59:14Z</time>
      </trkpt>
      <trkpt lat="42.438184" lon="-5.252684">
        <ele>884.049</ele>
        <time>2018-06-15T09:59:16Z</time>
      </trkpt>
      <trkpt lat="42.438212" lon="-5.252736">
        <ele>884.022</ele>
        <time>2018-06-15T09:59:17Z</time>
      </trkpt>
      <trkpt lat="42.438243" lon="-5.252787">
        <ele>884.026</ele>
        <time>2018-06-15T09:59:18Z</time>
      </trkpt>
      <trkpt lat="42.438276" lon="-5.252836">
        <ele>884.035</ele>
        <time>2018-06-15T09:59:19Z</time>
      </trkpt>
      <trkpt lat="42.438305" lon="-5.252888">
        <ele>884.465</ele>
        <time>2018-06-15T09:59:20Z</time>
      </trkpt>
      <trkpt lat="42.438333" lon="-5.252937">
        <ele>884.685</ele>
        <time>2018-06-15T09:59:21Z</time>
      </trkpt>
      <trkpt lat="42.438364" lon="-5.252988">
        <ele>884.715</ele>
        <time>2018-06-15T09:59:22Z</time>
      </trkpt>
      <trkpt lat="42.438393" lon="-5.253039">
        <ele>884.895</ele>
        <time>2018-06-15T09:59:23Z</time>
      </trkpt>
      <trkpt lat="42.438422" lon="-5.253088">
        <ele>884.949</ele>
        <time>2018-06-15T09:59:24Z</time>
      </trkpt>
      <trkpt lat="42.438453" lon="-5.253139">
        <ele>884.923</ele>
        <time>2018-06-15T09:59:25Z</time>
      </trkpt>
      <trkpt lat="42.438480" lon="-5.253190">
        <ele>884.908</ele>
        <time>2018-06-15T09:59:26Z</time>
      </trkpt>
      <trkpt lat="42.438509" lon="-5.253238">
        <ele>884.961</ele>
        <time>2018-06-15T09:59:27Z</time>
      </trkpt>
      <trkpt lat="42.438538" lon="-5.253289">
        <ele>884.974</ele>
        <time>2018-06-15T09:59:28Z</time>
      </trkpt>
      <trkpt lat="42.438567" lon="-5.253339">
        <ele>884.917</ele>
        <time>2018-06-15T09:59:29Z</time>
      </trkpt>
      <trkpt lat="42.438597" lon="-5.253388">
        <ele>884.971</ele>
        <time>2018-06-15T09:59:30Z</time>
      </trkpt>
      <trkpt lat="42.438627" lon="-5.253439">
        <ele>884.980</ele>
        <time>2018-06-15T09:59:31Z</time>
      </trkpt>
      <trkpt lat="42.438657" lon="-5.253489">
        <ele>884.980</ele>
        <time>2018-06-15T09:59:32Z</time>
      </trkpt>
      <trkpt lat="42.438685" lon="-5.253538">
        <ele>884.970</ele>
        <time>2018-06-15T09:59:33Z</time>
      </trkpt>
      <trkpt lat="42.438713" lon="-5.253586">
        <ele>884.980</ele>
        <time>2018-06-15T09:59:34Z</time>
      </trkpt>
      <trkpt lat="42.438741" lon="-5.253636">
        <ele>885.399</ele>
        <time>2018-06-15T09:59:35Z</time>
      </trkpt>
      <trkpt lat="42.438772" lon="-5.253686">
        <ele>885.507</ele>
        <time>2018-06-15T09:59:36Z</time>
      </trkpt>
      <trkpt lat="42.438800" lon="-5.253737">
        <ele>885.627</ele>
        <time>2018-06-15T09:59:37Z</time>
      </trkpt>
      <trkpt lat="42.438830" lon="-5.253786">
        <ele>885.708</ele>
        <time>2018-06-15T09:59:38Z</time>
      </trkpt>
      <trkpt lat="42.438886" lon="-5.253882">
        <ele>885.861</ele>
        <time>2018-06-15T09:59:40Z</time>
      </trkpt>
      <trkpt lat="42.438942" lon="-5.253978">
        <ele>885.814</ele>
        <time>2018-06-15T09:59:42Z</time>
      </trkpt>
      <trkpt lat="42.438996" lon="-5.254073">
        <ele>885.857</ele>
        <time>2018-06-15T09:59:44Z</time>
      </trkpt>
      <trkpt lat="42.439050" lon="-5.254167">
        <ele>885.851</ele>
        <time>2018-06-15T09:59:46Z</time>
      </trkpt>
      <trkpt lat="42.439079" lon="-5.254216">
        <ele>885.850</ele>
        <time>2018-06-15T09:59:47Z</time>
      </trkpt>
      <trkpt lat="42.439111" lon="-5.254263">
        <ele>885.810</ele>
        <time>2018-06-15T09:59:48Z</time>
      </trkpt>
      <trkpt lat="42.439169" lon="-5.254359">
        <ele>885.890</ele>
        <time>2018-06-15T09:59:50Z</time>
      </trkpt>
      <trkpt lat="42.439197" lon="-5.254409">
        <ele>885.890</ele>
        <time>2018-06-15T09:59:51Z</time>
      </trkpt>
      <trkpt lat="42.439228" lon="-5.254456">
        <ele>885.894</ele>
        <time>2018-06-15T09:59:52Z</time>
      </trkpt>
      <trkpt lat="42.439258" lon="-5.254507">
        <ele>885.857</ele>
        <time>2018-06-15T09:59:53Z</time>
      </trkpt>
      <trkpt lat="42.439286" lon="-5.254560">
        <ele>885.822</ele>
        <time>2018-06-15T09:59:54Z</time>
      </trkpt>
      <trkpt lat="42.439312" lon="-5.254613">
        <ele>885.808</ele>
        <time>2018-06-15T09:59:55Z</time>
      </trkpt>
      <trkpt lat="42.439345" lon="-5.254664">
        <ele>885.831</ele>
        <time>2018-06-15T09:59:56Z</time>
      </trkpt>
      <trkpt lat="42.439374" lon="-5.254722">
        <ele>885.864</ele>
        <time>2018-06-15T09:59:57Z</time>
      </trkpt>
      <trkpt lat="42.439402" lon="-5.254774">
        <ele>885.887</ele>
        <time>2018-06-15T09:59:58Z</time>
      </trkpt>
      <trkpt lat="42.439435" lon="-5.254826">
        <ele>885.871</ele>
        <time>2018-06-15T09:59:59Z</time>
      </trkpt>
      <trkpt lat="42.439464" lon="-5.254876">
        <ele>885.870</ele>
        <time>2018-06-15T10:00:00Z</time>
      </trkpt>
      <trkpt lat="42.439495" lon="-5.254928">
        <ele>885.820</ele>
        <time>2018-06-15T10:00:01Z</time>
      </trkpt>
      <trkpt lat="42.439528" lon="-5.254972">
        <ele>885.860</ele>
        <time>2018-06-15T10:00:02Z</time>
      </trkpt>
      <trkpt lat="42.439560" lon="-5.255021">
        <ele>885.820</ele>
        <time>2018-06-15T10:00:03Z</time>
      </trkpt>
      <trkpt lat="42.439592" lon="-5.255070">
        <ele>885.847</ele>
        <time>2018-06-15T10:00:04Z</time>
      </trkpt>
      <trkpt lat="42.439623" lon="-5.255117">
        <ele>885.829</ele>
        <time>2018-06-15T10:00:05Z</time>
      </trkpt>
      <trkpt lat="42.439655" lon="-5.255163">
        <ele>885.821</ele>
        <time>2018-06-15T10:00:06Z</time>
      </trkpt>
      <trkpt lat="42.439686" lon="-5.255208">
        <ele>885.808</ele>
        <time>2018-06-15T10:00:07Z</time>
      </trkpt>
      <trkpt lat="42.439748" lon="-5.255294">
        <ele>885.856</ele>
        <time>2018-06-15T10:00:09Z</time>
      </trkpt>
      <trkpt lat="42.439779" lon="-5.255343">
        <ele>885.819</ele>
        <time>2018-06-15T10:00:10Z</time>
      </trkpt>
      <trkpt lat="42.439809" lon="-5.255391">
        <ele>886.282</ele>
        <time>2018-06-15T10:00:11Z</time>
      </trkpt>
      <trkpt lat="42.439841" lon="-5.255437">
        <ele>886.466</ele>
        <time>2018-06-15T10:00:12Z</time>
      </trkpt>
      <trkpt lat="42.439904" lon="-5.255522">
        <ele>886.525</ele>
        <time>2018-06-15T10:00:14Z</time>
      </trkpt>
      <trkpt lat="42.439936" lon="-5.255567">
        <ele>886.635</ele>
        <time>2018-06-15T10:00:15Z</time>
      </trkpt>
      <trkpt lat="42.439967" lon="-5.255613">
        <ele>886.745</ele>
        <time>2018-06-15T10:00:16Z</time>
      </trkpt>
      <trkpt lat="42.439999" lon="-5.255657">
        <ele>886.735</ele>
        <time>2018-06-15T10:00:17Z</time>
      </trkpt>
      <trkpt lat="42.440029" lon="-5.255704">
        <ele>886.316</ele>
        <time>2018-06-15T10:00:18Z</time>
      </trkpt>
      <trkpt lat="42.440059" lon="-5.255751">
        <ele>886.576</ele>
        <time>2018-06-15T10:00:19Z</time>
      </trkpt>
      <trkpt lat="42.440089" lon="-5.255799">
        <ele>886.613</ele>
        <time>2018-06-15T10:00:20Z</time>
      </trkpt>
      <trkpt lat="42.440151" lon="-5.255885">
        <ele>886.708</ele>
        <time>2018-06-15T10:00:22Z</time>
      </trkpt>
      <trkpt lat="42.440210" lon="-5.255974">
        <ele>886.773</ele>
        <time>2018-06-15T10:00:24Z</time>
      </trkpt>
      <trkpt lat="42.440243" lon="-5.256021">
        <ele>886.726</ele>
        <time>2018-06-15T10:00:25Z</time>
      </trkpt>
      <trkpt lat="42.440305" lon="-5.256109">
        <ele>886.739</ele>
        <time>2018-06-15T10:00:27Z</time>
      </trkpt>
      <trkpt lat="42.440340" lon="-5.256149">
        <ele>886.743</ele>
        <time>2018-06-15T10:00:28Z</time>
      </trkpt>
      <trkpt lat="42.440371" lon="-5.256195">
        <ele>886.712</ele>
        <time>2018-06-15T10:00:29Z</time>
      </trkpt>
      <trkpt lat="42.440401" lon="-5.256243">
        <ele>886.772</ele>
        <time>2018-06-15T10:00:30Z</time>
      </trkpt>
      <trkpt lat="42.440432" lon="-5.256291">
        <ele>886.712</ele>
        <time>2018-06-15T10:00:31Z</time>
      </trkpt>
      <trkpt lat="42.440465" lon="-5.256336">
        <ele>886.762</ele>
        <time>2018-06-15T10:00:32Z</time>
      </trkpt>
      <trkpt lat="42.440498" lon="-5.256380">
        <ele>886.719</ele>
        <time>2018-06-15T10:00:33Z</time>
      </trkpt>
      <trkpt lat="42.440530" lon="-5.256428">
        <ele>886.709</ele>
        <time>2018-06-15T10:00:34Z</time>
      </trkpt>
      <trkpt lat="42.440560" lon="-5.256475">
        <ele>886.719</ele>
        <time>2018-06-15T10:00:35Z</time>
      </trkpt>
      <trkpt lat="42.440591" lon="-5.256522">
        <ele>886.708</ele>
        <time>2018-06-15T10:00:36Z</time>
      </trkpt>
      <trkpt lat="42.440624" lon="-5.256566">
        <ele>886.733</ele>
        <time>2018-06-15T10:00:37Z</time>
      </trkpt>
      <trkpt lat="42.440655" lon="-5.256610">
        <ele>886.776</ele>
        <time>2018-06-15T10:00:38Z</time>
      </trkpt>
      <trkpt lat="42.440685" lon="-5.256657">
        <ele>886.749</ele>
        <time>2018-06-15T10:00:39Z</time>
      </trkpt>
      <trkpt lat="42.440750" lon="-5.256744">
        <ele>886.773</ele>
        <time>2018-06-15T10:00:41Z</time>
      </trkpt>
      <trkpt lat="42.440781" lon="-5.256788">
        <ele>886.752</ele>
        <time>2018-06-15T10:00:42Z</time>
      </trkpt>
      <trkpt lat="42.440840" lon="-5.256877">
        <ele>886.792</ele>
        <time>2018-06-15T10:00:44Z</time>
      </trkpt>
      <trkpt lat="42.440871" lon="-5.256921">
        <ele>886.752</ele>
        <time>2018-06-15T10:00:45Z</time>
      </trkpt>
      <trkpt lat="42.440901" lon="-5.256968">
        <ele>886.352</ele>
        <time>2018-06-15T10:00:46Z</time>
      </trkpt>
      <trkpt lat="42.440933" lon="-5.257012">
        <ele>886.113</ele>
        <time>2018-06-15T10:00:47Z</time>
      </trkpt>
      <trkpt lat="42.440966" lon="-5.257057">
        <ele>886.043</ele>
        <time>2018-06-15T10:00:48Z</time>
      </trkpt>
      <trkpt lat="42.440996" lon="-5.257103">
        <ele>885.907</ele>
        <time>2018-06-15T10:00:49Z</time>
      </trkpt>
      <trkpt lat="42.441059" lon="-5.257192">
        <ele>885.808</ele>
        <time>2018-06-15T10:00:51Z</time>
      </trkpt>
      <trkpt lat="42.441090" lon="-5.257244">
        <ele>885.863</ele>
        <time>2018-06-15T10:00:52Z</time>
      </trkpt>
      <trkpt lat="42.441119" lon="-5.257293">
        <ele>885.856</ele>
        <time>2018-06-15T10:00:53Z</time>
      </trkpt>
      <trkpt lat="42.441147" lon="-5.257341">
        <ele>885.899</ele>
        <time>2018-06-15T10:00:54Z</time>
      </trkpt>
      <trkpt lat="42.441179" lon="-5.257385">
        <ele>885.893</ele>
        <time>2018-06-15T10:00:55Z</time>
      </trkpt>
      <trkpt lat="42.441238" lon="-5.257471">
        <ele>885.892</ele>
        <time>2018-06-15T10:00:57Z</time>
      </trkpt>
      <trkpt lat="42.441299" lon="-5.257556">
        <ele>885.882</ele>
        <time>2018-06-15T10:00:59Z</time>
      </trkpt>
      <trkpt lat="42.441355" lon="-5.257636">
        <ele>885.822</ele>
        <time>2018-06-15T10:01:01Z</time>
      </trkpt>
      <trkpt lat="42.441411" lon="-5.257723">
        <ele>885.812</ele>
        <time>2018-06-15T10:01:03Z</time>
      </trkpt>
      <trkpt lat="42.441473" lon="-5.257806">
        <ele>885.871</ele>
        <time>2018-06-15T10:01:05Z</time>
      </trkpt>
      <trkpt lat="42.441532" lon="-5.257890">
        <ele>885.841</ele>
        <time>2018-06-15T10:01:07Z</time>
      </trkpt>
      <trkpt lat="42.441592" lon="-5.257975">
        <ele>885.815</ele>
        <time>2018-06-15T10:01:09Z</time>
      </trkpt>
      <trkpt lat="42.441650" lon="-5.258057">
        <ele>886.208</ele>
        <time>2018-06-15T10:01:11Z</time>
      </trkpt>
      <trkpt lat="42.441682" lon="-5.258100">
        <ele>886.089</ele>
        <time>2018-06-15T10:01:12Z</time>
      </trkpt>
      <trkpt lat="42.441743" lon="-5.258188">
        <ele>885.992</ele>
        <time>2018-06-15T10:01:14Z</time>
      </trkpt>
      <trkpt lat="42.441802" lon="-5.258277">
        <ele>886.225</ele>
        <time>2018-06-15T10:01:16Z</time>
      </trkpt>
      <trkpt lat="42.441834" lon="-5.258325">
        <ele>886.459</ele>
        <time>2018-06-15T10:01:17Z</time>
      </trkpt>
      <trkpt lat="42.441865" lon="-5.258371">
        <ele>886.578</ele>
        <time>2018-06-15T10:01:18Z</time>
      </trkpt>
      <trkpt lat="42.441924" lon="-5.258463">
        <ele>886.668</ele>
        <time>2018-06-15T10:01:20Z</time>
      </trkpt>
      <trkpt lat="42.441980" lon="-5.258555">
        <ele>886.628</ele>
        <time>2018-06-15T10:01:22Z</time>
      </trkpt>
      <trkpt lat="42.442040" lon="-5.258642">
        <ele>886.628</ele>
        <time>2018-06-15T10:01:24Z</time>
      </trkpt>
      <trkpt lat="42.442104" lon="-5.258732">
        <ele>886.636</ele>
        <time>2018-06-15T10:01:26Z</time>
      </trkpt>
      <trkpt lat="42.442138" lon="-5.258782">
        <ele>886.617</ele>
        <time>2018-06-15T10:01:27Z</time>
      </trkpt>
      <trkpt lat="42.442174" lon="-5.258828">
        <ele>886.618</ele>
        <time>2018-06-15T10:01:28Z</time>
      </trkpt>
      <trkpt lat="42.442205" lon="-5.258873">
        <ele>886.608</ele>
        <time>2018-06-15T10:01:29Z</time>
      </trkpt>
      <trkpt lat="42.442237" lon="-5.258919">
        <ele>886.615</ele>
        <time>2018-06-15T10:01:30Z</time>
      </trkpt>
      <trkpt lat="42.442272" lon="-5.258972">
        <ele>886.658</ele>
        <time>2018-06-15T10:01:31Z</time>
      </trkpt>
      <trkpt lat="42.442311" lon="-5.259017">
        <ele>886.221</ele>
        <time>2018-06-15T10:01:32Z</time>
      </trkpt>
      <trkpt lat="42.442343" lon="-5.259066">
        <ele>886.455</ele>
        <time>2018-06-15T10:01:33Z</time>
      </trkpt>
      <trkpt lat="42.442375" lon="-5.259114">
        <ele>886.574</ele>
        <time>2018-06-15T10:01:34Z</time>
      </trkpt>
      <trkpt lat="42.442407" lon="-5.259162">
        <ele>886.654</ele>
        <time>2018-06-15T10:01:35Z</time>
      </trkpt>
      <trkpt lat="42.442438" lon="-5.259207">
        <ele>886.634</ele>
        <time>2018-06-15T10:01:36Z</time>
      </trkpt>
      <trkpt lat="42.442471" lon="-5.259259">
        <ele>886.234</ele>
        <time>2018-06-15T10:01:37Z</time>
      </trkpt>
      <trkpt lat="42.442503" lon="-5.259301">
        <ele>886.099</ele>
        <time>2018-06-15T10:01:38Z</time>
      </trkpt>
      <trkpt lat="42.442567" lon="-5.259393">
        <ele>885.907</ele>
        <time>2018-06-15T10:01:40Z</time>
      </trkpt>
      <trkpt lat="42.442603" lon="-5.259444">
        <ele>885.827</ele>
        <time>2018-06-15T10:01:41Z</time>
      </trkpt>
      <trkpt lat="42.442644" lon="-5.259489">
        <ele>885.808</ele>
        <time>2018-06-15T10:01:42Z</time>
      </trkpt>
      <trkpt lat="42.442680" lon="-5.259539">
        <ele>885.891</ele>
        <time>2018-06-15T10:01:43Z</time>
      </trkpt>
      <trkpt lat="42.442711" lon="-5.259588">
        <ele>885.874</ele>
        <time>2018-06-15T10:01:44Z</time>
      </trkpt>
      <trkpt lat="42.442770" lon="-5.259685">
        <ele>885.847</ele>
        <time>2018-06-15T10:01:46Z</time>
      </trkpt>
      <trkpt lat="42.442802" lon="-5.259730">
        <ele>885.841</ele>
        <time>2018-06-15T10:01:47Z</time>
      </trkpt>
      <trkpt lat="42.442836" lon="-5.259776">
        <ele>885.890</ele>
        <time>2018-06-15T10:01:48Z</time>
      </trkpt>
      <trkpt lat="42.442900" lon="-5.259858">
        <ele>885.860</ele>
        <time>2018-06-15T10:01:50Z</time>
      </trkpt>
      <trkpt lat="42.442934" lon="-5.259906">
        <ele>885.830</ele>
        <time>2018-06-15T10:01:51Z</time>
      </trkpt>
      <trkpt lat="42.442962" lon="-5.259956">
        <ele>885.830</ele>
        <time>2018-06-15T10:01:52Z</time>
      </trkpt>
      <trkpt lat="42.442997" lon="-5.260008">
        <ele>885.836</ele>
        <time>2018-06-15T10:01:53Z</time>
      </trkpt>
      <trkpt lat="42.443032" lon="-5.260058">
        <ele>885.817</ele>
        <time>2018-06-15T10:01:54Z</time>
      </trkpt>
      <trkpt lat="42.443065" lon="-5.260110">
        <ele>885.818</ele>
        <time>2018-06-15T10:01:55Z</time>
      </trkpt>
      <trkpt lat="42.443098" lon="-5.260160">
        <ele>885.808</ele>
        <time>2018-06-15T10:01:56Z</time>
      </trkpt>
      <trkpt lat="42.443131" lon="-5.260203">
        <ele>885.855</ele>
        <time>2018-06-15T10:01:57Z</time>
      </trkpt>
      <trkpt lat="42.443196" lon="-5.260294">
        <ele>885.478</ele>
        <time>2018-06-15T10:01:59Z</time>
      </trkpt>
      <trkpt lat="42.443229" lon="-5.260348">
        <ele>885.691</ele>
        <time>2018-06-15T10:02:00Z</time>
      </trkpt>
      <trkpt lat="42.443266" lon="-5.260396">
        <ele>885.365</ele>
        <time>2018-06-15T10:02:01Z</time>
      </trkpt>
      <trkpt lat="42.443303" lon="-5.260444">
        <ele>885.114</ele>
        <time>2018-06-15T10:02:02Z</time>
      </trkpt>
      <trkpt lat="42.443339" lon="-5.260493">
        <ele>885.024</ele>
        <time>2018-06-15T10:02:03Z</time>
      </trkpt>
      <trkpt lat="42.443375" lon="-5.260542">
        <ele>884.594</ele>
        <time>2018-06-15T10:02:04Z</time>
      </trkpt>
      <trkpt lat="42.443412" lon="-5.260596">
        <ele>884.264</ele>
        <time>2018-06-15T10:02:05Z</time>
      </trkpt>
      <trkpt lat="42.443448" lon="-5.260646">
        <ele>884.025</ele>
        <time>2018-06-15T10:02:06Z</time>
      </trkpt>
      <trkpt lat="42.443486" lon="-5.260695">
        <ele>883.926</ele>
        <time>2018-06-15T10:02:07Z</time>
      </trkpt>
      <trkpt lat="42.443523" lon="-5.260747">
        <ele>883.408</ele>
        <time>2018-06-15T10:02:08Z</time>
      </trkpt>
      <trkpt lat="42.443563" lon="-5.260799">
        <ele>883.108</ele>
        <time>2018-06-15T10:02:09Z</time>
      </trkpt>
      <trkpt lat="42.443597" lon="-5.260851">
        <ele>883.314</ele>
        <time>2018-06-15T10:02:10Z</time>
      </trkpt>
      <trkpt lat="42.443634" lon="-5.260904">
        <ele>883.417</ele>
        <time>2018-06-15T10:02:11Z</time>
      </trkpt>
      <trkpt lat="42.443668" lon="-5.260959">
        <ele>883.140</ele>
        <time>2018-06-15T10:02:12Z</time>
      </trkpt>
      <trkpt lat="42.443700" lon="-5.261015">
        <ele>883.314</ele>
        <time>2018-06-15T10:02:13Z</time>
      </trkpt>
      <trkpt lat="42.443736" lon="-5.261062">
        <ele>883.013</ele>
        <time>2018-06-15T10:02:14Z</time>
      </trkpt>
      <trkpt lat="42.443769" lon="-5.261113">
        <ele>883.263</ele>
        <time>2018-06-15T10:02:15Z</time>
      </trkpt>
      <trkpt lat="42.443804" lon="-5.261159">
        <ele>882.973</ele>
        <time>2018-06-15T10:02:16Z</time>
      </trkpt>
      <trkpt lat="42.443837" lon="-5.261207">
        <ele>882.713</ele>
        <time>2018-06-15T10:02:17Z</time>
      </trkpt>
      <trkpt lat="42.443873" lon="-5.261254">
        <ele>882.233</ele>
        <time>2018-06-15T10:02:18Z</time>
      </trkpt>
      <trkpt lat="42.443909" lon="-5.261304">
        <ele>881.923</ele>
        <time>2018-06-15T10:02:19Z</time>
      </trkpt>
      <trkpt lat="42.443943" lon="-5.261358">
        <ele>881.715</ele>
        <time>2018-06-15T10:02:20Z</time>
      </trkpt>
      <trkpt lat="42.443978" lon="-5.261414">
        <ele>881.608</ele>
        <time>2018-06-15T10:02:21Z</time>
      </trkpt>
      <trkpt lat="42.444016" lon="-5.261465">
        <ele>881.555</ele>
        <time>2018-06-15T10:02:22Z</time>
      </trkpt>
      <trkpt lat="42.444050" lon="-5.261521">
        <ele>881.578</ele>
        <time>2018-06-15T10:02:23Z</time>
      </trkpt>
      <trkpt lat="42.444087" lon="-5.261580">
        <ele>881.171</ele>
        <time>2018-06-15T10:02:24Z</time>
      </trkpt>
      <trkpt lat="42.444127" lon="-5.261643">
        <ele>880.885</ele>
        <time>2018-06-15T10:02:25Z</time>
      </trkpt>
      <trkpt lat="42.444170" lon="-5.261698">
        <ele>880.694</ele>
        <time>2018-06-15T10:02:26Z</time>
      </trkpt>
      <trkpt lat="42.444217" lon="-5.261753">
        <ele>880.534</ele>
        <time>2018-06-15T10:02:27Z</time>
      </trkpt>
      <trkpt lat="42.444264" lon="-5.261804">
        <ele>880.054</ele>
        <time>2018-06-15T10:02:28Z</time>
      </trkpt>
      <trkpt lat="42.444307" lon="-5.261866">
        <ele>879.784</ele>
        <time>2018-06-15T10:02:29Z</time>
      </trkpt>
      <trkpt lat="42.444349" lon="-5.261924">
        <ele>879.562</ele>
        <time>2018-06-15T10:02:30Z</time>
      </trkpt>
      <trkpt lat="42.444389" lon="-5.261986">
        <ele>879.483</ele>
        <time>2018-06-15T10:02:31Z</time>
      </trkpt>
      <trkpt lat="42.444429" lon="-5.262048">
        <ele>879.311</ele>
        <time>2018-06-15T10:02:32Z</time>
      </trkpt>
      <trkpt lat="42.444472" lon="-5.262109">
        <ele>879.308</ele>
        <time>2018-06-15T10:02:33Z</time>
      </trkpt>
      <trkpt lat="42.444515" lon="-5.262173">
        <ele>878.998</ele>
        <time>2018-06-15T10:02:34Z</time>
      </trkpt>
      <trkpt lat="42.444561" lon="-5.262238">
        <ele>878.681</ele>
        <time>2018-06-15T10:02:35Z</time>
      </trkpt>
      <trkpt lat="42.444603" lon="-5.262300">
        <ele>878.484</ele>
        <time>2018-06-15T10:02:36Z</time>
      </trkpt>
      <trkpt lat="42.444647" lon="-5.262360">
        <ele>878.318</ele>
        <time>2018-06-15T10:02:37Z</time>
      </trkpt>
      <trkpt lat="42.444693" lon="-5.262423">
        <ele>878.237</ele>
        <time>2018-06-15T10:02:38Z</time>
      </trkpt>
      <trkpt lat="42.444739" lon="-5.262489">
        <ele>877.827</ele>
        <time>2018-06-15T10:02:39Z</time>
      </trkpt>
      <trkpt lat="42.444785" lon="-5.262555">
        <ele>877.537</ele>
        <time>2018-06-15T10:02:40Z</time>
      </trkpt>
      <trkpt lat="42.444828" lon="-5.262622">
        <ele>877.357</ele>
        <time>2018-06-15T10:02:41Z</time>
      </trkpt>
      <trkpt lat="42.444872" lon="-5.262691">
        <ele>876.881</ele>
        <time>2018-06-15T10:02:42Z</time>
      </trkpt>
      <trkpt lat="42.444915" lon="-5.262762">
        <ele>876.561</ele>
        <time>2018-06-15T10:02:43Z</time>
      </trkpt>
      <trkpt lat="42.444956" lon="-5.262829">
        <ele>876.317</ele>
        <time>2018-06-15T10:02:44Z</time>
      </trkpt>
      <trkpt lat="42.444994" lon="-5.262902">
        <ele>875.808</ele>
        <time>2018-06-15T10:02:45Z</time>
      </trkpt>
      <trkpt lat="42.445038" lon="-5.262977">
        <ele>875.540</ele>
        <time>2018-06-15T10:02:46Z</time>
      </trkpt>
      <trkpt lat="42.445081" lon="-5.263055">
        <ele>874.993</ele>
        <time>2018-06-15T10:02:47Z</time>
      </trkpt>
      <trkpt lat="42.445126" lon="-5.263129">
        <ele>874.626</ele>
        <time>2018-06-15T10:02:48Z</time>
      </trkpt>
      <trkpt lat="42.445175" lon="-5.263207">
        <ele>874.410</ele>
        <time>2018-06-15T10:02:49Z</time>
      </trkpt>
      <trkpt lat="42.445227" lon="-5.263287">
        <ele>873.949</ele>
        <time>2018-06-15T10:02:50Z</time>
      </trkpt>
      <trkpt lat="42.445275" lon="-5.263369">
        <ele>873.669</ele>
        <time>2018-06-15T10:02:51Z</time>
      </trkpt>
      <trkpt lat="42.445326" lon="-5.263447">
        <ele>873.499</ele>
        <time>2018-06-15T10:02:52Z</time>
      </trkpt>
      <trkpt lat="42.445374" lon="-5.263532">
        <ele>872.959</ele>
        <time>2018-06-15T10:02:53Z</time>
      </trkpt>
      <trkpt lat="42.445426" lon="-5.263620">
        <ele>872.637</ele>
        <time>2018-06-15T10:02:54Z</time>
      </trkpt>
      <trkpt lat="42.445477" lon="-5.263712">
        <ele>872.449</ele>
        <time>2018-06-15T10:02:55Z</time>
      </trkpt>
      <trkpt lat="42.445525" lon="-5.263793">
        <ele>872.313</ele>
        <time>2018-06-15T10:02:56Z</time>
      </trkpt>
      <trkpt lat="42.445570" lon="-5.263879">
        <ele>872.208</ele>
        <time>2018-06-15T10:02:57Z</time>
      </trkpt>
      <trkpt lat="42.445618" lon="-5.263953">
        <ele>872.265</ele>
        <time>2018-06-15T10:02:58Z</time>
      </trkpt>
      <trkpt lat="42.445665" lon="-5.264031">
        <ele>872.268</ele>
        <time>2018-06-15T10:02:59Z</time>
      </trkpt>
      <trkpt lat="42.445713" lon="-5.264107">
        <ele>872.221</ele>
        <time>2018-06-15T10:03:00Z</time>
      </trkpt>
      <trkpt lat="42.445761" lon="-5.264182">
        <ele>872.275</ele>
        <time>2018-06-15T10:03:01Z</time>
      </trkpt>
      <trkpt lat="42.445807" lon="-5.264261">
        <ele>872.214</ele>
        <time>2018-06-15T10:03:02Z</time>
      </trkpt>
      <trkpt lat="42.445845" lon="-5.264341">
        <ele>872.244</ele>
        <time>2018-06-15T10:03:03Z</time>
      </trkpt>
      <trkpt lat="42.445888" lon="-5.264412">
        <ele>872.684</ele>
        <time>2018-06-15T10:03:04Z</time>
      </trkpt>
      <trkpt lat="42.445931" lon="-5.264482">
        <ele>872.834</ele>
        <time>2018-06-15T10:03:05Z</time>
      </trkpt>
      <trkpt lat="42.445971" lon="-5.264547">
        <ele>872.992</ele>
        <time>2018-06-15T10:03:06Z</time>
      </trkpt>
      <trkpt lat="42.446012" lon="-5.264606">
        <ele>873.473</ele>
        <time>2018-06-15T10:03:07Z</time>
      </trkpt>
      <trkpt lat="42.446049" lon="-5.264671">
        <ele>873.720</ele>
        <time>2018-06-15T10:03:08Z</time>
      </trkpt>
      <trkpt lat="42.446084" lon="-5.264734">
        <ele>873.908</ele>
        <time>2018-06-15T10:03:09Z</time>
      </trkpt>
      <trkpt lat="42.446118" lon="-5.264793">
        <ele>874.051</ele>
        <time>2018-06-15T10:03:10Z</time>
      </trkpt>
      <trkpt lat="42.446150" lon="-5.264853">
        <ele>874.514</ele>
        <time>2018-06-15T10:03:11Z</time>
      </trkpt>
      <trkpt lat="42.446181" lon="-5.264904">
        <ele>874.847</ele>
        <time>2018-06-15T10:03:12Z</time>
      </trkpt>
      <trkpt lat="42.446212" lon="-5.264951">
        <ele>875.081</ele>
        <time>2018-06-15T10:03:13Z</time>
      </trkpt>
      <trkpt lat="42.446243" lon="-5.265001">
        <ele>875.110</ele>
        <time>2018-06-15T10:03:14Z</time>
      </trkpt>
      <trkpt lat="42.446274" lon="-5.265053">
        <ele>875.270</ele>
        <time>2018-06-15T10:03:15Z</time>
      </trkpt>
      <trkpt lat="42.446331" lon="-5.265151">
        <ele>875.640</ele>
        <time>2018-06-15T10:03:17Z</time>
      </trkpt>
      <trkpt lat="42.446360" lon="-5.265198">
        <ele>875.950</ele>
        <time>2018-06-15T10:03:18Z</time>
      </trkpt>
      <trkpt lat="42.446388" lon="-5.265248">
        <ele>876.179</ele>
        <time>2018-06-15T10:03:19Z</time>
      </trkpt>
      <trkpt lat="42.446443" lon="-5.265345">
        <ele>876.205</ele>
        <time>2018-06-15T10:03:21Z</time>
      </trkpt>
      <trkpt lat="42.446501" lon="-5.265438">
        <ele>876.325</ele>
        <time>2018-06-15T10:03:23Z</time>
      </trkpt>
      <trkpt lat="42.446530" lon="-5.265485">
        <ele>876.308</ele>
        <time>2018-06-15T10:03:24Z</time>
      </trkpt>
      <trkpt lat="42.446586" lon="-5.265585">
        <ele>876.759</ele>
        <time>2018-06-15T10:03:26Z</time>
      </trkpt>
      <trkpt lat="42.446616" lon="-5.265636">
        <ele>877.072</ele>
        <time>2018-06-15T10:03:27Z</time>
      </trkpt>
      <trkpt lat="42.446644" lon="-5.265688">
        <ele>877.215</ele>
        <time>2018-06-15T10:03:28Z</time>
      </trkpt>
      <trkpt lat="42.446672" lon="-5.265737">
        <ele>877.379</ele>
        <time>2018-06-15T10:03:29Z</time>
      </trkpt>
      <trkpt lat="42.446730" lon="-5.265829">
        <ele>877.458</ele>
        <time>2018-06-15T10:03:31Z</time>
      </trkpt>
      <trkpt lat="42.446758" lon="-5.265879">
        <ele>877.488</ele>
        <time>2018-06-15T10:03:32Z</time>
      </trkpt>
      <trkpt lat="42.446789" lon="-5.265931">
        <ele>877.428</ele>
        <time>2018-06-15T10:03:33Z</time>
      </trkpt>
      <trkpt lat="42.446818" lon="-5.265984">
        <ele>877.418</ele>
        <time>2018-06-15T10:03:34Z</time>
      </trkpt>
      <trkpt lat="42.446848" lon="-5.266037">
        <ele>877.425</ele>
        <time>2018-06-15T10:03:35Z</time>
      </trkpt>
      <trkpt lat="42.446878" lon="-5.266092">
        <ele>877.426</ele>
        <time>2018-06-15T10:03:36Z</time>
      </trkpt>
      <trkpt lat="42.446910" lon="-5.266142">
        <ele>877.408</ele>
        <time>2018-06-15T10:03:37Z</time>
      </trkpt>
      <trkpt lat="42.446940" lon="-5.266194">
        <ele>877.408</ele>
        <time>2018-06-15T10:03:38Z</time>
      </trkpt>
      <trkpt lat="42.446969" lon="-5.266244">
        <ele>877.444</ele>
        <time>2018-06-15T10:03:39Z</time>
      </trkpt>
      <trkpt lat="42.447002" lon="-5.266294">
        <ele>877.487</ele>
        <time>2018-06-15T10:03:40Z</time>
      </trkpt>
      <trkpt lat="42.447034" lon="-5.266347">
        <ele>877.440</ele>
        <time>2018-06-15T10:03:41Z</time>
      </trkpt>
      <trkpt lat="42.447065" lon="-5.266400">
        <ele>877.474</ele>
        <time>2018-06-15T10:03:42Z</time>
      </trkpt>
      <trkpt lat="42.447096" lon="-5.266455">
        <ele>877.463</ele>
        <time>2018-06-15T10:03:43Z</time>
      </trkpt>
      <trkpt lat="42.447128" lon="-5.266512">
        <ele>877.473</ele>
        <time>2018-06-15T10:03:44Z</time>
      </trkpt>
      <trkpt lat="42.447160" lon="-5.266568">
        <ele>877.453</ele>
        <time>2018-06-15T10:03:45Z</time>
      </trkpt>
      <trkpt lat="42.447192" lon="-5.266622">
        <ele>877.423</ele>
        <time>2018-06-15T10:03:46Z</time>
      </trkpt>
      <trkpt lat="42.447226" lon="-5.266678">
        <ele>877.475</ele>
        <time>2018-06-15T10:03:47Z</time>
      </trkpt>
      <trkpt lat="42.447258" lon="-5.266735">
        <ele>877.428</ele>
        <time>2018-06-15T10:03:48Z</time>
      </trkpt>
      <trkpt lat="42.447292" lon="-5.266790">
        <ele>877.420</ele>
        <time>2018-06-15T10:03:49Z</time>
      </trkpt>
      <trkpt lat="42.447323" lon="-5.266846">
        <ele>877.408</ele>
        <time>2018-06-15T10:03:50Z</time>
      </trkpt>
      <trkpt lat="42.447357" lon="-5.266899">
        <ele>877.459</ele>
        <time>2018-06-15T10:03:51Z</time>
      </trkpt>
      <trkpt lat="42.447391" lon="-5.266953">
        <ele>877.452</ele>
        <time>2018-06-15T10:03:52Z</time>
      </trkpt>
      <trkpt lat="42.447424" lon="-5.267006">
        <ele>877.445</ele>
        <time>2018-06-15T10:03:53Z</time>
      </trkpt>
      <trkpt lat="42.447459" lon="-5.267065">
        <ele>877.439</ele>
        <time>2018-06-15T10:03:54Z</time>
      </trkpt>
      <trkpt lat="42.447495" lon="-5.267120">
        <ele>877.478</ele>
        <time>2018-06-15T10:03:55Z</time>
      </trkpt>
      <trkpt lat="42.447528" lon="-5.267176">
        <ele>877.478</ele>
        <time>2018-06-15T10:03:56Z</time>
      </trkpt>
      <trkpt lat="42.447561" lon="-5.267231">
        <ele>877.448</ele>
        <time>2018-06-15T10:03:57Z</time>
      </trkpt>
      <trkpt lat="42.447595" lon="-5.267289">
        <ele>877.498</ele>
        <time>2018-06-15T10:03:58Z</time>
      </trkpt>
      <trkpt lat="42.447628" lon="-5.267344">
        <ele>877.487</ele>
        <time>2018-06-15T10:03:59Z</time>
      </trkpt>
      <trkpt lat="42.447659" lon="-5.267399">
        <ele>877.442</ele>
        <time>2018-06-15T10:04:00Z</time>
      </trkpt>
      <trkpt lat="42.447693" lon="-5.267457">
        <ele>877.426</ele>
        <time>2018-06-15T10:04:01Z</time>
      </trkpt>
      <trkpt lat="42.447727" lon="-5.267513">
        <ele>877.408</ele>
        <time>2018-06-15T10:04:02Z</time>
      </trkpt>
      <trkpt lat="42.447764" lon="-5.267571">
        <ele>877.440</ele>
        <time>2018-06-15T10:04:03Z</time>
      </trkpt>
      <trkpt lat="42.447797" lon="-5.267623">
        <ele>877.453</ele>
        <time>2018-06-15T10:04:04Z</time>
      </trkpt>
      <trkpt lat="42.447830" lon="-5.267682">
        <ele>877.446</ele>
        <time>2018-06-15T10:04:05Z</time>
      </trkpt>
      <trkpt lat="42.447859" lon="-5.267737">
        <ele>877.490</ele>
        <time>2018-06-15T10:04:06Z</time>
      </trkpt>
      <trkpt lat="42.447892" lon="-5.267791">
        <ele>877.439</ele>
        <time>2018-06-15T10:04:07Z</time>
      </trkpt>
      <trkpt lat="42.447923" lon="-5.267842">
        <ele>877.499</ele>
        <time>2018-06-15T10:04:08Z</time>
      </trkpt>
      <trkpt lat="42.447954" lon="-5.267894">
        <ele>877.449</ele>
        <time>2018-06-15T10:04:09Z</time>
      </trkpt>
      <trkpt lat="42.447982" lon="-5.267950">
        <ele>877.449</ele>
        <time>2018-06-15T10:04:10Z</time>
      </trkpt>
      <trkpt lat="42.448009" lon="-5.268002">
        <ele>877.486</ele>
        <time>2018-06-15T10:04:11Z</time>
      </trkpt>
      <trkpt lat="42.448036" lon="-5.268057">
        <ele>877.460</ele>
        <time>2018-06-15T10:04:12Z</time>
      </trkpt>
      <trkpt lat="42.448060" lon="-5.268118">
        <ele>877.426</ele>
        <time>2018-06-15T10:04:13Z</time>
      </trkpt>
      <trkpt lat="42.448087" lon="-5.268177">
        <ele>877.008</ele>
        <time>2018-06-15T10:04:14Z</time>
      </trkpt>
      <trkpt lat="42.448112" lon="-5.268233">
        <ele>877.290</ele>
        <time>2018-06-15T10:04:15Z</time>
      </trkpt>
      <trkpt lat="42.448136" lon="-5.268294">
        <ele>877.363</ele>
        <time>2018-06-15T10:04:16Z</time>
      </trkpt>
      <trkpt lat="42.448160" lon="-5.268352">
        <ele>877.036</ele>
        <time>2018-06-15T10:04:17Z</time>
      </trkpt>
      <trkpt lat="42.448184" lon="-5.268412">
        <ele>877.290</ele>
        <time>2018-06-15T10:04:18Z</time>
      </trkpt>
      <trkpt lat="42.448207" lon="-5.268472">
        <ele>877.379</ele>
        <time>2018-06-15T10:04:19Z</time>
      </trkpt>
      <trkpt lat="42.448234" lon="-5.268534">
        <ele>877.469</ele>
        <time>2018-06-15T10:04:20Z</time>
      </trkpt>
      <trkpt lat="42.448262" lon="-5.268599">
        <ele>877.429</ele>
        <time>2018-06-15T10:04:21Z</time>
      </trkpt>
      <trkpt lat="42.448287" lon="-5.268664">
        <ele>877.449</ele>
        <time>2018-06-15T10:04:22Z</time>
      </trkpt>
      <trkpt lat="42.448313" lon="-5.268727">
        <ele>877.498</ele>
        <time>2018-06-15T10:04:23Z</time>
      </trkpt>
      <trkpt lat="42.448340" lon="-5.268788">
        <ele>877.415</ele>
        <time>2018-06-15T10:04:24Z</time>
      </trkpt>
      <trkpt lat="42.448365" lon="-5.268853">
        <ele>877.426</ele>
        <time>2018-06-15T10:04:25Z</time>
      </trkpt>
      <trkpt lat="42.448389" lon="-5.268915">
        <ele>877.408</ele>
        <time>2018-06-15T10:04:26Z</time>
      </trkpt>
      <trkpt lat="42.448412" lon="-5.268978">
        <ele>877.471</ele>
        <time>2018-06-15T10:04:27Z</time>
      </trkpt>
      <trkpt lat="42.448435" lon="-5.269042">
        <ele>877.424</ele>
        <time>2018-06-15T10:04:28Z</time>
      </trkpt>
      <trkpt lat="42.448462" lon="-5.269102">
        <ele>877.487</ele>
        <time>2018-06-15T10:04:29Z</time>
      </trkpt>
      <trkpt lat="42.448485" lon="-5.269163">
        <ele>877.421</ele>
        <time>2018-06-15T10:04:30Z</time>
      </trkpt>
      <trkpt lat="42.448510" lon="-5.269225">
        <ele>877.490</ele>
        <time>2018-06-15T10:04:31Z</time>
      </trkpt>
      <trkpt lat="42.448537" lon="-5.269286">
        <ele>877.460</ele>
        <time>2018-06-15T10:04:32Z</time>
      </trkpt>
      <trkpt lat="42.448563" lon="-5.269349">
        <ele>877.490</ele>
        <time>2018-06-15T10:04:33Z</time>
      </trkpt>
      <trkpt lat="42.448590" lon="-5.269410">
        <ele>877.440</ele>
        <time>2018-06-15T10:04:34Z</time>
      </trkpt>
      <trkpt lat="42.448616" lon="-5.269472">
        <ele>877.465</ele>
        <time>2018-06-15T10:04:35Z</time>
      </trkpt>
      <trkpt lat="42.448637" lon="-5.269531">
        <ele>877.468</ele>
        <time>2018-06-15T10:04:36Z</time>
      </trkpt>
      <trkpt lat="42.448661" lon="-5.269587">
        <ele>877.414</ele>
        <time>2018-06-15T10:04:37Z</time>
      </trkpt>
      <trkpt lat="42.448683" lon="-5.269642">
        <ele>877.408</ele>
        <time>2018-06-15T10:04:38Z</time>
      </trkpt>
      <trkpt lat="42.448704" lon="-5.269706">
        <ele>877.438</ele>
        <time>2018-06-15T10:04:39Z</time>
      </trkpt>
      <trkpt lat="42.448729" lon="-5.269766">
        <ele>877.471</ele>
        <time>2018-06-15T10:04:40Z</time>
      </trkpt>
      <trkpt lat="42.448753" lon="-5.269825">
        <ele>877.474</ele>
        <time>2018-06-15T10:04:41Z</time>
      </trkpt>
      <trkpt lat="42.448776" lon="-5.269883">
        <ele>877.428</ele>
        <time>2018-06-15T10:04:42Z</time>
      </trkpt>
      <trkpt lat="42.448800" lon="-5.269944">
        <ele>877.897</ele>
        <time>2018-06-15T10:04:43Z</time>
      </trkpt>
      <trkpt lat="42.448827" lon="-5.270002">
        <ele>877.647</ele>
        <time>2018-06-15T10:04:44Z</time>
      </trkpt>
      <trkpt lat="42.448852" lon="-5.270064">
        <ele>877.537</ele>
        <time>2018-06-15T10:04:45Z</time>
      </trkpt>
      <trkpt lat="42.448881" lon="-5.270126">
        <ele>877.437</ele>
        <time>2018-06-15T10:04:46Z</time>
      </trkpt>
      <trkpt lat="42.448906" lon="-5.270190">
        <ele>877.487</ele>
        <time>2018-06-15T10:04:47Z</time>
      </trkpt>
      <trkpt lat="42.448931" lon="-5.270253">
        <ele>877.442</ele>
        <time>2018-06-15T10:04:48Z</time>
      </trkpt>
      <trkpt lat="42.448955" lon="-5.270314">
        <ele>877.426</ele>
        <time>2018-06-15T10:04:49Z</time>
      </trkpt>
      <trkpt lat="42.448981" lon="-5.270377">
        <ele>877.008</ele>
        <time>2018-06-15T10:04:50Z</time>
      </trkpt>
      <trkpt lat="42.449009" lon="-5.270444">
        <ele>877.240</ele>
        <time>2018-06-15T10:04:51Z</time>
      </trkpt>
      <trkpt lat="42.449036" lon="-5.270510">
        <ele>877.343</ele>
        <time>2018-06-15T10:04:52Z</time>
      </trkpt>
      <trkpt lat="42.449061" lon="-5.270577">
        <ele>877.436</ele>
        <time>2018-06-15T10:04:53Z</time>
      </trkpt>
      <trkpt lat="42.449085" lon="-5.270647">
        <ele>877.460</ele>
        <time>2018-06-15T10:04:54Z</time>
      </trkpt>
      <trkpt lat="42.449115" lon="-5.270710">
        <ele>877.079</ele>
        <time>2018-06-15T10:04:55Z</time>
      </trkpt>
      <trkpt lat="42.449142" lon="-5.270780">
        <ele>877.249</ele>
        <time>2018-06-15T10:04:56Z</time>
      </trkpt>
      <trkpt lat="42.449169" lon="-5.270848">
        <ele>876.979</ele>
        <time>2018-06-15T10:04:57Z</time>
      </trkpt>
      <trkpt lat="42.449198" lon="-5.270917">
        <ele>876.789</ele>
        <time>2018-06-15T10:04:58Z</time>
      </trkpt>
      <trkpt lat="42.449227" lon="-5.270987">
        <ele>876.637</ele>
        <time>2018-06-15T10:04:59Z</time>
      </trkpt>
      <trkpt lat="42.449256" lon="-5.271061">
        <ele>876.549</ele>
        <time>2018-06-15T10:05:00Z</time>
      </trkpt>
      <trkpt lat="42.449288" lon="-5.271137">
        <ele>876.513</ele>
        <time>2018-06-15T10:05:01Z</time>
      </trkpt>
      <trkpt lat="42.449317" lon="-5.271210">
        <ele>876.508</ele>
        <time>2018-06-15T10:05:02Z</time>
      </trkpt>
      <trkpt lat="42.449349" lon="-5.271285">
        <ele>876.115</ele>
        <time>2018-06-15T10:05:03Z</time>
      </trkpt>
      <trkpt lat="42.449380" lon="-5.271356">
        <ele>875.958</ele>
        <time>2018-06-15T10:05:04Z</time>
      </trkpt>
      <trkpt lat="42.449410" lon="-5.271432">
        <ele>875.841</ele>
        <time>2018-06-15T10:05:05Z</time>
      </trkpt>
      <trkpt lat="42.449440" lon="-5.271503">
        <ele>875.745</ele>
        <time>2018-06-15T10:05:06Z</time>
      </trkpt>
      <trkpt lat="42.449471" lon="-5.271580">
        <ele>875.694</ele>
        <time>2018-06-15T10:05:07Z</time>
      </trkpt>
      <trkpt lat="42.449499" lon="-5.271652">
        <ele>875.654</ele>
        <time>2018-06-15T10:05:08Z</time>
      </trkpt>
      <trkpt lat="42.449528" lon="-5.271723">
        <ele>875.684</ele>
        <time>2018-06-15T10:05:09Z</time>
      </trkpt>
      <trkpt lat="42.449557" lon="-5.271793">
        <ele>875.664</ele>
        <time>2018-06-15T10:05:10Z</time>
      </trkpt>
      <trkpt lat="42.449587" lon="-5.271865">
        <ele>875.691</ele>
        <time>2018-06-15T10:05:11Z</time>
      </trkpt>
      <trkpt lat="42.449614" lon="-5.271937">
        <ele>875.681</ele>
        <time>2018-06-15T10:05:12Z</time>
      </trkpt>
      <trkpt lat="42.449644" lon="-5.272005">
        <ele>875.619</ele>
        <time>2018-06-15T10:05:13Z</time>
      </trkpt>
      <trkpt lat="42.449674" lon="-5.272079">
        <ele>875.608</ele>
        <time>2018-06-15T10:05:14Z</time>
      </trkpt>
      <trkpt lat="42.449706" lon="-5.272150">
        <ele>875.671</ele>
        <time>2018-06-15T10:05:15Z</time>
      </trkpt>
      <trkpt lat="42.449734" lon="-5.272223">
        <ele>875.694</ele>
        <time>2018-06-15T10:05:16Z</time>
      </trkpt>
      <trkpt lat="42.449762" lon="-5.272296">
        <ele>876.017</ele>
        <time>2018-06-15T10:05:17Z</time>
      </trkpt>
      <trkpt lat="42.449791" lon="-5.272371">
        <ele>875.841</ele>
        <time>2018-06-15T10:05:18Z</time>
      </trkpt>
      <trkpt lat="42.449821" lon="-5.272445">
        <ele>876.110</ele>
        <time>2018-06-15T10:05:19Z</time>
      </trkpt>
      <trkpt lat="42.449850" lon="-5.272514">
        <ele>876.360</ele>
        <time>2018-06-15T10:05:20Z</time>
      </trkpt>
      <trkpt lat="42.449879" lon="-5.272585">
        <ele>876.420</ele>
        <time>2018-06-15T10:05:21Z</time>
      </trkpt>
      <trkpt lat="42.449906" lon="-5.272652">
        <ele>876.510</ele>
        <time>2018-06-15T10:05:22Z</time>
      </trkpt>
      <trkpt lat="42.449935" lon="-5.272718">
        <ele>876.575</ele>
        <time>2018-06-15T10:05:23Z</time>
      </trkpt>
      <trkpt lat="42.449966" lon="-5.272785">
        <ele>876.528</ele>
        <time>2018-06-15T10:05:24Z</time>
      </trkpt>
      <trkpt lat="42.449992" lon="-5.272855">
        <ele>876.520</ele>
        <time>2018-06-15T10:05:25Z</time>
      </trkpt>
      <trkpt lat="42.450019" lon="-5.272921">
        <ele>876.508</ele>
        <time>2018-06-15T10:05:26Z</time>
      </trkpt>
      <trkpt lat="42.450045" lon="-5.272995">
        <ele>876.589</ele>
        <time>2018-06-15T10:05:27Z</time>
      </trkpt>
      <trkpt lat="42.450073" lon="-5.273062">
        <ele>876.552</ele>
        <time>2018-06-15T10:05:28Z</time>
      </trkpt>
      <trkpt lat="42.450098" lon="-5.273132">
        <ele>876.525</ele>
        <time>2018-06-15T10:05:29Z</time>
      </trkpt>
      <trkpt lat="42.450126" lon="-5.273197">
        <ele>876.579</ele>
        <time>2018-06-15T10:05:30Z</time>
      </trkpt>
      <trkpt lat="42.450153" lon="-5.273267">
        <ele>876.598</ele>
        <time>2018-06-15T10:05:31Z</time>
      </trkpt>
      <trkpt lat="42.450180" lon="-5.273341">
        <ele>876.568</ele>
        <time>2018-06-15T10:05:32Z</time>
      </trkpt>
      <trkpt lat="42.450207" lon="-5.273411">
        <ele>876.528</ele>
        <time>2018-06-15T10:05:33Z</time>
      </trkpt>
      <trkpt lat="42.450233" lon="-5.273481">
        <ele>876.588</ele>
        <time>2018-06-15T10:05:34Z</time>
      </trkpt>
      <trkpt lat="42.450264" lon="-5.273550">
        <ele>876.532</ele>
        <time>2018-06-15T10:05:35Z</time>
      </trkpt>
      <trkpt lat="42.450294" lon="-5.273616">
        <ele>876.592</ele>
        <time>2018-06-15T10:05:36Z</time>
      </trkpt>
      <trkpt lat="42.450322" lon="-5.273685">
        <ele>876.511</ele>
        <time>2018-06-15T10:05:37Z</time>
      </trkpt>
      <trkpt lat="42.450347" lon="-5.273757">
        <ele>876.508</ele>
        <time>2018-06-15T10:05:38Z</time>
      </trkpt>
      <trkpt lat="42.450373" lon="-5.273824">
        <ele>876.565</ele>
        <time>2018-06-15T10:05:39Z</time>
      </trkpt>
      <trkpt lat="42.450398" lon="-5.273891">
        <ele>876.548</ele>
        <time>2018-06-15T10:05:40Z</time>
      </trkpt>
      <trkpt lat="42.450429" lon="-5.273959">
        <ele>876.551</ele>
        <time>2018-06-15T10:05:41Z</time>
      </trkpt>
      <trkpt lat="42.450455" lon="-5.274029">
        <ele>876.525</ele>
        <time>2018-06-15T10:05:42Z</time>
      </trkpt>
      <trkpt lat="42.450484" lon="-5.274096">
        <ele>876.574</ele>
        <time>2018-06-15T10:05:43Z</time>
      </trkpt>
      <trkpt lat="42.450511" lon="-5.274161">
        <ele>876.514</ele>
        <time>2018-06-15T10:05:44Z</time>
      </trkpt>
      <trkpt lat="42.450538" lon="-5.274227">
        <ele>876.584</ele>
        <time>2018-06-15T10:05:45Z</time>
      </trkpt>
      <trkpt lat="42.450564" lon="-5.274291">
        <ele>876.534</ele>
        <time>2018-06-15T10:05:46Z</time>
      </trkpt>
      <trkpt lat="42.450590" lon="-5.274360">
        <ele>876.528</ele>
        <time>2018-06-15T10:05:47Z</time>
      </trkpt>
      <trkpt lat="42.450616" lon="-5.274422">
        <ele>876.589</ele>
        <time>2018-06-15T10:05:48Z</time>
      </trkpt>
      <trkpt lat="42.450642" lon="-5.274485">
        <ele>876.517</ele>
        <time>2018-06-15T10:05:49Z</time>
      </trkpt>
      <trkpt lat="42.450667" lon="-5.274549">
        <ele>876.508</ele>
        <time>2018-06-15T10:05:50Z</time>
      </trkpt>
      <trkpt lat="42.450692" lon="-5.274614">
        <ele>876.594</ele>
        <time>2018-06-15T10:05:51Z</time>
      </trkpt>
      <trkpt lat="42.450718" lon="-5.274681">
        <ele>876.547</ele>
        <time>2018-06-15T10:05:52Z</time>
      </trkpt>
      <trkpt lat="42.450742" lon="-5.274747">
        <ele>876.520</ele>
        <time>2018-06-15T10:05:53Z</time>
      </trkpt>
      <trkpt lat="42.450768" lon="-5.274815">
        <ele>876.944</ele>
        <time>2018-06-15T10:05:54Z</time>
      </trkpt>
      <trkpt lat="42.450797" lon="-5.274880">
        <ele>876.733</ele>
        <time>2018-06-15T10:05:55Z</time>
      </trkpt>
      <trkpt lat="42.450822" lon="-5.274945">
        <ele>876.633</ele>
        <time>2018-06-15T10:05:56Z</time>
      </trkpt>
      <trkpt lat="42.450848" lon="-5.275011">
        <ele>876.583</ele>
        <time>2018-06-15T10:05:57Z</time>
      </trkpt>
      <trkpt lat="42.450873" lon="-5.275083">
        <ele>876.513</ele>
        <time>2018-06-15T10:05:58Z</time>
      </trkpt>
      <trkpt lat="42.450902" lon="-5.275150">
        <ele>876.555</ele>
        <time>2018-06-15T10:05:59Z</time>
      </trkpt>
      <trkpt lat="42.450927" lon="-5.275215">
        <ele>876.507</ele>
        <time>2018-06-15T10:06:00Z</time>
      </trkpt>
      <trkpt lat="42.450952" lon="-5.275285">
        <ele>876.517</ele>
        <time>2018-06-15T10:06:01Z</time>
      </trkpt>
      <trkpt lat="42.450980" lon="-5.275350">
        <ele>876.508</ele>
        <time>2018-06-15T10:06:02Z</time>
      </trkpt>
      <trkpt lat="42.451009" lon="-5.275416">
        <ele>876.597</ele>
        <time>2018-06-15T10:06:03Z</time>
      </trkpt>
      <trkpt lat="42.451037" lon="-5.275481">
        <ele>876.590</ele>
        <time>2018-06-15T10:06:04Z</time>
      </trkpt>
      <trkpt lat="42.451064" lon="-5.275549">
        <ele>876.543</ele>
        <time>2018-06-15T10:06:05Z</time>
      </trkpt>
      <trkpt lat="42.451089" lon="-5.275618">
        <ele>876.557</ele>
        <time>2018-06-15T10:06:06Z</time>
      </trkpt>
      <trkpt lat="42.451115" lon="-5.275685">
        <ele>876.516</ele>
        <time>2018-06-15T10:06:07Z</time>
      </trkpt>
      <trkpt lat="42.451142" lon="-5.275753">
        <ele>876.526</ele>
        <time>2018-06-15T10:06:08Z</time>
      </trkpt>
      <trkpt lat="42.451168" lon="-5.275814">
        <ele>876.566</ele>
        <time>2018-06-15T10:06:09Z</time>
      </trkpt>
      <trkpt lat="42.451194" lon="-5.275877">
        <ele>876.526</ele>
        <time>2018-06-15T10:06:10Z</time>
      </trkpt>
      <trkpt lat="42.451219" lon="-5.275940">
        <ele>876.514</ele>
        <time>2018-06-15T10:06:11Z</time>
      </trkpt>
      <trkpt lat="42.451246" lon="-5.276006">
        <ele>876.554</ele>
        <time>2018-06-15T10:06:12Z</time>
      </trkpt>
      <trkpt lat="42.451273" lon="-5.276068">
        <ele>876.509</ele>
        <time>2018-06-15T10:06:13Z</time>
      </trkpt>
      <trkpt lat="42.451300" lon="-5.276133">
        <ele>876.508</ele>
        <time>2018-06-15T10:06:14Z</time>
      </trkpt>
      <trkpt lat="42.451329" lon="-5.276197">
        <ele>876.523</ele>
        <time>2018-06-15T10:06:15Z</time>
      </trkpt>
      <trkpt lat="42.451353" lon="-5.276261">
        <ele>876.546</ele>
        <time>2018-06-15T10:06:16Z</time>
      </trkpt>
      <trkpt lat="42.451379" lon="-5.276323">
        <ele>876.529</ele>
        <time>2018-06-15T10:06:17Z</time>
      </trkpt>
      <trkpt lat="42.451402" lon="-5.276388">
        <ele>876.583</ele>
        <time>2018-06-15T10:06:18Z</time>
      </trkpt>
      <trkpt lat="42.451427" lon="-5.276453">
        <ele>876.572</ele>
        <time>2018-06-15T10:06:19Z</time>
      </trkpt>
      <trkpt lat="42.451451" lon="-5.276516">
        <ele>876.592</ele>
        <time>2018-06-15T10:06:20Z</time>
      </trkpt>
      <trkpt lat="42.451474" lon="-5.276577">
        <ele>876.592</ele>
        <time>2018-06-15T10:06:21Z</time>
      </trkpt>
      <trkpt lat="42.451497" lon="-5.276636">
        <ele>876.572</ele>
        <time>2018-06-15T10:06:22Z</time>
      </trkpt>
      <trkpt lat="42.451524" lon="-5.276697">
        <ele>876.551</ele>
        <time>2018-06-15T10:06:23Z</time>
      </trkpt>
      <trkpt lat="42.451547" lon="-5.276761">
        <ele>876.501</ele>
        <time>2018-06-15T10:06:24Z</time>
      </trkpt>
      <trkpt lat="42.451574" lon="-5.276827">
        <ele>876.511</ele>
        <time>2018-06-15T10:06:25Z</time>
      </trkpt>
      <trkpt lat="42.451599" lon="-5.276886">
        <ele>876.508</ele>
        <time>2018-06-15T10:06:26Z</time>
      </trkpt>
      <trkpt lat="42.451623" lon="-5.276944">
        <ele>876.537</ele>
        <time>2018-06-15T10:06:27Z</time>
      </trkpt>
      <trkpt lat="42.451648" lon="-5.277005">
        <ele>876.910</ele>
        <time>2018-06-15T10:06:28Z</time>
      </trkpt>
      <trkpt lat="42.451671" lon="-5.277067">
        <ele>877.153</ele>
        <time>2018-06-15T10:06:29Z</time>
      </trkpt>
      <trkpt lat="42.451697" lon="-5.277123">
        <ele>877.267</ele>
        <time>2018-06-15T10:06:30Z</time>
      </trkpt>
      <trkpt lat="42.451725" lon="-5.277185">
        <ele>877.316</ele>
        <time>2018-06-15T10:06:31Z</time>
      </trkpt>
      <trkpt lat="42.451751" lon="-5.277250">
        <ele>877.086</ele>
        <time>2018-06-15T10:06:32Z</time>
      </trkpt>
      <trkpt lat="42.451776" lon="-5.277314">
        <ele>876.876</ele>
        <time>2018-06-15T10:06:33Z</time>
      </trkpt>
      <trkpt lat="42.451800" lon="-5.277377">
        <ele>876.796</ele>
        <time>2018-06-15T10:06:34Z</time>
      </trkpt>
      <trkpt lat="42.451823" lon="-5.277444">
        <ele>876.658</ele>
        <time>2018-06-15T10:06:35Z</time>
      </trkpt>
      <trkpt lat="42.451850" lon="-5.277505">
        <ele>876.652</ele>
        <time>2018-06-15T10:06:36Z</time>
      </trkpt>
      <trkpt lat="42.451881" lon="-5.277577">
        <ele>876.617</ele>
        <time>2018-06-15T10:06:37Z</time>
      </trkpt>
      <trkpt lat="42.451908" lon="-5.277644">
        <ele>876.608</ele>
        <time>2018-06-15T10:06:38Z</time>
      </trkpt>
      <trkpt lat="42.451934" lon="-5.277709">
        <ele>876.647</ele>
        <time>2018-06-15T10:06:39Z</time>
      </trkpt>
      <trkpt lat="42.451964" lon="-5.277778">
        <ele>876.610</ele>
        <time>2018-06-15T10:06:40Z</time>
      </trkpt>
      <trkpt lat="42.451991" lon="-5.277844">
        <ele>876.663</ele>
        <time>2018-06-15T10:06:41Z</time>
      </trkpt>
      <trkpt lat="42.452018" lon="-5.277909">
        <ele>876.647</ele>
        <time>2018-06-15T10:06:42Z</time>
      </trkpt>
      <trkpt lat="42.452047" lon="-5.277984">
        <ele>876.696</ele>
        <time>2018-06-15T10:06:43Z</time>
      </trkpt>
      <trkpt lat="42.452074" lon="-5.278053">
        <ele>876.616</ele>
        <time>2018-06-15T10:06:44Z</time>
      </trkpt>
      <trkpt lat="42.452103" lon="-5.278118">
        <ele>876.216</ele>
        <time>2018-06-15T10:06:45Z</time>
      </trkpt>
      <trkpt lat="42.452132" lon="-5.278190">
        <ele>876.066</ele>
        <time>2018-06-15T10:06:46Z</time>
      </trkpt>
      <trkpt lat="42.452161" lon="-5.278261">
        <ele>875.974</ele>
        <time>2018-06-15T10:06:47Z</time>
      </trkpt>
      <trkpt lat="42.452189" lon="-5.278332">
        <ele>875.856</ele>
        <time>2018-06-15T10:06:48Z</time>
      </trkpt>
      <trkpt lat="42.452215" lon="-5.278403">
        <ele>875.721</ele>
        <time>2018-06-15T10:06:49Z</time>
      </trkpt>
      <trkpt lat="42.452245" lon="-5.278477">
        <ele>875.708</ele>
        <time>2018-06-15T10:06:50Z</time>
      </trkpt>
      <trkpt lat="42.452273" lon="-5.278546">
        <ele>875.759</ele>
        <time>2018-06-15T10:06:51Z</time>
      </trkpt>
      <trkpt lat="42.452298" lon="-5.278621">
        <ele>875.742</ele>
        <time>2018-06-15T10:06:52Z</time>
      </trkpt>
      <trkpt lat="42.452326" lon="-5.278688">
        <ele>875.785</ele>
        <time>2018-06-15T10:06:53Z</time>
      </trkpt>
      <trkpt lat="42.452355" lon="-5.278752">
        <ele>875.769</ele>
        <time>2018-06-15T10:06:54Z</time>
      </trkpt>
      <trkpt lat="42.452382" lon="-5.278822">
        <ele>875.338</ele>
        <time>2018-06-15T10:06:55Z</time>
      </trkpt>
      <trkpt lat="42.452410" lon="-5.278893">
        <ele>875.178</ele>
        <time>2018-06-15T10:06:56Z</time>
      </trkpt>
      <trkpt lat="42.452441" lon="-5.278967">
        <ele>875.028</ele>
        <time>2018-06-15T10:06:57Z</time>
      </trkpt>
      <trkpt lat="42.452474" lon="-5.279043">
        <ele>874.958</ele>
        <time>2018-06-15T10:06:58Z</time>
      </trkpt>
      <trkpt lat="42.452506" lon="-5.279122">
        <ele>874.469</ele>
        <time>2018-06-15T10:06:59Z</time>
      </trkpt>
      <trkpt lat="42.452538" lon="-5.279204">
        <ele>874.104</ele>
        <time>2018-06-15T10:07:00Z</time>
      </trkpt>
      <trkpt lat="42.452572" lon="-5.279287">
        <ele>873.524</ele>
        <time>2018-06-15T10:07:01Z</time>
      </trkpt>
      <trkpt lat="42.452605" lon="-5.279370">
        <ele>873.208</ele>
        <time>2018-06-15T10:07:02Z</time>
      </trkpt>
      <trkpt lat="42.452642" lon="-5.279455">
        <ele>873.098</ele>
        <time>2018-06-15T10:07:03Z</time>
      </trkpt>
      <trkpt lat="42.452676" lon="-5.279541">
        <ele>872.521</ele>
        <time>2018-06-15T10:07:04Z</time>
      </trkpt>
      <trkpt lat="42.452711" lon="-5.279625">
        <ele>872.224</ele>
        <time>2018-06-15T10:07:05Z</time>
      </trkpt>
      <trkpt lat="42.452745" lon="-5.279716">
        <ele>872.068</ele>
        <time>2018-06-15T10:07:06Z</time>
      </trkpt>
      <trkpt lat="42.452778" lon="-5.279802">
        <ele>871.917</ele>
        <time>2018-06-15T10:07:07Z</time>
      </trkpt>
      <trkpt lat="42.452817" lon="-5.279890">
        <ele>871.497</ele>
        <time>2018-06-15T10:07:08Z</time>
      </trkpt>
      <trkpt lat="42.452850" lon="-5.279976">
        <ele>871.127</ele>
        <time>2018-06-15T10:07:09Z</time>
      </trkpt>
      <trkpt lat="42.452887" lon="-5.280060">
        <ele>870.567</ele>
        <time>2018-06-15T10:07:10Z</time>
      </trkpt>
      <trkpt lat="42.452922" lon="-5.280148">
        <ele>870.292</ele>
        <time>2018-06-15T10:07:11Z</time>
      </trkpt>
      <trkpt lat="42.452958" lon="-5.280235">
        <ele>870.073</ele>
        <time>2018-06-15T10:07:12Z</time>
      </trkpt>
      <trkpt lat="42.452995" lon="-5.280312">
        <ele>869.920</ele>
        <time>2018-06-15T10:07:13Z</time>
      </trkpt>
      <trkpt lat="42.453030" lon="-5.280393">
        <ele>869.808</ele>
        <time>2018-06-15T10:07:14Z</time>
      </trkpt>
      <trkpt lat="42.453064" lon="-5.280476">
        <ele>869.461</ele>
        <time>2018-06-15T10:07:15Z</time>
      </trkpt>
      <trkpt lat="42.453099" lon="-5.280564">
        <ele>869.134</ele>
        <time>2018-06-15T10:07:16Z</time>
      </trkpt>
      <trkpt lat="42.453131" lon="-5.280643">
        <ele>868.957</ele>
        <time>2018-06-15T10:07:17Z</time>
      </trkpt>
      <trkpt lat="42.453166" lon="-5.280721">
        <ele>868.881</ele>
        <time>2018-06-15T10:07:18Z</time>
      </trkpt>
      <trkpt lat="42.453199" lon="-5.280801">
        <ele>868.740</ele>
        <time>2018-06-15T10:07:19Z</time>
      </trkpt>
      <trkpt lat="42.453230" lon="-5.280877">
        <ele>868.760</ele>
        <time>2018-06-15T10:07:20Z</time>
      </trkpt>
      <trkpt lat="42.453264" lon="-5.280951">
        <ele>868.790</ele>
        <time>2018-06-15T10:07:21Z</time>
      </trkpt>
      <trkpt lat="42.453300" lon="-5.281018">
        <ele>868.330</ele>
        <time>2018-06-15T10:07:22Z</time>
      </trkpt>
      <trkpt lat="42.453328" lon="-5.281087">
        <ele>868.146</ele>
        <time>2018-06-15T10:07:23Z</time>
      </trkpt>
      <trkpt lat="42.453359" lon="-5.281160">
        <ele>868.088</ele>
        <time>2018-06-15T10:07:24Z</time>
      </trkpt>
      <trkpt lat="42.453388" lon="-5.281235">
        <ele>868.316</ele>
        <time>2018-06-15T10:07:25Z</time>
      </trkpt>
      <trkpt lat="42.453418" lon="-5.281306">
        <ele>868.508</ele>
        <time>2018-06-15T10:07:26Z</time>
      </trkpt>
      <trkpt lat="42.453447" lon="-5.281377">
        <ele>868.646</ele>
        <time>2018-06-15T10:07:27Z</time>
      </trkpt>
      <trkpt lat="42.453475" lon="-5.281450">
        <ele>868.719</ele>
        <time>2018-06-15T10:07:28Z</time>
      </trkpt>
      <trkpt lat="42.453506" lon="-5.281520">
        <ele>868.782</ele>
        <time>2018-06-15T10:07:29Z</time>
      </trkpt>
      <trkpt lat="42.453538" lon="-5.281589">
        <ele>868.756</ele>
        <time>2018-06-15T10:07:30Z</time>
      </trkpt>
      <trkpt lat="42.453568" lon="-5.281661">
        <ele>868.785</ele>
        <time>2018-06-15T10:07:31Z</time>
      </trkpt>
      <trkpt lat="42.453598" lon="-5.281728">
        <ele>868.795</ele>
        <time>2018-06-15T10:07:32Z</time>
      </trkpt>
      <trkpt lat="42.453627" lon="-5.281796">
        <ele>868.715</ele>
        <time>2018-06-15T10:07:33Z</time>
      </trkpt>
      <trkpt lat="42.453655" lon="-5.281860">
        <ele>868.775</ele>
        <time>2018-06-15T10:07:34Z</time>
      </trkpt>
      <trkpt lat="42.453683" lon="-5.281924">
        <ele>868.721</ele>
        <time>2018-06-15T10:07:35Z</time>
      </trkpt>
      <trkpt lat="42.453707" lon="-5.281988">
        <ele>868.741</ele>
        <time>2018-06-15T10:07:36Z</time>
      </trkpt>
      <trkpt lat="42.453728" lon="-5.282055">
        <ele>868.705</ele>
        <time>2018-06-15T10:07:37Z</time>
      </trkpt>
      <trkpt lat="42.453754" lon="-5.282119">
        <ele>868.708</ele>
        <time>2018-06-15T10:07:38Z</time>
      </trkpt>
      <trkpt lat="42.453784" lon="-5.282178">
        <ele>868.764</ele>
        <time>2018-06-15T10:07:39Z</time>
      </trkpt>
      <trkpt lat="42.453810" lon="-5.282242">
        <ele>868.757</ele>
        <time>2018-06-15T10:07:40Z</time>
      </trkpt>
      <trkpt lat="42.453834" lon="-5.282309">
        <ele>868.760</ele>
        <time>2018-06-15T10:07:41Z</time>
      </trkpt>
      <trkpt lat="42.453861" lon="-5.282371">
        <ele>868.734</ele>
        <time>2018-06-15T10:07:42Z</time>
      </trkpt>
      <trkpt lat="42.453885" lon="-5.282434">
        <ele>868.743</ele>
        <time>2018-06-15T10:07:43Z</time>
      </trkpt>
      <trkpt lat="42.453914" lon="-5.282496">
        <ele>868.773</ele>
        <time>2018-06-15T10:07:44Z</time>
      </trkpt>
      <trkpt lat="42.453943" lon="-5.282559">
        <ele>868.783</ele>
        <time>2018-06-15T10:07:45Z</time>
      </trkpt>
      <trkpt lat="42.453969" lon="-5.282620">
        <ele>868.723</ele>
        <time>2018-06-15T10:07:46Z</time>
      </trkpt>
      <trkpt lat="42.453995" lon="-5.282681">
        <ele>868.785</ele>
        <time>2018-06-15T10:07:47Z</time>
      </trkpt>
      <trkpt lat="42.454022" lon="-5.282743">
        <ele>868.789</ele>
        <time>2018-06-15T10:07:48Z</time>
      </trkpt>
      <trkpt lat="42.454048" lon="-5.282808">
        <ele>869.117</ele>
        <time>2018-06-15T10:07:49Z</time>
      </trkpt>
      <trkpt lat="42.454074" lon="-5.282871">
        <ele>869.308</ele>
        <time>2018-06-15T10:07:50Z</time>
      </trkpt>
      <trkpt lat="42.454102" lon="-5.282934">
        <ele>869.470</ele>
        <time>2018-06-15T10:07:51Z</time>
      </trkpt>
      <trkpt lat="42.454130" lon="-5.282993">
        <ele>869.563</ele>
        <time>2018-06-15T10:07:52Z</time>
      </trkpt>
      <trkpt lat="42.454161" lon="-5.283057">
        <ele>869.656</ele>
        <time>2018-06-15T10:07:53Z</time>
      </trkpt>
      <trkpt lat="42.454186" lon="-5.283121">
        <ele>869.640</ele>
        <time>2018-06-15T10:07:54Z</time>
      </trkpt>
      <trkpt lat="42.454210" lon="-5.283182">
        <ele>869.649</ele>
        <time>2018-06-15T10:07:55Z</time>
      </trkpt>
      <trkpt lat="42.454235" lon="-5.283249">
        <ele>869.659</ele>
        <time>2018-06-15T10:07:56Z</time>
      </trkpt>
      <trkpt lat="42.454260" lon="-5.283311">
        <ele>870.029</ele>
        <time>2018-06-15T10:07:57Z</time>
      </trkpt>
      <trkpt lat="42.454285" lon="-5.283375">
        <ele>870.239</ele>
        <time>2018-06-15T10:07:58Z</time>
      </trkpt>
      <trkpt lat="42.454309" lon="-5.283441">
        <ele>870.368</ele>
        <time>2018-06-15T10:07:59Z</time>
      </trkpt>
      <trkpt lat="42.454334" lon="-5.283502">
        <ele>870.442</ele>
        <time>2018-06-15T10:08:00Z</time>
      </trkpt>
      <trkpt lat="42.454361" lon="-5.283565">
        <ele>870.526</ele>
        <time>2018-06-15T10:08:01Z</time>
      </trkpt>
      <trkpt lat="42.454389" lon="-5.283629">
        <ele>870.508</ele>
        <time>2018-06-15T10:08:02Z</time>
      </trkpt>
      <trkpt lat="42.454416" lon="-5.283694">
        <ele>870.528</ele>
        <time>2018-06-15T10:08:03Z</time>
      </trkpt>
      <trkpt lat="42.454443" lon="-5.283757">
        <ele>870.591</ele>
        <time>2018-06-15T10:08:04Z</time>
      </trkpt>
      <trkpt lat="42.454471" lon="-5.283823">
        <ele>870.514</ele>
        <time>2018-06-15T10:08:05Z</time>
      </trkpt>
      <trkpt lat="42.454498" lon="-5.283886">
        <ele>870.588</ele>
        <time>2018-06-15T10:08:06Z</time>
      </trkpt>
      <trkpt lat="42.454526" lon="-5.283954">
        <ele>870.517</ele>
        <time>2018-06-15T10:08:07Z</time>
      </trkpt>
      <trkpt lat="42.454552" lon="-5.284017">
        <ele>870.597</ele>
        <time>2018-06-15T10:08:08Z</time>
      </trkpt>
      <trkpt lat="42.454579" lon="-5.284084">
        <ele>870.517</ele>
        <time>2018-06-15T10:08:09Z</time>
      </trkpt>
      <trkpt lat="42.454607" lon="-5.284149">
        <ele>870.547</ele>
        <time>2018-06-15T10:08:10Z</time>
      </trkpt>
      <trkpt lat="42.454634" lon="-5.284215">
        <ele>870.977</ele>
        <time>2018-06-15T10:08:11Z</time>
      </trkpt>
      <trkpt lat="42.454660" lon="-5.284280">
        <ele>871.161</ele>
        <time>2018-06-15T10:08:12Z</time>
      </trkpt>
      <trkpt lat="42.454688" lon="-5.284344">
        <ele>871.227</ele>
        <time>2018-06-15T10:08:13Z</time>
      </trkpt>
      <trkpt lat="42.454719" lon="-5.284412">
        <ele>871.308</ele>
        <time>2018-06-15T10:08:14Z</time>
      </trkpt>
      <trkpt lat="42.454750" lon="-5.284478">
        <ele>871.419</ele>
        <time>2018-06-15T10:08:15Z</time>
      </trkpt>
      <trkpt lat="42.454779" lon="-5.284549">
        <ele>871.422</ele>
        <time>2018-06-15T10:08:16Z</time>
      </trkpt>
      <trkpt lat="42.454806" lon="-5.284613">
        <ele>871.495</ele>
        <time>2018-06-15T10:08:17Z</time>
      </trkpt>
      <trkpt lat="42.454835" lon="-5.284680">
        <ele>871.489</ele>
        <time>2018-06-15T10:08:18Z</time>
      </trkpt>
      <trkpt lat="42.454865" lon="-5.284746">
        <ele>871.488</ele>
        <time>2018-06-15T10:08:19Z</time>
      </trkpt>
      <trkpt lat="42.454892" lon="-5.284808">
        <ele>871.488</ele>
        <time>2018-06-15T10:08:20Z</time>
      </trkpt>
      <trkpt lat="42.454918" lon="-5.284874">
        <ele>871.448</ele>
        <time>2018-06-15T10:08:21Z</time>
      </trkpt>
      <trkpt lat="42.454945" lon="-5.284940">
        <ele>871.428</ele>
        <time>2018-06-15T10:08:22Z</time>
      </trkpt>
      <trkpt lat="42.454971" lon="-5.285002">
        <ele>871.465</ele>
        <time>2018-06-15T10:08:23Z</time>
      </trkpt>
      <trkpt lat="42.454999" lon="-5.285067">
        <ele>871.468</ele>
        <time>2018-06-15T10:08:24Z</time>
      </trkpt>
      <trkpt lat="42.455025" lon="-5.285130">
        <ele>871.414</ele>
        <time>2018-06-15T10:08:25Z</time>
      </trkpt>
      <trkpt lat="42.455049" lon="-5.285198">
        <ele>871.808</ele>
        <time>2018-06-15T10:08:26Z</time>
      </trkpt>
      <trkpt lat="42.455077" lon="-5.285263">
        <ele>872.068</ele>
        <time>2018-06-15T10:08:27Z</time>
      </trkpt>
      <trkpt lat="42.455104" lon="-5.285329">
        <ele>872.161</ele>
        <time>2018-06-15T10:08:28Z</time>
      </trkpt>
      <trkpt lat="42.455132" lon="-5.285396">
        <ele>872.264</ele>
        <time>2018-06-15T10:08:29Z</time>
      </trkpt>
      <trkpt lat="42.455162" lon="-5.285461">
        <ele>872.378</ele>
        <time>2018-06-15T10:08:30Z</time>
      </trkpt>
      <trkpt lat="42.455190" lon="-5.285523">
        <ele>871.937</ele>
        <time>2018-06-15T10:08:31Z</time>
      </trkpt>
      <trkpt lat="42.455218" lon="-5.285591">
        <ele>871.797</ele>
        <time>2018-06-15T10:08:32Z</time>
      </trkpt>
      <trkpt lat="42.455246" lon="-5.285654">
        <ele>871.677</ele>
        <time>2018-06-15T10:08:33Z</time>
      </trkpt>
      <trkpt lat="42.455272" lon="-5.285723">
        <ele>871.527</ele>
        <time>2018-06-15T10:08:34Z</time>
      </trkpt>
      <trkpt lat="42.455301" lon="-5.285787">
        <ele>871.574</ele>
        <time>2018-06-15T10:08:35Z</time>
      </trkpt>
      <trkpt lat="42.455327" lon="-5.285853">
        <ele>871.556</ele>
        <time>2018-06-15T10:08:36Z</time>
      </trkpt>
      <trkpt lat="42.455356" lon="-5.285922">
        <ele>871.521</ele>
        <time>2018-06-15T10:08:37Z</time>
      </trkpt>
      <trkpt lat="42.455382" lon="-5.285992">
        <ele>871.508</ele>
        <time>2018-06-15T10:08:38Z</time>
      </trkpt>
      <trkpt lat="42.455410" lon="-5.286062">
        <ele>871.549</ele>
        <time>2018-06-15T10:08:39Z</time>
      </trkpt>
      <trkpt lat="42.455435" lon="-5.286126">
        <ele>871.962</ele>
        <time>2018-06-15T10:08:40Z</time>
      </trkpt>
      <trkpt lat="42.455462" lon="-5.286193">
        <ele>872.185</ele>
        <time>2018-06-15T10:08:41Z</time>
      </trkpt>
      <trkpt lat="42.455490" lon="-5.286253">
        <ele>872.289</ele>
        <time>2018-06-15T10:08:42Z</time>
      </trkpt>
      <trkpt lat="42.455515" lon="-5.286314">
        <ele>872.388</ele>
        <time>2018-06-15T10:08:43Z</time>
      </trkpt>
      <trkpt lat="42.455539" lon="-5.286377">
        <ele>872.488</ele>
        <time>2018-06-15T10:08:44Z</time>
      </trkpt>
      <trkpt lat="42.455564" lon="-5.286439">
        <ele>872.038</ele>
        <time>2018-06-15T10:08:45Z</time>
      </trkpt>
      <trkpt lat="42.455591" lon="-5.286503">
        <ele>872.298</ele>
        <time>2018-06-15T10:08:46Z</time>
      </trkpt>
      <trkpt lat="42.455618" lon="-5.286563">
        <ele>872.358</ele>
        <time>2018-06-15T10:08:47Z</time>
      </trkpt>
      <trkpt lat="42.455643" lon="-5.286623">
        <ele>872.452</ele>
        <time>2018-06-15T10:08:48Z</time>
      </trkpt>
      <trkpt lat="42.455674" lon="-5.286685">
        <ele>872.417</ele>
        <time>2018-06-15T10:08:49Z</time>
      </trkpt>
      <trkpt lat="42.455698" lon="-5.286745">
        <ele>872.408</ele>
        <time>2018-06-15T10:08:50Z</time>
      </trkpt>
      <trkpt lat="42.455725" lon="-5.286808">
        <ele>872.457</ele>
        <time>2018-06-15T10:08:51Z</time>
      </trkpt>
      <trkpt lat="42.455753" lon="-5.286870">
        <ele>872.430</ele>
        <time>2018-06-15T10:08:52Z</time>
      </trkpt>
      <trkpt lat="42.455779" lon="-5.286932">
        <ele>872.433</ele>
        <time>2018-06-15T10:08:53Z</time>
      </trkpt>
      <trkpt lat="42.455807" lon="-5.286993">
        <ele>872.067</ele>
        <time>2018-06-15T10:08:54Z</time>
      </trkpt>
      <trkpt lat="42.455832" lon="-5.287056">
        <ele>871.856</ele>
        <time>2018-06-15T10:08:55Z</time>
      </trkpt>
      <trkpt lat="42.455857" lon="-5.287119">
        <ele>871.796</ele>
        <time>2018-06-15T10:08:56Z</time>
      </trkpt>
      <trkpt lat="42.455882" lon="-5.287180">
        <ele>872.096</ele>
        <time>2018-06-15T10:08:57Z</time>
      </trkpt>
      <trkpt lat="42.455909" lon="-5.287241">
        <ele>872.296</ele>
        <time>2018-06-15T10:08:58Z</time>
      </trkpt>
      <trkpt lat="42.455936" lon="-5.287302">
        <ele>871.994</ele>
        <time>2018-06-15T10:08:59Z</time>
      </trkpt>
      <trkpt lat="42.455961" lon="-5.287364">
        <ele>871.757</ele>
        <time>2018-06-15T10:09:00Z</time>
      </trkpt>
      <trkpt lat="42.455986" lon="-5.287422">
        <ele>871.622</ele>
        <time>2018-06-15T10:09:01Z</time>
      </trkpt>
      <trkpt lat="42.456011" lon="-5.287482">
        <ele>871.508</ele>
        <time>2018-06-15T10:09:02Z</time>
      </trkpt>
      <trkpt lat="42.456035" lon="-5.287543">
        <ele>871.571</ele>
        <time>2018-06-15T10:09:03Z</time>
      </trkpt>
      <trkpt lat="42.456061" lon="-5.287605">
        <ele>871.554</ele>
        <time>2018-06-15T10:09:04Z</time>
      </trkpt>
      <trkpt lat="42.456090" lon="-5.287670">
        <ele>871.567</ele>
        <time>2018-06-15T10:09:05Z</time>
      </trkpt>
      <trkpt lat="42.456117" lon="-5.287733">
        <ele>871.521</ele>
        <time>2018-06-15T10:09:06Z</time>
      </trkpt>
      <trkpt lat="42.456140" lon="-5.287799">
        <ele>871.530</ele>
        <time>2018-06-15T10:09:07Z</time>
      </trkpt>
      <trkpt lat="42.456165" lon="-5.287860">
        <ele>871.910</ele>
        <time>2018-06-15T10:09:08Z</time>
      </trkpt>
      <trkpt lat="42.456190" lon="-5.287916">
        <ele>872.120</ele>
        <time>2018-06-15T10:09:09Z</time>
      </trkpt>
      <trkpt lat="42.456220" lon="-5.287976">
        <ele>872.210</ele>
        <time>2018-06-15T10:09:10Z</time>
      </trkpt>
      <trkpt lat="42.456245" lon="-5.288040">
        <ele>872.348</ele>
        <time>2018-06-15T10:09:11Z</time>
      </trkpt>
      <trkpt lat="42.456268" lon="-5.288104">
        <ele>872.461</ele>
        <time>2018-06-15T10:09:12Z</time>
      </trkpt>
      <trkpt lat="42.456292" lon="-5.288167">
        <ele>872.417</ele>
        <time>2018-06-15T10:09:13Z</time>
      </trkpt>
      <trkpt lat="42.456318" lon="-5.288230">
        <ele>872.408</ele>
        <time>2018-06-15T10:09:14Z</time>
      </trkpt>
      <trkpt lat="42.456344" lon="-5.288290">
        <ele>872.416</ele>
        <time>2018-06-15T10:09:15Z</time>
      </trkpt>
      <trkpt lat="42.456369" lon="-5.288348">
        <ele>872.419</ele>
        <time>2018-06-15T10:09:16Z</time>
      </trkpt>
      <trkpt lat="42.456392" lon="-5.288408">
        <ele>872.432</ele>
        <time>2018-06-15T10:09:17Z</time>
      </trkpt>
      <trkpt lat="42.456419" lon="-5.288466">
        <ele>872.476</ele>
        <time>2018-06-15T10:09:18Z</time>
      </trkpt>
      <trkpt lat="42.456447" lon="-5.288526">
        <ele>872.415</ele>
        <time>2018-06-15T10:09:19Z</time>
      </trkpt>
      <trkpt lat="42.456473" lon="-5.288593">
        <ele>872.435</ele>
        <time>2018-06-15T10:09:20Z</time>
      </trkpt>
      <trkpt lat="42.456500" lon="-5.288659">
        <ele>872.435</ele>
        <time>2018-06-15T10:09:21Z</time>
      </trkpt>
      <trkpt lat="42.456526" lon="-5.288719">
        <ele>872.415</ele>
        <time>2018-06-15T10:09:22Z</time>
      </trkpt>
      <trkpt lat="42.456552" lon="-5.288784">
        <ele>872.457</ele>
        <time>2018-06-15T10:09:23Z</time>
      </trkpt>
      <trkpt lat="42.456580" lon="-5.288854">
        <ele>872.400</ele>
        <time>2018-06-15T10:09:24Z</time>
      </trkpt>
      <trkpt lat="42.456605" lon="-5.288917">
        <ele>872.420</ele>
        <time>2018-06-15T10:09:25Z</time>
      </trkpt>
      <trkpt lat="42.456634" lon="-5.288980">
        <ele>872.408</ele>
        <time>2018-06-15T10:09:26Z</time>
      </trkpt>
      <trkpt lat="42.456663" lon="-5.289042">
        <ele>872.447</ele>
        <time>2018-06-15T10:09:27Z</time>
      </trkpt>
      <trkpt lat="42.456690" lon="-5.289107">
        <ele>872.420</ele>
        <time>2018-06-15T10:09:28Z</time>
      </trkpt>
      <trkpt lat="42.456719" lon="-5.289170">
        <ele>872.483</ele>
        <time>2018-06-15T10:09:29Z</time>
      </trkpt>
      <trkpt lat="42.456747" lon="-5.289231">
        <ele>872.497</ele>
        <time>2018-06-15T10:09:30Z</time>
      </trkpt>
      <trkpt lat="42.456772" lon="-5.289295">
        <ele>872.426</ele>
        <time>2018-06-15T10:09:31Z</time>
      </trkpt>
      <trkpt lat="42.456798" lon="-5.289364">
        <ele>872.446</ele>
        <time>2018-06-15T10:09:32Z</time>
      </trkpt>
      <trkpt lat="42.456823" lon="-5.289432">
        <ele>872.446</ele>
        <time>2018-06-15T10:09:33Z</time>
      </trkpt>
      <trkpt lat="42.456852" lon="-5.289497">
        <ele>872.416</ele>
        <time>2018-06-15T10:09:34Z</time>
      </trkpt>
      <trkpt lat="42.456880" lon="-5.289562">
        <ele>872.473</ele>
        <time>2018-06-15T10:09:35Z</time>
      </trkpt>
      <trkpt lat="42.456905" lon="-5.289630">
        <ele>872.485</ele>
        <time>2018-06-15T10:09:36Z</time>
      </trkpt>
      <trkpt lat="42.456936" lon="-5.289692">
        <ele>872.413</ele>
        <time>2018-06-15T10:09:37Z</time>
      </trkpt>
      <trkpt lat="42.456962" lon="-5.289754">
        <ele>872.408</ele>
        <time>2018-06-15T10:09:38Z</time>
      </trkpt>
      <trkpt lat="42.456990" lon="-5.289819">
        <ele>872.479</ele>
        <time>2018-06-15T10:09:39Z</time>
      </trkpt>
      <trkpt lat="42.457018" lon="-5.289880">
        <ele>872.422</ele>
        <time>2018-06-15T10:09:40Z</time>
      </trkpt>
      <trkpt lat="42.457043" lon="-5.289947">
        <ele>872.425</ele>
        <time>2018-06-15T10:09:41Z</time>
      </trkpt>
      <trkpt lat="42.457069" lon="-5.290013">
        <ele>872.489</ele>
        <time>2018-06-15T10:09:42Z</time>
      </trkpt>
      <trkpt lat="42.457098" lon="-5.290079">
        <ele>872.478</ele>
        <time>2018-06-15T10:09:43Z</time>
      </trkpt>
      <trkpt lat="42.457127" lon="-5.290147">
        <ele>872.458</ele>
        <time>2018-06-15T10:09:44Z</time>
      </trkpt>
      <trkpt lat="42.457153" lon="-5.290214">
        <ele>872.478</ele>
        <time>2018-06-15T10:09:45Z</time>
      </trkpt>
      <trkpt lat="42.457176" lon="-5.290283">
        <ele>872.448</ele>
        <time>2018-06-15T10:09:46Z</time>
      </trkpt>
      <trkpt lat="42.457206" lon="-5.290346">
        <ele>872.431</ele>
        <time>2018-06-15T10:09:47Z</time>
      </trkpt>
      <trkpt lat="42.457234" lon="-5.290406">
        <ele>872.461</ele>
        <time>2018-06-15T10:09:48Z</time>
      </trkpt>
      <trkpt lat="42.457264" lon="-5.290470">
        <ele>872.407</ele>
        <time>2018-06-15T10:09:49Z</time>
      </trkpt>
      <trkpt lat="42.457292" lon="-5.290534">
        <ele>872.408</ele>
        <time>2018-06-15T10:09:50Z</time>
      </trkpt>
      <trkpt lat="42.457320" lon="-5.290599">
        <ele>872.495</ele>
        <time>2018-06-15T10:09:51Z</time>
      </trkpt>
      <trkpt lat="42.457349" lon="-5.290663">
        <ele>872.488</ele>
        <time>2018-06-15T10:09:52Z</time>
      </trkpt>
      <trkpt lat="42.457376" lon="-5.290726">
        <ele>872.431</ele>
        <time>2018-06-15T10:09:53Z</time>
      </trkpt>
      <trkpt lat="42.457404" lon="-5.290794">
        <ele>872.465</ele>
        <time>2018-06-15T10:09:54Z</time>
      </trkpt>
      <trkpt lat="42.457433" lon="-5.290860">
        <ele>872.494</ele>
        <time>2018-06-15T10:09:55Z</time>
      </trkpt>
      <trkpt lat="42.457462" lon="-5.290923">
        <ele>872.474</ele>
        <time>2018-06-15T10:09:56Z</time>
      </trkpt>
      <trkpt lat="42.457489" lon="-5.290990">
        <ele>872.494</ele>
        <time>2018-06-15T10:09:57Z</time>
      </trkpt>
      <trkpt lat="42.457517" lon="-5.291054">
        <ele>872.434</ele>
        <time>2018-06-15T10:09:58Z</time>
      </trkpt>
      <trkpt lat="42.457542" lon="-5.291119">
        <ele>872.486</ele>
        <time>2018-06-15T10:09:59Z</time>
      </trkpt>
      <trkpt lat="42.457568" lon="-5.291184">
        <ele>872.460</ele>
        <time>2018-06-15T10:10:00Z</time>
      </trkpt>
      <trkpt lat="42.457595" lon="-5.291249">
        <ele>872.426</ele>
        <time>2018-06-15T10:10:01Z</time>
      </trkpt>
      <trkpt lat="42.457623" lon="-5.291315">
        <ele>872.408</ele>
        <time>2018-06-15T10:10:02Z</time>
      </trkpt>
      <trkpt lat="42.457651" lon="-5.291379">
        <ele>872.490</ele>
        <time>2018-06-15T10:10:03Z</time>
      </trkpt>
      <trkpt lat="42.457678" lon="-5.291445">
        <ele>872.443</ele>
        <time>2018-06-15T10:10:04Z</time>
      </trkpt>
      <trkpt lat="42.457706" lon="-5.291514">
        <ele>872.496</ele>
        <time>2018-06-15T10:10:05Z</time>
      </trkpt>
      <trkpt lat="42.457734" lon="-5.291579">
        <ele>872.430</ele>
        <time>2018-06-15T10:10:06Z</time>
      </trkpt>
      <trkpt lat="42.457761" lon="-5.291643">
        <ele>872.429</ele>
        <time>2018-06-15T10:10:07Z</time>
      </trkpt>
      <trkpt lat="42.457787" lon="-5.291708">
        <ele>872.499</ele>
        <time>2018-06-15T10:10:08Z</time>
      </trkpt>
      <trkpt lat="42.457814" lon="-5.291774">
        <ele>872.479</ele>
        <time>2018-06-15T10:10:09Z</time>
      </trkpt>
      <trkpt lat="42.457841" lon="-5.291839">
        <ele>872.469</ele>
        <time>2018-06-15T10:10:10Z</time>
      </trkpt>
      <trkpt lat="42.457868" lon="-5.291907">
        <ele>872.433</ele>
        <time>2018-06-15T10:10:11Z</time>
      </trkpt>
      <trkpt lat="42.457898" lon="-5.291973">
        <ele>872.423</ele>
        <time>2018-06-15T10:10:12Z</time>
      </trkpt>
      <trkpt lat="42.457927" lon="-5.292039">
        <ele>872.415</ele>
        <time>2018-06-15T10:10:13Z</time>
      </trkpt>
      <trkpt lat="42.457954" lon="-5.292106">
        <ele>872.408</ele>
        <time>2018-06-15T10:10:14Z</time>
      </trkpt>
      <trkpt lat="42.457982" lon="-5.292176">
        <ele>872.415</ele>
        <time>2018-06-15T10:10:15Z</time>
      </trkpt>
      <trkpt lat="42.458010" lon="-5.292247">
        <ele>872.488</ele>
        <time>2018-06-15T10:10:16Z</time>
      </trkpt>
      <trkpt lat="42.458037" lon="-5.292316">
        <ele>872.471</ele>
        <time>2018-06-15T10:10:17Z</time>
      </trkpt>
      <trkpt lat="42.458065" lon="-5.292381">
        <ele>872.455</ele>
        <time>2018-06-15T10:10:18Z</time>
      </trkpt>
      <trkpt lat="42.458093" lon="-5.292445">
        <ele>872.474</ele>
        <time>2018-06-15T10:10:19Z</time>
      </trkpt>
      <trkpt lat="42.458119" lon="-5.292510">
        <ele>872.484</ele>
        <time>2018-06-15T10:10:20Z</time>
      </trkpt>
      <trkpt lat="42.458145" lon="-5.292577">
        <ele>872.464</ele>
        <time>2018-06-15T10:10:21Z</time>
      </trkpt>
      <trkpt lat="42.458174" lon="-5.292643">
        <ele>872.474</ele>
        <time>2018-06-15T10:10:22Z</time>
      </trkpt>
      <trkpt lat="42.458204" lon="-5.292706">
        <ele>872.456</ele>
        <time>2018-06-15T10:10:23Z</time>
      </trkpt>
      <trkpt lat="42.458229" lon="-5.292767">
        <ele>872.459</ele>
        <time>2018-06-15T10:10:24Z</time>
      </trkpt>
      <trkpt lat="42.458253" lon="-5.292827">
        <ele>872.414</ele>
        <time>2018-06-15T10:10:25Z</time>
      </trkpt>
      <trkpt lat="42.458278" lon="-5.292890">
        <ele>872.408</ele>
        <time>2018-06-15T10:10:26Z</time>
      </trkpt>
      <trkpt lat="42.458306" lon="-5.292953">
        <ele>872.427</ele>
        <time>2018-06-15T10:10:27Z</time>
      </trkpt>
      <trkpt lat="42.458332" lon="-5.293014">
        <ele>872.420</ele>
        <time>2018-06-15T10:10:28Z</time>
      </trkpt>
      <trkpt lat="42.458363" lon="-5.293081">
        <ele>872.453</ele>
        <time>2018-06-15T10:10:29Z</time>
      </trkpt>
      <trkpt lat="42.458389" lon="-5.293150">
        <ele>872.427</ele>
        <time>2018-06-15T10:10:30Z</time>
      </trkpt>
      <trkpt lat="42.458413" lon="-5.293215">
        <ele>872.076</ele>
        <time>2018-06-15T10:10:31Z</time>
      </trkpt>
      <trkpt lat="42.458441" lon="-5.293282">
        <ele>871.856</ele>
        <time>2018-06-15T10:10:32Z</time>
      </trkpt>
      <trkpt lat="42.458471" lon="-5.293350">
        <ele>871.756</ele>
        <time>2018-06-15T10:10:33Z</time>
      </trkpt>
      <trkpt lat="42.458498" lon="-5.293413">
        <ele>871.676</ele>
        <time>2018-06-15T10:10:34Z</time>
      </trkpt>
      <trkpt lat="42.458524" lon="-5.293475">
        <ele>871.579</ele>
        <time>2018-06-15T10:10:35Z</time>
      </trkpt>
      <trkpt lat="42.458548" lon="-5.293535">
        <ele>871.505</ele>
        <time>2018-06-15T10:10:36Z</time>
      </trkpt>
      <trkpt lat="42.458569" lon="-5.293601">
        <ele>871.525</ele>
        <time>2018-06-15T10:10:37Z</time>
      </trkpt>
      <trkpt lat="42.458591" lon="-5.293668">
        <ele>871.108</ele>
        <time>2018-06-15T10:10:38Z</time>
      </trkpt>
      <trkpt lat="42.458612" lon="-5.293735">
        <ele>870.939</ele>
        <time>2018-06-15T10:10:39Z</time>
      </trkpt>
      <trkpt lat="42.458631" lon="-5.293801">
        <ele>870.842</ele>
        <time>2018-06-15T10:10:40Z</time>
      </trkpt>
      <trkpt lat="42.458650" lon="-5.293873">
        <ele>870.775</ele>
        <time>2018-06-15T10:10:41Z</time>
      </trkpt>
      <trkpt lat="42.458669" lon="-5.293944">
        <ele>870.669</ele>
        <time>2018-06-15T10:10:42Z</time>
      </trkpt>
      <trkpt lat="42.458691" lon="-5.294015">
        <ele>870.628</ele>
        <time>2018-06-15T10:10:43Z</time>
      </trkpt>
      <trkpt lat="42.458712" lon="-5.294089">
        <ele>870.658</ele>
        <time>2018-06-15T10:10:44Z</time>
      </trkpt>
      <trkpt lat="42.458734" lon="-5.294165">
        <ele>870.248</ele>
        <time>2018-06-15T10:10:45Z</time>
      </trkpt>
      <trkpt lat="42.458754" lon="-5.294237">
        <ele>870.018</ele>
        <time>2018-06-15T10:10:46Z</time>
      </trkpt>
      <trkpt lat="42.458777" lon="-5.294312">
        <ele>869.925</ele>
        <time>2018-06-15T10:10:47Z</time>
      </trkpt>
      <trkpt lat="42.458799" lon="-5.294390">
        <ele>869.426</ele>
        <time>2018-06-15T10:10:48Z</time>
      </trkpt>
      <trkpt lat="42.458823" lon="-5.294467">
        <ele>869.108</ele>
        <time>2018-06-15T10:10:49Z</time>
      </trkpt>
      <trkpt lat="42.458846" lon="-5.294544">
        <ele>868.908</ele>
        <time>2018-06-15T10:10:50Z</time>
      </trkpt>
      <trkpt lat="42.458869" lon="-5.294627">
        <ele>868.814</ele>
        <time>2018-06-15T10:10:51Z</time>
      </trkpt>
      <trkpt lat="42.458892" lon="-5.294707">
        <ele>868.357</ele>
        <time>2018-06-15T10:10:52Z</time>
      </trkpt>
      <trkpt lat="42.458913" lon="-5.294784">
        <ele>868.040</ele>
        <time>2018-06-15T10:10:53Z</time>
      </trkpt>
      <trkpt lat="42.458938" lon="-5.294862">
        <ele>867.864</ele>
        <time>2018-06-15T10:10:54Z</time>
      </trkpt>
      <trkpt lat="42.458960" lon="-5.294944">
        <ele>867.733</ele>
        <time>2018-06-15T10:10:55Z</time>
      </trkpt>
      <trkpt lat="42.458986" lon="-5.295025">
        <ele>867.673</ele>
        <time>2018-06-15T10:10:56Z</time>
      </trkpt>
      <trkpt lat="42.459007" lon="-5.295106">
        <ele>867.283</ele>
        <time>2018-06-15T10:10:57Z</time>
      </trkpt>
      <trkpt lat="42.459029" lon="-5.295184">
        <ele>866.913</ele>
        <time>2018-06-15T10:10:58Z</time>
      </trkpt>
      <trkpt lat="42.459051" lon="-5.295265">
        <ele>866.755</ele>
        <time>2018-06-15T10:10:59Z</time>
      </trkpt>
      <trkpt lat="42.459074" lon="-5.295344">
        <ele>867.007</ele>
        <time>2018-06-15T10:11:00Z</time>
      </trkpt>
      <trkpt lat="42.459095" lon="-5.295425">
        <ele>867.217</ele>
        <time>2018-06-15T10:11:01Z</time>
      </trkpt>
      <trkpt lat="42.459118" lon="-5.295505">
        <ele>867.308</ele>
        <time>2018-06-15T10:11:02Z</time>
      </trkpt>
      <trkpt lat="42.459139" lon="-5.295585">
        <ele>867.477</ele>
        <time>2018-06-15T10:11:03Z</time>
      </trkpt>
      <trkpt lat="42.459162" lon="-5.295662">
        <ele>867.440</ele>
        <time>2018-06-15T10:11:04Z</time>
      </trkpt>
      <trkpt lat="42.459187" lon="-5.295738">
        <ele>867.413</ele>
        <time>2018-06-15T10:11:05Z</time>
      </trkpt>
      <trkpt lat="42.459209" lon="-5.295809">
        <ele>867.437</ele>
        <time>2018-06-15T10:11:06Z</time>
      </trkpt>
      <trkpt lat="42.459233" lon="-5.295884">
        <ele>867.436</ele>
        <time>2018-06-15T10:11:07Z</time>
      </trkpt>
      <trkpt lat="42.459249" lon="-5.295959">
        <ele>867.496</ele>
        <time>2018-06-15T10:11:08Z</time>
      </trkpt>
      <trkpt lat="42.459270" lon="-5.296033">
        <ele>867.476</ele>
        <time>2018-06-15T10:11:09Z</time>
      </trkpt>
      <trkpt lat="42.459291" lon="-5.296102">
        <ele>867.496</ele>
        <time>2018-06-15T10:11:10Z</time>
      </trkpt>
      <trkpt lat="42.459311" lon="-5.296173">
        <ele>867.869</ele>
        <time>2018-06-15T10:11:11Z</time>
      </trkpt>
      <trkpt lat="42.459331" lon="-5.296242">
        <ele>868.004</ele>
        <time>2018-06-15T10:11:12Z</time>
      </trkpt>
      <trkpt lat="42.459348" lon="-5.296306">
        <ele>867.724</ele>
        <time>2018-06-15T10:11:13Z</time>
      </trkpt>
      <trkpt lat="42.459365" lon="-5.296377">
        <ele>867.908</ele>
        <time>2018-06-15T10:11:14Z</time>
      </trkpt>
      <trkpt lat="42.459385" lon="-5.296446">
        <ele>868.088</ele>
        <time>2018-06-15T10:11:15Z</time>
      </trkpt>
      <trkpt lat="42.459404" lon="-5.296509">
        <ele>868.161</ele>
        <time>2018-06-15T10:11:16Z</time>
      </trkpt>
      <trkpt lat="42.459424" lon="-5.296572">
        <ele>868.264</ele>
        <time>2018-06-15T10:11:17Z</time>
      </trkpt>
      <trkpt lat="42.459447" lon="-5.296641">
        <ele>868.238</ele>
        <time>2018-06-15T10:11:18Z</time>
      </trkpt>
      <trkpt lat="42.459468" lon="-5.296709">
        <ele>868.247</ele>
        <time>2018-06-15T10:11:19Z</time>
      </trkpt>
      <trkpt lat="42.459487" lon="-5.296778">
        <ele>868.677</ele>
        <time>2018-06-15T10:11:20Z</time>
      </trkpt>
      <trkpt lat="42.459507" lon="-5.296845">
        <ele>868.817</ele>
        <time>2018-06-15T10:11:21Z</time>
      </trkpt>
      <trkpt lat="42.459525" lon="-5.296913">
        <ele>868.957</ele>
        <time>2018-06-15T10:11:22Z</time>
      </trkpt>
      <trkpt lat="42.459544" lon="-5.296979">
        <ele>869.084</ele>
        <time>2018-06-15T10:11:23Z</time>
      </trkpt>
      <trkpt lat="42.459564" lon="-5.297045">
        <ele>869.107</ele>
        <time>2018-06-15T10:11:24Z</time>
      </trkpt>
      <trkpt lat="42.459582" lon="-5.297111">
        <ele>869.117</ele>
        <time>2018-06-15T10:11:25Z</time>
      </trkpt>
      <trkpt lat="42.459601" lon="-5.297183">
        <ele>869.508</ele>
        <time>2018-06-15T10:11:26Z</time>
      </trkpt>
      <trkpt lat="42.459621" lon="-5.297255">
        <ele>869.880</ele>
        <time>2018-06-15T10:11:27Z</time>
      </trkpt>
      <trkpt lat="42.459641" lon="-5.297325">
        <ele>870.053</ele>
        <time>2018-06-15T10:11:28Z</time>
      </trkpt>
      <trkpt lat="42.459661" lon="-5.297397">
        <ele>870.126</ele>
        <time>2018-06-15T10:11:29Z</time>
      </trkpt>
      <trkpt lat="42.459681" lon="-5.297465">
        <ele>870.280</ele>
        <time>2018-06-15T10:11:30Z</time>
      </trkpt>
      <trkpt lat="42.459700" lon="-5.297532">
        <ele>870.249</ele>
        <time>2018-06-15T10:11:31Z</time>
      </trkpt>
      <trkpt lat="42.459720" lon="-5.297591">
        <ele>870.269</ele>
        <time>2018-06-15T10:11:32Z</time>
      </trkpt>
      <trkpt lat="42.459737" lon="-5.297657">
        <ele>870.289</ele>
        <time>2018-06-15T10:11:33Z</time>
      </trkpt>
      <trkpt lat="42.459757" lon="-5.297725">
        <ele>870.289</ele>
        <time>2018-06-15T10:11:34Z</time>
      </trkpt>
      <trkpt lat="42.459780" lon="-5.297792">
        <ele>870.219</ele>
        <time>2018-06-15T10:11:35Z</time>
      </trkpt>
      <trkpt lat="42.459800" lon="-5.297859">
        <ele>870.609</ele>
        <time>2018-06-15T10:11:36Z</time>
      </trkpt>
      <trkpt lat="42.459821" lon="-5.297923">
        <ele>870.819</ele>
        <time>2018-06-15T10:11:37Z</time>
      </trkpt>
      <trkpt lat="42.459840" lon="-5.297995">
        <ele>870.908</ele>
        <time>2018-06-15T10:11:38Z</time>
      </trkpt>
      <trkpt lat="42.459858" lon="-5.298063">
        <ele>871.093</ele>
        <time>2018-06-15T10:11:39Z</time>
      </trkpt>
      <trkpt lat="42.459877" lon="-5.298137">
        <ele>871.146</ele>
        <time>2018-06-15T10:11:40Z</time>
      </trkpt>
      <trkpt lat="42.459897" lon="-5.298208">
        <ele>871.159</ele>
        <time>2018-06-15T10:11:41Z</time>
      </trkpt>
      <trkpt lat="42.459916" lon="-5.298277">
        <ele>871.193</ele>
        <time>2018-06-15T10:11:42Z</time>
      </trkpt>
      <trkpt lat="42.459937" lon="-5.298346">
        <ele>871.162</ele>
        <time>2018-06-15T10:11:43Z</time>
      </trkpt>
      <trkpt lat="42.459958" lon="-5.298418">
        <ele>871.152</ele>
        <time>2018-06-15T10:11:44Z</time>
      </trkpt>
      <trkpt lat="42.459979" lon="-5.298484">
        <ele>870.722</ele>
        <time>2018-06-15T10:11:45Z</time>
      </trkpt>
      <trkpt lat="42.460003" lon="-5.298551">
        <ele>870.912</ele>
        <time>2018-06-15T10:11:46Z</time>
      </trkpt>
      <trkpt lat="42.460020" lon="-5.298622">
        <ele>870.698</ele>
        <time>2018-06-15T10:11:47Z</time>
      </trkpt>
      <trkpt lat="42.460038" lon="-5.298688">
        <ele>870.415</ele>
        <time>2018-06-15T10:11:48Z</time>
      </trkpt>
      <trkpt lat="42.460056" lon="-5.298755">
        <ele>870.326</ele>
        <time>2018-06-15T10:11:49Z</time>
      </trkpt>
      <trkpt lat="42.460074" lon="-5.298824">
        <ele>870.208</ele>
        <time>2018-06-15T10:11:50Z</time>
      </trkpt>
      <trkpt lat="42.460094" lon="-5.298887">
        <ele>870.231</ele>
        <time>2018-06-15T10:11:51Z</time>
      </trkpt>
      <trkpt lat="42.460112" lon="-5.298955">
        <ele>870.294</ele>
        <time>2018-06-15T10:11:52Z</time>
      </trkpt>
      <trkpt lat="42.460131" lon="-5.299019">
        <ele>870.617</ele>
        <time>2018-06-15T10:11:53Z</time>
      </trkpt>
      <trkpt lat="42.460152" lon="-5.299085">
        <ele>870.821</ele>
        <time>2018-06-15T10:11:54Z</time>
      </trkpt>
      <trkpt lat="42.460173" lon="-5.299157">
        <ele>870.920</ele>
        <time>2018-06-15T10:11:55Z</time>
      </trkpt>
      <trkpt lat="42.460192" lon="-5.299227">
        <ele>871.020</ele>
        <time>2018-06-15T10:11:56Z</time>
      </trkpt>
      <trkpt lat="42.460213" lon="-5.299292">
        <ele>871.190</ele>
        <time>2018-06-15T10:11:57Z</time>
      </trkpt>
      <trkpt lat="42.460232" lon="-5.299359">
        <ele>871.110</ele>
        <time>2018-06-15T10:11:58Z</time>
      </trkpt>
      <trkpt lat="42.460252" lon="-5.299426">
        <ele>871.186</ele>
        <time>2018-06-15T10:11:59Z</time>
      </trkpt>
      <trkpt lat="42.460270" lon="-5.299493">
        <ele>871.160</ele>
        <time>2018-06-15T10:12:00Z</time>
      </trkpt>
      <trkpt lat="42.460287" lon="-5.299558">
        <ele>871.126</ele>
        <time>2018-06-15T10:12:01Z</time>
      </trkpt>
      <trkpt lat="42.460307" lon="-5.299626">
        <ele>871.108</ele>
        <time>2018-06-15T10:12:02Z</time>
      </trkpt>
      <trkpt lat="42.460328" lon="-5.299691">
        <ele>871.120</ele>
        <time>2018-06-15T10:12:03Z</time>
      </trkpt>
      <trkpt lat="42.460349" lon="-5.299757">
        <ele>871.193</ele>
        <time>2018-06-15T10:12:04Z</time>
      </trkpt>
      <trkpt lat="42.460369" lon="-5.299824">
        <ele>871.146</ele>
        <time>2018-06-15T10:12:05Z</time>
      </trkpt>
      <trkpt lat="42.460388" lon="-5.299889">
        <ele>871.570</ele>
        <time>2018-06-15T10:12:06Z</time>
      </trkpt>
      <trkpt lat="42.460409" lon="-5.299952">
        <ele>871.799</ele>
        <time>2018-06-15T10:12:07Z</time>
      </trkpt>
      <trkpt lat="42.460432" lon="-5.300013">
        <ele>871.449</ele>
        <time>2018-06-15T10:12:08Z</time>
      </trkpt>
      <trkpt lat="42.460453" lon="-5.300077">
        <ele>871.639</ele>
        <time>2018-06-15T10:12:09Z</time>
      </trkpt>
      <trkpt lat="42.460473" lon="-5.300138">
        <ele>871.369</ele>
        <time>2018-06-15T10:12:10Z</time>
      </trkpt>
      <trkpt lat="42.460494" lon="-5.300197">
        <ele>871.126</ele>
        <time>2018-06-15T10:12:11Z</time>
      </trkpt>
      <trkpt lat="42.460514" lon="-5.300261">
        <ele>871.047</ele>
        <time>2018-06-15T10:12:12Z</time>
      </trkpt>
      <trkpt lat="42.460535" lon="-5.300323">
        <ele>870.911</ele>
        <time>2018-06-15T10:12:13Z</time>
      </trkpt>
      <trkpt lat="42.460556" lon="-5.300384">
        <ele>870.908</ele>
        <time>2018-06-15T10:12:14Z</time>
      </trkpt>
      <trkpt lat="42.460574" lon="-5.300451">
        <ele>870.924</ele>
        <time>2018-06-15T10:12:15Z</time>
      </trkpt>
      <trkpt lat="42.460593" lon="-5.300514">
        <ele>870.967</ele>
        <time>2018-06-15T10:12:16Z</time>
      </trkpt>
      <trkpt lat="42.460615" lon="-5.300578">
        <ele>870.920</ele>
        <time>2018-06-15T10:12:17Z</time>
      </trkpt>
      <trkpt lat="42.460637" lon="-5.300640">
        <ele>870.984</ele>
        <time>2018-06-15T10:12:18Z</time>
      </trkpt>
      <trkpt lat="42.460653" lon="-5.300704">
        <ele>870.943</ele>
        <time>2018-06-15T10:12:19Z</time>
      </trkpt>
      <trkpt lat="42.460676" lon="-5.300763">
        <ele>870.933</ele>
        <time>2018-06-15T10:12:20Z</time>
      </trkpt>
      <trkpt lat="42.460696" lon="-5.300827">
        <ele>870.953</ele>
        <time>2018-06-15T10:12:21Z</time>
      </trkpt>
      <trkpt lat="42.460717" lon="-5.300889">
        <ele>870.963</ele>
        <time>2018-06-15T10:12:22Z</time>
      </trkpt>
      <trkpt lat="42.460736" lon="-5.300951">
        <ele>870.933</ele>
        <time>2018-06-15T10:12:23Z</time>
      </trkpt>
      <trkpt lat="42.460754" lon="-5.301009">
        <ele>870.923</ele>
        <time>2018-06-15T10:12:24Z</time>
      </trkpt>
      <trkpt lat="42.460769" lon="-5.301074">
        <ele>870.915</ele>
        <time>2018-06-15T10:12:25Z</time>
      </trkpt>
      <trkpt lat="42.460790" lon="-5.301133">
        <ele>870.908</ele>
        <time>2018-06-15T10:12:26Z</time>
      </trkpt>
      <trkpt lat="42.460810" lon="-5.301194">
        <ele>870.965</ele>
        <time>2018-06-15T10:12:27Z</time>
      </trkpt>
      <trkpt lat="42.460827" lon="-5.301255">
        <ele>870.988</ele>
        <time>2018-06-15T10:12:28Z</time>
      </trkpt>
      <trkpt lat="42.460845" lon="-5.301311">
        <ele>870.911</ele>
        <time>2018-06-15T10:12:29Z</time>
      </trkpt>
      <trkpt lat="42.460868" lon="-5.301367">
        <ele>870.995</ele>
        <time>2018-06-15T10:12:30Z</time>
      </trkpt>
      <trkpt lat="42.460886" lon="-5.301426">
        <ele>870.964</ele>
        <time>2018-06-15T10:12:31Z</time>
      </trkpt>
      <trkpt lat="42.460908" lon="-5.301487">
        <ele>870.944</ele>
        <time>2018-06-15T10:12:32Z</time>
      </trkpt>
      <trkpt lat="42.460927" lon="-5.301548">
        <ele>870.984</ele>
        <time>2018-06-15T10:12:33Z</time>
      </trkpt>
      <trkpt lat="42.460947" lon="-5.301607">
        <ele>870.914</ele>
        <time>2018-06-15T10:12:34Z</time>
      </trkpt>
      <trkpt lat="42.460968" lon="-5.301668">
        <ele>870.919</ele>
        <time>2018-06-15T10:12:35Z</time>
      </trkpt>
      <trkpt lat="42.460987" lon="-5.301729">
        <ele>870.909</ele>
        <time>2018-06-15T10:12:36Z</time>
      </trkpt>
      <trkpt lat="42.461008" lon="-5.301794">
        <ele>870.919</ele>
        <time>2018-06-15T10:12:37Z</time>
      </trkpt>
      <trkpt lat="42.461028" lon="-5.301860">
        <ele>870.908</ele>
        <time>2018-06-15T10:12:38Z</time>
      </trkpt>
      <trkpt lat="42.461050" lon="-5.301923">
        <ele>870.943</ele>
        <time>2018-06-15T10:12:39Z</time>
      </trkpt>
      <trkpt lat="42.461070" lon="-5.301987">
        <ele>870.996</ele>
        <time>2018-06-15T10:12:40Z</time>
      </trkpt>
      <trkpt lat="42.461096" lon="-5.302051">
        <ele>870.979</ele>
        <time>2018-06-15T10:12:41Z</time>
      </trkpt>
      <trkpt lat="42.461113" lon="-5.302116">
        <ele>870.913</ele>
        <time>2018-06-15T10:12:42Z</time>
      </trkpt>
      <trkpt lat="42.461135" lon="-5.302178">
        <ele>870.992</ele>
        <time>2018-06-15T10:12:43Z</time>
      </trkpt>
      <trkpt lat="42.461155" lon="-5.302244">
        <ele>870.952</ele>
        <time>2018-06-15T10:12:44Z</time>
      </trkpt>
      <trkpt lat="42.461176" lon="-5.302310">
        <ele>870.992</ele>
        <time>2018-06-15T10:12:45Z</time>
      </trkpt>
      <trkpt lat="42.461200" lon="-5.302377">
        <ele>870.982</ele>
        <time>2018-06-15T10:12:46Z</time>
      </trkpt>
      <trkpt lat="42.461220" lon="-5.302441">
        <ele>870.958</ele>
        <time>2018-06-15T10:12:47Z</time>
      </trkpt>
      <trkpt lat="42.461240" lon="-5.302514">
        <ele>870.952</ele>
        <time>2018-06-15T10:12:48Z</time>
      </trkpt>
      <trkpt lat="42.461259" lon="-5.302582">
        <ele>870.517</ele>
        <time>2018-06-15T10:12:49Z</time>
      </trkpt>
      <trkpt lat="42.461281" lon="-5.302648">
        <ele>870.308</ele>
        <time>2018-06-15T10:12:50Z</time>
      </trkpt>
      <trkpt lat="42.461302" lon="-5.302717">
        <ele>870.287</ele>
        <time>2018-06-15T10:12:51Z</time>
      </trkpt>
      <trkpt lat="42.461320" lon="-5.302789">
        <ele>870.190</ele>
        <time>2018-06-15T10:12:52Z</time>
      </trkpt>
      <trkpt lat="42.461345" lon="-5.302859">
        <ele>870.013</ele>
        <time>2018-06-15T10:12:53Z</time>
      </trkpt>
      <trkpt lat="42.461364" lon="-5.302932">
        <ele>870.017</ele>
        <time>2018-06-15T10:12:54Z</time>
      </trkpt>
      <trkpt lat="42.461390" lon="-5.303001">
        <ele>870.076</ele>
        <time>2018-06-15T10:12:55Z</time>
      </trkpt>
      <trkpt lat="42.461412" lon="-5.303068">
        <ele>869.646</ele>
        <time>2018-06-15T10:12:56Z</time>
      </trkpt>
      <trkpt lat="42.461436" lon="-5.303140">
        <ele>869.476</ele>
        <time>2018-06-15T10:12:57Z</time>
      </trkpt>
      <trkpt lat="42.461460" lon="-5.303216">
        <ele>869.796</ele>
        <time>2018-06-15T10:12:58Z</time>
      </trkpt>
      <trkpt lat="42.461484" lon="-5.303286">
        <ele>869.937</ele>
        <time>2018-06-15T10:12:59Z</time>
      </trkpt>
      <trkpt lat="42.461506" lon="-5.303359">
        <ele>870.049</ele>
        <time>2018-06-15T10:13:00Z</time>
      </trkpt>
      <trkpt lat="42.461531" lon="-5.303433">
        <ele>869.713</ele>
        <time>2018-06-15T10:13:01Z</time>
      </trkpt>
      <trkpt lat="42.461554" lon="-5.303507">
        <ele>869.508</ele>
        <time>2018-06-15T10:13:02Z</time>
      </trkpt>
      <trkpt lat="42.461575" lon="-5.303578">
        <ele>869.415</ele>
        <time>2018-06-15T10:13:03Z</time>
      </trkpt>
      <trkpt lat="42.461598" lon="-5.303651">
        <ele>869.338</ele>
        <time>2018-06-15T10:13:04Z</time>
      </trkpt>
      <trkpt lat="42.461616" lon="-5.303724">
        <ele>869.321</ele>
        <time>2018-06-15T10:13:05Z</time>
      </trkpt>
      <trkpt lat="42.461636" lon="-5.303800">
        <ele>869.365</ele>
        <time>2018-06-15T10:13:06Z</time>
      </trkpt>
      <trkpt lat="42.461660" lon="-5.303870">
        <ele>869.384</ele>
        <time>2018-06-15T10:13:07Z</time>
      </trkpt>
      <trkpt lat="42.461681" lon="-5.303942">
        <ele>869.334</ele>
        <time>2018-06-15T10:13:08Z</time>
      </trkpt>
      <trkpt lat="42.461703" lon="-5.304013">
        <ele>869.324</ele>
        <time>2018-06-15T10:13:09Z</time>
      </trkpt>
      <trkpt lat="42.461721" lon="-5.304086">
        <ele>868.954</ele>
        <time>2018-06-15T10:13:10Z</time>
      </trkpt>
      <trkpt lat="42.461744" lon="-5.304155">
        <ele>868.785</ele>
        <time>2018-06-15T10:13:11Z</time>
      </trkpt>
      <trkpt lat="42.461765" lon="-5.304226">
        <ele>868.689</ele>
        <time>2018-06-15T10:13:12Z</time>
      </trkpt>
      <trkpt lat="42.461787" lon="-5.304293">
        <ele>868.517</ele>
        <time>2018-06-15T10:13:13Z</time>
      </trkpt>
      <trkpt lat="42.461806" lon="-5.304365">
        <ele>868.408</ele>
        <time>2018-06-15T10:13:14Z</time>
      </trkpt>
      <trkpt lat="42.461824" lon="-5.304434">
        <ele>868.460</ele>
        <time>2018-06-15T10:13:15Z</time>
      </trkpt>
      <trkpt lat="42.461844" lon="-5.304498">
        <ele>868.443</ele>
        <time>2018-06-15T10:13:16Z</time>
      </trkpt>
      <trkpt lat="42.461865" lon="-5.304566">
        <ele>868.486</ele>
        <time>2018-06-15T10:13:17Z</time>
      </trkpt>
      <trkpt lat="42.461886" lon="-5.304633">
        <ele>868.440</ele>
        <time>2018-06-15T10:13:18Z</time>
      </trkpt>
      <trkpt lat="42.461908" lon="-5.304702">
        <ele>868.429</ele>
        <time>2018-06-15T10:13:19Z</time>
      </trkpt>
      <trkpt lat="42.461935" lon="-5.304770">
        <ele>868.469</ele>
        <time>2018-06-15T10:13:20Z</time>
      </trkpt>
      <trkpt lat="42.461958" lon="-5.304838">
        <ele>868.499</ele>
        <time>2018-06-15T10:13:21Z</time>
      </trkpt>
      <trkpt lat="42.461984" lon="-5.304906">
        <ele>868.499</ele>
        <time>2018-06-15T10:13:22Z</time>
      </trkpt>
      <trkpt lat="42.462006" lon="-5.304976">
        <ele>868.429</ele>
        <time>2018-06-15T10:13:23Z</time>
      </trkpt>
      <trkpt lat="42.462030" lon="-5.305046">
        <ele>868.400</ele>
        <time>2018-06-15T10:13:24Z</time>
      </trkpt>
      <trkpt lat="42.462052" lon="-5.305116">
        <ele>868.420</ele>
        <time>2018-06-15T10:13:25Z</time>
      </trkpt>
      <trkpt lat="42.462073" lon="-5.305183">
        <ele>868.408</ele>
        <time>2018-06-15T10:13:26Z</time>
      </trkpt>
      <trkpt lat="42.462094" lon="-5.305250">
        <ele>868.014</ele>
        <time>2018-06-15T10:13:27Z</time>
      </trkpt>
      <trkpt lat="42.462118" lon="-5.305319">
        <ele>867.837</ele>
        <time>2018-06-15T10:13:28Z</time>
      </trkpt>
      <trkpt lat="42.462139" lon="-5.305383">
        <ele>867.770</ele>
        <time>2018-06-15T10:13:29Z</time>
      </trkpt>
      <trkpt lat="42.462159" lon="-5.305448">
        <ele>867.664</ele>
        <time>2018-06-15T10:13:30Z</time>
      </trkpt>
      <trkpt lat="42.462179" lon="-5.305514">
        <ele>867.533</ele>
        <time>2018-06-15T10:13:31Z</time>
      </trkpt>
      <trkpt lat="42.462200" lon="-5.305579">
        <ele>867.583</ele>
        <time>2018-06-15T10:13:32Z</time>
      </trkpt>
      <trkpt lat="42.462220" lon="-5.305644">
        <ele>867.543</ele>
        <time>2018-06-15T10:13:33Z</time>
      </trkpt>
      <trkpt lat="42.462242" lon="-5.305709">
        <ele>867.563</ele>
        <time>2018-06-15T10:13:34Z</time>
      </trkpt>
      <trkpt lat="42.462264" lon="-5.305772">
        <ele>867.566</ele>
        <time>2018-06-15T10:13:35Z</time>
      </trkpt>
      <trkpt lat="42.462283" lon="-5.305837">
        <ele>867.529</ele>
        <time>2018-06-15T10:13:36Z</time>
      </trkpt>
      <trkpt lat="42.462305" lon="-5.305904">
        <ele>867.521</ele>
        <time>2018-06-15T10:13:37Z</time>
      </trkpt>
      <trkpt lat="42.462325" lon="-5.305969">
        <ele>867.508</ele>
        <time>2018-06-15T10:13:38Z</time>
      </trkpt>
      <trkpt lat="42.462338" lon="-5.306029">
        <ele>867.528</ele>
        <time>2018-06-15T10:13:39Z</time>
      </trkpt>
      <trkpt lat="42.462353" lon="-5.306087">
        <ele>867.541</ele>
        <time>2018-06-15T10:13:40Z</time>
      </trkpt>
      <trkpt lat="42.462372" lon="-5.306146">
        <ele>867.574</ele>
        <time>2018-06-15T10:13:41Z</time>
      </trkpt>
      <trkpt lat="42.462387" lon="-5.306207">
        <ele>867.538</ele>
        <time>2018-06-15T10:13:42Z</time>
      </trkpt>
      <trkpt lat="42.462409" lon="-5.306266">
        <ele>867.567</ele>
        <time>2018-06-15T10:13:43Z</time>
      </trkpt>
      <trkpt lat="42.462430" lon="-5.306327">
        <ele>867.547</ele>
        <time>2018-06-15T10:13:44Z</time>
      </trkpt>
      <trkpt lat="42.462452" lon="-5.306387">
        <ele>867.517</ele>
        <time>2018-06-15T10:13:45Z</time>
      </trkpt>
      <trkpt lat="42.462472" lon="-5.306451">
        <ele>867.577</ele>
        <time>2018-06-15T10:13:46Z</time>
      </trkpt>
      <trkpt lat="42.462490" lon="-5.306514">
        <ele>867.571</ele>
        <time>2018-06-15T10:13:47Z</time>
      </trkpt>
      <trkpt lat="42.462509" lon="-5.306581">
        <ele>867.141</ele>
        <time>2018-06-15T10:13:48Z</time>
      </trkpt>
      <trkpt lat="42.462527" lon="-5.306643">
        <ele>867.315</ele>
        <time>2018-06-15T10:13:49Z</time>
      </trkpt>
      <trkpt lat="42.462546" lon="-5.306702">
        <ele>867.008</ele>
        <time>2018-06-15T10:13:50Z</time>
      </trkpt>
      <trkpt lat="42.462564" lon="-5.306761">
        <ele>866.829</ele>
        <time>2018-06-15T10:13:51Z</time>
      </trkpt>
      <trkpt lat="42.462581" lon="-5.306825">
        <ele>866.722</ele>
        <time>2018-06-15T10:13:52Z</time>
      </trkpt>
      <trkpt lat="42.462600" lon="-5.306891">
        <ele>866.225</ele>
        <time>2018-06-15T10:13:53Z</time>
      </trkpt>
      <trkpt lat="42.462619" lon="-5.306958">
        <ele>865.919</ele>
        <time>2018-06-15T10:13:54Z</time>
      </trkpt>
      <trkpt lat="42.462644" lon="-5.307020">
        <ele>865.798</ele>
        <time>2018-06-15T10:13:55Z</time>
      </trkpt>
      <trkpt lat="42.462666" lon="-5.307085">
        <ele>865.638</ele>
        <time>2018-06-15T10:13:56Z</time>
      </trkpt>
      <trkpt lat="42.462688" lon="-5.307149">
        <ele>865.548</ele>
        <time>2018-06-15T10:13:57Z</time>
      </trkpt>
      <trkpt lat="42.462714" lon="-5.307211">
        <ele>865.598</ele>
        <time>2018-06-15T10:13:58Z</time>
      </trkpt>
      <trkpt lat="42.462740" lon="-5.307275">
        <ele>865.515</ele>
        <time>2018-06-15T10:13:59Z</time>
      </trkpt>
      <trkpt lat="42.462766" lon="-5.307343">
        <ele>865.565</ele>
        <time>2018-06-15T10:14:00Z</time>
      </trkpt>
      <trkpt lat="42.462790" lon="-5.307415">
        <ele>865.111</ele>
        <time>2018-06-15T10:14:01Z</time>
      </trkpt>
      <trkpt lat="42.462815" lon="-5.307484">
        <ele>864.908</ele>
        <time>2018-06-15T10:14:02Z</time>
      </trkpt>
      <trkpt lat="42.462836" lon="-5.307556">
        <ele>864.863</ele>
        <time>2018-06-15T10:14:03Z</time>
      </trkpt>
      <trkpt lat="42.462857" lon="-5.307630">
        <ele>864.716</ele>
        <time>2018-06-15T10:14:04Z</time>
      </trkpt>
      <trkpt lat="42.462880" lon="-5.307703">
        <ele>864.689</ele>
        <time>2018-06-15T10:14:05Z</time>
      </trkpt>
      <trkpt lat="42.462902" lon="-5.307778">
        <ele>864.623</ele>
        <time>2018-06-15T10:14:06Z</time>
      </trkpt>
      <trkpt lat="42.462922" lon="-5.307854">
        <ele>864.682</ele>
        <time>2018-06-15T10:14:07Z</time>
      </trkpt>
      <trkpt lat="42.462946" lon="-5.307929">
        <ele>864.662</ele>
        <time>2018-06-15T10:14:08Z</time>
      </trkpt>
      <trkpt lat="42.462972" lon="-5.308005">
        <ele>864.262</ele>
        <time>2018-06-15T10:14:09Z</time>
      </trkpt>
      <trkpt lat="42.462997" lon="-5.308083">
        <ele>864.052</ele>
        <time>2018-06-15T10:14:10Z</time>
      </trkpt>
      <trkpt lat="42.463019" lon="-5.308163">
        <ele>863.928</ele>
        <time>2018-06-15T10:14:11Z</time>
      </trkpt>
      <trkpt lat="42.463041" lon="-5.308242">
        <ele>863.889</ele>
        <time>2018-06-15T10:14:12Z</time>
      </trkpt>
      <trkpt lat="42.463065" lon="-5.308320">
        <ele>863.717</ele>
        <time>2018-06-15T10:14:13Z</time>
      </trkpt>
      <trkpt lat="42.463094" lon="-5.308397">
        <ele>863.708</ele>
        <time>2018-06-15T10:14:14Z</time>
      </trkpt>
      <trkpt lat="42.463117" lon="-5.308471">
        <ele>863.764</ele>
        <time>2018-06-15T10:14:15Z</time>
      </trkpt>
      <trkpt lat="42.463142" lon="-5.308551">
        <ele>863.787</ele>
        <time>2018-06-15T10:14:16Z</time>
      </trkpt>
      <trkpt lat="42.463167" lon="-5.308632">
        <ele>863.730</ele>
        <time>2018-06-15T10:14:17Z</time>
      </trkpt>
      <trkpt lat="42.463193" lon="-5.308717">
        <ele>863.354</ele>
        <time>2018-06-15T10:14:18Z</time>
      </trkpt>
      <trkpt lat="42.463218" lon="-5.308798">
        <ele>863.163</ele>
        <time>2018-06-15T10:14:19Z</time>
      </trkpt>
      <trkpt lat="42.463240" lon="-5.308878">
        <ele>863.043</ele>
        <time>2018-06-15T10:14:20Z</time>
      </trkpt>
      <trkpt lat="42.463264" lon="-5.308960">
        <ele>862.923</ele>
        <time>2018-06-15T10:14:21Z</time>
      </trkpt>
      <trkpt lat="42.463292" lon="-5.309037">
        <ele>862.873</ele>
        <time>2018-06-15T10:14:22Z</time>
      </trkpt>
      <trkpt lat="42.463319" lon="-5.309115">
        <ele>862.845</ele>
        <time>2018-06-15T10:14:23Z</time>
      </trkpt>
      <trkpt lat="42.463345" lon="-5.309191">
        <ele>862.847</ele>
        <time>2018-06-15T10:14:24Z</time>
      </trkpt>
      <trkpt lat="42.463371" lon="-5.309270">
        <ele>862.811</ele>
        <time>2018-06-15T10:14:25Z</time>
      </trkpt>
      <trkpt lat="42.463394" lon="-5.309350">
        <ele>862.808</ele>
        <time>2018-06-15T10:14:26Z</time>
      </trkpt>
      <trkpt lat="42.463417" lon="-5.309430">
        <ele>863.256</ele>
        <time>2018-06-15T10:14:27Z</time>
      </trkpt>
      <trkpt lat="42.463442" lon="-5.309505">
        <ele>863.029</ele>
        <time>2018-06-15T10:14:28Z</time>
      </trkpt>
      <trkpt lat="42.463466" lon="-5.309586">
        <ele>862.952</ele>
        <time>2018-06-15T10:14:29Z</time>
      </trkpt>
      <trkpt lat="42.463490" lon="-5.309663">
        <ele>862.846</ele>
        <time>2018-06-15T10:14:30Z</time>
      </trkpt>
      <trkpt lat="42.463516" lon="-5.309740">
        <ele>862.815</ele>
        <time>2018-06-15T10:14:31Z</time>
      </trkpt>
      <trkpt lat="42.463540" lon="-5.309816">
        <ele>862.845</ele>
        <time>2018-06-15T10:14:32Z</time>
      </trkpt>
      <trkpt lat="42.463562" lon="-5.309890">
        <ele>862.855</ele>
        <time>2018-06-15T10:14:33Z</time>
      </trkpt>
      <trkpt lat="42.463584" lon="-5.309965">
        <ele>862.815</ele>
        <time>2018-06-15T10:14:34Z</time>
      </trkpt>
      <trkpt lat="42.463607" lon="-5.310041">
        <ele>862.886</ele>
        <time>2018-06-15T10:14:35Z</time>
      </trkpt>
      <trkpt lat="42.463630" lon="-5.310114">
        <ele>862.860</ele>
        <time>2018-06-15T10:14:36Z</time>
      </trkpt>
      <trkpt lat="42.463654" lon="-5.310186">
        <ele>862.826</ele>
        <time>2018-06-15T10:14:37Z</time>
      </trkpt>
      <trkpt lat="42.463677" lon="-5.310261">
        <ele>862.808</ele>
        <time>2018-06-15T10:14:38Z</time>
      </trkpt>
      <trkpt lat="42.463698" lon="-5.310330">
        <ele>862.860</ele>
        <time>2018-06-15T10:14:39Z</time>
      </trkpt>
      <trkpt lat="42.463721" lon="-5.310399">
        <ele>862.823</ele>
        <time>2018-06-15T10:14:40Z</time>
      </trkpt>
      <trkpt lat="42.463744" lon="-5.310469">
        <ele>862.846</ele>
        <time>2018-06-15T10:14:41Z</time>
      </trkpt>
      <trkpt lat="42.463766" lon="-5.310537">
        <ele>862.890</ele>
        <time>2018-06-15T10:14:42Z</time>
      </trkpt>
      <trkpt lat="42.463786" lon="-5.310604">
        <ele>862.859</ele>
        <time>2018-06-15T10:14:43Z</time>
      </trkpt>
      <trkpt lat="42.463811" lon="-5.310674">
        <ele>862.869</ele>
        <time>2018-06-15T10:14:44Z</time>
      </trkpt>
      <trkpt lat="42.463831" lon="-5.310743">
        <ele>862.869</ele>
        <time>2018-06-15T10:14:45Z</time>
      </trkpt>
      <trkpt lat="42.463852" lon="-5.310818">
        <ele>862.819</ele>
        <time>2018-06-15T10:14:46Z</time>
      </trkpt>
      <trkpt lat="42.463873" lon="-5.310890">
        <ele>862.815</ele>
        <time>2018-06-15T10:14:47Z</time>
      </trkpt>
      <trkpt lat="42.463892" lon="-5.310967">
        <ele>862.865</ele>
        <time>2018-06-15T10:14:48Z</time>
      </trkpt>
      <trkpt lat="42.463909" lon="-5.311038">
        <ele>862.811</ele>
        <time>2018-06-15T10:14:49Z</time>
      </trkpt>
      <trkpt lat="42.463925" lon="-5.311116">
        <ele>862.408</ele>
        <time>2018-06-15T10:14:50Z</time>
      </trkpt>
      <trkpt lat="42.463941" lon="-5.311193">
        <ele>862.223</ele>
        <time>2018-06-15T10:14:51Z</time>
      </trkpt>
      <trkpt lat="42.463956" lon="-5.311276">
        <ele>862.146</ele>
        <time>2018-06-15T10:14:52Z</time>
      </trkpt>
      <trkpt lat="42.463972" lon="-5.311357">
        <ele>862.089</ele>
        <time>2018-06-15T10:14:53Z</time>
      </trkpt>
      <trkpt lat="42.463989" lon="-5.311443">
        <ele>861.983</ele>
        <time>2018-06-15T10:14:54Z</time>
      </trkpt>
      <trkpt lat="42.464003" lon="-5.311532">
        <ele>861.972</ele>
        <time>2018-06-15T10:14:55Z</time>
      </trkpt>
      <trkpt lat="42.464023" lon="-5.311619">
        <ele>861.922</ele>
        <time>2018-06-15T10:14:56Z</time>
      </trkpt>
      <trkpt lat="42.464036" lon="-5.311701">
        <ele>861.572</ele>
        <time>2018-06-15T10:14:57Z</time>
      </trkpt>
      <trkpt lat="42.464051" lon="-5.311783">
        <ele>861.712</ele>
        <time>2018-06-15T10:14:58Z</time>
      </trkpt>
      <trkpt lat="42.464065" lon="-5.311865">
        <ele>861.491</ele>
        <time>2018-06-15T10:14:59Z</time>
      </trkpt>
      <trkpt lat="42.464083" lon="-5.311947">
        <ele>861.681</ele>
        <time>2018-06-15T10:15:00Z</time>
      </trkpt>
      <trkpt lat="42.464101" lon="-5.312029">
        <ele>861.319</ele>
        <time>2018-06-15T10:15:01Z</time>
      </trkpt>
      <trkpt lat="42.464120" lon="-5.312105">
        <ele>861.108</ele>
        <time>2018-06-15T10:15:02Z</time>
      </trkpt>
      <trkpt lat="42.464138" lon="-5.312178">
        <ele>861.041</ele>
        <time>2018-06-15T10:15:03Z</time>
      </trkpt>
      <trkpt lat="42.464154" lon="-5.312253">
        <ele>860.984</ele>
        <time>2018-06-15T10:15:04Z</time>
      </trkpt>
      <trkpt lat="42.464171" lon="-5.312321">
        <ele>860.927</ele>
        <time>2018-06-15T10:15:05Z</time>
      </trkpt>
      <trkpt lat="42.464182" lon="-5.312394">
        <ele>860.941</ele>
        <time>2018-06-15T10:15:06Z</time>
      </trkpt>
      <trkpt lat="42.464193" lon="-5.312464">
        <ele>860.930</ele>
        <time>2018-06-15T10:15:07Z</time>
      </trkpt>
      <trkpt lat="42.464209" lon="-5.312535">
        <ele>860.910</ele>
        <time>2018-06-15T10:15:08Z</time>
      </trkpt>
      <trkpt lat="42.464222" lon="-5.312606">
        <ele>860.970</ele>
        <time>2018-06-15T10:15:09Z</time>
      </trkpt>
      <trkpt lat="42.464235" lon="-5.312678">
        <ele>860.960</ele>
        <time>2018-06-15T10:15:10Z</time>
      </trkpt>
      <trkpt lat="42.464252" lon="-5.312753">
        <ele>860.535</ele>
        <time>2018-06-15T10:15:11Z</time>
      </trkpt>
      <trkpt lat="42.464269" lon="-5.312834">
        <ele>860.386</ele>
        <time>2018-06-15T10:15:12Z</time>
      </trkpt>
      <trkpt lat="42.464285" lon="-5.312916">
        <ele>860.214</ele>
        <time>2018-06-15T10:15:13Z</time>
      </trkpt>
      <trkpt lat="42.464304" lon="-5.313003">
        <ele>860.108</ele>
        <time>2018-06-15T10:15:14Z</time>
      </trkpt>
      <trkpt lat="42.464320" lon="-5.313092">
        <ele>859.625</ele>
        <time>2018-06-15T10:15:15Z</time>
      </trkpt>
      <trkpt lat="42.464337" lon="-5.313177">
        <ele>859.338</ele>
        <time>2018-06-15T10:15:16Z</time>
      </trkpt>
      <trkpt lat="42.464353" lon="-5.313264">
        <ele>859.161</ele>
        <time>2018-06-15T10:15:17Z</time>
      </trkpt>
      <trkpt lat="42.464371" lon="-5.313351">
        <ele>859.065</ele>
        <time>2018-06-15T10:15:18Z</time>
      </trkpt>
      <trkpt lat="42.464388" lon="-5.313436">
        <ele>858.954</ele>
        <time>2018-06-15T10:15:19Z</time>
      </trkpt>
      <trkpt lat="42.464403" lon="-5.313524">
        <ele>858.974</ele>
        <time>2018-06-15T10:15:20Z</time>
      </trkpt>
      <trkpt lat="42.464419" lon="-5.313614">
        <ele>858.914</ele>
        <time>2018-06-15T10:15:21Z</time>
      </trkpt>
      <trkpt lat="42.464434" lon="-5.313702">
        <ele>858.924</ele>
        <time>2018-06-15T10:15:22Z</time>
      </trkpt>
      <trkpt lat="42.464449" lon="-5.313787">
        <ele>858.988</ele>
        <time>2018-06-15T10:15:23Z</time>
      </trkpt>
      <trkpt lat="42.464463" lon="-5.313868">
        <ele>859.324</ele>
        <time>2018-06-15T10:15:24Z</time>
      </trkpt>
      <trkpt lat="42.464478" lon="-5.313951">
        <ele>859.126</ele>
        <time>2018-06-15T10:15:25Z</time>
      </trkpt>
      <trkpt lat="42.464496" lon="-5.314032">
        <ele>859.408</ele>
        <time>2018-06-15T10:15:26Z</time>
      </trkpt>
      <trkpt lat="42.464512" lon="-5.314114">
        <ele>859.660</ele>
        <time>2018-06-15T10:15:27Z</time>
      </trkpt>
      <trkpt lat="42.464528" lon="-5.314192">
        <ele>859.733</ele>
        <time>2018-06-15T10:15:28Z</time>
      </trkpt>
      <trkpt lat="42.464540" lon="-5.314268">
        <ele>859.436</ele>
        <time>2018-06-15T10:15:29Z</time>
      </trkpt>
      <trkpt lat="42.464553" lon="-5.314346">
        <ele>859.270</ele>
        <time>2018-06-15T10:15:30Z</time>
      </trkpt>
      <trkpt lat="42.464567" lon="-5.314421">
        <ele>859.119</ele>
        <time>2018-06-15T10:15:31Z</time>
      </trkpt>
      <trkpt lat="42.464584" lon="-5.314500">
        <ele>859.039</ele>
        <time>2018-06-15T10:15:32Z</time>
      </trkpt>
      <trkpt lat="42.464605" lon="-5.314575">
        <ele>859.049</ele>
        <time>2018-06-15T10:15:33Z</time>
      </trkpt>
      <trkpt lat="42.464618" lon="-5.314654">
        <ele>859.099</ele>
        <time>2018-06-15T10:15:34Z</time>
      </trkpt>
      <trkpt lat="42.464634" lon="-5.314728">
        <ele>859.072</ele>
        <time>2018-06-15T10:15:35Z</time>
      </trkpt>
      <trkpt lat="42.464653" lon="-5.314809">
        <ele>859.013</ele>
        <time>2018-06-15T10:15:36Z</time>
      </trkpt>
      <trkpt lat="42.464667" lon="-5.314890">
        <ele>859.014</ele>
        <time>2018-06-15T10:15:37Z</time>
      </trkpt>
      <trkpt lat="42.464682" lon="-5.314964">
        <ele>859.008</ele>
        <time>2018-06-15T10:15:38Z</time>
      </trkpt>
      <trkpt lat="42.464696" lon="-5.315044">
        <ele>859.019</ele>
        <time>2018-06-15T10:15:39Z</time>
      </trkpt>
      <trkpt lat="42.464708" lon="-5.315127">
        <ele>859.412</ele>
        <time>2018-06-15T10:15:40Z</time>
      </trkpt>
      <trkpt lat="42.464723" lon="-5.315201">
        <ele>859.285</ele>
        <time>2018-06-15T10:15:41Z</time>
      </trkpt>
      <trkpt lat="42.464736" lon="-5.315279">
        <ele>859.579</ele>
        <time>2018-06-15T10:15:42Z</time>
      </trkpt>
      <trkpt lat="42.464755" lon="-5.315358">
        <ele>859.798</ele>
        <time>2018-06-15T10:15:43Z</time>
      </trkpt>
      <trkpt lat="42.464775" lon="-5.315434">
        <ele>859.898</ele>
        <time>2018-06-15T10:15:44Z</time>
      </trkpt>
      <trkpt lat="42.464789" lon="-5.315509">
        <ele>859.918</ele>
        <time>2018-06-15T10:15:45Z</time>
      </trkpt>
      <trkpt lat="42.464808" lon="-5.315586">
        <ele>859.918</ele>
        <time>2018-06-15T10:15:46Z</time>
      </trkpt>
      <trkpt lat="42.464822" lon="-5.315661">
        <ele>859.956</ele>
        <time>2018-06-15T10:15:47Z</time>
      </trkpt>
      <trkpt lat="42.464840" lon="-5.315738">
        <ele>859.959</ele>
        <time>2018-06-15T10:15:48Z</time>
      </trkpt>
      <trkpt lat="42.464853" lon="-5.315815">
        <ele>859.914</ele>
        <time>2018-06-15T10:15:49Z</time>
      </trkpt>
      <trkpt lat="42.464865" lon="-5.315892">
        <ele>859.908</ele>
        <time>2018-06-15T10:15:50Z</time>
      </trkpt>
      <trkpt lat="42.464878" lon="-5.315966">
        <ele>859.987</ele>
        <time>2018-06-15T10:15:51Z</time>
      </trkpt>
      <trkpt lat="42.464894" lon="-5.316043">
        <ele>859.960</ele>
        <time>2018-06-15T10:15:52Z</time>
      </trkpt>
      <trkpt lat="42.464911" lon="-5.316120">
        <ele>859.973</ele>
        <time>2018-06-15T10:15:53Z</time>
      </trkpt>
      <trkpt lat="42.464927" lon="-5.316196">
        <ele>859.917</ele>
        <time>2018-06-15T10:15:54Z</time>
      </trkpt>
      <trkpt lat="42.464938" lon="-5.316272">
        <ele>859.936</ele>
        <time>2018-06-15T10:15:55Z</time>
      </trkpt>
      <trkpt lat="42.464950" lon="-5.316346">
        <ele>859.996</ele>
        <time>2018-06-15T10:15:56Z</time>
      </trkpt>
      <trkpt lat="42.464966" lon="-5.316420">
        <ele>859.966</ele>
        <time>2018-06-15T10:15:57Z</time>
      </trkpt>
      <trkpt lat="42.464980" lon="-5.316493">
        <ele>859.516</ele>
        <time>2018-06-15T10:15:58Z</time>
      </trkpt>
      <trkpt lat="42.464995" lon="-5.316567">
        <ele>859.312</ele>
        <time>2018-06-15T10:15:59Z</time>
      </trkpt>
      <trkpt lat="42.465008" lon="-5.316643">
        <ele>859.232</ele>
        <time>2018-06-15T10:16:00Z</time>
      </trkpt>
      <trkpt lat="42.465022" lon="-5.316723">
        <ele>859.505</ele>
        <time>2018-06-15T10:16:01Z</time>
      </trkpt>
      <trkpt lat="42.465035" lon="-5.316797">
        <ele>859.308</ele>
        <time>2018-06-15T10:16:02Z</time>
      </trkpt>
      <trkpt lat="42.465050" lon="-5.316874">
        <ele>859.233</ele>
        <time>2018-06-15T10:16:03Z</time>
      </trkpt>
      <trkpt lat="42.465066" lon="-5.316951">
        <ele>859.116</ele>
        <time>2018-06-15T10:16:04Z</time>
      </trkpt>
      <trkpt lat="42.465080" lon="-5.317028">
        <ele>859.539</ele>
        <time>2018-06-15T10:16:05Z</time>
      </trkpt>
      <trkpt lat="42.465096" lon="-5.317106">
        <ele>859.753</ele>
        <time>2018-06-15T10:16:06Z</time>
      </trkpt>
      <trkpt lat="42.465110" lon="-5.317181">
        <ele>859.822</ele>
        <time>2018-06-15T10:16:07Z</time>
      </trkpt>
      <trkpt lat="42.465128" lon="-5.317257">
        <ele>859.992</ele>
        <time>2018-06-15T10:16:08Z</time>
      </trkpt>
      <trkpt lat="42.465139" lon="-5.317338">
        <ele>859.962</ele>
        <time>2018-06-15T10:16:09Z</time>
      </trkpt>
      <trkpt lat="42.465154" lon="-5.317410">
        <ele>859.562</ele>
        <time>2018-06-15T10:16:10Z</time>
      </trkpt>
      <trkpt lat="42.465165" lon="-5.317487">
        <ele>859.352</ele>
        <time>2018-06-15T10:16:11Z</time>
      </trkpt>
      <trkpt lat="42.465182" lon="-5.317562">
        <ele>859.253</ele>
        <time>2018-06-15T10:16:12Z</time>
      </trkpt>
      <trkpt lat="42.465196" lon="-5.317637">
        <ele>859.508</ele>
        <time>2018-06-15T10:16:13Z</time>
      </trkpt>
      <trkpt lat="42.465208" lon="-5.317711">
        <ele>859.708</ele>
        <time>2018-06-15T10:16:14Z</time>
      </trkpt>
      <trkpt lat="42.465223" lon="-5.317785">
        <ele>859.827</ele>
        <time>2018-06-15T10:16:15Z</time>
      </trkpt>
      <trkpt lat="42.465239" lon="-5.317858">
        <ele>859.980</ele>
        <time>2018-06-15T10:16:16Z</time>
      </trkpt>
      <trkpt lat="42.465256" lon="-5.317932">
        <ele>859.933</ele>
        <time>2018-06-15T10:16:17Z</time>
      </trkpt>
      <trkpt lat="42.465270" lon="-5.318005">
        <ele>859.957</ele>
        <time>2018-06-15T10:16:18Z</time>
      </trkpt>
      <trkpt lat="42.465283" lon="-5.318077">
        <ele>859.956</ele>
        <time>2018-06-15T10:16:19Z</time>
      </trkpt>
      <trkpt lat="42.465295" lon="-5.318148">
        <ele>859.976</ele>
        <time>2018-06-15T10:16:20Z</time>
      </trkpt>
      <trkpt lat="42.465308" lon="-5.318223">
        <ele>859.996</ele>
        <time>2018-06-15T10:16:21Z</time>
      </trkpt>
      <trkpt lat="42.465320" lon="-5.318295">
        <ele>859.996</ele>
        <time>2018-06-15T10:16:22Z</time>
      </trkpt>
      <trkpt lat="42.465328" lon="-5.318369">
        <ele>859.937</ele>
        <time>2018-06-15T10:16:23Z</time>
      </trkpt>
      <trkpt lat="42.465342" lon="-5.318437">
        <ele>859.949</ele>
        <time>2018-06-15T10:16:24Z</time>
      </trkpt>
      <trkpt lat="42.465352" lon="-5.318507">
        <ele>859.913</ele>
        <time>2018-06-15T10:16:25Z</time>
      </trkpt>
      <trkpt lat="42.465357" lon="-5.318577">
        <ele>859.908</ele>
        <time>2018-06-15T10:16:26Z</time>
      </trkpt>
      <trkpt lat="42.465360" lon="-5.318645">
        <ele>859.985</ele>
        <time>2018-06-15T10:16:27Z</time>
      </trkpt>
      <trkpt lat="42.465362" lon="-5.318718">
        <ele>859.948</ele>
        <time>2018-06-15T10:16:28Z</time>
      </trkpt>
      <trkpt lat="42.465359" lon="-5.318785">
        <ele>859.991</ele>
        <time>2018-06-15T10:16:29Z</time>
      </trkpt>
      <trkpt lat="42.465356" lon="-5.318857">
        <ele>859.975</ele>
        <time>2018-06-15T10:16:30Z</time>
      </trkpt>
      <trkpt lat="42.465350" lon="-5.318934">
        <ele>859.974</ele>
        <time>2018-06-15T10:16:31Z</time>
      </trkpt>
      <trkpt lat="42.465348" lon="-5.319008">
        <ele>859.954</ele>
        <time>2018-06-15T10:16:32Z</time>
      </trkpt>
      <trkpt lat="42.465344" lon="-5.319082">
        <ele>860.364</ele>
        <time>2018-06-15T10:16:33Z</time>
      </trkpt>
      <trkpt lat="42.465338" lon="-5.319154">
        <ele>860.144</ele>
        <time>2018-06-15T10:16:34Z</time>
      </trkpt>
      <trkpt lat="42.465329" lon="-5.319228">
        <ele>860.443</ele>
        <time>2018-06-15T10:16:35Z</time>
      </trkpt>
      <trkpt lat="42.465324" lon="-5.319298">
        <ele>860.264</ele>
        <time>2018-06-15T10:16:36Z</time>
      </trkpt>
      <trkpt lat="42.465316" lon="-5.319368">
        <ele>860.110</ele>
        <time>2018-06-15T10:16:37Z</time>
      </trkpt>
      <trkpt lat="42.465307" lon="-5.319432">
        <ele>860.408</ele>
        <time>2018-06-15T10:16:38Z</time>
      </trkpt>
      <trkpt lat="42.465298" lon="-5.319501">
        <ele>860.626</ele>
        <time>2018-06-15T10:16:39Z</time>
      </trkpt>
      <trkpt lat="42.465288" lon="-5.319575">
        <ele>860.769</ele>
        <time>2018-06-15T10:16:40Z</time>
      </trkpt>
      <trkpt lat="42.465282" lon="-5.319645">
        <ele>860.882</ele>
        <time>2018-06-15T10:16:41Z</time>
      </trkpt>
      <trkpt lat="42.465276" lon="-5.319712">
        <ele>860.826</ele>
        <time>2018-06-15T10:16:42Z</time>
      </trkpt>
      <trkpt lat="42.465269" lon="-5.319775">
        <ele>860.875</ele>
        <time>2018-06-15T10:16:43Z</time>
      </trkpt>
      <trkpt lat="42.465264" lon="-5.319847">
        <ele>860.845</ele>
        <time>2018-06-15T10:16:44Z</time>
      </trkpt>
      <trkpt lat="42.465257" lon="-5.319918">
        <ele>860.855</ele>
        <time>2018-06-15T10:16:45Z</time>
      </trkpt>
      <trkpt lat="42.465254" lon="-5.319983">
        <ele>860.815</ele>
        <time>2018-06-15T10:16:46Z</time>
      </trkpt>
      <trkpt lat="42.465243" lon="-5.320051">
        <ele>860.862</ele>
        <time>2018-06-15T10:16:47Z</time>
      </trkpt>
      <trkpt lat="42.465236" lon="-5.320119">
        <ele>860.883</ele>
        <time>2018-06-15T10:16:48Z</time>
      </trkpt>
      <trkpt lat="42.465230" lon="-5.320192">
        <ele>860.811</ele>
        <time>2018-06-15T10:16:49Z</time>
      </trkpt>
      <trkpt lat="42.465223" lon="-5.320263">
        <ele>860.808</ele>
        <time>2018-06-15T10:16:50Z</time>
      </trkpt>
      <trkpt lat="42.465216" lon="-5.320334">
        <ele>860.848</ele>
        <time>2018-06-15T10:16:51Z</time>
      </trkpt>
      <trkpt lat="42.465210" lon="-5.320406">
        <ele>860.841</ele>
        <time>2018-06-15T10:16:52Z</time>
      </trkpt>
      <trkpt lat="42.465205" lon="-5.320475">
        <ele>860.894</ele>
        <time>2018-06-15T10:16:53Z</time>
      </trkpt>
      <trkpt lat="42.465197" lon="-5.320543">
        <ele>860.838</ele>
        <time>2018-06-15T10:16:54Z</time>
      </trkpt>
      <trkpt lat="42.465189" lon="-5.320607">
        <ele>860.867</ele>
        <time>2018-06-15T10:16:55Z</time>
      </trkpt>
      <trkpt lat="42.465182" lon="-5.320676">
        <ele>860.857</ele>
        <time>2018-06-15T10:16:56Z</time>
      </trkpt>
      <trkpt lat="42.465179" lon="-5.320746">
        <ele>860.887</ele>
        <time>2018-06-15T10:16:57Z</time>
      </trkpt>
      <trkpt lat="42.465170" lon="-5.320815">
        <ele>860.887</ele>
        <time>2018-06-15T10:16:58Z</time>
      </trkpt>
      <trkpt lat="42.465161" lon="-5.320886">
        <ele>860.892</ele>
        <time>2018-06-15T10:16:59Z</time>
      </trkpt>
      <trkpt lat="42.465153" lon="-5.320951">
        <ele>860.873</ele>
        <time>2018-06-15T10:17:00Z</time>
      </trkpt>
      <trkpt lat="42.465148" lon="-5.321024">
        <ele>860.820</ele>
        <time>2018-06-15T10:17:01Z</time>
      </trkpt>
      <trkpt lat="42.465140" lon="-5.321096">
        <ele>860.808</ele>
        <time>2018-06-15T10:17:02Z</time>
      </trkpt>
      <trkpt lat="42.465135" lon="-5.321167">
        <ele>860.891</ele>
        <time>2018-06-15T10:17:03Z</time>
      </trkpt>
      <trkpt lat="42.465128" lon="-5.321237">
        <ele>860.864</ele>
        <time>2018-06-15T10:17:04Z</time>
      </trkpt>
      <trkpt lat="42.465121" lon="-5.321308">
        <ele>860.857</ele>
        <time>2018-06-15T10:17:05Z</time>
      </trkpt>
      <trkpt lat="42.465114" lon="-5.321380">
        <ele>860.891</ele>
        <time>2018-06-15T10:17:06Z</time>
      </trkpt>
      <trkpt lat="42.465109" lon="-5.321456">
        <ele>860.890</ele>
        <time>2018-06-15T10:17:07Z</time>
      </trkpt>
      <trkpt lat="42.465106" lon="-5.321530">
        <ele>860.850</ele>
        <time>2018-06-15T10:17:08Z</time>
      </trkpt>
      <trkpt lat="42.465098" lon="-5.321601">
        <ele>860.860</ele>
        <time>2018-06-15T10:17:09Z</time>
      </trkpt>
      <trkpt lat="42.465090" lon="-5.321670">
        <ele>860.870</ele>
        <time>2018-06-15T10:17:10Z</time>
      </trkpt>
      <trkpt lat="42.465085" lon="-5.321739">
        <ele>860.476</ele>
        <time>2018-06-15T10:17:11Z</time>
      </trkpt>
      <trkpt lat="42.465078" lon="-5.321812">
        <ele>860.290</ele>
        <time>2018-06-15T10:17:12Z</time>
      </trkpt>
      <trkpt lat="42.465072" lon="-5.321886">
        <ele>860.119</ele>
        <time>2018-06-15T10:17:13Z</time>
      </trkpt>
      <trkpt lat="42.465067" lon="-5.321961">
        <ele>860.008</ele>
        <time>2018-06-15T10:17:14Z</time>
      </trkpt>
      <trkpt lat="42.465058" lon="-5.322034">
        <ele>859.999</ele>
        <time>2018-06-15T10:17:15Z</time>
      </trkpt>
      <trkpt lat="42.465049" lon="-5.322105">
        <ele>859.932</ele>
        <time>2018-06-15T10:17:16Z</time>
      </trkpt>
      <trkpt lat="42.465045" lon="-5.322175">
        <ele>859.955</ele>
        <time>2018-06-15T10:17:17Z</time>
      </trkpt>
      <trkpt lat="42.465039" lon="-5.322248">
        <ele>859.969</ele>
        <time>2018-06-15T10:17:18Z</time>
      </trkpt>
      <trkpt lat="42.465031" lon="-5.322322">
        <ele>859.998</ele>
        <time>2018-06-15T10:17:19Z</time>
      </trkpt>
      <trkpt lat="42.465022" lon="-5.322394">
        <ele>859.988</ele>
        <time>2018-06-15T10:17:20Z</time>
      </trkpt>
      <trkpt lat="42.465015" lon="-5.322466">
        <ele>859.938</ele>
        <time>2018-06-15T10:17:21Z</time>
      </trkpt>
      <trkpt lat="42.465008" lon="-5.322539">
        <ele>859.968</ele>
        <time>2018-06-15T10:17:22Z</time>
      </trkpt>
      <trkpt lat="42.465000" lon="-5.322610">
        <ele>859.982</ele>
        <time>2018-06-15T10:17:23Z</time>
      </trkpt>
      <trkpt lat="42.464993" lon="-5.322681">
        <ele>859.943</ele>
        <time>2018-06-15T10:17:24Z</time>
      </trkpt>
      <trkpt lat="42.464985" lon="-5.322756">
        <ele>859.917</ele>
        <time>2018-06-15T10:17:25Z</time>
      </trkpt>
      <trkpt lat="42.464980" lon="-5.322830">
        <ele>860.308</ele>
        <time>2018-06-15T10:17:26Z</time>
      </trkpt>
      <trkpt lat="42.464972" lon="-5.322902">
        <ele>860.590</ele>
        <time>2018-06-15T10:17:27Z</time>
      </trkpt>
      <trkpt lat="42.464961" lon="-5.322973">
        <ele>860.213</ele>
        <time>2018-06-15T10:17:28Z</time>
      </trkpt>
      <trkpt lat="42.464955" lon="-5.323044">
        <ele>860.016</ele>
        <time>2018-06-15T10:17:29Z</time>
      </trkpt>
      <trkpt lat="42.464949" lon="-5.323116">
        <ele>859.940</ele>
        <time>2018-06-15T10:17:30Z</time>
      </trkpt>
      <trkpt lat="42.464941" lon="-5.323188">
        <ele>859.889</ele>
        <time>2018-06-15T10:17:31Z</time>
      </trkpt>
      <trkpt lat="42.464934" lon="-5.323262">
        <ele>859.879</ele>
        <time>2018-06-15T10:17:32Z</time>
      </trkpt>
      <trkpt lat="42.464929" lon="-5.323336">
        <ele>859.839</ele>
        <time>2018-06-15T10:17:33Z</time>
      </trkpt>
      <trkpt lat="42.464921" lon="-5.323411">
        <ele>859.489</ele>
        <time>2018-06-15T10:17:34Z</time>
      </trkpt>
      <trkpt lat="42.464916" lon="-5.323487">
        <ele>859.694</ele>
        <time>2018-06-15T10:17:35Z</time>
      </trkpt>
      <trkpt lat="42.464910" lon="-5.323560">
        <ele>859.757</ele>
        <time>2018-06-15T10:17:36Z</time>
      </trkpt>
      <trkpt lat="42.464903" lon="-5.323633">
        <ele>859.822</ele>
        <time>2018-06-15T10:17:37Z</time>
      </trkpt>
      <trkpt lat="42.464893" lon="-5.323704">
        <ele>859.408</ele>
        <time>2018-06-15T10:17:38Z</time>
      </trkpt>
      <trkpt lat="42.464887" lon="-5.323777">
        <ele>859.271</ele>
        <time>2018-06-15T10:17:39Z</time>
      </trkpt>
      <trkpt lat="42.464881" lon="-5.323853">
        <ele>859.164</ele>
        <time>2018-06-15T10:17:40Z</time>
      </trkpt>
      <trkpt lat="42.464872" lon="-5.323924">
        <ele>859.097</ele>
        <time>2018-06-15T10:17:41Z</time>
      </trkpt>
      <trkpt lat="42.464867" lon="-5.323999">
        <ele>859.031</ele>
        <time>2018-06-15T10:17:42Z</time>
      </trkpt>
      <trkpt lat="42.464858" lon="-5.324074">
        <ele>859.040</ele>
        <time>2018-06-15T10:17:43Z</time>
      </trkpt>
      <trkpt lat="42.464850" lon="-5.324149">
        <ele>859.090</ele>
        <time>2018-06-15T10:17:44Z</time>
      </trkpt>
      <trkpt lat="42.464841" lon="-5.324224">
        <ele>859.420</ele>
        <time>2018-06-15T10:17:45Z</time>
      </trkpt>
      <trkpt lat="42.464831" lon="-5.324299">
        <ele>859.650</ele>
        <time>2018-06-15T10:17:46Z</time>
      </trkpt>
      <trkpt lat="42.464825" lon="-5.324382">
        <ele>859.766</ele>
        <time>2018-06-15T10:17:47Z</time>
      </trkpt>
      <trkpt lat="42.464820" lon="-5.324459">
        <ele>859.829</ele>
        <time>2018-06-15T10:17:48Z</time>
      </trkpt>
      <trkpt lat="42.464813" lon="-5.324537">
        <ele>859.921</ele>
        <time>2018-06-15T10:17:49Z</time>
      </trkpt>
      <trkpt lat="42.464806" lon="-5.324615">
        <ele>859.908</ele>
        <time>2018-06-15T10:17:50Z</time>
      </trkpt>
      <trkpt lat="42.464797" lon="-5.324691">
        <ele>859.978</ele>
        <time>2018-06-15T10:17:51Z</time>
      </trkpt>
      <trkpt lat="42.464790" lon="-5.324762">
        <ele>859.961</ele>
        <time>2018-06-15T10:17:52Z</time>
      </trkpt>
      <trkpt lat="42.464780" lon="-5.324834">
        <ele>859.944</ele>
        <time>2018-06-15T10:17:53Z</time>
      </trkpt>
      <trkpt lat="42.464772" lon="-5.324903">
        <ele>859.948</ele>
        <time>2018-06-15T10:17:54Z</time>
      </trkpt>
      <trkpt lat="42.464762" lon="-5.324965">
        <ele>859.937</ele>
        <time>2018-06-15T10:17:55Z</time>
      </trkpt>
      <trkpt lat="42.464753" lon="-5.325031">
        <ele>859.937</ele>
        <time>2018-06-15T10:17:56Z</time>
      </trkpt>
      <trkpt lat="42.464740" lon="-5.325150">
        <ele>859.937</ele>
        <time>2018-06-15T10:17:58Z</time>
      </trkpt>
      <trkpt lat="42.464728" lon="-5.325256">
        <ele>859.517</ele>
        <time>2018-06-15T10:18:00Z</time>
      </trkpt>
      <trkpt lat="42.464721" lon="-5.325367">
        <ele>859.719</ele>
        <time>2018-06-15T10:18:02Z</time>
      </trkpt>
      <trkpt lat="42.464716" lon="-5.325476">
        <ele>859.809</ele>
        <time>2018-06-15T10:18:04Z</time>
      </trkpt>
      <trkpt lat="42.464712" lon="-5.325539">
        <ele>859.919</ele>
        <time>2018-06-15T10:18:05Z</time>
      </trkpt>
      <trkpt lat="42.464704" lon="-5.325609">
        <ele>859.908</ele>
        <time>2018-06-15T10:18:06Z</time>
      </trkpt>
      <trkpt lat="42.464699" lon="-5.325681">
        <ele>859.943</ele>
        <time>2018-06-15T10:18:07Z</time>
      </trkpt>
      <trkpt lat="42.464694" lon="-5.325751">
        <ele>859.966</ele>
        <time>2018-06-15T10:18:08Z</time>
      </trkpt>
      <trkpt lat="42.464687" lon="-5.325818">
        <ele>859.529</ele>
        <time>2018-06-15T10:18:09Z</time>
      </trkpt>
      <trkpt lat="42.464676" lon="-5.325888">
        <ele>859.363</ele>
        <time>2018-06-15T10:18:10Z</time>
      </trkpt>
      <trkpt lat="42.464665" lon="-5.325962">
        <ele>859.632</ele>
        <time>2018-06-15T10:18:11Z</time>
      </trkpt>
      <trkpt lat="42.464658" lon="-5.326037">
        <ele>859.882</ele>
        <time>2018-06-15T10:18:12Z</time>
      </trkpt>
      <trkpt lat="42.464654" lon="-5.326108">
        <ele>859.942</ele>
        <time>2018-06-15T10:18:13Z</time>
      </trkpt>
      <trkpt lat="42.464644" lon="-5.326183">
        <ele>859.652</ele>
        <time>2018-06-15T10:18:14Z</time>
      </trkpt>
      <trkpt lat="42.464634" lon="-5.326257">
        <ele>859.441</ele>
        <time>2018-06-15T10:18:15Z</time>
      </trkpt>
      <trkpt lat="42.464625" lon="-5.326327">
        <ele>859.381</ele>
        <time>2018-06-15T10:18:16Z</time>
      </trkpt>
      <trkpt lat="42.464616" lon="-5.326392">
        <ele>859.209</ele>
        <time>2018-06-15T10:18:17Z</time>
      </trkpt>
      <trkpt lat="42.464611" lon="-5.326457">
        <ele>859.208</ele>
        <time>2018-06-15T10:18:18Z</time>
      </trkpt>
      <trkpt lat="42.464607" lon="-5.326528">
        <ele>859.276</ele>
        <time>2018-06-15T10:18:19Z</time>
      </trkpt>
      <trkpt lat="42.464601" lon="-5.326599">
        <ele>859.289</ele>
        <time>2018-06-15T10:18:20Z</time>
      </trkpt>
      <trkpt lat="42.464593" lon="-5.326665">
        <ele>859.272</ele>
        <time>2018-06-15T10:18:21Z</time>
      </trkpt>
      <trkpt lat="42.464588" lon="-5.326726">
        <ele>859.276</ele>
        <time>2018-06-15T10:18:22Z</time>
      </trkpt>
      <trkpt lat="42.464585" lon="-5.326787">
        <ele>859.225</ele>
        <time>2018-06-15T10:18:23Z</time>
      </trkpt>
      <trkpt lat="42.464580" lon="-5.326849">
        <ele>859.215</ele>
        <time>2018-06-15T10:18:24Z</time>
      </trkpt>
      <trkpt lat="42.464574" lon="-5.326917">
        <ele>859.245</ele>
        <time>2018-06-15T10:18:25Z</time>
      </trkpt>
      <trkpt lat="42.464568" lon="-5.326984">
        <ele>859.225</ele>
        <time>2018-06-15T10:18:26Z</time>
      </trkpt>
      <trkpt lat="42.464564" lon="-5.327047">
        <ele>859.238</ele>
        <time>2018-06-15T10:18:27Z</time>
      </trkpt>
      <trkpt lat="42.464559" lon="-5.327118">
        <ele>859.270</ele>
        <time>2018-06-15T10:18:28Z</time>
      </trkpt>
      <trkpt lat="42.464551" lon="-5.327192">
        <ele>859.217</ele>
        <time>2018-06-15T10:18:29Z</time>
      </trkpt>
      <trkpt lat="42.464541" lon="-5.327269">
        <ele>859.208</ele>
        <time>2018-06-15T10:18:30Z</time>
      </trkpt>
      <trkpt lat="42.464537" lon="-5.327345">
        <ele>858.895</ele>
        <time>2018-06-15T10:18:31Z</time>
      </trkpt>
      <trkpt lat="42.464528" lon="-5.327421">
        <ele>858.658</ele>
        <time>2018-06-15T10:18:32Z</time>
      </trkpt>
      <trkpt lat="42.464518" lon="-5.327503">
        <ele>858.561</ele>
        <time>2018-06-15T10:18:33Z</time>
      </trkpt>
      <trkpt lat="42.464510" lon="-5.327583">
        <ele>858.085</ele>
        <time>2018-06-15T10:18:34Z</time>
      </trkpt>
      <trkpt lat="42.464507" lon="-5.327668">
        <ele>857.724</ele>
        <time>2018-06-15T10:18:35Z</time>
      </trkpt>
      <trkpt lat="42.464504" lon="-5.327755">
        <ele>857.584</ele>
        <time>2018-06-15T10:18:36Z</time>
      </trkpt>
      <trkpt lat="42.464505" lon="-5.327846">
        <ele>857.464</ele>
        <time>2018-06-15T10:18:37Z</time>
      </trkpt>
      <trkpt lat="42.464515" lon="-5.327933">
        <ele>857.384</ele>
        <time>2018-06-15T10:18:38Z</time>
      </trkpt>
      <trkpt lat="42.464534" lon="-5.328027">
        <ele>856.913</ele>
        <time>2018-06-15T10:18:39Z</time>
      </trkpt>
      <trkpt lat="42.464555" lon="-5.328117">
        <ele>856.643</ele>
        <time>2018-06-15T10:18:40Z</time>
      </trkpt>
      <trkpt lat="42.464582" lon="-5.328208">
        <ele>856.407</ele>
        <time>2018-06-15T10:18:41Z</time>
      </trkpt>
      <trkpt lat="42.464614" lon="-5.328297">
        <ele>855.908</ele>
        <time>2018-06-15T10:18:42Z</time>
      </trkpt>
      <trkpt lat="42.464654" lon="-5.328384">
        <ele>855.653</ele>
        <time>2018-06-15T10:18:43Z</time>
      </trkpt>
      <trkpt lat="42.464697" lon="-5.328464">
        <ele>855.426</ele>
        <time>2018-06-15T10:18:44Z</time>
      </trkpt>
      <trkpt lat="42.464749" lon="-5.328544">
        <ele>854.929</ele>
        <time>2018-06-15T10:18:45Z</time>
      </trkpt>
      <trkpt lat="42.464803" lon="-5.328620">
        <ele>854.663</ele>
        <time>2018-06-15T10:18:46Z</time>
      </trkpt>
      <trkpt lat="42.464865" lon="-5.328682">
        <ele>854.432</ele>
        <time>2018-06-15T10:18:47Z</time>
      </trkpt>
      <trkpt lat="42.464927" lon="-5.328737">
        <ele>853.952</ele>
        <time>2018-06-15T10:18:48Z</time>
      </trkpt>
      <trkpt lat="42.464995" lon="-5.328784">
        <ele>853.682</ele>
        <time>2018-06-15T10:18:49Z</time>
      </trkpt>
      <trkpt lat="42.465066" lon="-5.328825">
        <ele>853.482</ele>
        <time>2018-06-15T10:18:50Z</time>
      </trkpt>
      <trkpt lat="42.465140" lon="-5.328857">
        <ele>852.931</ele>
        <time>2018-06-15T10:18:51Z</time>
      </trkpt>
      <trkpt lat="42.465216" lon="-5.328887">
        <ele>852.661</ele>
        <time>2018-06-15T10:18:52Z</time>
      </trkpt>
      <trkpt lat="42.465287" lon="-5.328917">
        <ele>852.407</ele>
        <time>2018-06-15T10:18:53Z</time>
      </trkpt>
      <trkpt lat="42.465355" lon="-5.328942">
        <ele>852.308</ele>
        <time>2018-06-15T10:18:54Z</time>
      </trkpt>
      <trkpt lat="42.465420" lon="-5.328953">
        <ele>852.635</ele>
        <time>2018-06-15T10:18:55Z</time>
      </trkpt>
      <trkpt lat="42.465493" lon="-5.328966">
        <ele>852.418</ele>
        <time>2018-06-15T10:18:56Z</time>
      </trkpt>
      <trkpt lat="42.465560" lon="-5.328992">
        <ele>852.371</ele>
        <time>2018-06-15T10:18:57Z</time>
      </trkpt>
      <trkpt lat="42.465630" lon="-5.329002">
        <ele>852.215</ele>
        <time>2018-06-15T10:18:58Z</time>
      </trkpt>
      <trkpt lat="42.465689" lon="-5.329037">
        <ele>851.824</ele>
        <time>2018-06-15T10:18:59Z</time>
      </trkpt>
      <trkpt lat="42.465752" lon="-5.329057">
        <ele>851.584</ele>
        <time>2018-06-15T10:19:00Z</time>
      </trkpt>
      <trkpt lat="42.465812" lon="-5.329088">
        <ele>851.364</ele>
        <time>2018-06-15T10:19:01Z</time>
      </trkpt>
      <trkpt lat="42.465874" lon="-5.329108">
        <ele>851.254</ele>
        <time>2018-06-15T10:19:02Z</time>
      </trkpt>
      <trkpt lat="42.465938" lon="-5.329129">
        <ele>851.128</ele>
        <time>2018-06-15T10:19:03Z</time>
      </trkpt>
      <trkpt lat="42.465998" lon="-5.329155">
        <ele>851.189</ele>
        <time>2018-06-15T10:19:04Z</time>
      </trkpt>
      <trkpt lat="42.466056" lon="-5.329176">
        <ele>851.117</ele>
        <time>2018-06-15T10:19:05Z</time>
      </trkpt>
      <trkpt lat="42.466120" lon="-5.329198">
        <ele>851.108</ele>
        <time>2018-06-15T10:19:06Z</time>
      </trkpt>
      <trkpt lat="42.466183" lon="-5.329219">
        <ele>851.114</ele>
        <time>2018-06-15T10:19:07Z</time>
      </trkpt>
      <trkpt lat="42.466246" lon="-5.329240">
        <ele>851.187</ele>
        <time>2018-06-15T10:19:08Z</time>
      </trkpt>
      <trkpt lat="42.466310" lon="-5.329260">
        <ele>851.120</ele>
        <time>2018-06-15T10:19:09Z</time>
      </trkpt>
      <trkpt lat="42.466374" lon="-5.329283">
        <ele>851.134</ele>
        <time>2018-06-15T10:19:10Z</time>
      </trkpt>
      <trkpt lat="42.466436" lon="-5.329310">
        <ele>851.193</ele>
        <time>2018-06-15T10:19:11Z</time>
      </trkpt>
      <trkpt lat="42.466497" lon="-5.329336">
        <ele>851.133</ele>
        <time>2018-06-15T10:19:12Z</time>
      </trkpt>
      <trkpt lat="42.466560" lon="-5.329358">
        <ele>851.123</ele>
        <time>2018-06-15T10:19:13Z</time>
      </trkpt>
      <trkpt lat="42.466623" lon="-5.329381">
        <ele>851.163</ele>
        <time>2018-06-15T10:19:14Z</time>
      </trkpt>
      <trkpt lat="42.466685" lon="-5.329401">
        <ele>851.148</ele>
        <time>2018-06-15T10:19:15Z</time>
      </trkpt>
      <trkpt lat="42.466749" lon="-5.329418">
        <ele>851.561</ele>
        <time>2018-06-15T10:19:16Z</time>
      </trkpt>
      <trkpt lat="42.466811" lon="-5.329444">
        <ele>851.317</ele>
        <time>2018-06-15T10:19:17Z</time>
      </trkpt>
      <trkpt lat="42.466873" lon="-5.329465">
        <ele>851.208</ele>
        <time>2018-06-15T10:19:18Z</time>
      </trkpt>
      <trkpt lat="42.466933" lon="-5.329487">
        <ele>851.176</ele>
        <time>2018-06-15T10:19:19Z</time>
      </trkpt>
      <trkpt lat="42.466994" lon="-5.329508">
        <ele>851.199</ele>
        <time>2018-06-15T10:19:20Z</time>
      </trkpt>
      <trkpt lat="42.467050" lon="-5.329530">
        <ele>851.142</ele>
        <time>2018-06-15T10:19:21Z</time>
      </trkpt>
      <trkpt lat="42.467110" lon="-5.329548">
        <ele>851.166</ele>
        <time>2018-06-15T10:19:22Z</time>
      </trkpt>
      <trkpt lat="42.467168" lon="-5.329571">
        <ele>851.185</ele>
        <time>2018-06-15T10:19:23Z</time>
      </trkpt>
      <trkpt lat="42.467221" lon="-5.329593">
        <ele>851.185</ele>
        <time>2018-06-15T10:19:24Z</time>
      </trkpt>
      <trkpt lat="42.467273" lon="-5.329618">
        <ele>851.155</ele>
        <time>2018-06-15T10:19:25Z</time>
      </trkpt>
      <trkpt lat="42.467322" lon="-5.329643">
        <ele>851.195</ele>
        <time>2018-06-15T10:19:26Z</time>
      </trkpt>
      <trkpt lat="42.467368" lon="-5.329670">
        <ele>850.747</ele>
        <time>2018-06-15T10:19:27Z</time>
      </trkpt>
      <trkpt lat="42.467454" lon="-5.329712">
        <ele>850.529</ele>
        <time>2018-06-15T10:19:29Z</time>
      </trkpt>
      <trkpt lat="42.467500" lon="-5.329741">
        <ele>850.421</ele>
        <time>2018-06-15T10:19:30Z</time>
      </trkpt>
      <trkpt lat="42.467540" lon="-5.329774">
        <ele>850.308</ele>
        <time>2018-06-15T10:19:31Z</time>
      </trkpt>
      <trkpt lat="42.467610" lon="-5.329845">
        <ele>850.226</ele>
        <time>2018-06-15T10:19:33Z</time>
      </trkpt>
      <trkpt lat="42.467673" lon="-5.329903">
        <ele>850.299</ele>
        <time>2018-06-15T10:19:35Z</time>
      </trkpt>
      <trkpt lat="42.467719" lon="-5.329948">
        <ele>850.272</ele>
        <time>2018-06-15T10:19:37Z</time>
      </trkpt>
      <trkpt lat="42.467771" lon="-5.330000">
        <ele>849.846</ele>
        <time>2018-06-15T10:19:40Z</time>
      </trkpt>
      <trkpt lat="42.467819" lon="-5.330044">
        <ele>849.615</ele>
        <time>2018-06-15T10:19:43Z</time>
      </trkpt>
      <trkpt lat="42.467879" lon="-5.330092">
        <ele>849.355</ele>
        <time>2018-06-15T10:22:15Z</time>
      </trkpt>
      <trkpt lat="42.467874" lon="-5.330154">
        <ele>848.995</ele>
        <time>2018-06-15T10:22:29Z</time>
      </trkpt>
      <trkpt lat="42.467897" lon="-5.330210">
        <ele>848.725</ele>
        <time>2018-06-15T10:22:32Z</time>
      </trkpt>
      <trkpt lat="42.467936" lon="-5.330283">
        <ele>848.671</ele>
        <time>2018-06-15T10:22:35Z</time>
      </trkpt>
      <trkpt lat="42.467965" lon="-5.330340">
        <ele>848.541</ele>
        <time>2018-06-15T10:22:37Z</time>
      </trkpt>
      <trkpt lat="42.467996" lon="-5.330409">
        <ele>848.415</ele>
        <time>2018-06-15T10:22:39Z</time>
      </trkpt>
      <trkpt lat="42.468029" lon="-5.330490">
        <ele>848.408</ele>
        <time>2018-06-15T10:22:41Z</time>
      </trkpt>
      <trkpt lat="42.468063" lon="-5.330575">
        <ele>848.489</ele>
        <time>2018-06-15T10:22:43Z</time>
      </trkpt>
      <trkpt lat="42.468087" lon="-5.330668">
        <ele>848.412</ele>
        <time>2018-06-15T10:22:45Z</time>
      </trkpt>
      <trkpt lat="42.468113" lon="-5.330781">
        <ele>848.455</ele>
        <time>2018-06-15T10:22:46Z</time>
      </trkpt>
      <trkpt lat="42.468143" lon="-5.330876">
        <ele>848.469</ele>
        <time>2018-06-15T10:22:48Z</time>
      </trkpt>
      <trkpt lat="42.468171" lon="-5.330979">
        <ele>848.018</ele>
        <time>2018-06-15T10:22:50Z</time>
      </trkpt>
      <trkpt lat="42.468201" lon="-5.331089">
        <ele>847.868</ele>
        <time>2018-06-15T10:22:52Z</time>
      </trkpt>
      <trkpt lat="42.468229" lon="-5.331199">
        <ele>847.318</ele>
        <time>2018-06-15T10:22:54Z</time>
      </trkpt>
      <trkpt lat="42.468243" lon="-5.331258">
        <ele>847.048</ele>
        <time>2018-06-15T10:22:55Z</time>
      </trkpt>
      <trkpt lat="42.468269" lon="-5.331375">
        <ele>846.828</ele>
        <time>2018-06-15T10:22:57Z</time>
      </trkpt>
      <trkpt lat="42.468282" lon="-5.331434">
        <ele>846.789</ele>
        <time>2018-06-15T10:22:58Z</time>
      </trkpt>
      <trkpt lat="42.468296" lon="-5.331494">
        <ele>846.617</ele>
        <time>2018-06-15T10:22:59Z</time>
      </trkpt>
      <trkpt lat="42.468310" lon="-5.331555">
        <ele>846.608</ele>
        <time>2018-06-15T10:23:00Z</time>
      </trkpt>
      <trkpt lat="42.468336" lon="-5.331671">
        <ele>846.614</ele>
        <time>2018-06-15T10:23:02Z</time>
      </trkpt>
      <trkpt lat="42.468356" lon="-5.331726">
        <ele>846.697</ele>
        <time>2018-06-15T10:23:03Z</time>
      </trkpt>
      <trkpt lat="42.468364" lon="-5.331790">
        <ele>846.650</ele>
        <time>2018-06-15T10:23:04Z</time>
      </trkpt>
      <trkpt lat="42.468371" lon="-5.331853">
        <ele>846.654</ele>
        <time>2018-06-15T10:23:05Z</time>
      </trkpt>
      <trkpt lat="42.468382" lon="-5.331972">
        <ele>846.663</ele>
        <time>2018-06-15T10:23:07Z</time>
      </trkpt>
      <trkpt lat="42.468382" lon="-5.332091">
        <ele>846.673</ele>
        <time>2018-06-15T10:23:09Z</time>
      </trkpt>
      <trkpt lat="42.468388" lon="-5.332209">
        <ele>846.633</ele>
        <time>2018-06-15T10:23:11Z</time>
      </trkpt>
      <trkpt lat="42.468387" lon="-5.332272">
        <ele>846.693</ele>
        <time>2018-06-15T10:23:12Z</time>
      </trkpt>
      <trkpt lat="42.468389" lon="-5.332393">
        <ele>846.637</ele>
        <time>2018-06-15T10:23:14Z</time>
      </trkpt>
      <trkpt lat="42.468386" lon="-5.332507">
        <ele>846.649</ele>
        <time>2018-06-15T10:23:16Z</time>
      </trkpt>
      <trkpt lat="42.468382" lon="-5.332626">
        <ele>846.613</ele>
        <time>2018-06-15T10:23:18Z</time>
      </trkpt>
      <trkpt lat="42.468378" lon="-5.332745">
        <ele>846.608</ele>
        <time>2018-06-15T10:23:20Z</time>
      </trkpt>
      <trkpt lat="42.468378" lon="-5.332859">
        <ele>846.245</ele>
        <time>2018-06-15T10:23:22Z</time>
      </trkpt>
      <trkpt lat="42.468377" lon="-5.332974">
        <ele>846.498</ele>
        <time>2018-06-15T10:23:24Z</time>
      </trkpt>
      <trkpt lat="42.468382" lon="-5.333091">
        <ele>846.181</ele>
        <time>2018-06-15T10:23:26Z</time>
      </trkpt>
      <trkpt lat="42.468382" lon="-5.333210">
        <ele>846.345</ele>
        <time>2018-06-15T10:23:28Z</time>
      </trkpt>
      <trkpt lat="42.468381" lon="-5.333327">
        <ele>846.044</ele>
        <time>2018-06-15T10:23:30Z</time>
      </trkpt>
      <trkpt lat="42.468380" lon="-5.333446">
        <ele>845.864</ele>
        <time>2018-06-15T10:23:32Z</time>
      </trkpt>
      <trkpt lat="42.468380" lon="-5.333569">
        <ele>845.724</ele>
        <time>2018-06-15T10:23:34Z</time>
      </trkpt>
      <trkpt lat="42.468379" lon="-5.333631">
        <ele>845.664</ele>
        <time>2018-06-15T10:23:35Z</time>
      </trkpt>
      <trkpt lat="42.468379" lon="-5.333694">
        <ele>845.691</ele>
        <time>2018-06-15T10:23:36Z</time>
      </trkpt>
      <trkpt lat="42.468380" lon="-5.333756">
        <ele>845.681</ele>
        <time>2018-06-15T10:23:37Z</time>
      </trkpt>
      <trkpt lat="42.468381" lon="-5.333819">
        <ele>845.619</ele>
        <time>2018-06-15T10:23:38Z</time>
      </trkpt>
      <trkpt lat="42.468382" lon="-5.333881">
        <ele>845.608</ele>
        <time>2018-06-15T10:23:39Z</time>
      </trkpt>
      <trkpt lat="42.468381" lon="-5.333944">
        <ele>845.651</ele>
        <time>2018-06-15T10:23:40Z</time>
      </trkpt>
      <trkpt lat="42.468381" lon="-5.334062">
        <ele>845.694</ele>
        <time>2018-06-15T10:23:42Z</time>
      </trkpt>
      <trkpt lat="42.468380" lon="-5.334186">
        <ele>845.697</ele>
        <time>2018-06-15T10:23:44Z</time>
      </trkpt>
      <trkpt lat="42.468377" lon="-5.334248">
        <ele>845.281</ele>
        <time>2018-06-15T10:23:45Z</time>
      </trkpt>
      <trkpt lat="42.468377" lon="-5.334312">
        <ele>845.010</ele>
        <time>2018-06-15T10:23:46Z</time>
      </trkpt>
      <trkpt lat="42.468377" lon="-5.334376">
        <ele>844.940</ele>
        <time>2018-06-15T10:23:47Z</time>
      </trkpt>
      <trkpt lat="42.468380" lon="-5.334443">
        <ele>844.880</ele>
        <time>2018-06-15T10:23:48Z</time>
      </trkpt>
      <trkpt lat="42.468377" lon="-5.334509">
        <ele>844.770</ele>
        <time>2018-06-15T10:23:49Z</time>
      </trkpt>
      <trkpt lat="42.468377" lon="-5.334573">
        <ele>844.779</ele>
        <time>2018-06-15T10:23:50Z</time>
      </trkpt>
      <trkpt lat="42.468374" lon="-5.334636">
        <ele>844.705</ele>
        <time>2018-06-15T10:23:51Z</time>
      </trkpt>
      <trkpt lat="42.468373" lon="-5.334699">
        <ele>844.725</ele>
        <time>2018-06-15T10:23:52Z</time>
      </trkpt>
      <trkpt lat="42.468372" lon="-5.334763">
        <ele>844.708</ele>
        <time>2018-06-15T10:23:53Z</time>
      </trkpt>
      <trkpt lat="42.468374" lon="-5.334828">
        <ele>844.779</ele>
        <time>2018-06-15T10:23:54Z</time>
      </trkpt>
      <trkpt lat="42.468377" lon="-5.334893">
        <ele>844.732</ele>
        <time>2018-06-15T10:23:55Z</time>
      </trkpt>
      <trkpt lat="42.468377" lon="-5.334963">
        <ele>844.725</ele>
        <time>2018-06-15T10:23:56Z</time>
      </trkpt>
      <trkpt lat="42.468378" lon="-5.335030">
        <ele>844.729</ele>
        <time>2018-06-15T10:23:57Z</time>
      </trkpt>
      <trkpt lat="42.468377" lon="-5.335098">
        <ele>844.788</ele>
        <time>2018-06-15T10:23:58Z</time>
      </trkpt>
      <trkpt lat="42.468379" lon="-5.335166">
        <ele>844.778</ele>
        <time>2018-06-15T10:23:59Z</time>
      </trkpt>
      <trkpt lat="42.468379" lon="-5.335232">
        <ele>844.798</ele>
        <time>2018-06-15T10:24:00Z</time>
      </trkpt>
      <trkpt lat="42.468379" lon="-5.335297">
        <ele>844.748</ele>
        <time>2018-06-15T10:24:01Z</time>
      </trkpt>
      <trkpt lat="42.468377" lon="-5.335363">
        <ele>844.775</ele>
        <time>2018-06-15T10:24:02Z</time>
      </trkpt>
      <trkpt lat="42.468377" lon="-5.335430">
        <ele>844.728</ele>
        <time>2018-06-15T10:24:03Z</time>
      </trkpt>
      <trkpt lat="42.468374" lon="-5.335498">
        <ele>845.120</ele>
        <time>2018-06-15T10:24:04Z</time>
      </trkpt>
      <trkpt lat="42.468375" lon="-5.335564">
        <ele>845.308</ele>
        <time>2018-06-15T10:24:05Z</time>
      </trkpt>
      <trkpt lat="42.468375" lon="-5.335628">
        <ele>845.449</ele>
        <time>2018-06-15T10:24:06Z</time>
      </trkpt>
      <trkpt lat="42.468375" lon="-5.335695">
        <ele>845.592</ele>
        <time>2018-06-15T10:24:07Z</time>
      </trkpt>
      <trkpt lat="42.468374" lon="-5.335760">
        <ele>845.675</ele>
        <time>2018-06-15T10:24:08Z</time>
      </trkpt>
      <trkpt lat="42.468377" lon="-5.335824">
        <ele>845.259</ele>
        <time>2018-06-15T10:24:09Z</time>
      </trkpt>
      <trkpt lat="42.468376" lon="-5.335890">
        <ele>845.018</ele>
        <time>2018-06-15T10:24:10Z</time>
      </trkpt>
      <trkpt lat="42.468374" lon="-5.335960">
        <ele>844.958</ele>
        <time>2018-06-15T10:24:11Z</time>
      </trkpt>
      <trkpt lat="42.468375" lon="-5.336024">
        <ele>844.888</ele>
        <time>2018-06-15T10:24:12Z</time>
      </trkpt>
      <trkpt lat="42.468372" lon="-5.336092">
        <ele>844.838</ele>
        <time>2018-06-15T10:24:13Z</time>
      </trkpt>
      <trkpt lat="42.468374" lon="-5.336155">
        <ele>845.217</ele>
        <time>2018-06-15T10:24:14Z</time>
      </trkpt>
      <trkpt lat="42.468375" lon="-5.336218">
        <ele>845.487</ele>
        <time>2018-06-15T10:24:15Z</time>
      </trkpt>
      <trkpt lat="42.468371" lon="-5.336340">
        <ele>845.515</ele>
        <time>2018-06-15T10:24:17Z</time>
      </trkpt>
      <trkpt lat="42.468372" lon="-5.336456">
        <ele>845.608</ele>
        <time>2018-06-15T10:24:19Z</time>
      </trkpt>
      <trkpt lat="42.468374" lon="-5.336567">
        <ele>845.633</ele>
        <time>2018-06-15T10:24:21Z</time>
      </trkpt>
      <trkpt lat="42.468373" lon="-5.336629">
        <ele>845.616</ele>
        <time>2018-06-15T10:24:22Z</time>
      </trkpt>
      <trkpt lat="42.468378" lon="-5.336746">
        <ele>845.689</ele>
        <time>2018-06-15T10:24:24Z</time>
      </trkpt>
      <trkpt lat="42.468388" lon="-5.336867">
        <ele>846.013</ele>
        <time>2018-06-15T10:24:26Z</time>
      </trkpt>
      <trkpt lat="42.468393" lon="-5.336933">
        <ele>846.272</ele>
        <time>2018-06-15T10:24:27Z</time>
      </trkpt>
      <trkpt lat="42.468401" lon="-5.336998">
        <ele>846.372</ele>
        <time>2018-06-15T10:24:28Z</time>
      </trkpt>
      <trkpt lat="42.468407" lon="-5.337062">
        <ele>846.482</ele>
        <time>2018-06-15T10:24:29Z</time>
      </trkpt>
      <trkpt lat="42.468426" lon="-5.337173">
        <ele>846.912</ele>
        <time>2018-06-15T10:24:31Z</time>
      </trkpt>
      <trkpt lat="42.468437" lon="-5.337236">
        <ele>847.222</ele>
        <time>2018-06-15T10:24:32Z</time>
      </trkpt>
      <trkpt lat="42.468448" lon="-5.337296">
        <ele>847.462</ele>
        <time>2018-06-15T10:24:33Z</time>
      </trkpt>
      <trkpt lat="42.468477" lon="-5.337405">
        <ele>847.508</ele>
        <time>2018-06-15T10:24:35Z</time>
      </trkpt>
      <trkpt lat="42.468496" lon="-5.337461">
        <ele>848.008</ele>
        <time>2018-06-15T10:24:36Z</time>
      </trkpt>
      <trkpt lat="42.468529" lon="-5.337571">
        <ele>848.334</ele>
        <time>2018-06-15T10:24:38Z</time>
      </trkpt>
      <trkpt lat="42.468546" lon="-5.337627">
        <ele>848.517</ele>
        <time>2018-06-15T10:24:39Z</time>
      </trkpt>
      <trkpt lat="42.468566" lon="-5.337682">
        <ele>848.640</ele>
        <time>2018-06-15T10:24:40Z</time>
      </trkpt>
      <trkpt lat="42.468610" lon="-5.337787">
        <ele>848.784</ele>
        <time>2018-06-15T10:24:42Z</time>
      </trkpt>
      <trkpt lat="42.468632" lon="-5.337842">
        <ele>848.743</ele>
        <time>2018-06-15T10:24:43Z</time>
      </trkpt>
      <trkpt lat="42.468659" lon="-5.337893">
        <ele>848.793</ele>
        <time>2018-06-15T10:24:44Z</time>
      </trkpt>
      <trkpt lat="42.468687" lon="-5.337941">
        <ele>848.783</ele>
        <time>2018-06-15T10:24:45Z</time>
      </trkpt>
      <trkpt lat="42.468720" lon="-5.337990">
        <ele>848.793</ele>
        <time>2018-06-15T10:24:46Z</time>
      </trkpt>
      <trkpt lat="42.468753" lon="-5.338034">
        <ele>848.743</ele>
        <time>2018-06-15T10:24:47Z</time>
      </trkpt>
      <trkpt lat="42.468790" lon="-5.338076">
        <ele>848.764</ele>
        <time>2018-06-15T10:24:48Z</time>
      </trkpt>
      <trkpt lat="42.468828" lon="-5.338116">
        <ele>848.710</ele>
        <time>2018-06-15T10:24:49Z</time>
      </trkpt>
      <trkpt lat="42.468898" lon="-5.338195">
        <ele>848.708</ele>
        <time>2018-06-15T10:24:51Z</time>
      </trkpt>
      <trkpt lat="42.468936" lon="-5.338235">
        <ele>848.736</ele>
        <time>2018-06-15T10:24:52Z</time>
      </trkpt>
      <trkpt lat="42.468978" lon="-5.338273">
        <ele>848.749</ele>
        <time>2018-06-15T10:24:53Z</time>
      </trkpt>
      <trkpt lat="42.469021" lon="-5.338314">
        <ele>848.782</ele>
        <time>2018-06-15T10:24:54Z</time>
      </trkpt>
      <trkpt lat="42.469063" lon="-5.338351">
        <ele>848.776</ele>
        <time>2018-06-15T10:24:55Z</time>
      </trkpt>
      <trkpt lat="42.469108" lon="-5.338389">
        <ele>848.725</ele>
        <time>2018-06-15T10:24:56Z</time>
      </trkpt>
      <trkpt lat="42.469153" lon="-5.338434">
        <ele>848.765</ele>
        <time>2018-06-15T10:24:57Z</time>
      </trkpt>
      <trkpt lat="42.469196" lon="-5.338477">
        <ele>848.785</ele>
        <time>2018-06-15T10:24:58Z</time>
      </trkpt>
      <trkpt lat="42.469239" lon="-5.338523">
        <ele>848.735</ele>
        <time>2018-06-15T10:24:59Z</time>
      </trkpt>
      <trkpt lat="42.469282" lon="-5.338562">
        <ele>848.718</ele>
        <time>2018-06-15T10:25:00Z</time>
      </trkpt>
      <trkpt lat="42.469322" lon="-5.338607">
        <ele>848.798</ele>
        <time>2018-06-15T10:25:01Z</time>
      </trkpt>
      <trkpt lat="42.469364" lon="-5.338647">
        <ele>848.717</ele>
        <time>2018-06-15T10:25:02Z</time>
      </trkpt>
      <trkpt lat="42.469402" lon="-5.338692">
        <ele>848.708</ele>
        <time>2018-06-15T10:25:03Z</time>
      </trkpt>
      <trkpt lat="42.469438" lon="-5.338731">
        <ele>848.733</ele>
        <time>2018-06-15T10:25:04Z</time>
      </trkpt>
      <trkpt lat="42.469473" lon="-5.338771">
        <ele>848.756</ele>
        <time>2018-06-15T10:25:05Z</time>
      </trkpt>
      <trkpt lat="42.469508" lon="-5.338810">
        <ele>848.769</ele>
        <time>2018-06-15T10:25:06Z</time>
      </trkpt>
      <trkpt lat="42.469573" lon="-5.338875">
        <ele>849.163</ele>
        <time>2018-06-15T10:25:08Z</time>
      </trkpt>
      <trkpt lat="42.469642" lon="-5.338941">
        <ele>849.372</ele>
        <time>2018-06-15T10:25:10Z</time>
      </trkpt>
      <trkpt lat="42.469699" lon="-5.338995">
        <ele>849.442</ele>
        <time>2018-06-15T10:25:12Z</time>
      </trkpt>
      <trkpt lat="42.469751" lon="-5.339054">
        <ele>849.912</ele>
        <time>2018-06-15T10:25:15Z</time>
      </trkpt>
      <trkpt lat="42.469797" lon="-5.339103">
        <ele>850.282</ele>
        <time>2018-06-15T10:25:17Z</time>
      </trkpt>
      <trkpt lat="42.469837" lon="-5.339157">
        <ele>850.836</ele>
        <time>2018-06-15T10:25:19Z</time>
      </trkpt>
      <trkpt lat="42.469881" lon="-5.339210">
        <ele>851.517</ele>
        <time>2018-06-15T10:25:21Z</time>
      </trkpt>
      <trkpt lat="42.469925" lon="-5.339264">
        <ele>851.918</ele>
        <time>2018-06-15T10:25:23Z</time>
      </trkpt>
      <trkpt lat="42.469969" lon="-5.339317">
        <ele>852.608</ele>
        <time>2018-06-15T10:25:25Z</time>
      </trkpt>
      <trkpt lat="42.470016" lon="-5.339373">
        <ele>853.085</ele>
        <time>2018-06-15T10:25:27Z</time>
      </trkpt>
      <trkpt lat="42.470061" lon="-5.339423">
        <ele>853.698</ele>
        <time>2018-06-15T10:25:29Z</time>
      </trkpt>
      <trkpt lat="42.470105" lon="-5.339473">
        <ele>854.081</ele>
        <time>2018-06-15T10:25:31Z</time>
      </trkpt>
      <trkpt lat="42.470152" lon="-5.339524">
        <ele>854.275</ele>
        <time>2018-06-15T10:25:33Z</time>
      </trkpt>
      <trkpt lat="42.470193" lon="-5.339577">
        <ele>854.324</ele>
        <time>2018-06-15T10:25:35Z</time>
      </trkpt>
      <trkpt lat="42.470228" lon="-5.339632">
        <ele>854.854</ele>
        <time>2018-06-15T10:25:37Z</time>
      </trkpt>
      <trkpt lat="42.470263" lon="-5.339688">
        <ele>855.144</ele>
        <time>2018-06-15T10:25:39Z</time>
      </trkpt>
      <trkpt lat="42.470296" lon="-5.339749">
        <ele>855.734</ele>
        <time>2018-06-15T10:25:41Z</time>
      </trkpt>
      <trkpt lat="42.470326" lon="-5.339815">
        <ele>855.652</ele>
        <time>2018-06-15T10:25:43Z</time>
      </trkpt>
      <trkpt lat="42.470355" lon="-5.339892">
        <ele>855.653</ele>
        <time>2018-06-15T10:25:45Z</time>
      </trkpt>
      <trkpt lat="42.470379" lon="-5.339972">
        <ele>855.608</ele>
        <time>2018-06-15T10:25:47Z</time>
      </trkpt>
      <trkpt lat="42.470403" lon="-5.340054">
        <ele>855.608</ele>
        <time>2018-06-15T10:25:49Z</time>
      </trkpt>
      <trkpt lat="42.470424" lon="-5.340140">
        <ele>856.057</ele>
        <time>2018-06-15T10:25:51Z</time>
      </trkpt>
      <trkpt lat="42.470444" lon="-5.340227">
        <ele>856.210</ele>
        <time>2018-06-15T10:25:53Z</time>
      </trkpt>
      <trkpt lat="42.470462" lon="-5.340317">
        <ele>856.373</ele>
        <time>2018-06-15T10:25:55Z</time>
      </trkpt>
      <trkpt lat="42.470482" lon="-5.340407">
        <ele>856.827</ele>
        <time>2018-06-15T10:25:57Z</time>
      </trkpt>
      <trkpt lat="42.470501" lon="-5.340498">
        <ele>856.736</ele>
        <time>2018-06-15T10:25:59Z</time>
      </trkpt>
      <trkpt lat="42.470519" lon="-5.340591">
        <ele>856.616</ele>
        <time>2018-06-15T10:26:01Z</time>
      </trkpt>
      <trkpt lat="42.470535" lon="-5.340690">
        <ele>856.666</ele>
        <time>2018-06-15T10:26:03Z</time>
      </trkpt>
      <trkpt lat="42.470553" lon="-5.340825">
        <ele>857.066</ele>
        <time>2018-06-15T10:26:04Z</time>
      </trkpt>
      <trkpt lat="42.470558" lon="-5.340932">
        <ele>857.219</ele>
        <time>2018-06-15T10:26:06Z</time>
      </trkpt>
      <trkpt lat="42.470562" lon="-5.341034">
        <ele>857.309</ele>
        <time>2018-06-15T10:26:08Z</time>
      </trkpt>
      <trkpt lat="42.470573" lon="-5.341135">
        <ele>857.419</ele>
        <time>2018-06-15T10:26:10Z</time>
      </trkpt>
      <trkpt lat="42.470582" lon="-5.341234">
        <ele>857.408</ele>
        <time>2018-06-15T10:26:12Z</time>
      </trkpt>
      <trkpt lat="42.470590" lon="-5.341337">
        <ele>857.853</ele>
        <time>2018-06-15T10:26:14Z</time>
      </trkpt>
      <trkpt lat="42.470598" lon="-5.341440">
        <ele>858.186</ele>
        <time>2018-06-15T10:26:16Z</time>
      </trkpt>
      <trkpt lat="42.470606" lon="-5.341546">
        <ele>858.379</ele>
        <time>2018-06-15T10:26:18Z</time>
      </trkpt>
      <trkpt lat="42.470614" lon="-5.341657">
        <ele>858.463</ele>
        <time>2018-06-15T10:26:20Z</time>
      </trkpt>
      <trkpt lat="42.470625" lon="-5.341767">
        <ele>858.582</ele>
        <time>2018-06-15T10:26:22Z</time>
      </trkpt>
      <trkpt lat="42.470635" lon="-5.341884">
        <ele>858.532</ele>
        <time>2018-06-15T10:26:24Z</time>
      </trkpt>
      <trkpt lat="42.470643" lon="-5.341996">
        <ele>858.522</ele>
        <time>2018-06-15T10:26:26Z</time>
      </trkpt>
      <trkpt lat="42.470653" lon="-5.342105">
        <ele>858.562</ele>
        <time>2018-06-15T10:26:28Z</time>
      </trkpt>
      <trkpt lat="42.470662" lon="-5.342217">
        <ele>858.536</ele>
        <time>2018-06-15T10:26:30Z</time>
      </trkpt>
      <trkpt lat="42.470671" lon="-5.342330">
        <ele>858.517</ele>
        <time>2018-06-15T10:26:32Z</time>
      </trkpt>
      <trkpt lat="42.470680" lon="-5.342440">
        <ele>858.518</ele>
        <time>2018-06-15T10:26:34Z</time>
      </trkpt>
      <trkpt lat="42.470691" lon="-5.342544">
        <ele>858.508</ele>
        <time>2018-06-15T10:26:36Z</time>
      </trkpt>
      <trkpt lat="42.470703" lon="-5.342647">
        <ele>858.535</ele>
        <time>2018-06-15T10:26:38Z</time>
      </trkpt>
      <trkpt lat="42.470711" lon="-5.342747">
        <ele>858.548</ele>
        <time>2018-06-15T10:26:40Z</time>
      </trkpt>
      <trkpt lat="42.470723" lon="-5.342853">
        <ele>858.571</ele>
        <time>2018-06-15T10:26:42Z</time>
      </trkpt>
      <trkpt lat="42.470734" lon="-5.342964">
        <ele>858.525</ele>
        <time>2018-06-15T10:26:44Z</time>
      </trkpt>
      <trkpt lat="42.470740" lon="-5.343078">
        <ele>858.584</ele>
        <time>2018-06-15T10:26:46Z</time>
      </trkpt>
      <trkpt lat="42.470750" lon="-5.343193">
        <ele>858.964</ele>
        <time>2018-06-15T10:26:48Z</time>
      </trkpt>
      <trkpt lat="42.470756" lon="-5.343305">
        <ele>859.154</ele>
        <time>2018-06-15T10:26:50Z</time>
      </trkpt>
      <trkpt lat="42.470760" lon="-5.343420">
        <ele>859.264</ele>
        <time>2018-06-15T10:26:52Z</time>
      </trkpt>
      <trkpt lat="42.470762" lon="-5.343527">
        <ele>859.368</ele>
        <time>2018-06-15T10:26:54Z</time>
      </trkpt>
      <trkpt lat="42.470759" lon="-5.343641">
        <ele>859.442</ele>
        <time>2018-06-15T10:26:56Z</time>
      </trkpt>
      <trkpt lat="42.470756" lon="-5.343757">
        <ele>859.426</ele>
        <time>2018-06-15T10:26:58Z</time>
      </trkpt>
      <trkpt lat="42.470751" lon="-5.343873">
        <ele>859.408</ele>
        <time>2018-06-15T10:27:00Z</time>
      </trkpt>
      <trkpt lat="42.470748" lon="-5.343991">
        <ele>859.078</ele>
        <time>2018-06-15T10:27:02Z</time>
      </trkpt>
      <trkpt lat="42.470743" lon="-5.344055">
        <ele>858.891</ele>
        <time>2018-06-15T10:27:03Z</time>
      </trkpt>
      <trkpt lat="42.470737" lon="-5.344174">
        <ele>858.734</ele>
        <time>2018-06-15T10:27:05Z</time>
      </trkpt>
      <trkpt lat="42.470732" lon="-5.344235">
        <ele>858.658</ele>
        <time>2018-06-15T10:27:06Z</time>
      </trkpt>
      <trkpt lat="42.470730" lon="-5.344356">
        <ele>858.547</ele>
        <time>2018-06-15T10:27:08Z</time>
      </trkpt>
      <trkpt lat="42.470727" lon="-5.344420">
        <ele>858.527</ele>
        <time>2018-06-15T10:27:09Z</time>
      </trkpt>
      <trkpt lat="42.470724" lon="-5.344486">
        <ele>858.537</ele>
        <time>2018-06-15T10:27:10Z</time>
      </trkpt>
      <trkpt lat="42.470721" lon="-5.344553">
        <ele>858.587</ele>
        <time>2018-06-15T10:27:11Z</time>
      </trkpt>
      <trkpt lat="42.470717" lon="-5.344616">
        <ele>858.551</ele>
        <time>2018-06-15T10:27:12Z</time>
      </trkpt>
      <trkpt lat="42.470711" lon="-5.344684">
        <ele>858.501</ele>
        <time>2018-06-15T10:27:13Z</time>
      </trkpt>
      <trkpt lat="42.470706" lon="-5.344751">
        <ele>858.511</ele>
        <time>2018-06-15T10:27:14Z</time>
      </trkpt>
      <trkpt lat="42.470704" lon="-5.344816">
        <ele>858.508</ele>
        <time>2018-06-15T10:27:15Z</time>
      </trkpt>
      <trkpt lat="42.470699" lon="-5.344888">
        <ele>858.577</ele>
        <time>2018-06-15T10:27:16Z</time>
      </trkpt>
      <trkpt lat="42.470698" lon="-5.344956">
        <ele>858.530</ele>
        <time>2018-06-15T10:27:17Z</time>
      </trkpt>
      <trkpt lat="42.470695" lon="-5.345021">
        <ele>858.533</ele>
        <time>2018-06-15T10:27:18Z</time>
      </trkpt>
      <trkpt lat="42.470689" lon="-5.345092">
        <ele>858.157</ele>
        <time>2018-06-15T10:27:19Z</time>
      </trkpt>
      <trkpt lat="42.470687" lon="-5.345158">
        <ele>857.966</ele>
        <time>2018-06-15T10:27:20Z</time>
      </trkpt>
      <trkpt lat="42.470684" lon="-5.345230">
        <ele>858.246</ele>
        <time>2018-06-15T10:27:21Z</time>
      </trkpt>
      <trkpt lat="42.470681" lon="-5.345294">
        <ele>858.466</ele>
        <time>2018-06-15T10:27:22Z</time>
      </trkpt>
      <trkpt lat="42.470675" lon="-5.345362">
        <ele>858.596</ele>
        <time>2018-06-15T10:27:23Z</time>
      </trkpt>
      <trkpt lat="42.470670" lon="-5.345432">
        <ele>858.298</ele>
        <time>2018-06-15T10:27:24Z</time>
      </trkpt>
      <trkpt lat="42.470666" lon="-5.345502">
        <ele>858.415</ele>
        <time>2018-06-15T10:27:25Z</time>
      </trkpt>
      <trkpt lat="42.470661" lon="-5.345571">
        <ele>858.526</ele>
        <time>2018-06-15T10:27:26Z</time>
      </trkpt>
      <trkpt lat="42.470658" lon="-5.345640">
        <ele>858.608</ele>
        <time>2018-06-15T10:27:27Z</time>
      </trkpt>
      <trkpt lat="42.470655" lon="-5.345709">
        <ele>858.621</ele>
        <time>2018-06-15T10:27:28Z</time>
      </trkpt>
      <trkpt lat="42.470652" lon="-5.345777">
        <ele>858.694</ele>
        <time>2018-06-15T10:27:29Z</time>
      </trkpt>
      <trkpt lat="42.470649" lon="-5.345848">
        <ele>858.627</ele>
        <time>2018-06-15T10:27:30Z</time>
      </trkpt>
      <trkpt lat="42.470645" lon="-5.345914">
        <ele>858.651</ele>
        <time>2018-06-15T10:27:31Z</time>
      </trkpt>
      <trkpt lat="42.470639" lon="-5.345987">
        <ele>858.620</ele>
        <time>2018-06-15T10:27:32Z</time>
      </trkpt>
      <trkpt lat="42.470636" lon="-5.346055">
        <ele>858.660</ele>
        <time>2018-06-15T10:27:33Z</time>
      </trkpt>
      <trkpt lat="42.470635" lon="-5.346120">
        <ele>858.240</ele>
        <time>2018-06-15T10:27:34Z</time>
      </trkpt>
      <trkpt lat="42.470633" lon="-5.346187">
        <ele>858.070</ele>
        <time>2018-06-15T10:27:35Z</time>
      </trkpt>
      <trkpt lat="42.470629" lon="-5.346255">
        <ele>857.926</ele>
        <time>2018-06-15T10:27:36Z</time>
      </trkpt>
      <trkpt lat="42.470625" lon="-5.346322">
        <ele>857.847</ele>
        <time>2018-06-15T10:27:37Z</time>
      </trkpt>
      <trkpt lat="42.470624" lon="-5.346393">
        <ele>857.311</ele>
        <time>2018-06-15T10:27:38Z</time>
      </trkpt>
      <trkpt lat="42.470619" lon="-5.346463">
        <ele>857.008</ele>
        <time>2018-06-15T10:27:39Z</time>
      </trkpt>
      <trkpt lat="42.470615" lon="-5.346537">
        <ele>856.814</ele>
        <time>2018-06-15T10:27:40Z</time>
      </trkpt>
      <trkpt lat="42.470617" lon="-5.346610">
        <ele>856.727</ele>
        <time>2018-06-15T10:27:41Z</time>
      </trkpt>
      <trkpt lat="42.470622" lon="-5.346681">
        <ele>856.610</ele>
        <time>2018-06-15T10:27:42Z</time>
      </trkpt>
      <trkpt lat="42.470622" lon="-5.346747">
        <ele>856.684</ele>
        <time>2018-06-15T10:27:43Z</time>
      </trkpt>
      <trkpt lat="42.470620" lon="-5.346817">
        <ele>856.273</ele>
        <time>2018-06-15T10:27:44Z</time>
      </trkpt>
      <trkpt lat="42.470622" lon="-5.346890">
        <ele>855.953</ele>
        <time>2018-06-15T10:27:45Z</time>
      </trkpt>
      <trkpt lat="42.470630" lon="-5.346962">
        <ele>855.743</ele>
        <time>2018-06-15T10:27:46Z</time>
      </trkpt>
      <trkpt lat="42.470638" lon="-5.347034">
        <ele>855.673</ele>
        <time>2018-06-15T10:27:47Z</time>
      </trkpt>
      <trkpt lat="42.470645" lon="-5.347108">
        <ele>855.143</ele>
        <time>2018-06-15T10:27:48Z</time>
      </trkpt>
      <trkpt lat="42.470650" lon="-5.347185">
        <ele>854.864</ele>
        <time>2018-06-15T10:27:49Z</time>
      </trkpt>
      <trkpt lat="42.470657" lon="-5.347255">
        <ele>854.610</ele>
        <time>2018-06-15T10:27:50Z</time>
      </trkpt>
      <trkpt lat="42.470665" lon="-5.347328">
        <ele>854.508</ele>
        <time>2018-06-15T10:27:51Z</time>
      </trkpt>
      <trkpt lat="42.470672" lon="-5.347404">
        <ele>854.056</ele>
        <time>2018-06-15T10:27:52Z</time>
      </trkpt>
      <trkpt lat="42.470680" lon="-5.347481">
        <ele>853.729</ele>
        <time>2018-06-15T10:27:53Z</time>
      </trkpt>
      <trkpt lat="42.470693" lon="-5.347562">
        <ele>853.142</ele>
        <time>2018-06-15T10:27:54Z</time>
      </trkpt>
      <trkpt lat="42.470711" lon="-5.347643">
        <ele>852.846</ele>
        <time>2018-06-15T10:27:55Z</time>
      </trkpt>
      <trkpt lat="42.470732" lon="-5.347724">
        <ele>852.635</ele>
        <time>2018-06-15T10:27:56Z</time>
      </trkpt>
      <trkpt lat="42.470759" lon="-5.347805">
        <ele>852.575</ele>
        <time>2018-06-15T10:27:57Z</time>
      </trkpt>
      <trkpt lat="42.470790" lon="-5.347888">
        <ele>852.025</ele>
        <time>2018-06-15T10:27:58Z</time>
      </trkpt>
      <trkpt lat="42.470822" lon="-5.347971">
        <ele>851.745</ele>
        <time>2018-06-15T10:27:59Z</time>
      </trkpt>
      <trkpt lat="42.470854" lon="-5.348053">
        <ele>851.189</ele>
        <time>2018-06-15T10:28:00Z</time>
      </trkpt>
      <trkpt lat="42.470889" lon="-5.348134">
        <ele>850.806</ele>
        <time>2018-06-15T10:28:01Z</time>
      </trkpt>
      <trkpt lat="42.470922" lon="-5.348215">
        <ele>850.626</ele>
        <time>2018-06-15T10:28:02Z</time>
      </trkpt>
      <trkpt lat="42.470955" lon="-5.348302">
        <ele>850.108</ele>
        <time>2018-06-15T10:28:03Z</time>
      </trkpt>
      <trkpt lat="42.470987" lon="-5.348390">
        <ele>849.810</ele>
        <time>2018-06-15T10:28:04Z</time>
      </trkpt>
      <trkpt lat="42.471020" lon="-5.348477">
        <ele>849.673</ele>
        <time>2018-06-15T10:28:05Z</time>
      </trkpt>
      <trkpt lat="42.471055" lon="-5.348558">
        <ele>849.186</ele>
        <time>2018-06-15T10:28:06Z</time>
      </trkpt>
      <trkpt lat="42.471088" lon="-5.348649">
        <ele>849.210</ele>
        <time>2018-06-15T10:28:07Z</time>
      </trkpt>
      <trkpt lat="42.471121" lon="-5.348731">
        <ele>849.329</ele>
        <time>2018-06-15T10:28:08Z</time>
      </trkpt>
      <trkpt lat="42.471153" lon="-5.348821">
        <ele>848.989</ele>
        <time>2018-06-15T10:28:09Z</time>
      </trkpt>
      <trkpt lat="42.471182" lon="-5.348910">
        <ele>848.729</ele>
        <time>2018-06-15T10:28:10Z</time>
      </trkpt>
      <trkpt lat="42.471215" lon="-5.348998">
        <ele>848.249</ele>
        <time>2018-06-15T10:28:11Z</time>
      </trkpt>
      <trkpt lat="42.471252" lon="-5.349087">
        <ele>847.955</ele>
        <time>2018-06-15T10:28:12Z</time>
      </trkpt>
      <trkpt lat="42.471289" lon="-5.349180">
        <ele>847.707</ele>
        <time>2018-06-15T10:28:13Z</time>
      </trkpt>
      <trkpt lat="42.471328" lon="-5.349264">
        <ele>847.617</ele>
        <time>2018-06-15T10:28:14Z</time>
      </trkpt>
      <trkpt lat="42.471364" lon="-5.349358">
        <ele>847.108</ele>
        <time>2018-06-15T10:28:15Z</time>
      </trkpt>
      <trkpt lat="42.471401" lon="-5.349453">
        <ele>846.887</ele>
        <time>2018-06-15T10:28:16Z</time>
      </trkpt>
      <trkpt lat="42.471432" lon="-5.349534">
        <ele>846.260</ele>
        <time>2018-06-15T10:28:17Z</time>
      </trkpt>
      <trkpt lat="42.471470" lon="-5.349628">
        <ele>845.943</ele>
        <time>2018-06-15T10:28:18Z</time>
      </trkpt>
      <trkpt lat="42.471511" lon="-5.349725">
        <ele>845.317</ele>
        <time>2018-06-15T10:28:19Z</time>
      </trkpt>
      <trkpt lat="42.471551" lon="-5.349822">
        <ele>844.986</ele>
        <time>2018-06-15T10:28:20Z</time>
      </trkpt>
      <trkpt lat="42.471590" lon="-5.349921">
        <ele>844.796</ele>
        <time>2018-06-15T10:28:21Z</time>
      </trkpt>
      <trkpt lat="42.471627" lon="-5.350020">
        <ele>844.646</ele>
        <time>2018-06-15T10:28:22Z</time>
      </trkpt>
      <trkpt lat="42.471667" lon="-5.350117">
        <ele>844.176</ele>
        <time>2018-06-15T10:28:23Z</time>
      </trkpt>
      <trkpt lat="42.471705" lon="-5.350222">
        <ele>843.886</ele>
        <time>2018-06-15T10:28:24Z</time>
      </trkpt>
      <trkpt lat="42.471744" lon="-5.350325">
        <ele>843.260</ele>
        <time>2018-06-15T10:28:25Z</time>
      </trkpt>
      <trkpt lat="42.471776" lon="-5.350427">
        <ele>842.926</ele>
        <time>2018-06-15T10:28:26Z</time>
      </trkpt>
      <trkpt lat="42.471805" lon="-5.350529">
        <ele>842.708</ele>
        <time>2018-06-15T10:28:27Z</time>
      </trkpt>
      <trkpt lat="42.471827" lon="-5.350623">
        <ele>842.670</ele>
        <time>2018-06-15T10:28:28Z</time>
      </trkpt>
      <trkpt lat="42.471857" lon="-5.350722">
        <ele>842.173</ele>
        <time>2018-06-15T10:28:29Z</time>
      </trkpt>
      <trkpt lat="42.471884" lon="-5.350817">
        <ele>841.896</ele>
        <time>2018-06-15T10:28:30Z</time>
      </trkpt>
      <trkpt lat="42.471910" lon="-5.350916">
        <ele>841.660</ele>
        <time>2018-06-15T10:28:31Z</time>
      </trkpt>
      <trkpt lat="42.471931" lon="-5.351014">
        <ele>841.149</ele>
        <time>2018-06-15T10:28:32Z</time>
      </trkpt>
      <trkpt lat="42.471953" lon="-5.351106">
        <ele>840.879</ele>
        <time>2018-06-15T10:28:33Z</time>
      </trkpt>
      <trkpt lat="42.471976" lon="-5.351200">
        <ele>840.629</ele>
        <time>2018-06-15T10:28:34Z</time>
      </trkpt>
      <trkpt lat="42.471998" lon="-5.351287">
        <ele>840.569</ele>
        <time>2018-06-15T10:28:35Z</time>
      </trkpt>
      <trkpt lat="42.472022" lon="-5.351372">
        <ele>840.453</ele>
        <time>2018-06-15T10:28:36Z</time>
      </trkpt>
      <trkpt lat="42.472042" lon="-5.351454">
        <ele>840.004</ele>
        <time>2018-06-15T10:28:37Z</time>
      </trkpt>
      <trkpt lat="42.472060" lon="-5.351536">
        <ele>839.714</ele>
        <time>2018-06-15T10:28:38Z</time>
      </trkpt>
      <trkpt lat="42.472083" lon="-5.351614">
        <ele>839.508</ele>
        <time>2018-06-15T10:28:39Z</time>
      </trkpt>
      <trkpt lat="42.472104" lon="-5.351688">
        <ele>839.437</ele>
        <time>2018-06-15T10:28:40Z</time>
      </trkpt>
      <trkpt lat="42.472127" lon="-5.351763">
        <ele>839.330</ele>
        <time>2018-06-15T10:28:41Z</time>
      </trkpt>
      <trkpt lat="42.472151" lon="-5.351832">
        <ele>839.383</ele>
        <time>2018-06-15T10:28:42Z</time>
      </trkpt>
      <trkpt lat="42.472179" lon="-5.351899">
        <ele>838.917</ele>
        <time>2018-06-15T10:28:43Z</time>
      </trkpt>
      <trkpt lat="42.472206" lon="-5.351964">
        <ele>838.666</ele>
        <time>2018-06-15T10:28:44Z</time>
      </trkpt>
      <trkpt lat="42.472234" lon="-5.352026">
        <ele>838.826</ele>
        <time>2018-06-15T10:28:45Z</time>
      </trkpt>
      <trkpt lat="42.472254" lon="-5.352094">
        <ele>838.916</ele>
        <time>2018-06-15T10:28:46Z</time>
      </trkpt>
      <trkpt lat="42.472277" lon="-5.352158">
        <ele>839.066</ele>
        <time>2018-06-15T10:28:47Z</time>
      </trkpt>
      <trkpt lat="42.472301" lon="-5.352221">
        <ele>839.179</ele>
        <time>2018-06-15T10:28:48Z</time>
      </trkpt>
      <trkpt lat="42.472326" lon="-5.352279">
        <ele>839.105</ele>
        <time>2018-06-15T10:28:49Z</time>
      </trkpt>
      <trkpt lat="42.472350" lon="-5.352343">
        <ele>839.125</ele>
        <time>2018-06-15T10:28:50Z</time>
      </trkpt>
      <trkpt lat="42.472375" lon="-5.352402">
        <ele>839.108</ele>
        <time>2018-06-15T10:28:51Z</time>
      </trkpt>
      <trkpt lat="42.472415" lon="-5.352499">
        <ele>839.169</ele>
        <time>2018-06-15T10:28:53Z</time>
      </trkpt>
      <trkpt lat="42.472443" lon="-5.352609">
        <ele>839.152</ele>
        <time>2018-06-15T10:28:55Z</time>
      </trkpt>
      <trkpt lat="42.472474" lon="-5.352715">
        <ele>838.775</ele>
        <time>2018-06-15T10:28:57Z</time>
      </trkpt>
      <trkpt lat="42.472487" lon="-5.352791">
        <ele>838.599</ele>
        <time>2018-06-15T10:28:59Z</time>
      </trkpt>
      <trkpt lat="42.472503" lon="-5.352863">
        <ele>838.418</ele>
        <time>2018-06-15T10:29:00Z</time>
      </trkpt>
      <trkpt lat="42.472530" lon="-5.352970">
        <ele>838.388</ele>
        <time>2018-06-15T10:29:02Z</time>
      </trkpt>
      <trkpt lat="42.472573" lon="-5.353021">
        <ele>838.698</ele>
        <time>2018-06-15T10:29:03Z</time>
      </trkpt>
      <trkpt lat="42.472579" lon="-5.353086">
        <ele>838.438</ele>
        <time>2018-06-15T10:29:04Z</time>
      </trkpt>
      <trkpt lat="42.472601" lon="-5.353141">
        <ele>838.385</ele>
        <time>2018-06-15T10:29:05Z</time>
      </trkpt>
      <trkpt lat="42.472615" lon="-5.353202">
        <ele>838.289</ele>
        <time>2018-06-15T10:29:06Z</time>
      </trkpt>
      <trkpt lat="42.472654" lon="-5.353244">
        <ele>837.817</ele>
        <time>2018-06-15T10:29:07Z</time>
      </trkpt>
      <trkpt lat="42.472691" lon="-5.353287">
        <ele>837.508</ele>
        <time>2018-06-15T10:29:08Z</time>
      </trkpt>
      <trkpt lat="42.472722" lon="-5.353332">
        <ele>837.310</ele>
        <time>2018-06-15T10:29:09Z</time>
      </trkpt>
      <trkpt lat="42.472797" lon="-5.353427">
        <ele>836.863</ele>
        <time>2018-06-15T10:29:11Z</time>
      </trkpt>
      <trkpt lat="42.472848" lon="-5.353471">
        <ele>836.566</ele>
        <time>2018-06-15T10:29:12Z</time>
      </trkpt>
      <trkpt lat="42.472895" lon="-5.353518">
        <ele>836.380</ele>
        <time>2018-06-15T10:29:13Z</time>
      </trkpt>
      <trkpt lat="42.472931" lon="-5.353576">
        <ele>836.269</ele>
        <time>2018-06-15T10:29:14Z</time>
      </trkpt>
      <trkpt lat="42.472961" lon="-5.353633">
        <ele>836.149</ele>
        <time>2018-06-15T10:29:15Z</time>
      </trkpt>
      <trkpt lat="42.472991" lon="-5.353700">
        <ele>835.779</ele>
        <time>2018-06-15T10:29:16Z</time>
      </trkpt>
      <trkpt lat="42.473025" lon="-5.353773">
        <ele>835.499</ele>
        <time>2018-06-15T10:29:17Z</time>
      </trkpt>
      <trkpt lat="42.473056" lon="-5.353847">
        <ele>835.218</ele>
        <time>2018-06-15T10:29:18Z</time>
      </trkpt>
      <trkpt lat="42.473085" lon="-5.353924">
        <ele>834.798</ele>
        <time>2018-06-15T10:29:19Z</time>
      </trkpt>
      <trkpt lat="42.473108" lon="-5.354006">
        <ele>834.417</ele>
        <time>2018-06-15T10:29:20Z</time>
      </trkpt>
      <trkpt lat="42.473143" lon="-5.354089">
        <ele>834.208</ele>
        <time>2018-06-15T10:29:21Z</time>
      </trkpt>
      <trkpt lat="42.473180" lon="-5.354156">
        <ele>833.793</ele>
        <time>2018-06-15T10:29:22Z</time>
      </trkpt>
      <trkpt lat="42.473217" lon="-5.354228">
        <ele>833.446</ele>
        <time>2018-06-15T10:29:23Z</time>
      </trkpt>
      <trkpt lat="42.473246" lon="-5.354305">
        <ele>832.849</ele>
        <time>2018-06-15T10:29:24Z</time>
      </trkpt>
      <trkpt lat="42.473270" lon="-5.354382">
        <ele>832.523</ele>
        <time>2018-06-15T10:29:25Z</time>
      </trkpt>
      <trkpt lat="42.473288" lon="-5.354466">
        <ele>832.352</ele>
        <time>2018-06-15T10:29:26Z</time>
      </trkpt>
      <trkpt lat="42.473310" lon="-5.354541">
        <ele>831.872</ele>
        <time>2018-06-15T10:29:27Z</time>
      </trkpt>
      <trkpt lat="42.473333" lon="-5.354612">
        <ele>831.522</ele>
        <time>2018-06-15T10:29:28Z</time>
      </trkpt>
      <trkpt lat="42.473370" lon="-5.354670">
        <ele>830.932</ele>
        <time>2018-06-15T10:29:29Z</time>
      </trkpt>
      <trkpt lat="42.473403" lon="-5.354732">
        <ele>830.528</ele>
        <time>2018-06-15T10:29:30Z</time>
      </trkpt>
      <trkpt lat="42.473439" lon="-5.354796">
        <ele>830.389</ele>
        <time>2018-06-15T10:29:31Z</time>
      </trkpt>
      <trkpt lat="42.473476" lon="-5.354858">
        <ele>830.217</ele>
        <time>2018-06-15T10:29:32Z</time>
      </trkpt>
      <trkpt lat="42.473509" lon="-5.354917">
        <ele>829.708</ele>
        <time>2018-06-15T10:29:33Z</time>
      </trkpt>
      <trkpt lat="42.473549" lon="-5.354971">
        <ele>829.864</ele>
        <time>2018-06-15T10:29:34Z</time>
      </trkpt>
      <trkpt lat="42.473586" lon="-5.355026">
        <ele>829.597</ele>
        <time>2018-06-15T10:29:35Z</time>
      </trkpt>
      <trkpt lat="42.473628" lon="-5.355080">
        <ele>829.790</ele>
        <time>2018-06-15T10:29:36Z</time>
      </trkpt>
      <trkpt lat="42.473670" lon="-5.355133">
        <ele>829.814</ele>
        <time>2018-06-15T10:29:37Z</time>
      </trkpt>
      <trkpt lat="42.473708" lon="-5.355178">
        <ele>829.583</ele>
        <time>2018-06-15T10:29:38Z</time>
      </trkpt>
      <trkpt lat="42.473746" lon="-5.355225">
        <ele>829.313</ele>
        <time>2018-06-15T10:29:39Z</time>
      </trkpt>
      <trkpt lat="42.473791" lon="-5.355268">
        <ele>829.223</ele>
        <time>2018-06-15T10:29:40Z</time>
      </trkpt>
      <trkpt lat="42.473828" lon="-5.355316">
        <ele>829.153</ele>
        <time>2018-06-15T10:29:41Z</time>
      </trkpt>
      <trkpt lat="42.473867" lon="-5.355366">
        <ele>829.131</ele>
        <time>2018-06-15T10:29:42Z</time>
      </trkpt>
      <trkpt lat="42.473905" lon="-5.355413">
        <ele>829.161</ele>
        <time>2018-06-15T10:29:43Z</time>
      </trkpt>
      <trkpt lat="42.473937" lon="-5.355465">
        <ele>828.707</ele>
        <time>2018-06-15T10:29:44Z</time>
      </trkpt>
      <trkpt lat="42.473977" lon="-5.355512">
        <ele>828.508</ele>
        <time>2018-06-15T10:29:45Z</time>
      </trkpt>
      <trkpt lat="42.474011" lon="-5.355557">
        <ele>828.435</ele>
        <time>2018-06-15T10:29:46Z</time>
      </trkpt>
      <trkpt lat="42.474050" lon="-5.355597">
        <ele>828.338</ele>
        <time>2018-06-15T10:29:47Z</time>
      </trkpt>
      <trkpt lat="42.474087" lon="-5.355637">
        <ele>828.281</ele>
        <time>2018-06-15T10:29:48Z</time>
      </trkpt>
      <trkpt lat="42.474123" lon="-5.355680">
        <ele>828.625</ele>
        <time>2018-06-15T10:29:49Z</time>
      </trkpt>
      <trkpt lat="42.474154" lon="-5.355726">
        <ele>828.824</ele>
        <time>2018-06-15T10:29:50Z</time>
      </trkpt>
      <trkpt lat="42.474184" lon="-5.355772">
        <ele>828.974</ele>
        <time>2018-06-15T10:29:51Z</time>
      </trkpt>
      <trkpt lat="42.474216" lon="-5.355820">
        <ele>829.044</ele>
        <time>2018-06-15T10:29:52Z</time>
      </trkpt>
      <trkpt lat="42.474267" lon="-5.355914">
        <ele>829.444</ele>
        <time>2018-06-15T10:29:54Z</time>
      </trkpt>
      <trkpt lat="42.474276" lon="-5.356026">
        <ele>829.327</ele>
        <time>2018-06-15T10:29:56Z</time>
      </trkpt>
      <trkpt lat="42.474304" lon="-5.356135">
        <ele>828.868</ele>
        <time>2018-06-15T10:29:58Z</time>
      </trkpt>
      <trkpt lat="42.474356" lon="-5.356220">
        <ele>828.514</ele>
        <time>2018-06-15T10:30:00Z</time>
      </trkpt>
      <trkpt lat="42.474411" lon="-5.356315">
        <ele>828.308</ele>
        <time>2018-06-15T10:30:02Z</time>
      </trkpt>
      <trkpt lat="42.474451" lon="-5.356422">
        <ele>828.234</ele>
        <time>2018-06-15T10:30:04Z</time>
      </trkpt>
      <trkpt lat="42.474508" lon="-5.356511">
        <ele>828.137</ele>
        <time>2018-06-15T10:30:06Z</time>
      </trkpt>
      <trkpt lat="42.474530" lon="-5.356564">
        <ele>828.130</ele>
        <time>2018-06-15T10:30:07Z</time>
      </trkpt>
      <trkpt lat="42.474556" lon="-5.356615">
        <ele>828.194</ele>
        <time>2018-06-15T10:30:08Z</time>
      </trkpt>
      <trkpt lat="42.474604" lon="-5.356712">
        <ele>828.593</ele>
        <time>2018-06-15T10:30:10Z</time>
      </trkpt>
      <trkpt lat="42.474652" lon="-5.356799">
        <ele>828.753</ele>
        <time>2018-06-15T10:30:12Z</time>
      </trkpt>
      <trkpt lat="42.474683" lon="-5.356871">
        <ele>828.833</ele>
        <time>2018-06-15T10:30:15Z</time>
      </trkpt>
      <trkpt lat="42.474705" lon="-5.356932">
        <ele>828.553</ele>
        <time>2018-06-15T10:30:17Z</time>
      </trkpt>
      <trkpt lat="42.474732" lon="-5.357005">
        <ele>828.339</ele>
        <time>2018-06-15T10:30:19Z</time>
      </trkpt>
      <trkpt lat="42.474800" lon="-5.357142">
        <ele>828.201</ele>
        <time>2018-06-15T10:30:21Z</time>
      </trkpt>
      <trkpt lat="42.474843" lon="-5.357219">
        <ele>828.121</ele>
        <time>2018-06-15T10:30:23Z</time>
      </trkpt>
      <trkpt lat="42.474879" lon="-5.357278">
        <ele>828.108</ele>
        <time>2018-06-15T10:30:25Z</time>
      </trkpt>
      <trkpt lat="42.474941" lon="-5.357361">
        <ele>828.165</ele>
        <time>2018-06-15T10:30:27Z</time>
      </trkpt>
      <trkpt lat="42.474995" lon="-5.357429">
        <ele>827.748</ele>
        <time>2018-06-15T10:30:29Z</time>
      </trkpt>
      <trkpt lat="42.475045" lon="-5.357505">
        <ele>827.141</ele>
        <time>2018-06-15T10:30:31Z</time>
      </trkpt>
      <trkpt lat="42.475100" lon="-5.357571">
        <ele>826.725</ele>
        <time>2018-06-15T10:30:33Z</time>
      </trkpt>
      <trkpt lat="42.475165" lon="-5.357637">
        <ele>826.594</ele>
        <time>2018-06-15T10:30:35Z</time>
      </trkpt>
      <trkpt lat="42.475226" lon="-5.357703">
        <ele>826.434</ele>
        <time>2018-06-15T10:30:37Z</time>
      </trkpt>
      <trkpt lat="42.475290" lon="-5.357770">
        <ele>825.914</ele>
        <time>2018-06-15T10:30:39Z</time>
      </trkpt>
      <trkpt lat="42.475353" lon="-5.357845">
        <ele>825.634</ele>
        <time>2018-06-15T10:30:41Z</time>
      </trkpt>
      <trkpt lat="42.475418" lon="-5.357918">
        <ele>825.499</ele>
        <time>2018-06-15T10:30:43Z</time>
      </trkpt>
      <trkpt lat="42.475482" lon="-5.357984">
        <ele>825.307</ele>
        <time>2018-06-15T10:30:45Z</time>
      </trkpt>
      <trkpt lat="42.475542" lon="-5.358062">
        <ele>825.627</ele>
        <time>2018-06-15T10:30:47Z</time>
      </trkpt>
      <trkpt lat="42.475601" lon="-5.358134">
        <ele>825.808</ele>
        <time>2018-06-15T10:30:49Z</time>
      </trkpt>
      <trkpt lat="42.475663" lon="-5.358208">
        <ele>826.321</ele>
        <time>2018-06-15T10:30:51Z</time>
      </trkpt>
      <trkpt lat="42.475724" lon="-5.358274">
        <ele>826.244</ele>
        <time>2018-06-15T10:30:53Z</time>
      </trkpt>
      <trkpt lat="42.475784" lon="-5.358340">
        <ele>826.157</ele>
        <time>2018-06-15T10:30:55Z</time>
      </trkpt>
      <trkpt lat="42.475842" lon="-5.358409">
        <ele>826.131</ele>
        <time>2018-06-15T10:30:57Z</time>
      </trkpt>
      <trkpt lat="42.475905" lon="-5.358473">
        <ele>826.190</ele>
        <time>2018-06-15T10:30:59Z</time>
      </trkpt>
      <trkpt lat="42.475966" lon="-5.358544">
        <ele>826.120</ele>
        <time>2018-06-15T10:31:01Z</time>
      </trkpt>
      <trkpt lat="42.476027" lon="-5.358612">
        <ele>826.140</ele>
        <time>2018-06-15T10:31:03Z</time>
      </trkpt>
      <trkpt lat="42.476078" lon="-5.358691">
        <ele>826.190</ele>
        <time>2018-06-15T10:31:05Z</time>
      </trkpt>
      <trkpt lat="42.476125" lon="-5.358776">
        <ele>826.128</ele>
        <time>2018-06-15T10:31:07Z</time>
      </trkpt>
      <trkpt lat="42.476169" lon="-5.358867">
        <ele>826.189</ele>
        <time>2018-06-15T10:31:09Z</time>
      </trkpt>
      <trkpt lat="42.476212" lon="-5.358962">
        <ele>826.117</ele>
        <time>2018-06-15T10:31:11Z</time>
      </trkpt>
      <trkpt lat="42.476253" lon="-5.359060">
        <ele>826.108</ele>
        <time>2018-06-15T10:31:13Z</time>
      </trkpt>
      <trkpt lat="42.476300" lon="-5.359154">
        <ele>825.794</ele>
        <time>2018-06-15T10:31:15Z</time>
      </trkpt>
      <trkpt lat="42.476347" lon="-5.359249">
        <ele>825.957</ele>
        <time>2018-06-15T10:31:17Z</time>
      </trkpt>
      <trkpt lat="42.476392" lon="-5.359345">
        <ele>825.690</ele>
        <time>2018-06-15T10:31:19Z</time>
      </trkpt>
      <trkpt lat="42.476439" lon="-5.359445">
        <ele>825.464</ele>
        <time>2018-06-15T10:31:21Z</time>
      </trkpt>
      <trkpt lat="42.476488" lon="-5.359541">
        <ele>825.383</ele>
        <time>2018-06-15T10:31:23Z</time>
      </trkpt>
      <trkpt lat="42.476514" lon="-5.359591">
        <ele>825.283</ele>
        <time>2018-06-15T10:31:24Z</time>
      </trkpt>
      <trkpt lat="42.476561" lon="-5.359692">
        <ele>825.273</ele>
        <time>2018-06-15T10:31:26Z</time>
      </trkpt>
      <trkpt lat="42.476610" lon="-5.359790">
        <ele>825.273</ele>
        <time>2018-06-15T10:31:28Z</time>
      </trkpt>
      <trkpt lat="42.476660" lon="-5.359889">
        <ele>825.299</ele>
        <time>2018-06-15T10:31:30Z</time>
      </trkpt>
      <trkpt lat="42.476708" lon="-5.359993">
        <ele>825.207</ele>
        <time>2018-06-15T10:31:32Z</time>
      </trkpt>
      <trkpt lat="42.476734" lon="-5.360044">
        <ele>825.227</ele>
        <time>2018-06-15T10:31:33Z</time>
      </trkpt>
      <trkpt lat="42.476756" lon="-5.360098">
        <ele>825.208</ele>
        <time>2018-06-15T10:31:34Z</time>
      </trkpt>
      <trkpt lat="42.476781" lon="-5.360149">
        <ele>825.221</ele>
        <time>2018-06-15T10:31:35Z</time>
      </trkpt>
      <trkpt lat="42.476826" lon="-5.360248">
        <ele>825.294</ele>
        <time>2018-06-15T10:31:37Z</time>
      </trkpt>
      <trkpt lat="42.476876" lon="-5.360346">
        <ele>825.217</ele>
        <time>2018-06-15T10:31:39Z</time>
      </trkpt>
      <trkpt lat="42.476899" lon="-5.360399">
        <ele>825.261</ele>
        <time>2018-06-15T10:31:40Z</time>
      </trkpt>
      <trkpt lat="42.476920" lon="-5.360455">
        <ele>825.240</ele>
        <time>2018-06-15T10:31:41Z</time>
      </trkpt>
      <trkpt lat="42.476945" lon="-5.360509">
        <ele>825.660</ele>
        <time>2018-06-15T10:31:42Z</time>
      </trkpt>
      <trkpt lat="42.476972" lon="-5.360563">
        <ele>825.880</ele>
        <time>2018-06-15T10:31:43Z</time>
      </trkpt>
      <trkpt lat="42.476999" lon="-5.360618">
        <ele>825.990</ele>
        <time>2018-06-15T10:31:44Z</time>
      </trkpt>
      <trkpt lat="42.477022" lon="-5.360674">
        <ele>826.042</ele>
        <time>2018-06-15T10:31:45Z</time>
      </trkpt>
      <trkpt lat="42.477047" lon="-5.360727">
        <ele>826.122</ele>
        <time>2018-06-15T10:31:46Z</time>
      </trkpt>
      <trkpt lat="42.477073" lon="-5.360780">
        <ele>826.114</ele>
        <time>2018-06-15T10:31:47Z</time>
      </trkpt>
      <trkpt lat="42.477101" lon="-5.360839">
        <ele>826.108</ele>
        <time>2018-06-15T10:31:48Z</time>
      </trkpt>
      <trkpt lat="42.477124" lon="-5.360892">
        <ele>826.146</ele>
        <time>2018-06-15T10:31:49Z</time>
      </trkpt>
      <trkpt lat="42.477147" lon="-5.360953">
        <ele>826.119</ele>
        <time>2018-06-15T10:31:50Z</time>
      </trkpt>
      <trkpt lat="42.477175" lon="-5.361004">
        <ele>826.112</ele>
        <time>2018-06-15T10:31:51Z</time>
      </trkpt>
      <trkpt lat="42.477202" lon="-5.361058">
        <ele>826.136</ele>
        <time>2018-06-15T10:31:52Z</time>
      </trkpt>
      <trkpt lat="42.477228" lon="-5.361116">
        <ele>826.125</ele>
        <time>2018-06-15T10:31:53Z</time>
      </trkpt>
      <trkpt lat="42.477255" lon="-5.361173">
        <ele>826.175</ele>
        <time>2018-06-15T10:31:54Z</time>
      </trkpt>
      <trkpt lat="42.477279" lon="-5.361228">
        <ele>826.155</ele>
        <time>2018-06-15T10:31:55Z</time>
      </trkpt>
      <trkpt lat="42.477302" lon="-5.361286">
        <ele>826.185</ele>
        <time>2018-06-15T10:31:56Z</time>
      </trkpt>
      <trkpt lat="42.477330" lon="-5.361339">
        <ele>826.115</ele>
        <time>2018-06-15T10:31:57Z</time>
      </trkpt>
      <trkpt lat="42.477358" lon="-5.361392">
        <ele>826.165</ele>
        <time>2018-06-15T10:31:58Z</time>
      </trkpt>
      <trkpt lat="42.477384" lon="-5.361445">
        <ele>826.111</ele>
        <time>2018-06-15T10:31:59Z</time>
      </trkpt>
      <trkpt lat="42.477410" lon="-5.361503">
        <ele>826.108</ele>
        <time>2018-06-15T10:32:00Z</time>
      </trkpt>
      <trkpt lat="42.477436" lon="-5.361563">
        <ele>826.143</ele>
        <time>2018-06-15T10:32:01Z</time>
      </trkpt>
      <trkpt lat="42.477461" lon="-5.361617">
        <ele>826.126</ele>
        <time>2018-06-15T10:32:02Z</time>
      </trkpt>
      <trkpt lat="42.477483" lon="-5.361671">
        <ele>826.169</ele>
        <time>2018-06-15T10:32:03Z</time>
      </trkpt>
      <trkpt lat="42.477530" lon="-5.361767">
        <ele>826.153</ele>
        <time>2018-06-15T10:32:05Z</time>
      </trkpt>
      <trkpt lat="42.477575" lon="-5.361864">
        <ele>826.142</ele>
        <time>2018-06-15T10:32:07Z</time>
      </trkpt>
      <trkpt lat="42.477613" lon="-5.361962">
        <ele>825.732</ele>
        <time>2018-06-15T10:32:09Z</time>
      </trkpt>
      <trkpt lat="42.477654" lon="-5.362055">
        <ele>825.912</ele>
        <time>2018-06-15T10:32:11Z</time>
      </trkpt>
      <trkpt lat="42.477683" lon="-5.362120">
        <ele>825.652</ele>
        <time>2018-06-15T10:32:13Z</time>
      </trkpt>
      <trkpt lat="42.477711" lon="-5.362172">
        <ele>825.422</ele>
        <time>2018-06-15T10:32:15Z</time>
      </trkpt>
      <trkpt lat="42.477743" lon="-5.362235">
        <ele>825.762</ele>
        <time>2018-06-15T10:32:17Z</time>
      </trkpt>
      <trkpt lat="42.477802" lon="-5.362361">
        <ele>825.908</ele>
        <time>2018-06-15T10:32:19Z</time>
      </trkpt>
      <trkpt lat="42.477827" lon="-5.362411">
        <ele>826.008</ele>
        <time>2018-06-15T10:32:20Z</time>
      </trkpt>
      <trkpt lat="42.477851" lon="-5.362463">
        <ele>826.134</ele>
        <time>2018-06-15T10:32:21Z</time>
      </trkpt>
      <trkpt lat="42.477877" lon="-5.362518">
        <ele>826.197</ele>
        <time>2018-06-15T10:32:22Z</time>
      </trkpt>
      <trkpt lat="42.477903" lon="-5.362573">
        <ele>826.170</ele>
        <time>2018-06-15T10:32:23Z</time>
      </trkpt>
      <trkpt lat="42.477926" lon="-5.362631">
        <ele>826.114</ele>
        <time>2018-06-15T10:32:24Z</time>
      </trkpt>
      <trkpt lat="42.477954" lon="-5.362684">
        <ele>826.163</ele>
        <time>2018-06-15T10:32:25Z</time>
      </trkpt>
      <trkpt lat="42.477981" lon="-5.362741">
        <ele>826.183</ele>
        <time>2018-06-15T10:32:26Z</time>
      </trkpt>
      <trkpt lat="42.478010" lon="-5.362792">
        <ele>826.163</ele>
        <time>2018-06-15T10:32:27Z</time>
      </trkpt>
      <trkpt lat="42.478035" lon="-5.362848">
        <ele>825.793</ele>
        <time>2018-06-15T10:32:28Z</time>
      </trkpt>
      <trkpt lat="42.478062" lon="-5.362904">
        <ele>825.513</ele>
        <time>2018-06-15T10:32:29Z</time>
      </trkpt>
      <trkpt lat="42.478086" lon="-5.362959">
        <ele>825.443</ele>
        <time>2018-06-15T10:32:30Z</time>
      </trkpt>
      <trkpt lat="42.478111" lon="-5.363016">
        <ele>825.307</ele>
        <time>2018-06-15T10:32:31Z</time>
      </trkpt>
      <trkpt lat="42.478137" lon="-5.363074">
        <ele>825.208</ele>
        <time>2018-06-15T10:32:32Z</time>
      </trkpt>
      <trkpt lat="42.478166" lon="-5.363131">
        <ele>825.293</ele>
        <time>2018-06-15T10:32:33Z</time>
      </trkpt>
      <trkpt lat="42.478192" lon="-5.363187">
        <ele>825.686</ele>
        <time>2018-06-15T10:32:34Z</time>
      </trkpt>
      <trkpt lat="42.478218" lon="-5.363249">
        <ele>825.889</ele>
        <time>2018-06-15T10:32:35Z</time>
      </trkpt>
      <trkpt lat="42.478246" lon="-5.363304">
        <ele>825.923</ele>
        <time>2018-06-15T10:32:36Z</time>
      </trkpt>
      <trkpt lat="42.478274" lon="-5.363363">
        <ele>826.012</ele>
        <time>2018-06-15T10:32:37Z</time>
      </trkpt>
      <trkpt lat="42.478299" lon="-5.363424">
        <ele>826.052</ele>
        <time>2018-06-15T10:32:38Z</time>
      </trkpt>
      <trkpt lat="42.478325" lon="-5.363483">
        <ele>826.092</ele>
        <time>2018-06-15T10:32:39Z</time>
      </trkpt>
      <trkpt lat="42.478352" lon="-5.363540">
        <ele>826.042</ele>
        <time>2018-06-15T10:32:40Z</time>
      </trkpt>
      <trkpt lat="42.478377" lon="-5.363598">
        <ele>826.065</ele>
        <time>2018-06-15T10:32:41Z</time>
      </trkpt>
      <trkpt lat="42.478403" lon="-5.363656">
        <ele>826.068</ele>
        <time>2018-06-15T10:32:42Z</time>
      </trkpt>
      <trkpt lat="42.478432" lon="-5.363713">
        <ele>826.014</ele>
        <time>2018-06-15T10:32:43Z</time>
      </trkpt>
      <trkpt lat="42.478459" lon="-5.363769">
        <ele>826.008</ele>
        <time>2018-06-15T10:32:44Z</time>
      </trkpt>
      <trkpt lat="42.478486" lon="-5.363826">
        <ele>826.098</ele>
        <time>2018-06-15T10:32:45Z</time>
      </trkpt>
      <trkpt lat="42.478512" lon="-5.363880">
        <ele>826.031</ele>
        <time>2018-06-15T10:32:46Z</time>
      </trkpt>
      <trkpt lat="42.478537" lon="-5.363938">
        <ele>826.084</ele>
        <time>2018-06-15T10:32:47Z</time>
      </trkpt>
      <trkpt lat="42.478566" lon="-5.363997">
        <ele>826.098</ele>
        <time>2018-06-15T10:32:48Z</time>
      </trkpt>
      <trkpt lat="42.478595" lon="-5.364051">
        <ele>826.017</ele>
        <time>2018-06-15T10:32:49Z</time>
      </trkpt>
      <trkpt lat="42.478620" lon="-5.364115">
        <ele>825.697</ele>
        <time>2018-06-15T10:32:50Z</time>
      </trkpt>
      <trkpt lat="42.478647" lon="-5.364174">
        <ele>825.477</ele>
        <time>2018-06-15T10:32:51Z</time>
      </trkpt>
      <trkpt lat="42.478676" lon="-5.364235">
        <ele>825.367</ele>
        <time>2018-06-15T10:32:52Z</time>
      </trkpt>
      <trkpt lat="42.478708" lon="-5.364296">
        <ele>825.239</ele>
        <time>2018-06-15T10:32:53Z</time>
      </trkpt>
      <trkpt lat="42.478736" lon="-5.364361">
        <ele>825.101</ele>
        <time>2018-06-15T10:32:54Z</time>
      </trkpt>
      <trkpt lat="42.478766" lon="-5.364428">
        <ele>825.121</ele>
        <time>2018-06-15T10:32:55Z</time>
      </trkpt>
      <trkpt lat="42.478797" lon="-5.364492">
        <ele>825.108</ele>
        <time>2018-06-15T10:32:56Z</time>
      </trkpt>
      <trkpt lat="42.478827" lon="-5.364555">
        <ele>825.125</ele>
        <time>2018-06-15T10:32:57Z</time>
      </trkpt>
      <trkpt lat="42.478857" lon="-5.364618">
        <ele>825.168</ele>
        <time>2018-06-15T10:32:58Z</time>
      </trkpt>
      <trkpt lat="42.478882" lon="-5.364681">
        <ele>825.161</ele>
        <time>2018-06-15T10:32:59Z</time>
      </trkpt>
      <trkpt lat="42.478910" lon="-5.364742">
        <ele>825.155</ele>
        <time>2018-06-15T10:33:00Z</time>
      </trkpt>
      <trkpt lat="42.478936" lon="-5.364804">
        <ele>825.124</ele>
        <time>2018-06-15T10:33:01Z</time>
      </trkpt>
      <trkpt lat="42.478961" lon="-5.364865">
        <ele>825.154</ele>
        <time>2018-06-15T10:33:02Z</time>
      </trkpt>
      <trkpt lat="42.478987" lon="-5.364926">
        <ele>824.774</ele>
        <time>2018-06-15T10:33:03Z</time>
      </trkpt>
      <trkpt lat="42.479015" lon="-5.364983">
        <ele>824.584</ele>
        <time>2018-06-15T10:33:04Z</time>
      </trkpt>
      <trkpt lat="42.479042" lon="-5.365040">
        <ele>824.487</ele>
        <time>2018-06-15T10:33:05Z</time>
      </trkpt>
      <trkpt lat="42.479070" lon="-5.365101">
        <ele>824.342</ele>
        <time>2018-06-15T10:33:06Z</time>
      </trkpt>
      <trkpt lat="42.479092" lon="-5.365164">
        <ele>824.226</ele>
        <time>2018-06-15T10:33:07Z</time>
      </trkpt>
      <trkpt lat="42.479109" lon="-5.365230">
        <ele>824.208</ele>
        <time>2018-06-15T10:33:08Z</time>
      </trkpt>
      <trkpt lat="42.479133" lon="-5.365291">
        <ele>824.260</ele>
        <time>2018-06-15T10:33:09Z</time>
      </trkpt>
      <trkpt lat="42.479152" lon="-5.365354">
        <ele>824.293</ele>
        <time>2018-06-15T10:33:10Z</time>
      </trkpt>
      <trkpt lat="42.479173" lon="-5.365423">
        <ele>824.236</ele>
        <time>2018-06-15T10:33:11Z</time>
      </trkpt>
      <trkpt lat="42.479193" lon="-5.365492">
        <ele>824.220</ele>
        <time>2018-06-15T10:33:12Z</time>
      </trkpt>
      <trkpt lat="42.479213" lon="-5.365561">
        <ele>823.889</ele>
        <time>2018-06-15T10:33:13Z</time>
      </trkpt>
      <trkpt lat="42.479230" lon="-5.365635">
        <ele>823.629</ele>
        <time>2018-06-15T10:33:14Z</time>
      </trkpt>
      <trkpt lat="42.479251" lon="-5.365712">
        <ele>823.549</ele>
        <time>2018-06-15T10:33:15Z</time>
      </trkpt>
      <trkpt lat="42.479272" lon="-5.365793">
        <ele>823.039</ele>
        <time>2018-06-15T10:33:16Z</time>
      </trkpt>
      <trkpt lat="42.479295" lon="-5.365870">
        <ele>822.715</ele>
        <time>2018-06-15T10:33:17Z</time>
      </trkpt>
      <trkpt lat="42.479317" lon="-5.365952">
        <ele>822.565</ele>
        <time>2018-06-15T10:33:18Z</time>
      </trkpt>
      <trkpt lat="42.479342" lon="-5.366034">
        <ele>822.011</ele>
        <time>2018-06-15T10:33:19Z</time>
      </trkpt>
      <trkpt lat="42.479367" lon="-5.366119">
        <ele>821.708</ele>
        <time>2018-06-15T10:33:20Z</time>
      </trkpt>
      <trkpt lat="42.479391" lon="-5.366208">
        <ele>821.523</ele>
        <time>2018-06-15T10:33:21Z</time>
      </trkpt>
      <trkpt lat="42.479416" lon="-5.366293">
        <ele>821.456</ele>
        <time>2018-06-15T10:33:22Z</time>
      </trkpt>
      <trkpt lat="42.479444" lon="-5.366380">
        <ele>820.949</ele>
        <time>2018-06-15T10:33:23Z</time>
      </trkpt>
      <trkpt lat="42.479472" lon="-5.366468">
        <ele>820.633</ele>
        <time>2018-06-15T10:33:24Z</time>
      </trkpt>
      <trkpt lat="42.479508" lon="-5.366555">
        <ele>820.442</ele>
        <time>2018-06-15T10:33:25Z</time>
      </trkpt>
      <trkpt lat="42.479545" lon="-5.366640">
        <ele>819.992</ele>
        <time>2018-06-15T10:33:26Z</time>
      </trkpt>
      <trkpt lat="42.479583" lon="-5.366729">
        <ele>819.622</ele>
        <time>2018-06-15T10:33:27Z</time>
      </trkpt>
      <trkpt lat="42.479619" lon="-5.366818">
        <ele>819.492</ele>
        <time>2018-06-15T10:33:28Z</time>
      </trkpt>
      <trkpt lat="42.479656" lon="-5.366910">
        <ele>819.368</ele>
        <time>2018-06-15T10:33:29Z</time>
      </trkpt>
      <trkpt lat="42.479692" lon="-5.366998">
        <ele>818.842</ele>
        <time>2018-06-15T10:33:30Z</time>
      </trkpt>
      <trkpt lat="42.479724" lon="-5.367091">
        <ele>818.526</ele>
        <time>2018-06-15T10:33:31Z</time>
      </trkpt>
      <trkpt lat="42.479755" lon="-5.367186">
        <ele>818.308</ele>
        <time>2018-06-15T10:33:32Z</time>
      </trkpt>
      <trkpt lat="42.479783" lon="-5.367280">
        <ele>818.248</ele>
        <time>2018-06-15T10:33:33Z</time>
      </trkpt>
      <trkpt lat="42.479813" lon="-5.367370">
        <ele>818.151</ele>
        <time>2018-06-15T10:33:34Z</time>
      </trkpt>
      <trkpt lat="42.479836" lon="-5.367460">
        <ele>818.164</ele>
        <time>2018-06-15T10:33:35Z</time>
      </trkpt>
      <trkpt lat="42.479862" lon="-5.367552">
        <ele>818.198</ele>
        <time>2018-06-15T10:33:36Z</time>
      </trkpt>
      <trkpt lat="42.479890" lon="-5.367641">
        <ele>818.127</ele>
        <time>2018-06-15T10:33:37Z</time>
      </trkpt>
      <trkpt lat="42.479917" lon="-5.367726">
        <ele>818.177</ele>
        <time>2018-06-15T10:33:38Z</time>
      </trkpt>
      <trkpt lat="42.479943" lon="-5.367816">
        <ele>818.157</ele>
        <time>2018-06-15T10:33:39Z</time>
      </trkpt>
      <trkpt lat="42.479970" lon="-5.367902">
        <ele>818.167</ele>
        <time>2018-06-15T10:33:40Z</time>
      </trkpt>
      <trkpt lat="42.479994" lon="-5.367990">
        <ele>818.149</ele>
        <time>2018-06-15T10:33:41Z</time>
      </trkpt>
      <trkpt lat="42.480020" lon="-5.368077">
        <ele>818.102</ele>
        <time>2018-06-15T10:33:42Z</time>
      </trkpt>
      <trkpt lat="42.480048" lon="-5.368164">
        <ele>818.122</ele>
        <time>2018-06-15T10:33:43Z</time>
      </trkpt>
      <trkpt lat="42.480076" lon="-5.368249">
        <ele>818.108</ele>
        <time>2018-06-15T10:33:44Z</time>
      </trkpt>
      <trkpt lat="42.480100" lon="-5.368334">
        <ele>818.136</ele>
        <time>2018-06-15T10:33:45Z</time>
      </trkpt>
      <trkpt lat="42.480124" lon="-5.368414">
        <ele>818.119</ele>
        <time>2018-06-15T10:33:46Z</time>
      </trkpt>
      <trkpt lat="42.480148" lon="-5.368499">
        <ele>818.132</ele>
        <time>2018-06-15T10:33:47Z</time>
      </trkpt>
      <trkpt lat="42.480174" lon="-5.368579">
        <ele>818.136</ele>
        <time>2018-06-15T10:33:48Z</time>
      </trkpt>
      <trkpt lat="42.480201" lon="-5.368654">
        <ele>818.195</ele>
        <time>2018-06-15T10:33:49Z</time>
      </trkpt>
      <trkpt lat="42.480225" lon="-5.368731">
        <ele>818.165</ele>
        <time>2018-06-15T10:33:50Z</time>
      </trkpt>
      <trkpt lat="42.480248" lon="-5.368807">
        <ele>817.725</ele>
        <time>2018-06-15T10:33:51Z</time>
      </trkpt>
      <trkpt lat="42.480273" lon="-5.368883">
        <ele>817.965</ele>
        <time>2018-06-15T10:33:52Z</time>
      </trkpt>
      <trkpt lat="42.480298" lon="-5.368959">
        <ele>818.023</ele>
        <time>2018-06-15T10:33:53Z</time>
      </trkpt>
      <trkpt lat="42.480321" lon="-5.369038">
        <ele>818.183</ele>
        <time>2018-06-15T10:33:54Z</time>
      </trkpt>
      <trkpt lat="42.480345" lon="-5.369109">
        <ele>818.111</ele>
        <time>2018-06-15T10:33:55Z</time>
      </trkpt>
      <trkpt lat="42.480372" lon="-5.369179">
        <ele>818.508</ele>
        <time>2018-06-15T10:33:56Z</time>
      </trkpt>
      <trkpt lat="42.480392" lon="-5.369248">
        <ele>818.824</ele>
        <time>2018-06-15T10:33:57Z</time>
      </trkpt>
      <trkpt lat="42.480414" lon="-5.369311">
        <ele>819.087</ele>
        <time>2018-06-15T10:33:58Z</time>
      </trkpt>
      <trkpt lat="42.480434" lon="-5.369373">
        <ele>819.110</ele>
        <time>2018-06-15T10:33:59Z</time>
      </trkpt>
      <trkpt lat="42.480455" lon="-5.369430">
        <ele>819.224</ele>
        <time>2018-06-15T10:34:00Z</time>
      </trkpt>
      <trkpt lat="42.480489" lon="-5.369535">
        <ele>819.623</ele>
        <time>2018-06-15T10:34:02Z</time>
      </trkpt>
      <trkpt lat="42.480521" lon="-5.369634">
        <ele>819.923</ele>
        <time>2018-06-15T10:34:04Z</time>
      </trkpt>
      <trkpt lat="42.480549" lon="-5.369740">
        <ele>820.593</ele>
        <time>2018-06-15T10:34:06Z</time>
      </trkpt>
      <trkpt lat="42.480582" lon="-5.369836">
        <ele>820.893</ele>
        <time>2018-06-15T10:34:08Z</time>
      </trkpt>
      <trkpt lat="42.480608" lon="-5.369929">
        <ele>821.017</ele>
        <time>2018-06-15T10:34:10Z</time>
      </trkpt>
      <trkpt lat="42.480638" lon="-5.370012">
        <ele>821.587</ele>
        <time>2018-06-15T10:34:13Z</time>
      </trkpt>
      <trkpt lat="42.480661" lon="-5.370088">
        <ele>821.815</ele>
        <time>2018-06-15T10:34:15Z</time>
      </trkpt>
      <trkpt lat="42.480681" lon="-5.370164">
        <ele>822.008</ele>
        <time>2018-06-15T10:34:17Z</time>
      </trkpt>
      <trkpt lat="42.480705" lon="-5.370249">
        <ele>822.563</ele>
        <time>2018-06-15T10:34:19Z</time>
      </trkpt>
      <trkpt lat="42.480731" lon="-5.370326">
        <ele>822.866</ele>
        <time>2018-06-15T10:34:21Z</time>
      </trkpt>
      <trkpt lat="42.480754" lon="-5.370402">
        <ele>823.469</ele>
        <time>2018-06-15T10:34:23Z</time>
      </trkpt>
      <trkpt lat="42.480777" lon="-5.370486">
        <ele>823.863</ele>
        <time>2018-06-15T10:34:25Z</time>
      </trkpt>
      <trkpt lat="42.480801" lon="-5.370568">
        <ele>824.492</ele>
        <time>2018-06-15T10:34:27Z</time>
      </trkpt>
      <trkpt lat="42.480823" lon="-5.370647">
        <ele>824.812</ele>
        <time>2018-06-15T10:34:29Z</time>
      </trkpt>
      <trkpt lat="42.480848" lon="-5.370725">
        <ele>825.482</ele>
        <time>2018-06-15T10:34:31Z</time>
      </trkpt>
      <trkpt lat="42.480878" lon="-5.370811">
        <ele>825.852</ele>
        <time>2018-06-15T10:34:33Z</time>
      </trkpt>
      <trkpt lat="42.480902" lon="-5.370889">
        <ele>826.044</ele>
        <time>2018-06-15T10:34:35Z</time>
      </trkpt>
      <trkpt lat="42.480925" lon="-5.370971">
        <ele>826.505</ele>
        <time>2018-06-15T10:34:37Z</time>
      </trkpt>
      <trkpt lat="42.480950" lon="-5.371056">
        <ele>826.815</ele>
        <time>2018-06-15T10:34:39Z</time>
      </trkpt>
      <trkpt lat="42.480975" lon="-5.371140">
        <ele>827.008</ele>
        <time>2018-06-15T10:34:41Z</time>
      </trkpt>
      <trkpt lat="42.480995" lon="-5.371223">
        <ele>827.186</ele>
        <time>2018-06-15T10:34:43Z</time>
      </trkpt>
      <trkpt lat="42.481032" lon="-5.371370">
        <ele>827.229</ele>
        <time>2018-06-15T10:34:45Z</time>
      </trkpt>
      <trkpt lat="42.481069" lon="-5.371466">
        <ele>827.232</ele>
        <time>2018-06-15T10:34:47Z</time>
      </trkpt>
      <trkpt lat="42.481102" lon="-5.371574">
        <ele>827.286</ele>
        <time>2018-06-15T10:34:49Z</time>
      </trkpt>
      <trkpt lat="42.481137" lon="-5.371684">
        <ele>827.295</ele>
        <time>2018-06-15T10:34:51Z</time>
      </trkpt>
      <trkpt lat="42.481155" lon="-5.371741">
        <ele>827.265</ele>
        <time>2018-06-15T10:34:52Z</time>
      </trkpt>
      <trkpt lat="42.481174" lon="-5.371797">
        <ele>827.285</ele>
        <time>2018-06-15T10:34:53Z</time>
      </trkpt>
      <trkpt lat="42.481196" lon="-5.371858">
        <ele>827.235</ele>
        <time>2018-06-15T10:34:54Z</time>
      </trkpt>
      <trkpt lat="42.481216" lon="-5.371921">
        <ele>827.294</ele>
        <time>2018-06-15T10:34:55Z</time>
      </trkpt>
      <trkpt lat="42.481235" lon="-5.371989">
        <ele>827.257</ele>
        <time>2018-06-15T10:34:56Z</time>
      </trkpt>
      <trkpt lat="42.481252" lon="-5.372058">
        <ele>827.222</ele>
        <time>2018-06-15T10:34:57Z</time>
      </trkpt>
      <trkpt lat="42.481277" lon="-5.372129">
        <ele>826.808</ele>
        <time>2018-06-15T10:34:58Z</time>
      </trkpt>
      <trkpt lat="42.481301" lon="-5.372206">
        <ele>826.671</ele>
        <time>2018-06-15T10:34:59Z</time>
      </trkpt>
      <trkpt lat="42.481322" lon="-5.372280">
        <ele>826.514</ele>
        <time>2018-06-15T10:35:00Z</time>
      </trkpt>
      <trkpt lat="42.481345" lon="-5.372359">
        <ele>826.077</ele>
        <time>2018-06-15T10:35:01Z</time>
      </trkpt>
      <trkpt lat="42.481366" lon="-5.372440">
        <ele>825.771</ele>
        <time>2018-06-15T10:35:02Z</time>
      </trkpt>
      <trkpt lat="42.481393" lon="-5.372527">
        <ele>825.170</ele>
        <time>2018-06-15T10:35:03Z</time>
      </trkpt>
      <trkpt lat="42.481421" lon="-5.372619">
        <ele>824.830</ele>
        <time>2018-06-15T10:35:04Z</time>
      </trkpt>
      <trkpt lat="42.481451" lon="-5.372704">
        <ele>824.630</ele>
        <time>2018-06-15T10:35:05Z</time>
      </trkpt>
      <trkpt lat="42.481485" lon="-5.372792">
        <ele>824.180</ele>
        <time>2018-06-15T10:35:06Z</time>
      </trkpt>
      <trkpt lat="42.481510" lon="-5.372889">
        <ele>823.866</ele>
        <time>2018-06-15T10:35:07Z</time>
      </trkpt>
      <trkpt lat="42.481538" lon="-5.372991">
        <ele>823.629</ele>
        <time>2018-06-15T10:35:08Z</time>
      </trkpt>
      <trkpt lat="42.481567" lon="-5.373095">
        <ele>823.121</ele>
        <time>2018-06-15T10:35:09Z</time>
      </trkpt>
      <trkpt lat="42.481602" lon="-5.373196">
        <ele>822.408</ele>
        <time>2018-06-15T10:35:10Z</time>
      </trkpt>
      <trkpt lat="42.481638" lon="-5.373303">
        <ele>821.698</ele>
        <time>2018-06-15T10:35:11Z</time>
      </trkpt>
      <trkpt lat="42.481674" lon="-5.373412">
        <ele>821.181</ele>
        <time>2018-06-15T10:35:12Z</time>
      </trkpt>
      <trkpt lat="42.481709" lon="-5.373526">
        <ele>820.434</ele>
        <time>2018-06-15T10:35:13Z</time>
      </trkpt>
      <trkpt lat="42.481744" lon="-5.373642">
        <ele>819.628</ele>
        <time>2018-06-15T10:35:14Z</time>
      </trkpt>
      <trkpt lat="42.481778" lon="-5.373757">
        <ele>819.137</ele>
        <time>2018-06-15T10:35:15Z</time>
      </trkpt>
      <trkpt lat="42.481813" lon="-5.373875">
        <ele>818.887</ele>
        <time>2018-06-15T10:35:16Z</time>
      </trkpt>
      <trkpt lat="42.481850" lon="-5.373991">
        <ele>818.677</ele>
        <time>2018-06-15T10:35:17Z</time>
      </trkpt>
      <trkpt lat="42.481881" lon="-5.374108">
        <ele>818.517</ele>
        <time>2018-06-15T10:35:18Z</time>
      </trkpt>
      <trkpt lat="42.481915" lon="-5.374223">
        <ele>818.416</ele>
        <time>2018-06-15T10:35:19Z</time>
      </trkpt>
      <trkpt lat="42.481947" lon="-5.374329">
        <ele>818.076</ele>
        <time>2018-06-15T10:35:20Z</time>
      </trkpt>
      <trkpt lat="42.481978" lon="-5.374437">
        <ele>817.713</ele>
        <time>2018-06-15T10:35:21Z</time>
      </trkpt>
      <trkpt lat="42.482012" lon="-5.374538">
        <ele>817.508</ele>
        <time>2018-06-15T10:35:22Z</time>
      </trkpt>
      <trkpt lat="42.482044" lon="-5.374641">
        <ele>817.463</ele>
        <time>2018-06-15T10:35:23Z</time>
      </trkpt>
      <trkpt lat="42.482071" lon="-5.374740">
        <ele>817.336</ele>
        <time>2018-06-15T10:35:24Z</time>
      </trkpt>
      <trkpt lat="42.482100" lon="-5.374835">
        <ele>817.319</ele>
        <time>2018-06-15T10:35:25Z</time>
      </trkpt>
      <trkpt lat="42.482131" lon="-5.374925">
        <ele>817.373</ele>
        <time>2018-06-15T10:35:26Z</time>
      </trkpt>
      <trkpt lat="42.482156" lon="-5.375017">
        <ele>817.392</ele>
        <time>2018-06-15T10:35:27Z</time>
      </trkpt>
      <trkpt lat="42.482184" lon="-5.375102">
        <ele>817.392</ele>
        <time>2018-06-15T10:35:28Z</time>
      </trkpt>
      <trkpt lat="42.482209" lon="-5.375189">
        <ele>817.362</ele>
        <time>2018-06-15T10:35:29Z</time>
      </trkpt>
      <trkpt lat="42.482236" lon="-5.375272">
        <ele>817.312</ele>
        <time>2018-06-15T10:35:30Z</time>
      </trkpt>
      <trkpt lat="42.482263" lon="-5.375357">
        <ele>817.377</ele>
        <time>2018-06-15T10:35:31Z</time>
      </trkpt>
      <trkpt lat="42.482290" lon="-5.375438">
        <ele>817.361</ele>
        <time>2018-06-15T10:35:32Z</time>
      </trkpt>
      <trkpt lat="42.482317" lon="-5.375520">
        <ele>816.927</ele>
        <time>2018-06-15T10:35:33Z</time>
      </trkpt>
      <trkpt lat="42.482345" lon="-5.375599">
        <ele>816.708</ele>
        <time>2018-06-15T10:35:34Z</time>
      </trkpt>
      <trkpt lat="42.482367" lon="-5.375683">
        <ele>816.619</ele>
        <time>2018-06-15T10:35:35Z</time>
      </trkpt>
      <trkpt lat="42.482387" lon="-5.375770">
        <ele>816.572</ele>
        <time>2018-06-15T10:35:36Z</time>
      </trkpt>
      <trkpt lat="42.482409" lon="-5.375860">
        <ele>816.445</ele>
        <time>2018-06-15T10:35:37Z</time>
      </trkpt>
      <trkpt lat="42.482436" lon="-5.375946">
        <ele>816.489</ele>
        <time>2018-06-15T10:35:38Z</time>
      </trkpt>
      <trkpt lat="42.482463" lon="-5.376038">
        <ele>816.448</ele>
        <time>2018-06-15T10:35:39Z</time>
      </trkpt>
      <trkpt lat="42.482489" lon="-5.376126">
        <ele>816.468</ele>
        <time>2018-06-15T10:35:40Z</time>
      </trkpt>
      <trkpt lat="42.482514" lon="-5.376216">
        <ele>816.488</ele>
        <time>2018-06-15T10:35:41Z</time>
      </trkpt>
      <trkpt lat="42.482540" lon="-5.376304">
        <ele>816.428</ele>
        <time>2018-06-15T10:35:42Z</time>
      </trkpt>
      <trkpt lat="42.482565" lon="-5.376391">
        <ele>816.434</ele>
        <time>2018-06-15T10:35:43Z</time>
      </trkpt>
      <trkpt lat="42.482595" lon="-5.376477">
        <ele>816.455</ele>
        <time>2018-06-15T10:35:44Z</time>
      </trkpt>
      <trkpt lat="42.482627" lon="-5.376558">
        <ele>816.810</ele>
        <time>2018-06-15T10:35:45Z</time>
      </trkpt>
      <trkpt lat="42.482659" lon="-5.376642">
        <ele>817.008</ele>
        <time>2018-06-15T10:35:46Z</time>
      </trkpt>
      <trkpt lat="42.482687" lon="-5.376728">
        <ele>817.125</ele>
        <time>2018-06-15T10:35:47Z</time>
      </trkpt>
      <trkpt lat="42.482716" lon="-5.376813">
        <ele>816.858</ele>
        <time>2018-06-15T10:35:48Z</time>
      </trkpt>
      <trkpt lat="42.482748" lon="-5.376900">
        <ele>816.611</ele>
        <time>2018-06-15T10:35:49Z</time>
      </trkpt>
      <trkpt lat="42.482773" lon="-5.376987">
        <ele>816.545</ele>
        <time>2018-06-15T10:35:50Z</time>
      </trkpt>
      <trkpt lat="42.482800" lon="-5.377073">
        <ele>816.444</ele>
        <time>2018-06-15T10:35:51Z</time>
      </trkpt>
      <trkpt lat="42.482823" lon="-5.377161">
        <ele>816.434</ele>
        <time>2018-06-15T10:35:52Z</time>
      </trkpt>
      <trkpt lat="42.482849" lon="-5.377248">
        <ele>816.444</ele>
        <time>2018-06-15T10:35:53Z</time>
      </trkpt>
      <trkpt lat="42.482876" lon="-5.377336">
        <ele>816.494</ele>
        <time>2018-06-15T10:35:54Z</time>
      </trkpt>
      <trkpt lat="42.482905" lon="-5.377423">
        <ele>816.471</ele>
        <time>2018-06-15T10:35:55Z</time>
      </trkpt>
      <trkpt lat="42.482933" lon="-5.377506">
        <ele>816.441</ele>
        <time>2018-06-15T10:35:56Z</time>
      </trkpt>
      <trkpt lat="42.482957" lon="-5.377594">
        <ele>816.415</ele>
        <time>2018-06-15T10:35:57Z</time>
      </trkpt>
      <trkpt lat="42.482983" lon="-5.377682">
        <ele>816.408</ele>
        <time>2018-06-15T10:35:58Z</time>
      </trkpt>
      <trkpt lat="42.483012" lon="-5.377770">
        <ele>816.419</ele>
        <time>2018-06-15T10:35:59Z</time>
      </trkpt>
      <trkpt lat="42.483041" lon="-5.377860">
        <ele>816.482</ele>
        <time>2018-06-15T10:36:00Z</time>
      </trkpt>
      <trkpt lat="42.483069" lon="-5.377952">
        <ele>816.495</ele>
        <time>2018-06-15T10:36:01Z</time>
      </trkpt>
      <trkpt lat="42.483098" lon="-5.378040">
        <ele>816.439</ele>
        <time>2018-06-15T10:36:02Z</time>
      </trkpt>
      <trkpt lat="42.483125" lon="-5.378129">
        <ele>816.498</ele>
        <time>2018-06-15T10:36:03Z</time>
      </trkpt>
      <trkpt lat="42.483153" lon="-5.378219">
        <ele>816.478</ele>
        <time>2018-06-15T10:36:04Z</time>
      </trkpt>
      <trkpt lat="42.483181" lon="-5.378308">
        <ele>816.468</ele>
        <time>2018-06-15T10:36:05Z</time>
      </trkpt>
      <trkpt lat="42.483206" lon="-5.378400">
        <ele>816.488</ele>
        <time>2018-06-15T10:36:06Z</time>
      </trkpt>
      <trkpt lat="42.483232" lon="-5.378489">
        <ele>816.443</ele>
        <time>2018-06-15T10:36:07Z</time>
      </trkpt>
      <trkpt lat="42.483259" lon="-5.378575">
        <ele>816.064</ele>
        <time>2018-06-15T10:36:08Z</time>
      </trkpt>
      <trkpt lat="42.483284" lon="-5.378661">
        <ele>816.210</ele>
        <time>2018-06-15T10:36:09Z</time>
      </trkpt>
      <trkpt lat="42.483314" lon="-5.378748">
        <ele>815.908</ele>
        <time>2018-06-15T10:36:10Z</time>
      </trkpt>
      <trkpt lat="42.483343" lon="-5.378835">
        <ele>816.176</ele>
        <time>2018-06-15T10:36:11Z</time>
      </trkpt>
      <trkpt lat="42.483370" lon="-5.378924">
        <ele>816.289</ele>
        <time>2018-06-15T10:36:12Z</time>
      </trkpt>
      <trkpt lat="42.483400" lon="-5.379014">
        <ele>816.332</ele>
        <time>2018-06-15T10:36:13Z</time>
      </trkpt>
      <trkpt lat="42.483429" lon="-5.379102">
        <ele>815.956</ele>
        <time>2018-06-15T10:36:14Z</time>
      </trkpt>
      <trkpt lat="42.483456" lon="-5.379193">
        <ele>815.745</ele>
        <time>2018-06-15T10:36:15Z</time>
      </trkpt>
      <trkpt lat="42.483483" lon="-5.379284">
        <ele>816.075</ele>
        <time>2018-06-15T10:36:16Z</time>
      </trkpt>
      <trkpt lat="42.483510" lon="-5.379375">
        <ele>815.875</ele>
        <time>2018-06-15T10:36:17Z</time>
      </trkpt>
      <trkpt lat="42.483538" lon="-5.379463">
        <ele>815.785</ele>
        <time>2018-06-15T10:36:18Z</time>
      </trkpt>
      <trkpt lat="42.483566" lon="-5.379551">
        <ele>815.667</ele>
        <time>2018-06-15T10:36:19Z</time>
      </trkpt>
      <trkpt lat="42.483597" lon="-5.379644">
        <ele>815.581</ele>
        <time>2018-06-15T10:36:20Z</time>
      </trkpt>
      <trkpt lat="42.483624" lon="-5.379734">
        <ele>815.519</ele>
        <time>2018-06-15T10:36:21Z</time>
      </trkpt>
      <trkpt lat="42.483653" lon="-5.379826">
        <ele>815.508</ele>
        <time>2018-06-15T10:36:22Z</time>
      </trkpt>
      <trkpt lat="42.483679" lon="-5.379917">
        <ele>815.518</ele>
        <time>2018-06-15T10:36:23Z</time>
      </trkpt>
      <trkpt lat="42.483708" lon="-5.380010">
        <ele>815.131</ele>
        <time>2018-06-15T10:36:24Z</time>
      </trkpt>
      <trkpt lat="42.483738" lon="-5.380104">
        <ele>814.994</ele>
        <time>2018-06-15T10:36:25Z</time>
      </trkpt>
      <trkpt lat="42.483763" lon="-5.380196">
        <ele>814.868</ele>
        <time>2018-06-15T10:36:26Z</time>
      </trkpt>
      <trkpt lat="42.483789" lon="-5.380293">
        <ele>814.757</ele>
        <time>2018-06-15T10:36:27Z</time>
      </trkpt>
      <trkpt lat="42.483821" lon="-5.380385">
        <ele>814.627</ele>
        <time>2018-06-15T10:36:28Z</time>
      </trkpt>
      <trkpt lat="42.483850" lon="-5.380480">
        <ele>814.617</ele>
        <time>2018-06-15T10:36:29Z</time>
      </trkpt>
      <trkpt lat="42.483876" lon="-5.380576">
        <ele>814.657</ele>
        <time>2018-06-15T10:36:30Z</time>
      </trkpt>
      <trkpt lat="42.483902" lon="-5.380666">
        <ele>814.687</ele>
        <time>2018-06-15T10:36:31Z</time>
      </trkpt>
      <trkpt lat="42.483931" lon="-5.380759">
        <ele>814.642</ele>
        <time>2018-06-15T10:36:32Z</time>
      </trkpt>
      <trkpt lat="42.483959" lon="-5.380852">
        <ele>814.626</ele>
        <time>2018-06-15T10:36:33Z</time>
      </trkpt>
      <trkpt lat="42.483986" lon="-5.380942">
        <ele>814.608</ele>
        <time>2018-06-15T10:36:34Z</time>
      </trkpt>
      <trkpt lat="42.484014" lon="-5.381031">
        <ele>814.690</ele>
        <time>2018-06-15T10:36:35Z</time>
      </trkpt>
      <trkpt lat="42.484044" lon="-5.381121">
        <ele>814.673</ele>
        <time>2018-06-15T10:36:36Z</time>
      </trkpt>
      <trkpt lat="42.484068" lon="-5.381208">
        <ele>814.636</ele>
        <time>2018-06-15T10:36:37Z</time>
      </trkpt>
      <trkpt lat="42.484092" lon="-5.381292">
        <ele>814.660</ele>
        <time>2018-06-15T10:36:38Z</time>
      </trkpt>
      <trkpt lat="42.484119" lon="-5.381379">
        <ele>814.649</ele>
        <time>2018-06-15T10:36:39Z</time>
      </trkpt>
      <trkpt lat="42.484145" lon="-5.381464">
        <ele>814.689</ele>
        <time>2018-06-15T10:36:40Z</time>
      </trkpt>
      <trkpt lat="42.484170" lon="-5.381549">
        <ele>814.619</ele>
        <time>2018-06-15T10:36:41Z</time>
      </trkpt>
      <trkpt lat="42.484194" lon="-5.381635">
        <ele>814.679</ele>
        <time>2018-06-15T10:36:42Z</time>
      </trkpt>
      <trkpt lat="42.484216" lon="-5.381720">
        <ele>814.658</ele>
        <time>2018-06-15T10:36:43Z</time>
      </trkpt>
      <trkpt lat="42.484241" lon="-5.381810">
        <ele>814.652</ele>
        <time>2018-06-15T10:36:44Z</time>
      </trkpt>
      <trkpt lat="42.484264" lon="-5.381893">
        <ele>814.617</ele>
        <time>2018-06-15T10:36:45Z</time>
      </trkpt>
      <trkpt lat="42.484290" lon="-5.381977">
        <ele>814.608</ele>
        <time>2018-06-15T10:36:46Z</time>
      </trkpt>
      <trkpt lat="42.484313" lon="-5.382060">
        <ele>814.667</ele>
        <time>2018-06-15T10:36:47Z</time>
      </trkpt>
      <trkpt lat="42.484337" lon="-5.382142">
        <ele>814.670</ele>
        <time>2018-06-15T10:36:48Z</time>
      </trkpt>
      <trkpt lat="42.484360" lon="-5.382227">
        <ele>814.683</ele>
        <time>2018-06-15T10:36:49Z</time>
      </trkpt>
      <trkpt lat="42.484385" lon="-5.382316">
        <ele>814.637</ele>
        <time>2018-06-15T10:36:50Z</time>
      </trkpt>
      <trkpt lat="42.484413" lon="-5.382398">
        <ele>814.636</ele>
        <time>2018-06-15T10:36:51Z</time>
      </trkpt>
      <trkpt lat="42.484438" lon="-5.382479">
        <ele>814.626</ele>
        <time>2018-06-15T10:36:52Z</time>
      </trkpt>
      <trkpt lat="42.484465" lon="-5.382565">
        <ele>814.666</ele>
        <time>2018-06-15T10:36:53Z</time>
      </trkpt>
      <trkpt lat="42.484493" lon="-5.382645">
        <ele>814.676</ele>
        <time>2018-06-15T10:36:54Z</time>
      </trkpt>
      <trkpt lat="42.484520" lon="-5.382728">
        <ele>814.692</ele>
        <time>2018-06-15T10:36:55Z</time>
      </trkpt>
      <trkpt lat="42.484544" lon="-5.382812">
        <ele>814.673</ele>
        <time>2018-06-15T10:36:56Z</time>
      </trkpt>
      <trkpt lat="42.484569" lon="-5.382897">
        <ele>814.620</ele>
        <time>2018-06-15T10:36:57Z</time>
      </trkpt>
      <trkpt lat="42.484596" lon="-5.382984">
        <ele>814.208</ele>
        <time>2018-06-15T10:36:58Z</time>
      </trkpt>
      <trkpt lat="42.484623" lon="-5.383074">
        <ele>814.031</ele>
        <time>2018-06-15T10:36:59Z</time>
      </trkpt>
      <trkpt lat="42.484653" lon="-5.383157">
        <ele>813.964</ele>
        <time>2018-06-15T10:37:00Z</time>
      </trkpt>
      <trkpt lat="42.484680" lon="-5.383246">
        <ele>813.867</ele>
        <time>2018-06-15T10:37:01Z</time>
      </trkpt>
      <trkpt lat="42.484705" lon="-5.383337">
        <ele>813.751</ele>
        <time>2018-06-15T10:37:02Z</time>
      </trkpt>
      <trkpt lat="42.484734" lon="-5.383426">
        <ele>813.760</ele>
        <time>2018-06-15T10:37:03Z</time>
      </trkpt>
      <trkpt lat="42.484762" lon="-5.383518">
        <ele>813.790</ele>
        <time>2018-06-15T10:37:04Z</time>
      </trkpt>
      <trkpt lat="42.484788" lon="-5.383611">
        <ele>813.790</ele>
        <time>2018-06-15T10:37:05Z</time>
      </trkpt>
      <trkpt lat="42.484814" lon="-5.383704">
        <ele>813.730</ele>
        <time>2018-06-15T10:37:06Z</time>
      </trkpt>
      <trkpt lat="42.484843" lon="-5.383790">
        <ele>813.773</ele>
        <time>2018-06-15T10:37:07Z</time>
      </trkpt>
      <trkpt lat="42.484869" lon="-5.383880">
        <ele>813.785</ele>
        <time>2018-06-15T10:37:08Z</time>
      </trkpt>
      <trkpt lat="42.484896" lon="-5.383973">
        <ele>813.713</ele>
        <time>2018-06-15T10:37:09Z</time>
      </trkpt>
      <trkpt lat="42.484920" lon="-5.384062">
        <ele>813.708</ele>
        <time>2018-06-15T10:37:10Z</time>
      </trkpt>
      <trkpt lat="42.484951" lon="-5.384143">
        <ele>813.779</ele>
        <time>2018-06-15T10:37:11Z</time>
      </trkpt>
      <trkpt lat="42.484978" lon="-5.384226">
        <ele>813.762</ele>
        <time>2018-06-15T10:37:12Z</time>
      </trkpt>
      <trkpt lat="42.485004" lon="-5.384316">
        <ele>813.775</ele>
        <time>2018-06-15T10:37:13Z</time>
      </trkpt>
      <trkpt lat="42.485028" lon="-5.384406">
        <ele>813.779</ele>
        <time>2018-06-15T10:37:14Z</time>
      </trkpt>
      <trkpt lat="42.485057" lon="-5.384494">
        <ele>813.328</ele>
        <time>2018-06-15T10:37:15Z</time>
      </trkpt>
      <trkpt lat="42.485084" lon="-5.384582">
        <ele>813.168</ele>
        <time>2018-06-15T10:37:16Z</time>
      </trkpt>
      <trkpt lat="42.485109" lon="-5.384669">
        <ele>813.098</ele>
        <time>2018-06-15T10:37:17Z</time>
      </trkpt>
      <trkpt lat="42.485134" lon="-5.384758">
        <ele>812.928</ele>
        <time>2018-06-15T10:37:18Z</time>
      </trkpt>
      <trkpt lat="42.485162" lon="-5.384843">
        <ele>812.823</ele>
        <time>2018-06-15T10:37:19Z</time>
      </trkpt>
      <trkpt lat="42.485186" lon="-5.384929">
        <ele>812.883</ele>
        <time>2018-06-15T10:37:20Z</time>
      </trkpt>
      <trkpt lat="42.485212" lon="-5.385018">
        <ele>812.811</ele>
        <time>2018-06-15T10:37:21Z</time>
      </trkpt>
      <trkpt lat="42.485240" lon="-5.385104">
        <ele>812.808</ele>
        <time>2018-06-15T10:37:22Z</time>
      </trkpt>
      <trkpt lat="42.485266" lon="-5.385191">
        <ele>812.894</ele>
        <time>2018-06-15T10:37:23Z</time>
      </trkpt>
      <trkpt lat="42.485293" lon="-5.385278">
        <ele>812.887</ele>
        <time>2018-06-15T10:37:24Z</time>
      </trkpt>
      <trkpt lat="42.485319" lon="-5.385358">
        <ele>812.880</ele>
        <time>2018-06-15T10:37:25Z</time>
      </trkpt>
      <trkpt lat="42.485342" lon="-5.385442">
        <ele>812.874</ele>
        <time>2018-06-15T10:37:26Z</time>
      </trkpt>
      <trkpt lat="42.485366" lon="-5.385521">
        <ele>812.863</ele>
        <time>2018-06-15T10:37:27Z</time>
      </trkpt>
      <trkpt lat="42.485392" lon="-5.385600">
        <ele>812.473</ele>
        <time>2018-06-15T10:37:28Z</time>
      </trkpt>
      <trkpt lat="42.485418" lon="-5.385675">
        <ele>812.663</ele>
        <time>2018-06-15T10:37:29Z</time>
      </trkpt>
      <trkpt lat="42.485442" lon="-5.385750">
        <ele>812.783</ele>
        <time>2018-06-15T10:37:30Z</time>
      </trkpt>
      <trkpt lat="42.485465" lon="-5.385826">
        <ele>812.877</ele>
        <time>2018-06-15T10:37:31Z</time>
      </trkpt>
      <trkpt lat="42.485491" lon="-5.385899">
        <ele>812.461</ele>
        <time>2018-06-15T10:37:32Z</time>
      </trkpt>
      <trkpt lat="42.485517" lon="-5.385972">
        <ele>812.227</ele>
        <time>2018-06-15T10:37:33Z</time>
      </trkpt>
      <trkpt lat="42.485547" lon="-5.386045">
        <ele>812.508</ele>
        <time>2018-06-15T10:37:34Z</time>
      </trkpt>
      <trkpt lat="42.485577" lon="-5.386113">
        <ele>812.749</ele>
        <time>2018-06-15T10:37:35Z</time>
      </trkpt>
      <trkpt lat="42.485610" lon="-5.386183">
        <ele>812.812</ele>
        <time>2018-06-15T10:37:36Z</time>
      </trkpt>
      <trkpt lat="42.485639" lon="-5.386250">
        <ele>812.935</ele>
        <time>2018-06-15T10:37:37Z</time>
      </trkpt>
      <trkpt lat="42.485665" lon="-5.386320">
        <ele>812.579</ele>
        <time>2018-06-15T10:37:38Z</time>
      </trkpt>
      <trkpt lat="42.485697" lon="-5.386390">
        <ele>812.338</ele>
        <time>2018-06-15T10:37:39Z</time>
      </trkpt>
      <trkpt lat="42.485728" lon="-5.386462">
        <ele>812.268</ele>
        <time>2018-06-15T10:37:40Z</time>
      </trkpt>
      <trkpt lat="42.485761" lon="-5.386530">
        <ele>812.128</ele>
        <time>2018-06-15T10:37:41Z</time>
      </trkpt>
      <trkpt lat="42.485791" lon="-5.386602">
        <ele>812.148</ele>
        <time>2018-06-15T10:37:42Z</time>
      </trkpt>
      <trkpt lat="42.485821" lon="-5.386678">
        <ele>812.138</ele>
        <time>2018-06-15T10:37:43Z</time>
      </trkpt>
      <trkpt lat="42.485850" lon="-5.386749">
        <ele>812.170</ele>
        <time>2018-06-15T10:37:44Z</time>
      </trkpt>
      <trkpt lat="42.485879" lon="-5.386820">
        <ele>812.117</ele>
        <time>2018-06-15T10:37:45Z</time>
      </trkpt>
      <trkpt lat="42.485906" lon="-5.386894">
        <ele>812.108</ele>
        <time>2018-06-15T10:37:46Z</time>
      </trkpt>
      <trkpt lat="42.485939" lon="-5.386962">
        <ele>812.165</ele>
        <time>2018-06-15T10:37:47Z</time>
      </trkpt>
      <trkpt lat="42.485969" lon="-5.387030">
        <ele>812.148</ele>
        <time>2018-06-15T10:37:48Z</time>
      </trkpt>
      <trkpt lat="42.486001" lon="-5.387102">
        <ele>812.171</ele>
        <time>2018-06-15T10:37:49Z</time>
      </trkpt>
      <trkpt lat="42.486029" lon="-5.387173">
        <ele>812.195</ele>
        <time>2018-06-15T10:37:50Z</time>
      </trkpt>
      <trkpt lat="42.486061" lon="-5.387246">
        <ele>812.194</ele>
        <time>2018-06-15T10:37:51Z</time>
      </trkpt>
      <trkpt lat="42.486092" lon="-5.387321">
        <ele>812.174</ele>
        <time>2018-06-15T10:37:52Z</time>
      </trkpt>
      <trkpt lat="42.486123" lon="-5.387387">
        <ele>812.194</ele>
        <time>2018-06-15T10:37:53Z</time>
      </trkpt>
      <trkpt lat="42.486154" lon="-5.387457">
        <ele>812.154</ele>
        <time>2018-06-15T10:37:54Z</time>
      </trkpt>
      <trkpt lat="42.486181" lon="-5.387530">
        <ele>812.112</ele>
        <time>2018-06-15T10:37:55Z</time>
      </trkpt>
      <trkpt lat="42.486208" lon="-5.387603">
        <ele>812.132</ele>
        <time>2018-06-15T10:37:56Z</time>
      </trkpt>
      <trkpt lat="42.486238" lon="-5.387672">
        <ele>812.105</ele>
        <time>2018-06-15T10:37:57Z</time>
      </trkpt>
      <trkpt lat="42.486270" lon="-5.387739">
        <ele>812.108</ele>
        <time>2018-06-15T10:37:58Z</time>
      </trkpt>
      <trkpt lat="42.486299" lon="-5.387811">
        <ele>812.113</ele>
        <time>2018-06-15T10:37:59Z</time>
      </trkpt>
      <trkpt lat="42.486333" lon="-5.387877">
        <ele>812.176</ele>
        <time>2018-06-15T10:38:00Z</time>
      </trkpt>
      <trkpt lat="42.486365" lon="-5.387947">
        <ele>812.119</ele>
        <time>2018-06-15T10:38:01Z</time>
      </trkpt>
      <trkpt lat="42.486394" lon="-5.388021">
        <ele>812.183</ele>
        <time>2018-06-15T10:38:02Z</time>
      </trkpt>
      <trkpt lat="42.486423" lon="-5.388093">
        <ele>812.152</ele>
        <time>2018-06-15T10:38:03Z</time>
      </trkpt>
      <trkpt lat="42.486451" lon="-5.388158">
        <ele>812.182</ele>
        <time>2018-06-15T10:38:04Z</time>
      </trkpt>
      <trkpt lat="42.486481" lon="-5.388229">
        <ele>812.142</ele>
        <time>2018-06-15T10:38:05Z</time>
      </trkpt>
      <trkpt lat="42.486511" lon="-5.388295">
        <ele>812.192</ele>
        <time>2018-06-15T10:38:06Z</time>
      </trkpt>
      <trkpt lat="42.486538" lon="-5.388368">
        <ele>812.144</ele>
        <time>2018-06-15T10:38:07Z</time>
      </trkpt>
      <trkpt lat="42.486567" lon="-5.388436">
        <ele>812.105</ele>
        <time>2018-06-15T10:38:08Z</time>
      </trkpt>
      <trkpt lat="42.486598" lon="-5.388508">
        <ele>812.115</ele>
        <time>2018-06-15T10:38:09Z</time>
      </trkpt>
      <trkpt lat="42.486629" lon="-5.388578">
        <ele>812.108</ele>
        <time>2018-06-15T10:38:10Z</time>
      </trkpt>
      <trkpt lat="42.486660" lon="-5.388644">
        <ele>812.166</ele>
        <time>2018-06-15T10:38:11Z</time>
      </trkpt>
      <trkpt lat="42.486687" lon="-5.388717">
        <ele>812.159</ele>
        <time>2018-06-15T10:38:12Z</time>
      </trkpt>
      <trkpt lat="42.486721" lon="-5.388787">
        <ele>812.192</ele>
        <time>2018-06-15T10:38:13Z</time>
      </trkpt>
      <trkpt lat="42.486750" lon="-5.388861">
        <ele>812.126</ele>
        <time>2018-06-15T10:38:14Z</time>
      </trkpt>
      <trkpt lat="42.486782" lon="-5.388933">
        <ele>812.115</ele>
        <time>2018-06-15T10:38:15Z</time>
      </trkpt>
      <trkpt lat="42.486810" lon="-5.389004">
        <ele>812.185</ele>
        <time>2018-06-15T10:38:16Z</time>
      </trkpt>
      <trkpt lat="42.486840" lon="-5.389076">
        <ele>812.125</ele>
        <time>2018-06-15T10:38:17Z</time>
      </trkpt>
      <trkpt lat="42.486870" lon="-5.389142">
        <ele>812.135</ele>
        <time>2018-06-15T10:38:18Z</time>
      </trkpt>
      <trkpt lat="42.486898" lon="-5.389210">
        <ele>812.167</ele>
        <time>2018-06-15T10:38:19Z</time>
      </trkpt>
      <trkpt lat="42.486932" lon="-5.389282">
        <ele>812.181</ele>
        <time>2018-06-15T10:38:20Z</time>
      </trkpt>
      <trkpt lat="42.486963" lon="-5.389355">
        <ele>812.119</ele>
        <time>2018-06-15T10:38:21Z</time>
      </trkpt>
      <trkpt lat="42.486993" lon="-5.389424">
        <ele>812.108</ele>
        <time>2018-06-15T10:38:22Z</time>
      </trkpt>
      <trkpt lat="42.487024" lon="-5.389496">
        <ele>812.128</ele>
        <time>2018-06-15T10:38:23Z</time>
      </trkpt>
      <trkpt lat="42.487055" lon="-5.389565">
        <ele>812.111</ele>
        <time>2018-06-15T10:38:24Z</time>
      </trkpt>
      <trkpt lat="42.487085" lon="-5.389627">
        <ele>812.174</ele>
        <time>2018-06-15T10:38:25Z</time>
      </trkpt>
      <trkpt lat="42.487114" lon="-5.389693">
        <ele>812.178</ele>
        <time>2018-06-15T10:38:26Z</time>
      </trkpt>
      <trkpt lat="42.487146" lon="-5.389765">
        <ele>812.117</ele>
        <time>2018-06-15T10:38:27Z</time>
      </trkpt>
      <trkpt lat="42.487176" lon="-5.389831">
        <ele>812.557</ele>
        <time>2018-06-15T10:38:28Z</time>
      </trkpt>
      <trkpt lat="42.487203" lon="-5.389900">
        <ele>812.717</ele>
        <time>2018-06-15T10:38:29Z</time>
      </trkpt>
      <trkpt lat="42.487231" lon="-5.389966">
        <ele>812.877</ele>
        <time>2018-06-15T10:38:30Z</time>
      </trkpt>
      <trkpt lat="42.487257" lon="-5.390038">
        <ele>812.986</ele>
        <time>2018-06-15T10:38:31Z</time>
      </trkpt>
      <trkpt lat="42.487288" lon="-5.390105">
        <ele>813.060</ele>
        <time>2018-06-15T10:38:32Z</time>
      </trkpt>
      <trkpt lat="42.487321" lon="-5.390173">
        <ele>813.026</ele>
        <time>2018-06-15T10:38:33Z</time>
      </trkpt>
      <trkpt lat="42.487353" lon="-5.390244">
        <ele>813.008</ele>
        <time>2018-06-15T10:38:34Z</time>
      </trkpt>
      <trkpt lat="42.487383" lon="-5.390313">
        <ele>813.040</ele>
        <time>2018-06-15T10:38:35Z</time>
      </trkpt>
      <trkpt lat="42.487411" lon="-5.390388">
        <ele>813.063</ele>
        <time>2018-06-15T10:38:36Z</time>
      </trkpt>
      <trkpt lat="42.487441" lon="-5.390459">
        <ele>812.656</ele>
        <time>2018-06-15T10:38:37Z</time>
      </trkpt>
      <trkpt lat="42.487474" lon="-5.390527">
        <ele>812.850</ele>
        <time>2018-06-15T10:38:38Z</time>
      </trkpt>
      <trkpt lat="42.487503" lon="-5.390595">
        <ele>812.939</ele>
        <time>2018-06-15T10:38:39Z</time>
      </trkpt>
      <trkpt lat="42.487531" lon="-5.390664">
        <ele>813.099</ele>
        <time>2018-06-15T10:38:40Z</time>
      </trkpt>
      <trkpt lat="42.487560" lon="-5.390732">
        <ele>813.049</ele>
        <time>2018-06-15T10:38:41Z</time>
      </trkpt>
      <trkpt lat="42.487593" lon="-5.390803">
        <ele>813.029</ele>
        <time>2018-06-15T10:38:42Z</time>
      </trkpt>
      <trkpt lat="42.487624" lon="-5.390874">
        <ele>813.016</ele>
        <time>2018-06-15T10:38:43Z</time>
      </trkpt>
      <trkpt lat="42.487654" lon="-5.390947">
        <ele>813.076</ele>
        <time>2018-06-15T10:38:44Z</time>
      </trkpt>
      <trkpt lat="42.487688" lon="-5.391017">
        <ele>813.013</ele>
        <time>2018-06-15T10:38:45Z</time>
      </trkpt>
      <trkpt lat="42.487720" lon="-5.391085">
        <ele>813.008</ele>
        <time>2018-06-15T10:38:46Z</time>
      </trkpt>
      <trkpt lat="42.487748" lon="-5.391155">
        <ele>813.043</ele>
        <time>2018-06-15T10:38:47Z</time>
      </trkpt>
      <trkpt lat="42.487778" lon="-5.391224">
        <ele>813.086</ele>
        <time>2018-06-15T10:38:48Z</time>
      </trkpt>
      <trkpt lat="42.487811" lon="-5.391294">
        <ele>813.039</ele>
        <time>2018-06-15T10:38:49Z</time>
      </trkpt>
      <trkpt lat="42.487842" lon="-5.391364">
        <ele>813.073</ele>
        <time>2018-06-15T10:38:50Z</time>
      </trkpt>
      <trkpt lat="42.487875" lon="-5.391429">
        <ele>813.032</ele>
        <time>2018-06-15T10:38:51Z</time>
      </trkpt>
      <trkpt lat="42.487906" lon="-5.391497">
        <ele>813.022</ele>
        <time>2018-06-15T10:38:52Z</time>
      </trkpt>
      <trkpt lat="42.487934" lon="-5.391565">
        <ele>813.062</ele>
        <time>2018-06-15T10:38:53Z</time>
      </trkpt>
      <trkpt lat="42.487960" lon="-5.391635">
        <ele>813.052</ele>
        <time>2018-06-15T10:38:54Z</time>
      </trkpt>
      <trkpt lat="42.487989" lon="-5.391702">
        <ele>813.086</ele>
        <time>2018-06-15T10:38:55Z</time>
      </trkpt>
      <trkpt lat="42.488018" lon="-5.391770">
        <ele>813.060</ele>
        <time>2018-06-15T10:38:56Z</time>
      </trkpt>
      <trkpt lat="42.488046" lon="-5.391842">
        <ele>813.026</ele>
        <time>2018-06-15T10:38:57Z</time>
      </trkpt>
      <trkpt lat="42.488076" lon="-5.391910">
        <ele>813.008</ele>
        <time>2018-06-15T10:38:58Z</time>
      </trkpt>
      <trkpt lat="42.488107" lon="-5.391975">
        <ele>813.060</ele>
        <time>2018-06-15T10:38:59Z</time>
      </trkpt>
      <trkpt lat="42.488135" lon="-5.392043">
        <ele>812.633</ele>
        <time>2018-06-15T10:39:00Z</time>
      </trkpt>
      <trkpt lat="42.488162" lon="-5.392110">
        <ele>812.496</ele>
        <time>2018-06-15T10:39:01Z</time>
      </trkpt>
      <trkpt lat="42.488190" lon="-5.392179">
        <ele>812.340</ele>
        <time>2018-06-15T10:39:02Z</time>
      </trkpt>
      <trkpt lat="42.488219" lon="-5.392248">
        <ele>812.219</ele>
        <time>2018-06-15T10:39:03Z</time>
      </trkpt>
      <trkpt lat="42.488247" lon="-5.392314">
        <ele>812.159</ele>
        <time>2018-06-15T10:39:04Z</time>
      </trkpt>
      <trkpt lat="42.488275" lon="-5.392381">
        <ele>812.189</ele>
        <time>2018-06-15T10:39:05Z</time>
      </trkpt>
      <trkpt lat="42.488295" lon="-5.392458">
        <ele>812.159</ele>
        <time>2018-06-15T10:39:06Z</time>
      </trkpt>
      <trkpt lat="42.488320" lon="-5.392525">
        <ele>812.192</ele>
        <time>2018-06-15T10:39:07Z</time>
      </trkpt>
      <trkpt lat="42.488345" lon="-5.392591">
        <ele>812.173</ele>
        <time>2018-06-15T10:39:08Z</time>
      </trkpt>
      <trkpt lat="42.488374" lon="-5.392653">
        <ele>812.120</ele>
        <time>2018-06-15T10:39:09Z</time>
      </trkpt>
      <trkpt lat="42.488402" lon="-5.392721">
        <ele>812.108</ele>
        <time>2018-06-15T10:39:10Z</time>
      </trkpt>
      <trkpt lat="42.488431" lon="-5.392787">
        <ele>811.741</ele>
        <time>2018-06-15T10:39:11Z</time>
      </trkpt>
      <trkpt lat="42.488456" lon="-5.392854">
        <ele>811.544</ele>
        <time>2018-06-15T10:39:12Z</time>
      </trkpt>
      <trkpt lat="42.488483" lon="-5.392919">
        <ele>811.477</ele>
        <time>2018-06-15T10:39:13Z</time>
      </trkpt>
      <trkpt lat="42.488511" lon="-5.392983">
        <ele>811.371</ele>
        <time>2018-06-15T10:39:14Z</time>
      </trkpt>
      <trkpt lat="42.488539" lon="-5.393046">
        <ele>811.280</ele>
        <time>2018-06-15T10:39:15Z</time>
      </trkpt>
      <trkpt lat="42.488569" lon="-5.393110">
        <ele>811.240</ele>
        <time>2018-06-15T10:39:16Z</time>
      </trkpt>
      <trkpt lat="42.488602" lon="-5.393174">
        <ele>811.250</ele>
        <time>2018-06-15T10:39:17Z</time>
      </trkpt>
      <trkpt lat="42.488635" lon="-5.393236">
        <ele>811.260</ele>
        <time>2018-06-15T10:39:18Z</time>
      </trkpt>
      <trkpt lat="42.488662" lon="-5.393297">
        <ele>811.261</ele>
        <time>2018-06-15T10:39:19Z</time>
      </trkpt>
      <trkpt lat="42.488688" lon="-5.393358">
        <ele>811.221</ele>
        <time>2018-06-15T10:39:20Z</time>
      </trkpt>
      <trkpt lat="42.488714" lon="-5.393420">
        <ele>811.213</ele>
        <time>2018-06-15T10:39:21Z</time>
      </trkpt>
      <trkpt lat="42.488731" lon="-5.393485">
        <ele>811.208</ele>
        <time>2018-06-15T10:39:22Z</time>
      </trkpt>
      <trkpt lat="42.488749" lon="-5.393547">
        <ele>811.288</ele>
        <time>2018-06-15T10:39:23Z</time>
      </trkpt>
      <trkpt lat="42.488778" lon="-5.393601">
        <ele>811.251</ele>
        <time>2018-06-15T10:39:24Z</time>
      </trkpt>
      <trkpt lat="42.488806" lon="-5.393663">
        <ele>811.254</ele>
        <time>2018-06-15T10:39:25Z</time>
      </trkpt>
      <trkpt lat="42.488835" lon="-5.393720">
        <ele>811.218</ele>
        <time>2018-06-15T10:39:26Z</time>
      </trkpt>
      <trkpt lat="42.488865" lon="-5.393781">
        <ele>811.217</ele>
        <time>2018-06-15T10:39:27Z</time>
      </trkpt>
      <trkpt lat="42.488897" lon="-5.393846">
        <ele>811.657</ele>
        <time>2018-06-15T10:39:28Z</time>
      </trkpt>
      <trkpt lat="42.488927" lon="-5.393918">
        <ele>811.487</ele>
        <time>2018-06-15T10:39:29Z</time>
      </trkpt>
      <trkpt lat="42.488957" lon="-5.393985">
        <ele>811.787</ele>
        <time>2018-06-15T10:39:30Z</time>
      </trkpt>
      <trkpt lat="42.488987" lon="-5.394049">
        <ele>811.545</ele>
        <time>2018-06-15T10:39:31Z</time>
      </trkpt>
      <trkpt lat="42.489011" lon="-5.394114">
        <ele>811.447</ele>
        <time>2018-06-15T10:39:32Z</time>
      </trkpt>
      <trkpt lat="42.489039" lon="-5.394177">
        <ele>811.311</ele>
        <time>2018-06-15T10:39:33Z</time>
      </trkpt>
      <trkpt lat="42.489065" lon="-5.394239">
        <ele>811.308</ele>
        <time>2018-06-15T10:39:34Z</time>
      </trkpt>
      <trkpt lat="42.489090" lon="-5.394300">
        <ele>811.386</ele>
        <time>2018-06-15T10:39:35Z</time>
      </trkpt>
      <trkpt lat="42.489117" lon="-5.394362">
        <ele>811.369</ele>
        <time>2018-06-15T10:39:36Z</time>
      </trkpt>
      <trkpt lat="42.489143" lon="-5.394422">
        <ele>811.372</ele>
        <time>2018-06-15T10:39:37Z</time>
      </trkpt>
      <trkpt lat="42.489169" lon="-5.394483">
        <ele>811.336</ele>
        <time>2018-06-15T10:39:38Z</time>
      </trkpt>
      <trkpt lat="42.489195" lon="-5.394545">
        <ele>811.355</ele>
        <time>2018-06-15T10:39:39Z</time>
      </trkpt>
      <trkpt lat="42.489222" lon="-5.394605">
        <ele>811.385</ele>
        <time>2018-06-15T10:39:40Z</time>
      </trkpt>
      <trkpt lat="42.489246" lon="-5.394671">
        <ele>811.715</ele>
        <time>2018-06-15T10:39:41Z</time>
      </trkpt>
      <trkpt lat="42.489271" lon="-5.394738">
        <ele>811.985</ele>
        <time>2018-06-15T10:39:42Z</time>
      </trkpt>
      <trkpt lat="42.489298" lon="-5.394806">
        <ele>812.013</ele>
        <time>2018-06-15T10:39:43Z</time>
      </trkpt>
      <trkpt lat="42.489324" lon="-5.394873">
        <ele>812.143</ele>
        <time>2018-06-15T10:39:44Z</time>
      </trkpt>
      <trkpt lat="42.489350" lon="-5.394937">
        <ele>812.207</ele>
        <time>2018-06-15T10:39:45Z</time>
      </trkpt>
      <trkpt lat="42.489375" lon="-5.394999">
        <ele>811.808</ele>
        <time>2018-06-15T10:39:46Z</time>
      </trkpt>
      <trkpt lat="42.489405" lon="-5.395060">
        <ele>811.613</ele>
        <time>2018-06-15T10:39:47Z</time>
      </trkpt>
      <trkpt lat="42.489435" lon="-5.395125">
        <ele>811.526</ele>
        <time>2018-06-15T10:39:48Z</time>
      </trkpt>
      <trkpt lat="42.489463" lon="-5.395189">
        <ele>811.449</ele>
        <time>2018-06-15T10:39:49Z</time>
      </trkpt>
      <trkpt lat="42.489492" lon="-5.395256">
        <ele>811.493</ele>
        <time>2018-06-15T10:39:50Z</time>
      </trkpt>
      <trkpt lat="42.489522" lon="-5.395323">
        <ele>811.472</ele>
        <time>2018-06-15T10:39:51Z</time>
      </trkpt>
      <trkpt lat="42.489548" lon="-5.395383">
        <ele>811.442</ele>
        <time>2018-06-15T10:39:52Z</time>
      </trkpt>
      <trkpt lat="42.489575" lon="-5.395447">
        <ele>811.462</ele>
        <time>2018-06-15T10:39:53Z</time>
      </trkpt>
      <trkpt lat="42.489602" lon="-5.395510">
        <ele>811.472</ele>
        <time>2018-06-15T10:39:54Z</time>
      </trkpt>
      <trkpt lat="42.489626" lon="-5.395582">
        <ele>811.424</ele>
        <time>2018-06-15T10:39:55Z</time>
      </trkpt>
      <trkpt lat="42.489652" lon="-5.395655">
        <ele>811.404</ele>
        <time>2018-06-15T10:39:56Z</time>
      </trkpt>
      <trkpt lat="42.489681" lon="-5.395724">
        <ele>811.414</ele>
        <time>2018-06-15T10:39:57Z</time>
      </trkpt>
      <trkpt lat="42.489710" lon="-5.395791">
        <ele>811.008</ele>
        <time>2018-06-15T10:39:58Z</time>
      </trkpt>
      <trkpt lat="42.489741" lon="-5.395859">
        <ele>810.814</ele>
        <time>2018-06-15T10:39:59Z</time>
      </trkpt>
      <trkpt lat="42.489771" lon="-5.395925">
        <ele>811.177</ele>
        <time>2018-06-15T10:40:00Z</time>
      </trkpt>
      <trkpt lat="42.489801" lon="-5.395992">
        <ele>811.330</ele>
        <time>2018-06-15T10:40:01Z</time>
      </trkpt>
      <trkpt lat="42.489829" lon="-5.396061">
        <ele>811.024</ele>
        <time>2018-06-15T10:40:02Z</time>
      </trkpt>
      <trkpt lat="42.489859" lon="-5.396128">
        <ele>810.813</ele>
        <time>2018-06-15T10:40:03Z</time>
      </trkpt>
      <trkpt lat="42.489890" lon="-5.396191">
        <ele>811.183</ele>
        <time>2018-06-15T10:40:04Z</time>
      </trkpt>
      <trkpt lat="42.489921" lon="-5.396253">
        <ele>811.313</ele>
        <time>2018-06-15T10:40:05Z</time>
      </trkpt>
      <trkpt lat="42.489946" lon="-5.396317">
        <ele>811.473</ele>
        <time>2018-06-15T10:40:06Z</time>
      </trkpt>
      <trkpt lat="42.489974" lon="-5.396384">
        <ele>811.551</ele>
        <time>2018-06-15T10:40:07Z</time>
      </trkpt>
      <trkpt lat="42.490001" lon="-5.396446">
        <ele>811.501</ele>
        <time>2018-06-15T10:40:08Z</time>
      </trkpt>
      <trkpt lat="42.490031" lon="-5.396515">
        <ele>811.511</ele>
        <time>2018-06-15T10:40:09Z</time>
      </trkpt>
      <trkpt lat="42.490060" lon="-5.396580">
        <ele>811.508</ele>
        <time>2018-06-15T10:40:10Z</time>
      </trkpt>
      <trkpt lat="42.490088" lon="-5.396644">
        <ele>811.587</ele>
        <time>2018-06-15T10:40:11Z</time>
      </trkpt>
      <trkpt lat="42.490115" lon="-5.396714">
        <ele>811.550</ele>
        <time>2018-06-15T10:40:12Z</time>
      </trkpt>
      <trkpt lat="42.490141" lon="-5.396784">
        <ele>811.573</ele>
        <time>2018-06-15T10:40:13Z</time>
      </trkpt>
      <trkpt lat="42.490166" lon="-5.396853">
        <ele>811.147</ele>
        <time>2018-06-15T10:40:14Z</time>
      </trkpt>
      <trkpt lat="42.490194" lon="-5.396918">
        <ele>810.976</ele>
        <time>2018-06-15T10:40:15Z</time>
      </trkpt>
      <trkpt lat="42.490226" lon="-5.396980">
        <ele>810.856</ele>
        <time>2018-06-15T10:40:16Z</time>
      </trkpt>
      <trkpt lat="42.490251" lon="-5.397041">
        <ele>810.736</ele>
        <time>2018-06-15T10:40:17Z</time>
      </trkpt>
      <trkpt lat="42.490280" lon="-5.397113">
        <ele>810.676</ele>
        <time>2018-06-15T10:40:18Z</time>
      </trkpt>
      <trkpt lat="42.490312" lon="-5.397180">
        <ele>810.657</ele>
        <time>2018-06-15T10:40:19Z</time>
      </trkpt>
      <trkpt lat="42.490345" lon="-5.397249">
        <ele>810.600</ele>
        <time>2018-06-15T10:40:20Z</time>
      </trkpt>
      <trkpt lat="42.490377" lon="-5.397320">
        <ele>810.620</ele>
        <time>2018-06-15T10:40:21Z</time>
      </trkpt>
      <trkpt lat="42.490401" lon="-5.397385">
        <ele>810.608</ele>
        <time>2018-06-15T10:40:22Z</time>
      </trkpt>
      <trkpt lat="42.490429" lon="-5.397448">
        <ele>810.687</ele>
        <time>2018-06-15T10:40:23Z</time>
      </trkpt>
      <trkpt lat="42.490455" lon="-5.397514">
        <ele>811.060</ele>
        <time>2018-06-15T10:40:24Z</time>
      </trkpt>
      <trkpt lat="42.490483" lon="-5.397581">
        <ele>811.273</ele>
        <time>2018-06-15T10:40:25Z</time>
      </trkpt>
      <trkpt lat="42.490509" lon="-5.397652">
        <ele>811.327</ele>
        <time>2018-06-15T10:40:26Z</time>
      </trkpt>
      <trkpt lat="42.490542" lon="-5.397720">
        <ele>811.476</ele>
        <time>2018-06-15T10:40:27Z</time>
      </trkpt>
      <trkpt lat="42.490570" lon="-5.397787">
        <ele>811.596</ele>
        <time>2018-06-15T10:40:28Z</time>
      </trkpt>
      <trkpt lat="42.490595" lon="-5.397847">
        <ele>811.566</ele>
        <time>2018-06-15T10:40:29Z</time>
      </trkpt>
      <trkpt lat="42.490623" lon="-5.397907">
        <ele>811.556</ele>
        <time>2018-06-15T10:40:30Z</time>
      </trkpt>
      <trkpt lat="42.490649" lon="-5.397972">
        <ele>811.532</ele>
        <time>2018-06-15T10:40:31Z</time>
      </trkpt>
      <trkpt lat="42.490677" lon="-5.398037">
        <ele>811.592</ele>
        <time>2018-06-15T10:40:32Z</time>
      </trkpt>
      <trkpt lat="42.490708" lon="-5.398105">
        <ele>811.911</ele>
        <time>2018-06-15T10:40:33Z</time>
      </trkpt>
      <trkpt lat="42.490740" lon="-5.398172">
        <ele>812.108</ele>
        <time>2018-06-15T10:40:34Z</time>
      </trkpt>
      <trkpt lat="42.490770" lon="-5.398242">
        <ele>812.215</ele>
        <time>2018-06-15T10:40:35Z</time>
      </trkpt>
      <trkpt lat="42.490794" lon="-5.398313">
        <ele>812.398</ele>
        <time>2018-06-15T10:40:36Z</time>
      </trkpt>
      <trkpt lat="42.490821" lon="-5.398382">
        <ele>812.421</ele>
        <time>2018-06-15T10:40:37Z</time>
      </trkpt>
      <trkpt lat="42.490852" lon="-5.398446">
        <ele>812.485</ele>
        <time>2018-06-15T10:40:38Z</time>
      </trkpt>
      <trkpt lat="42.490879" lon="-5.398520">
        <ele>812.434</ele>
        <time>2018-06-15T10:40:39Z</time>
      </trkpt>
      <trkpt lat="42.490903" lon="-5.398586">
        <ele>812.884</ele>
        <time>2018-06-15T10:40:40Z</time>
      </trkpt>
      <trkpt lat="42.490931" lon="-5.398652">
        <ele>813.054</ele>
        <time>2018-06-15T10:40:41Z</time>
      </trkpt>
      <trkpt lat="42.490959" lon="-5.398713">
        <ele>813.154</ele>
        <time>2018-06-15T10:40:42Z</time>
      </trkpt>
      <trkpt lat="42.490987" lon="-5.398770">
        <ele>813.226</ele>
        <time>2018-06-15T10:40:43Z</time>
      </trkpt>
      <trkpt lat="42.491010" lon="-5.398829">
        <ele>813.347</ele>
        <time>2018-06-15T10:40:44Z</time>
      </trkpt>
      <trkpt lat="42.491037" lon="-5.398892">
        <ele>813.311</ele>
        <time>2018-06-15T10:40:45Z</time>
      </trkpt>
      <trkpt lat="42.491065" lon="-5.398948">
        <ele>813.308</ele>
        <time>2018-06-15T10:40:46Z</time>
      </trkpt>
      <trkpt lat="42.491096" lon="-5.399010">
        <ele>813.394</ele>
        <time>2018-06-15T10:40:47Z</time>
      </trkpt>
      <trkpt lat="42.491118" lon="-5.399077">
        <ele>812.937</ele>
        <time>2018-06-15T10:40:48Z</time>
      </trkpt>
      <trkpt lat="42.491140" lon="-5.399139">
        <ele>812.720</ele>
        <time>2018-06-15T10:40:49Z</time>
      </trkpt>
      <trkpt lat="42.491174" lon="-5.399200">
        <ele>812.614</ele>
        <time>2018-06-15T10:40:50Z</time>
      </trkpt>
      <trkpt lat="42.491198" lon="-5.399264">
        <ele>812.963</ele>
        <time>2018-06-15T10:40:51Z</time>
      </trkpt>
      <trkpt lat="42.491222" lon="-5.399332">
        <ele>813.133</ele>
        <time>2018-06-15T10:40:52Z</time>
      </trkpt>
      <trkpt lat="42.491251" lon="-5.399394">
        <ele>812.813</ele>
        <time>2018-06-15T10:40:53Z</time>
      </trkpt>
      <trkpt lat="42.491284" lon="-5.399457">
        <ele>812.693</ele>
        <time>2018-06-15T10:40:54Z</time>
      </trkpt>
      <trkpt lat="42.491310" lon="-5.399521">
        <ele>812.514</ele>
        <time>2018-06-15T10:40:55Z</time>
      </trkpt>
      <trkpt lat="42.491339" lon="-5.399584">
        <ele>812.454</ele>
        <time>2018-06-15T10:40:56Z</time>
      </trkpt>
      <trkpt lat="42.491363" lon="-5.399653">
        <ele>812.409</ele>
        <time>2018-06-15T10:40:57Z</time>
      </trkpt>
      <trkpt lat="42.491387" lon="-5.399719">
        <ele>812.408</ele>
        <time>2018-06-15T10:40:58Z</time>
      </trkpt>
      <trkpt lat="42.491414" lon="-5.399784">
        <ele>812.483</ele>
        <time>2018-06-15T10:40:59Z</time>
      </trkpt>
      <trkpt lat="42.491439" lon="-5.399847">
        <ele>812.446</ele>
        <time>2018-06-15T10:41:00Z</time>
      </trkpt>
      <trkpt lat="42.491466" lon="-5.399911">
        <ele>812.499</ele>
        <time>2018-06-15T10:41:01Z</time>
      </trkpt>
      <trkpt lat="42.491492" lon="-5.399975">
        <ele>812.423</ele>
        <time>2018-06-15T10:41:02Z</time>
      </trkpt>
      <trkpt lat="42.491520" lon="-5.400035">
        <ele>812.432</ele>
        <time>2018-06-15T10:41:03Z</time>
      </trkpt>
      <trkpt lat="42.491548" lon="-5.400097">
        <ele>812.472</ele>
        <time>2018-06-15T10:41:04Z</time>
      </trkpt>
      <trkpt lat="42.491574" lon="-5.400160">
        <ele>812.452</ele>
        <time>2018-06-15T10:41:05Z</time>
      </trkpt>
      <trkpt lat="42.491599" lon="-5.400223">
        <ele>812.442</ele>
        <time>2018-06-15T10:41:06Z</time>
      </trkpt>
      <trkpt lat="42.491629" lon="-5.400288">
        <ele>812.436</ele>
        <time>2018-06-15T10:41:07Z</time>
      </trkpt>
      <trkpt lat="42.491656" lon="-5.400353">
        <ele>812.417</ele>
        <time>2018-06-15T10:41:08Z</time>
      </trkpt>
      <trkpt lat="42.491687" lon="-5.400416">
        <ele>812.418</ele>
        <time>2018-06-15T10:41:09Z</time>
      </trkpt>
      <trkpt lat="42.491713" lon="-5.400475">
        <ele>812.408</ele>
        <time>2018-06-15T10:41:10Z</time>
      </trkpt>
      <trkpt lat="42.491741" lon="-5.400541">
        <ele>812.475</ele>
        <time>2018-06-15T10:41:11Z</time>
      </trkpt>
      <trkpt lat="42.491768" lon="-5.400604">
        <ele>812.898</ele>
        <time>2018-06-15T10:41:12Z</time>
      </trkpt>
      <trkpt lat="42.491795" lon="-5.400671">
        <ele>813.061</ele>
        <time>2018-06-15T10:41:13Z</time>
      </trkpt>
      <trkpt lat="42.491827" lon="-5.400732">
        <ele>813.145</ele>
        <time>2018-06-15T10:41:14Z</time>
      </trkpt>
      <trkpt lat="42.491858" lon="-5.400794">
        <ele>813.274</ele>
        <time>2018-06-15T10:41:15Z</time>
      </trkpt>
      <trkpt lat="42.491880" lon="-5.400867">
        <ele>813.354</ele>
        <time>2018-06-15T10:41:16Z</time>
      </trkpt>
      <trkpt lat="42.491906" lon="-5.400928">
        <ele>812.914</ele>
        <time>2018-06-15T10:41:17Z</time>
      </trkpt>
      <trkpt lat="42.491934" lon="-5.400988">
        <ele>812.794</ele>
        <time>2018-06-15T10:41:18Z</time>
      </trkpt>
      <trkpt lat="42.491961" lon="-5.401055">
        <ele>812.622</ele>
        <time>2018-06-15T10:41:19Z</time>
      </trkpt>
      <trkpt lat="42.491986" lon="-5.401121">
        <ele>812.562</ele>
        <time>2018-06-15T10:41:20Z</time>
      </trkpt>
      <trkpt lat="42.492012" lon="-5.401186">
        <ele>812.508</ele>
        <time>2018-06-15T10:41:21Z</time>
      </trkpt>
      <trkpt lat="42.492040" lon="-5.401244">
        <ele>812.508</ele>
        <time>2018-06-15T10:41:22Z</time>
      </trkpt>
      <trkpt lat="42.492066" lon="-5.401306">
        <ele>812.584</ele>
        <time>2018-06-15T10:41:23Z</time>
      </trkpt>
      <trkpt lat="42.492094" lon="-5.401377">
        <ele>812.537</ele>
        <time>2018-06-15T10:41:24Z</time>
      </trkpt>
      <trkpt lat="42.492120" lon="-5.401443">
        <ele>812.520</ele>
        <time>2018-06-15T10:41:25Z</time>
      </trkpt>
      <trkpt lat="42.492144" lon="-5.401507">
        <ele>812.124</ele>
        <time>2018-06-15T10:41:26Z</time>
      </trkpt>
      <trkpt lat="42.492170" lon="-5.401561">
        <ele>811.923</ele>
        <time>2018-06-15T10:41:27Z</time>
      </trkpt>
      <trkpt lat="42.492195" lon="-5.401615">
        <ele>811.813</ele>
        <time>2018-06-15T10:41:28Z</time>
      </trkpt>
      <trkpt lat="42.492216" lon="-5.401672">
        <ele>811.713</ele>
        <time>2018-06-15T10:41:29Z</time>
      </trkpt>
      <trkpt lat="42.492242" lon="-5.401730">
        <ele>811.683</ele>
        <time>2018-06-15T10:41:30Z</time>
      </trkpt>
      <trkpt lat="42.492269" lon="-5.401787">
        <ele>811.674</ele>
        <time>2018-06-15T10:41:31Z</time>
      </trkpt>
      <trkpt lat="42.492294" lon="-5.401850">
        <ele>811.656</ele>
        <time>2018-06-15T10:41:32Z</time>
      </trkpt>
      <trkpt lat="42.492324" lon="-5.401914">
        <ele>811.621</ele>
        <time>2018-06-15T10:41:33Z</time>
      </trkpt>
      <trkpt lat="42.492339" lon="-5.401974">
        <ele>811.608</ele>
        <time>2018-06-15T10:41:34Z</time>
      </trkpt>
      <trkpt lat="42.492367" lon="-5.402039">
        <ele>811.629</ele>
        <time>2018-06-15T10:41:35Z</time>
      </trkpt>
      <trkpt lat="42.492393" lon="-5.402098">
        <ele>812.022</ele>
        <time>2018-06-15T10:41:36Z</time>
      </trkpt>
      <trkpt lat="42.492420" lon="-5.402158">
        <ele>812.295</ele>
        <time>2018-06-15T10:41:37Z</time>
      </trkpt>
      <trkpt lat="42.492447" lon="-5.402210">
        <ele>812.359</ele>
        <time>2018-06-15T10:41:38Z</time>
      </trkpt>
      <trkpt lat="42.492490" lon="-5.402323">
        <ele>812.458</ele>
        <time>2018-06-15T10:41:40Z</time>
      </trkpt>
      <trkpt lat="42.492517" lon="-5.402383">
        <ele>812.558</ele>
        <time>2018-06-15T10:41:41Z</time>
      </trkpt>
      <trkpt lat="42.492543" lon="-5.402439">
        <ele>812.538</ele>
        <time>2018-06-15T10:41:42Z</time>
      </trkpt>
      <trkpt lat="42.492567" lon="-5.402500">
        <ele>812.138</ele>
        <time>2018-06-15T10:41:43Z</time>
      </trkpt>
      <trkpt lat="42.492592" lon="-5.402554">
        <ele>812.348</ele>
        <time>2018-06-15T10:41:44Z</time>
      </trkpt>
      <trkpt lat="42.492618" lon="-5.402608">
        <ele>812.061</ele>
        <time>2018-06-15T10:41:45Z</time>
      </trkpt>
      <trkpt lat="42.492644" lon="-5.402663">
        <ele>812.217</ele>
        <time>2018-06-15T10:41:46Z</time>
      </trkpt>
      <trkpt lat="42.492672" lon="-5.402727">
        <ele>811.908</ele>
        <time>2018-06-15T10:41:47Z</time>
      </trkpt>
      <trkpt lat="42.492698" lon="-5.402790">
        <ele>811.726</ele>
        <time>2018-06-15T10:41:48Z</time>
      </trkpt>
      <trkpt lat="42.492728" lon="-5.402858">
        <ele>811.679</ele>
        <time>2018-06-15T10:41:49Z</time>
      </trkpt>
      <trkpt lat="42.492755" lon="-5.402927">
        <ele>811.532</ele>
        <time>2018-06-15T10:41:50Z</time>
      </trkpt>
      <trkpt lat="42.492782" lon="-5.402989">
        <ele>811.596</ele>
        <time>2018-06-15T10:41:51Z</time>
      </trkpt>
      <trkpt lat="42.492806" lon="-5.403054">
        <ele>811.535</ele>
        <time>2018-06-15T10:41:52Z</time>
      </trkpt>
      <trkpt lat="42.492833" lon="-5.403119">
        <ele>811.585</ele>
        <time>2018-06-15T10:41:53Z</time>
      </trkpt>
      <trkpt lat="42.492861" lon="-5.403178">
        <ele>811.185</ele>
        <time>2018-06-15T10:41:54Z</time>
      </trkpt>
      <trkpt lat="42.492886" lon="-5.403234">
        <ele>810.955</ele>
        <time>2018-06-15T10:41:55Z</time>
      </trkpt>
      <trkpt lat="42.492911" lon="-5.403295">
        <ele>810.861</ele>
        <time>2018-06-15T10:41:56Z</time>
      </trkpt>
      <trkpt lat="42.492934" lon="-5.403357">
        <ele>811.121</ele>
        <time>2018-06-15T10:41:57Z</time>
      </trkpt>
      <trkpt lat="42.492959" lon="-5.403421">
        <ele>810.913</ele>
        <time>2018-06-15T10:41:58Z</time>
      </trkpt>
      <trkpt lat="42.492985" lon="-5.403485">
        <ele>810.808</ele>
        <time>2018-06-15T10:41:59Z</time>
      </trkpt>
      <trkpt lat="42.493012" lon="-5.403546">
        <ele>810.788</ele>
        <time>2018-06-15T10:42:00Z</time>
      </trkpt>
      <trkpt lat="42.493043" lon="-5.403604">
        <ele>810.771</ele>
        <time>2018-06-15T10:42:01Z</time>
      </trkpt>
      <trkpt lat="42.493072" lon="-5.403662">
        <ele>810.734</ele>
        <time>2018-06-15T10:42:02Z</time>
      </trkpt>
      <trkpt lat="42.493100" lon="-5.403717">
        <ele>811.158</ele>
        <time>2018-06-15T10:42:03Z</time>
      </trkpt>
      <trkpt lat="42.493131" lon="-5.403783">
        <ele>811.327</ele>
        <time>2018-06-15T10:42:04Z</time>
      </trkpt>
      <trkpt lat="42.493157" lon="-5.403845">
        <ele>811.417</ele>
        <time>2018-06-15T10:42:05Z</time>
      </trkpt>
      <trkpt lat="42.493185" lon="-5.403910">
        <ele>811.557</ele>
        <time>2018-06-15T10:42:06Z</time>
      </trkpt>
      <trkpt lat="42.493213" lon="-5.403977">
        <ele>811.597</ele>
        <time>2018-06-15T10:42:07Z</time>
      </trkpt>
      <trkpt lat="42.493243" lon="-5.404040">
        <ele>811.534</ele>
        <time>2018-06-15T10:42:08Z</time>
      </trkpt>
      <trkpt lat="42.493267" lon="-5.404107">
        <ele>811.555</ele>
        <time>2018-06-15T10:42:09Z</time>
      </trkpt>
      <trkpt lat="42.493293" lon="-5.404172">
        <ele>811.110</ele>
        <time>2018-06-15T10:42:10Z</time>
      </trkpt>
      <trkpt lat="42.493318" lon="-5.404240">
        <ele>811.308</ele>
        <time>2018-06-15T10:42:11Z</time>
      </trkpt>
      <trkpt lat="42.493347" lon="-5.404299">
        <ele>811.495</ele>
        <time>2018-06-15T10:42:12Z</time>
      </trkpt>
      <trkpt lat="42.493375" lon="-5.404363">
        <ele>811.118</ele>
        <time>2018-06-15T10:42:13Z</time>
      </trkpt>
      <trkpt lat="42.493403" lon="-5.404426">
        <ele>810.911</ele>
        <time>2018-06-15T10:42:14Z</time>
      </trkpt>
      <trkpt lat="42.493425" lon="-5.404489">
        <ele>810.835</ele>
        <time>2018-06-15T10:42:15Z</time>
      </trkpt>
      <trkpt lat="42.493445" lon="-5.404547">
        <ele>810.764</ele>
        <time>2018-06-15T10:42:16Z</time>
      </trkpt>
      <trkpt lat="42.493464" lon="-5.404602">
        <ele>810.374</ele>
        <time>2018-06-15T10:42:17Z</time>
      </trkpt>
      <trkpt lat="42.493506" lon="-5.404707">
        <ele>810.094</ele>
        <time>2018-06-15T10:42:19Z</time>
      </trkpt>
      <trkpt lat="42.493551" lon="-5.404807">
        <ele>809.824</ele>
        <time>2018-06-15T10:42:21Z</time>
      </trkpt>
      <trkpt lat="42.493599" lon="-5.404906">
        <ele>809.399</ele>
        <time>2018-06-15T10:42:23Z</time>
      </trkpt>
      <trkpt lat="42.493626" lon="-5.404958">
        <ele>809.007</ele>
        <time>2018-06-15T10:42:24Z</time>
      </trkpt>
      <trkpt lat="42.493652" lon="-5.405016">
        <ele>808.827</ele>
        <time>2018-06-15T10:42:25Z</time>
      </trkpt>
      <trkpt lat="42.493677" lon="-5.405077">
        <ele>808.708</ele>
        <time>2018-06-15T10:42:26Z</time>
      </trkpt>
      <trkpt lat="42.493703" lon="-5.405134">
        <ele>808.241</ele>
        <time>2018-06-15T10:42:27Z</time>
      </trkpt>
      <trkpt lat="42.493728" lon="-5.405197">
        <ele>807.964</ele>
        <time>2018-06-15T10:42:28Z</time>
      </trkpt>
      <trkpt lat="42.493749" lon="-5.405263">
        <ele>807.757</ele>
        <time>2018-06-15T10:42:29Z</time>
      </trkpt>
      <trkpt lat="42.493771" lon="-5.405323">
        <ele>807.621</ele>
        <time>2018-06-15T10:42:30Z</time>
      </trkpt>
      <trkpt lat="42.493794" lon="-5.405382">
        <ele>807.970</ele>
        <time>2018-06-15T10:42:31Z</time>
      </trkpt>
      <trkpt lat="42.493812" lon="-5.405443">
        <ele>808.110</ele>
        <time>2018-06-15T10:42:32Z</time>
      </trkpt>
      <trkpt lat="42.493831" lon="-5.405507">
        <ele>808.240</ele>
        <time>2018-06-15T10:42:33Z</time>
      </trkpt>
      <trkpt lat="42.493855" lon="-5.405566">
        <ele>808.320</ele>
        <time>2018-06-15T10:42:34Z</time>
      </trkpt>
      <trkpt lat="42.493874" lon="-5.405625">
        <ele>808.345</ele>
        <time>2018-06-15T10:42:35Z</time>
      </trkpt>
      <trkpt lat="42.493911" lon="-5.405730">
        <ele>808.747</ele>
        <time>2018-06-15T10:42:37Z</time>
      </trkpt>
      <trkpt lat="42.493947" lon="-5.405834">
        <ele>808.611</ele>
        <time>2018-06-15T10:42:39Z</time>
      </trkpt>
      <trkpt lat="42.493981" lon="-5.405931">
        <ele>808.908</ele>
        <time>2018-06-15T10:42:41Z</time>
      </trkpt>
      <trkpt lat="42.494016" lon="-5.406016">
        <ele>809.136</ele>
        <time>2018-06-15T10:42:43Z</time>
      </trkpt>
      <trkpt lat="42.494047" lon="-5.406105">
        <ele>809.619</ele>
        <time>2018-06-15T10:42:45Z</time>
      </trkpt>
      <trkpt lat="42.494076" lon="-5.406196">
        <ele>809.912</ele>
        <time>2018-06-15T10:42:47Z</time>
      </trkpt>
      <trkpt lat="42.494109" lon="-5.406289">
        <ele>810.556</ele>
        <time>2018-06-15T10:42:49Z</time>
      </trkpt>
      <trkpt lat="42.494145" lon="-5.406393">
        <ele>810.955</ele>
        <time>2018-06-15T10:42:51Z</time>
      </trkpt>
      <trkpt lat="42.494182" lon="-5.406487">
        <ele>811.565</ele>
        <time>2018-06-15T10:42:53Z</time>
      </trkpt>
      <trkpt lat="42.494215" lon="-5.406579">
        <ele>811.995</ele>
        <time>2018-06-15T10:42:55Z</time>
      </trkpt>
      <trkpt lat="42.494249" lon="-5.406669">
        <ele>812.125</ele>
        <time>2018-06-15T10:42:57Z</time>
      </trkpt>
      <trkpt lat="42.494282" lon="-5.406761">
        <ele>812.628</ele>
        <time>2018-06-15T10:42:59Z</time>
      </trkpt>
      <trkpt lat="42.494306" lon="-5.406860">
        <ele>812.989</ele>
        <time>2018-06-15T10:43:01Z</time>
      </trkpt>
      <trkpt lat="42.494326" lon="-5.406958">
        <ele>813.117</ele>
        <time>2018-06-15T10:43:03Z</time>
      </trkpt>
      <trkpt lat="42.494349" lon="-5.407064">
        <ele>813.608</ele>
        <time>2018-06-15T10:43:05Z</time>
      </trkpt>
      <trkpt lat="42.494360" lon="-5.407165">
        <ele>813.944</ele>
        <time>2018-06-15T10:43:07Z</time>
      </trkpt>
      <trkpt lat="42.494366" lon="-5.407258">
        <ele>814.137</ele>
        <time>2018-06-15T10:43:09Z</time>
      </trkpt>
      <trkpt lat="42.494368" lon="-5.407348">
        <ele>814.280</ele>
        <time>2018-06-15T10:43:12Z</time>
      </trkpt>
      <trkpt lat="42.494368" lon="-5.407452">
        <ele>814.364</ele>
        <time>2018-06-15T10:43:13Z</time>
      </trkpt>
      <trkpt lat="42.494367" lon="-5.407555">
        <ele>814.383</ele>
        <time>2018-06-15T10:43:15Z</time>
      </trkpt>
      <trkpt lat="42.494374" lon="-5.407663">
        <ele>814.333</ele>
        <time>2018-06-15T10:43:17Z</time>
      </trkpt>
      <trkpt lat="42.494392" lon="-5.407767">
        <ele>814.343</ele>
        <time>2018-06-15T10:43:19Z</time>
      </trkpt>
      <trkpt lat="42.494428" lon="-5.407866">
        <ele>814.343</ele>
        <time>2018-06-15T10:43:21Z</time>
      </trkpt>
      <trkpt lat="42.494453" lon="-5.407919">
        <ele>813.948</ele>
        <time>2018-06-15T10:43:22Z</time>
      </trkpt>
      <trkpt lat="42.494483" lon="-5.407969">
        <ele>813.761</ele>
        <time>2018-06-15T10:43:23Z</time>
      </trkpt>
      <trkpt lat="42.494515" lon="-5.408014">
        <ele>813.617</ele>
        <time>2018-06-15T10:43:24Z</time>
      </trkpt>
      <trkpt lat="42.494553" lon="-5.408049">
        <ele>813.508</ele>
        <time>2018-06-15T10:43:25Z</time>
      </trkpt>
      <trkpt lat="42.494594" lon="-5.408082">
        <ele>813.426</ele>
        <time>2018-06-15T10:43:26Z</time>
      </trkpt>
      <trkpt lat="42.494635" lon="-5.408113">
        <ele>813.099</ele>
        <time>2018-06-15T10:43:27Z</time>
      </trkpt>
      <trkpt lat="42.494680" lon="-5.408140">
        <ele>812.762</ele>
        <time>2018-06-15T10:43:28Z</time>
      </trkpt>
      <trkpt lat="42.494724" lon="-5.408173">
        <ele>812.516</ele>
        <time>2018-06-15T10:43:29Z</time>
      </trkpt>
      <trkpt lat="42.494766" lon="-5.408198">
        <ele>812.495</ele>
        <time>2018-06-15T10:43:30Z</time>
      </trkpt>
      <trkpt lat="42.494811" lon="-5.408229">
        <ele>812.315</ele>
        <time>2018-06-15T10:43:31Z</time>
      </trkpt>
      <trkpt lat="42.494860" lon="-5.408252">
        <ele>811.935</ele>
        <time>2018-06-15T10:43:32Z</time>
      </trkpt>
      <trkpt lat="42.494908" lon="-5.408274">
        <ele>811.665</ele>
        <time>2018-06-15T10:43:33Z</time>
      </trkpt>
      <trkpt lat="42.494957" lon="-5.408300">
        <ele>811.422</ele>
        <time>2018-06-15T10:43:34Z</time>
      </trkpt>
      <trkpt lat="42.495008" lon="-5.408326">
        <ele>811.362</ele>
        <time>2018-06-15T10:43:35Z</time>
      </trkpt>
      <trkpt lat="42.495054" lon="-5.408364">
        <ele>811.208</ele>
        <time>2018-06-15T10:43:36Z</time>
      </trkpt>
      <trkpt lat="42.495101" lon="-5.408404">
        <ele>810.808</ele>
        <time>2018-06-15T10:43:37Z</time>
      </trkpt>
      <trkpt lat="42.495141" lon="-5.408454">
        <ele>810.594</ele>
        <time>2018-06-15T10:43:38Z</time>
      </trkpt>
      <trkpt lat="42.495184" lon="-5.408505">
        <ele>809.957</ele>
        <time>2018-06-15T10:43:39Z</time>
      </trkpt>
      <trkpt lat="42.495224" lon="-5.408559">
        <ele>809.620</ele>
        <time>2018-06-15T10:43:40Z</time>
      </trkpt>
      <trkpt lat="42.495262" lon="-5.408618">
        <ele>809.474</ele>
        <time>2018-06-15T10:43:41Z</time>
      </trkpt>
      <trkpt lat="42.495298" lon="-5.408674">
        <ele>809.373</ele>
        <time>2018-06-15T10:43:42Z</time>
      </trkpt>
      <trkpt lat="42.495332" lon="-5.408736">
        <ele>809.223</ele>
        <time>2018-06-15T10:43:43Z</time>
      </trkpt>
      <trkpt lat="42.495361" lon="-5.408808">
        <ele>809.263</ele>
        <time>2018-06-15T10:43:44Z</time>
      </trkpt>
      <trkpt lat="42.495389" lon="-5.408873">
        <ele>808.873</ele>
        <time>2018-06-15T10:43:45Z</time>
      </trkpt>
      <trkpt lat="42.495413" lon="-5.408946">
        <ele>808.529</ele>
        <time>2018-06-15T10:43:46Z</time>
      </trkpt>
      <trkpt lat="42.495438" lon="-5.409010">
        <ele>808.300</ele>
        <time>2018-06-15T10:43:47Z</time>
      </trkpt>
      <trkpt lat="42.495457" lon="-5.409078">
        <ele>808.220</ele>
        <time>2018-06-15T10:43:48Z</time>
      </trkpt>
      <trkpt lat="42.495479" lon="-5.409141">
        <ele>808.108</ele>
        <time>2018-06-15T10:43:49Z</time>
      </trkpt>
      <trkpt lat="42.495505" lon="-5.409200">
        <ele>808.174</ele>
        <time>2018-06-15T10:43:50Z</time>
      </trkpt>
      <trkpt lat="42.495528" lon="-5.409266">
        <ele>808.197</ele>
        <time>2018-06-15T10:43:51Z</time>
      </trkpt>
      <trkpt lat="42.495551" lon="-5.409329">
        <ele>807.770</ele>
        <time>2018-06-15T10:43:52Z</time>
      </trkpt>
      <trkpt lat="42.495575" lon="-5.409394">
        <ele>807.544</ele>
        <time>2018-06-15T10:43:53Z</time>
      </trkpt>
      <trkpt lat="42.495598" lon="-5.409463">
        <ele>807.473</ele>
        <time>2018-06-15T10:43:54Z</time>
      </trkpt>
      <trkpt lat="42.495624" lon="-5.409525">
        <ele>807.393</ele>
        <time>2018-06-15T10:43:55Z</time>
      </trkpt>
      <trkpt lat="42.495650" lon="-5.409590">
        <ele>807.223</ele>
        <time>2018-06-15T10:43:56Z</time>
      </trkpt>
      <trkpt lat="42.495672" lon="-5.409655">
        <ele>807.273</ele>
        <time>2018-06-15T10:43:57Z</time>
      </trkpt>
      <trkpt lat="42.495695" lon="-5.409714">
        <ele>807.292</ele>
        <time>2018-06-15T10:43:58Z</time>
      </trkpt>
      <trkpt lat="42.495743" lon="-5.409818">
        <ele>807.273</ele>
        <time>2018-06-15T10:44:00Z</time>
      </trkpt>
      <trkpt lat="42.495766" lon="-5.409872">
        <ele>807.220</ele>
        <time>2018-06-15T10:44:01Z</time>
      </trkpt>
      <trkpt lat="42.495789" lon="-5.409927">
        <ele>807.208</ele>
        <time>2018-06-15T10:44:02Z</time>
      </trkpt>
      <trkpt lat="42.495830" lon="-5.410032">
        <ele>807.281</ele>
        <time>2018-06-15T10:44:04Z</time>
      </trkpt>
      <trkpt lat="42.495875" lon="-5.410139">
        <ele>807.234</ele>
        <time>2018-06-15T10:44:06Z</time>
      </trkpt>
      <trkpt lat="42.495893" lon="-5.410197">
        <ele>807.287</ele>
        <time>2018-06-15T10:44:07Z</time>
      </trkpt>
      <trkpt lat="42.495913" lon="-5.410252">
        <ele>807.291</ele>
        <time>2018-06-15T10:44:08Z</time>
      </trkpt>
      <trkpt lat="42.495934" lon="-5.410310">
        <ele>807.230</ele>
        <time>2018-06-15T10:44:09Z</time>
      </trkpt>
      <trkpt lat="42.495973" lon="-5.410420">
        <ele>807.240</ele>
        <time>2018-06-15T10:44:11Z</time>
      </trkpt>
      <trkpt lat="42.495996" lon="-5.410474">
        <ele>807.260</ele>
        <time>2018-06-15T10:44:12Z</time>
      </trkpt>
      <trkpt lat="42.496020" lon="-5.410529">
        <ele>807.260</ele>
        <time>2018-06-15T10:44:13Z</time>
      </trkpt>
      <trkpt lat="42.496060" lon="-5.410636">
        <ele>807.243</ele>
        <time>2018-06-15T10:44:15Z</time>
      </trkpt>
      <trkpt lat="42.496081" lon="-5.410690">
        <ele>807.264</ele>
        <time>2018-06-15T10:44:16Z</time>
      </trkpt>
      <trkpt lat="42.496122" lon="-5.410796">
        <ele>807.210</ele>
        <time>2018-06-15T10:44:18Z</time>
      </trkpt>
      <trkpt lat="42.496141" lon="-5.410852">
        <ele>806.808</ele>
        <time>2018-06-15T10:44:19Z</time>
      </trkpt>
      <trkpt lat="42.496162" lon="-5.410910">
        <ele>806.676</ele>
        <time>2018-06-15T10:44:20Z</time>
      </trkpt>
      <trkpt lat="42.496182" lon="-5.410968">
        <ele>806.539</ele>
        <time>2018-06-15T10:44:21Z</time>
      </trkpt>
      <trkpt lat="42.496201" lon="-5.411024">
        <ele>806.482</ele>
        <time>2018-06-15T10:44:22Z</time>
      </trkpt>
      <trkpt lat="42.496218" lon="-5.411081">
        <ele>806.326</ele>
        <time>2018-06-15T10:44:23Z</time>
      </trkpt>
      <trkpt lat="42.496238" lon="-5.411135">
        <ele>806.345</ele>
        <time>2018-06-15T10:44:24Z</time>
      </trkpt>
      <trkpt lat="42.496259" lon="-5.411190">
        <ele>806.335</ele>
        <time>2018-06-15T10:44:25Z</time>
      </trkpt>
      <trkpt lat="42.496282" lon="-5.411248">
        <ele>806.355</ele>
        <time>2018-06-15T10:44:26Z</time>
      </trkpt>
      <trkpt lat="42.496303" lon="-5.411307">
        <ele>806.385</ele>
        <time>2018-06-15T10:44:27Z</time>
      </trkpt>
      <trkpt lat="42.496324" lon="-5.411364">
        <ele>806.348</ele>
        <time>2018-06-15T10:44:28Z</time>
      </trkpt>
      <trkpt lat="42.496348" lon="-5.411420">
        <ele>806.361</ele>
        <time>2018-06-15T10:44:29Z</time>
      </trkpt>
      <trkpt lat="42.496368" lon="-5.411477">
        <ele>806.317</ele>
        <time>2018-06-15T10:44:30Z</time>
      </trkpt>
      <trkpt lat="42.496401" lon="-5.411590">
        <ele>806.308</ele>
        <time>2018-06-15T10:44:32Z</time>
      </trkpt>
      <trkpt lat="42.496444" lon="-5.411694">
        <ele>806.326</ele>
        <time>2018-06-15T10:44:34Z</time>
      </trkpt>
      <trkpt lat="42.496482" lon="-5.411801">
        <ele>806.319</ele>
        <time>2018-06-15T10:44:36Z</time>
      </trkpt>
      <trkpt lat="42.496526" lon="-5.411907">
        <ele>806.372</ele>
        <time>2018-06-15T10:44:38Z</time>
      </trkpt>
      <trkpt lat="42.496570" lon="-5.412013">
        <ele>806.356</ele>
        <time>2018-06-15T10:44:40Z</time>
      </trkpt>
      <trkpt lat="42.496621" lon="-5.412116">
        <ele>806.385</ele>
        <time>2018-06-15T10:44:42Z</time>
      </trkpt>
      <trkpt lat="42.496642" lon="-5.412171">
        <ele>806.355</ele>
        <time>2018-06-15T10:44:43Z</time>
      </trkpt>
      <trkpt lat="42.496667" lon="-5.412225">
        <ele>806.335</ele>
        <time>2018-06-15T10:44:44Z</time>
      </trkpt>
      <trkpt lat="42.496689" lon="-5.412281">
        <ele>806.375</ele>
        <time>2018-06-15T10:44:45Z</time>
      </trkpt>
      <trkpt lat="42.496712" lon="-5.412334">
        <ele>806.395</ele>
        <time>2018-06-15T10:44:46Z</time>
      </trkpt>
      <trkpt lat="42.496756" lon="-5.412438">
        <ele>806.349</ele>
        <time>2018-06-15T10:44:48Z</time>
      </trkpt>
      <trkpt lat="42.496780" lon="-5.412491">
        <ele>806.323</ele>
        <time>2018-06-15T10:44:49Z</time>
      </trkpt>
      <trkpt lat="42.496801" lon="-5.412547">
        <ele>806.308</ele>
        <time>2018-06-15T10:44:50Z</time>
      </trkpt>
      <trkpt lat="42.496825" lon="-5.412600">
        <ele>806.391</ele>
        <time>2018-06-15T10:44:51Z</time>
      </trkpt>
      <trkpt lat="42.496876" lon="-5.412697">
        <ele>806.374</ele>
        <time>2018-06-15T10:44:53Z</time>
      </trkpt>
      <trkpt lat="42.496896" lon="-5.412752">
        <ele>806.347</ele>
        <time>2018-06-15T10:44:54Z</time>
      </trkpt>
      <trkpt lat="42.496940" lon="-5.412859">
        <ele>806.321</ele>
        <time>2018-06-15T10:44:56Z</time>
      </trkpt>
      <trkpt lat="42.496985" lon="-5.412958">
        <ele>806.380</ele>
        <time>2018-06-15T10:44:58Z</time>
      </trkpt>
      <trkpt lat="42.497023" lon="-5.413068">
        <ele>805.960</ele>
        <time>2018-06-15T10:45:00Z</time>
      </trkpt>
      <trkpt lat="42.497070" lon="-5.413164">
        <ele>805.730</ele>
        <time>2018-06-15T10:45:02Z</time>
      </trkpt>
      <trkpt lat="42.497117" lon="-5.413263">
        <ele>806.090</ele>
        <time>2018-06-15T10:45:04Z</time>
      </trkpt>
      <trkpt lat="42.497159" lon="-5.413358">
        <ele>806.226</ele>
        <time>2018-06-15T10:45:06Z</time>
      </trkpt>
      <trkpt lat="42.497201" lon="-5.413449">
        <ele>806.347</ele>
        <time>2018-06-15T10:45:08Z</time>
      </trkpt>
      <trkpt lat="42.497237" lon="-5.413514">
        <ele>806.411</ele>
        <time>2018-06-15T10:45:10Z</time>
      </trkpt>
      <trkpt lat="42.497283" lon="-5.413619">
        <ele>806.808</ele>
        <time>2018-06-15T10:45:12Z</time>
      </trkpt>
      <trkpt lat="42.497311" lon="-5.413712">
        <ele>807.144</ele>
        <time>2018-06-15T10:45:14Z</time>
      </trkpt>
      <trkpt lat="42.497351" lon="-5.413806">
        <ele>807.397</ele>
        <time>2018-06-15T10:45:16Z</time>
      </trkpt>
      <trkpt lat="42.497390" lon="-5.413899">
        <ele>807.050</ele>
        <time>2018-06-15T10:45:18Z</time>
      </trkpt>
      <trkpt lat="42.497421" lon="-5.414005">
        <ele>806.844</ele>
        <time>2018-06-15T10:45:20Z</time>
      </trkpt>
      <trkpt lat="42.497446" lon="-5.414110">
        <ele>806.353</ele>
        <time>2018-06-15T10:45:22Z</time>
      </trkpt>
      <trkpt lat="42.497481" lon="-5.414200">
        <ele>806.013</ele>
        <time>2018-06-15T10:45:24Z</time>
      </trkpt>
      <trkpt lat="42.497505" lon="-5.414266">
        <ele>805.833</ele>
        <time>2018-06-15T10:45:26Z</time>
      </trkpt>
      <trkpt lat="42.497526" lon="-5.414325">
        <ele>805.723</ele>
        <time>2018-06-15T10:45:28Z</time>
      </trkpt>
      <trkpt lat="42.497543" lon="-5.414398">
        <ele>805.214</ele>
        <time>2018-06-15T10:45:30Z</time>
      </trkpt>
      <trkpt lat="42.497560" lon="-5.414480">
        <ele>804.954</ele>
        <time>2018-06-15T10:45:32Z</time>
      </trkpt>
      <trkpt lat="42.497580" lon="-5.414552">
        <ele>804.309</ele>
        <time>2018-06-15T10:45:34Z</time>
      </trkpt>
      <trkpt lat="42.497599" lon="-5.414623">
        <ele>804.008</ele>
        <time>2018-06-15T10:45:36Z</time>
      </trkpt>
      <trkpt lat="42.497620" lon="-5.414700">
        <ele>803.463</ele>
        <time>2018-06-15T10:45:38Z</time>
      </trkpt>
      <trkpt lat="42.497640" lon="-5.414776">
        <ele>803.436</ele>
        <time>2018-06-15T10:45:40Z</time>
      </trkpt>
      <trkpt lat="42.497655" lon="-5.414845">
        <ele>803.429</ele>
        <time>2018-06-15T10:45:42Z</time>
      </trkpt>
      <trkpt lat="42.497673" lon="-5.414916">
        <ele>803.433</ele>
        <time>2018-06-15T10:45:45Z</time>
      </trkpt>
      <trkpt lat="42.497694" lon="-5.414987">
        <ele>803.462</ele>
        <time>2018-06-15T10:45:49Z</time>
      </trkpt>
      <trkpt lat="42.497723" lon="-5.415050">
        <ele>803.862</ele>
        <time>2018-06-15T10:45:53Z</time>
      </trkpt>
      <trkpt lat="42.497734" lon="-5.415115">
        <ele>804.022</ele>
        <time>2018-06-15T10:45:56Z</time>
      </trkpt>
      <trkpt lat="42.497751" lon="-5.415182">
        <ele>804.162</ele>
        <time>2018-06-15T10:45:59Z</time>
      </trkpt>
      <trkpt lat="42.497789" lon="-5.415235">
        <ele>804.247</ele>
        <time>2018-06-15T10:46:02Z</time>
      </trkpt>
      <trkpt lat="42.497838" lon="-5.415283">
        <ele>804.329</ele>
        <time>2018-06-15T10:46:05Z</time>
      </trkpt>
      <trkpt lat="42.497878" lon="-5.415322">
        <ele>804.321</ele>
        <time>2018-06-15T10:46:07Z</time>
      </trkpt>
      <trkpt lat="42.497920" lon="-5.415373">
        <ele>803.908</ele>
        <time>2018-06-15T10:46:09Z</time>
      </trkpt>
      <trkpt lat="42.497958" lon="-5.415421">
        <ele>803.776</ele>
        <time>2018-06-15T10:46:11Z</time>
      </trkpt>
      <trkpt lat="42.497990" lon="-5.415470">
        <ele>803.629</ele>
        <time>2018-06-15T10:46:13Z</time>
      </trkpt>
      <trkpt lat="42.498018" lon="-5.415520">
        <ele>803.572</ele>
        <time>2018-06-15T10:46:15Z</time>
      </trkpt>
      <trkpt lat="42.498058" lon="-5.415581">
        <ele>803.146</ele>
        <time>2018-06-15T10:46:18Z</time>
      </trkpt>
      <trkpt lat="42.498089" lon="-5.415654">
        <ele>802.815</ele>
        <time>2018-06-15T10:46:21Z</time>
      </trkpt>
      <trkpt lat="42.498098" lon="-5.415725">
        <ele>803.045</ele>
        <time>2018-06-15T10:46:25Z</time>
      </trkpt>
      <trkpt lat="42.498129" lon="-5.415771">
        <ele>804.345</ele>
        <time>2018-06-15T10:46:33Z</time>
      </trkpt>
      <trkpt lat="42.498177" lon="-5.415757">
        <ele>804.785</ele>
        <time>2018-06-15T10:46:38Z</time>
      </trkpt>
      <trkpt lat="42.498225" lon="-5.415742">
        <ele>805.372</ele>
        <time>2018-06-15T10:46:41Z</time>
      </trkpt>
      <trkpt lat="42.498282" lon="-5.415776">
        <ele>806.113</ele>
        <time>2018-06-15T10:46:45Z</time>
      </trkpt>
      <trkpt lat="42.498329" lon="-5.415832">
        <ele>806.214</ele>
        <time>2018-06-15T10:46:48Z</time>
      </trkpt>
      <trkpt lat="42.498367" lon="-5.415884">
        <ele>806.208</ele>
        <time>2018-06-15T10:46:50Z</time>
      </trkpt>
      <trkpt lat="42.498404" lon="-5.415932">
        <ele>805.889</ele>
        <time>2018-06-15T10:46:52Z</time>
      </trkpt>
      <trkpt lat="42.498439" lon="-5.415984">
        <ele>805.672</ele>
        <time>2018-06-15T10:46:54Z</time>
      </trkpt>
      <trkpt lat="42.498475" lon="-5.416041">
        <ele>805.145</ele>
        <time>2018-06-15T10:46:56Z</time>
      </trkpt>
      <trkpt lat="42.498510" lon="-5.416102">
        <ele>804.859</ele>
        <time>2018-06-15T10:46:58Z</time>
      </trkpt>
      <trkpt lat="42.498540" lon="-5.416161">
        <ele>804.288</ele>
        <time>2018-06-15T10:47:00Z</time>
      </trkpt>
      <trkpt lat="42.498569" lon="-5.416226">
        <ele>803.828</ele>
        <time>2018-06-15T10:47:02Z</time>
      </trkpt>
      <trkpt lat="42.498602" lon="-5.416297">
        <ele>803.638</ele>
        <time>2018-06-15T10:47:04Z</time>
      </trkpt>
      <trkpt lat="42.498634" lon="-5.416367">
        <ele>803.558</ele>
        <time>2018-06-15T10:47:06Z</time>
      </trkpt>
      <trkpt lat="42.498664" lon="-5.416433">
        <ele>803.023</ele>
        <time>2018-06-15T10:47:08Z</time>
      </trkpt>
      <trkpt lat="42.498690" lon="-5.416500">
        <ele>802.783</ele>
        <time>2018-06-15T10:47:10Z</time>
      </trkpt>
      <trkpt lat="42.498723" lon="-5.416562">
        <ele>803.311</ele>
        <time>2018-06-15T10:47:12Z</time>
      </trkpt>
      <trkpt lat="42.498752" lon="-5.416635">
        <ele>803.708</ele>
        <time>2018-06-15T10:47:14Z</time>
      </trkpt>
      <trkpt lat="42.498775" lon="-5.416713">
        <ele>803.944</ele>
        <time>2018-06-15T10:47:16Z</time>
      </trkpt>
      <trkpt lat="42.498793" lon="-5.416792">
        <ele>804.077</ele>
        <time>2018-06-15T10:47:18Z</time>
      </trkpt>
      <trkpt lat="42.498813" lon="-5.416873">
        <ele>804.130</ele>
        <time>2018-06-15T10:47:20Z</time>
      </trkpt>
      <trkpt lat="42.498836" lon="-5.416944">
        <ele>804.114</ele>
        <time>2018-06-15T10:47:22Z</time>
      </trkpt>
      <trkpt lat="42.498859" lon="-5.417003">
        <ele>803.743</ele>
        <time>2018-06-15T10:47:24Z</time>
      </trkpt>
      <trkpt lat="42.498875" lon="-5.417071">
        <ele>803.593</ele>
        <time>2018-06-15T10:47:26Z</time>
      </trkpt>
      <trkpt lat="42.498892" lon="-5.417138">
        <ele>803.413</ele>
        <time>2018-06-15T10:47:28Z</time>
      </trkpt>
      <trkpt lat="42.498915" lon="-5.417224">
        <ele>802.973</ele>
        <time>2018-06-15T10:47:31Z</time>
      </trkpt>
      <trkpt lat="42.498940" lon="-5.417289">
        <ele>802.615</ele>
        <time>2018-06-15T10:47:34Z</time>
      </trkpt>
      <trkpt lat="42.498952" lon="-5.417353">
        <ele>802.865</ele>
        <time>2018-06-15T10:47:38Z</time>
      </trkpt>
      <trkpt lat="42.498944" lon="-5.417419">
        <ele>802.911</ele>
        <time>2018-06-15T10:47:43Z</time>
      </trkpt>
      <trkpt lat="42.498960" lon="-5.417482">
        <ele>803.808</ele>
        <time>2018-06-15T10:47:46Z</time>
      </trkpt>
      <trkpt lat="42.498975" lon="-5.417551">
        <ele>804.323</ele>
        <time>2018-06-15T10:47:50Z</time>
      </trkpt>
      <trkpt lat="42.499019" lon="-5.417583">
        <ele>806.656</ele>
        <time>2018-06-15T10:48:07Z</time>
      </trkpt>
      <trkpt lat="42.500292" lon="-5.419157">
        <ele>807.129</ele>
        <time>2018-06-15T11:15:20Z</time>
      </trkpt>
      <trkpt lat="42.500327" lon="-5.419202">
        <ele>806.753</ele>
        <time>2018-06-15T11:15:32Z</time>
      </trkpt>
      <trkpt lat="42.500370" lon="-5.419234">
        <ele>806.552</ele>
        <time>2018-06-15T11:15:35Z</time>
      </trkpt>
      <trkpt lat="42.500413" lon="-5.419257">
        <ele>806.492</ele>
        <time>2018-06-15T11:15:37Z</time>
      </trkpt>
      <trkpt lat="42.500463" lon="-5.419289">
        <ele>806.762</ele>
        <time>2018-06-15T11:15:39Z</time>
      </trkpt>
      <trkpt lat="42.500512" lon="-5.419326">
        <ele>806.952</ele>
        <time>2018-06-15T11:15:41Z</time>
      </trkpt>
      <trkpt lat="42.500573" lon="-5.419373">
        <ele>807.414</ele>
        <time>2018-06-15T11:15:43Z</time>
      </trkpt>
      <trkpt lat="42.500635" lon="-5.419417">
        <ele>808.154</ele>
        <time>2018-06-15T11:15:45Z</time>
      </trkpt>
      <trkpt lat="42.500688" lon="-5.419456">
        <ele>808.909</ele>
        <time>2018-06-15T11:15:47Z</time>
      </trkpt>
      <trkpt lat="42.500745" lon="-5.419489">
        <ele>809.408</ele>
        <time>2018-06-15T11:15:49Z</time>
      </trkpt>
      <trkpt lat="42.500800" lon="-5.419519">
        <ele>810.563</ele>
        <time>2018-06-15T11:15:51Z</time>
      </trkpt>
      <trkpt lat="42.500858" lon="-5.419552">
        <ele>811.226</ele>
        <time>2018-06-15T11:15:53Z</time>
      </trkpt>
      <trkpt lat="42.500914" lon="-5.419583">
        <ele>811.279</ele>
        <time>2018-06-15T11:15:55Z</time>
      </trkpt>
      <trkpt lat="42.500969" lon="-5.419615">
        <ele>811.253</ele>
        <time>2018-06-15T11:15:57Z</time>
      </trkpt>
      <trkpt lat="42.501028" lon="-5.419653">
        <ele>811.242</ele>
        <time>2018-06-15T11:15:59Z</time>
      </trkpt>
      <trkpt lat="42.501089" lon="-5.419692">
        <ele>810.812</ele>
        <time>2018-06-15T11:16:01Z</time>
      </trkpt>
      <trkpt lat="42.501152" lon="-5.419731">
        <ele>810.622</ele>
        <time>2018-06-15T11:16:03Z</time>
      </trkpt>
      <trkpt lat="42.501231" lon="-5.419782">
        <ele>810.562</ele>
        <time>2018-06-15T11:16:04Z</time>
      </trkpt>
      <trkpt lat="42.501301" lon="-5.419822">
        <ele>810.441</ele>
        <time>2018-06-15T11:16:06Z</time>
      </trkpt>
      <trkpt lat="42.501376" lon="-5.419873">
        <ele>809.981</ele>
        <time>2018-06-15T11:16:08Z</time>
      </trkpt>
      <trkpt lat="42.501451" lon="-5.419920">
        <ele>809.609</ele>
        <time>2018-06-15T11:16:10Z</time>
      </trkpt>
      <trkpt lat="42.501533" lon="-5.419974">
        <ele>809.008</ele>
        <time>2018-06-15T11:16:12Z</time>
      </trkpt>
      <trkpt lat="42.501574" lon="-5.420003">
        <ele>808.736</ele>
        <time>2018-06-15T11:16:13Z</time>
      </trkpt>
      <trkpt lat="42.501617" lon="-5.420033">
        <ele>808.589</ele>
        <time>2018-06-15T11:16:14Z</time>
      </trkpt>
      <trkpt lat="42.501660" lon="-5.420063">
        <ele>808.412</ele>
        <time>2018-06-15T11:16:15Z</time>
      </trkpt>
      <trkpt lat="42.501704" lon="-5.420096">
        <ele>808.386</ele>
        <time>2018-06-15T11:16:16Z</time>
      </trkpt>
      <trkpt lat="42.501752" lon="-5.420131">
        <ele>808.385</ele>
        <time>2018-06-15T11:16:17Z</time>
      </trkpt>
      <trkpt lat="42.501795" lon="-5.420159">
        <ele>807.955</ele>
        <time>2018-06-15T11:16:18Z</time>
      </trkpt>
      <trkpt lat="42.501844" lon="-5.420194">
        <ele>807.665</ele>
        <time>2018-06-15T11:16:19Z</time>
      </trkpt>
      <trkpt lat="42.501892" lon="-5.420225">
        <ele>807.415</ele>
        <time>2018-06-15T11:16:20Z</time>
      </trkpt>
      <trkpt lat="42.501941" lon="-5.420254">
        <ele>806.974</ele>
        <time>2018-06-15T11:16:21Z</time>
      </trkpt>
      <trkpt lat="42.501994" lon="-5.420283">
        <ele>806.656</ele>
        <time>2018-06-15T11:16:22Z</time>
      </trkpt>
      <trkpt lat="42.502044" lon="-5.420317">
        <ele>806.421</ele>
        <time>2018-06-15T11:16:23Z</time>
      </trkpt>
      <trkpt lat="42.502095" lon="-5.420348">
        <ele>806.308</ele>
        <time>2018-06-15T11:16:24Z</time>
      </trkpt>
      <trkpt lat="42.502146" lon="-5.420381">
        <ele>805.889</ele>
        <time>2018-06-15T11:16:25Z</time>
      </trkpt>
      <trkpt lat="42.502196" lon="-5.420420">
        <ele>805.972</ele>
        <time>2018-06-15T11:16:26Z</time>
      </trkpt>
      <trkpt lat="42.502248" lon="-5.420457">
        <ele>806.095</ele>
        <time>2018-06-15T11:16:27Z</time>
      </trkpt>
      <trkpt lat="42.502297" lon="-5.420494">
        <ele>805.629</ele>
        <time>2018-06-15T11:16:28Z</time>
      </trkpt>
      <trkpt lat="42.502345" lon="-5.420530">
        <ele>805.468</ele>
        <time>2018-06-15T11:16:29Z</time>
      </trkpt>
      <trkpt lat="42.502396" lon="-5.420565">
        <ele>805.318</ele>
        <time>2018-06-15T11:16:30Z</time>
      </trkpt>
      <trkpt lat="42.502444" lon="-5.420599">
        <ele>805.248</ele>
        <time>2018-06-15T11:16:31Z</time>
      </trkpt>
      <trkpt lat="42.502488" lon="-5.420639">
        <ele>805.248</ele>
        <time>2018-06-15T11:16:32Z</time>
      </trkpt>
      <trkpt lat="42.502534" lon="-5.420684">
        <ele>805.229</ele>
        <time>2018-06-15T11:16:33Z</time>
      </trkpt>
      <trkpt lat="42.502579" lon="-5.420728">
        <ele>805.200</ele>
        <time>2018-06-15T11:16:34Z</time>
      </trkpt>
      <trkpt lat="42.502618" lon="-5.420770">
        <ele>804.820</ele>
        <time>2018-06-15T11:16:35Z</time>
      </trkpt>
      <trkpt lat="42.502661" lon="-5.420812">
        <ele>804.608</ele>
        <time>2018-06-15T11:16:36Z</time>
      </trkpt>
      <trkpt lat="42.502698" lon="-5.420863">
        <ele>804.534</ele>
        <time>2018-06-15T11:16:37Z</time>
      </trkpt>
      <trkpt lat="42.502729" lon="-5.420921">
        <ele>804.017</ele>
        <time>2018-06-15T11:16:38Z</time>
      </trkpt>
      <trkpt lat="42.502762" lon="-5.420981">
        <ele>803.760</ele>
        <time>2018-06-15T11:16:39Z</time>
      </trkpt>
      <trkpt lat="42.502801" lon="-5.421045">
        <ele>803.144</ele>
        <time>2018-06-15T11:16:40Z</time>
      </trkpt>
      <trkpt lat="42.502847" lon="-5.421099">
        <ele>802.813</ele>
        <time>2018-06-15T11:16:41Z</time>
      </trkpt>
      <trkpt lat="42.502899" lon="-5.421150">
        <ele>802.613</ele>
        <time>2018-06-15T11:16:42Z</time>
      </trkpt>
      <trkpt lat="42.502952" lon="-5.421195">
        <ele>802.523</ele>
        <time>2018-06-15T11:16:43Z</time>
      </trkpt>
      <trkpt lat="42.502999" lon="-5.421237">
        <ele>802.083</ele>
        <time>2018-06-15T11:16:44Z</time>
      </trkpt>
      <trkpt lat="42.503047" lon="-5.421270">
        <ele>801.711</ele>
        <time>2018-06-15T11:16:45Z</time>
      </trkpt>
      <trkpt lat="42.503093" lon="-5.421306">
        <ele>801.521</ele>
        <time>2018-06-15T11:16:46Z</time>
      </trkpt>
      <trkpt lat="42.503142" lon="-5.421339">
        <ele>801.403</ele>
        <time>2018-06-15T11:16:47Z</time>
      </trkpt>
      <trkpt lat="42.503187" lon="-5.421373">
        <ele>801.308</ele>
        <time>2018-06-15T11:16:48Z</time>
      </trkpt>
      <trkpt lat="42.503226" lon="-5.421410">
        <ele>801.383</ele>
        <time>2018-06-15T11:16:49Z</time>
      </trkpt>
      <trkpt lat="42.503266" lon="-5.421441">
        <ele>800.986</ele>
        <time>2018-06-15T11:16:50Z</time>
      </trkpt>
      <trkpt lat="42.503310" lon="-5.421470">
        <ele>800.679</ele>
        <time>2018-06-15T11:16:51Z</time>
      </trkpt>
      <trkpt lat="42.503352" lon="-5.421507">
        <ele>800.883</ele>
        <time>2018-06-15T11:16:52Z</time>
      </trkpt>
      <trkpt lat="42.503394" lon="-5.421539">
        <ele>800.992</ele>
        <time>2018-06-15T11:16:53Z</time>
      </trkpt>
      <trkpt lat="42.503439" lon="-5.421570">
        <ele>801.082</ele>
        <time>2018-06-15T11:16:54Z</time>
      </trkpt>
      <trkpt lat="42.503480" lon="-5.421602">
        <ele>801.162</ele>
        <time>2018-06-15T11:16:55Z</time>
      </trkpt>
      <trkpt lat="42.503523" lon="-5.421636">
        <ele>801.122</ele>
        <time>2018-06-15T11:16:56Z</time>
      </trkpt>
      <trkpt lat="42.503564" lon="-5.421664">
        <ele>801.115</ele>
        <time>2018-06-15T11:16:57Z</time>
      </trkpt>
      <trkpt lat="42.503605" lon="-5.421693">
        <ele>801.165</ele>
        <time>2018-06-15T11:16:58Z</time>
      </trkpt>
      <trkpt lat="42.503646" lon="-5.421725">
        <ele>801.111</ele>
        <time>2018-06-15T11:16:59Z</time>
      </trkpt>
      <trkpt lat="42.503688" lon="-5.421756">
        <ele>801.108</ele>
        <time>2018-06-15T11:17:00Z</time>
      </trkpt>
      <trkpt lat="42.503731" lon="-5.421782">
        <ele>801.193</ele>
        <time>2018-06-15T11:17:01Z</time>
      </trkpt>
      <trkpt lat="42.503774" lon="-5.421814">
        <ele>801.156</ele>
        <time>2018-06-15T11:17:02Z</time>
      </trkpt>
      <trkpt lat="42.503817" lon="-5.421841">
        <ele>801.129</ele>
        <time>2018-06-15T11:17:03Z</time>
      </trkpt>
      <trkpt lat="42.503895" lon="-5.421899">
        <ele>801.113</ele>
        <time>2018-06-15T11:17:05Z</time>
      </trkpt>
      <trkpt lat="42.503936" lon="-5.421925">
        <ele>801.572</ele>
        <time>2018-06-15T11:17:06Z</time>
      </trkpt>
      <trkpt lat="42.504013" lon="-5.421983">
        <ele>801.752</ele>
        <time>2018-06-15T11:17:08Z</time>
      </trkpt>
      <trkpt lat="42.504094" lon="-5.422039">
        <ele>801.852</ele>
        <time>2018-06-15T11:17:10Z</time>
      </trkpt>
      <trkpt lat="42.504135" lon="-5.422068">
        <ele>801.932</ele>
        <time>2018-06-15T11:17:11Z</time>
      </trkpt>
      <trkpt lat="42.504212" lon="-5.422128">
        <ele>802.043</ele>
        <time>2018-06-15T11:17:13Z</time>
      </trkpt>
      <trkpt lat="42.504251" lon="-5.422158">
        <ele>802.064</ele>
        <time>2018-06-15T11:17:14Z</time>
      </trkpt>
      <trkpt lat="42.504327" lon="-5.422220">
        <ele>802.410</ele>
        <time>2018-06-15T11:17:16Z</time>
      </trkpt>
      <trkpt lat="42.504368" lon="-5.422249">
        <ele>802.708</ele>
        <time>2018-06-15T11:17:17Z</time>
      </trkpt>
      <trkpt lat="42.504440" lon="-5.422299">
        <ele>802.546</ele>
        <time>2018-06-15T11:17:19Z</time>
      </trkpt>
      <trkpt lat="42.504507" lon="-5.422358">
        <ele>802.499</ele>
        <time>2018-06-15T11:17:21Z</time>
      </trkpt>
      <trkpt lat="42.504575" lon="-5.422409">
        <ele>802.382</ele>
        <time>2018-06-15T11:17:23Z</time>
      </trkpt>
      <trkpt lat="42.504624" lon="-5.422449">
        <ele>801.896</ele>
        <time>2018-06-15T11:17:25Z</time>
      </trkpt>
      <trkpt lat="42.504673" lon="-5.422484">
        <ele>801.515</ele>
        <time>2018-06-15T11:17:26Z</time>
      </trkpt>
      <trkpt lat="42.504716" lon="-5.422504">
        <ele>801.345</ele>
        <time>2018-06-15T11:17:27Z</time>
      </trkpt>
      <trkpt lat="42.504791" lon="-5.422556">
        <ele>800.835</ele>
        <time>2018-06-15T11:17:29Z</time>
      </trkpt>
      <trkpt lat="42.504866" lon="-5.422616">
        <ele>800.595</ele>
        <time>2018-06-15T11:17:31Z</time>
      </trkpt>
      <trkpt lat="42.504907" lon="-5.422643">
        <ele>800.764</ele>
        <time>2018-06-15T11:17:32Z</time>
      </trkpt>
      <trkpt lat="42.504946" lon="-5.422674">
        <ele>800.806</ele>
        <time>2018-06-15T11:17:33Z</time>
      </trkpt>
      <trkpt lat="42.504987" lon="-5.422707">
        <ele>800.516</ele>
        <time>2018-06-15T11:17:34Z</time>
      </trkpt>
      <trkpt lat="42.505027" lon="-5.422737">
        <ele>800.308</ele>
        <time>2018-06-15T11:17:35Z</time>
      </trkpt>
      <trkpt lat="42.505069" lon="-5.422770">
        <ele>800.288</ele>
        <time>2018-06-15T11:17:36Z</time>
      </trkpt>
      <trkpt lat="42.505151" lon="-5.422820">
        <ele>800.191</ele>
        <time>2018-06-15T11:17:38Z</time>
      </trkpt>
      <trkpt lat="42.505188" lon="-5.422855">
        <ele>800.164</ele>
        <time>2018-06-15T11:17:39Z</time>
      </trkpt>
      <trkpt lat="42.505228" lon="-5.422885">
        <ele>800.578</ele>
        <time>2018-06-15T11:17:40Z</time>
      </trkpt>
      <trkpt lat="42.505305" lon="-5.422946">
        <ele>800.797</ele>
        <time>2018-06-15T11:17:42Z</time>
      </trkpt>
      <trkpt lat="42.505391" lon="-5.422998">
        <ele>801.297</ele>
        <time>2018-06-15T11:17:44Z</time>
      </trkpt>
      <trkpt lat="42.505468" lon="-5.423060">
        <ele>801.987</ele>
        <time>2018-06-15T11:17:46Z</time>
      </trkpt>
      <trkpt lat="42.505543" lon="-5.423119">
        <ele>801.957</ele>
        <time>2018-06-15T11:17:48Z</time>
      </trkpt>
      <trkpt lat="42.505585" lon="-5.423148">
        <ele>801.969</ele>
        <time>2018-06-15T11:17:49Z</time>
      </trkpt>
      <trkpt lat="42.505625" lon="-5.423175">
        <ele>801.904</ele>
        <time>2018-06-15T11:17:50Z</time>
      </trkpt>
      <trkpt lat="42.505705" lon="-5.423226">
        <ele>801.924</ele>
        <time>2018-06-15T11:17:52Z</time>
      </trkpt>
      <trkpt lat="42.505747" lon="-5.423258">
        <ele>801.908</ele>
        <time>2018-06-15T11:17:53Z</time>
      </trkpt>
      <trkpt lat="42.505828" lon="-5.423320">
        <ele>801.968</ele>
        <time>2018-06-15T11:17:55Z</time>
      </trkpt>
      <trkpt lat="42.505867" lon="-5.423354">
        <ele>801.511</ele>
        <time>2018-06-15T11:17:56Z</time>
      </trkpt>
      <trkpt lat="42.505911" lon="-5.423390">
        <ele>801.724</ele>
        <time>2018-06-15T11:17:57Z</time>
      </trkpt>
      <trkpt lat="42.505956" lon="-5.423421">
        <ele>801.878</ele>
        <time>2018-06-15T11:17:58Z</time>
      </trkpt>
      <trkpt lat="42.506003" lon="-5.423442">
        <ele>801.997</ele>
        <time>2018-06-15T11:17:59Z</time>
      </trkpt>
      <trkpt lat="42.506043" lon="-5.423475">
        <ele>801.927</ele>
        <time>2018-06-15T11:18:00Z</time>
      </trkpt>
      <trkpt lat="42.506084" lon="-5.423504">
        <ele>801.547</ele>
        <time>2018-06-15T11:18:01Z</time>
      </trkpt>
      <trkpt lat="42.506130" lon="-5.423531">
        <ele>801.797</ele>
        <time>2018-06-15T11:18:02Z</time>
      </trkpt>
      <trkpt lat="42.506170" lon="-5.423563">
        <ele>801.882</ele>
        <time>2018-06-15T11:18:03Z</time>
      </trkpt>
      <trkpt lat="42.506250" lon="-5.423618">
        <ele>802.343</ele>
        <time>2018-06-15T11:18:05Z</time>
      </trkpt>
      <trkpt lat="42.506292" lon="-5.423644">
        <ele>802.217</ele>
        <time>2018-06-15T11:18:06Z</time>
      </trkpt>
      <trkpt lat="42.506333" lon="-5.423675">
        <ele>802.108</ele>
        <time>2018-06-15T11:18:07Z</time>
      </trkpt>
      <trkpt lat="42.506370" lon="-5.423711">
        <ele>802.140</ele>
        <time>2018-06-15T11:18:08Z</time>
      </trkpt>
      <trkpt lat="42.506413" lon="-5.423736">
        <ele>802.123</ele>
        <time>2018-06-15T11:18:09Z</time>
      </trkpt>
      <trkpt lat="42.506454" lon="-5.423770">
        <ele>802.146</ele>
        <time>2018-06-15T11:18:10Z</time>
      </trkpt>
      <trkpt lat="42.506495" lon="-5.423807">
        <ele>802.590</ele>
        <time>2018-06-15T11:18:11Z</time>
      </trkpt>
      <trkpt lat="42.506581" lon="-5.423857">
        <ele>801.919</ele>
        <time>2018-06-15T11:18:13Z</time>
      </trkpt>
      <trkpt lat="42.506625" lon="-5.423888">
        <ele>802.029</ele>
        <time>2018-06-15T11:18:14Z</time>
      </trkpt>
      <trkpt lat="42.506663" lon="-5.423923">
        <ele>802.079</ele>
        <time>2018-06-15T11:18:15Z</time>
      </trkpt>
      <trkpt lat="42.506704" lon="-5.423952">
        <ele>802.449</ele>
        <time>2018-06-15T11:18:16Z</time>
      </trkpt>
      <trkpt lat="42.506781" lon="-5.424004">
        <ele>802.375</ele>
        <time>2018-06-15T11:18:18Z</time>
      </trkpt>
      <trkpt lat="42.506830" lon="-5.424035">
        <ele>802.228</ele>
        <time>2018-06-15T11:18:19Z</time>
      </trkpt>
      <trkpt lat="42.506871" lon="-5.424071">
        <ele>802.120</ele>
        <time>2018-06-15T11:18:20Z</time>
      </trkpt>
      <trkpt lat="42.506914" lon="-5.424102">
        <ele>801.708</ele>
        <time>2018-06-15T11:18:21Z</time>
      </trkpt>
      <trkpt lat="42.506986" lon="-5.424170">
        <ele>801.459</ele>
        <time>2018-06-15T11:18:23Z</time>
      </trkpt>
      <trkpt lat="42.507028" lon="-5.424200">
        <ele>801.232</ele>
        <time>2018-06-15T11:18:24Z</time>
      </trkpt>
      <trkpt lat="42.507070" lon="-5.424231">
        <ele>801.155</ele>
        <time>2018-06-15T11:18:25Z</time>
      </trkpt>
      <trkpt lat="42.507115" lon="-5.424265">
        <ele>801.439</ele>
        <time>2018-06-15T11:18:26Z</time>
      </trkpt>
      <trkpt lat="42.507157" lon="-5.424297">
        <ele>801.678</ele>
        <time>2018-06-15T11:18:27Z</time>
      </trkpt>
      <trkpt lat="42.507207" lon="-5.424322">
        <ele>801.378</ele>
        <time>2018-06-15T11:18:28Z</time>
      </trkpt>
      <trkpt lat="42.507255" lon="-5.424349">
        <ele>801.198</ele>
        <time>2018-06-15T11:18:29Z</time>
      </trkpt>
      <trkpt lat="42.507304" lon="-5.424384">
        <ele>801.028</ele>
        <time>2018-06-15T11:18:30Z</time>
      </trkpt>
      <trkpt lat="42.507352" lon="-5.424412">
        <ele>800.954</ele>
        <time>2018-06-15T11:18:31Z</time>
      </trkpt>
      <trkpt lat="42.507398" lon="-5.424443">
        <ele>800.956</ele>
        <time>2018-06-15T11:18:32Z</time>
      </trkpt>
      <trkpt lat="42.507439" lon="-5.424477">
        <ele>800.911</ele>
        <time>2018-06-15T11:18:33Z</time>
      </trkpt>
      <trkpt lat="42.507486" lon="-5.424511">
        <ele>800.908</ele>
        <time>2018-06-15T11:18:34Z</time>
      </trkpt>
      <trkpt lat="42.507529" lon="-5.424542">
        <ele>800.967</ele>
        <time>2018-06-15T11:18:35Z</time>
      </trkpt>
      <trkpt lat="42.507571" lon="-5.424576">
        <ele>801.360</ele>
        <time>2018-06-15T11:18:36Z</time>
      </trkpt>
      <trkpt lat="42.507612" lon="-5.424609">
        <ele>801.573</ele>
        <time>2018-06-15T11:18:37Z</time>
      </trkpt>
      <trkpt lat="42.507689" lon="-5.424671">
        <ele>801.667</ele>
        <time>2018-06-15T11:18:39Z</time>
      </trkpt>
      <trkpt lat="42.507733" lon="-5.424701">
        <ele>801.746</ele>
        <time>2018-06-15T11:18:40Z</time>
      </trkpt>
      <trkpt lat="42.507772" lon="-5.424732">
        <ele>801.826</ele>
        <time>2018-06-15T11:18:41Z</time>
      </trkpt>
      <trkpt lat="42.507852" lon="-5.424790">
        <ele>801.866</ele>
        <time>2018-06-15T11:18:43Z</time>
      </trkpt>
      <trkpt lat="42.507893" lon="-5.424819">
        <ele>801.876</ele>
        <time>2018-06-15T11:18:44Z</time>
      </trkpt>
      <trkpt lat="42.507937" lon="-5.424851">
        <ele>801.873</ele>
        <time>2018-06-15T11:18:45Z</time>
      </trkpt>
      <trkpt lat="42.507978" lon="-5.424883">
        <ele>801.885</ele>
        <time>2018-06-15T11:18:46Z</time>
      </trkpt>
      <trkpt lat="42.508019" lon="-5.424917">
        <ele>801.813</ele>
        <time>2018-06-15T11:18:47Z</time>
      </trkpt>
      <trkpt lat="42.508063" lon="-5.424951">
        <ele>801.808</ele>
        <time>2018-06-15T11:18:48Z</time>
      </trkpt>
      <trkpt lat="42.508144" lon="-5.425007">
        <ele>801.819</ele>
        <time>2018-06-15T11:18:50Z</time>
      </trkpt>
      <trkpt lat="42.508184" lon="-5.425036">
        <ele>801.852</ele>
        <time>2018-06-15T11:18:51Z</time>
      </trkpt>
      <trkpt lat="42.508265" lon="-5.425099">
        <ele>801.865</ele>
        <time>2018-06-15T11:18:53Z</time>
      </trkpt>
      <trkpt lat="42.508308" lon="-5.425129">
        <ele>801.419</ele>
        <time>2018-06-15T11:18:54Z</time>
      </trkpt>
      <trkpt lat="42.508351" lon="-5.425159">
        <ele>801.698</ele>
        <time>2018-06-15T11:18:55Z</time>
      </trkpt>
      <trkpt lat="42.508391" lon="-5.425189">
        <ele>801.738</ele>
        <time>2018-06-15T11:18:56Z</time>
      </trkpt>
      <trkpt lat="42.508434" lon="-5.425217">
        <ele>801.868</ele>
        <time>2018-06-15T11:18:57Z</time>
      </trkpt>
      <trkpt lat="42.508475" lon="-5.425247">
        <ele>801.898</ele>
        <time>2018-06-15T11:18:58Z</time>
      </trkpt>
      <trkpt lat="42.508517" lon="-5.425282">
        <ele>801.863</ele>
        <time>2018-06-15T11:18:59Z</time>
      </trkpt>
      <trkpt lat="42.508594" lon="-5.425351">
        <ele>801.844</ele>
        <time>2018-06-15T11:19:01Z</time>
      </trkpt>
      <trkpt lat="42.508632" lon="-5.425388">
        <ele>801.818</ele>
        <time>2018-06-15T11:19:02Z</time>
      </trkpt>
      <trkpt lat="42.508673" lon="-5.425422">
        <ele>802.208</ele>
        <time>2018-06-15T11:19:03Z</time>
      </trkpt>
      <trkpt lat="42.508712" lon="-5.425456">
        <ele>802.068</ele>
        <time>2018-06-15T11:19:04Z</time>
      </trkpt>
      <trkpt lat="42.508774" lon="-5.425542">
        <ele>801.921</ele>
        <time>2018-06-15T11:19:06Z</time>
      </trkpt>
      <trkpt lat="42.508803" lon="-5.425590">
        <ele>801.814</ele>
        <time>2018-06-15T11:19:07Z</time>
      </trkpt>
      <trkpt lat="42.508830" lon="-5.425640">
        <ele>801.868</ele>
        <time>2018-06-15T11:19:08Z</time>
      </trkpt>
      <trkpt lat="42.508858" lon="-5.425692">
        <ele>801.817</ele>
        <time>2018-06-15T11:19:09Z</time>
      </trkpt>
      <trkpt lat="42.508903" lon="-5.425798">
        <ele>801.877</ele>
        <time>2018-06-15T11:19:11Z</time>
      </trkpt>
      <trkpt lat="42.508950" lon="-5.425900">
        <ele>801.837</ele>
        <time>2018-06-15T11:19:13Z</time>
      </trkpt>
      <trkpt lat="42.508981" lon="-5.425954">
        <ele>801.847</ele>
        <time>2018-06-15T11:19:14Z</time>
      </trkpt>
      <trkpt lat="42.509012" lon="-5.425999">
        <ele>801.868</ele>
        <time>2018-06-15T11:19:15Z</time>
      </trkpt>
      <trkpt lat="42.509051" lon="-5.426037">
        <ele>801.842</ele>
        <time>2018-06-15T11:19:16Z</time>
      </trkpt>
      <trkpt lat="42.509094" lon="-5.426063">
        <ele>801.826</ele>
        <time>2018-06-15T11:19:17Z</time>
      </trkpt>
      <trkpt lat="42.509177" lon="-5.426097">
        <ele>801.808</ele>
        <time>2018-06-15T11:19:19Z</time>
      </trkpt>
      <trkpt lat="42.509223" lon="-5.426117">
        <ele>801.848</ele>
        <time>2018-06-15T11:19:20Z</time>
      </trkpt>
      <trkpt lat="42.509268" lon="-5.426134">
        <ele>801.891</ele>
        <time>2018-06-15T11:19:21Z</time>
      </trkpt>
      <trkpt lat="42.509353" lon="-5.426170">
        <ele>801.814</ele>
        <time>2018-06-15T11:19:23Z</time>
      </trkpt>
      <trkpt lat="42.509398" lon="-5.426188">
        <ele>801.428</ele>
        <time>2018-06-15T11:19:24Z</time>
      </trkpt>
      <trkpt lat="42.509442" lon="-5.426208">
        <ele>801.277</ele>
        <time>2018-06-15T11:19:25Z</time>
      </trkpt>
      <trkpt lat="42.509486" lon="-5.426227">
        <ele>801.147</ele>
        <time>2018-06-15T11:19:26Z</time>
      </trkpt>
      <trkpt lat="42.509572" lon="-5.426256">
        <ele>801.027</ele>
        <time>2018-06-15T11:19:28Z</time>
      </trkpt>
      <trkpt lat="42.509659" lon="-5.426289">
        <ele>800.557</ele>
        <time>2018-06-15T11:19:30Z</time>
      </trkpt>
      <trkpt lat="42.509706" lon="-5.426308">
        <ele>800.266</ele>
        <time>2018-06-15T11:19:31Z</time>
      </trkpt>
      <trkpt lat="42.509750" lon="-5.426323">
        <ele>800.029</ele>
        <time>2018-06-15T11:19:32Z</time>
      </trkpt>
      <trkpt lat="42.509794" lon="-5.426345">
        <ele>799.921</ele>
        <time>2018-06-15T11:19:33Z</time>
      </trkpt>
      <trkpt lat="42.509883" lon="-5.426375">
        <ele>800.208</ele>
        <time>2018-06-15T11:19:35Z</time>
      </trkpt>
      <trkpt lat="42.509969" lon="-5.426405">
        <ele>800.848</ele>
        <time>2018-06-15T11:19:37Z</time>
      </trkpt>
      <trkpt lat="42.510052" lon="-5.426438">
        <ele>801.211</ele>
        <time>2018-06-15T11:19:39Z</time>
      </trkpt>
      <trkpt lat="42.510136" lon="-5.426485">
        <ele>801.094</ele>
        <time>2018-06-15T11:19:41Z</time>
      </trkpt>
      <trkpt lat="42.510221" lon="-5.426526">
        <ele>801.348</ele>
        <time>2018-06-15T11:19:43Z</time>
      </trkpt>
      <trkpt lat="42.510263" lon="-5.426546">
        <ele>801.567</ele>
        <time>2018-06-15T11:19:44Z</time>
      </trkpt>
      <trkpt lat="42.510342" lon="-5.426595">
        <ele>802.087</ele>
        <time>2018-06-15T11:19:46Z</time>
      </trkpt>
      <trkpt lat="42.510409" lon="-5.426651">
        <ele>802.387</ele>
        <time>2018-06-15T11:19:48Z</time>
      </trkpt>
      <trkpt lat="42.510459" lon="-5.426698">
        <ele>802.587</ele>
        <time>2018-06-15T11:19:51Z</time>
      </trkpt>
      <trkpt lat="42.510550" lon="-5.426764">
        <ele>802.661</ele>
        <time>2018-06-15T11:19:53Z</time>
      </trkpt>
      <trkpt lat="42.510618" lon="-5.426803">
        <ele>802.321</ele>
        <time>2018-06-15T11:19:55Z</time>
      </trkpt>
      <trkpt lat="42.510684" lon="-5.426855">
        <ele>802.113</ele>
        <time>2018-06-15T11:19:57Z</time>
      </trkpt>
      <trkpt lat="42.510761" lon="-5.426910">
        <ele>801.608</ele>
        <time>2018-06-15T11:19:59Z</time>
      </trkpt>
      <trkpt lat="42.510836" lon="-5.426962">
        <ele>801.368</ele>
        <time>2018-06-15T11:20:01Z</time>
      </trkpt>
      <trkpt lat="42.510915" lon="-5.427020">
        <ele>801.571</ele>
        <time>2018-06-15T11:20:03Z</time>
      </trkpt>
      <trkpt lat="42.510991" lon="-5.427076">
        <ele>801.684</ele>
        <time>2018-06-15T11:20:05Z</time>
      </trkpt>
      <trkpt lat="42.511069" lon="-5.427123">
        <ele>801.738</ele>
        <time>2018-06-15T11:20:07Z</time>
      </trkpt>
      <trkpt lat="42.511142" lon="-5.427180">
        <ele>801.737</ele>
        <time>2018-06-15T11:20:09Z</time>
      </trkpt>
      <trkpt lat="42.511217" lon="-5.427236">
        <ele>801.787</ele>
        <time>2018-06-15T11:20:11Z</time>
      </trkpt>
      <trkpt lat="42.511292" lon="-5.427286">
        <ele>801.727</ele>
        <time>2018-06-15T11:20:13Z</time>
      </trkpt>
      <trkpt lat="42.511370" lon="-5.427335">
        <ele>801.757</ele>
        <time>2018-06-15T11:20:15Z</time>
      </trkpt>
      <trkpt lat="42.511439" lon="-5.427393">
        <ele>801.785</ele>
        <time>2018-06-15T11:20:17Z</time>
      </trkpt>
      <trkpt lat="42.511507" lon="-5.427452">
        <ele>801.789</ele>
        <time>2018-06-15T11:20:19Z</time>
      </trkpt>
      <trkpt lat="42.511575" lon="-5.427497">
        <ele>801.717</ele>
        <time>2018-06-15T11:20:21Z</time>
      </trkpt>
      <trkpt lat="42.511642" lon="-5.427545">
        <ele>801.708</ele>
        <time>2018-06-15T11:20:23Z</time>
      </trkpt>
      <trkpt lat="42.511714" lon="-5.427591">
        <ele>801.780</ele>
        <time>2018-06-15T11:20:25Z</time>
      </trkpt>
      <trkpt lat="42.511783" lon="-5.427644">
        <ele>801.313</ele>
        <time>2018-06-15T11:20:27Z</time>
      </trkpt>
      <trkpt lat="42.511854" lon="-5.427690">
        <ele>801.546</ele>
        <time>2018-06-15T11:20:29Z</time>
      </trkpt>
      <trkpt lat="42.511920" lon="-5.427744">
        <ele>801.650</ele>
        <time>2018-06-15T11:20:31Z</time>
      </trkpt>
      <trkpt lat="42.511991" lon="-5.427782">
        <ele>801.779</ele>
        <time>2018-06-15T11:20:33Z</time>
      </trkpt>
      <trkpt lat="42.512051" lon="-5.427836">
        <ele>801.769</ele>
        <time>2018-06-15T11:20:35Z</time>
      </trkpt>
      <trkpt lat="42.512116" lon="-5.427894">
        <ele>801.719</ele>
        <time>2018-06-15T11:20:37Z</time>
      </trkpt>
      <trkpt lat="42.512191" lon="-5.427940">
        <ele>801.719</ele>
        <time>2018-06-15T11:20:39Z</time>
      </trkpt>
      <trkpt lat="42.512266" lon="-5.427988">
        <ele>801.799</ele>
        <time>2018-06-15T11:20:41Z</time>
      </trkpt>
      <trkpt lat="42.512339" lon="-5.428045">
        <ele>802.107</ele>
        <time>2018-06-15T11:20:43Z</time>
      </trkpt>
      <trkpt lat="42.512407" lon="-5.428101">
        <ele>802.327</ele>
        <time>2018-06-15T11:20:45Z</time>
      </trkpt>
      <trkpt lat="42.512475" lon="-5.428159">
        <ele>802.408</ele>
        <time>2018-06-15T11:20:47Z</time>
      </trkpt>
      <trkpt lat="42.512541" lon="-5.428223">
        <ele>802.121</ele>
        <time>2018-06-15T11:20:49Z</time>
      </trkpt>
      <trkpt lat="42.512613" lon="-5.428266">
        <ele>802.344</ele>
        <time>2018-06-15T11:20:51Z</time>
      </trkpt>
      <trkpt lat="42.512687" lon="-5.428319">
        <ele>802.457</ele>
        <time>2018-06-15T11:20:53Z</time>
      </trkpt>
      <trkpt lat="42.512761" lon="-5.428361">
        <ele>802.521</ele>
        <time>2018-06-15T11:20:55Z</time>
      </trkpt>
      <trkpt lat="42.512835" lon="-5.428402">
        <ele>802.590</ele>
        <time>2018-06-15T11:20:57Z</time>
      </trkpt>
      <trkpt lat="42.512912" lon="-5.428453">
        <ele>802.550</ele>
        <time>2018-06-15T11:20:59Z</time>
      </trkpt>
      <trkpt lat="42.512948" lon="-5.428491">
        <ele>802.560</ele>
        <time>2018-06-15T11:21:00Z</time>
      </trkpt>
      <trkpt lat="42.513025" lon="-5.428555">
        <ele>802.580</ele>
        <time>2018-06-15T11:21:02Z</time>
      </trkpt>
      <trkpt lat="42.513101" lon="-5.428611">
        <ele>802.576</ele>
        <time>2018-06-15T11:21:04Z</time>
      </trkpt>
      <trkpt lat="42.513176" lon="-5.428668">
        <ele>802.590</ele>
        <time>2018-06-15T11:21:06Z</time>
      </trkpt>
      <trkpt lat="42.513217" lon="-5.428701">
        <ele>802.519</ele>
        <time>2018-06-15T11:21:07Z</time>
      </trkpt>
      <trkpt lat="42.513259" lon="-5.428730">
        <ele>802.908</ele>
        <time>2018-06-15T11:21:08Z</time>
      </trkpt>
      <trkpt lat="42.513338" lon="-5.428787">
        <ele>803.199</ele>
        <time>2018-06-15T11:21:10Z</time>
      </trkpt>
      <trkpt lat="42.513374" lon="-5.428825">
        <ele>803.282</ele>
        <time>2018-06-15T11:21:11Z</time>
      </trkpt>
      <trkpt lat="42.513416" lon="-5.428853">
        <ele>803.345</ele>
        <time>2018-06-15T11:21:12Z</time>
      </trkpt>
      <trkpt lat="42.513458" lon="-5.428880">
        <ele>803.099</ele>
        <time>2018-06-15T11:21:13Z</time>
      </trkpt>
      <trkpt lat="42.513500" lon="-5.428908">
        <ele>803.298</ele>
        <time>2018-06-15T11:21:14Z</time>
      </trkpt>
      <trkpt lat="42.513541" lon="-5.428940">
        <ele>803.378</ele>
        <time>2018-06-15T11:21:15Z</time>
      </trkpt>
      <trkpt lat="42.513618" lon="-5.428989">
        <ele>803.488</ele>
        <time>2018-06-15T11:21:17Z</time>
      </trkpt>
      <trkpt lat="42.513690" lon="-5.429037">
        <ele>803.478</ele>
        <time>2018-06-15T11:21:19Z</time>
      </trkpt>
      <trkpt lat="42.513765" lon="-5.429095">
        <ele>803.466</ele>
        <time>2018-06-15T11:21:21Z</time>
      </trkpt>
      <trkpt lat="42.513841" lon="-5.429154">
        <ele>803.429</ele>
        <time>2018-06-15T11:21:23Z</time>
      </trkpt>
      <trkpt lat="42.513918" lon="-5.429215">
        <ele>803.421</ele>
        <time>2018-06-15T11:21:25Z</time>
      </trkpt>
      <trkpt lat="42.513992" lon="-5.429273">
        <ele>803.408</ele>
        <time>2018-06-15T11:21:27Z</time>
      </trkpt>
      <trkpt lat="42.514032" lon="-5.429303">
        <ele>803.498</ele>
        <time>2018-06-15T11:21:28Z</time>
      </trkpt>
      <trkpt lat="42.514074" lon="-5.429328">
        <ele>803.411</ele>
        <time>2018-06-15T11:21:29Z</time>
      </trkpt>
      <trkpt lat="42.514153" lon="-5.429387">
        <ele>803.484</ele>
        <time>2018-06-15T11:21:31Z</time>
      </trkpt>
      <trkpt lat="42.514193" lon="-5.429415">
        <ele>803.458</ele>
        <time>2018-06-15T11:21:32Z</time>
      </trkpt>
      <trkpt lat="42.514235" lon="-5.429445">
        <ele>803.497</ele>
        <time>2018-06-15T11:21:33Z</time>
      </trkpt>
      <trkpt lat="42.514276" lon="-5.429477">
        <ele>803.447</ele>
        <time>2018-06-15T11:21:34Z</time>
      </trkpt>
      <trkpt lat="42.514354" lon="-5.429532">
        <ele>803.827</ele>
        <time>2018-06-15T11:21:36Z</time>
      </trkpt>
      <trkpt lat="42.514394" lon="-5.429562">
        <ele>803.657</ele>
        <time>2018-06-15T11:21:37Z</time>
      </trkpt>
      <trkpt lat="42.514471" lon="-5.429615">
        <ele>803.596</ele>
        <time>2018-06-15T11:21:39Z</time>
      </trkpt>
      <trkpt lat="42.514549" lon="-5.429670">
        <ele>803.431</ele>
        <time>2018-06-15T11:21:41Z</time>
      </trkpt>
      <trkpt lat="42.514590" lon="-5.429697">
        <ele>803.424</ele>
        <time>2018-06-15T11:21:42Z</time>
      </trkpt>
      <trkpt lat="42.514665" lon="-5.429750">
        <ele>803.408</ele>
        <time>2018-06-15T11:21:44Z</time>
      </trkpt>
      <trkpt lat="42.514704" lon="-5.429783">
        <ele>803.471</ele>
        <time>2018-06-15T11:21:45Z</time>
      </trkpt>
      <trkpt lat="42.514743" lon="-5.429822">
        <ele>803.444</ele>
        <time>2018-06-15T11:21:46Z</time>
      </trkpt>
      <trkpt lat="42.514787" lon="-5.429849">
        <ele>803.467</ele>
        <time>2018-06-15T11:21:47Z</time>
      </trkpt>
      <trkpt lat="42.514829" lon="-5.429877">
        <ele>803.471</ele>
        <time>2018-06-15T11:21:48Z</time>
      </trkpt>
      <trkpt lat="42.514869" lon="-5.429905">
        <ele>803.440</ele>
        <time>2018-06-15T11:21:49Z</time>
      </trkpt>
      <trkpt lat="42.514946" lon="-5.429966">
        <ele>803.470</ele>
        <time>2018-06-15T11:21:51Z</time>
      </trkpt>
      <trkpt lat="42.514987" lon="-5.429997">
        <ele>803.490</ele>
        <time>2018-06-15T11:21:52Z</time>
      </trkpt>
      <trkpt lat="42.515026" lon="-5.430031">
        <ele>803.410</ele>
        <time>2018-06-15T11:21:53Z</time>
      </trkpt>
      <trkpt lat="42.515104" lon="-5.430089">
        <ele>803.869</ele>
        <time>2018-06-15T11:21:55Z</time>
      </trkpt>
      <trkpt lat="42.515145" lon="-5.430116">
        <ele>803.604</ele>
        <time>2018-06-15T11:21:56Z</time>
      </trkpt>
      <trkpt lat="42.515186" lon="-5.430144">
        <ele>803.924</ele>
        <time>2018-06-15T11:21:57Z</time>
      </trkpt>
      <trkpt lat="42.515265" lon="-5.430202">
        <ele>804.108</ele>
        <time>2018-06-15T11:21:59Z</time>
      </trkpt>
      <trkpt lat="42.515305" lon="-5.430230">
        <ele>804.248</ele>
        <time>2018-06-15T11:22:00Z</time>
      </trkpt>
      <trkpt lat="42.515345" lon="-5.430259">
        <ele>804.351</ele>
        <time>2018-06-15T11:22:01Z</time>
      </trkpt>
      <trkpt lat="42.515385" lon="-5.430293">
        <ele>804.364</ele>
        <time>2018-06-15T11:22:02Z</time>
      </trkpt>
      <trkpt lat="42.515466" lon="-5.430349">
        <ele>804.368</ele>
        <time>2018-06-15T11:22:04Z</time>
      </trkpt>
      <trkpt lat="42.515544" lon="-5.430406">
        <ele>804.337</ele>
        <time>2018-06-15T11:22:06Z</time>
      </trkpt>
      <trkpt lat="42.515584" lon="-5.430437">
        <ele>804.357</ele>
        <time>2018-06-15T11:22:07Z</time>
      </trkpt>
      <trkpt lat="42.515625" lon="-5.430463">
        <ele>804.397</ele>
        <time>2018-06-15T11:22:08Z</time>
      </trkpt>
      <trkpt lat="42.515665" lon="-5.430493">
        <ele>804.347</ele>
        <time>2018-06-15T11:22:09Z</time>
      </trkpt>
      <trkpt lat="42.515707" lon="-5.430525">
        <ele>804.365</ele>
        <time>2018-06-15T11:22:10Z</time>
      </trkpt>
      <trkpt lat="42.515748" lon="-5.430555">
        <ele>804.368</ele>
        <time>2018-06-15T11:22:11Z</time>
      </trkpt>
      <trkpt lat="42.515792" lon="-5.430584">
        <ele>804.314</ele>
        <time>2018-06-15T11:22:12Z</time>
      </trkpt>
      <trkpt lat="42.515831" lon="-5.430618">
        <ele>804.708</ele>
        <time>2018-06-15T11:22:13Z</time>
      </trkpt>
      <trkpt lat="42.515870" lon="-5.430649">
        <ele>804.918</ele>
        <time>2018-06-15T11:22:14Z</time>
      </trkpt>
      <trkpt lat="42.515910" lon="-5.430680">
        <ele>805.021</ele>
        <time>2018-06-15T11:22:15Z</time>
      </trkpt>
      <trkpt lat="42.515952" lon="-5.430707">
        <ele>805.154</ele>
        <time>2018-06-15T11:22:16Z</time>
      </trkpt>
      <trkpt lat="42.516029" lon="-5.430762">
        <ele>805.258</ele>
        <time>2018-06-15T11:22:18Z</time>
      </trkpt>
      <trkpt lat="42.516107" lon="-5.430820">
        <ele>805.287</ele>
        <time>2018-06-15T11:22:20Z</time>
      </trkpt>
      <trkpt lat="42.516146" lon="-5.430852">
        <ele>805.257</ele>
        <time>2018-06-15T11:22:21Z</time>
      </trkpt>
      <trkpt lat="42.516187" lon="-5.430884">
        <ele>805.237</ele>
        <time>2018-06-15T11:22:22Z</time>
      </trkpt>
      <trkpt lat="42.516267" lon="-5.430940">
        <ele>805.227</ele>
        <time>2018-06-15T11:22:24Z</time>
      </trkpt>
      <trkpt lat="42.516309" lon="-5.430966">
        <ele>805.218</ele>
        <time>2018-06-15T11:22:25Z</time>
      </trkpt>
      <trkpt lat="42.516387" lon="-5.431028">
        <ele>805.298</ele>
        <time>2018-06-15T11:22:27Z</time>
      </trkpt>
      <trkpt lat="42.516463" lon="-5.431083">
        <ele>804.817</ele>
        <time>2018-06-15T11:22:29Z</time>
      </trkpt>
      <trkpt lat="42.516503" lon="-5.431112">
        <ele>804.608</ele>
        <time>2018-06-15T11:22:30Z</time>
      </trkpt>
      <trkpt lat="42.516582" lon="-5.431172">
        <ele>804.513</ele>
        <time>2018-06-15T11:22:32Z</time>
      </trkpt>
      <trkpt lat="42.516622" lon="-5.431200">
        <ele>804.446</ele>
        <time>2018-06-15T11:22:33Z</time>
      </trkpt>
      <trkpt lat="42.516662" lon="-5.431230">
        <ele>804.339</ele>
        <time>2018-06-15T11:22:34Z</time>
      </trkpt>
      <trkpt lat="42.516741" lon="-5.431282">
        <ele>804.343</ele>
        <time>2018-06-15T11:22:36Z</time>
      </trkpt>
      <trkpt lat="42.516820" lon="-5.431341">
        <ele>804.312</ele>
        <time>2018-06-15T11:22:38Z</time>
      </trkpt>
      <trkpt lat="42.516860" lon="-5.431374">
        <ele>804.342</ele>
        <time>2018-06-15T11:22:39Z</time>
      </trkpt>
      <trkpt lat="42.516900" lon="-5.431402">
        <ele>804.382</ele>
        <time>2018-06-15T11:22:40Z</time>
      </trkpt>
      <trkpt lat="42.516942" lon="-5.431428">
        <ele>804.372</ele>
        <time>2018-06-15T11:22:41Z</time>
      </trkpt>
      <trkpt lat="42.516986" lon="-5.431456">
        <ele>804.745</ele>
        <time>2018-06-15T11:22:42Z</time>
      </trkpt>
      <trkpt lat="42.517026" lon="-5.431488">
        <ele>804.947</ele>
        <time>2018-06-15T11:22:43Z</time>
      </trkpt>
      <trkpt lat="42.517069" lon="-5.431516">
        <ele>804.611</ele>
        <time>2018-06-15T11:22:44Z</time>
      </trkpt>
      <trkpt lat="42.517112" lon="-5.431552">
        <ele>804.408</ele>
        <time>2018-06-15T11:22:45Z</time>
      </trkpt>
      <trkpt lat="42.517151" lon="-5.431585">
        <ele>804.326</ele>
        <time>2018-06-15T11:22:46Z</time>
      </trkpt>
      <trkpt lat="42.517194" lon="-5.431616">
        <ele>804.299</ele>
        <time>2018-06-15T11:22:47Z</time>
      </trkpt>
      <trkpt lat="42.517236" lon="-5.431645">
        <ele>804.212</ele>
        <time>2018-06-15T11:22:48Z</time>
      </trkpt>
      <trkpt lat="42.517311" lon="-5.431698">
        <ele>804.266</ele>
        <time>2018-06-15T11:22:50Z</time>
      </trkpt>
      <trkpt lat="42.517351" lon="-5.431727">
        <ele>804.245</ele>
        <time>2018-06-15T11:22:51Z</time>
      </trkpt>
      <trkpt lat="42.517391" lon="-5.431755">
        <ele>804.225</ele>
        <time>2018-06-15T11:22:52Z</time>
      </trkpt>
      <trkpt lat="42.517470" lon="-5.431810">
        <ele>804.265</ele>
        <time>2018-06-15T11:22:54Z</time>
      </trkpt>
      <trkpt lat="42.517512" lon="-5.431844">
        <ele>804.275</ele>
        <time>2018-06-15T11:22:55Z</time>
      </trkpt>
      <trkpt lat="42.517553" lon="-5.431870">
        <ele>804.281</ele>
        <time>2018-06-15T11:22:56Z</time>
      </trkpt>
      <trkpt lat="42.517627" lon="-5.431927">
        <ele>804.261</ele>
        <time>2018-06-15T11:22:58Z</time>
      </trkpt>
      <trkpt lat="42.517666" lon="-5.431961">
        <ele>804.217</ele>
        <time>2018-06-15T11:22:59Z</time>
      </trkpt>
      <trkpt lat="42.517705" lon="-5.431996">
        <ele>804.208</ele>
        <time>2018-06-15T11:23:00Z</time>
      </trkpt>
      <trkpt lat="42.517789" lon="-5.432043">
        <ele>804.270</ele>
        <time>2018-06-15T11:23:02Z</time>
      </trkpt>
      <trkpt lat="42.517828" lon="-5.432074">
        <ele>804.293</ele>
        <time>2018-06-15T11:23:03Z</time>
      </trkpt>
      <trkpt lat="42.517868" lon="-5.432106">
        <ele>804.266</ele>
        <time>2018-06-15T11:23:04Z</time>
      </trkpt>
      <trkpt lat="42.517913" lon="-5.432129">
        <ele>804.250</ele>
        <time>2018-06-15T11:23:05Z</time>
      </trkpt>
      <trkpt lat="42.517955" lon="-5.432156">
        <ele>804.239</ele>
        <time>2018-06-15T11:23:06Z</time>
      </trkpt>
      <trkpt lat="42.518032" lon="-5.432209">
        <ele>804.239</ele>
        <time>2018-06-15T11:23:08Z</time>
      </trkpt>
      <trkpt lat="42.518107" lon="-5.432273">
        <ele>804.259</ele>
        <time>2018-06-15T11:23:10Z</time>
      </trkpt>
      <trkpt lat="42.518146" lon="-5.432307">
        <ele>803.839</ele>
        <time>2018-06-15T11:23:11Z</time>
      </trkpt>
      <trkpt lat="42.518186" lon="-5.432343">
        <ele>803.634</ele>
        <time>2018-06-15T11:23:12Z</time>
      </trkpt>
      <trkpt lat="42.518224" lon="-5.432377">
        <ele>803.155</ele>
        <time>2018-06-15T11:23:13Z</time>
      </trkpt>
      <trkpt lat="42.518301" lon="-5.432436">
        <ele>802.810</ele>
        <time>2018-06-15T11:23:15Z</time>
      </trkpt>
      <trkpt lat="42.518340" lon="-5.432470">
        <ele>802.608</ele>
        <time>2018-06-15T11:23:16Z</time>
      </trkpt>
      <trkpt lat="42.518379" lon="-5.432500">
        <ele>802.595</ele>
        <time>2018-06-15T11:23:17Z</time>
      </trkpt>
      <trkpt lat="42.518418" lon="-5.432533">
        <ele>802.078</ele>
        <time>2018-06-15T11:23:18Z</time>
      </trkpt>
      <trkpt lat="42.518494" lon="-5.432590">
        <ele>801.731</ele>
        <time>2018-06-15T11:23:20Z</time>
      </trkpt>
      <trkpt lat="42.518573" lon="-5.432646">
        <ele>801.575</ele>
        <time>2018-06-15T11:23:22Z</time>
      </trkpt>
      <trkpt lat="42.518618" lon="-5.432674">
        <ele>801.474</ele>
        <time>2018-06-15T11:23:23Z</time>
      </trkpt>
      <trkpt lat="42.518669" lon="-5.432705">
        <ele>801.364</ele>
        <time>2018-06-15T11:23:24Z</time>
      </trkpt>
      <trkpt lat="42.518715" lon="-5.432737">
        <ele>801.364</ele>
        <time>2018-06-15T11:23:25Z</time>
      </trkpt>
      <trkpt lat="42.518757" lon="-5.432775">
        <ele>801.354</ele>
        <time>2018-06-15T11:23:26Z</time>
      </trkpt>
      <trkpt lat="42.518797" lon="-5.432811">
        <ele>801.347</ele>
        <time>2018-06-15T11:23:27Z</time>
      </trkpt>
      <trkpt lat="42.518844" lon="-5.432842">
        <ele>801.329</ele>
        <time>2018-06-15T11:23:28Z</time>
      </trkpt>
      <trkpt lat="42.518889" lon="-5.432873">
        <ele>801.321</ele>
        <time>2018-06-15T11:23:29Z</time>
      </trkpt>
      <trkpt lat="42.518932" lon="-5.432908">
        <ele>801.308</ele>
        <time>2018-06-15T11:23:30Z</time>
      </trkpt>
      <trkpt lat="42.518972" lon="-5.432941">
        <ele>801.356</ele>
        <time>2018-06-15T11:23:31Z</time>
      </trkpt>
      <trkpt lat="42.519013" lon="-5.432969">
        <ele>801.359</ele>
        <time>2018-06-15T11:23:32Z</time>
      </trkpt>
      <trkpt lat="42.519055" lon="-5.432998">
        <ele>800.972</ele>
        <time>2018-06-15T11:23:33Z</time>
      </trkpt>
      <trkpt lat="42.519097" lon="-5.433033">
        <ele>800.776</ele>
        <time>2018-06-15T11:23:34Z</time>
      </trkpt>
      <trkpt lat="42.519142" lon="-5.433064">
        <ele>800.665</ele>
        <time>2018-06-15T11:23:35Z</time>
      </trkpt>
      <trkpt lat="42.519187" lon="-5.433093">
        <ele>800.985</ele>
        <time>2018-06-15T11:23:36Z</time>
      </trkpt>
      <trkpt lat="42.519231" lon="-5.433126">
        <ele>801.145</ele>
        <time>2018-06-15T11:23:37Z</time>
      </trkpt>
      <trkpt lat="42.519272" lon="-5.433157">
        <ele>801.275</ele>
        <time>2018-06-15T11:23:38Z</time>
      </trkpt>
      <trkpt lat="42.519315" lon="-5.433187">
        <ele>801.381</ele>
        <time>2018-06-15T11:23:39Z</time>
      </trkpt>
      <trkpt lat="42.519360" lon="-5.433211">
        <ele>800.961</ele>
        <time>2018-06-15T11:23:40Z</time>
      </trkpt>
      <trkpt lat="42.519439" lon="-5.433282">
        <ele>800.717</ele>
        <time>2018-06-15T11:23:42Z</time>
      </trkpt>
      <trkpt lat="42.519481" lon="-5.433312">
        <ele>800.608</ele>
        <time>2018-06-15T11:23:43Z</time>
      </trkpt>
      <trkpt lat="42.519523" lon="-5.433343">
        <ele>800.520</ele>
        <time>2018-06-15T11:23:44Z</time>
      </trkpt>
      <trkpt lat="42.519567" lon="-5.433375">
        <ele>800.593</ele>
        <time>2018-06-15T11:23:45Z</time>
      </trkpt>
      <trkpt lat="42.519616" lon="-5.433401">
        <ele>800.916</ele>
        <time>2018-06-15T11:23:46Z</time>
      </trkpt>
      <trkpt lat="42.519659" lon="-5.433431">
        <ele>801.180</ele>
        <time>2018-06-15T11:23:47Z</time>
      </trkpt>
      <trkpt lat="42.519698" lon="-5.433468">
        <ele>801.299</ele>
        <time>2018-06-15T11:23:48Z</time>
      </trkpt>
      <trkpt lat="42.519739" lon="-5.433498">
        <ele>801.329</ele>
        <time>2018-06-15T11:23:49Z</time>
      </trkpt>
      <trkpt lat="42.519784" lon="-5.433519">
        <ele>801.349</ele>
        <time>2018-06-15T11:23:50Z</time>
      </trkpt>
      <trkpt lat="42.519827" lon="-5.433549">
        <ele>801.369</ele>
        <time>2018-06-15T11:23:51Z</time>
      </trkpt>
      <trkpt lat="42.519867" lon="-5.433583">
        <ele>801.371</ele>
        <time>2018-06-15T11:23:52Z</time>
      </trkpt>
      <trkpt lat="42.519909" lon="-5.433616">
        <ele>801.341</ele>
        <time>2018-06-15T11:23:53Z</time>
      </trkpt>
      <trkpt lat="42.519988" lon="-5.433676">
        <ele>801.315</ele>
        <time>2018-06-15T11:23:55Z</time>
      </trkpt>
      <trkpt lat="42.520030" lon="-5.433704">
        <ele>800.908</ele>
        <time>2018-06-15T11:23:56Z</time>
      </trkpt>
      <trkpt lat="42.520070" lon="-5.433734">
        <ele>801.139</ele>
        <time>2018-06-15T11:23:57Z</time>
      </trkpt>
      <trkpt lat="42.520146" lon="-5.433792">
        <ele>801.222</ele>
        <time>2018-06-15T11:23:59Z</time>
      </trkpt>
      <trkpt lat="42.520220" lon="-5.433850">
        <ele>801.365</ele>
        <time>2018-06-15T11:24:01Z</time>
      </trkpt>
      <trkpt lat="42.520295" lon="-5.433902">
        <ele>801.379</ele>
        <time>2018-06-15T11:24:03Z</time>
      </trkpt>
      <trkpt lat="42.520364" lon="-5.433979">
        <ele>801.368</ele>
        <time>2018-06-15T11:24:05Z</time>
      </trkpt>
      <trkpt lat="42.520410" lon="-5.434074">
        <ele>801.388</ele>
        <time>2018-06-15T11:24:07Z</time>
      </trkpt>
      <trkpt lat="42.520449" lon="-5.434180">
        <ele>800.978</ele>
        <time>2018-06-15T11:24:09Z</time>
      </trkpt>
      <trkpt lat="42.520486" lon="-5.434284">
        <ele>800.798</ele>
        <time>2018-06-15T11:24:11Z</time>
      </trkpt>
      <trkpt lat="42.520524" lon="-5.434387">
        <ele>800.624</ele>
        <time>2018-06-15T11:24:13Z</time>
      </trkpt>
      <trkpt lat="42.520558" lon="-5.434485">
        <ele>800.504</ele>
        <time>2018-06-15T11:24:15Z</time>
      </trkpt>
      <trkpt lat="42.520590" lon="-5.434574">
        <ele>800.414</ele>
        <time>2018-06-15T11:24:17Z</time>
      </trkpt>
      <trkpt lat="42.520625" lon="-5.434633">
        <ele>800.808</ele>
        <time>2018-06-15T11:24:19Z</time>
      </trkpt>
      <trkpt lat="42.520693" lon="-5.434710">
        <ele>800.654</ele>
        <time>2018-06-15T11:24:21Z</time>
      </trkpt>
      <trkpt lat="42.520767" lon="-5.434738">
        <ele>800.537</ele>
        <time>2018-06-15T11:24:23Z</time>
      </trkpt>
      <trkpt lat="42.520848" lon="-5.434750">
        <ele>800.420</ele>
        <time>2018-06-15T11:24:25Z</time>
      </trkpt>
      <trkpt lat="42.520927" lon="-5.434744">
        <ele>800.464</ele>
        <time>2018-06-15T11:24:27Z</time>
      </trkpt>
      <trkpt lat="42.521004" lon="-5.434727">
        <ele>800.423</ele>
        <time>2018-06-15T11:24:29Z</time>
      </trkpt>
      <trkpt lat="42.521082" lon="-5.434708">
        <ele>800.443</ele>
        <time>2018-06-15T11:24:31Z</time>
      </trkpt>
      <trkpt lat="42.521164" lon="-5.434691">
        <ele>800.853</ele>
        <time>2018-06-15T11:24:33Z</time>
      </trkpt>
      <trkpt lat="42.521246" lon="-5.434677">
        <ele>801.083</ele>
        <time>2018-06-15T11:24:35Z</time>
      </trkpt>
      <trkpt lat="42.521330" lon="-5.434676">
        <ele>801.567</ele>
        <time>2018-06-15T11:24:37Z</time>
      </trkpt>
      <trkpt lat="42.521407" lon="-5.434716">
        <ele>801.881</ele>
        <time>2018-06-15T11:24:39Z</time>
      </trkpt>
      <trkpt lat="42.521480" lon="-5.434765">
        <ele>802.019</ele>
        <time>2018-06-15T11:24:41Z</time>
      </trkpt>
      <trkpt lat="42.521554" lon="-5.434815">
        <ele>802.108</ele>
        <time>2018-06-15T11:24:43Z</time>
      </trkpt>
      <trkpt lat="42.521625" lon="-5.434870">
        <ele>802.668</ele>
        <time>2018-06-15T11:24:45Z</time>
      </trkpt>
      <trkpt lat="42.521701" lon="-5.434926">
        <ele>802.551</ele>
        <time>2018-06-15T11:24:47Z</time>
      </trkpt>
      <trkpt lat="42.521777" lon="-5.434984">
        <ele>802.414</ele>
        <time>2018-06-15T11:24:49Z</time>
      </trkpt>
      <trkpt lat="42.521817" lon="-5.435015">
        <ele>802.488</ele>
        <time>2018-06-15T11:24:50Z</time>
      </trkpt>
      <trkpt lat="42.521859" lon="-5.435042">
        <ele>802.497</ele>
        <time>2018-06-15T11:24:51Z</time>
      </trkpt>
      <trkpt lat="42.521898" lon="-5.435074">
        <ele>802.477</ele>
        <time>2018-06-15T11:24:52Z</time>
      </trkpt>
      <trkpt lat="42.521939" lon="-5.435108">
        <ele>802.437</ele>
        <time>2018-06-15T11:24:53Z</time>
      </trkpt>
      <trkpt lat="42.521979" lon="-5.435139">
        <ele>802.487</ele>
        <time>2018-06-15T11:24:54Z</time>
      </trkpt>
      <trkpt lat="42.522059" lon="-5.435190">
        <ele>802.491</ele>
        <time>2018-06-15T11:24:56Z</time>
      </trkpt>
      <trkpt lat="42.522098" lon="-5.435220">
        <ele>802.481</ele>
        <time>2018-06-15T11:24:57Z</time>
      </trkpt>
      <trkpt lat="42.522137" lon="-5.435251">
        <ele>802.019</ele>
        <time>2018-06-15T11:24:58Z</time>
      </trkpt>
      <trkpt lat="42.522179" lon="-5.435289">
        <ele>801.808</ele>
        <time>2018-06-15T11:24:59Z</time>
      </trkpt>
      <trkpt lat="42.522221" lon="-5.435320">
        <ele>801.711</ele>
        <time>2018-06-15T11:25:00Z</time>
      </trkpt>
      <trkpt lat="42.522265" lon="-5.435353">
        <ele>801.694</ele>
        <time>2018-06-15T11:25:01Z</time>
      </trkpt>
      <trkpt lat="42.522305" lon="-5.435387">
        <ele>801.547</ele>
        <time>2018-06-15T11:25:02Z</time>
      </trkpt>
      <trkpt lat="42.522349" lon="-5.435416">
        <ele>801.591</ele>
        <time>2018-06-15T11:25:03Z</time>
      </trkpt>
      <trkpt lat="42.522430" lon="-5.435472">
        <ele>801.560</ele>
        <time>2018-06-15T11:25:05Z</time>
      </trkpt>
      <trkpt lat="42.522470" lon="-5.435504">
        <ele>801.560</ele>
        <time>2018-06-15T11:25:06Z</time>
      </trkpt>
      <trkpt lat="42.522511" lon="-5.435531">
        <ele>801.510</ele>
        <time>2018-06-15T11:25:07Z</time>
      </trkpt>
      <trkpt lat="42.522553" lon="-5.435560">
        <ele>801.510</ele>
        <time>2018-06-15T11:25:08Z</time>
      </trkpt>
      <trkpt lat="42.522595" lon="-5.435591">
        <ele>801.921</ele>
        <time>2018-06-15T11:25:09Z</time>
      </trkpt>
      <trkpt lat="42.522635" lon="-5.435625">
        <ele>801.741</ele>
        <time>2018-06-15T11:25:10Z</time>
      </trkpt>
      <trkpt lat="42.522676" lon="-5.435657">
        <ele>801.605</ele>
        <time>2018-06-15T11:25:11Z</time>
      </trkpt>
      <trkpt lat="42.522757" lon="-5.435714">
        <ele>801.508</ele>
        <time>2018-06-15T11:25:13Z</time>
      </trkpt>
      <trkpt lat="42.522798" lon="-5.435743">
        <ele>801.544</ele>
        <time>2018-06-15T11:25:14Z</time>
      </trkpt>
      <trkpt lat="42.522839" lon="-5.435772">
        <ele>801.947</ele>
        <time>2018-06-15T11:25:15Z</time>
      </trkpt>
      <trkpt lat="42.522882" lon="-5.435801">
        <ele>802.150</ele>
        <time>2018-06-15T11:25:16Z</time>
      </trkpt>
      <trkpt lat="42.522963" lon="-5.435860">
        <ele>802.224</ele>
        <time>2018-06-15T11:25:18Z</time>
      </trkpt>
      <trkpt lat="42.523041" lon="-5.435915">
        <ele>802.373</ele>
        <time>2018-06-15T11:25:20Z</time>
      </trkpt>
      <trkpt lat="42.523084" lon="-5.435947">
        <ele>802.313</ele>
        <time>2018-06-15T11:25:21Z</time>
      </trkpt>
      <trkpt lat="42.523123" lon="-5.435978">
        <ele>802.313</ele>
        <time>2018-06-15T11:25:22Z</time>
      </trkpt>
      <trkpt lat="42.523165" lon="-5.436008">
        <ele>802.343</ele>
        <time>2018-06-15T11:25:23Z</time>
      </trkpt>
      <trkpt lat="42.523207" lon="-5.436040">
        <ele>802.324</ele>
        <time>2018-06-15T11:25:24Z</time>
      </trkpt>
      <trkpt lat="42.523251" lon="-5.436067">
        <ele>802.304</ele>
        <time>2018-06-15T11:25:25Z</time>
      </trkpt>
      <trkpt lat="42.523292" lon="-5.436095">
        <ele>802.314</ele>
        <time>2018-06-15T11:25:26Z</time>
      </trkpt>
      <trkpt lat="42.523371" lon="-5.436162">
        <ele>802.708</ele>
        <time>2018-06-15T11:25:28Z</time>
      </trkpt>
      <trkpt lat="42.523410" lon="-5.436192">
        <ele>802.974</ele>
        <time>2018-06-15T11:25:29Z</time>
      </trkpt>
      <trkpt lat="42.523448" lon="-5.436227">
        <ele>803.087</ele>
        <time>2018-06-15T11:25:30Z</time>
      </trkpt>
      <trkpt lat="42.523488" lon="-5.436258">
        <ele>803.110</ele>
        <time>2018-06-15T11:25:31Z</time>
      </trkpt>
      <trkpt lat="42.523529" lon="-5.436290">
        <ele>803.214</ele>
        <time>2018-06-15T11:25:32Z</time>
      </trkpt>
      <trkpt lat="42.523571" lon="-5.436318">
        <ele>803.283</ele>
        <time>2018-06-15T11:25:33Z</time>
      </trkpt>
      <trkpt lat="42.523647" lon="-5.436380">
        <ele>802.893</ele>
        <time>2018-06-15T11:25:35Z</time>
      </trkpt>
      <trkpt lat="42.523728" lon="-5.436437">
        <ele>802.633</ele>
        <time>2018-06-15T11:25:37Z</time>
      </trkpt>
      <trkpt lat="42.523812" lon="-5.436493">
        <ele>802.523</ele>
        <time>2018-06-15T11:25:39Z</time>
      </trkpt>
      <trkpt lat="42.523856" lon="-5.436522">
        <ele>802.462</ele>
        <time>2018-06-15T11:25:40Z</time>
      </trkpt>
      <trkpt lat="42.523902" lon="-5.436552">
        <ele>802.483</ele>
        <time>2018-06-15T11:25:41Z</time>
      </trkpt>
      <trkpt lat="42.523944" lon="-5.436582">
        <ele>802.411</ele>
        <time>2018-06-15T11:25:42Z</time>
      </trkpt>
      <trkpt lat="42.523985" lon="-5.436619">
        <ele>802.408</ele>
        <time>2018-06-15T11:25:43Z</time>
      </trkpt>
      <trkpt lat="42.524026" lon="-5.436653">
        <ele>802.078</ele>
        <time>2018-06-15T11:25:44Z</time>
      </trkpt>
      <trkpt lat="42.524067" lon="-5.436680">
        <ele>801.861</ele>
        <time>2018-06-15T11:25:45Z</time>
      </trkpt>
      <trkpt lat="42.524108" lon="-5.436708">
        <ele>801.784</ele>
        <time>2018-06-15T11:25:46Z</time>
      </trkpt>
      <trkpt lat="42.524187" lon="-5.436770">
        <ele>801.698</ele>
        <time>2018-06-15T11:25:48Z</time>
      </trkpt>
      <trkpt lat="42.524264" lon="-5.436829">
        <ele>801.197</ele>
        <time>2018-06-15T11:25:50Z</time>
      </trkpt>
      <trkpt lat="42.524303" lon="-5.436860">
        <ele>801.227</ele>
        <time>2018-06-15T11:25:51Z</time>
      </trkpt>
      <trkpt lat="42.524347" lon="-5.436882">
        <ele>801.397</ele>
        <time>2018-06-15T11:25:52Z</time>
      </trkpt>
      <trkpt lat="42.524386" lon="-5.436914">
        <ele>801.377</ele>
        <time>2018-06-15T11:25:53Z</time>
      </trkpt>
      <trkpt lat="42.524427" lon="-5.436947">
        <ele>800.915</ele>
        <time>2018-06-15T11:25:54Z</time>
      </trkpt>
      <trkpt lat="42.524503" lon="-5.437007">
        <ele>800.765</ele>
        <time>2018-06-15T11:25:56Z</time>
      </trkpt>
      <trkpt lat="42.524545" lon="-5.437035">
        <ele>800.611</ele>
        <time>2018-06-15T11:25:57Z</time>
      </trkpt>
      <trkpt lat="42.524587" lon="-5.437063">
        <ele>800.508</ele>
        <time>2018-06-15T11:25:58Z</time>
      </trkpt>
      <trkpt lat="42.524629" lon="-5.437095">
        <ele>800.563</ele>
        <time>2018-06-15T11:25:59Z</time>
      </trkpt>
      <trkpt lat="42.524671" lon="-5.437122">
        <ele>800.516</ele>
        <time>2018-06-15T11:26:00Z</time>
      </trkpt>
      <trkpt lat="42.524713" lon="-5.437150">
        <ele>800.549</ele>
        <time>2018-06-15T11:26:01Z</time>
      </trkpt>
      <trkpt lat="42.524792" lon="-5.437212">
        <ele>800.123</ele>
        <time>2018-06-15T11:26:03Z</time>
      </trkpt>
      <trkpt lat="42.524833" lon="-5.437245">
        <ele>800.352</ele>
        <time>2018-06-15T11:26:04Z</time>
      </trkpt>
      <trkpt lat="42.524874" lon="-5.437278">
        <ele>800.422</ele>
        <time>2018-06-15T11:26:05Z</time>
      </trkpt>
      <trkpt lat="42.524956" lon="-5.437339">
        <ele>800.582</ele>
        <time>2018-06-15T11:26:07Z</time>
      </trkpt>
      <trkpt lat="42.524999" lon="-5.437367">
        <ele>800.522</ele>
        <time>2018-06-15T11:26:08Z</time>
      </trkpt>
      <trkpt lat="42.525039" lon="-5.437395">
        <ele>800.597</ele>
        <time>2018-06-15T11:26:09Z</time>
      </trkpt>
      <trkpt lat="42.525118" lon="-5.437446">
        <ele>800.523</ele>
        <time>2018-06-15T11:26:11Z</time>
      </trkpt>
      <trkpt lat="42.525198" lon="-5.437491">
        <ele>800.525</ele>
        <time>2018-06-15T11:26:13Z</time>
      </trkpt>
      <trkpt lat="42.525238" lon="-5.437522">
        <ele>800.508</ele>
        <time>2018-06-15T11:26:14Z</time>
      </trkpt>
      <trkpt lat="42.525278" lon="-5.437553">
        <ele>800.971</ele>
        <time>2018-06-15T11:26:15Z</time>
      </trkpt>
      <trkpt lat="42.525320" lon="-5.437581">
        <ele>800.714</ele>
        <time>2018-06-15T11:26:16Z</time>
      </trkpt>
      <trkpt lat="42.525400" lon="-5.437636">
        <ele>800.647</ele>
        <time>2018-06-15T11:26:18Z</time>
      </trkpt>
      <trkpt lat="42.525441" lon="-5.437665">
        <ele>800.961</ele>
        <time>2018-06-15T11:26:19Z</time>
      </trkpt>
      <trkpt lat="42.525483" lon="-5.437696">
        <ele>801.160</ele>
        <time>2018-06-15T11:26:20Z</time>
      </trkpt>
      <trkpt lat="42.525525" lon="-5.437727">
        <ele>801.280</ele>
        <time>2018-06-15T11:26:21Z</time>
      </trkpt>
      <trkpt lat="42.525566" lon="-5.437758">
        <ele>801.380</ele>
        <time>2018-06-15T11:26:22Z</time>
      </trkpt>
      <trkpt lat="42.525606" lon="-5.437788">
        <ele>801.370</ele>
        <time>2018-06-15T11:26:23Z</time>
      </trkpt>
      <trkpt lat="42.525647" lon="-5.437814">
        <ele>801.371</ele>
        <time>2018-06-15T11:26:24Z</time>
      </trkpt>
      <trkpt lat="42.525689" lon="-5.437843">
        <ele>801.341</ele>
        <time>2018-06-15T11:26:25Z</time>
      </trkpt>
      <trkpt lat="42.525729" lon="-5.437873">
        <ele>801.315</ele>
        <time>2018-06-15T11:26:26Z</time>
      </trkpt>
      <trkpt lat="42.525772" lon="-5.437897">
        <ele>801.308</ele>
        <time>2018-06-15T11:26:27Z</time>
      </trkpt>
      <trkpt lat="42.525817" lon="-5.437917">
        <ele>801.769</ele>
        <time>2018-06-15T11:26:28Z</time>
      </trkpt>
      <trkpt lat="42.525858" lon="-5.437947">
        <ele>801.912</ele>
        <time>2018-06-15T11:26:29Z</time>
      </trkpt>
      <trkpt lat="42.525935" lon="-5.438015">
        <ele>801.665</ele>
        <time>2018-06-15T11:26:31Z</time>
      </trkpt>
      <trkpt lat="42.525975" lon="-5.438044">
        <ele>801.439</ele>
        <time>2018-06-15T11:26:32Z</time>
      </trkpt>
      <trkpt lat="42.526052" lon="-5.438102">
        <ele>801.358</ele>
        <time>2018-06-15T11:26:34Z</time>
      </trkpt>
      <trkpt lat="42.526095" lon="-5.438132">
        <ele>801.238</ele>
        <time>2018-06-15T11:26:35Z</time>
      </trkpt>
      <trkpt lat="42.526136" lon="-5.438160">
        <ele>801.228</ele>
        <time>2018-06-15T11:26:36Z</time>
      </trkpt>
      <trkpt lat="42.526176" lon="-5.438194">
        <ele>801.268</ele>
        <time>2018-06-15T11:26:37Z</time>
      </trkpt>
      <trkpt lat="42.526220" lon="-5.438228">
        <ele>800.821</ele>
        <time>2018-06-15T11:26:38Z</time>
      </trkpt>
      <trkpt lat="42.526263" lon="-5.438262">
        <ele>800.641</ele>
        <time>2018-06-15T11:26:39Z</time>
      </trkpt>
      <trkpt lat="42.526306" lon="-5.438290">
        <ele>800.505</ele>
        <time>2018-06-15T11:26:40Z</time>
      </trkpt>
      <trkpt lat="42.526350" lon="-5.438325">
        <ele>800.408</ele>
        <time>2018-06-15T11:26:41Z</time>
      </trkpt>
      <trkpt lat="42.526395" lon="-5.438358">
        <ele>800.374</ele>
        <time>2018-06-15T11:26:42Z</time>
      </trkpt>
      <trkpt lat="42.526439" lon="-5.438389">
        <ele>800.387</ele>
        <time>2018-06-15T11:26:43Z</time>
      </trkpt>
      <trkpt lat="42.526484" lon="-5.438421">
        <ele>800.390</ele>
        <time>2018-06-15T11:26:44Z</time>
      </trkpt>
      <trkpt lat="42.526531" lon="-5.438454">
        <ele>800.344</ele>
        <time>2018-06-15T11:26:45Z</time>
      </trkpt>
      <trkpt lat="42.526576" lon="-5.438485">
        <ele>800.363</ele>
        <time>2018-06-15T11:26:46Z</time>
      </trkpt>
      <trkpt lat="42.526622" lon="-5.438519">
        <ele>800.353</ele>
        <time>2018-06-15T11:26:47Z</time>
      </trkpt>
      <trkpt lat="42.526669" lon="-5.438548">
        <ele>800.313</ele>
        <time>2018-06-15T11:26:48Z</time>
      </trkpt>
      <trkpt lat="42.526715" lon="-5.438581">
        <ele>800.343</ele>
        <time>2018-06-15T11:26:49Z</time>
      </trkpt>
      <trkpt lat="42.526762" lon="-5.438617">
        <ele>800.356</ele>
        <time>2018-06-15T11:26:50Z</time>
      </trkpt>
      <trkpt lat="42.526808" lon="-5.438654">
        <ele>800.359</ele>
        <time>2018-06-15T11:26:51Z</time>
      </trkpt>
      <trkpt lat="42.526858" lon="-5.438679">
        <ele>800.314</ele>
        <time>2018-06-15T11:26:52Z</time>
      </trkpt>
      <trkpt lat="42.526904" lon="-5.438712">
        <ele>800.708</ele>
        <time>2018-06-15T11:26:53Z</time>
      </trkpt>
      <trkpt lat="42.526946" lon="-5.438742">
        <ele>800.957</ele>
        <time>2018-06-15T11:26:54Z</time>
      </trkpt>
      <trkpt lat="42.526989" lon="-5.438777">
        <ele>800.620</ele>
        <time>2018-06-15T11:26:55Z</time>
      </trkpt>
      <trkpt lat="42.527033" lon="-5.438806">
        <ele>800.473</ele>
        <time>2018-06-15T11:26:56Z</time>
      </trkpt>
      <trkpt lat="42.527078" lon="-5.438835">
        <ele>800.797</ele>
        <time>2018-06-15T11:26:57Z</time>
      </trkpt>
      <trkpt lat="42.527123" lon="-5.438869">
        <ele>800.926</ele>
        <time>2018-06-15T11:26:58Z</time>
      </trkpt>
      <trkpt lat="42.527168" lon="-5.438905">
        <ele>800.646</ele>
        <time>2018-06-15T11:26:59Z</time>
      </trkpt>
      <trkpt lat="42.527212" lon="-5.438940">
        <ele>800.856</ele>
        <time>2018-06-15T11:27:00Z</time>
      </trkpt>
      <trkpt lat="42.527253" lon="-5.438975">
        <ele>800.556</ele>
        <time>2018-06-15T11:27:01Z</time>
      </trkpt>
      <trkpt lat="42.527298" lon="-5.439009">
        <ele>800.396</ele>
        <time>2018-06-15T11:27:02Z</time>
      </trkpt>
      <trkpt lat="42.527341" lon="-5.439043">
        <ele>800.231</ele>
        <time>2018-06-15T11:27:03Z</time>
      </trkpt>
      <trkpt lat="42.527387" lon="-5.439077">
        <ele>800.124</ele>
        <time>2018-06-15T11:27:04Z</time>
      </trkpt>
      <trkpt lat="42.527433" lon="-5.439109">
        <ele>800.108</ele>
        <time>2018-06-15T11:27:05Z</time>
      </trkpt>
      <trkpt lat="42.527481" lon="-5.439141">
        <ele>800.161</ele>
        <time>2018-06-15T11:27:06Z</time>
      </trkpt>
      <trkpt lat="42.527526" lon="-5.439176">
        <ele>800.174</ele>
        <time>2018-06-15T11:27:07Z</time>
      </trkpt>
      <trkpt lat="42.527571" lon="-5.439210">
        <ele>800.167</ele>
        <time>2018-06-15T11:27:08Z</time>
      </trkpt>
      <trkpt lat="42.527619" lon="-5.439248">
        <ele>800.121</ele>
        <time>2018-06-15T11:27:09Z</time>
      </trkpt>
      <trkpt lat="42.527667" lon="-5.439285">
        <ele>800.120</ele>
        <time>2018-06-15T11:27:10Z</time>
      </trkpt>
      <trkpt lat="42.527717" lon="-5.439323">
        <ele>800.190</ele>
        <time>2018-06-15T11:27:11Z</time>
      </trkpt>
      <trkpt lat="42.527767" lon="-5.439361">
        <ele>800.190</ele>
        <time>2018-06-15T11:27:12Z</time>
      </trkpt>
      <trkpt lat="42.527817" lon="-5.439397">
        <ele>800.160</ele>
        <time>2018-06-15T11:27:13Z</time>
      </trkpt>
      <trkpt lat="42.527865" lon="-5.439432">
        <ele>800.195</ele>
        <time>2018-06-15T11:27:14Z</time>
      </trkpt>
      <trkpt lat="42.527912" lon="-5.439474">
        <ele>800.149</ele>
        <time>2018-06-15T11:27:15Z</time>
      </trkpt>
      <trkpt lat="42.527961" lon="-5.439514">
        <ele>800.123</ele>
        <time>2018-06-15T11:27:16Z</time>
      </trkpt>
      <trkpt lat="42.528012" lon="-5.439550">
        <ele>800.108</ele>
        <time>2018-06-15T11:27:17Z</time>
      </trkpt>
      <trkpt lat="42.528062" lon="-5.439588">
        <ele>800.171</ele>
        <time>2018-06-15T11:27:18Z</time>
      </trkpt>
      <trkpt lat="42.528112" lon="-5.439624">
        <ele>800.174</ele>
        <time>2018-06-15T11:27:19Z</time>
      </trkpt>
      <trkpt lat="42.528157" lon="-5.439660">
        <ele>800.157</ele>
        <time>2018-06-15T11:27:20Z</time>
      </trkpt>
      <trkpt lat="42.528204" lon="-5.439695">
        <ele>800.121</ele>
        <time>2018-06-15T11:27:21Z</time>
      </trkpt>
      <trkpt lat="42.528253" lon="-5.439725">
        <ele>800.160</ele>
        <time>2018-06-15T11:27:22Z</time>
      </trkpt>
      <trkpt lat="42.528301" lon="-5.439758">
        <ele>800.140</ele>
        <time>2018-06-15T11:27:23Z</time>
      </trkpt>
      <trkpt lat="42.528349" lon="-5.439789">
        <ele>800.120</ele>
        <time>2018-06-15T11:27:24Z</time>
      </trkpt>
      <trkpt lat="42.528396" lon="-5.439826">
        <ele>800.150</ele>
        <time>2018-06-15T11:27:25Z</time>
      </trkpt>
      <trkpt lat="42.528440" lon="-5.439863">
        <ele>800.161</ele>
        <time>2018-06-15T11:27:26Z</time>
      </trkpt>
      <trkpt lat="42.528486" lon="-5.439899">
        <ele>799.721</ele>
        <time>2018-06-15T11:27:27Z</time>
      </trkpt>
      <trkpt lat="42.528533" lon="-5.439928">
        <ele>799.513</ele>
        <time>2018-06-15T11:27:28Z</time>
      </trkpt>
      <trkpt lat="42.528580" lon="-5.439966">
        <ele>799.408</ele>
        <time>2018-06-15T11:27:29Z</time>
      </trkpt>
      <trkpt lat="42.528628" lon="-5.439996">
        <ele>799.378</ele>
        <time>2018-06-15T11:27:30Z</time>
      </trkpt>
      <trkpt lat="42.528671" lon="-5.440030">
        <ele>799.251</ele>
        <time>2018-06-15T11:27:31Z</time>
      </trkpt>
      <trkpt lat="42.528717" lon="-5.440062">
        <ele>799.624</ele>
        <time>2018-06-15T11:27:32Z</time>
      </trkpt>
      <trkpt lat="42.528761" lon="-5.440095">
        <ele>799.468</ele>
        <time>2018-06-15T11:27:33Z</time>
      </trkpt>
      <trkpt lat="42.528803" lon="-5.440129">
        <ele>799.387</ele>
        <time>2018-06-15T11:27:34Z</time>
      </trkpt>
      <trkpt lat="42.528846" lon="-5.440162">
        <ele>799.217</ele>
        <time>2018-06-15T11:27:35Z</time>
      </trkpt>
      <trkpt lat="42.528891" lon="-5.440194">
        <ele>799.227</ele>
        <time>2018-06-15T11:27:36Z</time>
      </trkpt>
      <trkpt lat="42.528930" lon="-5.440228">
        <ele>799.257</ele>
        <time>2018-06-15T11:27:37Z</time>
      </trkpt>
      <trkpt lat="42.528975" lon="-5.440262">
        <ele>799.686</ele>
        <time>2018-06-15T11:27:38Z</time>
      </trkpt>
      <trkpt lat="42.529021" lon="-5.440296">
        <ele>799.860</ele>
        <time>2018-06-15T11:27:39Z</time>
      </trkpt>
      <trkpt lat="42.529067" lon="-5.440328">
        <ele>799.926</ele>
        <time>2018-06-15T11:27:40Z</time>
      </trkpt>
      <trkpt lat="42.529110" lon="-5.440360">
        <ele>800.008</ele>
        <time>2018-06-15T11:27:41Z</time>
      </trkpt>
      <trkpt lat="42.529156" lon="-5.440392">
        <ele>800.120</ele>
        <time>2018-06-15T11:27:42Z</time>
      </trkpt>
      <trkpt lat="42.529197" lon="-5.440425">
        <ele>800.193</ele>
        <time>2018-06-15T11:27:43Z</time>
      </trkpt>
      <trkpt lat="42.529238" lon="-5.440455">
        <ele>800.156</ele>
        <time>2018-06-15T11:27:44Z</time>
      </trkpt>
      <trkpt lat="42.529283" lon="-5.440491">
        <ele>800.140</ele>
        <time>2018-06-15T11:27:45Z</time>
      </trkpt>
      <trkpt lat="42.529324" lon="-5.440522">
        <ele>799.729</ele>
        <time>2018-06-15T11:27:46Z</time>
      </trkpt>
      <trkpt lat="42.529366" lon="-5.440556">
        <ele>799.569</ele>
        <time>2018-06-15T11:27:47Z</time>
      </trkpt>
      <trkpt lat="42.529408" lon="-5.440590">
        <ele>799.499</ele>
        <time>2018-06-15T11:27:48Z</time>
      </trkpt>
      <trkpt lat="42.529453" lon="-5.440624">
        <ele>799.779</ele>
        <time>2018-06-15T11:27:49Z</time>
      </trkpt>
      <trkpt lat="42.529499" lon="-5.440655">
        <ele>799.926</ele>
        <time>2018-06-15T11:27:50Z</time>
      </trkpt>
      <trkpt lat="42.529543" lon="-5.440682">
        <ele>800.047</ele>
        <time>2018-06-15T11:27:51Z</time>
      </trkpt>
      <trkpt lat="42.529587" lon="-5.440713">
        <ele>800.511</ele>
        <time>2018-06-15T11:27:52Z</time>
      </trkpt>
      <trkpt lat="42.529628" lon="-5.440749">
        <ele>800.408</ele>
        <time>2018-06-15T11:27:53Z</time>
      </trkpt>
      <trkpt lat="42.529675" lon="-5.440779">
        <ele>800.324</ele>
        <time>2018-06-15T11:27:54Z</time>
      </trkpt>
      <trkpt lat="42.529719" lon="-5.440805">
        <ele>800.747</ele>
        <time>2018-06-15T11:27:55Z</time>
      </trkpt>
      <trkpt lat="42.529762" lon="-5.440833">
        <ele>800.560</ele>
        <time>2018-06-15T11:27:56Z</time>
      </trkpt>
      <trkpt lat="42.529805" lon="-5.440859">
        <ele>800.414</ele>
        <time>2018-06-15T11:27:57Z</time>
      </trkpt>
      <trkpt lat="42.529848" lon="-5.440887">
        <ele>800.773</ele>
        <time>2018-06-15T11:27:58Z</time>
      </trkpt>
      <trkpt lat="42.529892" lon="-5.440918">
        <ele>800.963</ele>
        <time>2018-06-15T11:27:59Z</time>
      </trkpt>
      <trkpt lat="42.529937" lon="-5.440950">
        <ele>801.043</ele>
        <time>2018-06-15T11:28:00Z</time>
      </trkpt>
      <trkpt lat="42.529978" lon="-5.440984">
        <ele>800.743</ele>
        <time>2018-06-15T11:28:01Z</time>
      </trkpt>
      <trkpt lat="42.530060" lon="-5.441040">
        <ele>800.959</ele>
        <time>2018-06-15T11:28:03Z</time>
      </trkpt>
      <trkpt lat="42.530105" lon="-5.441073">
        <ele>801.003</ele>
        <time>2018-06-15T11:28:04Z</time>
      </trkpt>
      <trkpt lat="42.530145" lon="-5.441105">
        <ele>801.123</ele>
        <time>2018-06-15T11:28:05Z</time>
      </trkpt>
      <trkpt lat="42.530188" lon="-5.441137">
        <ele>801.108</ele>
        <time>2018-06-15T11:28:06Z</time>
      </trkpt>
      <trkpt lat="42.530270" lon="-5.441195">
        <ele>801.127</ele>
        <time>2018-06-15T11:28:08Z</time>
      </trkpt>
      <trkpt lat="42.530311" lon="-5.441226">
        <ele>801.140</ele>
        <time>2018-06-15T11:28:09Z</time>
      </trkpt>
      <trkpt lat="42.530384" lon="-5.441281">
        <ele>801.193</ele>
        <time>2018-06-15T11:28:11Z</time>
      </trkpt>
      <trkpt lat="42.530462" lon="-5.441337">
        <ele>801.147</ele>
        <time>2018-06-15T11:28:13Z</time>
      </trkpt>
      <trkpt lat="42.530505" lon="-5.441371">
        <ele>801.176</ele>
        <time>2018-06-15T11:28:14Z</time>
      </trkpt>
      <trkpt lat="42.530580" lon="-5.441431">
        <ele>801.186</ele>
        <time>2018-06-15T11:28:16Z</time>
      </trkpt>
      <trkpt lat="42.530653" lon="-5.441486">
        <ele>801.196</ele>
        <time>2018-06-15T11:28:18Z</time>
      </trkpt>
      <trkpt lat="42.530726" lon="-5.441536">
        <ele>801.166</ele>
        <time>2018-06-15T11:28:20Z</time>
      </trkpt>
      <trkpt lat="42.530799" lon="-5.441593">
        <ele>801.146</ele>
        <time>2018-06-15T11:28:22Z</time>
      </trkpt>
      <trkpt lat="42.530869" lon="-5.441647">
        <ele>801.188</ele>
        <time>2018-06-15T11:28:24Z</time>
      </trkpt>
      <trkpt lat="42.530935" lon="-5.441697">
        <ele>801.516</ele>
        <time>2018-06-15T11:28:26Z</time>
      </trkpt>
      <trkpt lat="42.530992" lon="-5.441735">
        <ele>801.708</ele>
        <time>2018-06-15T11:28:29Z</time>
      </trkpt>
      <trkpt lat="42.531038" lon="-5.441770">
        <ele>801.886</ele>
        <time>2018-06-15T11:28:31Z</time>
      </trkpt>
      <trkpt lat="42.531089" lon="-5.441801">
        <ele>801.929</ele>
        <time>2018-06-15T11:28:33Z</time>
      </trkpt>
      <trkpt lat="42.531140" lon="-5.441813">
        <ele>802.452</ele>
        <time>2018-06-15T11:28:35Z</time>
      </trkpt>
      <trkpt lat="42.531186" lon="-5.441822">
        <ele>802.746</ele>
        <time>2018-06-15T11:28:37Z</time>
      </trkpt>
      <trkpt lat="42.531237" lon="-5.441846">
        <ele>802.965</ele>
        <time>2018-06-15T11:28:39Z</time>
      </trkpt>
      <trkpt lat="42.531285" lon="-5.441875">
        <ele>803.025</ele>
        <time>2018-06-15T11:28:41Z</time>
      </trkpt>
      <trkpt lat="42.531335" lon="-5.441910">
        <ele>803.185</ele>
        <time>2018-06-15T11:28:43Z</time>
      </trkpt>
      <trkpt lat="42.531384" lon="-5.441946">
        <ele>803.115</ele>
        <time>2018-06-15T11:28:45Z</time>
      </trkpt>
      <trkpt lat="42.531433" lon="-5.441983">
        <ele>803.153</ele>
        <time>2018-06-15T11:28:47Z</time>
      </trkpt>
      <trkpt lat="42.531485" lon="-5.442018">
        <ele>803.104</ele>
        <time>2018-06-15T11:28:49Z</time>
      </trkpt>
      <trkpt lat="42.531536" lon="-5.442058">
        <ele>802.714</ele>
        <time>2018-06-15T11:28:51Z</time>
      </trkpt>
      <trkpt lat="42.531596" lon="-5.442106">
        <ele>802.908</ele>
        <time>2018-06-15T11:28:53Z</time>
      </trkpt>
      <trkpt lat="42.531657" lon="-5.442152">
        <ele>803.037</ele>
        <time>2018-06-15T11:28:55Z</time>
      </trkpt>
      <trkpt lat="42.531766" lon="-5.442230">
        <ele>803.160</ele>
        <time>2018-06-15T11:28:57Z</time>
      </trkpt>
      <trkpt lat="42.531832" lon="-5.442275">
        <ele>803.183</ele>
        <time>2018-06-15T11:28:59Z</time>
      </trkpt>
      <trkpt lat="42.531900" lon="-5.442322">
        <ele>803.137</ele>
        <time>2018-06-15T11:29:01Z</time>
      </trkpt>
      <trkpt lat="42.531966" lon="-5.442371">
        <ele>803.126</ele>
        <time>2018-06-15T11:29:03Z</time>
      </trkpt>
      <trkpt lat="42.532034" lon="-5.442417">
        <ele>803.196</ele>
        <time>2018-06-15T11:29:05Z</time>
      </trkpt>
      <trkpt lat="42.532101" lon="-5.442468">
        <ele>803.116</ele>
        <time>2018-06-15T11:29:07Z</time>
      </trkpt>
      <trkpt lat="42.532170" lon="-5.442519">
        <ele>803.186</ele>
        <time>2018-06-15T11:29:09Z</time>
      </trkpt>
      <trkpt lat="42.532239" lon="-5.442569">
        <ele>803.117</ele>
        <time>2018-06-15T11:29:11Z</time>
      </trkpt>
      <trkpt lat="42.532304" lon="-5.442617">
        <ele>803.187</ele>
        <time>2018-06-15T11:29:13Z</time>
      </trkpt>
      <trkpt lat="42.532368" lon="-5.442661">
        <ele>803.115</ele>
        <time>2018-06-15T11:29:15Z</time>
      </trkpt>
      <trkpt lat="42.532413" lon="-5.442698">
        <ele>803.108</ele>
        <time>2018-06-15T11:29:17Z</time>
      </trkpt>
      <trkpt lat="42.532469" lon="-5.442739">
        <ele>802.743</ele>
        <time>2018-06-15T11:29:20Z</time>
      </trkpt>
      <trkpt lat="42.532515" lon="-5.442793">
        <ele>802.996</ele>
        <time>2018-06-15T11:29:23Z</time>
      </trkpt>
      <trkpt lat="42.532515" lon="-5.442880">
        <ele>803.069</ele>
        <time>2018-06-15T11:29:26Z</time>
      </trkpt>
      <trkpt lat="42.532502" lon="-5.442951">
        <ele>802.743</ele>
        <time>2018-06-15T11:29:28Z</time>
      </trkpt>
      <trkpt lat="42.532494" lon="-5.443030">
        <ele>802.562</ele>
        <time>2018-06-15T11:29:30Z</time>
      </trkpt>
      <trkpt lat="42.532498" lon="-5.443107">
        <ele>802.422</ele>
        <time>2018-06-15T11:29:32Z</time>
      </trkpt>
      <trkpt lat="42.532510" lon="-5.443188">
        <ele>801.922</ele>
        <time>2018-06-15T11:29:34Z</time>
      </trkpt>
      <trkpt lat="42.532527" lon="-5.443274">
        <ele>801.672</ele>
        <time>2018-06-15T11:29:36Z</time>
      </trkpt>
      <trkpt lat="42.532544" lon="-5.443359">
        <ele>801.488</ele>
        <time>2018-06-15T11:29:38Z</time>
      </trkpt>
      <trkpt lat="42.532562" lon="-5.443445">
        <ele>801.324</ele>
        <time>2018-06-15T11:29:40Z</time>
      </trkpt>
      <trkpt lat="42.532582" lon="-5.443535">
        <ele>800.826</ele>
        <time>2018-06-15T11:29:42Z</time>
      </trkpt>
      <trkpt lat="42.532607" lon="-5.443621">
        <ele>800.508</ele>
        <time>2018-06-15T11:29:44Z</time>
      </trkpt>
      <trkpt lat="42.532632" lon="-5.443707">
        <ele>800.360</ele>
        <time>2018-06-15T11:29:46Z</time>
      </trkpt>
      <trkpt lat="42.532661" lon="-5.443787">
        <ele>799.853</ele>
        <time>2018-06-15T11:29:48Z</time>
      </trkpt>
      <trkpt lat="42.532698" lon="-5.443867">
        <ele>799.566</ele>
        <time>2018-06-15T11:29:50Z</time>
      </trkpt>
      <trkpt lat="42.532771" lon="-5.444011">
        <ele>799.730</ele>
        <time>2018-06-15T11:29:52Z</time>
      </trkpt>
      <trkpt lat="42.532810" lon="-5.444096">
        <ele>799.869</ele>
        <time>2018-06-15T11:29:54Z</time>
      </trkpt>
      <trkpt lat="42.532844" lon="-5.444182">
        <ele>799.949</ele>
        <time>2018-06-15T11:29:56Z</time>
      </trkpt>
      <trkpt lat="42.532877" lon="-5.444268">
        <ele>799.599</ele>
        <time>2018-06-15T11:29:58Z</time>
      </trkpt>
      <trkpt lat="42.532930" lon="-5.444344">
        <ele>799.369</ele>
        <time>2018-06-15T11:30:00Z</time>
      </trkpt>
      <trkpt lat="42.532990" lon="-5.444405">
        <ele>799.655</ele>
        <time>2018-06-15T11:30:02Z</time>
      </trkpt>
      <trkpt lat="42.533055" lon="-5.444460">
        <ele>799.807</ele>
        <time>2018-06-15T11:30:04Z</time>
      </trkpt>
      <trkpt lat="42.533132" lon="-5.444507">
        <ele>800.317</ele>
        <time>2018-06-15T11:30:06Z</time>
      </trkpt>
      <trkpt lat="42.533206" lon="-5.444556">
        <ele>800.608</ele>
        <time>2018-06-15T11:30:08Z</time>
      </trkpt>
      <trkpt lat="42.533287" lon="-5.444606">
        <ele>800.827</ele>
        <time>2018-06-15T11:30:10Z</time>
      </trkpt>
      <trkpt lat="42.533369" lon="-5.444660">
        <ele>801.380</ele>
        <time>2018-06-15T11:30:12Z</time>
      </trkpt>
      <trkpt lat="42.533448" lon="-5.444711">
        <ele>801.673</ele>
        <time>2018-06-15T11:30:14Z</time>
      </trkpt>
      <trkpt lat="42.533526" lon="-5.444770">
        <ele>802.297</ele>
        <time>2018-06-15T11:30:16Z</time>
      </trkpt>
      <trkpt lat="42.533610" lon="-5.444815">
        <ele>802.566</ele>
        <time>2018-06-15T11:30:18Z</time>
      </trkpt>
      <trkpt lat="42.533654" lon="-5.444839">
        <ele>803.196</ele>
        <time>2018-06-15T11:30:19Z</time>
      </trkpt>
      <trkpt lat="42.533697" lon="-5.444862">
        <ele>803.556</ele>
        <time>2018-06-15T11:30:20Z</time>
      </trkpt>
      <trkpt lat="42.533739" lon="-5.444885">
        <ele>803.766</ele>
        <time>2018-06-15T11:30:21Z</time>
      </trkpt>
      <trkpt lat="42.533783" lon="-5.444904">
        <ele>803.863</ele>
        <time>2018-06-15T11:30:22Z</time>
      </trkpt>
      <trkpt lat="42.533826" lon="-5.444924">
        <ele>804.344</ele>
        <time>2018-06-15T11:30:23Z</time>
      </trkpt>
      <trkpt lat="42.533908" lon="-5.444975">
        <ele>804.618</ele>
        <time>2018-06-15T11:30:25Z</time>
      </trkpt>
      <trkpt lat="42.533982" lon="-5.445017">
        <ele>804.808</ele>
        <time>2018-06-15T11:30:27Z</time>
      </trkpt>
      <trkpt lat="42.534052" lon="-5.445049">
        <ele>805.398</ele>
        <time>2018-06-15T11:30:29Z</time>
      </trkpt>
      <trkpt lat="42.534122" lon="-5.445086">
        <ele>805.671</ele>
        <time>2018-06-15T11:30:31Z</time>
      </trkpt>
      <trkpt lat="42.534185" lon="-5.445153">
        <ele>805.844</ele>
        <time>2018-06-15T11:30:33Z</time>
      </trkpt>
      <trkpt lat="42.534241" lon="-5.445228">
        <ele>806.318</ele>
        <time>2018-06-15T11:30:35Z</time>
      </trkpt>
      <trkpt lat="42.534287" lon="-5.445302">
        <ele>806.667</ele>
        <time>2018-06-15T11:30:37Z</time>
      </trkpt>
      <trkpt lat="42.534334" lon="-5.445370">
        <ele>806.837</ele>
        <time>2018-06-15T11:30:40Z</time>
      </trkpt>
      <trkpt lat="42.534377" lon="-5.445430">
        <ele>806.967</ele>
        <time>2018-06-15T11:30:42Z</time>
      </trkpt>
      <trkpt lat="42.534422" lon="-5.445489">
        <ele>806.637</ele>
        <time>2018-06-15T11:30:44Z</time>
      </trkpt>
      <trkpt lat="42.534471" lon="-5.445545">
        <ele>806.465</ele>
        <time>2018-06-15T11:30:46Z</time>
      </trkpt>
      <trkpt lat="42.534520" lon="-5.445592">
        <ele>805.968</ele>
        <time>2018-06-15T11:30:48Z</time>
      </trkpt>
      <trkpt lat="42.534570" lon="-5.445615">
        <ele>805.614</ele>
        <time>2018-06-15T11:30:50Z</time>
      </trkpt>
      <trkpt lat="42.534623" lon="-5.445618">
        <ele>805.408</ele>
        <time>2018-06-15T11:30:52Z</time>
      </trkpt>
      <trkpt lat="42.534686" lon="-5.445608">
        <ele>805.378</ele>
        <time>2018-06-15T11:30:55Z</time>
      </trkpt>
      <trkpt lat="42.534731" lon="-5.445600">
        <ele>805.651</ele>
        <time>2018-06-15T11:30:57Z</time>
      </trkpt>
      <trkpt lat="42.534785" lon="-5.445577">
        <ele>805.844</ele>
        <time>2018-06-15T11:30:59Z</time>
      </trkpt>
      <trkpt lat="42.534827" lon="-5.445520">
        <ele>806.318</ele>
        <time>2018-06-15T11:31:01Z</time>
      </trkpt>
      <trkpt lat="42.534851" lon="-5.445446">
        <ele>806.617</ele>
        <time>2018-06-15T11:31:03Z</time>
      </trkpt>
      <trkpt lat="42.534870" lon="-5.445376">
        <ele>806.477</ele>
        <time>2018-06-15T11:31:05Z</time>
      </trkpt>
      <trkpt lat="42.534896" lon="-5.445309">
        <ele>806.727</ele>
        <time>2018-06-15T11:31:07Z</time>
      </trkpt>
      <trkpt lat="42.534923" lon="-5.445241">
        <ele>806.977</ele>
        <time>2018-06-15T11:31:09Z</time>
      </trkpt>
      <trkpt lat="42.534960" lon="-5.445188">
        <ele>807.471</ele>
        <time>2018-06-15T11:31:11Z</time>
      </trkpt>
      <trkpt lat="42.535001" lon="-5.445142">
        <ele>807.741</ele>
        <time>2018-06-15T11:31:13Z</time>
      </trkpt>
      <trkpt lat="42.535043" lon="-5.445092">
        <ele>807.915</ele>
        <time>2018-06-15T11:31:15Z</time>
      </trkpt>
      <trkpt lat="42.535093" lon="-5.445038">
        <ele>808.008</ele>
        <time>2018-06-15T11:31:17Z</time>
      </trkpt>
      <trkpt lat="42.535145" lon="-5.444986">
        <ele>808.599</ele>
        <time>2018-06-15T11:31:19Z</time>
      </trkpt>
      <trkpt lat="42.535195" lon="-5.444934">
        <ele>808.862</ele>
        <time>2018-06-15T11:31:21Z</time>
      </trkpt>
      <trkpt lat="42.535237" lon="-5.444876">
        <ele>809.095</ele>
        <time>2018-06-15T11:31:23Z</time>
      </trkpt>
      <trkpt lat="42.535278" lon="-5.444837">
        <ele>809.119</ele>
        <time>2018-06-15T11:31:25Z</time>
      </trkpt>
      <trkpt lat="42.535324" lon="-5.444831">
        <ele>809.228</ele>
        <time>2018-06-15T11:31:27Z</time>
      </trkpt>
      <trkpt lat="42.535375" lon="-5.444849">
        <ele>809.298</ele>
        <time>2018-06-15T11:31:29Z</time>
      </trkpt>
      <trkpt lat="42.535432" lon="-5.444881">
        <ele>809.238</ele>
        <time>2018-06-15T11:31:31Z</time>
      </trkpt>
      <trkpt lat="42.535484" lon="-5.444918">
        <ele>809.278</ele>
        <time>2018-06-15T11:31:33Z</time>
      </trkpt>
      <trkpt lat="42.535537" lon="-5.444960">
        <ele>809.266</ele>
        <time>2018-06-15T11:31:35Z</time>
      </trkpt>
      <trkpt lat="42.535595" lon="-5.445003">
        <ele>808.829</ele>
        <time>2018-06-15T11:31:37Z</time>
      </trkpt>
      <trkpt lat="42.535662" lon="-5.445056">
        <ele>808.221</ele>
        <time>2018-06-15T11:31:39Z</time>
      </trkpt>
      <trkpt lat="42.535745" lon="-5.445127">
        <ele>807.808</ele>
        <time>2018-06-15T11:31:40Z</time>
      </trkpt>
      <trkpt lat="42.535819" lon="-5.445189">
        <ele>807.288</ele>
        <time>2018-06-15T11:31:42Z</time>
      </trkpt>
      <trkpt lat="42.535859" lon="-5.445223">
        <ele>806.411</ele>
        <time>2018-06-15T11:31:43Z</time>
      </trkpt>
      <trkpt lat="42.535898" lon="-5.445256">
        <ele>805.994</ele>
        <time>2018-06-15T11:31:44Z</time>
      </trkpt>
      <trkpt lat="42.535937" lon="-5.445288">
        <ele>805.698</ele>
        <time>2018-06-15T11:31:45Z</time>
      </trkpt>
      <trkpt lat="42.535978" lon="-5.445314">
        <ele>805.417</ele>
        <time>2018-06-15T11:31:46Z</time>
      </trkpt>
      <trkpt lat="42.536020" lon="-5.445342">
        <ele>805.357</ele>
        <time>2018-06-15T11:31:47Z</time>
      </trkpt>
      <trkpt lat="42.536060" lon="-5.445373">
        <ele>804.887</ele>
        <time>2018-06-15T11:31:48Z</time>
      </trkpt>
      <trkpt lat="42.536100" lon="-5.445406">
        <ele>804.537</ele>
        <time>2018-06-15T11:31:49Z</time>
      </trkpt>
      <trkpt lat="42.536140" lon="-5.445437">
        <ele>804.363</ele>
        <time>2018-06-15T11:31:50Z</time>
      </trkpt>
      <trkpt lat="42.536182" lon="-5.445470">
        <ele>803.844</ele>
        <time>2018-06-15T11:31:51Z</time>
      </trkpt>
      <trkpt lat="42.536226" lon="-5.445500">
        <ele>803.518</ele>
        <time>2018-06-15T11:31:52Z</time>
      </trkpt>
      <trkpt lat="42.536267" lon="-5.445533">
        <ele>803.308</ele>
        <time>2018-06-15T11:31:53Z</time>
      </trkpt>
      <trkpt lat="42.536308" lon="-5.445564">
        <ele>803.228</ele>
        <time>2018-06-15T11:31:54Z</time>
      </trkpt>
      <trkpt lat="42.536350" lon="-5.445594">
        <ele>803.121</ele>
        <time>2018-06-15T11:31:55Z</time>
      </trkpt>
      <trkpt lat="42.536393" lon="-5.445623">
        <ele>803.194</ele>
        <time>2018-06-15T11:31:56Z</time>
      </trkpt>
      <trkpt lat="42.536435" lon="-5.445655">
        <ele>803.148</ele>
        <time>2018-06-15T11:31:57Z</time>
      </trkpt>
      <trkpt lat="42.536477" lon="-5.445686">
        <ele>803.147</ele>
        <time>2018-06-15T11:31:58Z</time>
      </trkpt>
      <trkpt lat="42.536518" lon="-5.445717">
        <ele>803.177</ele>
        <time>2018-06-15T11:31:59Z</time>
      </trkpt>
      <trkpt lat="42.536560" lon="-5.445750">
        <ele>803.117</ele>
        <time>2018-06-15T11:32:00Z</time>
      </trkpt>
      <trkpt lat="42.536601" lon="-5.445779">
        <ele>803.127</ele>
        <time>2018-06-15T11:32:01Z</time>
      </trkpt>
      <trkpt lat="42.536642" lon="-5.445809">
        <ele>802.788</ele>
        <time>2018-06-15T11:32:02Z</time>
      </trkpt>
      <trkpt lat="42.536720" lon="-5.445869">
        <ele>802.524</ele>
        <time>2018-06-15T11:32:04Z</time>
      </trkpt>
      <trkpt lat="42.536761" lon="-5.445896">
        <ele>802.426</ele>
        <time>2018-06-15T11:32:05Z</time>
      </trkpt>
      <trkpt lat="42.536803" lon="-5.445921">
        <ele>802.308</ele>
        <time>2018-06-15T11:32:06Z</time>
      </trkpt>
      <trkpt lat="42.536845" lon="-5.445948">
        <ele>802.210</ele>
        <time>2018-06-15T11:32:07Z</time>
      </trkpt>
      <trkpt lat="42.536887" lon="-5.445981">
        <ele>802.213</ele>
        <time>2018-06-15T11:32:08Z</time>
      </trkpt>
      <trkpt lat="42.536929" lon="-5.446017">
        <ele>802.226</ele>
        <time>2018-06-15T11:32:09Z</time>
      </trkpt>
      <trkpt lat="42.536974" lon="-5.446052">
        <ele>802.640</ele>
        <time>2018-06-15T11:32:10Z</time>
      </trkpt>
      <trkpt lat="42.537015" lon="-5.446079">
        <ele>802.899</ele>
        <time>2018-06-15T11:32:11Z</time>
      </trkpt>
      <trkpt lat="42.537057" lon="-5.446109">
        <ele>802.969</ele>
        <time>2018-06-15T11:32:12Z</time>
      </trkpt>
      <trkpt lat="42.537097" lon="-5.446139">
        <ele>803.059</ele>
        <time>2018-06-15T11:32:13Z</time>
      </trkpt>
      <trkpt lat="42.537139" lon="-5.446168">
        <ele>803.119</ele>
        <time>2018-06-15T11:32:14Z</time>
      </trkpt>
      <trkpt lat="42.537218" lon="-5.446226">
        <ele>803.195</ele>
        <time>2018-06-15T11:32:16Z</time>
      </trkpt>
      <trkpt lat="42.537258" lon="-5.446257">
        <ele>803.149</ele>
        <time>2018-06-15T11:32:17Z</time>
      </trkpt>
      <trkpt lat="42.537301" lon="-5.446284">
        <ele>803.123</ele>
        <time>2018-06-15T11:32:18Z</time>
      </trkpt>
      <trkpt lat="42.537343" lon="-5.446312">
        <ele>803.108</ele>
        <time>2018-06-15T11:32:19Z</time>
      </trkpt>
      <trkpt lat="42.537385" lon="-5.446343">
        <ele>803.511</ele>
        <time>2018-06-15T11:32:20Z</time>
      </trkpt>
      <trkpt lat="42.537427" lon="-5.446378">
        <ele>803.734</ele>
        <time>2018-06-15T11:32:21Z</time>
      </trkpt>
      <trkpt lat="42.537469" lon="-5.446410">
        <ele>803.817</ele>
        <time>2018-06-15T11:32:22Z</time>
      </trkpt>
      <trkpt lat="42.537510" lon="-5.446438">
        <ele>803.911</ele>
        <time>2018-06-15T11:32:23Z</time>
      </trkpt>
      <trkpt lat="42.537553" lon="-5.446468">
        <ele>804.010</ele>
        <time>2018-06-15T11:32:24Z</time>
      </trkpt>
      <trkpt lat="42.537592" lon="-5.446499">
        <ele>804.070</ele>
        <time>2018-06-15T11:32:25Z</time>
      </trkpt>
      <trkpt lat="42.537632" lon="-5.446538">
        <ele>803.690</ele>
        <time>2018-06-15T11:32:26Z</time>
      </trkpt>
      <trkpt lat="42.537695" lon="-5.446631">
        <ele>803.410</ele>
        <time>2018-06-15T11:32:28Z</time>
      </trkpt>
      <trkpt lat="42.537719" lon="-5.446687">
        <ele>802.926</ele>
        <time>2018-06-15T11:32:29Z</time>
      </trkpt>
      <trkpt lat="42.537752" lon="-5.446738">
        <ele>802.647</ele>
        <time>2018-06-15T11:32:30Z</time>
      </trkpt>
      <trkpt lat="42.537799" lon="-5.446778">
        <ele>802.411</ele>
        <time>2018-06-15T11:32:31Z</time>
      </trkpt>
      <trkpt lat="42.537841" lon="-5.446817">
        <ele>801.908</ele>
        <time>2018-06-15T11:32:32Z</time>
      </trkpt>
      <trkpt lat="42.537884" lon="-5.446853">
        <ele>801.614</ele>
        <time>2018-06-15T11:32:33Z</time>
      </trkpt>
      <trkpt lat="42.537929" lon="-5.446886">
        <ele>801.497</ele>
        <time>2018-06-15T11:32:34Z</time>
      </trkpt>
      <trkpt lat="42.537973" lon="-5.446918">
        <ele>800.920</ele>
        <time>2018-06-15T11:32:35Z</time>
      </trkpt>
      <trkpt lat="42.538016" lon="-5.446950">
        <ele>800.674</ele>
        <time>2018-06-15T11:32:36Z</time>
      </trkpt>
      <trkpt lat="42.538059" lon="-5.446988">
        <ele>800.493</ele>
        <time>2018-06-15T11:32:37Z</time>
      </trkpt>
      <trkpt lat="42.538103" lon="-5.447023">
        <ele>799.973</ele>
        <time>2018-06-15T11:32:38Z</time>
      </trkpt>
      <trkpt lat="42.538148" lon="-5.447058">
        <ele>799.653</ele>
        <time>2018-06-15T11:32:39Z</time>
      </trkpt>
      <trkpt lat="42.538194" lon="-5.447089">
        <ele>799.423</ele>
        <time>2018-06-15T11:32:40Z</time>
      </trkpt>
      <trkpt lat="42.538239" lon="-5.447120">
        <ele>799.326</ele>
        <time>2018-06-15T11:32:41Z</time>
      </trkpt>
      <trkpt lat="42.538282" lon="-5.447149">
        <ele>799.247</ele>
        <time>2018-06-15T11:32:42Z</time>
      </trkpt>
      <trkpt lat="42.538328" lon="-5.447177">
        <ele>799.211</ele>
        <time>2018-06-15T11:32:43Z</time>
      </trkpt>
      <trkpt lat="42.538367" lon="-5.447209">
        <ele>799.208</ele>
        <time>2018-06-15T11:32:44Z</time>
      </trkpt>
      <trkpt lat="42.538410" lon="-5.447239">
        <ele>799.224</ele>
        <time>2018-06-15T11:32:45Z</time>
      </trkpt>
      <trkpt lat="42.538454" lon="-5.447267">
        <ele>799.267</ele>
        <time>2018-06-15T11:32:46Z</time>
      </trkpt>
      <trkpt lat="42.538497" lon="-5.447295">
        <ele>798.880</ele>
        <time>2018-06-15T11:32:47Z</time>
      </trkpt>
      <trkpt lat="42.538538" lon="-5.447329">
        <ele>798.644</ele>
        <time>2018-06-15T11:32:48Z</time>
      </trkpt>
      <trkpt lat="42.538580" lon="-5.447361">
        <ele>798.593</ele>
        <time>2018-06-15T11:32:49Z</time>
      </trkpt>
      <trkpt lat="42.538622" lon="-5.447384">
        <ele>798.823</ele>
        <time>2018-06-15T11:32:50Z</time>
      </trkpt>
      <trkpt lat="42.538663" lon="-5.447412">
        <ele>798.653</ele>
        <time>2018-06-15T11:32:51Z</time>
      </trkpt>
      <trkpt lat="42.538706" lon="-5.447440">
        <ele>798.583</ele>
        <time>2018-06-15T11:32:52Z</time>
      </trkpt>
      <trkpt lat="42.538751" lon="-5.447471">
        <ele>798.836</ele>
        <time>2018-06-15T11:32:53Z</time>
      </trkpt>
      <trkpt lat="42.538794" lon="-5.447496">
        <ele>799.017</ele>
        <time>2018-06-15T11:32:54Z</time>
      </trkpt>
      <trkpt lat="42.538872" lon="-5.447561">
        <ele>799.118</ele>
        <time>2018-06-15T11:32:56Z</time>
      </trkpt>
      <trkpt lat="42.538915" lon="-5.447592">
        <ele>798.808</ele>
        <time>2018-06-15T11:32:57Z</time>
      </trkpt>
      <trkpt lat="42.538996" lon="-5.447651">
        <ele>798.645</ele>
        <time>2018-06-15T11:32:59Z</time>
      </trkpt>
      <trkpt lat="42.539038" lon="-5.447684">
        <ele>798.548</ele>
        <time>2018-06-15T11:33:00Z</time>
      </trkpt>
      <trkpt lat="42.539080" lon="-5.447717">
        <ele>798.411</ele>
        <time>2018-06-15T11:33:01Z</time>
      </trkpt>
      <trkpt lat="42.539122" lon="-5.447752">
        <ele>798.475</ele>
        <time>2018-06-15T11:33:02Z</time>
      </trkpt>
      <trkpt lat="42.539167" lon="-5.447784">
        <ele>798.454</ele>
        <time>2018-06-15T11:33:03Z</time>
      </trkpt>
      <trkpt lat="42.539207" lon="-5.447813">
        <ele>798.444</ele>
        <time>2018-06-15T11:33:04Z</time>
      </trkpt>
      <trkpt lat="42.539248" lon="-5.447847">
        <ele>798.044</ele>
        <time>2018-06-15T11:33:05Z</time>
      </trkpt>
      <trkpt lat="42.539327" lon="-5.447906">
        <ele>797.864</ele>
        <time>2018-06-15T11:33:07Z</time>
      </trkpt>
      <trkpt lat="42.539367" lon="-5.447935">
        <ele>797.767</ele>
        <time>2018-06-15T11:33:08Z</time>
      </trkpt>
      <trkpt lat="42.539409" lon="-5.447966">
        <ele>798.081</ele>
        <time>2018-06-15T11:33:09Z</time>
      </trkpt>
      <trkpt lat="42.539452" lon="-5.447996">
        <ele>798.219</ele>
        <time>2018-06-15T11:33:10Z</time>
      </trkpt>
      <trkpt lat="42.539493" lon="-5.448026">
        <ele>798.308</ele>
        <time>2018-06-15T11:33:11Z</time>
      </trkpt>
      <trkpt lat="42.539535" lon="-5.448056">
        <ele>798.458</ele>
        <time>2018-06-15T11:33:12Z</time>
      </trkpt>
      <trkpt lat="42.539575" lon="-5.448084">
        <ele>798.491</ele>
        <time>2018-06-15T11:33:13Z</time>
      </trkpt>
      <trkpt lat="42.539620" lon="-5.448117">
        <ele>798.864</ele>
        <time>2018-06-15T11:33:14Z</time>
      </trkpt>
      <trkpt lat="42.539661" lon="-5.448145">
        <ele>799.168</ele>
        <time>2018-06-15T11:33:15Z</time>
      </trkpt>
      <trkpt lat="42.539700" lon="-5.448176">
        <ele>799.387</ele>
        <time>2018-06-15T11:33:16Z</time>
      </trkpt>
      <trkpt lat="42.539779" lon="-5.448218">
        <ele>799.437</ele>
        <time>2018-06-15T11:33:18Z</time>
      </trkpt>
      <trkpt lat="42.539827" lon="-5.448250">
        <ele>799.527</ele>
        <time>2018-06-15T11:33:19Z</time>
      </trkpt>
      <trkpt lat="42.539876" lon="-5.448292">
        <ele>799.977</ele>
        <time>2018-06-15T11:33:20Z</time>
      </trkpt>
      <trkpt lat="42.539956" lon="-5.448348">
        <ele>800.214</ele>
        <time>2018-06-15T11:33:22Z</time>
      </trkpt>
      <trkpt lat="42.540000" lon="-5.448379">
        <ele>800.454</ele>
        <time>2018-06-15T11:33:23Z</time>
      </trkpt>
      <trkpt lat="42.540044" lon="-5.448412">
        <ele>800.509</ele>
        <time>2018-06-15T11:33:24Z</time>
      </trkpt>
      <trkpt lat="42.540086" lon="-5.448448">
        <ele>800.208</ele>
        <time>2018-06-15T11:33:25Z</time>
      </trkpt>
      <trkpt lat="42.540125" lon="-5.448481">
        <ele>800.053</ele>
        <time>2018-06-15T11:33:26Z</time>
      </trkpt>
      <trkpt lat="42.540164" lon="-5.448518">
        <ele>799.556</ele>
        <time>2018-06-15T11:33:27Z</time>
      </trkpt>
      <trkpt lat="42.540205" lon="-5.448550">
        <ele>799.219</ele>
        <time>2018-06-15T11:33:28Z</time>
      </trkpt>
      <trkpt lat="42.540251" lon="-5.448585">
        <ele>799.023</ele>
        <time>2018-06-15T11:33:29Z</time>
      </trkpt>
      <trkpt lat="42.540293" lon="-5.448620">
        <ele>799.322</ele>
        <time>2018-06-15T11:33:30Z</time>
      </trkpt>
      <trkpt lat="42.540334" lon="-5.448647">
        <ele>799.572</ele>
        <time>2018-06-15T11:33:31Z</time>
      </trkpt>
      <trkpt lat="42.540374" lon="-5.448679">
        <ele>799.642</ele>
        <time>2018-06-15T11:33:32Z</time>
      </trkpt>
      <trkpt lat="42.540412" lon="-5.448714">
        <ele>799.742</ele>
        <time>2018-06-15T11:33:33Z</time>
      </trkpt>
      <trkpt lat="42.540452" lon="-5.448743">
        <ele>799.762</ele>
        <time>2018-06-15T11:33:34Z</time>
      </trkpt>
      <trkpt lat="42.540503" lon="-5.448761">
        <ele>799.383</ele>
        <time>2018-06-15T11:33:35Z</time>
      </trkpt>
      <trkpt lat="42.540548" lon="-5.448801">
        <ele>799.111</ele>
        <time>2018-06-15T11:33:36Z</time>
      </trkpt>
      <trkpt lat="42.540591" lon="-5.448836">
        <ele>799.008</ele>
        <time>2018-06-15T11:33:37Z</time>
      </trkpt>
      <trkpt lat="42.540633" lon="-5.448871">
        <ele>798.928</ele>
        <time>2018-06-15T11:33:38Z</time>
      </trkpt>
      <trkpt lat="42.540676" lon="-5.448908">
        <ele>798.911</ele>
        <time>2018-06-15T11:33:39Z</time>
      </trkpt>
      <trkpt lat="42.540721" lon="-5.448947">
        <ele>798.974</ele>
        <time>2018-06-15T11:33:40Z</time>
      </trkpt>
      <trkpt lat="42.540765" lon="-5.448984">
        <ele>798.978</ele>
        <time>2018-06-15T11:33:41Z</time>
      </trkpt>
      <trkpt lat="42.540810" lon="-5.449014">
        <ele>798.977</ele>
        <time>2018-06-15T11:33:42Z</time>
      </trkpt>
      <trkpt lat="42.540853" lon="-5.449039">
        <ele>799.347</ele>
        <time>2018-06-15T11:33:43Z</time>
      </trkpt>
      <trkpt lat="42.540895" lon="-5.449065">
        <ele>799.577</ele>
        <time>2018-06-15T11:33:44Z</time>
      </trkpt>
      <trkpt lat="42.540977" lon="-5.449096">
        <ele>800.097</ele>
        <time>2018-06-15T11:33:46Z</time>
      </trkpt>
      <trkpt lat="42.541022" lon="-5.449103">
        <ele>800.366</ele>
        <time>2018-06-15T11:33:47Z</time>
      </trkpt>
      <trkpt lat="42.541083" lon="-5.449107">
        <ele>801.329</ele>
        <time>2018-06-15T11:33:49Z</time>
      </trkpt>
      <trkpt lat="42.541147" lon="-5.449129">
        <ele>802.321</ele>
        <time>2018-06-15T11:33:52Z</time>
      </trkpt>
      <trkpt lat="42.541222" lon="-5.449167">
        <ele>802.508</ele>
        <time>2018-06-15T11:33:53Z</time>
      </trkpt>
      <trkpt lat="42.541300" lon="-5.449218">
        <ele>802.648</ele>
        <time>2018-06-15T11:33:55Z</time>
      </trkpt>
      <trkpt lat="42.541375" lon="-5.449279">
        <ele>802.781</ele>
        <time>2018-06-15T11:33:57Z</time>
      </trkpt>
      <trkpt lat="42.541449" lon="-5.449334">
        <ele>802.794</ele>
        <time>2018-06-15T11:33:59Z</time>
      </trkpt>
      <trkpt lat="42.541525" lon="-5.449391">
        <ele>802.728</ele>
        <time>2018-06-15T11:34:01Z</time>
      </trkpt>
      <trkpt lat="42.541599" lon="-5.449453">
        <ele>802.767</ele>
        <time>2018-06-15T11:34:03Z</time>
      </trkpt>
      <trkpt lat="42.541674" lon="-5.449516">
        <ele>802.757</ele>
        <time>2018-06-15T11:34:05Z</time>
      </trkpt>
      <trkpt lat="42.541709" lon="-5.449561">
        <ele>802.757</ele>
        <time>2018-06-15T11:34:06Z</time>
      </trkpt>
      <trkpt lat="42.541766" lon="-5.449651">
        <ele>802.777</ele>
        <time>2018-06-15T11:34:08Z</time>
      </trkpt>
      <trkpt lat="42.541804" lon="-5.449689">
        <ele>802.722</ele>
        <time>2018-06-15T11:34:09Z</time>
      </trkpt>
      <trkpt lat="42.541846" lon="-5.449736">
        <ele>802.762</ele>
        <time>2018-06-15T11:34:10Z</time>
      </trkpt>
      <trkpt lat="42.541887" lon="-5.449783">
        <ele>802.308</ele>
        <time>2018-06-15T11:34:11Z</time>
      </trkpt>
      <trkpt lat="42.541928" lon="-5.449827">
        <ele>802.108</ele>
        <time>2018-06-15T11:34:12Z</time>
      </trkpt>
      <trkpt lat="42.541966" lon="-5.449883">
        <ele>802.444</ele>
        <time>2018-06-15T11:34:13Z</time>
      </trkpt>
      <trkpt lat="42.542008" lon="-5.449923">
        <ele>802.657</ele>
        <time>2018-06-15T11:34:14Z</time>
      </trkpt>
      <trkpt lat="42.542050" lon="-5.449965">
        <ele>802.730</ele>
        <time>2018-06-15T11:34:15Z</time>
      </trkpt>
      <trkpt lat="42.542091" lon="-5.450009">
        <ele>802.834</ele>
        <time>2018-06-15T11:34:16Z</time>
      </trkpt>
      <trkpt lat="42.542134" lon="-5.450052">
        <ele>802.873</ele>
        <time>2018-06-15T11:34:17Z</time>
      </trkpt>
      <trkpt lat="42.542175" lon="-5.450101">
        <ele>802.833</ele>
        <time>2018-06-15T11:34:18Z</time>
      </trkpt>
      <trkpt lat="42.542208" lon="-5.450150">
        <ele>802.483</ele>
        <time>2018-06-15T11:34:19Z</time>
      </trkpt>
      <trkpt lat="42.542253" lon="-5.450196">
        <ele>802.653</ele>
        <time>2018-06-15T11:34:20Z</time>
      </trkpt>
      <trkpt lat="42.542295" lon="-5.450243">
        <ele>802.746</ele>
        <time>2018-06-15T11:34:21Z</time>
      </trkpt>
      <trkpt lat="42.542337" lon="-5.450292">
        <ele>802.888</ele>
        <time>2018-06-15T11:34:22Z</time>
      </trkpt>
      <trkpt lat="42.542377" lon="-5.450336">
        <ele>802.816</ele>
        <time>2018-06-15T11:34:23Z</time>
      </trkpt>
      <trkpt lat="42.542421" lon="-5.450374">
        <ele>802.808</ele>
        <time>2018-06-15T11:34:24Z</time>
      </trkpt>
      <trkpt lat="42.542463" lon="-5.450430">
        <ele>803.256</ele>
        <time>2018-06-15T11:34:25Z</time>
      </trkpt>
      <trkpt lat="42.542512" lon="-5.450451">
        <ele>803.479</ele>
        <time>2018-06-15T11:34:26Z</time>
      </trkpt>
      <trkpt lat="42.542557" lon="-5.450490">
        <ele>803.112</ele>
        <time>2018-06-15T11:34:27Z</time>
      </trkpt>
      <trkpt lat="42.542610" lon="-5.450516">
        <ele>802.596</ele>
        <time>2018-06-15T11:34:28Z</time>
      </trkpt>
      <trkpt lat="42.542681" lon="-5.450578">
        <ele>802.215</ele>
        <time>2018-06-15T11:34:30Z</time>
      </trkpt>
      <trkpt lat="42.542732" lon="-5.450634">
        <ele>802.495</ele>
        <time>2018-06-15T11:34:31Z</time>
      </trkpt>
      <trkpt lat="42.542747" lon="-5.450704">
        <ele>802.555</ele>
        <time>2018-06-15T11:34:32Z</time>
      </trkpt>
      <trkpt lat="42.542762" lon="-5.450787">
        <ele>802.295</ele>
        <time>2018-06-15T11:34:33Z</time>
      </trkpt>
      <trkpt lat="42.542763" lon="-5.450857">
        <ele>802.023</ele>
        <time>2018-06-15T11:34:34Z</time>
      </trkpt>
      <trkpt lat="42.542770" lon="-5.450968">
        <ele>801.183</ele>
        <time>2018-06-15T11:34:36Z</time>
      </trkpt>
      <trkpt lat="42.542753" lon="-5.451049">
        <ele>799.711</ele>
        <time>2018-06-15T11:34:38Z</time>
      </trkpt>
      <trkpt lat="42.542736" lon="-5.451143">
        <ele>798.908</ele>
        <time>2018-06-15T11:34:41Z</time>
      </trkpt>
      <trkpt lat="42.542722" lon="-5.451205">
        <ele>798.854</ele>
        <time>2018-06-15T11:34:43Z</time>
      </trkpt>
      <trkpt lat="42.542714" lon="-5.451287">
        <ele>798.757</ele>
        <time>2018-06-15T11:34:46Z</time>
      </trkpt>
      <trkpt lat="42.542753" lon="-5.451357">
        <ele>798.750</ele>
        <time>2018-06-15T11:34:49Z</time>
      </trkpt>
      <trkpt lat="42.542800" lon="-5.451417">
        <ele>799.174</ele>
        <time>2018-06-15T11:34:51Z</time>
      </trkpt>
      <trkpt lat="42.542871" lon="-5.451502">
        <ele>799.393</ele>
        <time>2018-06-15T11:34:52Z</time>
      </trkpt>
      <trkpt lat="42.542933" lon="-5.451569">
        <ele>799.053</ele>
        <time>2018-06-15T11:34:54Z</time>
      </trkpt>
      <trkpt lat="42.542977" lon="-5.451619">
        <ele>799.293</ele>
        <time>2018-06-15T11:34:56Z</time>
      </trkpt>
      <trkpt lat="42.543011" lon="-5.451660">
        <ele>799.313</ele>
        <time>2018-06-15T11:34:58Z</time>
      </trkpt>
      <trkpt lat="42.543049" lon="-5.451709">
        <ele>799.462</ele>
        <time>2018-06-15T11:35:00Z</time>
      </trkpt>
      <trkpt lat="42.543086" lon="-5.451774">
        <ele>799.583</ele>
        <time>2018-06-15T11:35:02Z</time>
      </trkpt>
      <trkpt lat="42.543163" lon="-5.451910">
        <ele>799.511</ele>
        <time>2018-06-15T11:35:04Z</time>
      </trkpt>
      <trkpt lat="42.543206" lon="-5.452007">
        <ele>799.108</ele>
        <time>2018-06-15T11:35:06Z</time>
      </trkpt>
      <trkpt lat="42.543247" lon="-5.452123">
        <ele>798.598</ele>
        <time>2018-06-15T11:35:08Z</time>
      </trkpt>
      <trkpt lat="42.543270" lon="-5.452189">
        <ele>798.581</ele>
        <time>2018-06-15T11:35:09Z</time>
      </trkpt>
      <trkpt lat="42.543295" lon="-5.452249">
        <ele>798.534</ele>
        <time>2018-06-15T11:35:10Z</time>
      </trkpt>
      <trkpt lat="42.543319" lon="-5.452308">
        <ele>798.978</ele>
        <time>2018-06-15T11:35:11Z</time>
      </trkpt>
      <trkpt lat="42.543342" lon="-5.452367">
        <ele>799.137</ele>
        <time>2018-06-15T11:35:12Z</time>
      </trkpt>
      <trkpt lat="42.543360" lon="-5.452426">
        <ele>799.267</ele>
        <time>2018-06-15T11:35:13Z</time>
      </trkpt>
      <trkpt lat="42.543377" lon="-5.452484">
        <ele>799.357</ele>
        <time>2018-06-15T11:35:14Z</time>
      </trkpt>
      <trkpt lat="42.543392" lon="-5.452545">
        <ele>799.417</ele>
        <time>2018-06-15T11:35:15Z</time>
      </trkpt>
      <trkpt lat="42.543409" lon="-5.452607">
        <ele>799.425</ele>
        <time>2018-06-15T11:35:16Z</time>
      </trkpt>
      <trkpt lat="42.543421" lon="-5.452668">
        <ele>799.426</ele>
        <time>2018-06-15T11:35:17Z</time>
      </trkpt>
      <trkpt lat="42.543429" lon="-5.452731">
        <ele>799.408</ele>
        <time>2018-06-15T11:35:18Z</time>
      </trkpt>
      <trkpt lat="42.543440" lon="-5.452793">
        <ele>799.408</ele>
        <time>2018-06-15T11:35:19Z</time>
      </trkpt>
      <trkpt lat="42.543469" lon="-5.452906">
        <ele>799.494</ele>
        <time>2018-06-15T11:35:21Z</time>
      </trkpt>
      <trkpt lat="42.543483" lon="-5.452964">
        <ele>799.427</ele>
        <time>2018-06-15T11:35:22Z</time>
      </trkpt>
      <trkpt lat="42.543494" lon="-5.453029">
        <ele>799.440</ele>
        <time>2018-06-15T11:35:23Z</time>
      </trkpt>
      <trkpt lat="42.543501" lon="-5.453094">
        <ele>799.444</ele>
        <time>2018-06-15T11:35:24Z</time>
      </trkpt>
      <trkpt lat="42.543511" lon="-5.453161">
        <ele>799.013</ele>
        <time>2018-06-15T11:35:25Z</time>
      </trkpt>
      <trkpt lat="42.543525" lon="-5.453222">
        <ele>798.863</ele>
        <time>2018-06-15T11:35:26Z</time>
      </trkpt>
      <trkpt lat="42.543541" lon="-5.453287">
        <ele>798.733</ele>
        <time>2018-06-15T11:35:27Z</time>
      </trkpt>
      <trkpt lat="42.543552" lon="-5.453349">
        <ele>798.663</ele>
        <time>2018-06-15T11:35:28Z</time>
      </trkpt>
      <trkpt lat="42.543563" lon="-5.453410">
        <ele>798.518</ele>
        <time>2018-06-15T11:35:29Z</time>
      </trkpt>
      <trkpt lat="42.543589" lon="-5.453524">
        <ele>798.598</ele>
        <time>2018-06-15T11:35:31Z</time>
      </trkpt>
      <trkpt lat="42.543636" lon="-5.453616">
        <ele>798.517</ele>
        <time>2018-06-15T11:35:33Z</time>
      </trkpt>
      <trkpt lat="42.543670" lon="-5.453678">
        <ele>798.908</ele>
        <time>2018-06-15T11:35:35Z</time>
      </trkpt>
      <trkpt lat="42.543691" lon="-5.453737">
        <ele>799.163</ele>
        <time>2018-06-15T11:35:37Z</time>
      </trkpt>
      <trkpt lat="42.543716" lon="-5.453805">
        <ele>799.646</ele>
        <time>2018-06-15T11:35:39Z</time>
      </trkpt>
      <trkpt lat="42.543758" lon="-5.453916">
        <ele>799.959</ele>
        <time>2018-06-15T11:35:40Z</time>
      </trkpt>
      <trkpt lat="42.543790" lon="-5.454014">
        <ele>800.553</ele>
        <time>2018-06-15T11:35:42Z</time>
      </trkpt>
      <trkpt lat="42.543810" lon="-5.454111">
        <ele>800.952</ele>
        <time>2018-06-15T11:35:44Z</time>
      </trkpt>
      <trkpt lat="42.543829" lon="-5.454192">
        <ele>801.542</ele>
        <time>2018-06-15T11:35:47Z</time>
      </trkpt>
      <trkpt lat="42.543842" lon="-5.454256">
        <ele>801.962</ele>
        <time>2018-06-15T11:35:49Z</time>
      </trkpt>
      <trkpt lat="42.543855" lon="-5.454321">
        <ele>802.592</ele>
        <time>2018-06-15T11:35:51Z</time>
      </trkpt>
      <trkpt lat="42.543867" lon="-5.454386">
        <ele>803.362</ele>
        <time>2018-06-15T11:35:53Z</time>
      </trkpt>
      <trkpt lat="42.543874" lon="-5.454454">
        <ele>803.883</ele>
        <time>2018-06-15T11:35:55Z</time>
      </trkpt>
      <trkpt lat="42.543884" lon="-5.454515">
        <ele>804.111</ele>
        <time>2018-06-15T11:35:57Z</time>
      </trkpt>
      <trkpt lat="42.543909" lon="-5.454566">
        <ele>804.708</ele>
        <time>2018-06-15T11:35:59Z</time>
      </trkpt>
      <trkpt lat="42.543935" lon="-5.454649">
        <ele>805.088</ele>
        <time>2018-06-15T11:36:02Z</time>
      </trkpt>
      <trkpt lat="42.543952" lon="-5.454721">
        <ele>805.221</ele>
        <time>2018-06-15T11:36:04Z</time>
      </trkpt>
      <trkpt lat="42.543972" lon="-5.454801">
        <ele>804.964</ele>
        <time>2018-06-15T11:36:06Z</time>
      </trkpt>
      <trkpt lat="42.543990" lon="-5.454884">
        <ele>804.798</ele>
        <time>2018-06-15T11:36:08Z</time>
      </trkpt>
      <trkpt lat="42.544011" lon="-5.454971">
        <ele>804.677</ele>
        <time>2018-06-15T11:36:10Z</time>
      </trkpt>
      <trkpt lat="42.544025" lon="-5.455054">
        <ele>804.547</ele>
        <time>2018-06-15T11:36:12Z</time>
      </trkpt>
      <trkpt lat="42.544040" lon="-5.455126">
        <ele>804.597</ele>
        <time>2018-06-15T11:36:14Z</time>
      </trkpt>
      <trkpt lat="42.544058" lon="-5.455183">
        <ele>804.957</ele>
        <time>2018-06-15T11:36:16Z</time>
      </trkpt>
      <trkpt lat="42.544078" lon="-5.455254">
        <ele>805.158</ele>
        <time>2018-06-15T11:36:19Z</time>
      </trkpt>
      <trkpt lat="42.544103" lon="-5.455309">
        <ele>806.052</ele>
        <time>2018-06-15T11:36:22Z</time>
      </trkpt>
      <trkpt lat="42.544145" lon="-5.455372">
        <ele>805.817</ele>
        <time>2018-06-15T11:36:25Z</time>
      </trkpt>
      <trkpt lat="42.544179" lon="-5.455438">
        <ele>805.708</ele>
        <time>2018-06-15T11:36:27Z</time>
      </trkpt>
      <trkpt lat="42.544215" lon="-5.455544">
        <ele>805.667</ele>
        <time>2018-06-15T11:36:28Z</time>
      </trkpt>
      <trkpt lat="42.544233" lon="-5.455652">
        <ele>805.590</ele>
        <time>2018-06-15T11:36:30Z</time>
      </trkpt>
      <trkpt lat="42.544249" lon="-5.455754">
        <ele>805.553</ele>
        <time>2018-06-15T11:36:32Z</time>
      </trkpt>
      <trkpt lat="42.544270" lon="-5.455852">
        <ele>805.967</ele>
        <time>2018-06-15T11:36:34Z</time>
      </trkpt>
      <trkpt lat="42.544284" lon="-5.455950">
        <ele>806.136</ele>
        <time>2018-06-15T11:36:36Z</time>
      </trkpt>
      <trkpt lat="42.544294" lon="-5.456055">
        <ele>806.296</ele>
        <time>2018-06-15T11:36:38Z</time>
      </trkpt>
      <trkpt lat="42.544309" lon="-5.456154">
        <ele>806.346</ele>
        <time>2018-06-15T11:36:40Z</time>
      </trkpt>
      <trkpt lat="42.544323" lon="-5.456255">
        <ele>806.396</ele>
        <time>2018-06-15T11:36:42Z</time>
      </trkpt>
      <trkpt lat="42.544337" lon="-5.456357">
        <ele>806.767</ele>
        <time>2018-06-15T11:36:44Z</time>
      </trkpt>
      <trkpt lat="42.544352" lon="-5.456433">
        <ele>807.081</ele>
        <time>2018-06-15T11:36:46Z</time>
      </trkpt>
      <trkpt lat="42.544363" lon="-5.456509">
        <ele>807.219</ele>
        <time>2018-06-15T11:36:47Z</time>
      </trkpt>
      <trkpt lat="42.544381" lon="-5.456616">
        <ele>806.908</ele>
        <time>2018-06-15T11:36:49Z</time>
      </trkpt>
      <trkpt lat="42.544397" lon="-5.456720">
        <ele>807.138</ele>
        <time>2018-06-15T11:36:51Z</time>
      </trkpt>
      <trkpt lat="42.544415" lon="-5.456835">
        <ele>807.231</ele>
        <time>2018-06-15T11:36:53Z</time>
      </trkpt>
      <trkpt lat="42.544432" lon="-5.456941">
        <ele>807.794</ele>
        <time>2018-06-15T11:36:55Z</time>
      </trkpt>
      <trkpt lat="42.544447" lon="-5.457058">
        <ele>808.088</ele>
        <time>2018-06-15T11:36:57Z</time>
      </trkpt>
      <trkpt lat="42.544469" lon="-5.457170">
        <ele>808.637</ele>
        <time>2018-06-15T11:36:59Z</time>
      </trkpt>
      <trkpt lat="42.544491" lon="-5.457285">
        <ele>808.557</ele>
        <time>2018-06-15T11:37:01Z</time>
      </trkpt>
      <trkpt lat="42.544518" lon="-5.457395">
        <ele>808.557</ele>
        <time>2018-06-15T11:37:03Z</time>
      </trkpt>
      <trkpt lat="42.544545" lon="-5.457504">
        <ele>808.577</ele>
        <time>2018-06-15T11:37:05Z</time>
      </trkpt>
      <trkpt lat="42.544575" lon="-5.457612">
        <ele>808.548</ele>
        <time>2018-06-15T11:37:07Z</time>
      </trkpt>
      <trkpt lat="42.544604" lon="-5.457719">
        <ele>808.561</ele>
        <time>2018-06-15T11:37:09Z</time>
      </trkpt>
      <trkpt lat="42.544641" lon="-5.457815">
        <ele>808.517</ele>
        <time>2018-06-15T11:37:11Z</time>
      </trkpt>
      <trkpt lat="42.544681" lon="-5.457904">
        <ele>808.508</ele>
        <time>2018-06-15T11:37:13Z</time>
      </trkpt>
      <trkpt lat="42.544716" lon="-5.457964">
        <ele>808.196</ele>
        <time>2018-06-15T11:37:15Z</time>
      </trkpt>
      <trkpt lat="42.544747" lon="-5.458029">
        <ele>808.349</ele>
        <time>2018-06-15T11:37:16Z</time>
      </trkpt>
      <trkpt lat="42.544798" lon="-5.458111">
        <ele>808.442</ele>
        <time>2018-06-15T11:37:18Z</time>
      </trkpt>
      <trkpt lat="42.544852" lon="-5.458190">
        <ele>808.976</ele>
        <time>2018-06-15T11:37:20Z</time>
      </trkpt>
      <trkpt lat="42.544902" lon="-5.458273">
        <ele>809.275</ele>
        <time>2018-06-15T11:37:22Z</time>
      </trkpt>
      <trkpt lat="42.544952" lon="-5.458353">
        <ele>809.465</ele>
        <time>2018-06-15T11:37:24Z</time>
      </trkpt>
      <trkpt lat="42.545006" lon="-5.458433">
        <ele>809.595</ele>
        <time>2018-06-15T11:37:26Z</time>
      </trkpt>
      <trkpt lat="42.545060" lon="-5.458508">
        <ele>809.655</ele>
        <time>2018-06-15T11:37:28Z</time>
      </trkpt>
      <trkpt lat="42.545113" lon="-5.458577">
        <ele>810.055</ele>
        <time>2018-06-15T11:37:30Z</time>
      </trkpt>
      <trkpt lat="42.545171" lon="-5.458655">
        <ele>809.907</ele>
        <time>2018-06-15T11:37:32Z</time>
      </trkpt>
      <trkpt lat="42.545229" lon="-5.458736">
        <ele>810.217</ele>
        <time>2018-06-15T11:37:34Z</time>
      </trkpt>
      <trkpt lat="42.545285" lon="-5.458813">
        <ele>810.408</ele>
        <time>2018-06-15T11:37:36Z</time>
      </trkpt>
      <trkpt lat="42.545342" lon="-5.458894">
        <ele>810.187</ele>
        <time>2018-06-15T11:37:38Z</time>
      </trkpt>
      <trkpt lat="42.545401" lon="-5.458975">
        <ele>810.320</ele>
        <time>2018-06-15T11:37:40Z</time>
      </trkpt>
      <trkpt lat="42.545461" lon="-5.459056">
        <ele>810.453</ele>
        <time>2018-06-15T11:37:42Z</time>
      </trkpt>
      <trkpt lat="42.545525" lon="-5.459142">
        <ele>810.587</ele>
        <time>2018-06-15T11:37:44Z</time>
      </trkpt>
      <trkpt lat="42.545554" lon="-5.459190">
        <ele>810.516</ele>
        <time>2018-06-15T11:37:45Z</time>
      </trkpt>
      <trkpt lat="42.545615" lon="-5.459273">
        <ele>810.536</ele>
        <time>2018-06-15T11:37:47Z</time>
      </trkpt>
      <trkpt lat="42.545647" lon="-5.459321">
        <ele>810.566</ele>
        <time>2018-06-15T11:37:48Z</time>
      </trkpt>
      <trkpt lat="42.545709" lon="-5.459405">
        <ele>810.566</ele>
        <time>2018-06-15T11:37:50Z</time>
      </trkpt>
      <trkpt lat="42.545743" lon="-5.459449">
        <ele>810.516</ele>
        <time>2018-06-15T11:37:51Z</time>
      </trkpt>
      <trkpt lat="42.545779" lon="-5.459491">
        <ele>810.576</ele>
        <time>2018-06-15T11:37:52Z</time>
      </trkpt>
      <trkpt lat="42.545814" lon="-5.459532">
        <ele>810.913</ele>
        <time>2018-06-15T11:37:53Z</time>
      </trkpt>
      <trkpt lat="42.545847" lon="-5.459578">
        <ele>811.108</ele>
        <time>2018-06-15T11:37:54Z</time>
      </trkpt>
      <trkpt lat="42.545882" lon="-5.459624">
        <ele>811.233</ele>
        <time>2018-06-15T11:37:55Z</time>
      </trkpt>
      <trkpt lat="42.545944" lon="-5.459708">
        <ele>810.936</ele>
        <time>2018-06-15T11:37:57Z</time>
      </trkpt>
      <trkpt lat="42.546007" lon="-5.459786">
        <ele>811.189</ele>
        <time>2018-06-15T11:37:59Z</time>
      </trkpt>
      <trkpt lat="42.546063" lon="-5.459866">
        <ele>811.253</ele>
        <time>2018-06-15T11:38:01Z</time>
      </trkpt>
      <trkpt lat="42.546115" lon="-5.459931">
        <ele>810.912</ele>
        <time>2018-06-15T11:38:03Z</time>
      </trkpt>
      <trkpt lat="42.546172" lon="-5.459977">
        <ele>811.132</ele>
        <time>2018-06-15T11:38:06Z</time>
      </trkpt>
      <trkpt lat="42.546225" lon="-5.459998">
        <ele>810.862</ele>
        <time>2018-06-15T11:38:08Z</time>
      </trkpt>
      <trkpt lat="42.546273" lon="-5.460033">
        <ele>811.032</ele>
        <time>2018-06-15T11:38:10Z</time>
      </trkpt>
      <trkpt lat="42.546309" lon="-5.460095">
        <ele>810.715</ele>
        <time>2018-06-15T11:38:12Z</time>
      </trkpt>
      <trkpt lat="42.546375" lon="-5.460238">
        <ele>810.565</ele>
        <time>2018-06-15T11:38:14Z</time>
      </trkpt>
      <trkpt lat="42.546428" lon="-5.460318">
        <ele>810.411</ele>
        <time>2018-06-15T11:38:16Z</time>
      </trkpt>
      <trkpt lat="42.546489" lon="-5.460392">
        <ele>810.308</ele>
        <time>2018-06-15T11:38:18Z</time>
      </trkpt>
      <trkpt lat="42.546553" lon="-5.460468">
        <ele>810.323</ele>
        <time>2018-06-15T11:38:20Z</time>
      </trkpt>
      <trkpt lat="42.546616" lon="-5.460540">
        <ele>810.786</ele>
        <time>2018-06-15T11:38:22Z</time>
      </trkpt>
      <trkpt lat="42.546675" lon="-5.460616">
        <ele>810.989</ele>
        <time>2018-06-15T11:38:24Z</time>
      </trkpt>
      <trkpt lat="42.546726" lon="-5.460692">
        <ele>810.623</ele>
        <time>2018-06-15T11:38:26Z</time>
      </trkpt>
      <trkpt lat="42.546781" lon="-5.460763">
        <ele>810.832</ele>
        <time>2018-06-15T11:38:28Z</time>
      </trkpt>
      <trkpt lat="42.546832" lon="-5.460837">
        <ele>811.322</ele>
        <time>2018-06-15T11:38:30Z</time>
      </trkpt>
      <trkpt lat="42.546887" lon="-5.460925">
        <ele>811.612</ele>
        <time>2018-06-15T11:38:32Z</time>
      </trkpt>
      <trkpt lat="42.546916" lon="-5.460972">
        <ele>812.242</ele>
        <time>2018-06-15T11:38:33Z</time>
      </trkpt>
      <trkpt lat="42.546974" lon="-5.461060">
        <ele>812.684</ele>
        <time>2018-06-15T11:38:35Z</time>
      </trkpt>
      <trkpt lat="42.547034" lon="-5.461146">
        <ele>812.807</ele>
        <time>2018-06-15T11:38:37Z</time>
      </trkpt>
      <trkpt lat="42.547065" lon="-5.461194">
        <ele>812.917</ele>
        <time>2018-06-15T11:38:38Z</time>
      </trkpt>
      <trkpt lat="42.547097" lon="-5.461242">
        <ele>812.608</ele>
        <time>2018-06-15T11:38:39Z</time>
      </trkpt>
      <trkpt lat="42.547130" lon="-5.461289">
        <ele>812.870</ele>
        <time>2018-06-15T11:38:40Z</time>
      </trkpt>
      <trkpt lat="42.547191" lon="-5.461368">
        <ele>812.993</ele>
        <time>2018-06-15T11:38:42Z</time>
      </trkpt>
      <trkpt lat="42.547251" lon="-5.461443">
        <ele>813.486</ele>
        <time>2018-06-15T11:38:44Z</time>
      </trkpt>
      <trkpt lat="42.547304" lon="-5.461532">
        <ele>813.370</ele>
        <time>2018-06-15T11:38:46Z</time>
      </trkpt>
      <trkpt lat="42.547337" lon="-5.461576">
        <ele>813.669</ele>
        <time>2018-06-15T11:38:47Z</time>
      </trkpt>
      <trkpt lat="42.547370" lon="-5.461618">
        <ele>813.859</ele>
        <time>2018-06-15T11:38:48Z</time>
      </trkpt>
      <trkpt lat="42.547402" lon="-5.461663">
        <ele>813.949</ele>
        <time>2018-06-15T11:38:49Z</time>
      </trkpt>
      <trkpt lat="42.547432" lon="-5.461713">
        <ele>814.069</ele>
        <time>2018-06-15T11:38:50Z</time>
      </trkpt>
      <trkpt lat="42.547495" lon="-5.461792">
        <ele>813.655</ele>
        <time>2018-06-15T11:38:52Z</time>
      </trkpt>
      <trkpt lat="42.547531" lon="-5.461833">
        <ele>813.407</ele>
        <time>2018-06-15T11:38:53Z</time>
      </trkpt>
      <trkpt lat="42.547590" lon="-5.461919">
        <ele>813.717</ele>
        <time>2018-06-15T11:38:55Z</time>
      </trkpt>
      <trkpt lat="42.547624" lon="-5.461962">
        <ele>813.908</ele>
        <time>2018-06-15T11:38:56Z</time>
      </trkpt>
      <trkpt lat="42.547681" lon="-5.462046">
        <ele>813.617</ele>
        <time>2018-06-15T11:38:58Z</time>
      </trkpt>
      <trkpt lat="42.547730" lon="-5.462124">
        <ele>813.410</ele>
        <time>2018-06-15T11:39:00Z</time>
      </trkpt>
      <trkpt lat="42.547780" lon="-5.462220">
        <ele>813.343</ele>
        <time>2018-06-15T11:39:02Z</time>
      </trkpt>
      <trkpt lat="42.547830" lon="-5.462306">
        <ele>813.287</ele>
        <time>2018-06-15T11:39:04Z</time>
      </trkpt>
      <trkpt lat="42.547899" lon="-5.462374">
        <ele>813.216</ele>
        <time>2018-06-15T11:39:06Z</time>
      </trkpt>
      <trkpt lat="42.547967" lon="-5.462431">
        <ele>813.266</ele>
        <time>2018-06-15T11:39:08Z</time>
      </trkpt>
      <trkpt lat="42.548001" lon="-5.462474">
        <ele>813.276</ele>
        <time>2018-06-15T11:39:09Z</time>
      </trkpt>
      <trkpt lat="42.548065" lon="-5.462545">
        <ele>813.646</ele>
        <time>2018-06-15T11:39:11Z</time>
      </trkpt>
      <trkpt lat="42.548122" lon="-5.462637">
        <ele>813.813</ele>
        <time>2018-06-15T11:39:13Z</time>
      </trkpt>
      <trkpt lat="42.548183" lon="-5.462716">
        <ele>813.943</ele>
        <time>2018-06-15T11:39:15Z</time>
      </trkpt>
      <trkpt lat="42.548247" lon="-5.462798">
        <ele>814.007</ele>
        <time>2018-06-15T11:39:17Z</time>
      </trkpt>
      <trkpt lat="42.548278" lon="-5.462843">
        <ele>814.108</ele>
        <time>2018-06-15T11:39:18Z</time>
      </trkpt>
      <trkpt lat="42.548336" lon="-5.462928">
        <ele>814.133</ele>
        <time>2018-06-15T11:39:20Z</time>
      </trkpt>
      <trkpt lat="42.548394" lon="-5.463022">
        <ele>814.116</ele>
        <time>2018-06-15T11:39:22Z</time>
      </trkpt>
      <trkpt lat="42.548424" lon="-5.463071">
        <ele>813.719</ele>
        <time>2018-06-15T11:39:23Z</time>
      </trkpt>
      <trkpt lat="42.548455" lon="-5.463117">
        <ele>813.983</ele>
        <time>2018-06-15T11:39:24Z</time>
      </trkpt>
      <trkpt lat="42.548517" lon="-5.463203">
        <ele>813.612</ele>
        <time>2018-06-15T11:39:26Z</time>
      </trkpt>
      <trkpt lat="42.548579" lon="-5.463294">
        <ele>813.452</ele>
        <time>2018-06-15T11:39:28Z</time>
      </trkpt>
      <trkpt lat="42.548635" lon="-5.463391">
        <ele>813.392</ele>
        <time>2018-06-15T11:39:30Z</time>
      </trkpt>
      <trkpt lat="42.548664" lon="-5.463438">
        <ele>813.252</ele>
        <time>2018-06-15T11:39:31Z</time>
      </trkpt>
      <trkpt lat="42.548695" lon="-5.463483">
        <ele>813.252</ele>
        <time>2018-06-15T11:39:32Z</time>
      </trkpt>
      <trkpt lat="42.548729" lon="-5.463531">
        <ele>813.653</ele>
        <time>2018-06-15T11:39:33Z</time>
      </trkpt>
      <trkpt lat="42.548761" lon="-5.463578">
        <ele>813.808</ele>
        <time>2018-06-15T11:39:34Z</time>
      </trkpt>
      <trkpt lat="42.548794" lon="-5.463626">
        <ele>813.908</ele>
        <time>2018-06-15T11:39:35Z</time>
      </trkpt>
      <trkpt lat="42.548826" lon="-5.463675">
        <ele>814.017</ele>
        <time>2018-06-15T11:39:36Z</time>
      </trkpt>
      <trkpt lat="42.548859" lon="-5.463721">
        <ele>814.020</ele>
        <time>2018-06-15T11:39:37Z</time>
      </trkpt>
      <trkpt lat="42.548893" lon="-5.463769">
        <ele>814.073</ele>
        <time>2018-06-15T11:39:38Z</time>
      </trkpt>
      <trkpt lat="42.548927" lon="-5.463816">
        <ele>814.057</ele>
        <time>2018-06-15T11:39:39Z</time>
      </trkpt>
      <trkpt lat="42.548965" lon="-5.463866">
        <ele>814.026</ele>
        <time>2018-06-15T11:39:40Z</time>
      </trkpt>
      <trkpt lat="42.549001" lon="-5.463918">
        <ele>814.086</ele>
        <time>2018-06-15T11:39:41Z</time>
      </trkpt>
      <trkpt lat="42.549039" lon="-5.463969">
        <ele>814.026</ele>
        <time>2018-06-15T11:39:42Z</time>
      </trkpt>
      <trkpt lat="42.549072" lon="-5.464025">
        <ele>814.096</ele>
        <time>2018-06-15T11:39:43Z</time>
      </trkpt>
      <trkpt lat="42.549107" lon="-5.464075">
        <ele>814.467</ele>
        <time>2018-06-15T11:39:44Z</time>
      </trkpt>
      <trkpt lat="42.549142" lon="-5.464125">
        <ele>814.281</ele>
        <time>2018-06-15T11:39:45Z</time>
      </trkpt>
      <trkpt lat="42.549172" lon="-5.464175">
        <ele>814.119</ele>
        <time>2018-06-15T11:39:46Z</time>
      </trkpt>
      <trkpt lat="42.549207" lon="-5.464227">
        <ele>814.008</ele>
        <time>2018-06-15T11:39:47Z</time>
      </trkpt>
      <trkpt lat="42.549244" lon="-5.464275">
        <ele>814.068</ele>
        <time>2018-06-15T11:39:48Z</time>
      </trkpt>
      <trkpt lat="42.549283" lon="-5.464326">
        <ele>814.081</ele>
        <time>2018-06-15T11:39:49Z</time>
      </trkpt>
      <trkpt lat="42.549320" lon="-5.464369">
        <ele>814.084</ele>
        <time>2018-06-15T11:39:50Z</time>
      </trkpt>
      <trkpt lat="42.549356" lon="-5.464419">
        <ele>814.098</ele>
        <time>2018-06-15T11:39:51Z</time>
      </trkpt>
      <trkpt lat="42.549390" lon="-5.464467">
        <ele>814.047</ele>
        <time>2018-06-15T11:39:52Z</time>
      </trkpt>
      <trkpt lat="42.549425" lon="-5.464518">
        <ele>814.047</ele>
        <time>2018-06-15T11:39:53Z</time>
      </trkpt>
      <trkpt lat="42.549461" lon="-5.464567">
        <ele>814.427</ele>
        <time>2018-06-15T11:39:54Z</time>
      </trkpt>
      <trkpt lat="42.549497" lon="-5.464618">
        <ele>814.697</ele>
        <time>2018-06-15T11:39:55Z</time>
      </trkpt>
      <trkpt lat="42.549537" lon="-5.464661">
        <ele>814.391</ele>
        <time>2018-06-15T11:39:56Z</time>
      </trkpt>
      <trkpt lat="42.549574" lon="-5.464709">
        <ele>814.181</ele>
        <time>2018-06-15T11:39:57Z</time>
      </trkpt>
      <trkpt lat="42.549610" lon="-5.464753">
        <ele>814.019</ele>
        <time>2018-06-15T11:39:58Z</time>
      </trkpt>
      <trkpt lat="42.549646" lon="-5.464804">
        <ele>813.908</ele>
        <time>2018-06-15T11:39:59Z</time>
      </trkpt>
      <trkpt lat="42.549683" lon="-5.464855">
        <ele>813.991</ele>
        <time>2018-06-15T11:40:00Z</time>
      </trkpt>
      <trkpt lat="42.549719" lon="-5.464906">
        <ele>813.964</ele>
        <time>2018-06-15T11:40:01Z</time>
      </trkpt>
      <trkpt lat="42.549753" lon="-5.464963">
        <ele>813.997</ele>
        <time>2018-06-15T11:40:02Z</time>
      </trkpt>
      <trkpt lat="42.549790" lon="-5.465013">
        <ele>813.921</ele>
        <time>2018-06-15T11:40:03Z</time>
      </trkpt>
      <trkpt lat="42.549826" lon="-5.465064">
        <ele>813.940</ele>
        <time>2018-06-15T11:40:04Z</time>
      </trkpt>
      <trkpt lat="42.549863" lon="-5.465118">
        <ele>813.910</ele>
        <time>2018-06-15T11:40:05Z</time>
      </trkpt>
      <trkpt lat="42.549896" lon="-5.465170">
        <ele>813.990</ele>
        <time>2018-06-15T11:40:06Z</time>
      </trkpt>
      <trkpt lat="42.549930" lon="-5.465219">
        <ele>813.920</ele>
        <time>2018-06-15T11:40:07Z</time>
      </trkpt>
      <trkpt lat="42.549967" lon="-5.465268">
        <ele>813.974</ele>
        <time>2018-06-15T11:40:08Z</time>
      </trkpt>
      <trkpt lat="42.549998" lon="-5.465320">
        <ele>813.956</ele>
        <time>2018-06-15T11:40:09Z</time>
      </trkpt>
      <trkpt lat="42.550037" lon="-5.465369">
        <ele>813.921</ele>
        <time>2018-06-15T11:40:10Z</time>
      </trkpt>
      <trkpt lat="42.550075" lon="-5.465419">
        <ele>813.908</ele>
        <time>2018-06-15T11:40:11Z</time>
      </trkpt>
      <trkpt lat="42.550112" lon="-5.465469">
        <ele>813.949</ele>
        <time>2018-06-15T11:40:12Z</time>
      </trkpt>
      <trkpt lat="42.550148" lon="-5.465521">
        <ele>813.922</ele>
        <time>2018-06-15T11:40:13Z</time>
      </trkpt>
      <trkpt lat="42.550185" lon="-5.465572">
        <ele>813.985</ele>
        <time>2018-06-15T11:40:14Z</time>
      </trkpt>
      <trkpt lat="42.550220" lon="-5.465624">
        <ele>813.989</ele>
        <time>2018-06-15T11:40:15Z</time>
      </trkpt>
      <trkpt lat="42.550257" lon="-5.465674">
        <ele>813.988</ele>
        <time>2018-06-15T11:40:16Z</time>
      </trkpt>
      <trkpt lat="42.550297" lon="-5.465722">
        <ele>813.968</ele>
        <time>2018-06-15T11:40:17Z</time>
      </trkpt>
      <trkpt lat="42.550333" lon="-5.465771">
        <ele>813.958</ele>
        <time>2018-06-15T11:40:18Z</time>
      </trkpt>
      <trkpt lat="42.550370" lon="-5.465819">
        <ele>813.938</ele>
        <time>2018-06-15T11:40:19Z</time>
      </trkpt>
      <trkpt lat="42.550405" lon="-5.465868">
        <ele>813.934</ele>
        <time>2018-06-15T11:40:20Z</time>
      </trkpt>
      <trkpt lat="42.550439" lon="-5.465922">
        <ele>813.955</ele>
        <time>2018-06-15T11:40:21Z</time>
      </trkpt>
      <trkpt lat="42.550469" lon="-5.465973">
        <ele>813.910</ele>
        <time>2018-06-15T11:40:22Z</time>
      </trkpt>
      <trkpt lat="42.550505" lon="-5.466022">
        <ele>813.908</ele>
        <time>2018-06-15T11:40:23Z</time>
      </trkpt>
      <trkpt lat="42.550539" lon="-5.466069">
        <ele>813.955</ele>
        <time>2018-06-15T11:40:24Z</time>
      </trkpt>
      <trkpt lat="42.550575" lon="-5.466111">
        <ele>813.958</ele>
        <time>2018-06-15T11:40:25Z</time>
      </trkpt>
      <trkpt lat="42.550609" lon="-5.466163">
        <ele>813.971</ele>
        <time>2018-06-15T11:40:26Z</time>
      </trkpt>
      <trkpt lat="42.550646" lon="-5.466219">
        <ele>813.995</ele>
        <time>2018-06-15T11:40:27Z</time>
      </trkpt>
      <trkpt lat="42.550681" lon="-5.466269">
        <ele>813.914</ele>
        <time>2018-06-15T11:40:28Z</time>
      </trkpt>
      <trkpt lat="42.550742" lon="-5.466358">
        <ele>814.344</ele>
        <time>2018-06-15T11:40:30Z</time>
      </trkpt>
      <trkpt lat="42.550796" lon="-5.466444">
        <ele>814.524</ele>
        <time>2018-06-15T11:40:32Z</time>
      </trkpt>
      <trkpt lat="42.550861" lon="-5.466506">
        <ele>814.614</ele>
        <time>2018-06-15T11:40:34Z</time>
      </trkpt>
      <trkpt lat="42.550942" lon="-5.466491">
        <ele>814.751</ele>
        <time>2018-06-15T11:40:36Z</time>
      </trkpt>
      <trkpt lat="42.551018" lon="-5.466457">
        <ele>814.801</ele>
        <time>2018-06-15T11:40:38Z</time>
      </trkpt>
      <trkpt lat="42.551108" lon="-5.466455">
        <ele>814.811</ele>
        <time>2018-06-15T11:40:40Z</time>
      </trkpt>
      <trkpt lat="42.551154" lon="-5.466465">
        <ele>814.808</ele>
        <time>2018-06-15T11:40:41Z</time>
      </trkpt>
      <trkpt lat="42.551230" lon="-5.466502">
        <ele>814.857</ele>
        <time>2018-06-15T11:40:43Z</time>
      </trkpt>
      <trkpt lat="42.551269" lon="-5.466534">
        <ele>814.430</ele>
        <time>2018-06-15T11:40:44Z</time>
      </trkpt>
      <trkpt lat="42.551310" lon="-5.466565">
        <ele>814.293</ele>
        <time>2018-06-15T11:40:45Z</time>
      </trkpt>
      <trkpt lat="42.551351" lon="-5.466595">
        <ele>814.127</ele>
        <time>2018-06-15T11:40:46Z</time>
      </trkpt>
      <trkpt lat="42.551429" lon="-5.466662">
        <ele>814.046</ele>
        <time>2018-06-15T11:40:48Z</time>
      </trkpt>
      <trkpt lat="42.551466" lon="-5.466713">
        <ele>814.386</ele>
        <time>2018-06-15T11:40:49Z</time>
      </trkpt>
      <trkpt lat="42.551499" lon="-5.466758">
        <ele>814.196</ele>
        <time>2018-06-15T11:40:50Z</time>
      </trkpt>
      <trkpt lat="42.551537" lon="-5.466798">
        <ele>814.026</ele>
        <time>2018-06-15T11:40:51Z</time>
      </trkpt>
      <trkpt lat="42.551575" lon="-5.466841">
        <ele>813.961</ele>
        <time>2018-06-15T11:40:52Z</time>
      </trkpt>
      <trkpt lat="42.551615" lon="-5.466886">
        <ele>813.921</ele>
        <time>2018-06-15T11:40:53Z</time>
      </trkpt>
      <trkpt lat="42.551654" lon="-5.466930">
        <ele>813.913</ele>
        <time>2018-06-15T11:40:54Z</time>
      </trkpt>
      <trkpt lat="42.551691" lon="-5.466975">
        <ele>813.908</ele>
        <time>2018-06-15T11:40:55Z</time>
      </trkpt>
      <trkpt lat="42.551727" lon="-5.467023">
        <ele>813.568</ele>
        <time>2018-06-15T11:40:56Z</time>
      </trkpt>
      <trkpt lat="42.551762" lon="-5.467073">
        <ele>813.321</ele>
        <time>2018-06-15T11:40:57Z</time>
      </trkpt>
      <trkpt lat="42.551803" lon="-5.467122">
        <ele>813.214</ele>
        <time>2018-06-15T11:40:58Z</time>
      </trkpt>
      <trkpt lat="42.551846" lon="-5.467168">
        <ele>813.128</ele>
        <time>2018-06-15T11:40:59Z</time>
      </trkpt>
      <trkpt lat="42.551886" lon="-5.467210">
        <ele>813.077</ele>
        <time>2018-06-15T11:41:00Z</time>
      </trkpt>
      <trkpt lat="42.551928" lon="-5.467257">
        <ele>813.077</ele>
        <time>2018-06-15T11:41:01Z</time>
      </trkpt>
      <trkpt lat="42.551968" lon="-5.467304">
        <ele>813.097</ele>
        <time>2018-06-15T11:41:02Z</time>
      </trkpt>
      <trkpt lat="42.552010" lon="-5.467343">
        <ele>813.027</ele>
        <time>2018-06-15T11:41:03Z</time>
      </trkpt>
      <trkpt lat="42.552053" lon="-5.467387">
        <ele>813.015</ele>
        <time>2018-06-15T11:41:04Z</time>
      </trkpt>
      <trkpt lat="42.552097" lon="-5.467431">
        <ele>813.065</ele>
        <time>2018-06-15T11:41:05Z</time>
      </trkpt>
      <trkpt lat="42.552141" lon="-5.467478">
        <ele>813.011</ele>
        <time>2018-06-15T11:41:06Z</time>
      </trkpt>
      <trkpt lat="42.552189" lon="-5.467522">
        <ele>812.608</ele>
        <time>2018-06-15T11:41:07Z</time>
      </trkpt>
      <trkpt lat="42.552230" lon="-5.467566">
        <ele>812.463</ele>
        <time>2018-06-15T11:41:08Z</time>
      </trkpt>
      <trkpt lat="42.552271" lon="-5.467611">
        <ele>812.376</ele>
        <time>2018-06-15T11:41:09Z</time>
      </trkpt>
      <trkpt lat="42.552315" lon="-5.467661">
        <ele>812.279</ele>
        <time>2018-06-15T11:41:10Z</time>
      </trkpt>
      <trkpt lat="42.552357" lon="-5.467706">
        <ele>812.123</ele>
        <time>2018-06-15T11:41:11Z</time>
      </trkpt>
      <trkpt lat="42.552405" lon="-5.467754">
        <ele>812.162</ele>
        <time>2018-06-15T11:41:12Z</time>
      </trkpt>
      <trkpt lat="42.552451" lon="-5.467802">
        <ele>812.192</ele>
        <time>2018-06-15T11:41:13Z</time>
      </trkpt>
      <trkpt lat="42.552494" lon="-5.467850">
        <ele>812.182</ele>
        <time>2018-06-15T11:41:14Z</time>
      </trkpt>
      <trkpt lat="42.552539" lon="-5.467893">
        <ele>812.572</ele>
        <time>2018-06-15T11:41:15Z</time>
      </trkpt>
      <trkpt lat="42.552579" lon="-5.467940">
        <ele>812.773</ele>
        <time>2018-06-15T11:41:16Z</time>
      </trkpt>
      <trkpt lat="42.552620" lon="-5.467986">
        <ele>812.885</ele>
        <time>2018-06-15T11:41:17Z</time>
      </trkpt>
      <trkpt lat="42.552668" lon="-5.468033">
        <ele>812.913</ele>
        <time>2018-06-15T11:41:18Z</time>
      </trkpt>
      <trkpt lat="42.552716" lon="-5.468072">
        <ele>813.008</ele>
        <time>2018-06-15T11:41:19Z</time>
      </trkpt>
      <trkpt lat="42.552760" lon="-5.468109">
        <ele>813.039</ele>
        <time>2018-06-15T11:41:20Z</time>
      </trkpt>
      <trkpt lat="42.552802" lon="-5.468146">
        <ele>813.052</ele>
        <time>2018-06-15T11:41:21Z</time>
      </trkpt>
      <trkpt lat="42.552843" lon="-5.468181">
        <ele>813.455</ele>
        <time>2018-06-15T11:41:22Z</time>
      </trkpt>
      <trkpt lat="42.552882" lon="-5.468215">
        <ele>813.639</ele>
        <time>2018-06-15T11:41:23Z</time>
      </trkpt>
      <trkpt lat="42.552919" lon="-5.468254">
        <ele>813.788</ele>
        <time>2018-06-15T11:41:24Z</time>
      </trkpt>
      <trkpt lat="42.552989" lon="-5.468324">
        <ele>814.298</ele>
        <time>2018-06-15T11:41:26Z</time>
      </trkpt>
      <trkpt lat="42.553057" lon="-5.468385">
        <ele>814.998</ele>
        <time>2018-06-15T11:41:28Z</time>
      </trkpt>
      <trkpt lat="42.553118" lon="-5.468452">
        <ele>815.388</ele>
        <time>2018-06-15T11:41:30Z</time>
      </trkpt>
      <trkpt lat="42.553184" lon="-5.468516">
        <ele>815.918</ele>
        <time>2018-06-15T11:41:32Z</time>
      </trkpt>
      <trkpt lat="42.553247" lon="-5.468574">
        <ele>816.798</ele>
        <time>2018-06-15T11:41:34Z</time>
      </trkpt>
      <trkpt lat="42.553297" lon="-5.468618">
        <ele>817.217</ele>
        <time>2018-06-15T11:41:36Z</time>
      </trkpt>
      <trkpt lat="42.553335" lon="-5.468653">
        <ele>817.508</ele>
        <time>2018-06-15T11:41:38Z</time>
      </trkpt>
      <trkpt lat="42.553424" lon="-5.468737">
        <ele>818.143</ele>
        <time>2018-06-15T11:41:40Z</time>
      </trkpt>
      <trkpt lat="42.553472" lon="-5.468778">
        <ele>818.466</ele>
        <time>2018-06-15T11:41:42Z</time>
      </trkpt>
      <trkpt lat="42.553511" lon="-5.468818">
        <ele>818.699</ele>
        <time>2018-06-15T11:41:44Z</time>
      </trkpt>
      <trkpt lat="42.553597" lon="-5.468913">
        <ele>818.753</ele>
        <time>2018-06-15T11:41:46Z</time>
      </trkpt>
      <trkpt lat="42.553650" lon="-5.468980">
        <ele>818.852</ele>
        <time>2018-06-15T11:41:48Z</time>
      </trkpt>
      <trkpt lat="42.553705" lon="-5.469060">
        <ele>818.892</ele>
        <time>2018-06-15T11:41:50Z</time>
      </trkpt>
      <trkpt lat="42.553764" lon="-5.469137">
        <ele>819.222</ele>
        <time>2018-06-15T11:41:52Z</time>
      </trkpt>
      <trkpt lat="42.553821" lon="-5.469216">
        <ele>819.122</ele>
        <time>2018-06-15T11:41:54Z</time>
      </trkpt>
      <trkpt lat="42.553880" lon="-5.469295">
        <ele>819.492</ele>
        <time>2018-06-15T11:41:56Z</time>
      </trkpt>
      <trkpt lat="42.553943" lon="-5.469374">
        <ele>819.673</ele>
        <time>2018-06-15T11:41:58Z</time>
      </trkpt>
      <trkpt lat="42.553996" lon="-5.469461">
        <ele>819.720</ele>
        <time>2018-06-15T11:42:00Z</time>
      </trkpt>
      <trkpt lat="42.554056" lon="-5.469548">
        <ele>819.808</ele>
        <time>2018-06-15T11:42:02Z</time>
      </trkpt>
      <trkpt lat="42.554085" lon="-5.469595">
        <ele>819.841</ele>
        <time>2018-06-15T11:42:03Z</time>
      </trkpt>
      <trkpt lat="42.554142" lon="-5.469683">
        <ele>819.854</ele>
        <time>2018-06-15T11:42:05Z</time>
      </trkpt>
      <trkpt lat="42.554203" lon="-5.469771">
        <ele>820.227</ele>
        <time>2018-06-15T11:42:07Z</time>
      </trkpt>
      <trkpt lat="42.554270" lon="-5.469850">
        <ele>820.481</ele>
        <time>2018-06-15T11:42:09Z</time>
      </trkpt>
      <trkpt lat="42.554320" lon="-5.469928">
        <ele>820.570</ele>
        <time>2018-06-15T11:42:11Z</time>
      </trkpt>
      <trkpt lat="42.554373" lon="-5.470001">
        <ele>820.640</ele>
        <time>2018-06-15T11:42:13Z</time>
      </trkpt>
      <trkpt lat="42.554422" lon="-5.470074">
        <ele>821.170</ele>
        <time>2018-06-15T11:42:15Z</time>
      </trkpt>
      <trkpt lat="42.554472" lon="-5.470125">
        <ele>821.430</ele>
        <time>2018-06-15T11:42:18Z</time>
      </trkpt>
      <trkpt lat="42.554514" lon="-5.470164">
        <ele>821.651</ele>
        <time>2018-06-15T11:42:20Z</time>
      </trkpt>
      <trkpt lat="42.554587" lon="-5.470235">
        <ele>821.701</ele>
        <time>2018-06-15T11:42:21Z</time>
      </trkpt>
      <trkpt lat="42.554650" lon="-5.470303">
        <ele>821.811</ele>
        <time>2018-06-15T11:42:23Z</time>
      </trkpt>
      <trkpt lat="42.554700" lon="-5.470373">
        <ele>821.808</ele>
        <time>2018-06-15T11:42:25Z</time>
      </trkpt>
      <trkpt lat="42.554755" lon="-5.470494">
        <ele>821.887</ele>
        <time>2018-06-15T11:42:28Z</time>
      </trkpt>
      <trkpt lat="42.554800" lon="-5.470587">
        <ele>821.820</ele>
        <time>2018-06-15T11:42:30Z</time>
      </trkpt>
      <trkpt lat="42.554847" lon="-5.470668">
        <ele>821.823</ele>
        <time>2018-06-15T11:42:32Z</time>
      </trkpt>
      <trkpt lat="42.554905" lon="-5.470747">
        <ele>821.827</ele>
        <time>2018-06-15T11:42:34Z</time>
      </trkpt>
      <trkpt lat="42.554940" lon="-5.470788">
        <ele>821.836</ele>
        <time>2018-06-15T11:42:35Z</time>
      </trkpt>
      <trkpt lat="42.554974" lon="-5.470830">
        <ele>821.846</ele>
        <time>2018-06-15T11:42:36Z</time>
      </trkpt>
      <trkpt lat="42.555033" lon="-5.470909">
        <ele>821.896</ele>
        <time>2018-06-15T11:42:38Z</time>
      </trkpt>
      <trkpt lat="42.555090" lon="-5.470994">
        <ele>821.876</ele>
        <time>2018-06-15T11:42:40Z</time>
      </trkpt>
      <trkpt lat="42.555121" lon="-5.471045">
        <ele>821.837</ele>
        <time>2018-06-15T11:42:41Z</time>
      </trkpt>
      <trkpt lat="42.555153" lon="-5.471091">
        <ele>822.249</ele>
        <time>2018-06-15T11:42:42Z</time>
      </trkpt>
      <trkpt lat="42.555187" lon="-5.471147">
        <ele>822.413</ele>
        <time>2018-06-15T11:42:43Z</time>
      </trkpt>
      <trkpt lat="42.555221" lon="-5.471196">
        <ele>822.508</ele>
        <time>2018-06-15T11:42:44Z</time>
      </trkpt>
      <trkpt lat="42.555250" lon="-5.471245">
        <ele>822.675</ele>
        <time>2018-06-15T11:42:45Z</time>
      </trkpt>
      <trkpt lat="42.555306" lon="-5.471343">
        <ele>822.748</ele>
        <time>2018-06-15T11:42:47Z</time>
      </trkpt>
      <trkpt lat="42.555334" lon="-5.471397">
        <ele>822.321</ele>
        <time>2018-06-15T11:42:48Z</time>
      </trkpt>
      <trkpt lat="42.555364" lon="-5.471452">
        <ele>822.585</ele>
        <time>2018-06-15T11:42:49Z</time>
      </trkpt>
      <trkpt lat="42.555398" lon="-5.471505">
        <ele>822.664</ele>
        <time>2018-06-15T11:42:50Z</time>
      </trkpt>
      <trkpt lat="42.555429" lon="-5.471556">
        <ele>822.734</ele>
        <time>2018-06-15T11:42:51Z</time>
      </trkpt>
      <trkpt lat="42.555459" lon="-5.471612">
        <ele>822.774</ele>
        <time>2018-06-15T11:42:52Z</time>
      </trkpt>
      <trkpt lat="42.555488" lon="-5.471669">
        <ele>822.724</ele>
        <time>2018-06-15T11:42:53Z</time>
      </trkpt>
      <trkpt lat="42.555518" lon="-5.471726">
        <ele>822.714</ele>
        <time>2018-06-15T11:42:54Z</time>
      </trkpt>
      <trkpt lat="42.555547" lon="-5.471779">
        <ele>822.354</ele>
        <time>2018-06-15T11:42:55Z</time>
      </trkpt>
      <trkpt lat="42.555576" lon="-5.471833">
        <ele>822.109</ele>
        <time>2018-06-15T11:42:56Z</time>
      </trkpt>
      <trkpt lat="42.555600" lon="-5.471891">
        <ele>822.008</ele>
        <time>2018-06-15T11:42:57Z</time>
      </trkpt>
      <trkpt lat="42.555628" lon="-5.471949">
        <ele>821.913</ele>
        <time>2018-06-15T11:42:58Z</time>
      </trkpt>
      <trkpt lat="42.555657" lon="-5.472006">
        <ele>822.276</ele>
        <time>2018-06-15T11:42:59Z</time>
      </trkpt>
      <trkpt lat="42.555686" lon="-5.472059">
        <ele>822.469</ele>
        <time>2018-06-15T11:43:00Z</time>
      </trkpt>
      <trkpt lat="42.555712" lon="-5.472116">
        <ele>822.523</ele>
        <time>2018-06-15T11:43:01Z</time>
      </trkpt>
      <trkpt lat="42.555739" lon="-5.472176">
        <ele>822.642</ele>
        <time>2018-06-15T11:43:02Z</time>
      </trkpt>
      <trkpt lat="42.555764" lon="-5.472238">
        <ele>822.692</ele>
        <time>2018-06-15T11:43:03Z</time>
      </trkpt>
      <trkpt lat="42.555785" lon="-5.472302">
        <ele>822.692</ele>
        <time>2018-06-15T11:43:04Z</time>
      </trkpt>
      <trkpt lat="42.555806" lon="-5.472363">
        <ele>822.682</ele>
        <time>2018-06-15T11:43:05Z</time>
      </trkpt>
      <trkpt lat="42.555828" lon="-5.472425">
        <ele>822.269</ele>
        <time>2018-06-15T11:43:06Z</time>
      </trkpt>
      <trkpt lat="42.555852" lon="-5.472487">
        <ele>822.404</ele>
        <time>2018-06-15T11:43:07Z</time>
      </trkpt>
      <trkpt lat="42.555883" lon="-5.472547">
        <ele>822.524</ele>
        <time>2018-06-15T11:43:08Z</time>
      </trkpt>
      <trkpt lat="42.555913" lon="-5.472606">
        <ele>822.608</ele>
        <time>2018-06-15T11:43:09Z</time>
      </trkpt>
      <trkpt lat="42.555946" lon="-5.472661">
        <ele>822.688</ele>
        <time>2018-06-15T11:43:10Z</time>
      </trkpt>
      <trkpt lat="42.555974" lon="-5.472720">
        <ele>822.661</ele>
        <time>2018-06-15T11:43:11Z</time>
      </trkpt>
      <trkpt lat="42.556001" lon="-5.472775">
        <ele>822.674</ele>
        <time>2018-06-15T11:43:12Z</time>
      </trkpt>
      <trkpt lat="42.556034" lon="-5.472830">
        <ele>822.678</ele>
        <time>2018-06-15T11:43:13Z</time>
      </trkpt>
      <trkpt lat="42.556067" lon="-5.472882">
        <ele>822.617</ele>
        <time>2018-06-15T11:43:14Z</time>
      </trkpt>
      <trkpt lat="42.556099" lon="-5.472932">
        <ele>823.097</ele>
        <time>2018-06-15T11:43:15Z</time>
      </trkpt>
      <trkpt lat="42.556127" lon="-5.472983">
        <ele>823.297</ele>
        <time>2018-06-15T11:43:16Z</time>
      </trkpt>
      <trkpt lat="42.556158" lon="-5.473035">
        <ele>823.367</ele>
        <time>2018-06-15T11:43:17Z</time>
      </trkpt>
      <trkpt lat="42.556186" lon="-5.473089">
        <ele>823.498</ele>
        <time>2018-06-15T11:43:18Z</time>
      </trkpt>
      <trkpt lat="42.556212" lon="-5.473145">
        <ele>823.515</ele>
        <time>2018-06-15T11:43:19Z</time>
      </trkpt>
      <trkpt lat="42.556238" lon="-5.473202">
        <ele>823.526</ele>
        <time>2018-06-15T11:43:20Z</time>
      </trkpt>
      <trkpt lat="42.556262" lon="-5.473269">
        <ele>823.508</ele>
        <time>2018-06-15T11:43:21Z</time>
      </trkpt>
      <trkpt lat="42.556285" lon="-5.473332">
        <ele>823.111</ele>
        <time>2018-06-15T11:43:22Z</time>
      </trkpt>
      <trkpt lat="42.556303" lon="-5.473397">
        <ele>822.974</ele>
        <time>2018-06-15T11:43:23Z</time>
      </trkpt>
      <trkpt lat="42.556321" lon="-5.473463">
        <ele>822.887</ele>
        <time>2018-06-15T11:43:24Z</time>
      </trkpt>
      <trkpt lat="42.556340" lon="-5.473530">
        <ele>822.721</ele>
        <time>2018-06-15T11:43:25Z</time>
      </trkpt>
      <trkpt lat="42.556356" lon="-5.473600">
        <ele>823.050</ele>
        <time>2018-06-15T11:43:26Z</time>
      </trkpt>
      <trkpt lat="42.556372" lon="-5.473667">
        <ele>823.280</ele>
        <time>2018-06-15T11:43:27Z</time>
      </trkpt>
      <trkpt lat="42.556387" lon="-5.473736">
        <ele>823.340</ele>
        <time>2018-06-15T11:43:28Z</time>
      </trkpt>
      <trkpt lat="42.556406" lon="-5.473804">
        <ele>823.450</ele>
        <time>2018-06-15T11:43:29Z</time>
      </trkpt>
      <trkpt lat="42.556426" lon="-5.473869">
        <ele>823.463</ele>
        <time>2018-06-15T11:43:30Z</time>
      </trkpt>
      <trkpt lat="42.556443" lon="-5.473936">
        <ele>823.444</ele>
        <time>2018-06-15T11:43:31Z</time>
      </trkpt>
      <trkpt lat="42.556463" lon="-5.474001">
        <ele>823.018</ele>
        <time>2018-06-15T11:43:32Z</time>
      </trkpt>
      <trkpt lat="42.556483" lon="-5.474066">
        <ele>822.808</ele>
        <time>2018-06-15T11:43:33Z</time>
      </trkpt>
      <trkpt lat="42.556504" lon="-5.474134">
        <ele>822.768</ele>
        <time>2018-06-15T11:43:34Z</time>
      </trkpt>
      <trkpt lat="42.556526" lon="-5.474202">
        <ele>822.631</ele>
        <time>2018-06-15T11:43:35Z</time>
      </trkpt>
      <trkpt lat="42.556553" lon="-5.474271">
        <ele>822.654</ele>
        <time>2018-06-15T11:43:36Z</time>
      </trkpt>
      <trkpt lat="42.556580" lon="-5.474335">
        <ele>823.088</ele>
        <time>2018-06-15T11:43:37Z</time>
      </trkpt>
      <trkpt lat="42.556608" lon="-5.474398">
        <ele>823.257</ele>
        <time>2018-06-15T11:43:38Z</time>
      </trkpt>
      <trkpt lat="42.556633" lon="-5.474463">
        <ele>822.977</ele>
        <time>2018-06-15T11:43:39Z</time>
      </trkpt>
      <trkpt lat="42.556658" lon="-5.474527">
        <ele>822.797</ele>
        <time>2018-06-15T11:43:40Z</time>
      </trkpt>
      <trkpt lat="42.556681" lon="-5.474589">
        <ele>822.627</ele>
        <time>2018-06-15T11:43:41Z</time>
      </trkpt>
      <trkpt lat="42.556704" lon="-5.474648">
        <ele>822.957</ele>
        <time>2018-06-15T11:43:42Z</time>
      </trkpt>
      <trkpt lat="42.556729" lon="-5.474704">
        <ele>823.100</ele>
        <time>2018-06-15T11:43:43Z</time>
      </trkpt>
      <trkpt lat="42.556752" lon="-5.474761">
        <ele>823.220</ele>
        <time>2018-06-15T11:43:44Z</time>
      </trkpt>
      <trkpt lat="42.556775" lon="-5.474822">
        <ele>823.308</ele>
        <time>2018-06-15T11:43:45Z</time>
      </trkpt>
      <trkpt lat="42.556799" lon="-5.474884">
        <ele>823.317</ele>
        <time>2018-06-15T11:43:46Z</time>
      </trkpt>
      <trkpt lat="42.556826" lon="-5.474947">
        <ele>823.310</ele>
        <time>2018-06-15T11:43:47Z</time>
      </trkpt>
      <trkpt lat="42.556850" lon="-5.475011">
        <ele>823.323</ele>
        <time>2018-06-15T11:43:48Z</time>
      </trkpt>
      <trkpt lat="42.556875" lon="-5.475073">
        <ele>823.367</ele>
        <time>2018-06-15T11:43:49Z</time>
      </trkpt>
      <trkpt lat="42.556894" lon="-5.475137">
        <ele>823.356</ele>
        <time>2018-06-15T11:43:50Z</time>
      </trkpt>
      <trkpt lat="42.556918" lon="-5.475199">
        <ele>823.376</ele>
        <time>2018-06-15T11:43:51Z</time>
      </trkpt>
      <trkpt lat="42.556942" lon="-5.475259">
        <ele>823.316</ele>
        <time>2018-06-15T11:43:52Z</time>
      </trkpt>
      <trkpt lat="42.556967" lon="-5.475320">
        <ele>823.746</ele>
        <time>2018-06-15T11:43:53Z</time>
      </trkpt>
      <trkpt lat="42.556997" lon="-5.475383">
        <ele>823.992</ele>
        <time>2018-06-15T11:43:54Z</time>
      </trkpt>
      <trkpt lat="42.557023" lon="-5.475441">
        <ele>824.073</ele>
        <time>2018-06-15T11:43:55Z</time>
      </trkpt>
      <trkpt lat="42.557052" lon="-5.475495">
        <ele>824.120</ele>
        <time>2018-06-15T11:43:56Z</time>
      </trkpt>
      <trkpt lat="42.557080" lon="-5.475546">
        <ele>824.208</ele>
        <time>2018-06-15T11:43:57Z</time>
      </trkpt>
      <trkpt lat="42.557111" lon="-5.475600">
        <ele>824.241</ele>
        <time>2018-06-15T11:43:58Z</time>
      </trkpt>
      <trkpt lat="42.557140" lon="-5.475655">
        <ele>824.214</ele>
        <time>2018-06-15T11:43:59Z</time>
      </trkpt>
      <trkpt lat="42.557175" lon="-5.475705">
        <ele>824.227</ele>
        <time>2018-06-15T11:44:00Z</time>
      </trkpt>
      <trkpt lat="42.557210" lon="-5.475754">
        <ele>824.271</ele>
        <time>2018-06-15T11:44:01Z</time>
      </trkpt>
      <trkpt lat="42.557244" lon="-5.475800">
        <ele>824.250</ele>
        <time>2018-06-15T11:44:02Z</time>
      </trkpt>
      <trkpt lat="42.557279" lon="-5.475851">
        <ele>824.220</ele>
        <time>2018-06-15T11:44:03Z</time>
      </trkpt>
      <trkpt lat="42.557315" lon="-5.475899">
        <ele>824.640</ele>
        <time>2018-06-15T11:44:04Z</time>
      </trkpt>
      <trkpt lat="42.557350" lon="-5.475945">
        <ele>824.850</ele>
        <time>2018-06-15T11:44:05Z</time>
      </trkpt>
      <trkpt lat="42.557388" lon="-5.475995">
        <ele>824.979</ele>
        <time>2018-06-15T11:44:06Z</time>
      </trkpt>
      <trkpt lat="42.557423" lon="-5.476045">
        <ele>825.005</ele>
        <time>2018-06-15T11:44:07Z</time>
      </trkpt>
      <trkpt lat="42.557457" lon="-5.476094">
        <ele>825.125</ele>
        <time>2018-06-15T11:44:08Z</time>
      </trkpt>
      <trkpt lat="42.557493" lon="-5.476144">
        <ele>825.108</ele>
        <time>2018-06-15T11:44:09Z</time>
      </trkpt>
      <trkpt lat="42.557532" lon="-5.476192">
        <ele>825.539</ele>
        <time>2018-06-15T11:44:10Z</time>
      </trkpt>
      <trkpt lat="42.557565" lon="-5.476239">
        <ele>825.412</ele>
        <time>2018-06-15T11:44:11Z</time>
      </trkpt>
      <trkpt lat="42.557598" lon="-5.476284">
        <ele>825.715</ele>
        <time>2018-06-15T11:44:12Z</time>
      </trkpt>
      <trkpt lat="42.557633" lon="-5.476332">
        <ele>825.989</ele>
        <time>2018-06-15T11:44:13Z</time>
      </trkpt>
      <trkpt lat="42.557667" lon="-5.476380">
        <ele>826.078</ele>
        <time>2018-06-15T11:44:14Z</time>
      </trkpt>
      <trkpt lat="42.557697" lon="-5.476426">
        <ele>826.118</ele>
        <time>2018-06-15T11:44:15Z</time>
      </trkpt>
      <trkpt lat="42.557750" lon="-5.476516">
        <ele>825.748</ele>
        <time>2018-06-15T11:44:17Z</time>
      </trkpt>
      <trkpt lat="42.557811" lon="-5.476602">
        <ele>825.928</ele>
        <time>2018-06-15T11:44:19Z</time>
      </trkpt>
      <trkpt lat="42.557868" lon="-5.476684">
        <ele>826.042</ele>
        <time>2018-06-15T11:44:21Z</time>
      </trkpt>
      <trkpt lat="42.557925" lon="-5.476780">
        <ele>826.122</ele>
        <time>2018-06-15T11:44:23Z</time>
      </trkpt>
      <trkpt lat="42.557960" lon="-5.476828">
        <ele>826.114</ele>
        <time>2018-06-15T11:44:24Z</time>
      </trkpt>
      <trkpt lat="42.557993" lon="-5.476880">
        <ele>826.108</ele>
        <time>2018-06-15T11:44:25Z</time>
      </trkpt>
      <trkpt lat="42.558023" lon="-5.476930">
        <ele>826.196</ele>
        <time>2018-06-15T11:44:26Z</time>
      </trkpt>
      <trkpt lat="42.558053" lon="-5.476980">
        <ele>826.169</ele>
        <time>2018-06-15T11:44:27Z</time>
      </trkpt>
      <trkpt lat="42.558083" lon="-5.477034">
        <ele>826.142</ele>
        <time>2018-06-15T11:44:28Z</time>
      </trkpt>
      <trkpt lat="42.558115" lon="-5.477088">
        <ele>826.186</ele>
        <time>2018-06-15T11:44:29Z</time>
      </trkpt>
      <trkpt lat="42.558144" lon="-5.477143">
        <ele>825.735</ele>
        <time>2018-06-15T11:44:30Z</time>
      </trkpt>
      <trkpt lat="42.558178" lon="-5.477193">
        <ele>825.565</ele>
        <time>2018-06-15T11:44:31Z</time>
      </trkpt>
      <trkpt lat="42.558211" lon="-5.477247">
        <ele>825.465</ele>
        <time>2018-06-15T11:44:32Z</time>
      </trkpt>
      <trkpt lat="42.558245" lon="-5.477296">
        <ele>825.315</ele>
        <time>2018-06-15T11:44:33Z</time>
      </trkpt>
      <trkpt lat="42.558275" lon="-5.477351">
        <ele>825.269</ele>
        <time>2018-06-15T11:44:34Z</time>
      </trkpt>
      <trkpt lat="42.558307" lon="-5.477407">
        <ele>825.204</ele>
        <time>2018-06-15T11:44:35Z</time>
      </trkpt>
      <trkpt lat="42.558340" lon="-5.477456">
        <ele>825.624</ele>
        <time>2018-06-15T11:44:36Z</time>
      </trkpt>
      <trkpt lat="42.558372" lon="-5.477505">
        <ele>825.808</ele>
        <time>2018-06-15T11:44:37Z</time>
      </trkpt>
      <trkpt lat="42.558400" lon="-5.477556">
        <ele>825.998</ele>
        <time>2018-06-15T11:44:38Z</time>
      </trkpt>
      <trkpt lat="42.558431" lon="-5.477606">
        <ele>826.051</ele>
        <time>2018-06-15T11:44:39Z</time>
      </trkpt>
      <trkpt lat="42.558460" lon="-5.477658">
        <ele>826.044</ele>
        <time>2018-06-15T11:44:40Z</time>
      </trkpt>
      <trkpt lat="42.558489" lon="-5.477710">
        <ele>826.468</ele>
        <time>2018-06-15T11:44:41Z</time>
      </trkpt>
      <trkpt lat="42.558515" lon="-5.477762">
        <ele>826.777</ele>
        <time>2018-06-15T11:44:42Z</time>
      </trkpt>
      <trkpt lat="42.558543" lon="-5.477814">
        <ele>826.937</ele>
        <time>2018-06-15T11:44:43Z</time>
      </trkpt>
      <trkpt lat="42.558571" lon="-5.477867">
        <ele>827.037</ele>
        <time>2018-06-15T11:44:44Z</time>
      </trkpt>
      <trkpt lat="42.558597" lon="-5.477919">
        <ele>827.177</ele>
        <time>2018-06-15T11:44:45Z</time>
      </trkpt>
      <trkpt lat="42.558626" lon="-5.477972">
        <ele>827.178</ele>
        <time>2018-06-15T11:44:46Z</time>
      </trkpt>
      <trkpt lat="42.558654" lon="-5.478022">
        <ele>827.133</ele>
        <time>2018-06-15T11:44:47Z</time>
      </trkpt>
      <trkpt lat="42.558682" lon="-5.478077">
        <ele>827.126</ele>
        <time>2018-06-15T11:44:48Z</time>
      </trkpt>
      <trkpt lat="42.558706" lon="-5.478131">
        <ele>827.108</ele>
        <time>2018-06-15T11:44:49Z</time>
      </trkpt>
      <trkpt lat="42.558735" lon="-5.478179">
        <ele>827.159</ele>
        <time>2018-06-15T11:44:50Z</time>
      </trkpt>
      <trkpt lat="42.558763" lon="-5.478233">
        <ele>827.182</ele>
        <time>2018-06-15T11:44:51Z</time>
      </trkpt>
      <trkpt lat="42.558791" lon="-5.478289">
        <ele>827.155</ele>
        <time>2018-06-15T11:44:52Z</time>
      </trkpt>
      <trkpt lat="42.558819" lon="-5.478343">
        <ele>827.159</ele>
        <time>2018-06-15T11:44:53Z</time>
      </trkpt>
      <trkpt lat="42.558843" lon="-5.478398">
        <ele>827.188</ele>
        <time>2018-06-15T11:44:54Z</time>
      </trkpt>
      <trkpt lat="42.558874" lon="-5.478448">
        <ele>827.198</ele>
        <time>2018-06-15T11:44:55Z</time>
      </trkpt>
      <trkpt lat="42.558920" lon="-5.478556">
        <ele>827.148</ele>
        <time>2018-06-15T11:44:57Z</time>
      </trkpt>
      <trkpt lat="42.558944" lon="-5.478613">
        <ele>827.178</ele>
        <time>2018-06-15T11:44:58Z</time>
      </trkpt>
      <trkpt lat="42.558964" lon="-5.478673">
        <ele>827.172</ele>
        <time>2018-06-15T11:44:59Z</time>
      </trkpt>
      <trkpt lat="42.558986" lon="-5.478732">
        <ele>827.113</ele>
        <time>2018-06-15T11:45:00Z</time>
      </trkpt>
      <trkpt lat="42.559014" lon="-5.478784">
        <ele>827.114</ele>
        <time>2018-06-15T11:45:01Z</time>
      </trkpt>
      <trkpt lat="42.559042" lon="-5.478836">
        <ele>827.108</ele>
        <time>2018-06-15T11:45:02Z</time>
      </trkpt>
      <trkpt lat="42.559070" lon="-5.478891">
        <ele>827.149</ele>
        <time>2018-06-15T11:45:03Z</time>
      </trkpt>
      <trkpt lat="42.559097" lon="-5.478945">
        <ele>827.182</ele>
        <time>2018-06-15T11:45:04Z</time>
      </trkpt>
      <trkpt lat="42.559122" lon="-5.478998">
        <ele>827.565</ele>
        <time>2018-06-15T11:45:05Z</time>
      </trkpt>
      <trkpt lat="42.559148" lon="-5.479052">
        <ele>827.789</ele>
        <time>2018-06-15T11:45:06Z</time>
      </trkpt>
      <trkpt lat="42.559177" lon="-5.479105">
        <ele>827.878</ele>
        <time>2018-06-15T11:45:07Z</time>
      </trkpt>
      <trkpt lat="42.559203" lon="-5.479159">
        <ele>827.968</ele>
        <time>2018-06-15T11:45:08Z</time>
      </trkpt>
      <trkpt lat="42.559234" lon="-5.479208">
        <ele>828.028</ele>
        <time>2018-06-15T11:45:09Z</time>
      </trkpt>
      <trkpt lat="42.559262" lon="-5.479257">
        <ele>828.088</ele>
        <time>2018-06-15T11:45:10Z</time>
      </trkpt>
      <trkpt lat="42.559290" lon="-5.479308">
        <ele>828.046</ele>
        <time>2018-06-15T11:45:11Z</time>
      </trkpt>
      <trkpt lat="42.559319" lon="-5.479358">
        <ele>828.088</ele>
        <time>2018-06-15T11:45:12Z</time>
      </trkpt>
      <trkpt lat="42.559350" lon="-5.479403">
        <ele>828.416</ele>
        <time>2018-06-15T11:45:13Z</time>
      </trkpt>
      <trkpt lat="42.559407" lon="-5.479485">
        <ele>829.008</ele>
        <time>2018-06-15T11:45:15Z</time>
      </trkpt>
      <trkpt lat="42.559465" lon="-5.479565">
        <ele>829.446</ele>
        <time>2018-06-15T11:45:17Z</time>
      </trkpt>
      <trkpt lat="42.559532" lon="-5.479639">
        <ele>829.649</ele>
        <time>2018-06-15T11:45:19Z</time>
      </trkpt>
      <trkpt lat="42.559602" lon="-5.479706">
        <ele>829.712</ele>
        <time>2018-06-15T11:45:21Z</time>
      </trkpt>
      <trkpt lat="42.559667" lon="-5.479782">
        <ele>829.886</ele>
        <time>2018-06-15T11:45:23Z</time>
      </trkpt>
      <trkpt lat="42.559734" lon="-5.479847">
        <ele>829.955</ele>
        <time>2018-06-15T11:45:25Z</time>
      </trkpt>
      <trkpt lat="42.559770" lon="-5.479884">
        <ele>830.325</ele>
        <time>2018-06-15T11:45:26Z</time>
      </trkpt>
      <trkpt lat="42.559834" lon="-5.479952">
        <ele>830.245</ele>
        <time>2018-06-15T11:45:28Z</time>
      </trkpt>
      <trkpt lat="42.559910" lon="-5.480021">
        <ele>830.575</ele>
        <time>2018-06-15T11:45:30Z</time>
      </trkpt>
      <trkpt lat="42.559981" lon="-5.480087">
        <ele>831.188</ele>
        <time>2018-06-15T11:45:32Z</time>
      </trkpt>
      <trkpt lat="42.560047" lon="-5.480158">
        <ele>831.524</ele>
        <time>2018-06-15T11:45:34Z</time>
      </trkpt>
      <trkpt lat="42.560084" lon="-5.480192">
        <ele>831.726</ele>
        <time>2018-06-15T11:45:35Z</time>
      </trkpt>
      <trkpt lat="42.560154" lon="-5.480258">
        <ele>831.808</ele>
        <time>2018-06-15T11:45:37Z</time>
      </trkpt>
      <trkpt lat="42.560223" lon="-5.480325">
        <ele>831.910</ele>
        <time>2018-06-15T11:45:39Z</time>
      </trkpt>
      <trkpt lat="42.560295" lon="-5.480390">
        <ele>831.993</ele>
        <time>2018-06-15T11:45:41Z</time>
      </trkpt>
      <trkpt lat="42.560367" lon="-5.480460">
        <ele>831.996</ele>
        <time>2018-06-15T11:45:43Z</time>
      </trkpt>
      <trkpt lat="42.560403" lon="-5.480497">
        <ele>832.360</ele>
        <time>2018-06-15T11:45:44Z</time>
      </trkpt>
      <trkpt lat="42.560474" lon="-5.480562">
        <ele>832.539</ele>
        <time>2018-06-15T11:45:46Z</time>
      </trkpt>
      <trkpt lat="42.560514" lon="-5.480597">
        <ele>832.219</ele>
        <time>2018-06-15T11:45:47Z</time>
      </trkpt>
      <trkpt lat="42.560550" lon="-5.480635">
        <ele>832.089</ele>
        <time>2018-06-15T11:45:48Z</time>
      </trkpt>
      <trkpt lat="42.560582" lon="-5.480678">
        <ele>832.349</ele>
        <time>2018-06-15T11:45:49Z</time>
      </trkpt>
      <trkpt lat="42.560619" lon="-5.480716">
        <ele>832.576</ele>
        <time>2018-06-15T11:45:50Z</time>
      </trkpt>
      <trkpt lat="42.560658" lon="-5.480754">
        <ele>832.690</ele>
        <time>2018-06-15T11:45:51Z</time>
      </trkpt>
      <trkpt lat="42.560694" lon="-5.480792">
        <ele>832.719</ele>
        <time>2018-06-15T11:45:52Z</time>
      </trkpt>
      <trkpt lat="42.560766" lon="-5.480869">
        <ele>832.708</ele>
        <time>2018-06-15T11:45:54Z</time>
      </trkpt>
      <trkpt lat="42.560832" lon="-5.480946">
        <ele>832.799</ele>
        <time>2018-06-15T11:45:56Z</time>
      </trkpt>
      <trkpt lat="42.560865" lon="-5.480990">
        <ele>832.772</ele>
        <time>2018-06-15T11:45:57Z</time>
      </trkpt>
      <trkpt lat="42.560899" lon="-5.481034">
        <ele>833.115</ele>
        <time>2018-06-15T11:45:58Z</time>
      </trkpt>
      <trkpt lat="42.560933" lon="-5.481077">
        <ele>832.919</ele>
        <time>2018-06-15T11:45:59Z</time>
      </trkpt>
      <trkpt lat="42.560965" lon="-5.481121">
        <ele>832.828</ele>
        <time>2018-06-15T11:46:00Z</time>
      </trkpt>
      <trkpt lat="42.560998" lon="-5.481170">
        <ele>832.728</ele>
        <time>2018-06-15T11:46:01Z</time>
      </trkpt>
      <trkpt lat="42.561027" lon="-5.481217">
        <ele>833.188</ele>
        <time>2018-06-15T11:46:02Z</time>
      </trkpt>
      <trkpt lat="42.561056" lon="-5.481274">
        <ele>833.388</ele>
        <time>2018-06-15T11:46:03Z</time>
      </trkpt>
      <trkpt lat="42.561087" lon="-5.481327">
        <ele>833.467</ele>
        <time>2018-06-15T11:46:04Z</time>
      </trkpt>
      <trkpt lat="42.561121" lon="-5.481379">
        <ele>833.181</ele>
        <time>2018-06-15T11:46:05Z</time>
      </trkpt>
      <trkpt lat="42.561156" lon="-5.481431">
        <ele>833.319</ele>
        <time>2018-06-15T11:46:06Z</time>
      </trkpt>
      <trkpt lat="42.561191" lon="-5.481486">
        <ele>833.408</ele>
        <time>2018-06-15T11:46:07Z</time>
      </trkpt>
      <trkpt lat="42.561228" lon="-5.481539">
        <ele>833.518</ele>
        <time>2018-06-15T11:46:08Z</time>
      </trkpt>
      <trkpt lat="42.561267" lon="-5.481593">
        <ele>833.561</ele>
        <time>2018-06-15T11:46:09Z</time>
      </trkpt>
      <trkpt lat="42.561302" lon="-5.481648">
        <ele>833.564</ele>
        <time>2018-06-15T11:46:10Z</time>
      </trkpt>
      <trkpt lat="42.561337" lon="-5.481703">
        <ele>833.558</ele>
        <time>2018-06-15T11:46:11Z</time>
      </trkpt>
      <trkpt lat="42.561368" lon="-5.481758">
        <ele>833.187</ele>
        <time>2018-06-15T11:46:12Z</time>
      </trkpt>
      <trkpt lat="42.561406" lon="-5.481808">
        <ele>832.997</ele>
        <time>2018-06-15T11:46:13Z</time>
      </trkpt>
      <trkpt lat="42.561444" lon="-5.481864">
        <ele>832.457</ele>
        <time>2018-06-15T11:46:14Z</time>
      </trkpt>
      <trkpt lat="42.561482" lon="-5.481924">
        <ele>832.157</ele>
        <time>2018-06-15T11:46:15Z</time>
      </trkpt>
      <trkpt lat="42.561523" lon="-5.481982">
        <ele>831.957</ele>
        <time>2018-06-15T11:46:16Z</time>
      </trkpt>
      <trkpt lat="42.561564" lon="-5.482035">
        <ele>831.800</ele>
        <time>2018-06-15T11:46:17Z</time>
      </trkpt>
      <trkpt lat="42.561605" lon="-5.482093">
        <ele>831.720</ele>
        <time>2018-06-15T11:46:18Z</time>
      </trkpt>
      <trkpt lat="42.561645" lon="-5.482148">
        <ele>831.708</ele>
        <time>2018-06-15T11:46:19Z</time>
      </trkpt>
      <trkpt lat="42.561688" lon="-5.482196">
        <ele>831.797</ele>
        <time>2018-06-15T11:46:20Z</time>
      </trkpt>
      <trkpt lat="42.561731" lon="-5.482246">
        <ele>831.750</ele>
        <time>2018-06-15T11:46:21Z</time>
      </trkpt>
      <trkpt lat="42.561774" lon="-5.482296">
        <ele>831.733</ele>
        <time>2018-06-15T11:46:22Z</time>
      </trkpt>
      <trkpt lat="42.561809" lon="-5.482346">
        <ele>831.727</ele>
        <time>2018-06-15T11:46:23Z</time>
      </trkpt>
      <trkpt lat="42.561845" lon="-5.482394">
        <ele>831.756</ele>
        <time>2018-06-15T11:46:24Z</time>
      </trkpt>
      <trkpt lat="42.561881" lon="-5.482443">
        <ele>832.176</ele>
        <time>2018-06-15T11:46:25Z</time>
      </trkpt>
      <trkpt lat="42.561917" lon="-5.482489">
        <ele>832.336</ele>
        <time>2018-06-15T11:46:26Z</time>
      </trkpt>
      <trkpt lat="42.561953" lon="-5.482536">
        <ele>832.816</ele>
        <time>2018-06-15T11:46:27Z</time>
      </trkpt>
      <trkpt lat="42.561988" lon="-5.482581">
        <ele>833.195</ele>
        <time>2018-06-15T11:46:28Z</time>
      </trkpt>
      <trkpt lat="42.562026" lon="-5.482628">
        <ele>832.949</ele>
        <time>2018-06-15T11:46:29Z</time>
      </trkpt>
      <trkpt lat="42.562065" lon="-5.482676">
        <ele>833.223</ele>
        <time>2018-06-15T11:46:30Z</time>
      </trkpt>
      <trkpt lat="42.562095" lon="-5.482723">
        <ele>833.008</ele>
        <time>2018-06-15T11:46:31Z</time>
      </trkpt>
      <trkpt lat="42.562127" lon="-5.482777">
        <ele>832.941</ele>
        <time>2018-06-15T11:46:32Z</time>
      </trkpt>
      <trkpt lat="42.562160" lon="-5.482825">
        <ele>832.874</ele>
        <time>2018-06-15T11:46:33Z</time>
      </trkpt>
      <trkpt lat="42.562195" lon="-5.482871">
        <ele>832.737</ele>
        <time>2018-06-15T11:46:34Z</time>
      </trkpt>
      <trkpt lat="42.562231" lon="-5.482918">
        <ele>833.171</ele>
        <time>2018-06-15T11:46:35Z</time>
      </trkpt>
      <trkpt lat="42.562265" lon="-5.482963">
        <ele>832.990</ele>
        <time>2018-06-15T11:46:36Z</time>
      </trkpt>
      <trkpt lat="42.562300" lon="-5.483002">
        <ele>833.230</ele>
        <time>2018-06-15T11:46:37Z</time>
      </trkpt>
      <trkpt lat="42.562362" lon="-5.483077">
        <ele>833.440</ele>
        <time>2018-06-15T11:46:39Z</time>
      </trkpt>
      <trkpt lat="42.562398" lon="-5.483135">
        <ele>833.190</ele>
        <time>2018-06-15T11:46:41Z</time>
      </trkpt>
      <trkpt lat="42.562434" lon="-5.483174">
        <ele>833.399</ele>
        <time>2018-06-15T11:46:43Z</time>
      </trkpt>
      <trkpt lat="42.562478" lon="-5.483215">
        <ele>833.007</ele>
        <time>2018-06-15T11:46:45Z</time>
      </trkpt>
      <trkpt lat="42.562544" lon="-5.483279">
        <ele>833.227</ele>
        <time>2018-06-15T11:46:46Z</time>
      </trkpt>
      <trkpt lat="42.562587" lon="-5.483354">
        <ele>832.908</ele>
        <time>2018-06-15T11:46:48Z</time>
      </trkpt>
      <trkpt lat="42.562629" lon="-5.483437">
        <ele>832.321</ele>
        <time>2018-06-15T11:46:50Z</time>
      </trkpt>
      <trkpt lat="42.562666" lon="-5.483540">
        <ele>832.094</ele>
        <time>2018-06-15T11:46:52Z</time>
      </trkpt>
      <trkpt lat="42.562700" lon="-5.483642">
        <ele>831.887</ele>
        <time>2018-06-15T11:46:54Z</time>
      </trkpt>
      <trkpt lat="42.562743" lon="-5.483742">
        <ele>831.771</ele>
        <time>2018-06-15T11:46:56Z</time>
      </trkpt>
      <trkpt lat="42.562775" lon="-5.483846">
        <ele>832.040</ele>
        <time>2018-06-15T11:46:58Z</time>
      </trkpt>
      <trkpt lat="42.562809" lon="-5.483946">
        <ele>832.280</ele>
        <time>2018-06-15T11:47:00Z</time>
      </trkpt>
      <trkpt lat="42.562846" lon="-5.484045">
        <ele>832.350</ele>
        <time>2018-06-15T11:47:02Z</time>
      </trkpt>
      <trkpt lat="42.562886" lon="-5.484151">
        <ele>832.420</ele>
        <time>2018-06-15T11:47:04Z</time>
      </trkpt>
      <trkpt lat="42.562907" lon="-5.484205">
        <ele>832.429</ele>
        <time>2018-06-15T11:47:05Z</time>
      </trkpt>
      <trkpt lat="42.562926" lon="-5.484261">
        <ele>832.400</ele>
        <time>2018-06-15T11:47:06Z</time>
      </trkpt>
      <trkpt lat="42.562967" lon="-5.484365">
        <ele>832.820</ele>
        <time>2018-06-15T11:47:08Z</time>
      </trkpt>
      <trkpt lat="42.563001" lon="-5.484472">
        <ele>833.008</ele>
        <time>2018-06-15T11:47:10Z</time>
      </trkpt>
      <trkpt lat="42.563038" lon="-5.484581">
        <ele>833.164</ele>
        <time>2018-06-15T11:47:12Z</time>
      </trkpt>
      <trkpt lat="42.563058" lon="-5.484638">
        <ele>832.877</ele>
        <time>2018-06-15T11:47:13Z</time>
      </trkpt>
      <trkpt lat="42.563076" lon="-5.484694">
        <ele>833.010</ele>
        <time>2018-06-15T11:47:14Z</time>
      </trkpt>
      <trkpt lat="42.563114" lon="-5.484800">
        <ele>833.184</ele>
        <time>2018-06-15T11:47:16Z</time>
      </trkpt>
      <trkpt lat="42.563150" lon="-5.484906">
        <ele>833.623</ele>
        <time>2018-06-15T11:47:18Z</time>
      </trkpt>
      <trkpt lat="42.563181" lon="-5.485012">
        <ele>833.993</ele>
        <time>2018-06-15T11:47:20Z</time>
      </trkpt>
      <trkpt lat="42.563213" lon="-5.485115">
        <ele>834.133</ele>
        <time>2018-06-15T11:47:22Z</time>
      </trkpt>
      <trkpt lat="42.563250" lon="-5.485221">
        <ele>834.273</ele>
        <time>2018-06-15T11:47:24Z</time>
      </trkpt>
      <trkpt lat="42.563268" lon="-5.485277">
        <ele>834.359</ele>
        <time>2018-06-15T11:47:25Z</time>
      </trkpt>
      <trkpt lat="42.563288" lon="-5.485333">
        <ele>834.303</ele>
        <time>2018-06-15T11:47:26Z</time>
      </trkpt>
      <trkpt lat="42.563311" lon="-5.485387">
        <ele>834.323</ele>
        <time>2018-06-15T11:47:27Z</time>
      </trkpt>
      <trkpt lat="42.563332" lon="-5.485444">
        <ele>834.308</ele>
        <time>2018-06-15T11:47:28Z</time>
      </trkpt>
      <trkpt lat="42.563360" lon="-5.485496">
        <ele>834.397</ele>
        <time>2018-06-15T11:47:29Z</time>
      </trkpt>
      <trkpt lat="42.563393" lon="-5.485547">
        <ele>834.390</ele>
        <time>2018-06-15T11:47:30Z</time>
      </trkpt>
      <trkpt lat="42.563431" lon="-5.485599">
        <ele>834.383</ele>
        <time>2018-06-15T11:47:31Z</time>
      </trkpt>
      <trkpt lat="42.563473" lon="-5.485647">
        <ele>833.917</ele>
        <time>2018-06-15T11:47:32Z</time>
      </trkpt>
      <trkpt lat="42.563521" lon="-5.485688">
        <ele>833.736</ele>
        <time>2018-06-15T11:47:33Z</time>
      </trkpt>
      <trkpt lat="42.563563" lon="-5.485725">
        <ele>834.036</ele>
        <time>2018-06-15T11:47:34Z</time>
      </trkpt>
      <trkpt lat="42.563605" lon="-5.485762">
        <ele>833.836</ele>
        <time>2018-06-15T11:47:35Z</time>
      </trkpt>
      <trkpt lat="42.563647" lon="-5.485799">
        <ele>833.786</ele>
        <time>2018-06-15T11:47:36Z</time>
      </trkpt>
      <trkpt lat="42.563726" lon="-5.485848">
        <ele>833.618</ele>
        <time>2018-06-15T11:47:38Z</time>
      </trkpt>
      <trkpt lat="42.563767" lon="-5.485874">
        <ele>833.598</ele>
        <time>2018-06-15T11:47:39Z</time>
      </trkpt>
      <trkpt lat="42.563835" lon="-5.485899">
        <ele>833.517</ele>
        <time>2018-06-15T11:47:40Z</time>
      </trkpt>
      <trkpt lat="42.563906" lon="-5.485876">
        <ele>833.508</ele>
        <time>2018-06-15T11:47:41Z</time>
      </trkpt>
      <trkpt lat="42.564027" lon="-5.485873">
        <ele>833.513</ele>
        <time>2018-06-15T11:47:43Z</time>
      </trkpt>
      <trkpt lat="42.564082" lon="-5.485860">
        <ele>833.546</ele>
        <time>2018-06-15T11:47:44Z</time>
      </trkpt>
      <trkpt lat="42.564125" lon="-5.485836">
        <ele>833.519</ele>
        <time>2018-06-15T11:47:45Z</time>
      </trkpt>
      <trkpt lat="42.564094" lon="-5.485922">
        <ele>833.513</ele>
        <time>2018-06-15T11:47:49Z</time>
      </trkpt>
      <trkpt lat="42.564198" lon="-5.486113">
        <ele>833.162</ele>
        <time>2018-06-15T11:47:50Z</time>
      </trkpt>
      <trkpt lat="42.564242" lon="-5.486194">
        <ele>833.392</ele>
        <time>2018-06-15T11:47:51Z</time>
      </trkpt>
      <trkpt lat="42.564287" lon="-5.486279">
        <ele>833.482</ele>
        <time>2018-06-15T11:47:52Z</time>
      </trkpt>
      <trkpt lat="42.564339" lon="-5.486360">
        <ele>834.312</ele>
        <time>2018-06-15T11:47:53Z</time>
      </trkpt>
      <trkpt lat="42.564369" lon="-5.486450">
        <ele>834.444</ele>
        <time>2018-06-15T11:47:54Z</time>
      </trkpt>
      <trkpt lat="42.564391" lon="-5.486522">
        <ele>834.905</ele>
        <time>2018-06-15T11:47:55Z</time>
      </trkpt>
      <trkpt lat="42.564405" lon="-5.486597">
        <ele>835.615</ele>
        <time>2018-06-15T11:47:56Z</time>
      </trkpt>
      <trkpt lat="42.564409" lon="-5.486677">
        <ele>835.608</ele>
        <time>2018-06-15T11:47:57Z</time>
      </trkpt>
      <trkpt lat="42.564407" lon="-5.486757">
        <ele>835.626</ele>
        <time>2018-06-15T11:47:58Z</time>
      </trkpt>
      <trkpt lat="42.564403" lon="-5.486833">
        <ele>835.689</ele>
        <time>2018-06-15T11:47:59Z</time>
      </trkpt>
      <trkpt lat="42.564396" lon="-5.486918">
        <ele>835.212</ele>
        <time>2018-06-15T11:48:00Z</time>
      </trkpt>
      <trkpt lat="42.564393" lon="-5.486993">
        <ele>835.056</ele>
        <time>2018-06-15T11:48:01Z</time>
      </trkpt>
      <trkpt lat="42.564389" lon="-5.487064">
        <ele>834.935</ele>
        <time>2018-06-15T11:48:02Z</time>
      </trkpt>
      <trkpt lat="42.564381" lon="-5.487129">
        <ele>834.815</ele>
        <time>2018-06-15T11:48:03Z</time>
      </trkpt>
      <trkpt lat="42.564376" lon="-5.487199">
        <ele>834.765</ele>
        <time>2018-06-15T11:48:04Z</time>
      </trkpt>
      <trkpt lat="42.564374" lon="-5.487266">
        <ele>834.735</ele>
        <time>2018-06-15T11:48:05Z</time>
      </trkpt>
      <trkpt lat="42.564368" lon="-5.487331">
        <ele>834.797</ele>
        <time>2018-06-15T11:48:06Z</time>
      </trkpt>
      <trkpt lat="42.564364" lon="-5.487401">
        <ele>834.323</ele>
        <time>2018-06-15T11:48:07Z</time>
      </trkpt>
      <trkpt lat="42.564364" lon="-5.487469">
        <ele>834.125</ele>
        <time>2018-06-15T11:48:08Z</time>
      </trkpt>
      <trkpt lat="42.564359" lon="-5.487535">
        <ele>834.008</ele>
        <time>2018-06-15T11:48:09Z</time>
      </trkpt>
      <trkpt lat="42.564357" lon="-5.487602">
        <ele>833.961</ele>
        <time>2018-06-15T11:48:10Z</time>
      </trkpt>
      <trkpt lat="42.564354" lon="-5.487672">
        <ele>833.894</ele>
        <time>2018-06-15T11:48:11Z</time>
      </trkpt>
      <trkpt lat="42.564354" lon="-5.487742">
        <ele>833.857</ele>
        <time>2018-06-15T11:48:12Z</time>
      </trkpt>
      <trkpt lat="42.564353" lon="-5.487809">
        <ele>833.871</ele>
        <time>2018-06-15T11:48:13Z</time>
      </trkpt>
      <trkpt lat="42.564352" lon="-5.487878">
        <ele>833.870</ele>
        <time>2018-06-15T11:48:14Z</time>
      </trkpt>
      <trkpt lat="42.564348" lon="-5.487944">
        <ele>833.810</ele>
        <time>2018-06-15T11:48:15Z</time>
      </trkpt>
      <trkpt lat="42.564348" lon="-5.488014">
        <ele>833.890</ele>
        <time>2018-06-15T11:48:16Z</time>
      </trkpt>
      <trkpt lat="42.564352" lon="-5.488083">
        <ele>833.850</ele>
        <time>2018-06-15T11:48:17Z</time>
      </trkpt>
      <trkpt lat="42.564357" lon="-5.488153">
        <ele>833.826</ele>
        <time>2018-06-15T11:48:18Z</time>
      </trkpt>
      <trkpt lat="42.564366" lon="-5.488220">
        <ele>833.847</ele>
        <time>2018-06-15T11:48:19Z</time>
      </trkpt>
      <trkpt lat="42.564382" lon="-5.488287">
        <ele>833.411</ele>
        <time>2018-06-15T11:48:20Z</time>
      </trkpt>
      <trkpt lat="42.564400" lon="-5.488350">
        <ele>833.208</ele>
        <time>2018-06-15T11:48:21Z</time>
      </trkpt>
      <trkpt lat="42.564417" lon="-5.488415">
        <ele>833.144</ele>
        <time>2018-06-15T11:48:22Z</time>
      </trkpt>
      <trkpt lat="42.564441" lon="-5.488476">
        <ele>833.087</ele>
        <time>2018-06-15T11:48:23Z</time>
      </trkpt>
      <trkpt lat="42.564462" lon="-5.488541">
        <ele>832.980</ele>
        <time>2018-06-15T11:48:24Z</time>
      </trkpt>
      <trkpt lat="42.564485" lon="-5.488602">
        <ele>833.384</ele>
        <time>2018-06-15T11:48:25Z</time>
      </trkpt>
      <trkpt lat="42.564508" lon="-5.488666">
        <ele>833.593</ele>
        <time>2018-06-15T11:48:26Z</time>
      </trkpt>
      <trkpt lat="42.564531" lon="-5.488731">
        <ele>833.643</ele>
        <time>2018-06-15T11:48:27Z</time>
      </trkpt>
      <trkpt lat="42.564552" lon="-5.488796">
        <ele>833.723</ele>
        <time>2018-06-15T11:48:28Z</time>
      </trkpt>
      <trkpt lat="42.564571" lon="-5.488860">
        <ele>833.793</ele>
        <time>2018-06-15T11:48:29Z</time>
      </trkpt>
      <trkpt lat="42.564590" lon="-5.488919">
        <ele>833.744</ele>
        <time>2018-06-15T11:48:30Z</time>
      </trkpt>
      <trkpt lat="42.564610" lon="-5.488976">
        <ele>833.705</ele>
        <time>2018-06-15T11:48:31Z</time>
      </trkpt>
      <trkpt lat="42.564631" lon="-5.489036">
        <ele>833.715</ele>
        <time>2018-06-15T11:48:32Z</time>
      </trkpt>
      <trkpt lat="42.564657" lon="-5.489093">
        <ele>834.108</ele>
        <time>2018-06-15T11:48:33Z</time>
      </trkpt>
      <trkpt lat="42.564679" lon="-5.489148">
        <ele>834.386</ele>
        <time>2018-06-15T11:48:34Z</time>
      </trkpt>
      <trkpt lat="42.564700" lon="-5.489204">
        <ele>834.479</ele>
        <time>2018-06-15T11:48:35Z</time>
      </trkpt>
      <trkpt lat="42.564737" lon="-5.489313">
        <ele>834.942</ele>
        <time>2018-06-15T11:48:37Z</time>
      </trkpt>
      <trkpt lat="42.564756" lon="-5.489369">
        <ele>835.226</ele>
        <time>2018-06-15T11:48:38Z</time>
      </trkpt>
      <trkpt lat="42.564796" lon="-5.489470">
        <ele>835.475</ele>
        <time>2018-06-15T11:48:40Z</time>
      </trkpt>
      <trkpt lat="42.564830" lon="-5.489580">
        <ele>835.945</ele>
        <time>2018-06-15T11:48:42Z</time>
      </trkpt>
      <trkpt lat="42.564870" lon="-5.489687">
        <ele>835.845</ele>
        <time>2018-06-15T11:48:44Z</time>
      </trkpt>
      <trkpt lat="42.564906" lon="-5.489792">
        <ele>836.125</ele>
        <time>2018-06-15T11:48:46Z</time>
      </trkpt>
      <trkpt lat="42.564927" lon="-5.489848">
        <ele>835.945</ele>
        <time>2018-06-15T11:48:47Z</time>
      </trkpt>
      <trkpt lat="42.564964" lon="-5.489954">
        <ele>836.247</ele>
        <time>2018-06-15T11:48:49Z</time>
      </trkpt>
      <trkpt lat="42.564998" lon="-5.490061">
        <ele>836.411</ele>
        <time>2018-06-15T11:48:51Z</time>
      </trkpt>
      <trkpt lat="42.565032" lon="-5.490166">
        <ele>836.508</ele>
        <time>2018-06-15T11:48:53Z</time>
      </trkpt>
      <trkpt lat="42.565063" lon="-5.490268">
        <ele>836.696</ele>
        <time>2018-06-15T11:48:55Z</time>
      </trkpt>
      <trkpt lat="42.565101" lon="-5.490370">
        <ele>836.699</ele>
        <time>2018-06-15T11:48:57Z</time>
      </trkpt>
      <trkpt lat="42.565131" lon="-5.490472">
        <ele>836.672</ele>
        <time>2018-06-15T11:48:59Z</time>
      </trkpt>
      <trkpt lat="42.565162" lon="-5.490576">
        <ele>836.676</ele>
        <time>2018-06-15T11:49:01Z</time>
      </trkpt>
      <trkpt lat="42.565196" lon="-5.490674">
        <ele>836.695</ele>
        <time>2018-06-15T11:49:03Z</time>
      </trkpt>
      <trkpt lat="42.565228" lon="-5.490775">
        <ele>836.625</ele>
        <time>2018-06-15T11:49:05Z</time>
      </trkpt>
      <trkpt lat="42.565251" lon="-5.490872">
        <ele>836.645</ele>
        <time>2018-06-15T11:49:07Z</time>
      </trkpt>
      <trkpt lat="42.565285" lon="-5.490978">
        <ele>836.675</ele>
        <time>2018-06-15T11:49:09Z</time>
      </trkpt>
      <trkpt lat="42.565321" lon="-5.491086">
        <ele>836.666</ele>
        <time>2018-06-15T11:49:11Z</time>
      </trkpt>
      <trkpt lat="42.565351" lon="-5.491192">
        <ele>836.629</ele>
        <time>2018-06-15T11:49:13Z</time>
      </trkpt>
      <trkpt lat="42.565376" lon="-5.491306">
        <ele>836.621</ele>
        <time>2018-06-15T11:49:15Z</time>
      </trkpt>
      <trkpt lat="42.565402" lon="-5.491418">
        <ele>836.608</ele>
        <time>2018-06-15T11:49:17Z</time>
      </trkpt>
      <trkpt lat="42.565433" lon="-5.491529">
        <ele>836.658</ele>
        <time>2018-06-15T11:49:19Z</time>
      </trkpt>
      <trkpt lat="42.565469" lon="-5.491639">
        <ele>836.211</ele>
        <time>2018-06-15T11:49:21Z</time>
      </trkpt>
      <trkpt lat="42.565488" lon="-5.491697">
        <ele>836.434</ele>
        <time>2018-06-15T11:49:22Z</time>
      </trkpt>
      <trkpt lat="42.565522" lon="-5.491812">
        <ele>836.588</ele>
        <time>2018-06-15T11:49:24Z</time>
      </trkpt>
      <trkpt lat="42.565541" lon="-5.491868">
        <ele>836.617</ele>
        <time>2018-06-15T11:49:25Z</time>
      </trkpt>
      <trkpt lat="42.565574" lon="-5.491978">
        <ele>836.627</ele>
        <time>2018-06-15T11:49:27Z</time>
      </trkpt>
      <trkpt lat="42.565609" lon="-5.492092">
        <ele>836.297</ele>
        <time>2018-06-15T11:49:29Z</time>
      </trkpt>
      <trkpt lat="42.565641" lon="-5.492198">
        <ele>836.027</ele>
        <time>2018-06-15T11:49:31Z</time>
      </trkpt>
      <trkpt lat="42.565652" lon="-5.492259">
        <ele>835.922</ele>
        <time>2018-06-15T11:49:32Z</time>
      </trkpt>
      <trkpt lat="42.565672" lon="-5.492314">
        <ele>835.862</ele>
        <time>2018-06-15T11:49:33Z</time>
      </trkpt>
      <trkpt lat="42.565694" lon="-5.492374">
        <ele>835.808</ele>
        <time>2018-06-15T11:49:34Z</time>
      </trkpt>
      <trkpt lat="42.565714" lon="-5.492439">
        <ele>835.808</ele>
        <time>2018-06-15T11:49:35Z</time>
      </trkpt>
      <trkpt lat="42.565735" lon="-5.492499">
        <ele>835.894</ele>
        <time>2018-06-15T11:49:36Z</time>
      </trkpt>
      <trkpt lat="42.565759" lon="-5.492553">
        <ele>836.247</ele>
        <time>2018-06-15T11:49:37Z</time>
      </trkpt>
      <trkpt lat="42.565796" lon="-5.492661">
        <ele>836.430</ele>
        <time>2018-06-15T11:49:39Z</time>
      </trkpt>
      <trkpt lat="42.565837" lon="-5.492760">
        <ele>836.954</ele>
        <time>2018-06-15T11:49:41Z</time>
      </trkpt>
      <trkpt lat="42.565882" lon="-5.492856">
        <ele>837.223</ele>
        <time>2018-06-15T11:49:43Z</time>
      </trkpt>
      <trkpt lat="42.565927" lon="-5.492955">
        <ele>837.473</ele>
        <time>2018-06-15T11:49:45Z</time>
      </trkpt>
      <trkpt lat="42.565955" lon="-5.493003">
        <ele>837.543</ele>
        <time>2018-06-15T11:49:46Z</time>
      </trkpt>
      <trkpt lat="42.566002" lon="-5.493104">
        <ele>837.653</ele>
        <time>2018-06-15T11:49:48Z</time>
      </trkpt>
      <trkpt lat="42.566052" lon="-5.493201">
        <ele>838.043</ele>
        <time>2018-06-15T11:49:50Z</time>
      </trkpt>
      <trkpt lat="42.566102" lon="-5.493294">
        <ele>838.764</ele>
        <time>2018-06-15T11:49:52Z</time>
      </trkpt>
      <trkpt lat="42.566149" lon="-5.493384">
        <ele>839.110</ele>
        <time>2018-06-15T11:49:54Z</time>
      </trkpt>
      <trkpt lat="42.566196" lon="-5.493464">
        <ele>839.708</ele>
        <time>2018-06-15T11:49:56Z</time>
      </trkpt>
      <trkpt lat="42.566229" lon="-5.493528">
        <ele>840.126</ele>
        <time>2018-06-15T11:49:58Z</time>
      </trkpt>
      <trkpt lat="42.566258" lon="-5.493577">
        <ele>840.729</ele>
        <time>2018-06-15T11:50:00Z</time>
      </trkpt>
      <trkpt lat="42.566295" lon="-5.493629">
        <ele>841.112</ele>
        <time>2018-06-15T11:50:02Z</time>
      </trkpt>
      <trkpt lat="42.566334" lon="-5.493678">
        <ele>841.796</ele>
        <time>2018-06-15T11:50:04Z</time>
      </trkpt>
      <trkpt lat="42.566368" lon="-5.493727">
        <ele>842.565</ele>
        <time>2018-06-15T11:50:06Z</time>
      </trkpt>
      <trkpt lat="42.566397" lon="-5.493779">
        <ele>843.055</ele>
        <time>2018-06-15T11:50:08Z</time>
      </trkpt>
      <trkpt lat="42.566422" lon="-5.493831">
        <ele>843.335</ele>
        <time>2018-06-15T11:50:10Z</time>
      </trkpt>
      <trkpt lat="42.566443" lon="-5.493885">
        <ele>843.935</ele>
        <time>2018-06-15T11:50:12Z</time>
      </trkpt>
      <trkpt lat="42.566469" lon="-5.493968">
        <ele>843.813</ele>
        <time>2018-06-15T11:50:15Z</time>
      </trkpt>
      <trkpt lat="42.566495" lon="-5.494051">
        <ele>844.243</ele>
        <time>2018-06-15T11:50:18Z</time>
      </trkpt>
      <trkpt lat="42.566515" lon="-5.494137">
        <ele>844.807</ele>
        <time>2018-06-15T11:50:21Z</time>
      </trkpt>
      <trkpt lat="42.566535" lon="-5.494220">
        <ele>845.608</ele>
        <time>2018-06-15T11:50:24Z</time>
      </trkpt>
      <trkpt lat="42.566558" lon="-5.494299">
        <ele>846.113</ele>
        <time>2018-06-15T11:50:27Z</time>
      </trkpt>
      <trkpt lat="42.566581" lon="-5.494378">
        <ele>846.896</ele>
        <time>2018-06-15T11:50:30Z</time>
      </trkpt>
      <trkpt lat="42.566598" lon="-5.494459">
        <ele>847.249</ele>
        <time>2018-06-15T11:50:33Z</time>
      </trkpt>
      <trkpt lat="42.566619" lon="-5.494541">
        <ele>847.443</ele>
        <time>2018-06-15T11:50:36Z</time>
      </trkpt>
      <trkpt lat="42.566641" lon="-5.494619">
        <ele>847.552</ele>
        <time>2018-06-15T11:50:39Z</time>
      </trkpt>
      <trkpt lat="42.566665" lon="-5.494693">
        <ele>847.672</ele>
        <time>2018-06-15T11:50:42Z</time>
      </trkpt>
      <trkpt lat="42.566692" lon="-5.494771">
        <ele>848.172</ele>
        <time>2018-06-15T11:50:45Z</time>
      </trkpt>
      <trkpt lat="42.566716" lon="-5.494855">
        <ele>849.212</ele>
        <time>2018-06-15T11:50:48Z</time>
      </trkpt>
      <trkpt lat="42.566733" lon="-5.494913">
        <ele>849.852</ele>
        <time>2018-06-15T11:50:50Z</time>
      </trkpt>
      <trkpt lat="42.566761" lon="-5.494993">
        <ele>850.653</ele>
        <time>2018-06-15T11:50:53Z</time>
      </trkpt>
      <trkpt lat="42.566788" lon="-5.495071">
        <ele>851.108</ele>
        <time>2018-06-15T11:50:56Z</time>
      </trkpt>
      <trkpt lat="42.566810" lon="-5.495125">
        <ele>851.408</ele>
        <time>2018-06-15T11:50:58Z</time>
      </trkpt>
      <trkpt lat="42.566835" lon="-5.495184">
        <ele>851.647</ele>
        <time>2018-06-15T11:51:00Z</time>
      </trkpt>
      <trkpt lat="42.566860" lon="-5.495250">
        <ele>851.750</ele>
        <time>2018-06-15T11:51:02Z</time>
      </trkpt>
      <trkpt lat="42.566891" lon="-5.495319">
        <ele>852.233</ele>
        <time>2018-06-15T11:51:04Z</time>
      </trkpt>
      <trkpt lat="42.566922" lon="-5.495387">
        <ele>852.557</ele>
        <time>2018-06-15T11:51:06Z</time>
      </trkpt>
      <trkpt lat="42.566945" lon="-5.495449">
        <ele>852.756</ele>
        <time>2018-06-15T11:51:08Z</time>
      </trkpt>
      <trkpt lat="42.566966" lon="-5.495507">
        <ele>852.416</ele>
        <time>2018-06-15T11:51:10Z</time>
      </trkpt>
      <trkpt lat="42.566987" lon="-5.495573">
        <ele>852.216</ele>
        <time>2018-06-15T11:51:12Z</time>
      </trkpt>
      <trkpt lat="42.567011" lon="-5.495637">
        <ele>852.566</ele>
        <time>2018-06-15T11:51:14Z</time>
      </trkpt>
      <trkpt lat="42.567039" lon="-5.495701">
        <ele>852.795</ele>
        <time>2018-06-15T11:51:16Z</time>
      </trkpt>
      <trkpt lat="42.567071" lon="-5.495764">
        <ele>852.849</ele>
        <time>2018-06-15T11:51:18Z</time>
      </trkpt>
      <trkpt lat="42.567110" lon="-5.495820">
        <ele>853.323</ele>
        <time>2018-06-15T11:51:20Z</time>
      </trkpt>
      <trkpt lat="42.567150" lon="-5.495875">
        <ele>854.008</ele>
        <time>2018-06-15T11:51:22Z</time>
      </trkpt>
      <trkpt lat="42.567201" lon="-5.495929">
        <ele>854.491</ele>
        <time>2018-06-15T11:51:24Z</time>
      </trkpt>
      <trkpt lat="42.567250" lon="-5.495981">
        <ele>854.644</ele>
        <time>2018-06-15T11:51:26Z</time>
      </trkpt>
      <trkpt lat="42.567299" lon="-5.496036">
        <ele>854.387</ele>
        <time>2018-06-15T11:51:28Z</time>
      </trkpt>
      <trkpt lat="42.567347" lon="-5.496093">
        <ele>853.781</ele>
        <time>2018-06-15T11:51:30Z</time>
      </trkpt>
      <trkpt lat="42.567385" lon="-5.496165">
        <ele>853.820</ele>
        <time>2018-06-15T11:51:32Z</time>
      </trkpt>
      <trkpt lat="42.567414" lon="-5.496248">
        <ele>853.870</ele>
        <time>2018-06-15T11:51:34Z</time>
      </trkpt>
      <trkpt lat="42.567440" lon="-5.496337">
        <ele>854.240</ele>
        <time>2018-06-15T11:51:36Z</time>
      </trkpt>
      <trkpt lat="42.567474" lon="-5.496472">
        <ele>854.530</ele>
        <time>2018-06-15T11:51:37Z</time>
      </trkpt>
      <trkpt lat="42.567499" lon="-5.496565">
        <ele>854.726</ele>
        <time>2018-06-15T11:51:39Z</time>
      </trkpt>
      <trkpt lat="42.567525" lon="-5.496668">
        <ele>855.247</ele>
        <time>2018-06-15T11:51:41Z</time>
      </trkpt>
      <trkpt lat="42.567548" lon="-5.496763">
        <ele>855.511</ele>
        <time>2018-06-15T11:51:43Z</time>
      </trkpt>
      <trkpt lat="42.567575" lon="-5.496857">
        <ele>855.708</ele>
        <time>2018-06-15T11:51:45Z</time>
      </trkpt>
      <trkpt lat="42.567591" lon="-5.496930">
        <ele>855.864</ele>
        <time>2018-06-15T11:51:47Z</time>
      </trkpt>
      <trkpt lat="42.567605" lon="-5.496994">
        <ele>855.987</ele>
        <time>2018-06-15T11:51:49Z</time>
      </trkpt>
      <trkpt lat="42.567621" lon="-5.497066">
        <ele>855.910</ele>
        <time>2018-06-15T11:51:51Z</time>
      </trkpt>
      <trkpt lat="42.567635" lon="-5.497142">
        <ele>855.984</ele>
        <time>2018-06-15T11:51:53Z</time>
      </trkpt>
      <trkpt lat="42.567647" lon="-5.497223">
        <ele>855.993</ele>
        <time>2018-06-15T11:51:55Z</time>
      </trkpt>
      <trkpt lat="42.567654" lon="-5.497310">
        <ele>855.963</ele>
        <time>2018-06-15T11:51:57Z</time>
      </trkpt>
      <trkpt lat="42.567657" lon="-5.497408">
        <ele>855.933</ele>
        <time>2018-06-15T11:51:59Z</time>
      </trkpt>
      <trkpt lat="42.567659" lon="-5.497529">
        <ele>855.943</ele>
        <time>2018-06-15T11:52:00Z</time>
      </trkpt>
      <trkpt lat="42.567660" lon="-5.497625">
        <ele>855.955</ele>
        <time>2018-06-15T11:52:02Z</time>
      </trkpt>
      <trkpt lat="42.567664" lon="-5.497733">
        <ele>855.507</ele>
        <time>2018-06-15T11:52:04Z</time>
      </trkpt>
      <trkpt lat="42.567667" lon="-5.497795">
        <ele>855.317</ele>
        <time>2018-06-15T11:52:05Z</time>
      </trkpt>
      <trkpt lat="42.567673" lon="-5.497858">
        <ele>855.208</ele>
        <time>2018-06-15T11:52:06Z</time>
      </trkpt>
      <trkpt lat="42.567680" lon="-5.497925">
        <ele>855.137</ele>
        <time>2018-06-15T11:52:07Z</time>
      </trkpt>
      <trkpt lat="42.567687" lon="-5.497989">
        <ele>855.030</ele>
        <time>2018-06-15T11:52:08Z</time>
      </trkpt>
      <trkpt lat="42.567698" lon="-5.498050">
        <ele>855.083</ele>
        <time>2018-06-15T11:52:09Z</time>
      </trkpt>
      <trkpt lat="42.567706" lon="-5.498116">
        <ele>855.047</ele>
        <time>2018-06-15T11:52:10Z</time>
      </trkpt>
      <trkpt lat="42.567709" lon="-5.498188">
        <ele>854.666</ele>
        <time>2018-06-15T11:52:11Z</time>
      </trkpt>
      <trkpt lat="42.567716" lon="-5.498256">
        <ele>854.476</ele>
        <time>2018-06-15T11:52:12Z</time>
      </trkpt>
      <trkpt lat="42.567722" lon="-5.498327">
        <ele>854.326</ele>
        <time>2018-06-15T11:52:13Z</time>
      </trkpt>
      <trkpt lat="42.567725" lon="-5.498400">
        <ele>854.216</ele>
        <time>2018-06-15T11:52:14Z</time>
      </trkpt>
      <trkpt lat="42.567733" lon="-5.498472">
        <ele>854.122</ele>
        <time>2018-06-15T11:52:15Z</time>
      </trkpt>
      <trkpt lat="42.567739" lon="-5.498548">
        <ele>853.762</ele>
        <time>2018-06-15T11:52:16Z</time>
      </trkpt>
      <trkpt lat="42.567746" lon="-5.498621">
        <ele>853.408</ele>
        <time>2018-06-15T11:52:17Z</time>
      </trkpt>
      <trkpt lat="42.567756" lon="-5.498692">
        <ele>853.208</ele>
        <time>2018-06-15T11:52:18Z</time>
      </trkpt>
      <trkpt lat="42.567763" lon="-5.498765">
        <ele>853.134</ele>
        <time>2018-06-15T11:52:19Z</time>
      </trkpt>
      <trkpt lat="42.567767" lon="-5.498837">
        <ele>852.677</ele>
        <time>2018-06-15T11:52:20Z</time>
      </trkpt>
      <trkpt lat="42.567776" lon="-5.498909">
        <ele>852.340</ele>
        <time>2018-06-15T11:52:21Z</time>
      </trkpt>
      <trkpt lat="42.567785" lon="-5.498983">
        <ele>852.124</ele>
        <time>2018-06-15T11:52:22Z</time>
      </trkpt>
      <trkpt lat="42.567794" lon="-5.499059">
        <ele>852.043</ele>
        <time>2018-06-15T11:52:23Z</time>
      </trkpt>
      <trkpt lat="42.567803" lon="-5.499136">
        <ele>851.983</ele>
        <time>2018-06-15T11:52:24Z</time>
      </trkpt>
      <trkpt lat="42.567816" lon="-5.499214">
        <ele>851.533</ele>
        <time>2018-06-15T11:52:25Z</time>
      </trkpt>
      <trkpt lat="42.567829" lon="-5.499294">
        <ele>851.263</ele>
        <time>2018-06-15T11:52:26Z</time>
      </trkpt>
      <trkpt lat="42.567839" lon="-5.499376">
        <ele>850.615</ele>
        <time>2018-06-15T11:52:27Z</time>
      </trkpt>
      <trkpt lat="42.567849" lon="-5.499461">
        <ele>850.365</ele>
        <time>2018-06-15T11:52:28Z</time>
      </trkpt>
      <trkpt lat="42.567859" lon="-5.499546">
        <ele>850.111</ele>
        <time>2018-06-15T11:52:29Z</time>
      </trkpt>
      <trkpt lat="42.567867" lon="-5.499634">
        <ele>850.008</ele>
        <time>2018-06-15T11:52:30Z</time>
      </trkpt>
      <trkpt lat="42.567877" lon="-5.499716">
        <ele>849.953</ele>
        <time>2018-06-15T11:52:31Z</time>
      </trkpt>
      <trkpt lat="42.567883" lon="-5.499805">
        <ele>849.956</ele>
        <time>2018-06-15T11:52:32Z</time>
      </trkpt>
      <trkpt lat="42.567888" lon="-5.499894">
        <ele>849.569</ele>
        <time>2018-06-15T11:52:33Z</time>
      </trkpt>
      <trkpt lat="42.567900" lon="-5.499981">
        <ele>849.273</ele>
        <time>2018-06-15T11:52:34Z</time>
      </trkpt>
      <trkpt lat="42.567912" lon="-5.500065">
        <ele>849.022</ele>
        <time>2018-06-15T11:52:35Z</time>
      </trkpt>
      <trkpt lat="42.567922" lon="-5.500148">
        <ele>848.992</ele>
        <time>2018-06-15T11:52:36Z</time>
      </trkpt>
      <trkpt lat="42.567932" lon="-5.500227">
        <ele>848.852</ele>
        <time>2018-06-15T11:52:37Z</time>
      </trkpt>
      <trkpt lat="42.567944" lon="-5.500305">
        <ele>848.882</ele>
        <time>2018-06-15T11:52:38Z</time>
      </trkpt>
      <trkpt lat="42.567956" lon="-5.500385">
        <ele>848.841</ele>
        <time>2018-06-15T11:52:39Z</time>
      </trkpt>
      <trkpt lat="42.567967" lon="-5.500469">
        <ele>848.881</ele>
        <time>2018-06-15T11:52:40Z</time>
      </trkpt>
      <trkpt lat="42.567977" lon="-5.500558">
        <ele>848.409</ele>
        <time>2018-06-15T11:52:41Z</time>
      </trkpt>
      <trkpt lat="42.567986" lon="-5.500643">
        <ele>848.208</ele>
        <time>2018-06-15T11:52:42Z</time>
      </trkpt>
      <trkpt lat="42.567994" lon="-5.500729">
        <ele>848.146</ele>
        <time>2018-06-15T11:52:43Z</time>
      </trkpt>
      <trkpt lat="42.568002" lon="-5.500816">
        <ele>848.089</ele>
        <time>2018-06-15T11:52:44Z</time>
      </trkpt>
      <trkpt lat="42.568016" lon="-5.500904">
        <ele>847.922</ele>
        <time>2018-06-15T11:52:45Z</time>
      </trkpt>
      <trkpt lat="42.568024" lon="-5.500987">
        <ele>847.916</ele>
        <time>2018-06-15T11:52:46Z</time>
      </trkpt>
      <trkpt lat="42.568033" lon="-5.501071">
        <ele>847.975</ele>
        <time>2018-06-15T11:52:47Z</time>
      </trkpt>
      <trkpt lat="42.568046" lon="-5.501153">
        <ele>847.955</ele>
        <time>2018-06-15T11:52:48Z</time>
      </trkpt>
      <trkpt lat="42.568059" lon="-5.501234">
        <ele>847.915</ele>
        <time>2018-06-15T11:52:49Z</time>
      </trkpt>
      <trkpt lat="42.568068" lon="-5.501316">
        <ele>847.955</ele>
        <time>2018-06-15T11:52:50Z</time>
      </trkpt>
      <trkpt lat="42.568075" lon="-5.501399">
        <ele>847.967</ele>
        <time>2018-06-15T11:52:51Z</time>
      </trkpt>
      <trkpt lat="42.568086" lon="-5.501481">
        <ele>847.981</ele>
        <time>2018-06-15T11:52:52Z</time>
      </trkpt>
      <trkpt lat="42.568100" lon="-5.501564">
        <ele>847.919</ele>
        <time>2018-06-15T11:52:53Z</time>
      </trkpt>
      <trkpt lat="42.568117" lon="-5.501649">
        <ele>847.908</ele>
        <time>2018-06-15T11:52:54Z</time>
      </trkpt>
      <trkpt lat="42.568139" lon="-5.501733">
        <ele>847.978</ele>
        <time>2018-06-15T11:52:55Z</time>
      </trkpt>
      <trkpt lat="42.568156" lon="-5.501815">
        <ele>847.941</ele>
        <time>2018-06-15T11:52:56Z</time>
      </trkpt>
      <trkpt lat="42.568166" lon="-5.501897">
        <ele>847.934</ele>
        <time>2018-06-15T11:52:57Z</time>
      </trkpt>
      <trkpt lat="42.568178" lon="-5.501986">
        <ele>847.998</ele>
        <time>2018-06-15T11:52:58Z</time>
      </trkpt>
      <trkpt lat="42.568189" lon="-5.502066">
        <ele>847.917</ele>
        <time>2018-06-15T11:52:59Z</time>
      </trkpt>
      <trkpt lat="42.568204" lon="-5.502149">
        <ele>847.957</ele>
        <time>2018-06-15T11:53:00Z</time>
      </trkpt>
      <trkpt lat="42.568215" lon="-5.502225">
        <ele>847.967</ele>
        <time>2018-06-15T11:53:01Z</time>
      </trkpt>
      <trkpt lat="42.568228" lon="-5.502305">
        <ele>847.967</ele>
        <time>2018-06-15T11:53:02Z</time>
      </trkpt>
      <trkpt lat="42.568241" lon="-5.502383">
        <ele>847.952</ele>
        <time>2018-06-15T11:53:03Z</time>
      </trkpt>
      <trkpt lat="42.568254" lon="-5.502459">
        <ele>847.553</ele>
        <time>2018-06-15T11:53:04Z</time>
      </trkpt>
      <trkpt lat="42.568265" lon="-5.502534">
        <ele>847.708</ele>
        <time>2018-06-15T11:53:05Z</time>
      </trkpt>
      <trkpt lat="42.568272" lon="-5.502605">
        <ele>847.808</ele>
        <time>2018-06-15T11:53:06Z</time>
      </trkpt>
      <trkpt lat="42.568286" lon="-5.502672">
        <ele>847.997</ele>
        <time>2018-06-15T11:53:07Z</time>
      </trkpt>
      <trkpt lat="42.568299" lon="-5.502745">
        <ele>847.960</ele>
        <time>2018-06-15T11:53:08Z</time>
      </trkpt>
      <trkpt lat="42.568310" lon="-5.502820">
        <ele>847.973</ele>
        <time>2018-06-15T11:53:09Z</time>
      </trkpt>
      <trkpt lat="42.568319" lon="-5.502897">
        <ele>847.997</ele>
        <time>2018-06-15T11:53:10Z</time>
      </trkpt>
      <trkpt lat="42.568333" lon="-5.502974">
        <ele>847.976</ele>
        <time>2018-06-15T11:53:11Z</time>
      </trkpt>
      <trkpt lat="42.568348" lon="-5.503048">
        <ele>847.986</ele>
        <time>2018-06-15T11:53:12Z</time>
      </trkpt>
      <trkpt lat="42.568360" lon="-5.503126">
        <ele>847.976</ele>
        <time>2018-06-15T11:53:13Z</time>
      </trkpt>
      <trkpt lat="42.568371" lon="-5.503201">
        <ele>847.936</ele>
        <time>2018-06-15T11:53:14Z</time>
      </trkpt>
      <trkpt lat="42.568383" lon="-5.503277">
        <ele>847.992</ele>
        <time>2018-06-15T11:53:15Z</time>
      </trkpt>
      <trkpt lat="42.568398" lon="-5.503354">
        <ele>847.973</ele>
        <time>2018-06-15T11:53:16Z</time>
      </trkpt>
      <trkpt lat="42.568415" lon="-5.503431">
        <ele>847.920</ele>
        <time>2018-06-15T11:53:17Z</time>
      </trkpt>
      <trkpt lat="42.568429" lon="-5.503505">
        <ele>847.908</ele>
        <time>2018-06-15T11:53:18Z</time>
      </trkpt>
      <trkpt lat="42.568443" lon="-5.503577">
        <ele>847.971</ele>
        <time>2018-06-15T11:53:19Z</time>
      </trkpt>
      <trkpt lat="42.568459" lon="-5.503649">
        <ele>847.924</ele>
        <time>2018-06-15T11:53:20Z</time>
      </trkpt>
      <trkpt lat="42.568472" lon="-5.503724">
        <ele>847.957</ele>
        <time>2018-06-15T11:53:21Z</time>
      </trkpt>
      <trkpt lat="42.568489" lon="-5.503797">
        <ele>847.931</ele>
        <time>2018-06-15T11:53:22Z</time>
      </trkpt>
      <trkpt lat="42.568514" lon="-5.503867">
        <ele>848.340</ele>
        <time>2018-06-15T11:53:23Z</time>
      </trkpt>
      <trkpt lat="42.568534" lon="-5.503939">
        <ele>848.550</ele>
        <time>2018-06-15T11:53:24Z</time>
      </trkpt>
      <trkpt lat="42.568551" lon="-5.504010">
        <ele>848.610</ele>
        <time>2018-06-15T11:53:25Z</time>
      </trkpt>
      <trkpt lat="42.568570" lon="-5.504084">
        <ele>848.710</ele>
        <time>2018-06-15T11:53:26Z</time>
      </trkpt>
      <trkpt lat="42.568590" lon="-5.504153">
        <ele>848.859</ele>
        <time>2018-06-15T11:53:27Z</time>
      </trkpt>
      <trkpt lat="42.568619" lon="-5.504223">
        <ele>848.803</ele>
        <time>2018-06-15T11:53:28Z</time>
      </trkpt>
      <trkpt lat="42.568643" lon="-5.504295">
        <ele>848.823</ele>
        <time>2018-06-15T11:53:29Z</time>
      </trkpt>
      <trkpt lat="42.568671" lon="-5.504368">
        <ele>849.208</ele>
        <time>2018-06-15T11:53:30Z</time>
      </trkpt>
      <trkpt lat="42.568695" lon="-5.504439">
        <ele>849.497</ele>
        <time>2018-06-15T11:53:31Z</time>
      </trkpt>
      <trkpt lat="42.568718" lon="-5.504512">
        <ele>849.560</ele>
        <time>2018-06-15T11:53:32Z</time>
      </trkpt>
      <trkpt lat="42.568746" lon="-5.504580">
        <ele>849.613</ele>
        <time>2018-06-15T11:53:33Z</time>
      </trkpt>
      <trkpt lat="42.568774" lon="-5.504651">
        <ele>849.357</ele>
        <time>2018-06-15T11:53:34Z</time>
      </trkpt>
      <trkpt lat="42.568795" lon="-5.504728">
        <ele>849.116</ele>
        <time>2018-06-15T11:53:35Z</time>
      </trkpt>
      <trkpt lat="42.568815" lon="-5.504799">
        <ele>849.076</ele>
        <time>2018-06-15T11:53:36Z</time>
      </trkpt>
      <trkpt lat="42.568835" lon="-5.504871">
        <ele>848.956</ele>
        <time>2018-06-15T11:53:37Z</time>
      </trkpt>
      <trkpt lat="42.568854" lon="-5.504940">
        <ele>848.996</ele>
        <time>2018-06-15T11:53:38Z</time>
      </trkpt>
      <trkpt lat="42.568876" lon="-5.505012">
        <ele>848.977</ele>
        <time>2018-06-15T11:53:39Z</time>
      </trkpt>
      <trkpt lat="42.568899" lon="-5.505082">
        <ele>849.361</ele>
        <time>2018-06-15T11:53:40Z</time>
      </trkpt>
      <trkpt lat="42.568923" lon="-5.505149">
        <ele>849.127</ele>
        <time>2018-06-15T11:53:41Z</time>
      </trkpt>
      <trkpt lat="42.568948" lon="-5.505218">
        <ele>849.008</ele>
        <time>2018-06-15T11:53:42Z</time>
      </trkpt>
      <trkpt lat="42.568976" lon="-5.505286">
        <ele>849.389</ele>
        <time>2018-06-15T11:53:43Z</time>
      </trkpt>
      <trkpt lat="42.569001" lon="-5.505355">
        <ele>849.562</ele>
        <time>2018-06-15T11:53:44Z</time>
      </trkpt>
      <trkpt lat="42.569026" lon="-5.505425">
        <ele>849.645</ele>
        <time>2018-06-15T11:53:45Z</time>
      </trkpt>
      <trkpt lat="42.569051" lon="-5.505492">
        <ele>849.729</ele>
        <time>2018-06-15T11:53:46Z</time>
      </trkpt>
      <trkpt lat="42.569075" lon="-5.505558">
        <ele>849.758</ele>
        <time>2018-06-15T11:53:47Z</time>
      </trkpt>
      <trkpt lat="42.569100" lon="-5.505625">
        <ele>849.788</ele>
        <time>2018-06-15T11:53:48Z</time>
      </trkpt>
      <trkpt lat="42.569128" lon="-5.505691">
        <ele>849.768</ele>
        <time>2018-06-15T11:53:49Z</time>
      </trkpt>
      <trkpt lat="42.569156" lon="-5.505756">
        <ele>849.788</ele>
        <time>2018-06-15T11:53:50Z</time>
      </trkpt>
      <trkpt lat="42.569184" lon="-5.505822">
        <ele>849.783</ele>
        <time>2018-06-15T11:53:51Z</time>
      </trkpt>
      <trkpt lat="42.569208" lon="-5.505886">
        <ele>849.725</ele>
        <time>2018-06-15T11:53:52Z</time>
      </trkpt>
      <trkpt lat="42.569234" lon="-5.505952">
        <ele>850.117</ele>
        <time>2018-06-15T11:53:53Z</time>
      </trkpt>
      <trkpt lat="42.569261" lon="-5.506014">
        <ele>850.308</ele>
        <time>2018-06-15T11:53:54Z</time>
      </trkpt>
      <trkpt lat="42.569287" lon="-5.506076">
        <ele>850.410</ele>
        <time>2018-06-15T11:53:55Z</time>
      </trkpt>
      <trkpt lat="42.569306" lon="-5.506141">
        <ele>850.523</ele>
        <time>2018-06-15T11:53:56Z</time>
      </trkpt>
      <trkpt lat="42.569327" lon="-5.506207">
        <ele>850.636</ele>
        <time>2018-06-15T11:53:57Z</time>
      </trkpt>
      <trkpt lat="42.569349" lon="-5.506279">
        <ele>850.680</ele>
        <time>2018-06-15T11:53:58Z</time>
      </trkpt>
      <trkpt lat="42.569371" lon="-5.506345">
        <ele>851.019</ele>
        <time>2018-06-15T11:53:59Z</time>
      </trkpt>
      <trkpt lat="42.569393" lon="-5.506410">
        <ele>851.329</ele>
        <time>2018-06-15T11:54:00Z</time>
      </trkpt>
      <trkpt lat="42.569413" lon="-5.506475">
        <ele>851.589</ele>
        <time>2018-06-15T11:54:01Z</time>
      </trkpt>
      <trkpt lat="42.569433" lon="-5.506541">
        <ele>851.279</ele>
        <time>2018-06-15T11:54:02Z</time>
      </trkpt>
      <trkpt lat="42.569448" lon="-5.506605">
        <ele>851.099</ele>
        <time>2018-06-15T11:54:03Z</time>
      </trkpt>
      <trkpt lat="42.569464" lon="-5.506672">
        <ele>851.307</ele>
        <time>2018-06-15T11:54:04Z</time>
      </trkpt>
      <trkpt lat="42.569479" lon="-5.506741">
        <ele>851.527</ele>
        <time>2018-06-15T11:54:05Z</time>
      </trkpt>
      <trkpt lat="42.569493" lon="-5.506806">
        <ele>851.608</ele>
        <time>2018-06-15T11:54:06Z</time>
      </trkpt>
      <trkpt lat="42.569510" lon="-5.506870">
        <ele>851.781</ele>
        <time>2018-06-15T11:54:07Z</time>
      </trkpt>
      <trkpt lat="42.569521" lon="-5.506933">
        <ele>851.734</ele>
        <time>2018-06-15T11:54:08Z</time>
      </trkpt>
      <trkpt lat="42.569544" lon="-5.507052">
        <ele>851.747</ele>
        <time>2018-06-15T11:54:10Z</time>
      </trkpt>
      <trkpt lat="42.569559" lon="-5.507170">
        <ele>851.781</ele>
        <time>2018-06-15T11:54:12Z</time>
      </trkpt>
      <trkpt lat="42.569572" lon="-5.507229">
        <ele>852.190</ele>
        <time>2018-06-15T11:54:13Z</time>
      </trkpt>
      <trkpt lat="42.569587" lon="-5.507289">
        <ele>852.320</ele>
        <time>2018-06-15T11:54:14Z</time>
      </trkpt>
      <trkpt lat="42.569623" lon="-5.507397">
        <ele>852.490</ele>
        <time>2018-06-15T11:54:16Z</time>
      </trkpt>
      <trkpt lat="42.569656" lon="-5.507510">
        <ele>852.510</ele>
        <time>2018-06-15T11:54:18Z</time>
      </trkpt>
      <trkpt lat="42.569681" lon="-5.507620">
        <ele>852.684</ele>
        <time>2018-06-15T11:54:20Z</time>
      </trkpt>
      <trkpt lat="42.569710" lon="-5.507737">
        <ele>852.607</ele>
        <time>2018-06-15T11:54:22Z</time>
      </trkpt>
      <trkpt lat="42.569723" lon="-5.507797">
        <ele>852.617</ele>
        <time>2018-06-15T11:54:23Z</time>
      </trkpt>
      <trkpt lat="42.569738" lon="-5.507859">
        <ele>853.008</ele>
        <time>2018-06-15T11:54:24Z</time>
      </trkpt>
      <trkpt lat="42.569752" lon="-5.507921">
        <ele>853.290</ele>
        <time>2018-06-15T11:54:25Z</time>
      </trkpt>
      <trkpt lat="42.569763" lon="-5.507982">
        <ele>853.363</ele>
        <time>2018-06-15T11:54:26Z</time>
      </trkpt>
      <trkpt lat="42.569776" lon="-5.508049">
        <ele>853.476</ele>
        <time>2018-06-15T11:54:27Z</time>
      </trkpt>
      <trkpt lat="42.569787" lon="-5.508113">
        <ele>853.590</ele>
        <time>2018-06-15T11:54:28Z</time>
      </trkpt>
      <trkpt lat="42.569799" lon="-5.508178">
        <ele>853.519</ele>
        <time>2018-06-15T11:54:29Z</time>
      </trkpt>
      <trkpt lat="42.569809" lon="-5.508246">
        <ele>853.589</ele>
        <time>2018-06-15T11:54:30Z</time>
      </trkpt>
      <trkpt lat="42.569819" lon="-5.508313">
        <ele>853.569</ele>
        <time>2018-06-15T11:54:31Z</time>
      </trkpt>
      <trkpt lat="42.569834" lon="-5.508383">
        <ele>853.519</ele>
        <time>2018-06-15T11:54:32Z</time>
      </trkpt>
      <trkpt lat="42.569850" lon="-5.508451">
        <ele>853.563</ele>
        <time>2018-06-15T11:54:33Z</time>
      </trkpt>
      <trkpt lat="42.569866" lon="-5.508522">
        <ele>853.544</ele>
        <time>2018-06-15T11:54:34Z</time>
      </trkpt>
      <trkpt lat="42.569883" lon="-5.508589">
        <ele>853.518</ele>
        <time>2018-06-15T11:54:35Z</time>
      </trkpt>
      <trkpt lat="42.569899" lon="-5.508656">
        <ele>853.908</ele>
        <time>2018-06-15T11:54:36Z</time>
      </trkpt>
      <trkpt lat="42.569915" lon="-5.508724">
        <ele>854.148</ele>
        <time>2018-06-15T11:54:37Z</time>
      </trkpt>
      <trkpt lat="42.569933" lon="-5.508789">
        <ele>854.271</ele>
        <time>2018-06-15T11:54:38Z</time>
      </trkpt>
      <trkpt lat="42.569948" lon="-5.508852">
        <ele>854.774</ele>
        <time>2018-06-15T11:54:39Z</time>
      </trkpt>
      <trkpt lat="42.569961" lon="-5.508916">
        <ele>855.028</ele>
        <time>2018-06-15T11:54:40Z</time>
      </trkpt>
      <trkpt lat="42.569975" lon="-5.508980">
        <ele>855.217</ele>
        <time>2018-06-15T11:54:41Z</time>
      </trkpt>
      <trkpt lat="42.569986" lon="-5.509045">
        <ele>855.357</ele>
        <time>2018-06-15T11:54:42Z</time>
      </trkpt>
      <trkpt lat="42.570000" lon="-5.509108">
        <ele>855.417</ele>
        <time>2018-06-15T11:54:43Z</time>
      </trkpt>
      <trkpt lat="42.570015" lon="-5.509170">
        <ele>855.487</ele>
        <time>2018-06-15T11:54:44Z</time>
      </trkpt>
      <trkpt lat="42.570030" lon="-5.509235">
        <ele>855.496</ele>
        <time>2018-06-15T11:54:45Z</time>
      </trkpt>
      <trkpt lat="42.570044" lon="-5.509299">
        <ele>855.831</ele>
        <time>2018-06-15T11:54:46Z</time>
      </trkpt>
      <trkpt lat="42.570057" lon="-5.509364">
        <ele>856.024</ele>
        <time>2018-06-15T11:54:47Z</time>
      </trkpt>
      <trkpt lat="42.570071" lon="-5.509427">
        <ele>856.108</ele>
        <time>2018-06-15T11:54:48Z</time>
      </trkpt>
      <trkpt lat="42.570084" lon="-5.509492">
        <ele>856.211</ele>
        <time>2018-06-15T11:54:49Z</time>
      </trkpt>
      <trkpt lat="42.570098" lon="-5.509556">
        <ele>856.344</ele>
        <time>2018-06-15T11:54:50Z</time>
      </trkpt>
      <trkpt lat="42.570112" lon="-5.509617">
        <ele>856.777</ele>
        <time>2018-06-15T11:54:51Z</time>
      </trkpt>
      <trkpt lat="42.570125" lon="-5.509679">
        <ele>857.041</ele>
        <time>2018-06-15T11:54:52Z</time>
      </trkpt>
      <trkpt lat="42.570138" lon="-5.509741">
        <ele>857.280</ele>
        <time>2018-06-15T11:54:53Z</time>
      </trkpt>
      <trkpt lat="42.570149" lon="-5.509803">
        <ele>856.910</ele>
        <time>2018-06-15T11:54:54Z</time>
      </trkpt>
      <trkpt lat="42.570163" lon="-5.509865">
        <ele>856.750</ele>
        <time>2018-06-15T11:54:55Z</time>
      </trkpt>
      <trkpt lat="42.570180" lon="-5.509925">
        <ele>856.680</ele>
        <time>2018-06-15T11:54:56Z</time>
      </trkpt>
      <trkpt lat="42.570194" lon="-5.509985">
        <ele>856.558</ele>
        <time>2018-06-15T11:54:57Z</time>
      </trkpt>
      <trkpt lat="42.570223" lon="-5.510100">
        <ele>856.552</ele>
        <time>2018-06-15T11:54:59Z</time>
      </trkpt>
      <trkpt lat="42.570249" lon="-5.510218">
        <ele>856.917</ele>
        <time>2018-06-15T11:55:01Z</time>
      </trkpt>
      <trkpt lat="42.570258" lon="-5.510279">
        <ele>856.708</ele>
        <time>2018-06-15T11:55:02Z</time>
      </trkpt>
      <trkpt lat="42.570270" lon="-5.510339">
        <ele>857.027</ele>
        <time>2018-06-15T11:55:03Z</time>
      </trkpt>
      <trkpt lat="42.570296" lon="-5.510454">
        <ele>857.240</ele>
        <time>2018-06-15T11:55:05Z</time>
      </trkpt>
      <trkpt lat="42.570309" lon="-5.510513">
        <ele>857.753</ele>
        <time>2018-06-15T11:55:06Z</time>
      </trkpt>
      <trkpt lat="42.570333" lon="-5.510620">
        <ele>858.427</ele>
        <time>2018-06-15T11:55:08Z</time>
      </trkpt>
      <trkpt lat="42.570345" lon="-5.510679">
        <ele>858.896</ele>
        <time>2018-06-15T11:55:09Z</time>
      </trkpt>
      <trkpt lat="42.570370" lon="-5.510791">
        <ele>859.546</ele>
        <time>2018-06-15T11:55:11Z</time>
      </trkpt>
      <trkpt lat="42.570391" lon="-5.510894">
        <ele>860.396</ele>
        <time>2018-06-15T11:55:13Z</time>
      </trkpt>
      <trkpt lat="42.570419" lon="-5.510996">
        <ele>861.216</ele>
        <time>2018-06-15T11:55:15Z</time>
      </trkpt>
      <trkpt lat="42.570438" lon="-5.511101">
        <ele>861.786</ele>
        <time>2018-06-15T11:55:17Z</time>
      </trkpt>
      <trkpt lat="42.570461" lon="-5.511196">
        <ele>862.460</ele>
        <time>2018-06-15T11:55:19Z</time>
      </trkpt>
      <trkpt lat="42.570473" lon="-5.511255">
        <ele>863.226</ele>
        <time>2018-06-15T11:55:21Z</time>
      </trkpt>
      <trkpt lat="42.570485" lon="-5.511325">
        <ele>863.708</ele>
        <time>2018-06-15T11:55:23Z</time>
      </trkpt>
      <trkpt lat="42.570499" lon="-5.511401">
        <ele>864.060</ele>
        <time>2018-06-15T11:55:25Z</time>
      </trkpt>
      <trkpt lat="42.570525" lon="-5.511572">
        <ele>864.643</ele>
        <time>2018-06-15T11:55:27Z</time>
      </trkpt>
      <trkpt lat="42.570545" lon="-5.511667">
        <ele>864.946</ele>
        <time>2018-06-15T11:55:29Z</time>
      </trkpt>
      <trkpt lat="42.570562" lon="-5.511740">
        <ele>865.180</ele>
        <time>2018-06-15T11:55:32Z</time>
      </trkpt>
      <trkpt lat="42.570574" lon="-5.511810">
        <ele>865.659</ele>
        <time>2018-06-15T11:55:34Z</time>
      </trkpt>
      <trkpt lat="42.570587" lon="-5.511887">
        <ele>865.979</ele>
        <time>2018-06-15T11:55:36Z</time>
      </trkpt>
      <trkpt lat="42.570602" lon="-5.511965">
        <ele>866.199</ele>
        <time>2018-06-15T11:55:38Z</time>
      </trkpt>
      <trkpt lat="42.570621" lon="-5.512048">
        <ele>866.299</ele>
        <time>2018-06-15T11:55:40Z</time>
      </trkpt>
      <trkpt lat="42.570640" lon="-5.512132">
        <ele>866.355</ele>
        <time>2018-06-15T11:55:42Z</time>
      </trkpt>
      <trkpt lat="42.570659" lon="-5.512209">
        <ele>866.307</ele>
        <time>2018-06-15T11:55:44Z</time>
      </trkpt>
      <trkpt lat="42.570683" lon="-5.512298">
        <ele>866.317</ele>
        <time>2018-06-15T11:55:46Z</time>
      </trkpt>
      <trkpt lat="42.570705" lon="-5.512384">
        <ele>866.308</ele>
        <time>2018-06-15T11:55:48Z</time>
      </trkpt>
      <trkpt lat="42.570726" lon="-5.512474">
        <ele>866.347</ele>
        <time>2018-06-15T11:55:50Z</time>
      </trkpt>
      <trkpt lat="42.570754" lon="-5.512607">
        <ele>866.360</ele>
        <time>2018-06-15T11:55:51Z</time>
      </trkpt>
      <trkpt lat="42.570777" lon="-5.512698">
        <ele>866.323</ele>
        <time>2018-06-15T11:55:53Z</time>
      </trkpt>
      <trkpt lat="42.570799" lon="-5.512791">
        <ele>866.357</ele>
        <time>2018-06-15T11:55:55Z</time>
      </trkpt>
      <trkpt lat="42.570816" lon="-5.512861">
        <ele>866.316</ele>
        <time>2018-06-15T11:55:57Z</time>
      </trkpt>
      <trkpt lat="42.570830" lon="-5.512923">
        <ele>866.376</ele>
        <time>2018-06-15T11:55:59Z</time>
      </trkpt>
      <trkpt lat="42.570846" lon="-5.512992">
        <ele>866.766</ele>
        <time>2018-06-15T11:56:01Z</time>
      </trkpt>
      <trkpt lat="42.570864" lon="-5.513066">
        <ele>866.966</ele>
        <time>2018-06-15T11:56:03Z</time>
      </trkpt>
      <trkpt lat="42.570881" lon="-5.513141">
        <ele>867.427</ele>
        <time>2018-06-15T11:56:05Z</time>
      </trkpt>
      <trkpt lat="42.570897" lon="-5.513221">
        <ele>867.768</ele>
        <time>2018-06-15T11:56:07Z</time>
      </trkpt>
      <trkpt lat="42.570910" lon="-5.513298">
        <ele>867.914</ele>
        <time>2018-06-15T11:56:09Z</time>
      </trkpt>
      <trkpt lat="42.570926" lon="-5.513379">
        <ele>868.408</ele>
        <time>2018-06-15T11:56:11Z</time>
      </trkpt>
      <trkpt lat="42.570943" lon="-5.513461">
        <ele>868.794</ele>
        <time>2018-06-15T11:56:13Z</time>
      </trkpt>
      <trkpt lat="42.570962" lon="-5.513543">
        <ele>868.977</ele>
        <time>2018-06-15T11:56:15Z</time>
      </trkpt>
      <trkpt lat="42.570981" lon="-5.513621">
        <ele>869.040</ele>
        <time>2018-06-15T11:56:17Z</time>
      </trkpt>
      <trkpt lat="42.570998" lon="-5.513699">
        <ele>869.154</ele>
        <time>2018-06-15T11:56:19Z</time>
      </trkpt>
      <trkpt lat="42.571017" lon="-5.513781">
        <ele>869.573</ele>
        <time>2018-06-15T11:56:21Z</time>
      </trkpt>
      <trkpt lat="42.571036" lon="-5.513866">
        <ele>869.823</ele>
        <time>2018-06-15T11:56:23Z</time>
      </trkpt>
      <trkpt lat="42.571054" lon="-5.513950">
        <ele>870.013</ele>
        <time>2018-06-15T11:56:25Z</time>
      </trkpt>
      <trkpt lat="42.571072" lon="-5.514032">
        <ele>870.193</ele>
        <time>2018-06-15T11:56:27Z</time>
      </trkpt>
      <trkpt lat="42.571091" lon="-5.514114">
        <ele>870.622</ele>
        <time>2018-06-15T11:56:29Z</time>
      </trkpt>
      <trkpt lat="42.571109" lon="-5.514189">
        <ele>870.962</ele>
        <time>2018-06-15T11:56:31Z</time>
      </trkpt>
      <trkpt lat="42.571124" lon="-5.514261">
        <ele>871.108</ele>
        <time>2018-06-15T11:56:33Z</time>
      </trkpt>
      <trkpt lat="42.571140" lon="-5.514334">
        <ele>871.608</ele>
        <time>2018-06-15T11:56:35Z</time>
      </trkpt>
      <trkpt lat="42.571155" lon="-5.514408">
        <ele>871.984</ele>
        <time>2018-06-15T11:56:37Z</time>
      </trkpt>
      <trkpt lat="42.571168" lon="-5.514478">
        <ele>872.557</ele>
        <time>2018-06-15T11:56:39Z</time>
      </trkpt>
      <trkpt lat="42.571180" lon="-5.514545">
        <ele>873.240</ele>
        <time>2018-06-15T11:56:41Z</time>
      </trkpt>
      <trkpt lat="42.571191" lon="-5.514611">
        <ele>874.034</ele>
        <time>2018-06-15T11:56:43Z</time>
      </trkpt>
      <trkpt lat="42.571201" lon="-5.514674">
        <ele>874.573</ele>
        <time>2018-06-15T11:56:45Z</time>
      </trkpt>
      <trkpt lat="42.571212" lon="-5.514735">
        <ele>875.223</ele>
        <time>2018-06-15T11:56:47Z</time>
      </trkpt>
      <trkpt lat="42.571227" lon="-5.514794">
        <ele>876.013</ele>
        <time>2018-06-15T11:56:49Z</time>
      </trkpt>
      <trkpt lat="42.571239" lon="-5.514855">
        <ele>876.513</ele>
        <time>2018-06-15T11:56:51Z</time>
      </trkpt>
      <trkpt lat="42.571249" lon="-5.514918">
        <ele>876.867</ele>
        <time>2018-06-15T11:56:53Z</time>
      </trkpt>
      <trkpt lat="42.571260" lon="-5.514981">
        <ele>877.481</ele>
        <time>2018-06-15T11:56:55Z</time>
      </trkpt>
      <trkpt lat="42.571273" lon="-5.515045">
        <ele>878.119</ele>
        <time>2018-06-15T11:56:57Z</time>
      </trkpt>
      <trkpt lat="42.571288" lon="-5.515108">
        <ele>878.508</ele>
        <time>2018-06-15T11:56:59Z</time>
      </trkpt>
      <trkpt lat="42.571302" lon="-5.515171">
        <ele>878.818</ele>
        <time>2018-06-15T11:57:01Z</time>
      </trkpt>
      <trkpt lat="42.571319" lon="-5.515235">
        <ele>879.431</ele>
        <time>2018-06-15T11:57:03Z</time>
      </trkpt>
      <trkpt lat="42.571336" lon="-5.515298">
        <ele>879.744</ele>
        <time>2018-06-15T11:57:05Z</time>
      </trkpt>
      <trkpt lat="42.571354" lon="-5.515361">
        <ele>880.338</ele>
        <time>2018-06-15T11:57:07Z</time>
      </trkpt>
      <trkpt lat="42.571369" lon="-5.515425">
        <ele>880.747</ele>
        <time>2018-06-15T11:57:09Z</time>
      </trkpt>
      <trkpt lat="42.571383" lon="-5.515488">
        <ele>881.367</ele>
        <time>2018-06-15T11:57:11Z</time>
      </trkpt>
      <trkpt lat="42.571397" lon="-5.515554">
        <ele>882.147</ele>
        <time>2018-06-15T11:57:13Z</time>
      </trkpt>
      <trkpt lat="42.571413" lon="-5.515619">
        <ele>882.657</ele>
        <time>2018-06-15T11:57:15Z</time>
      </trkpt>
      <trkpt lat="42.571425" lon="-5.515683">
        <ele>883.376</ele>
        <time>2018-06-15T11:57:17Z</time>
      </trkpt>
      <trkpt lat="42.571435" lon="-5.515746">
        <ele>883.790</ele>
        <time>2018-06-15T11:57:19Z</time>
      </trkpt>
      <trkpt lat="42.571448" lon="-5.515807">
        <ele>883.919</ele>
        <time>2018-06-15T11:57:21Z</time>
      </trkpt>
      <trkpt lat="42.571461" lon="-5.515868">
        <ele>884.008</ele>
        <time>2018-06-15T11:57:23Z</time>
      </trkpt>
      <trkpt lat="42.571480" lon="-5.515957">
        <ele>884.589</ele>
        <time>2018-06-15T11:57:26Z</time>
      </trkpt>
      <trkpt lat="42.571494" lon="-5.516018">
        <ele>884.812</ele>
        <time>2018-06-15T11:57:28Z</time>
      </trkpt>
      <trkpt lat="42.571508" lon="-5.516082">
        <ele>885.065</ele>
        <time>2018-06-15T11:57:30Z</time>
      </trkpt>
      <trkpt lat="42.571525" lon="-5.516154">
        <ele>885.179</ele>
        <time>2018-06-15T11:57:32Z</time>
      </trkpt>
      <trkpt lat="42.571545" lon="-5.516229">
        <ele>885.288</ele>
        <time>2018-06-15T11:57:34Z</time>
      </trkpt>
      <trkpt lat="42.571564" lon="-5.516309">
        <ele>885.288</ele>
        <time>2018-06-15T11:57:36Z</time>
      </trkpt>
      <trkpt lat="42.571584" lon="-5.516386">
        <ele>885.278</ele>
        <time>2018-06-15T11:57:38Z</time>
      </trkpt>
      <trkpt lat="42.571603" lon="-5.516467">
        <ele>885.248</ele>
        <time>2018-06-15T11:57:40Z</time>
      </trkpt>
      <trkpt lat="42.571622" lon="-5.516547">
        <ele>885.256</ele>
        <time>2018-06-15T11:57:42Z</time>
      </trkpt>
      <trkpt lat="42.571642" lon="-5.516627">
        <ele>885.659</ele>
        <time>2018-06-15T11:57:44Z</time>
      </trkpt>
      <trkpt lat="42.571662" lon="-5.516704">
        <ele>886.214</ele>
        <time>2018-06-15T11:57:46Z</time>
      </trkpt>
      <trkpt lat="42.571680" lon="-5.516783">
        <ele>886.608</ele>
        <time>2018-06-15T11:57:48Z</time>
      </trkpt>
      <trkpt lat="42.571697" lon="-5.516852">
        <ele>887.277</ele>
        <time>2018-06-15T11:57:50Z</time>
      </trkpt>
      <trkpt lat="42.571714" lon="-5.516918">
        <ele>887.690</ele>
        <time>2018-06-15T11:57:52Z</time>
      </trkpt>
      <trkpt lat="42.571731" lon="-5.516986">
        <ele>887.893</ele>
        <time>2018-06-15T11:57:54Z</time>
      </trkpt>
      <trkpt lat="42.571747" lon="-5.517054">
        <ele>888.327</ele>
        <time>2018-06-15T11:57:56Z</time>
      </trkpt>
      <trkpt lat="42.571763" lon="-5.517122">
        <ele>888.666</ele>
        <time>2018-06-15T11:57:58Z</time>
      </trkpt>
      <trkpt lat="42.571776" lon="-5.517190">
        <ele>889.266</ele>
        <time>2018-06-15T11:58:00Z</time>
      </trkpt>
      <trkpt lat="42.571790" lon="-5.517260">
        <ele>889.666</ele>
        <time>2018-06-15T11:58:02Z</time>
      </trkpt>
      <trkpt lat="42.571807" lon="-5.517331">
        <ele>889.856</ele>
        <time>2018-06-15T11:58:04Z</time>
      </trkpt>
      <trkpt lat="42.571822" lon="-5.517402">
        <ele>890.364</ele>
        <time>2018-06-15T11:58:06Z</time>
      </trkpt>
      <trkpt lat="42.571837" lon="-5.517483">
        <ele>890.606</ele>
        <time>2018-06-15T11:58:08Z</time>
      </trkpt>
      <trkpt lat="42.571861" lon="-5.517615">
        <ele>890.816</ele>
        <time>2018-06-15T11:58:09Z</time>
      </trkpt>
      <trkpt lat="42.571878" lon="-5.517688">
        <ele>890.908</ele>
        <time>2018-06-15T11:58:11Z</time>
      </trkpt>
      <trkpt lat="42.571899" lon="-5.517771">
        <ele>891.098</ele>
        <time>2018-06-15T11:58:14Z</time>
      </trkpt>
      <trkpt lat="42.571922" lon="-5.517855">
        <ele>891.031</ele>
        <time>2018-06-15T11:58:17Z</time>
      </trkpt>
      <trkpt lat="42.571936" lon="-5.517919">
        <ele>891.474</ele>
        <time>2018-06-15T11:58:19Z</time>
      </trkpt>
      <trkpt lat="42.571951" lon="-5.517990">
        <ele>891.318</ele>
        <time>2018-06-15T11:58:21Z</time>
      </trkpt>
      <trkpt lat="42.571966" lon="-5.518067">
        <ele>891.227</ele>
        <time>2018-06-15T11:58:23Z</time>
      </trkpt>
      <trkpt lat="42.571981" lon="-5.518148">
        <ele>891.157</ele>
        <time>2018-06-15T11:58:25Z</time>
      </trkpt>
      <trkpt lat="42.571994" lon="-5.518228">
        <ele>890.747</ele>
        <time>2018-06-15T11:58:27Z</time>
      </trkpt>
      <trkpt lat="42.572010" lon="-5.518306">
        <ele>890.497</ele>
        <time>2018-06-15T11:58:29Z</time>
      </trkpt>
      <trkpt lat="42.572028" lon="-5.518386">
        <ele>890.251</ele>
        <time>2018-06-15T11:58:31Z</time>
      </trkpt>
      <trkpt lat="42.572049" lon="-5.518470">
        <ele>889.701</ele>
        <time>2018-06-15T11:58:33Z</time>
      </trkpt>
      <trkpt lat="42.572069" lon="-5.518557">
        <ele>889.411</ele>
        <time>2018-06-15T11:58:35Z</time>
      </trkpt>
      <trkpt lat="42.572111" lon="-5.518730">
        <ele>888.808</ele>
        <time>2018-06-15T11:58:37Z</time>
      </trkpt>
      <trkpt lat="42.572134" lon="-5.518827">
        <ele>888.137</ele>
        <time>2018-06-15T11:58:39Z</time>
      </trkpt>
      <trkpt lat="42.572163" lon="-5.518932">
        <ele>887.750</ele>
        <time>2018-06-15T11:58:41Z</time>
      </trkpt>
      <trkpt lat="42.572199" lon="-5.519048">
        <ele>887.013</ele>
        <time>2018-06-15T11:58:43Z</time>
      </trkpt>
      <trkpt lat="42.572216" lon="-5.519113">
        <ele>886.627</ele>
        <time>2018-06-15T11:58:44Z</time>
      </trkpt>
      <trkpt lat="42.572236" lon="-5.519186">
        <ele>886.066</ele>
        <time>2018-06-15T11:58:45Z</time>
      </trkpt>
      <trkpt lat="42.572252" lon="-5.519264">
        <ele>885.616</ele>
        <time>2018-06-15T11:58:46Z</time>
      </trkpt>
      <trkpt lat="42.572272" lon="-5.519342">
        <ele>885.456</ele>
        <time>2018-06-15T11:58:47Z</time>
      </trkpt>
      <trkpt lat="42.572288" lon="-5.519417">
        <ele>885.396</ele>
        <time>2018-06-15T11:58:48Z</time>
      </trkpt>
      <trkpt lat="42.572307" lon="-5.519488">
        <ele>885.285</ele>
        <time>2018-06-15T11:58:49Z</time>
      </trkpt>
      <trkpt lat="42.572328" lon="-5.519561">
        <ele>885.289</ele>
        <time>2018-06-15T11:58:50Z</time>
      </trkpt>
      <trkpt lat="42.572347" lon="-5.519640">
        <ele>885.217</ele>
        <time>2018-06-15T11:58:51Z</time>
      </trkpt>
      <trkpt lat="42.572362" lon="-5.519709">
        <ele>884.808</ele>
        <time>2018-06-15T11:58:52Z</time>
      </trkpt>
      <trkpt lat="42.572379" lon="-5.519779">
        <ele>884.560</ele>
        <time>2018-06-15T11:58:53Z</time>
      </trkpt>
      <trkpt lat="42.572396" lon="-5.519847">
        <ele>884.343</ele>
        <time>2018-06-15T11:58:54Z</time>
      </trkpt>
      <trkpt lat="42.572416" lon="-5.519913">
        <ele>884.676</ele>
        <time>2018-06-15T11:58:55Z</time>
      </trkpt>
      <trkpt lat="42.572436" lon="-5.519980">
        <ele>884.890</ele>
        <time>2018-06-15T11:58:56Z</time>
      </trkpt>
      <trkpt lat="42.572449" lon="-5.520048">
        <ele>884.999</ele>
        <time>2018-06-15T11:58:57Z</time>
      </trkpt>
      <trkpt lat="42.572465" lon="-5.520109">
        <ele>885.069</ele>
        <time>2018-06-15T11:58:58Z</time>
      </trkpt>
      <trkpt lat="42.572493" lon="-5.520214">
        <ele>885.029</ele>
        <time>2018-06-15T11:59:00Z</time>
      </trkpt>
      <trkpt lat="42.572509" lon="-5.520310">
        <ele>885.089</ele>
        <time>2018-06-15T11:59:02Z</time>
      </trkpt>
      <trkpt lat="42.572519" lon="-5.520388">
        <ele>885.479</ele>
        <time>2018-06-15T11:59:05Z</time>
      </trkpt>
      <trkpt lat="42.572533" lon="-5.520471">
        <ele>885.605</ele>
        <time>2018-06-15T11:59:08Z</time>
      </trkpt>
      <trkpt lat="42.572541" lon="-5.520532">
        <ele>886.125</ele>
        <time>2018-06-15T11:59:10Z</time>
      </trkpt>
      <trkpt lat="42.572547" lon="-5.520595">
        <ele>886.408</ele>
        <time>2018-06-15T11:59:12Z</time>
      </trkpt>
      <trkpt lat="42.572554" lon="-5.520661">
        <ele>886.699</ele>
        <time>2018-06-15T11:59:14Z</time>
      </trkpt>
      <trkpt lat="42.572557" lon="-5.520731">
        <ele>886.792</ele>
        <time>2018-06-15T11:59:16Z</time>
      </trkpt>
      <trkpt lat="42.572554" lon="-5.520807">
        <ele>886.845</ele>
        <time>2018-06-15T11:59:18Z</time>
      </trkpt>
      <trkpt lat="42.572547" lon="-5.520883">
        <ele>886.859</ele>
        <time>2018-06-15T11:59:20Z</time>
      </trkpt>
      <trkpt lat="42.572539" lon="-5.520957">
        <ele>886.888</ele>
        <time>2018-06-15T11:59:22Z</time>
      </trkpt>
      <trkpt lat="42.572536" lon="-5.521033">
        <ele>886.878</ele>
        <time>2018-06-15T11:59:24Z</time>
      </trkpt>
      <trkpt lat="42.572540" lon="-5.521104">
        <ele>886.458</ele>
        <time>2018-06-15T11:59:26Z</time>
      </trkpt>
      <trkpt lat="42.572555" lon="-5.521167">
        <ele>886.278</ele>
        <time>2018-06-15T11:59:28Z</time>
      </trkpt>
      <trkpt lat="42.572589" lon="-5.521243">
        <ele>886.184</ele>
        <time>2018-06-15T11:59:31Z</time>
      </trkpt>
      <trkpt lat="42.572631" lon="-5.521303">
        <ele>886.407</ele>
        <time>2018-06-15T11:59:34Z</time>
      </trkpt>
      <trkpt lat="42.572667" lon="-5.521366">
        <ele>886.617</ele>
        <time>2018-06-15T11:59:37Z</time>
      </trkpt>
      <trkpt lat="42.572697" lon="-5.521443">
        <ele>886.708</ele>
        <time>2018-06-15T11:59:40Z</time>
      </trkpt>
      <trkpt lat="42.572720" lon="-5.521501">
        <ele>886.890</ele>
        <time>2018-06-15T11:59:42Z</time>
      </trkpt>
      <trkpt lat="42.572742" lon="-5.521561">
        <ele>886.473</ele>
        <time>2018-06-15T11:59:44Z</time>
      </trkpt>
      <trkpt lat="42.572760" lon="-5.521627">
        <ele>886.266</ele>
        <time>2018-06-15T11:59:46Z</time>
      </trkpt>
      <trkpt lat="42.572782" lon="-5.521705">
        <ele>885.770</ele>
        <time>2018-06-15T11:59:48Z</time>
      </trkpt>
      <trkpt lat="42.572819" lon="-5.521836">
        <ele>885.449</ele>
        <time>2018-06-15T11:59:49Z</time>
      </trkpt>
      <trkpt lat="42.572837" lon="-5.521946">
        <ele>884.899</ele>
        <time>2018-06-15T11:59:51Z</time>
      </trkpt>
      <trkpt lat="42.572852" lon="-5.522061">
        <ele>884.049</ele>
        <time>2018-06-15T11:59:53Z</time>
      </trkpt>
      <trkpt lat="42.572875" lon="-5.522178">
        <ele>883.569</ele>
        <time>2018-06-15T11:59:55Z</time>
      </trkpt>
      <trkpt lat="42.572887" lon="-5.522241">
        <ele>883.212</ele>
        <time>2018-06-15T11:59:56Z</time>
      </trkpt>
      <trkpt lat="42.572904" lon="-5.522302">
        <ele>883.032</ele>
        <time>2018-06-15T11:59:57Z</time>
      </trkpt>
      <trkpt lat="42.572921" lon="-5.522360">
        <ele>882.905</ele>
        <time>2018-06-15T11:59:58Z</time>
      </trkpt>
      <trkpt lat="42.572936" lon="-5.522421">
        <ele>882.808</ele>
        <time>2018-06-15T11:59:59Z</time>
      </trkpt>
      <trkpt lat="42.572951" lon="-5.522485">
        <ele>882.893</ele>
        <time>2018-06-15T12:00:00Z</time>
      </trkpt>
      <trkpt lat="42.572967" lon="-5.522547">
        <ele>882.856</ele>
        <time>2018-06-15T12:00:01Z</time>
      </trkpt>
      <trkpt lat="42.572988" lon="-5.522658">
        <ele>882.819</ele>
        <time>2018-06-15T12:00:03Z</time>
      </trkpt>
      <trkpt lat="42.573003" lon="-5.522730">
        <ele>882.873</ele>
        <time>2018-06-15T12:00:05Z</time>
      </trkpt>
      <trkpt lat="42.573020" lon="-5.522817">
        <ele>883.282</ele>
        <time>2018-06-15T12:00:08Z</time>
      </trkpt>
      <trkpt lat="42.573031" lon="-5.522885">
        <ele>883.432</ele>
        <time>2018-06-15T12:00:10Z</time>
      </trkpt>
      <trkpt lat="42.573045" lon="-5.522952">
        <ele>883.552</ele>
        <time>2018-06-15T12:00:12Z</time>
      </trkpt>
      <trkpt lat="42.573061" lon="-5.523018">
        <ele>883.692</ele>
        <time>2018-06-15T12:00:14Z</time>
      </trkpt>
      <trkpt lat="42.573078" lon="-5.523088">
        <ele>884.151</ele>
        <time>2018-06-15T12:00:16Z</time>
      </trkpt>
      <trkpt lat="42.573094" lon="-5.523158">
        <ele>884.401</ele>
        <time>2018-06-15T12:00:18Z</time>
      </trkpt>
      <trkpt lat="42.573108" lon="-5.523223">
        <ele>885.011</ele>
        <time>2018-06-15T12:00:20Z</time>
      </trkpt>
      <trkpt lat="42.573121" lon="-5.523285">
        <ele>885.308</ele>
        <time>2018-06-15T12:00:22Z</time>
      </trkpt>
      <trkpt lat="42.573134" lon="-5.523345">
        <ele>885.597</ele>
        <time>2018-06-15T12:00:24Z</time>
      </trkpt>
      <trkpt lat="42.573147" lon="-5.523432">
        <ele>886.030</ele>
        <time>2018-06-15T12:00:27Z</time>
      </trkpt>
      <trkpt lat="42.573162" lon="-5.523513">
        <ele>886.343</ele>
        <time>2018-06-15T12:00:30Z</time>
      </trkpt>
      <trkpt lat="42.573182" lon="-5.523597">
        <ele>886.557</ele>
        <time>2018-06-15T12:00:33Z</time>
      </trkpt>
      <trkpt lat="42.573199" lon="-5.523684">
        <ele>886.696</ele>
        <time>2018-06-15T12:00:36Z</time>
      </trkpt>
      <trkpt lat="42.573220" lon="-5.523768">
        <ele>886.746</ele>
        <time>2018-06-15T12:00:39Z</time>
      </trkpt>
      <trkpt lat="42.573238" lon="-5.523841">
        <ele>886.746</ele>
        <time>2018-06-15T12:00:42Z</time>
      </trkpt>
      <trkpt lat="42.573250" lon="-5.523912">
        <ele>886.786</ele>
        <time>2018-06-15T12:00:46Z</time>
      </trkpt>
      <trkpt lat="42.573251" lon="-5.523981">
        <ele>886.396</ele>
        <time>2018-06-15T12:00:50Z</time>
      </trkpt>
      <trkpt lat="42.573263" lon="-5.524072">
        <ele>886.531</ele>
        <time>2018-06-15T12:01:26Z</time>
      </trkpt>
      <trkpt lat="42.573233" lon="-5.524121">
        <ele>887.824</ele>
        <time>2018-06-15T12:03:57Z</time>
      </trkpt>
      <trkpt lat="42.573224" lon="-5.524191">
        <ele>889.008</ele>
        <time>2018-06-15T12:04:17Z</time>
      </trkpt>
      <trkpt lat="42.573182" lon="-5.524249">
        <ele>889.711</ele>
        <time>2018-06-15T12:04:20Z</time>
      </trkpt>
      <trkpt lat="42.573136" lon="-5.524300">
        <ele>890.154</ele>
        <time>2018-06-15T12:04:22Z</time>
      </trkpt>
      <trkpt lat="42.573033" lon="-5.524398">
        <ele>890.037</ele>
        <time>2018-06-15T12:04:24Z</time>
      </trkpt>
      <trkpt lat="42.572969" lon="-5.524469">
        <ele>889.941</ele>
        <time>2018-06-15T12:04:26Z</time>
      </trkpt>
      <trkpt lat="42.572907" lon="-5.524544">
        <ele>889.420</ele>
        <time>2018-06-15T12:04:28Z</time>
      </trkpt>
      <trkpt lat="42.572847" lon="-5.524610">
        <ele>889.160</ele>
        <time>2018-06-15T12:04:30Z</time>
      </trkpt>
      <trkpt lat="42.572782" lon="-5.524679">
        <ele>888.910</ele>
        <time>2018-06-15T12:04:32Z</time>
      </trkpt>
      <trkpt lat="42.572712" lon="-5.524742">
        <ele>889.210</ele>
        <time>2018-06-15T12:04:34Z</time>
      </trkpt>
      <trkpt lat="42.572651" lon="-5.524802">
        <ele>889.496</ele>
        <time>2018-06-15T12:04:36Z</time>
      </trkpt>
      <trkpt lat="42.572593" lon="-5.524857">
        <ele>889.931</ele>
        <time>2018-06-15T12:04:38Z</time>
      </trkpt>
      <trkpt lat="42.572542" lon="-5.524913">
        <ele>890.224</ele>
        <time>2018-06-15T12:04:41Z</time>
      </trkpt>
      <trkpt lat="42.572447" lon="-5.524995">
        <ele>890.808</ele>
        <time>2018-06-15T12:04:43Z</time>
      </trkpt>
      <trkpt lat="42.572388" lon="-5.525050">
        <ele>891.591</ele>
        <time>2018-06-15T12:04:45Z</time>
      </trkpt>
      <trkpt lat="42.572317" lon="-5.525113">
        <ele>892.334</ele>
        <time>2018-06-15T12:04:47Z</time>
      </trkpt>
      <trkpt lat="42.572276" lon="-5.525143">
        <ele>893.277</ele>
        <time>2018-06-15T12:04:48Z</time>
      </trkpt>
      <trkpt lat="42.572241" lon="-5.525182">
        <ele>893.791</ele>
        <time>2018-06-15T12:04:49Z</time>
      </trkpt>
      <trkpt lat="42.572173" lon="-5.525264">
        <ele>893.650</ele>
        <time>2018-06-15T12:04:51Z</time>
      </trkpt>
      <trkpt lat="42.572129" lon="-5.525301">
        <ele>893.210</ele>
        <time>2018-06-15T12:04:52Z</time>
      </trkpt>
      <trkpt lat="42.572067" lon="-5.525372">
        <ele>892.550</ele>
        <time>2018-06-15T12:04:54Z</time>
      </trkpt>
      <trkpt lat="42.571994" lon="-5.525421">
        <ele>891.720</ele>
        <time>2018-06-15T12:04:56Z</time>
      </trkpt>
      <trkpt lat="42.571946" lon="-5.525477">
        <ele>891.689</ele>
        <time>2018-06-15T12:04:59Z</time>
      </trkpt>
      <trkpt lat="42.571925" lon="-5.525535">
        <ele>890.806</ele>
        <time>2018-06-15T12:05:01Z</time>
      </trkpt>
      <trkpt lat="42.571912" lon="-5.525605">
        <ele>889.926</ele>
        <time>2018-06-15T12:05:03Z</time>
      </trkpt>
      <trkpt lat="42.571912" lon="-5.525688">
        <ele>889.408</ele>
        <time>2018-06-15T12:05:05Z</time>
      </trkpt>
      <trkpt lat="42.571928" lon="-5.525766">
        <ele>889.170</ele>
        <time>2018-06-15T12:05:07Z</time>
      </trkpt>
      <trkpt lat="42.571948" lon="-5.525840">
        <ele>888.963</ele>
        <time>2018-06-15T12:05:09Z</time>
      </trkpt>
      <trkpt lat="42.571968" lon="-5.525911">
        <ele>888.836</ele>
        <time>2018-06-15T12:05:11Z</time>
      </trkpt>
      <trkpt lat="42.571987" lon="-5.525980">
        <ele>888.750</ele>
        <time>2018-06-15T12:05:13Z</time>
      </trkpt>
      <trkpt lat="42.572004" lon="-5.526053">
        <ele>888.759</ele>
        <time>2018-06-15T12:05:15Z</time>
      </trkpt>
      <trkpt lat="42.572021" lon="-5.526129">
        <ele>888.739</ele>
        <time>2018-06-15T12:05:17Z</time>
      </trkpt>
      <trkpt lat="42.572038" lon="-5.526206">
        <ele>888.359</ele>
        <time>2018-06-15T12:05:19Z</time>
      </trkpt>
      <trkpt lat="42.572056" lon="-5.526282">
        <ele>888.149</ele>
        <time>2018-06-15T12:05:21Z</time>
      </trkpt>
      <trkpt lat="42.572070" lon="-5.526354">
        <ele>888.447</ele>
        <time>2018-06-15T12:05:23Z</time>
      </trkpt>
      <trkpt lat="42.572082" lon="-5.526426">
        <ele>888.629</ele>
        <time>2018-06-15T12:05:25Z</time>
      </trkpt>
      <trkpt lat="42.572096" lon="-5.526503">
        <ele>889.121</ele>
        <time>2018-06-15T12:05:27Z</time>
      </trkpt>
      <trkpt lat="42.572113" lon="-5.526581">
        <ele>889.408</ele>
        <time>2018-06-15T12:05:29Z</time>
      </trkpt>
      <trkpt lat="42.572133" lon="-5.526649">
        <ele>889.696</ele>
        <time>2018-06-15T12:05:31Z</time>
      </trkpt>
      <trkpt lat="42.572148" lon="-5.526710">
        <ele>889.329</ele>
        <time>2018-06-15T12:05:33Z</time>
      </trkpt>
      <trkpt lat="42.572181" lon="-5.526783">
        <ele>889.132</ele>
        <time>2018-06-15T12:05:36Z</time>
      </trkpt>
      <trkpt lat="42.572220" lon="-5.526822">
        <ele>889.866</ele>
        <time>2018-06-15T12:05:39Z</time>
      </trkpt>
      <trkpt lat="42.572258" lon="-5.526885">
        <ele>890.255</ele>
        <time>2018-06-15T12:05:42Z</time>
      </trkpt>
      <trkpt lat="42.572283" lon="-5.526939">
        <ele>890.015</ele>
        <time>2018-06-15T12:05:44Z</time>
      </trkpt>
      <trkpt lat="42.572308" lon="-5.526995">
        <ele>889.975</ele>
        <time>2018-06-15T12:05:46Z</time>
      </trkpt>
      <trkpt lat="42.572336" lon="-5.527054">
        <ele>889.865</ele>
        <time>2018-06-15T12:05:48Z</time>
      </trkpt>
      <trkpt lat="42.572363" lon="-5.527119">
        <ele>890.284</ele>
        <time>2018-06-15T12:05:50Z</time>
      </trkpt>
      <trkpt lat="42.572394" lon="-5.527181">
        <ele>890.407</ele>
        <time>2018-06-15T12:05:52Z</time>
      </trkpt>
      <trkpt lat="42.572433" lon="-5.527235">
        <ele>890.917</ele>
        <time>2018-06-15T12:05:54Z</time>
      </trkpt>
      <trkpt lat="42.572474" lon="-5.527282">
        <ele>891.208</ele>
        <time>2018-06-15T12:05:56Z</time>
      </trkpt>
      <trkpt lat="42.572515" lon="-5.527315">
        <ele>891.820</ele>
        <time>2018-06-15T12:05:58Z</time>
      </trkpt>
      <trkpt lat="42.572557" lon="-5.527338">
        <ele>892.253</ele>
        <time>2018-06-15T12:06:00Z</time>
      </trkpt>
      <trkpt lat="42.572601" lon="-5.527353">
        <ele>892.896</ele>
        <time>2018-06-15T12:06:02Z</time>
      </trkpt>
      <trkpt lat="42.572662" lon="-5.527363">
        <ele>893.280</ele>
        <time>2018-06-15T12:06:05Z</time>
      </trkpt>
      <trkpt lat="42.572717" lon="-5.527364">
        <ele>893.829</ele>
        <time>2018-06-15T12:06:08Z</time>
      </trkpt>
      <trkpt lat="42.572772" lon="-5.527366">
        <ele>895.079</ele>
        <time>2018-06-15T12:06:11Z</time>
      </trkpt>
      <trkpt lat="42.572833" lon="-5.527372">
        <ele>896.159</ele>
        <time>2018-06-15T12:06:14Z</time>
      </trkpt>
      <trkpt lat="42.572891" lon="-5.527392">
        <ele>897.229</ele>
        <time>2018-06-15T12:06:17Z</time>
      </trkpt>
      <trkpt lat="42.572950" lon="-5.527424">
        <ele>897.833</ele>
        <time>2018-06-15T12:06:20Z</time>
      </trkpt>
      <trkpt lat="42.573008" lon="-5.527470">
        <ele>898.623</ele>
        <time>2018-06-15T12:06:23Z</time>
      </trkpt>
      <trkpt lat="42.573045" lon="-5.527512">
        <ele>899.515</ele>
        <time>2018-06-15T12:06:25Z</time>
      </trkpt>
      <trkpt lat="42.573080" lon="-5.527562">
        <ele>900.008</ele>
        <time>2018-06-15T12:06:27Z</time>
      </trkpt>
      <trkpt lat="42.573107" lon="-5.527617">
        <ele>900.395</ele>
        <time>2018-06-15T12:06:29Z</time>
      </trkpt>
      <trkpt lat="42.573127" lon="-5.527675">
        <ele>900.518</ele>
        <time>2018-06-15T12:06:31Z</time>
      </trkpt>
      <trkpt lat="42.573150" lon="-5.527757">
        <ele>901.051</ele>
        <time>2018-06-15T12:06:34Z</time>
      </trkpt>
      <trkpt lat="42.573166" lon="-5.527835">
        <ele>901.375</ele>
        <time>2018-06-15T12:06:37Z</time>
      </trkpt>
      <trkpt lat="42.573173" lon="-5.527908">
        <ele>901.594</ele>
        <time>2018-06-15T12:06:40Z</time>
      </trkpt>
      <trkpt lat="42.573183" lon="-5.527977">
        <ele>902.074</ele>
        <time>2018-06-15T12:06:43Z</time>
      </trkpt>
      <trkpt lat="42.573193" lon="-5.528051">
        <ele>902.764</ele>
        <time>2018-06-15T12:06:46Z</time>
      </trkpt>
      <trkpt lat="42.573207" lon="-5.528140">
        <ele>903.124</ele>
        <time>2018-06-15T12:06:49Z</time>
      </trkpt>
      <trkpt lat="42.573214" lon="-5.528200">
        <ele>903.884</ele>
        <time>2018-06-15T12:06:51Z</time>
      </trkpt>
      <trkpt lat="42.573219" lon="-5.528263">
        <ele>904.207</ele>
        <time>2018-06-15T12:06:53Z</time>
      </trkpt>
      <trkpt lat="42.573224" lon="-5.528328">
        <ele>904.417</ele>
        <time>2018-06-15T12:06:55Z</time>
      </trkpt>
      <trkpt lat="42.573229" lon="-5.528395">
        <ele>904.508</ele>
        <time>2018-06-15T12:06:57Z</time>
      </trkpt>
      <trkpt lat="42.573235" lon="-5.528471">
        <ele>904.610</ele>
        <time>2018-06-15T12:06:59Z</time>
      </trkpt>
      <trkpt lat="42.573240" lon="-5.528552">
        <ele>904.793</ele>
        <time>2018-06-15T12:07:01Z</time>
      </trkpt>
      <trkpt lat="42.573245" lon="-5.528634">
        <ele>905.186</ele>
        <time>2018-06-15T12:07:03Z</time>
      </trkpt>
      <trkpt lat="42.573254" lon="-5.528714">
        <ele>905.470</ele>
        <time>2018-06-15T12:07:05Z</time>
      </trkpt>
      <trkpt lat="42.573266" lon="-5.528792">
        <ele>905.659</ele>
        <time>2018-06-15T12:07:07Z</time>
      </trkpt>
      <trkpt lat="42.573281" lon="-5.528875">
        <ele>905.349</ele>
        <time>2018-06-15T12:07:09Z</time>
      </trkpt>
      <trkpt lat="42.573308" lon="-5.529010">
        <ele>905.159</ele>
        <time>2018-06-15T12:07:10Z</time>
      </trkpt>
      <trkpt lat="42.573339" lon="-5.529112">
        <ele>905.079</ele>
        <time>2018-06-15T12:07:12Z</time>
      </trkpt>
      <trkpt lat="42.573373" lon="-5.529225">
        <ele>904.936</ele>
        <time>2018-06-15T12:07:14Z</time>
      </trkpt>
      <trkpt lat="42.573396" lon="-5.529279">
        <ele>904.517</ele>
        <time>2018-06-15T12:07:15Z</time>
      </trkpt>
      <trkpt lat="42.573418" lon="-5.529336">
        <ele>904.218</ele>
        <time>2018-06-15T12:07:16Z</time>
      </trkpt>
      <trkpt lat="42.573443" lon="-5.529397">
        <ele>903.608</ele>
        <time>2018-06-15T12:07:17Z</time>
      </trkpt>
      <trkpt lat="42.573472" lon="-5.529458">
        <ele>903.385</ele>
        <time>2018-06-15T12:07:18Z</time>
      </trkpt>
      <trkpt lat="42.573504" lon="-5.529515">
        <ele>902.748</ele>
        <time>2018-06-15T12:07:19Z</time>
      </trkpt>
      <trkpt lat="42.573535" lon="-5.529586">
        <ele>901.991</ele>
        <time>2018-06-15T12:07:20Z</time>
      </trkpt>
      <trkpt lat="42.573569" lon="-5.529650">
        <ele>901.495</ele>
        <time>2018-06-15T12:07:21Z</time>
      </trkpt>
      <trkpt lat="42.573602" lon="-5.529712">
        <ele>900.724</ele>
        <time>2018-06-15T12:07:22Z</time>
      </trkpt>
      <trkpt lat="42.573637" lon="-5.529769">
        <ele>900.354</ele>
        <time>2018-06-15T12:07:23Z</time>
      </trkpt>
      <trkpt lat="42.573673" lon="-5.529827">
        <ele>900.144</ele>
        <time>2018-06-15T12:07:24Z</time>
      </trkpt>
      <trkpt lat="42.573707" lon="-5.529882">
        <ele>900.074</ele>
        <time>2018-06-15T12:07:25Z</time>
      </trkpt>
      <trkpt lat="42.573734" lon="-5.529936">
        <ele>899.954</ele>
        <time>2018-06-15T12:07:26Z</time>
      </trkpt>
      <trkpt lat="42.573762" lon="-5.529992">
        <ele>899.856</ele>
        <time>2018-06-15T12:07:27Z</time>
      </trkpt>
      <trkpt lat="42.573789" lon="-5.530043">
        <ele>899.811</ele>
        <time>2018-06-15T12:07:28Z</time>
      </trkpt>
      <trkpt lat="42.573821" lon="-5.530106">
        <ele>899.808</ele>
        <time>2018-06-15T12:07:30Z</time>
      </trkpt>
      <trkpt lat="42.573845" lon="-5.530172">
        <ele>899.087</ele>
        <time>2018-06-15T12:07:33Z</time>
      </trkpt>
      <trkpt lat="42.573856" lon="-5.530257">
        <ele>898.190</ele>
        <time>2018-06-15T12:07:36Z</time>
      </trkpt>
      <trkpt lat="42.573880" lon="-5.530325">
        <ele>898.063</ele>
        <time>2018-06-15T12:07:38Z</time>
      </trkpt>
      <trkpt lat="42.573912" lon="-5.530383">
        <ele>897.927</ele>
        <time>2018-06-15T12:07:40Z</time>
      </trkpt>
      <trkpt lat="42.573950" lon="-5.530443">
        <ele>897.936</ele>
        <time>2018-06-15T12:07:42Z</time>
      </trkpt>
      <trkpt lat="42.573990" lon="-5.530503">
        <ele>898.396</ele>
        <time>2018-06-15T12:07:44Z</time>
      </trkpt>
      <trkpt lat="42.574032" lon="-5.530557">
        <ele>898.586</ele>
        <time>2018-06-15T12:07:46Z</time>
      </trkpt>
      <trkpt lat="42.574071" lon="-5.530609">
        <ele>898.656</ele>
        <time>2018-06-15T12:07:48Z</time>
      </trkpt>
      <trkpt lat="42.574109" lon="-5.530663">
        <ele>898.732</ele>
        <time>2018-06-15T12:07:50Z</time>
      </trkpt>
      <trkpt lat="42.574149" lon="-5.530716">
        <ele>897.992</ele>
        <time>2018-06-15T12:07:52Z</time>
      </trkpt>
      <trkpt lat="42.574190" lon="-5.530767">
        <ele>897.411</ele>
        <time>2018-06-15T12:07:54Z</time>
      </trkpt>
      <trkpt lat="42.574231" lon="-5.530817">
        <ele>896.708</ele>
        <time>2018-06-15T12:07:56Z</time>
      </trkpt>
      <trkpt lat="42.574269" lon="-5.530868">
        <ele>896.735</ele>
        <time>2018-06-15T12:07:58Z</time>
      </trkpt>
      <trkpt lat="42.574308" lon="-5.530912">
        <ele>896.778</ele>
        <time>2018-06-15T12:08:00Z</time>
      </trkpt>
      <trkpt lat="42.574350" lon="-5.530962">
        <ele>897.581</ele>
        <time>2018-06-15T12:08:02Z</time>
      </trkpt>
      <trkpt lat="42.574389" lon="-5.531011">
        <ele>898.075</ele>
        <time>2018-06-15T12:08:04Z</time>
      </trkpt>
      <trkpt lat="42.574428" lon="-5.531061">
        <ele>898.314</ele>
        <time>2018-06-15T12:08:06Z</time>
      </trkpt>
      <trkpt lat="42.574468" lon="-5.531119">
        <ele>898.934</ele>
        <time>2018-06-15T12:08:08Z</time>
      </trkpt>
      <trkpt lat="42.574506" lon="-5.531180">
        <ele>899.224</ele>
        <time>2018-06-15T12:08:10Z</time>
      </trkpt>
      <trkpt lat="42.574544" lon="-5.531232">
        <ele>899.444</ele>
        <time>2018-06-15T12:08:12Z</time>
      </trkpt>
      <trkpt lat="42.574581" lon="-5.531272">
        <ele>899.143</ele>
        <time>2018-06-15T12:08:14Z</time>
      </trkpt>
      <trkpt lat="42.574622" lon="-5.531318">
        <ele>898.964</ele>
        <time>2018-06-15T12:08:16Z</time>
      </trkpt>
      <trkpt lat="42.574663" lon="-5.531366">
        <ele>898.810</ele>
        <time>2018-06-15T12:08:18Z</time>
      </trkpt>
      <trkpt lat="42.574704" lon="-5.531413">
        <ele>899.108</ele>
        <time>2018-06-15T12:08:20Z</time>
      </trkpt>
      <trkpt lat="42.574748" lon="-5.531459">
        <ele>899.766</ele>
        <time>2018-06-15T12:08:22Z</time>
      </trkpt>
      <trkpt lat="42.574787" lon="-5.531500">
        <ele>900.169</ele>
        <time>2018-06-15T12:08:24Z</time>
      </trkpt>
      <trkpt lat="42.574830" lon="-5.531539">
        <ele>899.912</ele>
        <time>2018-06-15T12:08:26Z</time>
      </trkpt>
      <trkpt lat="42.574876" lon="-5.531579">
        <ele>900.216</ele>
        <time>2018-06-15T12:08:28Z</time>
      </trkpt>
      <trkpt lat="42.574922" lon="-5.531622">
        <ele>900.885</ele>
        <time>2018-06-15T12:08:30Z</time>
      </trkpt>
      <trkpt lat="42.574969" lon="-5.531665">
        <ele>901.565</ele>
        <time>2018-06-15T12:08:32Z</time>
      </trkpt>
      <trkpt lat="42.575014" lon="-5.531701">
        <ele>902.335</ele>
        <time>2018-06-15T12:08:34Z</time>
      </trkpt>
      <trkpt lat="42.575056" lon="-5.531734">
        <ele>903.225</ele>
        <time>2018-06-15T12:08:36Z</time>
      </trkpt>
      <trkpt lat="42.575111" lon="-5.531782">
        <ele>904.137</ele>
        <time>2018-06-15T12:08:39Z</time>
      </trkpt>
      <trkpt lat="42.575168" lon="-5.531823">
        <ele>905.549</ele>
        <time>2018-06-15T12:08:42Z</time>
      </trkpt>
      <trkpt lat="42.575227" lon="-5.531861">
        <ele>906.713</ele>
        <time>2018-06-15T12:08:45Z</time>
      </trkpt>
      <trkpt lat="42.575269" lon="-5.531886">
        <ele>907.808</ele>
        <time>2018-06-15T12:08:47Z</time>
      </trkpt>
      <trkpt lat="42.575328" lon="-5.531924">
        <ele>908.535</ele>
        <time>2018-06-15T12:08:50Z</time>
      </trkpt>
      <trkpt lat="42.575385" lon="-5.531969">
        <ele>909.378</ele>
        <time>2018-06-15T12:08:53Z</time>
      </trkpt>
      <trkpt lat="42.575424" lon="-5.532003">
        <ele>909.881</ele>
        <time>2018-06-15T12:08:55Z</time>
      </trkpt>
      <trkpt lat="42.575462" lon="-5.532036">
        <ele>910.185</ele>
        <time>2018-06-15T12:08:57Z</time>
      </trkpt>
      <trkpt lat="42.575516" lon="-5.532088">
        <ele>910.334</ele>
        <time>2018-06-15T12:09:00Z</time>
      </trkpt>
      <trkpt lat="42.575553" lon="-5.532124">
        <ele>910.474</ele>
        <time>2018-06-15T12:09:02Z</time>
      </trkpt>
      <trkpt lat="42.575590" lon="-5.532164">
        <ele>911.324</ele>
        <time>2018-06-15T12:09:04Z</time>
      </trkpt>
      <trkpt lat="42.575627" lon="-5.532205">
        <ele>911.814</ele>
        <time>2018-06-15T12:09:06Z</time>
      </trkpt>
      <trkpt lat="42.575666" lon="-5.532248">
        <ele>912.538</ele>
        <time>2018-06-15T12:09:08Z</time>
      </trkpt>
      <trkpt lat="42.575707" lon="-5.532298">
        <ele>912.970</ele>
        <time>2018-06-15T12:09:10Z</time>
      </trkpt>
      <trkpt lat="42.575747" lon="-5.532346">
        <ele>913.617</ele>
        <time>2018-06-15T12:09:12Z</time>
      </trkpt>
      <trkpt lat="42.575791" lon="-5.532394">
        <ele>914.008</ele>
        <time>2018-06-15T12:09:14Z</time>
      </trkpt>
      <trkpt lat="42.575838" lon="-5.532437">
        <ele>914.245</ele>
        <time>2018-06-15T12:09:16Z</time>
      </trkpt>
      <trkpt lat="42.575885" lon="-5.532484">
        <ele>914.788</ele>
        <time>2018-06-15T12:09:18Z</time>
      </trkpt>
      <trkpt lat="42.575929" lon="-5.532532">
        <ele>915.461</ele>
        <time>2018-06-15T12:09:20Z</time>
      </trkpt>
      <trkpt lat="42.575975" lon="-5.532575">
        <ele>915.845</ele>
        <time>2018-06-15T12:09:22Z</time>
      </trkpt>
      <trkpt lat="42.576025" lon="-5.532612">
        <ele>916.514</ele>
        <time>2018-06-15T12:09:24Z</time>
      </trkpt>
      <trkpt lat="42.576076" lon="-5.532643">
        <ele>916.984</ele>
        <time>2018-06-15T12:09:26Z</time>
      </trkpt>
      <trkpt lat="42.576128" lon="-5.532670">
        <ele>917.124</ele>
        <time>2018-06-15T12:09:28Z</time>
      </trkpt>
      <trkpt lat="42.576184" lon="-5.532698">
        <ele>917.664</ele>
        <time>2018-06-15T12:09:30Z</time>
      </trkpt>
      <trkpt lat="42.576251" lon="-5.532727">
        <ele>917.994</ele>
        <time>2018-06-15T12:09:32Z</time>
      </trkpt>
      <trkpt lat="42.576318" lon="-5.532750">
        <ele>918.157</ele>
        <time>2018-06-15T12:09:34Z</time>
      </trkpt>
      <trkpt lat="42.576389" lon="-5.532766">
        <ele>918.222</ele>
        <time>2018-06-15T12:09:36Z</time>
      </trkpt>
      <trkpt lat="42.576476" lon="-5.532785">
        <ele>918.308</ele>
        <time>2018-06-15T12:09:37Z</time>
      </trkpt>
      <trkpt lat="42.576557" lon="-5.532804">
        <ele>918.791</ele>
        <time>2018-06-15T12:09:39Z</time>
      </trkpt>
      <trkpt lat="42.576635" lon="-5.532802">
        <ele>919.424</ele>
        <time>2018-06-15T12:09:41Z</time>
      </trkpt>
      <trkpt lat="42.576712" lon="-5.532809">
        <ele>919.867</ele>
        <time>2018-06-15T12:09:43Z</time>
      </trkpt>
      <trkpt lat="42.576786" lon="-5.532811">
        <ele>920.091</ele>
        <time>2018-06-15T12:09:45Z</time>
      </trkpt>
      <trkpt lat="42.576850" lon="-5.532811">
        <ele>920.170</ele>
        <time>2018-06-15T12:09:48Z</time>
      </trkpt>
      <trkpt lat="42.576961" lon="-5.532811">
        <ele>920.290</ele>
        <time>2018-06-15T12:09:50Z</time>
      </trkpt>
      <trkpt lat="42.577042" lon="-5.532812">
        <ele>920.350</ele>
        <time>2018-06-15T12:09:52Z</time>
      </trkpt>
      <trkpt lat="42.577122" lon="-5.532815">
        <ele>920.370</ele>
        <time>2018-06-15T12:09:54Z</time>
      </trkpt>
      <trkpt lat="42.577198" lon="-5.532807">
        <ele>920.336</ele>
        <time>2018-06-15T12:09:56Z</time>
      </trkpt>
      <trkpt lat="42.577274" lon="-5.532797">
        <ele>920.317</ele>
        <time>2018-06-15T12:09:58Z</time>
      </trkpt>
      <trkpt lat="42.577353" lon="-5.532792">
        <ele>920.318</ele>
        <time>2018-06-15T12:10:00Z</time>
      </trkpt>
      <trkpt lat="42.577437" lon="-5.532790">
        <ele>920.308</ele>
        <time>2018-06-15T12:10:02Z</time>
      </trkpt>
      <trkpt lat="42.577515" lon="-5.532781">
        <ele>920.345</ele>
        <time>2018-06-15T12:10:04Z</time>
      </trkpt>
      <trkpt lat="42.577594" lon="-5.532760">
        <ele>920.348</ele>
        <time>2018-06-15T12:10:06Z</time>
      </trkpt>
      <trkpt lat="42.577669" lon="-5.532763">
        <ele>920.381</ele>
        <time>2018-06-15T12:10:08Z</time>
      </trkpt>
      <trkpt lat="42.577726" lon="-5.532776">
        <ele>920.365</ele>
        <time>2018-06-15T12:10:10Z</time>
      </trkpt>
      <trkpt lat="42.577773" lon="-5.532789">
        <ele>920.314</ele>
        <time>2018-06-15T12:10:12Z</time>
      </trkpt>
      <trkpt lat="42.577825" lon="-5.532809">
        <ele>920.394</ele>
        <time>2018-06-15T12:10:14Z</time>
      </trkpt>
      <trkpt lat="42.577879" lon="-5.532837">
        <ele>920.364</ele>
        <time>2018-06-15T12:10:16Z</time>
      </trkpt>
      <trkpt lat="42.577934" lon="-5.532873">
        <ele>920.374</ele>
        <time>2018-06-15T12:10:18Z</time>
      </trkpt>
      <trkpt lat="42.577987" lon="-5.532908">
        <ele>920.355</ele>
        <time>2018-06-15T12:10:20Z</time>
      </trkpt>
      <trkpt lat="42.578035" lon="-5.532946">
        <ele>920.307</ele>
        <time>2018-06-15T12:10:22Z</time>
      </trkpt>
      <trkpt lat="42.578081" lon="-5.532987">
        <ele>920.317</ele>
        <time>2018-06-15T12:10:24Z</time>
      </trkpt>
      <trkpt lat="42.578127" lon="-5.533037">
        <ele>920.308</ele>
        <time>2018-06-15T12:10:26Z</time>
      </trkpt>
      <trkpt lat="42.578173" lon="-5.533087">
        <ele>920.337</ele>
        <time>2018-06-15T12:10:28Z</time>
      </trkpt>
      <trkpt lat="42.578219" lon="-5.533145">
        <ele>920.350</ele>
        <time>2018-06-15T12:10:30Z</time>
      </trkpt>
      <trkpt lat="42.578259" lon="-5.533204">
        <ele>920.363</ele>
        <time>2018-06-15T12:10:32Z</time>
      </trkpt>
      <trkpt lat="42.578295" lon="-5.533257">
        <ele>920.367</ele>
        <time>2018-06-15T12:10:34Z</time>
      </trkpt>
      <trkpt lat="42.578329" lon="-5.533310">
        <ele>920.336</ele>
        <time>2018-06-15T12:10:36Z</time>
      </trkpt>
      <trkpt lat="42.578363" lon="-5.533366">
        <ele>920.776</ele>
        <time>2018-06-15T12:10:38Z</time>
      </trkpt>
      <trkpt lat="42.578398" lon="-5.533413">
        <ele>920.976</ele>
        <time>2018-06-15T12:10:40Z</time>
      </trkpt>
      <trkpt lat="42.578432" lon="-5.533462">
        <ele>921.036</ele>
        <time>2018-06-15T12:10:42Z</time>
      </trkpt>
      <trkpt lat="42.578464" lon="-5.533515">
        <ele>921.148</ele>
        <time>2018-06-15T12:10:44Z</time>
      </trkpt>
      <trkpt lat="42.578499" lon="-5.533568">
        <ele>921.261</ele>
        <time>2018-06-15T12:10:46Z</time>
      </trkpt>
      <trkpt lat="42.578537" lon="-5.533618">
        <ele>921.617</ele>
        <time>2018-06-15T12:10:48Z</time>
      </trkpt>
      <trkpt lat="42.578575" lon="-5.533671">
        <ele>921.908</ele>
        <time>2018-06-15T12:10:50Z</time>
      </trkpt>
      <trkpt lat="42.578613" lon="-5.533725">
        <ele>922.136</ele>
        <time>2018-06-15T12:10:52Z</time>
      </trkpt>
      <trkpt lat="42.578654" lon="-5.533776">
        <ele>922.659</ele>
        <time>2018-06-15T12:10:54Z</time>
      </trkpt>
      <trkpt lat="42.578699" lon="-5.533825">
        <ele>922.932</ele>
        <time>2018-06-15T12:10:56Z</time>
      </trkpt>
      <trkpt lat="42.578743" lon="-5.533874">
        <ele>923.176</ele>
        <time>2018-06-15T12:10:58Z</time>
      </trkpt>
      <trkpt lat="42.578786" lon="-5.533924">
        <ele>923.245</ele>
        <time>2018-06-15T12:11:00Z</time>
      </trkpt>
      <trkpt lat="42.578833" lon="-5.533973">
        <ele>923.715</ele>
        <time>2018-06-15T12:11:02Z</time>
      </trkpt>
      <trkpt lat="42.578885" lon="-5.534018">
        <ele>924.065</ele>
        <time>2018-06-15T12:11:04Z</time>
      </trkpt>
      <trkpt lat="42.578936" lon="-5.534061">
        <ele>924.235</ele>
        <time>2018-06-15T12:11:06Z</time>
      </trkpt>
      <trkpt lat="42.578986" lon="-5.534101">
        <ele>924.382</ele>
        <time>2018-06-15T12:11:08Z</time>
      </trkpt>
      <trkpt lat="42.579036" lon="-5.534141">
        <ele>924.443</ele>
        <time>2018-06-15T12:11:10Z</time>
      </trkpt>
      <trkpt lat="42.579085" lon="-5.534180">
        <ele>924.417</ele>
        <time>2018-06-15T12:11:12Z</time>
      </trkpt>
      <trkpt lat="42.579131" lon="-5.534216">
        <ele>924.808</ele>
        <time>2018-06-15T12:11:14Z</time>
      </trkpt>
      <trkpt lat="42.579177" lon="-5.534248">
        <ele>925.150</ele>
        <time>2018-06-15T12:11:16Z</time>
      </trkpt>
      <trkpt lat="42.579223" lon="-5.534278">
        <ele>925.313</ele>
        <time>2018-06-15T12:11:18Z</time>
      </trkpt>
      <trkpt lat="42.579270" lon="-5.534308">
        <ele>925.856</ele>
        <time>2018-06-15T12:11:20Z</time>
      </trkpt>
      <trkpt lat="42.579314" lon="-5.534337">
        <ele>926.180</ele>
        <time>2018-06-15T12:11:22Z</time>
      </trkpt>
      <trkpt lat="42.579356" lon="-5.534363">
        <ele>926.789</ele>
        <time>2018-06-15T12:11:24Z</time>
      </trkpt>
      <trkpt lat="42.579398" lon="-5.534388">
        <ele>927.499</ele>
        <time>2018-06-15T12:11:26Z</time>
      </trkpt>
      <trkpt lat="42.579440" lon="-5.534413">
        <ele>928.229</ele>
        <time>2018-06-15T12:11:28Z</time>
      </trkpt>
      <trkpt lat="42.579483" lon="-5.534438">
        <ele>928.759</ele>
        <time>2018-06-15T12:11:30Z</time>
      </trkpt>
      <trkpt lat="42.579526" lon="-5.534464">
        <ele>929.413</ele>
        <time>2018-06-15T12:11:32Z</time>
      </trkpt>
      <trkpt lat="42.579568" lon="-5.534486">
        <ele>930.243</ele>
        <time>2018-06-15T12:11:34Z</time>
      </trkpt>
      <trkpt lat="42.579630" lon="-5.534513">
        <ele>931.107</ele>
        <time>2018-06-15T12:11:37Z</time>
      </trkpt>
      <trkpt lat="42.579693" lon="-5.534529">
        <ele>932.008</ele>
        <time>2018-06-15T12:11:40Z</time>
      </trkpt>
      <trkpt lat="42.579755" lon="-5.534546">
        <ele>932.643</ele>
        <time>2018-06-15T12:11:43Z</time>
      </trkpt>
      <trkpt lat="42.579818" lon="-5.534562">
        <ele>933.396</ele>
        <time>2018-06-15T12:11:46Z</time>
      </trkpt>
      <trkpt lat="42.579865" lon="-5.534575">
        <ele>933.719</ele>
        <time>2018-06-15T12:11:48Z</time>
      </trkpt>
      <trkpt lat="42.579910" lon="-5.534587">
        <ele>934.053</ele>
        <time>2018-06-15T12:11:50Z</time>
      </trkpt>
      <trkpt lat="42.579960" lon="-5.534599">
        <ele>934.242</ele>
        <time>2018-06-15T12:11:52Z</time>
      </trkpt>
      <trkpt lat="42.580013" lon="-5.534611">
        <ele>934.322</ele>
        <time>2018-06-15T12:11:54Z</time>
      </trkpt>
      <trkpt lat="42.580070" lon="-5.534621">
        <ele>934.432</ele>
        <time>2018-06-15T12:11:56Z</time>
      </trkpt>
      <trkpt lat="42.580126" lon="-5.534632">
        <ele>934.442</ele>
        <time>2018-06-15T12:11:58Z</time>
      </trkpt>
      <trkpt lat="42.580185" lon="-5.534644">
        <ele>934.898</ele>
        <time>2018-06-15T12:12:00Z</time>
      </trkpt>
      <trkpt lat="42.580248" lon="-5.534656">
        <ele>935.115</ele>
        <time>2018-06-15T12:12:02Z</time>
      </trkpt>
      <trkpt lat="42.580310" lon="-5.534667">
        <ele>935.326</ele>
        <time>2018-06-15T12:12:04Z</time>
      </trkpt>
      <trkpt lat="42.580376" lon="-5.534676">
        <ele>935.408</ele>
        <time>2018-06-15T12:12:06Z</time>
      </trkpt>
      <trkpt lat="42.580443" lon="-5.534684">
        <ele>935.511</ele>
        <time>2018-06-15T12:12:08Z</time>
      </trkpt>
      <trkpt lat="42.580514" lon="-5.534691">
        <ele>935.534</ele>
        <time>2018-06-15T12:12:10Z</time>
      </trkpt>
      <trkpt lat="42.580595" lon="-5.534698">
        <ele>935.597</ele>
        <time>2018-06-15T12:12:11Z</time>
      </trkpt>
      <trkpt lat="42.580668" lon="-5.534706">
        <ele>935.591</ele>
        <time>2018-06-15T12:12:13Z</time>
      </trkpt>
      <trkpt lat="42.580746" lon="-5.534711">
        <ele>935.590</ele>
        <time>2018-06-15T12:12:15Z</time>
      </trkpt>
      <trkpt lat="42.580830" lon="-5.534712">
        <ele>935.580</ele>
        <time>2018-06-15T12:12:17Z</time>
      </trkpt>
      <trkpt lat="42.580906" lon="-5.534710">
        <ele>935.560</ele>
        <time>2018-06-15T12:12:19Z</time>
      </trkpt>
      <trkpt lat="42.580982" lon="-5.534710">
        <ele>935.540</ele>
        <time>2018-06-15T12:12:21Z</time>
      </trkpt>
      <trkpt lat="42.581062" lon="-5.534710">
        <ele>935.547</ele>
        <time>2018-06-15T12:12:23Z</time>
      </trkpt>
      <trkpt lat="42.581141" lon="-5.534707">
        <ele>935.129</ele>
        <time>2018-06-15T12:12:25Z</time>
      </trkpt>
      <trkpt lat="42.581224" lon="-5.534706">
        <ele>934.921</ele>
        <time>2018-06-15T12:12:27Z</time>
      </trkpt>
      <trkpt lat="42.581270" lon="-5.534703">
        <ele>934.808</ele>
        <time>2018-06-15T12:12:28Z</time>
      </trkpt>
      <trkpt lat="42.581319" lon="-5.534700">
        <ele>934.726</ele>
        <time>2018-06-15T12:12:29Z</time>
      </trkpt>
      <trkpt lat="42.581371" lon="-5.534695">
        <ele>934.279</ele>
        <time>2018-06-15T12:12:30Z</time>
      </trkpt>
      <trkpt lat="42.581425" lon="-5.534694">
        <ele>933.942</ele>
        <time>2018-06-15T12:12:31Z</time>
      </trkpt>
      <trkpt lat="42.581485" lon="-5.534693">
        <ele>933.786</ele>
        <time>2018-06-15T12:12:32Z</time>
      </trkpt>
      <trkpt lat="42.581551" lon="-5.534691">
        <ele>933.225</ele>
        <time>2018-06-15T12:12:33Z</time>
      </trkpt>
      <trkpt lat="42.581619" lon="-5.534691">
        <ele>932.975</ele>
        <time>2018-06-15T12:12:34Z</time>
      </trkpt>
      <trkpt lat="42.581692" lon="-5.534689">
        <ele>932.365</ele>
        <time>2018-06-15T12:12:35Z</time>
      </trkpt>
      <trkpt lat="42.581766" lon="-5.534683">
        <ele>932.025</ele>
        <time>2018-06-15T12:12:36Z</time>
      </trkpt>
      <trkpt lat="42.581836" lon="-5.534679">
        <ele>931.866</ele>
        <time>2018-06-15T12:12:37Z</time>
      </trkpt>
      <trkpt lat="42.581896" lon="-5.534678">
        <ele>931.729</ele>
        <time>2018-06-15T12:12:38Z</time>
      </trkpt>
      <trkpt lat="42.581950" lon="-5.534679">
        <ele>931.221</ele>
        <time>2018-06-15T12:12:39Z</time>
      </trkpt>
      <trkpt lat="42.582003" lon="-5.534681">
        <ele>930.908</ele>
        <time>2018-06-15T12:12:40Z</time>
      </trkpt>
      <trkpt lat="42.582049" lon="-5.534685">
        <ele>930.728</ele>
        <time>2018-06-15T12:12:41Z</time>
      </trkpt>
      <trkpt lat="42.582123" lon="-5.534708">
        <ele>931.041</ele>
        <time>2018-06-15T12:12:43Z</time>
      </trkpt>
      <trkpt lat="42.582185" lon="-5.534729">
        <ele>931.214</ele>
        <time>2018-06-15T12:12:46Z</time>
      </trkpt>
      <trkpt lat="42.582154" lon="-5.534787">
        <ele>930.588</ele>
        <time>2018-06-15T12:12:52Z</time>
      </trkpt>
      <trkpt lat="42.582108" lon="-5.534789">
        <ele>930.147</ele>
        <time>2018-06-15T12:12:54Z</time>
      </trkpt>
      <trkpt lat="42.582057" lon="-5.534789">
        <ele>929.517</ele>
        <time>2018-06-15T12:12:56Z</time>
      </trkpt>
      <trkpt lat="42.582005" lon="-5.534791">
        <ele>929.187</ele>
        <time>2018-06-15T12:12:58Z</time>
      </trkpt>
      <trkpt lat="42.581950" lon="-5.534802">
        <ele>928.997</ele>
        <time>2018-06-15T12:13:00Z</time>
      </trkpt>
      <trkpt lat="42.581896" lon="-5.534829">
        <ele>928.823</ele>
        <time>2018-06-15T12:13:02Z</time>
      </trkpt>
      <trkpt lat="42.581849" lon="-5.534856">
        <ele>928.783</ele>
        <time>2018-06-15T12:13:04Z</time>
      </trkpt>
      <trkpt lat="42.581801" lon="-5.534889">
        <ele>928.611</ele>
        <time>2018-06-15T12:13:07Z</time>
      </trkpt>
      <trkpt lat="42.581760" lon="-5.534915">
        <ele>928.608</ele>
        <time>2018-06-15T12:13:15Z</time>
      </trkpt>
      <trkpt lat="42.581707" lon="-5.534933">
        <ele>927.844</ele>
        <time>2018-06-15T12:13:19Z</time>
      </trkpt>
      <trkpt lat="42.581659" lon="-5.534985">
        <ele>927.367</ele>
        <time>2018-06-15T12:13:22Z</time>
      </trkpt>
      <trkpt lat="42.581630" lon="-5.535048">
        <ele>926.240</ele>
        <time>2018-06-15T12:13:24Z</time>
      </trkpt>
      <trkpt lat="42.581564" lon="-5.535148">
        <ele>925.174</ele>
        <time>2018-06-15T12:13:25Z</time>
      </trkpt>
      <trkpt lat="42.581524" lon="-5.535178">
        <ele>924.523</ele>
        <time>2018-06-15T12:13:26Z</time>
      </trkpt>
      <trkpt lat="42.581482" lon="-5.535201">
        <ele>923.753</ele>
        <time>2018-06-15T12:13:27Z</time>
      </trkpt>
      <trkpt lat="42.581439" lon="-5.535252">
        <ele>922.833</ele>
        <time>2018-06-15T12:13:29Z</time>
      </trkpt>
      <trkpt lat="42.581433" lon="-5.535339">
        <ele>921.573</ele>
        <time>2018-06-15T12:13:32Z</time>
      </trkpt>
      <trkpt lat="42.581427" lon="-5.535402">
        <ele>920.339</ele>
        <time>2018-06-15T12:13:34Z</time>
      </trkpt>
      <trkpt lat="42.581416" lon="-5.535469">
        <ele>919.201</ele>
        <time>2018-06-15T12:13:36Z</time>
      </trkpt>
      <trkpt lat="42.581362" lon="-5.535615">
        <ele>918.121</ele>
        <time>2018-06-15T12:13:38Z</time>
      </trkpt>
      <trkpt lat="42.581351" lon="-5.535725">
        <ele>917.508</ele>
        <time>2018-06-15T12:13:40Z</time>
      </trkpt>
      <trkpt lat="42.581346" lon="-5.535867">
        <ele>915.995</ele>
        <time>2018-06-15T12:13:43Z</time>
      </trkpt>
      <trkpt lat="42.581336" lon="-5.535940">
        <ele>914.588</ele>
        <time>2018-06-15T12:13:45Z</time>
      </trkpt>
      <trkpt lat="42.581345" lon="-5.536101">
        <ele>913.711</ele>
        <time>2018-06-15T12:13:48Z</time>
      </trkpt>
      <trkpt lat="42.581339" lon="-5.536208">
        <ele>912.455</ele>
        <time>2018-06-15T12:13:50Z</time>
      </trkpt>
      <trkpt lat="42.581329" lon="-5.536306">
        <ele>910.824</ele>
        <time>2018-06-15T12:13:52Z</time>
      </trkpt>
      <trkpt lat="42.581327" lon="-5.536380">
        <ele>909.554</ele>
        <time>2018-06-15T12:13:54Z</time>
      </trkpt>
      <trkpt lat="42.581323" lon="-5.536441">
        <ele>908.354</ele>
        <time>2018-06-15T12:13:56Z</time>
      </trkpt>
      <trkpt lat="42.581315" lon="-5.536503">
        <ele>907.234</ele>
        <time>2018-06-15T12:13:58Z</time>
      </trkpt>
      <trkpt lat="42.581299" lon="-5.536561">
        <ele>906.194</ele>
        <time>2018-06-15T12:14:00Z</time>
      </trkpt>
      <trkpt lat="42.581273" lon="-5.536616">
        <ele>905.157</ele>
        <time>2018-06-15T12:14:02Z</time>
      </trkpt>
      <trkpt lat="42.581244" lon="-5.536678">
        <ele>903.722</ele>
        <time>2018-06-15T12:14:04Z</time>
      </trkpt>
      <trkpt lat="42.581225" lon="-5.536755">
        <ele>902.408</ele>
        <time>2018-06-15T12:14:06Z</time>
      </trkpt>
      <trkpt lat="42.581216" lon="-5.536888">
        <ele>901.651</ele>
        <time>2018-06-15T12:14:07Z</time>
      </trkpt>
      <trkpt lat="42.581231" lon="-5.536964">
        <ele>900.764</ele>
        <time>2018-06-15T12:14:10Z</time>
      </trkpt>
      <trkpt lat="42.581252" lon="-5.537043">
        <ele>899.417</ele>
        <time>2018-06-15T12:14:13Z</time>
      </trkpt>
      <trkpt lat="42.581264" lon="-5.537117">
        <ele>898.231</ele>
        <time>2018-06-15T12:14:16Z</time>
      </trkpt>
      <trkpt lat="42.581276" lon="-5.537197">
        <ele>897.140</ele>
        <time>2018-06-15T12:14:19Z</time>
      </trkpt>
      <trkpt lat="42.581289" lon="-5.537289">
        <ele>895.640</ele>
        <time>2018-06-15T12:14:22Z</time>
      </trkpt>
      <trkpt lat="42.581304" lon="-5.537354">
        <ele>894.320</ele>
        <time>2018-06-15T12:14:24Z</time>
      </trkpt>
      <trkpt lat="42.581314" lon="-5.537418">
        <ele>893.170</ele>
        <time>2018-06-15T12:14:26Z</time>
      </trkpt>
      <trkpt lat="42.581323" lon="-5.537488">
        <ele>892.051</ele>
        <time>2018-06-15T12:14:28Z</time>
      </trkpt>
      <trkpt lat="42.581332" lon="-5.537557">
        <ele>890.501</ele>
        <time>2018-06-15T12:14:30Z</time>
      </trkpt>
      <trkpt lat="42.581339" lon="-5.537627">
        <ele>889.611</ele>
        <time>2018-06-15T12:14:32Z</time>
      </trkpt>
      <trkpt lat="42.581342" lon="-5.537700">
        <ele>888.708</ele>
        <time>2018-06-15T12:14:34Z</time>
      </trkpt>
      <trkpt lat="42.581342" lon="-5.537769">
        <ele>888.157</ele>
        <time>2018-06-15T12:14:36Z</time>
      </trkpt>
      <trkpt lat="42.581341" lon="-5.537834">
        <ele>887.080</ele>
        <time>2018-06-15T12:14:38Z</time>
      </trkpt>
      <trkpt lat="42.581339" lon="-5.537897">
        <ele>886.383</ele>
        <time>2018-06-15T12:14:40Z</time>
      </trkpt>
      <trkpt lat="42.581338" lon="-5.537965">
        <ele>885.177</ele>
        <time>2018-06-15T12:14:42Z</time>
      </trkpt>
      <trkpt lat="42.581342" lon="-5.538031">
        <ele>884.016</ele>
        <time>2018-06-15T12:14:44Z</time>
      </trkpt>
      <trkpt lat="42.581352" lon="-5.538096">
        <ele>882.926</ele>
        <time>2018-06-15T12:14:46Z</time>
      </trkpt>
      <trkpt lat="42.581366" lon="-5.538159">
        <ele>881.936</ele>
        <time>2018-06-15T12:14:48Z</time>
      </trkpt>
      <trkpt lat="42.581383" lon="-5.538249">
        <ele>880.976</ele>
        <time>2018-06-15T12:14:51Z</time>
      </trkpt>
      <trkpt lat="42.581400" lon="-5.538323">
        <ele>880.375</ele>
        <time>2018-06-15T12:14:53Z</time>
      </trkpt>
      <trkpt lat="42.581424" lon="-5.538398">
        <ele>879.528</ele>
        <time>2018-06-15T12:14:55Z</time>
      </trkpt>
      <trkpt lat="42.581477" lon="-5.538563">
        <ele>878.620</ele>
        <time>2018-06-15T12:14:57Z</time>
      </trkpt>
      <trkpt lat="42.581503" lon="-5.538640">
        <ele>877.708</ele>
        <time>2018-06-15T12:15:00Z</time>
      </trkpt>
      <trkpt lat="42.581516" lon="-5.538719">
        <ele>876.339</ele>
        <time>2018-06-15T12:15:03Z</time>
      </trkpt>
      <trkpt lat="42.581524" lon="-5.538787">
        <ele>875.122</ele>
        <time>2018-06-15T12:15:05Z</time>
      </trkpt>
      <trkpt lat="42.581531" lon="-5.538870">
        <ele>874.075</ele>
        <time>2018-06-15T12:15:07Z</time>
      </trkpt>
      <trkpt lat="42.581536" lon="-5.538955">
        <ele>872.949</ele>
        <time>2018-06-15T12:15:09Z</time>
      </trkpt>
      <trkpt lat="42.581556" lon="-5.539137">
        <ele>871.978</ele>
        <time>2018-06-15T12:15:11Z</time>
      </trkpt>
      <trkpt lat="42.581565" lon="-5.539234">
        <ele>870.968</ele>
        <time>2018-06-15T12:15:13Z</time>
      </trkpt>
      <trkpt lat="42.581573" lon="-5.539316">
        <ele>869.978</ele>
        <time>2018-06-15T12:15:16Z</time>
      </trkpt>
      <trkpt lat="42.581590" lon="-5.539467">
        <ele>868.978</ele>
        <time>2018-06-15T12:15:18Z</time>
      </trkpt>
      <trkpt lat="42.581607" lon="-5.539584">
        <ele>867.943</ele>
        <time>2018-06-15T12:15:20Z</time>
      </trkpt>
      <trkpt lat="42.581626" lon="-5.539704">
        <ele>867.364</ele>
        <time>2018-06-15T12:15:22Z</time>
      </trkpt>
      <trkpt lat="42.581636" lon="-5.539772">
        <ele>866.910</ele>
        <time>2018-06-15T12:15:23Z</time>
      </trkpt>
      <trkpt lat="42.581644" lon="-5.539838">
        <ele>866.308</ele>
        <time>2018-06-15T12:15:24Z</time>
      </trkpt>
      <trkpt lat="42.581658" lon="-5.539912">
        <ele>865.986</ele>
        <time>2018-06-15T12:15:25Z</time>
      </trkpt>
      <trkpt lat="42.581672" lon="-5.539989">
        <ele>865.779</ele>
        <time>2018-06-15T12:15:26Z</time>
      </trkpt>
      <trkpt lat="42.581688" lon="-5.540070">
        <ele>865.642</ele>
        <time>2018-06-15T12:15:27Z</time>
      </trkpt>
      <trkpt lat="42.581705" lon="-5.540150">
        <ele>865.556</ele>
        <time>2018-06-15T12:15:28Z</time>
      </trkpt>
      <trkpt lat="42.581724" lon="-5.540229">
        <ele>865.585</ele>
        <time>2018-06-15T12:15:29Z</time>
      </trkpt>
      <trkpt lat="42.581745" lon="-5.540306">
        <ele>865.545</ele>
        <time>2018-06-15T12:15:30Z</time>
      </trkpt>
      <trkpt lat="42.581772" lon="-5.540378">
        <ele>865.575</ele>
        <time>2018-06-15T12:15:31Z</time>
      </trkpt>
      <trkpt lat="42.581791" lon="-5.540438">
        <ele>865.565</ele>
        <time>2018-06-15T12:15:32Z</time>
      </trkpt>
      <trkpt lat="42.581807" lon="-5.540496">
        <ele>865.569</ele>
        <time>2018-06-15T12:15:33Z</time>
      </trkpt>
      <trkpt lat="42.581823" lon="-5.540571">
        <ele>865.904</ele>
        <time>2018-06-15T12:15:35Z</time>
      </trkpt>
      <trkpt lat="42.581827" lon="-5.540662">
        <ele>866.124</ele>
        <time>2018-06-15T12:15:38Z</time>
      </trkpt>
      <trkpt lat="42.581831" lon="-5.540819">
        <ele>866.208</ele>
        <time>2018-06-15T12:15:40Z</time>
      </trkpt>
      <trkpt lat="42.581851" lon="-5.540927">
        <ele>866.398</ele>
        <time>2018-06-15T12:15:42Z</time>
      </trkpt>
      <trkpt lat="42.581875" lon="-5.541031">
        <ele>866.461</ele>
        <time>2018-06-15T12:15:44Z</time>
      </trkpt>
      <trkpt lat="42.581907" lon="-5.541122">
        <ele>866.464</ele>
        <time>2018-06-15T12:15:46Z</time>
      </trkpt>
      <trkpt lat="42.581928" lon="-5.541201">
        <ele>866.488</ele>
        <time>2018-06-15T12:15:49Z</time>
      </trkpt>
      <trkpt lat="42.581945" lon="-5.541265">
        <ele>866.437</ele>
        <time>2018-06-15T12:15:51Z</time>
      </trkpt>
      <trkpt lat="42.581967" lon="-5.541340">
        <ele>866.447</ele>
        <time>2018-06-15T12:15:53Z</time>
      </trkpt>
      <trkpt lat="42.581992" lon="-5.541417">
        <ele>866.437</ele>
        <time>2018-06-15T12:15:55Z</time>
      </trkpt>
      <trkpt lat="42.582017" lon="-5.541496">
        <ele>866.417</ele>
        <time>2018-06-15T12:15:57Z</time>
      </trkpt>
      <trkpt lat="42.582044" lon="-5.541583">
        <ele>866.499</ele>
        <time>2018-06-15T12:15:59Z</time>
      </trkpt>
      <trkpt lat="42.582070" lon="-5.541668">
        <ele>866.007</ele>
        <time>2018-06-15T12:16:01Z</time>
      </trkpt>
      <trkpt lat="42.582091" lon="-5.541750">
        <ele>865.827</ele>
        <time>2018-06-15T12:16:03Z</time>
      </trkpt>
      <trkpt lat="42.582106" lon="-5.541822">
        <ele>865.708</ele>
        <time>2018-06-15T12:16:05Z</time>
      </trkpt>
      <trkpt lat="42.582123" lon="-5.541905">
        <ele>865.651</ele>
        <time>2018-06-15T12:16:08Z</time>
      </trkpt>
      <trkpt lat="42.582138" lon="-5.541967">
        <ele>865.144</ele>
        <time>2018-06-15T12:16:19Z</time>
      </trkpt>
      <trkpt lat="42.582155" lon="-5.542027">
        <ele>864.427</ele>
        <time>2018-06-15T12:17:49Z</time>
      </trkpt>
      <trkpt lat="42.582159" lon="-5.542195">
        <ele>863.621</ele>
        <time>2018-06-15T12:17:52Z</time>
      </trkpt>
      <trkpt lat="42.582158" lon="-5.542308">
        <ele>862.750</ele>
        <time>2018-06-15T12:17:54Z</time>
      </trkpt>
      <trkpt lat="42.582158" lon="-5.542426">
        <ele>861.430</ele>
        <time>2018-06-15T12:17:56Z</time>
      </trkpt>
      <trkpt lat="42.582164" lon="-5.542542">
        <ele>860.260</ele>
        <time>2018-06-15T12:17:58Z</time>
      </trkpt>
      <trkpt lat="42.582166" lon="-5.542605">
        <ele>859.150</ele>
        <time>2018-06-15T12:17:59Z</time>
      </trkpt>
      <trkpt lat="42.582169" lon="-5.542675">
        <ele>858.491</ele>
        <time>2018-06-15T12:18:00Z</time>
      </trkpt>
      <trkpt lat="42.582165" lon="-5.542747">
        <ele>857.681</ele>
        <time>2018-06-15T12:18:01Z</time>
      </trkpt>
      <trkpt lat="42.582162" lon="-5.542824">
        <ele>856.719</ele>
        <time>2018-06-15T12:18:02Z</time>
      </trkpt>
      <trkpt lat="42.582156" lon="-5.542897">
        <ele>856.208</ele>
        <time>2018-06-15T12:18:03Z</time>
      </trkpt>
      <trkpt lat="42.582149" lon="-5.542965">
        <ele>855.571</ele>
        <time>2018-06-15T12:18:04Z</time>
      </trkpt>
      <trkpt lat="42.582136" lon="-5.543035">
        <ele>854.754</ele>
        <time>2018-06-15T12:18:05Z</time>
      </trkpt>
      <trkpt lat="42.582128" lon="-5.543109">
        <ele>854.287</ele>
        <time>2018-06-15T12:18:06Z</time>
      </trkpt>
      <trkpt lat="42.582109" lon="-5.543185">
        <ele>853.561</ele>
        <time>2018-06-15T12:18:07Z</time>
      </trkpt>
      <trkpt lat="42.582099" lon="-5.543259">
        <ele>852.780</ele>
        <time>2018-06-15T12:18:08Z</time>
      </trkpt>
      <trkpt lat="42.582087" lon="-5.543334">
        <ele>852.220</ele>
        <time>2018-06-15T12:18:09Z</time>
      </trkpt>
      <trkpt lat="42.582082" lon="-5.543413">
        <ele>851.560</ele>
        <time>2018-06-15T12:18:10Z</time>
      </trkpt>
      <trkpt lat="42.582075" lon="-5.543494">
        <ele>851.150</ele>
        <time>2018-06-15T12:18:11Z</time>
      </trkpt>
      <trkpt lat="42.582075" lon="-5.543572">
        <ele>850.429</ele>
        <time>2018-06-15T12:18:12Z</time>
      </trkpt>
      <trkpt lat="42.582078" lon="-5.543642">
        <ele>849.600</ele>
        <time>2018-06-15T12:18:13Z</time>
      </trkpt>
      <trkpt lat="42.582079" lon="-5.543712">
        <ele>849.120</ele>
        <time>2018-06-15T12:18:14Z</time>
      </trkpt>
      <trkpt lat="42.582078" lon="-5.543790">
        <ele>848.408</ele>
        <time>2018-06-15T12:18:15Z</time>
      </trkpt>
      <trkpt lat="42.582081" lon="-5.543873">
        <ele>848.064</ele>
        <time>2018-06-15T12:18:16Z</time>
      </trkpt>
      <trkpt lat="42.582086" lon="-5.543960">
        <ele>847.847</ele>
        <time>2018-06-15T12:18:17Z</time>
      </trkpt>
      <trkpt lat="42.582095" lon="-5.544045">
        <ele>847.740</ele>
        <time>2018-06-15T12:18:18Z</time>
      </trkpt>
      <trkpt lat="42.582103" lon="-5.544133">
        <ele>847.654</ele>
        <time>2018-06-15T12:18:19Z</time>
      </trkpt>
      <trkpt lat="42.582110" lon="-5.544219">
        <ele>847.153</ele>
        <time>2018-06-15T12:18:20Z</time>
      </trkpt>
      <trkpt lat="42.582117" lon="-5.544303">
        <ele>846.893</ele>
        <time>2018-06-15T12:18:21Z</time>
      </trkpt>
      <trkpt lat="42.582119" lon="-5.544385">
        <ele>846.633</ele>
        <time>2018-06-15T12:18:22Z</time>
      </trkpt>
      <trkpt lat="42.582112" lon="-5.544458">
        <ele>846.563</ele>
        <time>2018-06-15T12:18:23Z</time>
      </trkpt>
      <trkpt lat="42.582105" lon="-5.544526">
        <ele>846.469</ele>
        <time>2018-06-15T12:18:24Z</time>
      </trkpt>
      <trkpt lat="42.582104" lon="-5.544595">
        <ele>846.004</ele>
        <time>2018-06-15T12:18:25Z</time>
      </trkpt>
      <trkpt lat="42.582101" lon="-5.544666">
        <ele>845.724</ele>
        <time>2018-06-15T12:18:26Z</time>
      </trkpt>
      <trkpt lat="42.582059" lon="-5.544766">
        <ele>845.508</ele>
        <time>2018-06-15T12:18:28Z</time>
      </trkpt>
      <trkpt lat="42.581988" lon="-5.544831">
        <ele>845.498</ele>
        <time>2018-06-15T12:18:30Z</time>
      </trkpt>
      <trkpt lat="42.581921" lon="-5.544895">
        <ele>844.991</ele>
        <time>2018-06-15T12:18:32Z</time>
      </trkpt>
      <trkpt lat="42.581854" lon="-5.544963">
        <ele>844.664</ele>
        <time>2018-06-15T12:18:34Z</time>
      </trkpt>
      <trkpt lat="42.581810" lon="-5.545052">
        <ele>844.878</ele>
        <time>2018-06-15T12:18:36Z</time>
      </trkpt>
      <trkpt lat="42.581764" lon="-5.545154">
        <ele>844.947</ele>
        <time>2018-06-15T12:18:38Z</time>
      </trkpt>
      <trkpt lat="42.581748" lon="-5.545214">
        <ele>844.657</ele>
        <time>2018-06-15T12:18:39Z</time>
      </trkpt>
      <trkpt lat="42.581733" lon="-5.545272">
        <ele>844.897</ele>
        <time>2018-06-15T12:18:40Z</time>
      </trkpt>
      <trkpt lat="42.581720" lon="-5.545336">
        <ele>844.527</ele>
        <time>2018-06-15T12:18:41Z</time>
      </trkpt>
      <trkpt lat="42.581710" lon="-5.545401">
        <ele>844.372</ele>
        <time>2018-06-15T12:18:42Z</time>
      </trkpt>
      <trkpt lat="42.581699" lon="-5.545463">
        <ele>844.213</ele>
        <time>2018-06-15T12:18:43Z</time>
      </trkpt>
      <trkpt lat="42.581688" lon="-5.545524">
        <ele>844.114</ele>
        <time>2018-06-15T12:18:44Z</time>
      </trkpt>
      <trkpt lat="42.581678" lon="-5.545586">
        <ele>844.508</ele>
        <time>2018-06-15T12:18:45Z</time>
      </trkpt>
      <trkpt lat="42.581670" lon="-5.545647">
        <ele>844.789</ele>
        <time>2018-06-15T12:18:46Z</time>
      </trkpt>
      <trkpt lat="42.581662" lon="-5.545713">
        <ele>844.482</ele>
        <time>2018-06-15T12:18:47Z</time>
      </trkpt>
      <trkpt lat="42.581652" lon="-5.545774">
        <ele>844.295</ele>
        <time>2018-06-15T12:18:48Z</time>
      </trkpt>
      <trkpt lat="42.581642" lon="-5.545839">
        <ele>844.149</ele>
        <time>2018-06-15T12:18:49Z</time>
      </trkpt>
      <trkpt lat="42.581632" lon="-5.545901">
        <ele>844.438</ele>
        <time>2018-06-15T12:18:50Z</time>
      </trkpt>
      <trkpt lat="42.581619" lon="-5.545965">
        <ele>844.288</ele>
        <time>2018-06-15T12:18:51Z</time>
      </trkpt>
      <trkpt lat="42.581609" lon="-5.546032">
        <ele>844.118</ele>
        <time>2018-06-15T12:18:52Z</time>
      </trkpt>
      <trkpt lat="42.581592" lon="-5.546146">
        <ele>844.498</ele>
        <time>2018-06-15T12:18:54Z</time>
      </trkpt>
      <trkpt lat="42.581578" lon="-5.546260">
        <ele>844.683</ele>
        <time>2018-06-15T12:18:56Z</time>
      </trkpt>
      <trkpt lat="42.581560" lon="-5.546373">
        <ele>844.725</ele>
        <time>2018-06-15T12:18:58Z</time>
      </trkpt>
      <trkpt lat="42.581548" lon="-5.546485">
        <ele>844.417</ele>
        <time>2018-06-15T12:19:00Z</time>
      </trkpt>
      <trkpt lat="42.581529" lon="-5.546593">
        <ele>844.208</ele>
        <time>2018-06-15T12:19:02Z</time>
      </trkpt>
      <trkpt lat="42.581516" lon="-5.546693">
        <ele>844.190</ele>
        <time>2018-06-15T12:19:04Z</time>
      </trkpt>
      <trkpt lat="42.581507" lon="-5.546780">
        <ele>844.453</ele>
        <time>2018-06-15T12:19:07Z</time>
      </trkpt>
      <trkpt lat="42.581499" lon="-5.546848">
        <ele>844.636</ele>
        <time>2018-06-15T12:19:09Z</time>
      </trkpt>
      <trkpt lat="42.581488" lon="-5.546920">
        <ele>844.720</ele>
        <time>2018-06-15T12:19:11Z</time>
      </trkpt>
      <trkpt lat="42.581477" lon="-5.546990">
        <ele>844.819</ele>
        <time>2018-06-15T12:19:13Z</time>
      </trkpt>
      <trkpt lat="42.581467" lon="-5.547056">
        <ele>844.479</ele>
        <time>2018-06-15T12:19:15Z</time>
      </trkpt>
      <trkpt lat="42.581459" lon="-5.547118">
        <ele>844.249</ele>
        <time>2018-06-15T12:19:17Z</time>
      </trkpt>
      <trkpt lat="42.581449" lon="-5.547185">
        <ele>844.119</ele>
        <time>2018-06-15T12:19:19Z</time>
      </trkpt>
      <trkpt lat="42.581442" lon="-5.547260">
        <ele>843.634</ele>
        <time>2018-06-15T12:19:21Z</time>
      </trkpt>
      <trkpt lat="42.581438" lon="-5.547347">
        <ele>843.355</ele>
        <time>2018-06-15T12:19:23Z</time>
      </trkpt>
      <trkpt lat="42.581439" lon="-5.547437">
        <ele>842.710</ele>
        <time>2018-06-15T12:19:25Z</time>
      </trkpt>
      <trkpt lat="42.581462" lon="-5.547603">
        <ele>842.008</ele>
        <time>2018-06-15T12:19:27Z</time>
      </trkpt>
      <trkpt lat="42.581480" lon="-5.547714">
        <ele>841.685</ele>
        <time>2018-06-15T12:19:29Z</time>
      </trkpt>
      <trkpt lat="42.581496" lon="-5.547775">
        <ele>840.998</ele>
        <time>2018-06-15T12:19:30Z</time>
      </trkpt>
      <trkpt lat="42.581515" lon="-5.547842">
        <ele>840.131</ele>
        <time>2018-06-15T12:19:31Z</time>
      </trkpt>
      <trkpt lat="42.581534" lon="-5.547916">
        <ele>839.215</ele>
        <time>2018-06-15T12:19:32Z</time>
      </trkpt>
      <trkpt lat="42.581555" lon="-5.547995">
        <ele>838.764</ele>
        <time>2018-06-15T12:19:33Z</time>
      </trkpt>
      <trkpt lat="42.581575" lon="-5.548078">
        <ele>838.054</ele>
        <time>2018-06-15T12:19:34Z</time>
      </trkpt>
      <trkpt lat="42.581596" lon="-5.548162">
        <ele>837.294</ele>
        <time>2018-06-15T12:19:35Z</time>
      </trkpt>
      <trkpt lat="42.581609" lon="-5.548243">
        <ele>836.754</ele>
        <time>2018-06-15T12:19:36Z</time>
      </trkpt>
      <trkpt lat="42.581616" lon="-5.548319">
        <ele>836.499</ele>
        <time>2018-06-15T12:19:37Z</time>
      </trkpt>
      <trkpt lat="42.581626" lon="-5.548399">
        <ele>835.807</ele>
        <time>2018-06-15T12:19:38Z</time>
      </trkpt>
      <trkpt lat="42.581632" lon="-5.548487">
        <ele>835.927</ele>
        <time>2018-06-15T12:19:39Z</time>
      </trkpt>
      <trkpt lat="42.581635" lon="-5.548572">
        <ele>835.508</ele>
        <time>2018-06-15T12:19:40Z</time>
      </trkpt>
      <trkpt lat="42.581637" lon="-5.548657">
        <ele>835.331</ele>
        <time>2018-06-15T12:19:41Z</time>
      </trkpt>
      <trkpt lat="42.581633" lon="-5.548746">
        <ele>834.864</ele>
        <time>2018-06-15T12:19:42Z</time>
      </trkpt>
      <trkpt lat="42.581630" lon="-5.548835">
        <ele>834.517</ele>
        <time>2018-06-15T12:19:43Z</time>
      </trkpt>
      <trkpt lat="42.581633" lon="-5.548927">
        <ele>834.341</ele>
        <time>2018-06-15T12:19:44Z</time>
      </trkpt>
      <trkpt lat="42.581640" lon="-5.549018">
        <ele>834.280</ele>
        <time>2018-06-15T12:19:45Z</time>
      </trkpt>
      <trkpt lat="42.581638" lon="-5.549108">
        <ele>833.720</ele>
        <time>2018-06-15T12:19:46Z</time>
      </trkpt>
      <trkpt lat="42.581618" lon="-5.549194">
        <ele>833.480</ele>
        <time>2018-06-15T12:19:47Z</time>
      </trkpt>
      <trkpt lat="42.581595" lon="-5.549282">
        <ele>833.260</ele>
        <time>2018-06-15T12:19:48Z</time>
      </trkpt>
      <trkpt lat="42.581588" lon="-5.549376">
        <ele>832.723</ele>
        <time>2018-06-15T12:19:49Z</time>
      </trkpt>
      <trkpt lat="42.581584" lon="-5.549472">
        <ele>832.483</ele>
        <time>2018-06-15T12:19:50Z</time>
      </trkpt>
      <trkpt lat="42.581566" lon="-5.549563">
        <ele>831.811</ele>
        <time>2018-06-15T12:19:51Z</time>
      </trkpt>
      <trkpt lat="42.581543" lon="-5.549650">
        <ele>831.508</ele>
        <time>2018-06-15T12:19:52Z</time>
      </trkpt>
      <trkpt lat="42.581517" lon="-5.549743">
        <ele>831.364</ele>
        <time>2018-06-15T12:19:53Z</time>
      </trkpt>
      <trkpt lat="42.581492" lon="-5.549829">
        <ele>831.257</ele>
        <time>2018-06-15T12:19:54Z</time>
      </trkpt>
      <trkpt lat="42.581472" lon="-5.549918">
        <ele>830.730</ele>
        <time>2018-06-15T12:19:55Z</time>
      </trkpt>
      <trkpt lat="42.581452" lon="-5.550009">
        <ele>830.474</ele>
        <time>2018-06-15T12:19:56Z</time>
      </trkpt>
      <trkpt lat="42.581430" lon="-5.550098">
        <ele>830.223</ele>
        <time>2018-06-15T12:19:57Z</time>
      </trkpt>
      <trkpt lat="42.581404" lon="-5.550182">
        <ele>830.113</ele>
        <time>2018-06-15T12:19:58Z</time>
      </trkpt>
      <trkpt lat="42.581389" lon="-5.550273">
        <ele>830.033</ele>
        <time>2018-06-15T12:19:59Z</time>
      </trkpt>
      <trkpt lat="42.581374" lon="-5.550360">
        <ele>829.623</ele>
        <time>2018-06-15T12:20:00Z</time>
      </trkpt>
      <trkpt lat="42.581353" lon="-5.550449">
        <ele>829.342</ele>
        <time>2018-06-15T12:20:01Z</time>
      </trkpt>
      <trkpt lat="42.581335" lon="-5.550537">
        <ele>829.122</ele>
        <time>2018-06-15T12:20:02Z</time>
      </trkpt>
      <trkpt lat="42.581312" lon="-5.550625">
        <ele>829.014</ele>
        <time>2018-06-15T12:20:03Z</time>
      </trkpt>
      <trkpt lat="42.581287" lon="-5.550713">
        <ele>828.508</ele>
        <time>2018-06-15T12:20:04Z</time>
      </trkpt>
      <trkpt lat="42.581257" lon="-5.550796">
        <ele>828.646</ele>
        <time>2018-06-15T12:20:05Z</time>
      </trkpt>
      <trkpt lat="42.581230" lon="-5.550881">
        <ele>828.379</ele>
        <time>2018-06-15T12:20:06Z</time>
      </trkpt>
      <trkpt lat="42.581204" lon="-5.550963">
        <ele>828.142</ele>
        <time>2018-06-15T12:20:07Z</time>
      </trkpt>
      <trkpt lat="42.581179" lon="-5.551039">
        <ele>828.026</ele>
        <time>2018-06-15T12:20:08Z</time>
      </trkpt>
      <trkpt lat="42.581156" lon="-5.551122">
        <ele>827.525</ele>
        <time>2018-06-15T12:20:09Z</time>
      </trkpt>
      <trkpt lat="42.581134" lon="-5.551207">
        <ele>827.245</ele>
        <time>2018-06-15T12:20:10Z</time>
      </trkpt>
      <trkpt lat="42.581114" lon="-5.551290">
        <ele>827.035</ele>
        <time>2018-06-15T12:20:11Z</time>
      </trkpt>
      <trkpt lat="42.581089" lon="-5.551370">
        <ele>826.945</ele>
        <time>2018-06-15T12:20:12Z</time>
      </trkpt>
      <trkpt lat="42.581066" lon="-5.551442">
        <ele>826.482</ele>
        <time>2018-06-15T12:20:13Z</time>
      </trkpt>
      <trkpt lat="42.581051" lon="-5.551518">
        <ele>826.143</ele>
        <time>2018-06-15T12:20:14Z</time>
      </trkpt>
      <trkpt lat="42.581034" lon="-5.551587">
        <ele>825.917</ele>
        <time>2018-06-15T12:20:15Z</time>
      </trkpt>
      <trkpt lat="42.581015" lon="-5.551652">
        <ele>825.808</ele>
        <time>2018-06-15T12:20:16Z</time>
      </trkpt>
      <trkpt lat="42.581000" lon="-5.551716">
        <ele>825.330</ele>
        <time>2018-06-15T12:20:17Z</time>
      </trkpt>
      <trkpt lat="42.580988" lon="-5.551784">
        <ele>825.043</ele>
        <time>2018-06-15T12:20:18Z</time>
      </trkpt>
      <trkpt lat="42.580978" lon="-5.551851">
        <ele>824.416</ele>
        <time>2018-06-15T12:20:19Z</time>
      </trkpt>
      <trkpt lat="42.580955" lon="-5.551905">
        <ele>824.540</ele>
        <time>2018-06-15T12:20:20Z</time>
      </trkpt>
      <trkpt lat="42.580910" lon="-5.551996">
        <ele>824.579</ele>
        <time>2018-06-15T12:20:22Z</time>
      </trkpt>
      <trkpt lat="42.580889" lon="-5.552062">
        <ele>824.149</ele>
        <time>2018-06-15T12:20:24Z</time>
      </trkpt>
      <trkpt lat="42.580873" lon="-5.552121">
        <ele>823.929</ele>
        <time>2018-06-15T12:20:26Z</time>
      </trkpt>
      <trkpt lat="42.580862" lon="-5.552189">
        <ele>824.289</ele>
        <time>2018-06-15T12:20:28Z</time>
      </trkpt>
      <trkpt lat="42.580866" lon="-5.552267">
        <ele>824.073</ele>
        <time>2018-06-15T12:20:30Z</time>
      </trkpt>
      <trkpt lat="42.580893" lon="-5.552354">
        <ele>823.985</ele>
        <time>2018-06-15T12:20:32Z</time>
      </trkpt>
      <trkpt lat="42.580912" lon="-5.552522">
        <ele>823.413</ele>
        <time>2018-06-15T12:20:34Z</time>
      </trkpt>
      <trkpt lat="42.580894" lon="-5.552627">
        <ele>822.708</ele>
        <time>2018-06-15T12:20:36Z</time>
      </trkpt>
      <trkpt lat="42.580900" lon="-5.552740">
        <ele>821.949</ele>
        <time>2018-06-15T12:20:38Z</time>
      </trkpt>
      <trkpt lat="42.580914" lon="-5.552804">
        <ele>821.842</ele>
        <time>2018-06-15T12:20:39Z</time>
      </trkpt>
      <trkpt lat="42.580930" lon="-5.552862">
        <ele>821.715</ele>
        <time>2018-06-15T12:20:40Z</time>
      </trkpt>
      <trkpt lat="42.580933" lon="-5.552934">
        <ele>820.569</ele>
        <time>2018-06-15T12:20:42Z</time>
      </trkpt>
      <trkpt lat="42.580943" lon="-5.553016">
        <ele>819.848</ele>
        <time>2018-06-15T12:20:43Z</time>
      </trkpt>
      <trkpt lat="42.580959" lon="-5.553133">
        <ele>819.428</ele>
        <time>2018-06-15T12:20:45Z</time>
      </trkpt>
      <trkpt lat="42.580972" lon="-5.553211">
        <ele>819.168</ele>
        <time>2018-06-15T12:20:47Z</time>
      </trkpt>
      <trkpt lat="42.580989" lon="-5.553280">
        <ele>818.558</ele>
        <time>2018-06-15T12:20:50Z</time>
      </trkpt>
      <trkpt lat="42.581003" lon="-5.553359">
        <ele>817.498</ele>
        <time>2018-06-15T12:20:53Z</time>
      </trkpt>
      <trkpt lat="42.581014" lon="-5.553426">
        <ele>816.315</ele>
        <time>2018-06-15T12:20:55Z</time>
      </trkpt>
      <trkpt lat="42.581026" lon="-5.553485">
        <ele>814.926</ele>
        <time>2018-06-15T12:20:57Z</time>
      </trkpt>
      <trkpt lat="42.581035" lon="-5.553553">
        <ele>814.408</ele>
        <time>2018-06-15T12:20:59Z</time>
      </trkpt>
      <trkpt lat="42.581057" lon="-5.553630">
        <ele>814.181</ele>
        <time>2018-06-15T12:21:01Z</time>
      </trkpt>
      <trkpt lat="42.581079" lon="-5.553709">
        <ele>813.994</ele>
        <time>2018-06-15T12:21:03Z</time>
      </trkpt>
      <trkpt lat="42.581102" lon="-5.553788">
        <ele>813.877</ele>
        <time>2018-06-15T12:21:05Z</time>
      </trkpt>
      <trkpt lat="42.581125" lon="-5.553873">
        <ele>813.781</ele>
        <time>2018-06-15T12:21:07Z</time>
      </trkpt>
      <trkpt lat="42.581149" lon="-5.553961">
        <ele>813.760</ele>
        <time>2018-06-15T12:21:09Z</time>
      </trkpt>
      <trkpt lat="42.581173" lon="-5.554049">
        <ele>813.780</ele>
        <time>2018-06-15T12:21:11Z</time>
      </trkpt>
      <trkpt lat="42.581199" lon="-5.554139">
        <ele>813.770</ele>
        <time>2018-06-15T12:21:13Z</time>
      </trkpt>
      <trkpt lat="42.581222" lon="-5.554220">
        <ele>813.370</ele>
        <time>2018-06-15T12:21:15Z</time>
      </trkpt>
      <trkpt lat="42.581242" lon="-5.554297">
        <ele>813.114</ele>
        <time>2018-06-15T12:21:17Z</time>
      </trkpt>
      <trkpt lat="42.581264" lon="-5.554379">
        <ele>813.454</ele>
        <time>2018-06-15T12:21:19Z</time>
      </trkpt>
      <trkpt lat="42.581289" lon="-5.554460">
        <ele>813.609</ele>
        <time>2018-06-15T12:21:21Z</time>
      </trkpt>
      <trkpt lat="42.581311" lon="-5.554535">
        <ele>814.108</ele>
        <time>2018-06-15T12:21:23Z</time>
      </trkpt>
      <trkpt lat="42.581334" lon="-5.554609">
        <ele>814.813</ele>
        <time>2018-06-15T12:21:25Z</time>
      </trkpt>
      <trkpt lat="42.581354" lon="-5.554676">
        <ele>815.616</ele>
        <time>2018-06-15T12:21:27Z</time>
      </trkpt>
      <trkpt lat="42.581378" lon="-5.554748">
        <ele>817.739</ele>
        <time>2018-06-15T12:21:30Z</time>
      </trkpt>
      <trkpt lat="42.581399" lon="-5.554804">
        <ele>820.663</ele>
        <time>2018-06-15T12:21:44Z</time>
      </trkpt>
      <trkpt lat="42.581362" lon="-5.554840">
        <ele>821.132</ele>
        <time>2018-06-15T12:21:58Z</time>
      </trkpt>
      <trkpt lat="42.581391" lon="-5.554889">
        <ele>821.062</ele>
        <time>2018-06-15T12:22:05Z</time>
      </trkpt>
      <trkpt lat="42.581440" lon="-5.554899">
        <ele>821.362</ele>
        <time>2018-06-15T12:22:09Z</time>
      </trkpt>
      <trkpt lat="42.581447" lon="-5.554968">
        <ele>821.592</ele>
        <time>2018-06-15T12:22:14Z</time>
      </trkpt>
      <trkpt lat="42.581413" lon="-5.555031">
        <ele>821.296</ele>
        <time>2018-06-15T12:22:17Z</time>
      </trkpt>
      <trkpt lat="42.581374" lon="-5.555103">
        <ele>820.631</ele>
        <time>2018-06-15T12:22:20Z</time>
      </trkpt>
      <trkpt lat="42.581368" lon="-5.555176">
        <ele>819.924</ele>
        <time>2018-06-15T12:22:23Z</time>
      </trkpt>
      <trkpt lat="42.581388" lon="-5.555254">
        <ele>819.508</ele>
        <time>2018-06-15T12:22:26Z</time>
      </trkpt>
      <trkpt lat="42.581405" lon="-5.555323">
        <ele>819.241</ele>
        <time>2018-06-15T12:22:29Z</time>
      </trkpt>
      <trkpt lat="42.581433" lon="-5.555379">
        <ele>819.044</ele>
        <time>2018-06-15T12:22:32Z</time>
      </trkpt>
      <trkpt lat="42.581462" lon="-5.555429">
        <ele>818.967</ele>
        <time>2018-06-15T12:22:35Z</time>
      </trkpt>
      <trkpt lat="42.581493" lon="-5.555487">
        <ele>818.431</ele>
        <time>2018-06-15T12:22:38Z</time>
      </trkpt>
      <trkpt lat="42.581533" lon="-5.555557">
        <ele>818.170</ele>
        <time>2018-06-15T12:22:41Z</time>
      </trkpt>
      <trkpt lat="42.581563" lon="-5.555605">
        <ele>817.580</ele>
        <time>2018-06-15T12:22:43Z</time>
      </trkpt>
      <trkpt lat="42.581595" lon="-5.555664">
        <ele>817.690</ele>
        <time>2018-06-15T12:22:45Z</time>
      </trkpt>
      <trkpt lat="42.581627" lon="-5.555726">
        <ele>817.630</ele>
        <time>2018-06-15T12:22:47Z</time>
      </trkpt>
      <trkpt lat="42.581658" lon="-5.555786">
        <ele>817.694</ele>
        <time>2018-06-15T12:22:49Z</time>
      </trkpt>
      <trkpt lat="42.581686" lon="-5.555846">
        <ele>817.657</ele>
        <time>2018-06-15T12:22:51Z</time>
      </trkpt>
      <trkpt lat="42.581714" lon="-5.555906">
        <ele>817.622</ele>
        <time>2018-06-15T12:22:53Z</time>
      </trkpt>
      <trkpt lat="42.581746" lon="-5.555969">
        <ele>817.608</ele>
        <time>2018-06-15T12:22:55Z</time>
      </trkpt>
      <trkpt lat="42.581780" lon="-5.556040">
        <ele>817.651</ele>
        <time>2018-06-15T12:22:57Z</time>
      </trkpt>
      <trkpt lat="42.581815" lon="-5.556118">
        <ele>818.034</ele>
        <time>2018-06-15T12:22:59Z</time>
      </trkpt>
      <trkpt lat="42.581869" lon="-5.556237">
        <ele>818.277</ele>
        <time>2018-06-15T12:23:00Z</time>
      </trkpt>
      <trkpt lat="42.581914" lon="-5.556324">
        <ele>817.911</ele>
        <time>2018-06-15T12:23:02Z</time>
      </trkpt>
      <trkpt lat="42.581943" lon="-5.556373">
        <ele>817.750</ele>
        <time>2018-06-15T12:23:03Z</time>
      </trkpt>
      <trkpt lat="42.581979" lon="-5.556417">
        <ele>817.650</ele>
        <time>2018-06-15T12:23:04Z</time>
      </trkpt>
      <trkpt lat="42.582021" lon="-5.556447">
        <ele>817.170</ele>
        <time>2018-06-15T12:23:05Z</time>
      </trkpt>
      <trkpt lat="42.582063" lon="-5.556486">
        <ele>816.820</ele>
        <time>2018-06-15T12:23:06Z</time>
      </trkpt>
      <trkpt lat="42.582110" lon="-5.556532">
        <ele>816.665</ele>
        <time>2018-06-15T12:23:07Z</time>
      </trkpt>
      <trkpt lat="42.582154" lon="-5.556583">
        <ele>816.168</ele>
        <time>2018-06-15T12:23:08Z</time>
      </trkpt>
      <trkpt lat="42.582202" lon="-5.556625">
        <ele>815.814</ele>
        <time>2018-06-15T12:23:09Z</time>
      </trkpt>
      <trkpt lat="42.582244" lon="-5.556666">
        <ele>815.608</ele>
        <time>2018-06-15T12:23:10Z</time>
      </trkpt>
      <trkpt lat="42.582282" lon="-5.556704">
        <ele>815.538</ele>
        <time>2018-06-15T12:23:11Z</time>
      </trkpt>
      <trkpt lat="42.582329" lon="-5.556745">
        <ele>815.891</ele>
        <time>2018-06-15T12:23:13Z</time>
      </trkpt>
      <trkpt lat="42.582374" lon="-5.556768">
        <ele>815.654</ele>
        <time>2018-06-15T12:23:16Z</time>
      </trkpt>
      <trkpt lat="42.582421" lon="-5.556743">
        <ele>815.528</ele>
        <time>2018-06-15T12:23:19Z</time>
      </trkpt>
      <trkpt lat="42.582473" lon="-5.556693">
        <ele>816.257</ele>
        <time>2018-06-15T12:23:22Z</time>
      </trkpt>
      <trkpt lat="42.582528" lon="-5.556635">
        <ele>817.017</ele>
        <time>2018-06-15T12:23:25Z</time>
      </trkpt>
      <trkpt lat="42.582580" lon="-5.556582">
        <ele>817.997</ele>
        <time>2018-06-15T12:23:28Z</time>
      </trkpt>
      <trkpt lat="42.582618" lon="-5.556544">
        <ele>818.897</ele>
        <time>2018-06-15T12:23:30Z</time>
      </trkpt>
      <trkpt lat="42.582665" lon="-5.556523">
        <ele>819.861</ele>
        <time>2018-06-15T12:23:32Z</time>
      </trkpt>
      <trkpt lat="42.582728" lon="-5.556535">
        <ele>820.421</ele>
        <time>2018-06-15T12:23:35Z</time>
      </trkpt>
      <trkpt lat="42.582786" lon="-5.556574">
        <ele>820.713</ele>
        <time>2018-06-15T12:23:38Z</time>
      </trkpt>
      <trkpt lat="42.582839" lon="-5.556617">
        <ele>820.908</ele>
        <time>2018-06-15T12:23:41Z</time>
      </trkpt>
      <trkpt lat="42.582892" lon="-5.556673">
        <ele>821.078</ele>
        <time>2018-06-15T12:23:44Z</time>
      </trkpt>
      <trkpt lat="42.582931" lon="-5.556715">
        <ele>820.791</ele>
        <time>2018-06-15T12:23:46Z</time>
      </trkpt>
      <trkpt lat="42.582971" lon="-5.556756">
        <ele>820.954</ele>
        <time>2018-06-15T12:23:48Z</time>
      </trkpt>
      <trkpt lat="42.583008" lon="-5.556799">
        <ele>821.038</ele>
        <time>2018-06-15T12:23:50Z</time>
      </trkpt>
      <trkpt lat="42.583042" lon="-5.556848">
        <ele>821.167</ele>
        <time>2018-06-15T12:23:52Z</time>
      </trkpt>
      <trkpt lat="42.583080" lon="-5.556905">
        <ele>821.177</ele>
        <time>2018-06-15T12:23:54Z</time>
      </trkpt>
      <trkpt lat="42.583125" lon="-5.556959">
        <ele>821.157</ele>
        <time>2018-06-15T12:23:56Z</time>
      </trkpt>
      <trkpt lat="42.583170" lon="-5.556997">
        <ele>820.767</ele>
        <time>2018-06-15T12:23:58Z</time>
      </trkpt>
      <trkpt lat="42.583219" lon="-5.557038">
        <ele>820.534</ele>
        <time>2018-06-15T12:24:00Z</time>
      </trkpt>
      <trkpt lat="42.583265" lon="-5.557085">
        <ele>820.455</ele>
        <time>2018-06-15T12:24:02Z</time>
      </trkpt>
      <trkpt lat="42.583317" lon="-5.557138">
        <ele>820.710</ele>
        <time>2018-06-15T12:24:04Z</time>
      </trkpt>
      <trkpt lat="42.583372" lon="-5.557195">
        <ele>821.308</ele>
        <time>2018-06-15T12:24:06Z</time>
      </trkpt>
      <trkpt lat="42.583428" lon="-5.557250">
        <ele>821.755</ele>
        <time>2018-06-15T12:24:08Z</time>
      </trkpt>
      <trkpt lat="42.583480" lon="-5.557297">
        <ele>821.998</ele>
        <time>2018-06-15T12:24:10Z</time>
      </trkpt>
      <trkpt lat="42.583530" lon="-5.557343">
        <ele>822.431</ele>
        <time>2018-06-15T12:24:12Z</time>
      </trkpt>
      <trkpt lat="42.583607" lon="-5.557423">
        <ele>822.715</ele>
        <time>2018-06-15T12:24:13Z</time>
      </trkpt>
      <trkpt lat="42.583670" lon="-5.557476">
        <ele>822.984</ele>
        <time>2018-06-15T12:24:15Z</time>
      </trkpt>
      <trkpt lat="42.583719" lon="-5.557517">
        <ele>823.424</ele>
        <time>2018-06-15T12:24:17Z</time>
      </trkpt>
      <trkpt lat="42.583768" lon="-5.557555">
        <ele>824.174</ele>
        <time>2018-06-15T12:24:18Z</time>
      </trkpt>
      <trkpt lat="42.583830" lon="-5.557599">
        <ele>824.544</ele>
        <time>2018-06-15T12:24:20Z</time>
      </trkpt>
      <trkpt lat="42.583918" lon="-5.557678">
        <ele>824.433</ele>
        <time>2018-06-15T12:24:23Z</time>
      </trkpt>
      <trkpt lat="42.583978" lon="-5.557744">
        <ele>824.323</ele>
        <time>2018-06-15T12:24:25Z</time>
      </trkpt>
      <trkpt lat="42.584045" lon="-5.557802">
        <ele>824.215</ele>
        <time>2018-06-15T12:24:27Z</time>
      </trkpt>
      <trkpt lat="42.584111" lon="-5.557864">
        <ele>823.808</ele>
        <time>2018-06-15T12:24:29Z</time>
      </trkpt>
      <trkpt lat="42.584178" lon="-5.557926">
        <ele>823.575</ele>
        <time>2018-06-15T12:24:31Z</time>
      </trkpt>
      <trkpt lat="42.584250" lon="-5.557992">
        <ele>823.318</ele>
        <time>2018-06-15T12:24:33Z</time>
      </trkpt>
      <trkpt lat="42.584289" lon="-5.558024">
        <ele>823.211</ele>
        <time>2018-06-15T12:24:34Z</time>
      </trkpt>
      <trkpt lat="42.584358" lon="-5.558091">
        <ele>822.785</ele>
        <time>2018-06-15T12:24:36Z</time>
      </trkpt>
      <trkpt lat="42.584424" lon="-5.558157">
        <ele>822.454</ele>
        <time>2018-06-15T12:24:38Z</time>
      </trkpt>
      <trkpt lat="42.584485" lon="-5.558225">
        <ele>822.264</ele>
        <time>2018-06-15T12:24:40Z</time>
      </trkpt>
      <trkpt lat="42.584552" lon="-5.558288">
        <ele>822.164</ele>
        <time>2018-06-15T12:24:42Z</time>
      </trkpt>
      <trkpt lat="42.584617" lon="-5.558352">
        <ele>822.084</ele>
        <time>2018-06-15T12:24:44Z</time>
      </trkpt>
      <trkpt lat="42.584687" lon="-5.558417">
        <ele>822.021</ele>
        <time>2018-06-15T12:24:46Z</time>
      </trkpt>
      <trkpt lat="42.584737" lon="-5.558463">
        <ele>822.041</ele>
        <time>2018-06-15T12:24:48Z</time>
      </trkpt>
      <trkpt lat="42.584780" lon="-5.558508">
        <ele>822.005</ele>
        <time>2018-06-15T12:24:49Z</time>
      </trkpt>
      <trkpt lat="42.584873" lon="-5.558588">
        <ele>821.608</ele>
        <time>2018-06-15T12:24:52Z</time>
      </trkpt>
      <trkpt lat="42.584925" lon="-5.558639">
        <ele>821.424</ele>
        <time>2018-06-15T12:24:55Z</time>
      </trkpt>
      <trkpt lat="42.584971" lon="-5.558677">
        <ele>821.327</ele>
        <time>2018-06-15T12:24:57Z</time>
      </trkpt>
      <trkpt lat="42.585027" lon="-5.558712">
        <ele>821.240</ele>
        <time>2018-06-15T12:24:59Z</time>
      </trkpt>
      <trkpt lat="42.585121" lon="-5.558764">
        <ele>821.144</ele>
        <time>2018-06-15T12:25:00Z</time>
      </trkpt>
      <trkpt lat="42.585188" lon="-5.558815">
        <ele>821.193</ele>
        <time>2018-06-15T12:25:02Z</time>
      </trkpt>
      <trkpt lat="42.585259" lon="-5.558871">
        <ele>821.513</ele>
        <time>2018-06-15T12:25:04Z</time>
      </trkpt>
      <trkpt lat="42.585302" lon="-5.558910">
        <ele>822.123</ele>
        <time>2018-06-15T12:25:06Z</time>
      </trkpt>
      <trkpt lat="42.585358" lon="-5.558964">
        <ele>822.523</ele>
        <time>2018-06-15T12:25:09Z</time>
      </trkpt>
      <trkpt lat="42.585398" lon="-5.559002">
        <ele>822.376</ele>
        <time>2018-06-15T12:25:11Z</time>
      </trkpt>
      <trkpt lat="42.585440" lon="-5.559039">
        <ele>822.290</ele>
        <time>2018-06-15T12:25:13Z</time>
      </trkpt>
      <trkpt lat="42.585487" lon="-5.559084">
        <ele>822.119</ele>
        <time>2018-06-15T12:25:15Z</time>
      </trkpt>
      <trkpt lat="42.585544" lon="-5.559128">
        <ele>822.108</ele>
        <time>2018-06-15T12:25:17Z</time>
      </trkpt>
      <trkpt lat="42.585598" lon="-5.559176">
        <ele>822.139</ele>
        <time>2018-06-15T12:25:19Z</time>
      </trkpt>
      <trkpt lat="42.585706" lon="-5.559282">
        <ele>822.542</ele>
        <time>2018-06-15T12:25:21Z</time>
      </trkpt>
      <trkpt lat="42.585765" lon="-5.559340">
        <ele>822.795</ele>
        <time>2018-06-15T12:25:23Z</time>
      </trkpt>
      <trkpt lat="42.585832" lon="-5.559406">
        <ele>822.839</ele>
        <time>2018-06-15T12:25:25Z</time>
      </trkpt>
      <trkpt lat="42.585894" lon="-5.559475">
        <ele>822.928</ele>
        <time>2018-06-15T12:25:27Z</time>
      </trkpt>
      <trkpt lat="42.585962" lon="-5.559530">
        <ele>822.618</ele>
        <time>2018-06-15T12:25:29Z</time>
      </trkpt>
      <trkpt lat="42.586029" lon="-5.559595">
        <ele>822.498</ele>
        <time>2018-06-15T12:25:31Z</time>
      </trkpt>
      <trkpt lat="42.586082" lon="-5.559667">
        <ele>822.388</ele>
        <time>2018-06-15T12:25:33Z</time>
      </trkpt>
      <trkpt lat="42.586128" lon="-5.559712">
        <ele>822.628</ele>
        <time>2018-06-15T12:25:35Z</time>
      </trkpt>
      <trkpt lat="42.586167" lon="-5.559748">
        <ele>823.289</ele>
        <time>2018-06-15T12:25:37Z</time>
      </trkpt>
      <trkpt lat="42.586204" lon="-5.559799">
        <ele>823.617</ele>
        <time>2018-06-15T12:25:39Z</time>
      </trkpt>
      <trkpt lat="42.586250" lon="-5.559856">
        <ele>823.808</ele>
        <time>2018-06-15T12:25:41Z</time>
      </trkpt>
      <trkpt lat="42.586302" lon="-5.559907">
        <ele>823.534</ele>
        <time>2018-06-15T12:25:43Z</time>
      </trkpt>
      <trkpt lat="42.586359" lon="-5.559960">
        <ele>823.357</ele>
        <time>2018-06-15T12:25:45Z</time>
      </trkpt>
      <trkpt lat="42.586443" lon="-5.560038">
        <ele>823.660</ele>
        <time>2018-06-15T12:25:46Z</time>
      </trkpt>
      <trkpt lat="42.586491" lon="-5.560082">
        <ele>824.224</ele>
        <time>2018-06-15T12:25:48Z</time>
      </trkpt>
      <trkpt lat="42.586565" lon="-5.560150">
        <ele>824.523</ele>
        <time>2018-06-15T12:25:50Z</time>
      </trkpt>
      <trkpt lat="42.586624" lon="-5.560219">
        <ele>825.123</ele>
        <time>2018-06-15T12:25:52Z</time>
      </trkpt>
      <trkpt lat="42.586675" lon="-5.560279">
        <ele>825.553</ele>
        <time>2018-06-15T12:25:54Z</time>
      </trkpt>
      <trkpt lat="42.586722" lon="-5.560319">
        <ele>825.723</ele>
        <time>2018-06-15T12:25:56Z</time>
      </trkpt>
      <trkpt lat="42.586768" lon="-5.560352">
        <ele>825.859</ele>
        <time>2018-06-15T12:25:57Z</time>
      </trkpt>
      <trkpt lat="42.586828" lon="-5.560411">
        <ele>825.903</ele>
        <time>2018-06-15T12:25:59Z</time>
      </trkpt>
      <trkpt lat="42.586891" lon="-5.560467">
        <ele>825.523</ele>
        <time>2018-06-15T12:26:01Z</time>
      </trkpt>
      <trkpt lat="42.586939" lon="-5.560533">
        <ele>824.508</ele>
        <time>2018-06-15T12:26:04Z</time>
      </trkpt>
      <trkpt lat="42.586968" lon="-5.560600">
        <ele>823.937</ele>
        <time>2018-06-15T12:26:06Z</time>
      </trkpt>
      <trkpt lat="42.587011" lon="-5.560710">
        <ele>823.590</ele>
        <time>2018-06-15T12:26:07Z</time>
      </trkpt>
      <trkpt lat="42.587053" lon="-5.560793">
        <ele>823.343</ele>
        <time>2018-06-15T12:26:10Z</time>
      </trkpt>
      <trkpt lat="42.587089" lon="-5.560855">
        <ele>822.827</ele>
        <time>2018-06-15T12:26:12Z</time>
      </trkpt>
      <trkpt lat="42.587119" lon="-5.560933">
        <ele>822.196</ele>
        <time>2018-06-15T12:26:14Z</time>
      </trkpt>
      <trkpt lat="42.587155" lon="-5.561059">
        <ele>821.776</ele>
        <time>2018-06-15T12:26:15Z</time>
      </trkpt>
      <trkpt lat="42.587171" lon="-5.561161">
        <ele>821.446</ele>
        <time>2018-06-15T12:26:17Z</time>
      </trkpt>
      <trkpt lat="42.587171" lon="-5.561234">
        <ele>820.896</ele>
        <time>2018-06-15T12:26:20Z</time>
      </trkpt>
      <trkpt lat="42.587170" lon="-5.561317">
        <ele>820.522</ele>
        <time>2018-06-15T12:26:23Z</time>
      </trkpt>
      <trkpt lat="42.587185" lon="-5.561401">
        <ele>820.762</ele>
        <time>2018-06-15T12:26:30Z</time>
      </trkpt>
      <trkpt lat="42.587231" lon="-5.561409">
        <ele>820.408</ele>
        <time>2018-06-15T12:26:34Z</time>
      </trkpt>
      <trkpt lat="42.587273" lon="-5.561369">
        <ele>819.408</ele>
        <time>2018-06-15T12:26:39Z</time>
      </trkpt>
      <trkpt lat="42.587291" lon="-5.561311">
        <ele>818.494</ele>
        <time>2018-06-15T12:26:41Z</time>
      </trkpt>
      <trkpt lat="42.587321" lon="-5.561252">
        <ele>817.057</ele>
        <time>2018-06-15T12:26:43Z</time>
      </trkpt>
      <trkpt lat="42.587364" lon="-5.561199">
        <ele>815.870</ele>
        <time>2018-06-15T12:26:45Z</time>
      </trkpt>
      <trkpt lat="42.587409" lon="-5.561139">
        <ele>815.594</ele>
        <time>2018-06-15T12:26:47Z</time>
      </trkpt>
      <trkpt lat="42.587462" lon="-5.561100">
        <ele>814.933</ele>
        <time>2018-06-15T12:26:49Z</time>
      </trkpt>
      <trkpt lat="42.587516" lon="-5.561074">
        <ele>814.913</ele>
        <time>2018-06-15T12:26:51Z</time>
      </trkpt>
      <trkpt lat="42.587562" lon="-5.561068">
        <ele>814.973</ele>
        <time>2018-06-15T12:26:53Z</time>
      </trkpt>
      <trkpt lat="42.587614" lon="-5.561085">
        <ele>814.923</ele>
        <time>2018-06-15T12:26:55Z</time>
      </trkpt>
      <trkpt lat="42.587670" lon="-5.561117">
        <ele>815.334</ele>
        <time>2018-06-15T12:26:57Z</time>
      </trkpt>
      <trkpt lat="42.587728" lon="-5.561167">
        <ele>815.155</ele>
        <time>2018-06-15T12:26:59Z</time>
      </trkpt>
      <trkpt lat="42.587782" lon="-5.561224">
        <ele>814.610</ele>
        <time>2018-06-15T12:27:01Z</time>
      </trkpt>
      <trkpt lat="42.587837" lon="-5.561285">
        <ele>814.708</ele>
        <time>2018-06-15T12:27:03Z</time>
      </trkpt>
      <trkpt lat="42.587889" lon="-5.561339">
        <ele>814.825</ele>
        <time>2018-06-15T12:27:05Z</time>
      </trkpt>
      <trkpt lat="42.587940" lon="-5.561368">
        <ele>815.618</ele>
        <time>2018-06-15T12:27:07Z</time>
      </trkpt>
      <trkpt lat="42.587990" lon="-5.561395">
        <ele>816.581</ele>
        <time>2018-06-15T12:27:09Z</time>
      </trkpt>
      <trkpt lat="42.588044" lon="-5.561426">
        <ele>817.075</ele>
        <time>2018-06-15T12:27:11Z</time>
      </trkpt>
      <trkpt lat="42.588094" lon="-5.561461">
        <ele>816.944</ele>
        <time>2018-06-15T12:27:13Z</time>
      </trkpt>
      <trkpt lat="42.588145" lon="-5.561499">
        <ele>816.974</ele>
        <time>2018-06-15T12:27:15Z</time>
      </trkpt>
      <trkpt lat="42.588210" lon="-5.561540">
        <ele>817.334</ele>
        <time>2018-06-15T12:27:17Z</time>
      </trkpt>
      <trkpt lat="42.588266" lon="-5.561579">
        <ele>817.584</ele>
        <time>2018-06-15T12:27:19Z</time>
      </trkpt>
      <trkpt lat="42.588326" lon="-5.561619">
        <ele>817.627</ele>
        <time>2018-06-15T12:27:21Z</time>
      </trkpt>
      <trkpt lat="42.588381" lon="-5.561659">
        <ele>817.368</ele>
        <time>2018-06-15T12:27:23Z</time>
      </trkpt>
      <trkpt lat="42.588438" lon="-5.561703">
        <ele>817.514</ele>
        <time>2018-06-15T12:27:25Z</time>
      </trkpt>
      <trkpt lat="42.588490" lon="-5.561742">
        <ele>817.608</ele>
        <time>2018-06-15T12:27:27Z</time>
      </trkpt>
      <trkpt lat="42.588554" lon="-5.561777">
        <ele>817.394</ele>
        <time>2018-06-15T12:27:29Z</time>
      </trkpt>
      <trkpt lat="42.588621" lon="-5.561802">
        <ele>816.797</ele>
        <time>2018-06-15T12:27:31Z</time>
      </trkpt>
      <trkpt lat="42.588696" lon="-5.561815">
        <ele>816.310</ele>
        <time>2018-06-15T12:27:33Z</time>
      </trkpt>
      <trkpt lat="42.588752" lon="-5.561839">
        <ele>815.794</ele>
        <time>2018-06-15T12:27:35Z</time>
      </trkpt>
      <trkpt lat="42.588796" lon="-5.561883">
        <ele>815.313</ele>
        <time>2018-06-15T12:27:37Z</time>
      </trkpt>
      <trkpt lat="42.588825" lon="-5.561944">
        <ele>815.933</ele>
        <time>2018-06-15T12:27:39Z</time>
      </trkpt>
      <trkpt lat="42.588852" lon="-5.562020">
        <ele>817.083</ele>
        <time>2018-06-15T12:27:41Z</time>
      </trkpt>
      <trkpt lat="42.588877" lon="-5.562078">
        <ele>818.153</ele>
        <time>2018-06-15T12:27:43Z</time>
      </trkpt>
      <trkpt lat="42.588926" lon="-5.562090">
        <ele>819.298</ele>
        <time>2018-06-15T12:27:46Z</time>
      </trkpt>
      <trkpt lat="42.588987" lon="-5.562099">
        <ele>819.415</ele>
        <time>2018-06-15T12:27:50Z</time>
      </trkpt>
      <trkpt lat="42.589040" lon="-5.562121">
        <ele>819.526</ele>
        <time>2018-06-15T12:27:52Z</time>
      </trkpt>
      <trkpt lat="42.589096" lon="-5.562151">
        <ele>819.208</ele>
        <time>2018-06-15T12:27:54Z</time>
      </trkpt>
      <trkpt lat="42.589146" lon="-5.562190">
        <ele>820.271</ele>
        <time>2018-06-15T12:27:57Z</time>
      </trkpt>
      <trkpt lat="42.589195" lon="-5.562234">
        <ele>821.264</ele>
        <time>2018-06-15T12:27:59Z</time>
      </trkpt>
      <trkpt lat="42.589240" lon="-5.562282">
        <ele>821.097</ele>
        <time>2018-06-15T12:28:01Z</time>
      </trkpt>
      <trkpt lat="42.589286" lon="-5.562319">
        <ele>820.521</ele>
        <time>2018-06-15T12:28:03Z</time>
      </trkpt>
      <trkpt lat="42.589343" lon="-5.562351">
        <ele>820.640</ele>
        <time>2018-06-15T12:28:05Z</time>
      </trkpt>
      <trkpt lat="42.589394" lon="-5.562379">
        <ele>820.750</ele>
        <time>2018-06-15T12:28:07Z</time>
      </trkpt>
      <trkpt lat="42.589441" lon="-5.562407">
        <ele>824.720</ele>
        <time>2018-06-15T12:28:09Z</time>
      </trkpt>
      <trkpt lat="42.589489" lon="-5.562434">
        <ele>828.740</ele>
        <time>2018-06-15T12:28:11Z</time>
      </trkpt>
      <trkpt lat="42.589541" lon="-5.562461">
        <ele>832.324</ele>
        <time>2018-06-15T12:28:13Z</time>
      </trkpt>
      <trkpt lat="42.589591" lon="-5.562479">
        <ele>832.504</ele>
        <time>2018-06-15T12:28:18Z</time>
      </trkpt>
      <trkpt lat="42.589643" lon="-5.562491">
        <ele>831.414</ele>
        <time>2018-06-15T12:28:22Z</time>
      </trkpt>
      <trkpt lat="42.589709" lon="-5.562519">
        <ele>830.708</ele>
        <time>2018-06-15T12:28:25Z</time>
      </trkpt>
      <trkpt lat="42.589776" lon="-5.562554">
        <ele>830.374</ele>
        <time>2018-06-15T12:28:27Z</time>
      </trkpt>
      <trkpt lat="42.589829" lon="-5.562582">
        <ele>830.967</ele>
        <time>2018-06-15T12:28:29Z</time>
      </trkpt>
      <trkpt lat="42.589896" lon="-5.562612">
        <ele>832.890</ele>
        <time>2018-06-15T12:28:32Z</time>
      </trkpt>
      <trkpt lat="42.589972" lon="-5.562642">
        <ele>833.214</ele>
        <time>2018-06-15T12:28:34Z</time>
      </trkpt>
      <trkpt lat="42.590053" lon="-5.562671">
        <ele>832.653</ele>
        <time>2018-06-15T12:28:36Z</time>
      </trkpt>
      <trkpt lat="42.590116" lon="-5.562708">
        <ele>831.513</ele>
        <time>2018-06-15T12:28:38Z</time>
      </trkpt>
      <trkpt lat="42.590175" lon="-5.562753">
        <ele>830.833</ele>
        <time>2018-06-15T12:28:40Z</time>
      </trkpt>
      <trkpt lat="42.590237" lon="-5.562796">
        <ele>830.013</ele>
        <time>2018-06-15T12:28:42Z</time>
      </trkpt>
      <trkpt lat="42.590302" lon="-5.562840">
        <ele>829.537</ele>
        <time>2018-06-15T12:28:44Z</time>
      </trkpt>
      <trkpt lat="42.590360" lon="-5.562879">
        <ele>829.649</ele>
        <time>2018-06-15T12:28:46Z</time>
      </trkpt>
      <trkpt lat="42.590405" lon="-5.562904">
        <ele>828.913</ele>
        <time>2018-06-15T12:28:48Z</time>
      </trkpt>
      <trkpt lat="42.590457" lon="-5.562940">
        <ele>830.108</ele>
        <time>2018-06-15T12:28:51Z</time>
      </trkpt>
      <trkpt lat="42.590487" lon="-5.563003">
        <ele>832.055</ele>
        <time>2018-06-15T12:28:54Z</time>
      </trkpt>
      <trkpt lat="42.590497" lon="-5.563084">
        <ele>832.318</ele>
        <time>2018-06-15T12:28:56Z</time>
      </trkpt>
      <trkpt lat="42.590499" lon="-5.563164">
        <ele>831.791</ele>
        <time>2018-06-15T12:28:59Z</time>
      </trkpt>
      <trkpt lat="42.590519" lon="-5.563237">
        <ele>830.515</ele>
        <time>2018-06-15T12:29:02Z</time>
      </trkpt>
      <trkpt lat="42.590555" lon="-5.563292">
        <ele>830.634</ele>
        <time>2018-06-15T12:29:04Z</time>
      </trkpt>
      <trkpt lat="42.590609" lon="-5.563371">
        <ele>830.734</ele>
        <time>2018-06-15T12:29:06Z</time>
      </trkpt>
      <trkpt lat="42.590662" lon="-5.563443">
        <ele>830.714</ele>
        <time>2018-06-15T12:29:08Z</time>
      </trkpt>
      <trkpt lat="42.590722" lon="-5.563530">
        <ele>830.384</ele>
        <time>2018-06-15T12:29:10Z</time>
      </trkpt>
      <trkpt lat="42.590766" lon="-5.563605">
        <ele>829.364</ele>
        <time>2018-06-15T12:29:12Z</time>
      </trkpt>
      <trkpt lat="42.590789" lon="-5.563658">
        <ele>827.906</ele>
        <time>2018-06-15T12:29:13Z</time>
      </trkpt>
      <trkpt lat="42.590820" lon="-5.563737">
        <ele>826.316</ele>
        <time>2018-06-15T12:29:15Z</time>
      </trkpt>
      <trkpt lat="42.590853" lon="-5.563797">
        <ele>824.908</ele>
        <time>2018-06-15T12:29:17Z</time>
      </trkpt>
      <trkpt lat="42.590881" lon="-5.563854">
        <ele>823.358</ele>
        <time>2018-06-15T12:29:19Z</time>
      </trkpt>
      <trkpt lat="42.590926" lon="-5.563913">
        <ele>823.141</ele>
        <time>2018-06-15T12:29:21Z</time>
      </trkpt>
      <trkpt lat="42.590965" lon="-5.563978">
        <ele>822.664</ele>
        <time>2018-06-15T12:29:23Z</time>
      </trkpt>
      <trkpt lat="42.591004" lon="-5.564038">
        <ele>822.318</ele>
        <time>2018-06-15T12:29:25Z</time>
      </trkpt>
      <trkpt lat="42.591040" lon="-5.564093">
        <ele>822.167</ele>
        <time>2018-06-15T12:29:27Z</time>
      </trkpt>
      <trkpt lat="42.591079" lon="-5.564144">
        <ele>822.417</ele>
        <time>2018-06-15T12:29:29Z</time>
      </trkpt>
      <trkpt lat="42.591111" lon="-5.564199">
        <ele>822.647</ele>
        <time>2018-06-15T12:29:31Z</time>
      </trkpt>
      <trkpt lat="42.591145" lon="-5.564251">
        <ele>822.747</ele>
        <time>2018-06-15T12:29:33Z</time>
      </trkpt>
      <trkpt lat="42.591173" lon="-5.564331">
        <ele>822.047</ele>
        <time>2018-06-15T12:29:36Z</time>
      </trkpt>
      <trkpt lat="42.591201" lon="-5.564402">
        <ele>821.629</ele>
        <time>2018-06-15T12:29:39Z</time>
      </trkpt>
      <trkpt lat="42.591243" lon="-5.564473">
        <ele>821.721</ele>
        <time>2018-06-15T12:29:42Z</time>
      </trkpt>
      <trkpt lat="42.591272" lon="-5.564524">
        <ele>821.408</ele>
        <time>2018-06-15T12:29:44Z</time>
      </trkpt>
      <trkpt lat="42.591314" lon="-5.564596">
        <ele>820.436</ele>
        <time>2018-06-15T12:29:47Z</time>
      </trkpt>
      <trkpt lat="42.591336" lon="-5.564651">
        <ele>819.459</ele>
        <time>2018-06-15T12:29:49Z</time>
      </trkpt>
      <trkpt lat="42.591363" lon="-5.564720">
        <ele>818.442</ele>
        <time>2018-06-15T12:29:52Z</time>
      </trkpt>
      <trkpt lat="42.591387" lon="-5.564780">
        <ele>817.896</ele>
        <time>2018-06-15T12:29:55Z</time>
      </trkpt>
      <trkpt lat="42.591422" lon="-5.564845">
        <ele>816.665</ele>
        <time>2018-06-15T12:29:59Z</time>
      </trkpt>
      <trkpt lat="42.591456" lon="-5.564896">
        <ele>816.395</ele>
        <time>2018-06-15T12:30:02Z</time>
      </trkpt>
      <trkpt lat="42.591495" lon="-5.564960">
        <ele>816.585</ele>
        <time>2018-06-15T12:30:05Z</time>
      </trkpt>
      <trkpt lat="42.591534" lon="-5.565035">
        <ele>816.285</ele>
        <time>2018-06-15T12:30:08Z</time>
      </trkpt>
      <trkpt lat="42.591573" lon="-5.565098">
        <ele>815.693</ele>
        <time>2018-06-15T12:30:11Z</time>
      </trkpt>
      <trkpt lat="42.591620" lon="-5.565152">
        <ele>816.565</ele>
        <time>2018-06-15T12:30:13Z</time>
      </trkpt>
      <trkpt lat="42.591664" lon="-5.565195">
        <ele>817.421</ele>
        <time>2018-06-15T12:30:15Z</time>
      </trkpt>
      <trkpt lat="42.591742" lon="-5.565244">
        <ele>821.408</ele>
        <time>2018-06-15T12:30:57Z</time>
      </trkpt>
      <trkpt lat="42.591796" lon="-5.565227">
        <ele>825.291</ele>
        <time>2018-06-15T12:31:07Z</time>
      </trkpt>
      <trkpt lat="42.591849" lon="-5.565225">
        <ele>828.354</ele>
        <time>2018-06-15T12:31:11Z</time>
      </trkpt>
      <trkpt lat="42.591893" lon="-5.565249">
        <ele>832.317</ele>
        <time>2018-06-15T12:31:18Z</time>
      </trkpt>
      <trkpt lat="42.591933" lon="-5.565291">
        <ele>835.781</ele>
        <time>2018-06-15T12:31:24Z</time>
      </trkpt>
      <trkpt lat="42.591978" lon="-5.565329">
        <ele>838.230</ele>
        <time>2018-06-15T12:31:29Z</time>
      </trkpt>
      <trkpt lat="42.592021" lon="-5.565367">
        <ele>840.590</ele>
        <time>2018-06-15T12:31:33Z</time>
      </trkpt>
      <trkpt lat="42.592053" lon="-5.565426">
        <ele>840.730</ele>
        <time>2018-06-15T12:31:38Z</time>
      </trkpt>
      <trkpt lat="42.592087" lon="-5.565499">
        <ele>841.660</ele>
        <time>2018-06-15T12:31:41Z</time>
      </trkpt>
      <trkpt lat="42.592114" lon="-5.565579">
        <ele>840.931</ele>
        <time>2018-06-15T12:31:44Z</time>
      </trkpt>
      <trkpt lat="42.592124" lon="-5.565664">
        <ele>837.361</ele>
        <time>2018-06-15T12:31:47Z</time>
      </trkpt>
      <trkpt lat="42.592135" lon="-5.565733">
        <ele>835.507</ele>
        <time>2018-06-15T12:31:49Z</time>
      </trkpt>
      <trkpt lat="42.592158" lon="-5.565805">
        <ele>834.808</ele>
        <time>2018-06-15T12:31:51Z</time>
      </trkpt>
      <trkpt lat="42.592179" lon="-5.565873">
        <ele>834.035</ele>
        <time>2018-06-15T12:31:53Z</time>
      </trkpt>
      <trkpt lat="42.592198" lon="-5.565931">
        <ele>833.188</ele>
        <time>2018-06-15T12:31:55Z</time>
      </trkpt>
      <trkpt lat="42.592228" lon="-5.565991">
        <ele>832.241</ele>
        <time>2018-06-15T12:31:57Z</time>
      </trkpt>
      <trkpt lat="42.592268" lon="-5.566061">
        <ele>832.015</ele>
        <time>2018-06-15T12:31:59Z</time>
      </trkpt>
      <trkpt lat="42.592299" lon="-5.566134">
        <ele>831.974</ele>
        <time>2018-06-15T12:32:01Z</time>
      </trkpt>
      <trkpt lat="42.592343" lon="-5.566200">
        <ele>832.294</ele>
        <time>2018-06-15T12:32:03Z</time>
      </trkpt>
      <trkpt lat="42.592392" lon="-5.566257">
        <ele>832.054</ele>
        <time>2018-06-15T12:32:05Z</time>
      </trkpt>
      <trkpt lat="42.592443" lon="-5.566316">
        <ele>832.334</ele>
        <time>2018-06-15T12:32:07Z</time>
      </trkpt>
      <trkpt lat="42.592500" lon="-5.566372">
        <ele>832.551</ele>
        <time>2018-06-15T12:32:09Z</time>
      </trkpt>
      <trkpt lat="42.592539" lon="-5.566412">
        <ele>833.001</ele>
        <time>2018-06-15T12:32:11Z</time>
      </trkpt>
      <trkpt lat="42.592652" lon="-5.566573">
        <ele>832.911</ele>
        <time>2018-06-15T12:32:13Z</time>
      </trkpt>
      <trkpt lat="42.592689" lon="-5.566659">
        <ele>833.208</ele>
        <time>2018-06-15T12:32:16Z</time>
      </trkpt>
      <trkpt lat="42.592723" lon="-5.566751">
        <ele>833.837</ele>
        <time>2018-06-15T12:32:18Z</time>
      </trkpt>
      <trkpt lat="42.592758" lon="-5.566812">
        <ele>834.240</ele>
        <time>2018-06-15T12:32:20Z</time>
      </trkpt>
      <trkpt lat="42.592809" lon="-5.566846">
        <ele>834.093</ele>
        <time>2018-06-15T12:32:22Z</time>
      </trkpt>
      <trkpt lat="42.592855" lon="-5.566870">
        <ele>833.177</ele>
        <time>2018-06-15T12:32:24Z</time>
      </trkpt>
      <trkpt lat="42.592905" lon="-5.566925">
        <ele>832.666</ele>
        <time>2018-06-15T12:32:27Z</time>
      </trkpt>
      <trkpt lat="42.592937" lon="-5.566974">
        <ele>833.136</ele>
        <time>2018-06-15T12:32:29Z</time>
      </trkpt>
      <trkpt lat="42.592968" lon="-5.567028">
        <ele>833.426</ele>
        <time>2018-06-15T12:32:31Z</time>
      </trkpt>
      <trkpt lat="42.593011" lon="-5.567081">
        <ele>833.666</ele>
        <time>2018-06-15T12:32:33Z</time>
      </trkpt>
      <trkpt lat="42.593054" lon="-5.567127">
        <ele>834.116</ele>
        <time>2018-06-15T12:32:35Z</time>
      </trkpt>
      <trkpt lat="42.593101" lon="-5.567172">
        <ele>834.876</ele>
        <time>2018-06-15T12:32:37Z</time>
      </trkpt>
      <trkpt lat="42.593144" lon="-5.567219">
        <ele>835.613</ele>
        <time>2018-06-15T12:32:39Z</time>
      </trkpt>
      <trkpt lat="42.593189" lon="-5.567273">
        <ele>836.108</ele>
        <time>2018-06-15T12:32:41Z</time>
      </trkpt>
      <trkpt lat="42.593234" lon="-5.567329">
        <ele>836.873</ele>
        <time>2018-06-15T12:32:43Z</time>
      </trkpt>
      <trkpt lat="42.593279" lon="-5.567385">
        <ele>838.036</ele>
        <time>2018-06-15T12:32:45Z</time>
      </trkpt>
      <trkpt lat="42.593319" lon="-5.567442">
        <ele>838.759</ele>
        <time>2018-06-15T12:32:47Z</time>
      </trkpt>
      <trkpt lat="42.593357" lon="-5.567528">
        <ele>839.113</ele>
        <time>2018-06-15T12:32:50Z</time>
      </trkpt>
      <trkpt lat="42.593384" lon="-5.567610">
        <ele>839.482</ele>
        <time>2018-06-15T12:32:52Z</time>
      </trkpt>
      <trkpt lat="42.593407" lon="-5.567671">
        <ele>840.042</ele>
        <time>2018-06-15T12:32:54Z</time>
      </trkpt>
      <trkpt lat="42.593457" lon="-5.567708">
        <ele>839.932</ele>
        <time>2018-06-15T12:32:57Z</time>
      </trkpt>
      <trkpt lat="42.593511" lon="-5.567761">
        <ele>839.132</ele>
        <time>2018-06-15T12:33:00Z</time>
      </trkpt>
      <trkpt lat="42.593550" lon="-5.567812">
        <ele>838.214</ele>
        <time>2018-06-15T12:33:02Z</time>
      </trkpt>
      <trkpt lat="42.593587" lon="-5.567861">
        <ele>837.354</ele>
        <time>2018-06-15T12:33:04Z</time>
      </trkpt>
      <trkpt lat="42.593628" lon="-5.567912">
        <ele>836.309</ele>
        <time>2018-06-15T12:33:06Z</time>
      </trkpt>
      <trkpt lat="42.593662" lon="-5.567965">
        <ele>835.708</ele>
        <time>2018-06-15T12:33:08Z</time>
      </trkpt>
      <trkpt lat="42.593692" lon="-5.568011">
        <ele>835.023</ele>
        <time>2018-06-15T12:33:10Z</time>
      </trkpt>
      <trkpt lat="42.593732" lon="-5.568047">
        <ele>832.216</ele>
        <time>2018-06-15T12:33:15Z</time>
      </trkpt>
      <trkpt lat="42.593779" lon="-5.568090">
        <ele>830.129</ele>
        <time>2018-06-15T12:33:18Z</time>
      </trkpt>
      <trkpt lat="42.593819" lon="-5.568134">
        <ele>828.483</ele>
        <time>2018-06-15T12:33:20Z</time>
      </trkpt>
      <trkpt lat="42.593862" lon="-5.568177">
        <ele>827.042</ele>
        <time>2018-06-15T12:33:22Z</time>
      </trkpt>
      <trkpt lat="42.593905" lon="-5.568221">
        <ele>826.612</ele>
        <time>2018-06-15T12:33:24Z</time>
      </trkpt>
      <trkpt lat="42.593951" lon="-5.568267">
        <ele>826.772</ele>
        <time>2018-06-15T12:33:26Z</time>
      </trkpt>
      <trkpt lat="42.594005" lon="-5.568316">
        <ele>826.842</ele>
        <time>2018-06-15T12:33:28Z</time>
      </trkpt>
      <trkpt lat="42.594054" lon="-5.568361">
        <ele>826.898</ele>
        <time>2018-06-15T12:33:30Z</time>
      </trkpt>
      <trkpt lat="42.594106" lon="-5.568402">
        <ele>827.215</ele>
        <time>2018-06-15T12:33:32Z</time>
      </trkpt>
      <trkpt lat="42.594154" lon="-5.568446">
        <ele>827.926</ele>
        <time>2018-06-15T12:33:34Z</time>
      </trkpt>
      <trkpt lat="42.594197" lon="-5.568491">
        <ele>827.908</ele>
        <time>2018-06-15T12:33:36Z</time>
      </trkpt>
      <trkpt lat="42.594236" lon="-5.568532">
        <ele>827.941</ele>
        <time>2018-06-15T12:33:38Z</time>
      </trkpt>
      <trkpt lat="42.594288" lon="-5.568580">
        <ele>828.374</ele>
        <time>2018-06-15T12:33:41Z</time>
      </trkpt>
      <trkpt lat="42.594336" lon="-5.568624">
        <ele>828.567</ele>
        <time>2018-06-15T12:33:43Z</time>
      </trkpt>
      <trkpt lat="42.594385" lon="-5.568680">
        <ele>828.651</ele>
        <time>2018-06-15T12:33:45Z</time>
      </trkpt>
      <trkpt lat="42.594431" lon="-5.568734">
        <ele>828.770</ele>
        <time>2018-06-15T12:33:47Z</time>
      </trkpt>
      <trkpt lat="42.594473" lon="-5.568785">
        <ele>828.830</ele>
        <time>2018-06-15T12:33:49Z</time>
      </trkpt>
      <trkpt lat="42.594510" lon="-5.568831">
        <ele>830.440</ele>
        <time>2018-06-15T12:33:51Z</time>
      </trkpt>
      <trkpt lat="42.594557" lon="-5.568879">
        <ele>831.410</ele>
        <time>2018-06-15T12:33:54Z</time>
      </trkpt>
      <trkpt lat="42.594611" lon="-5.568927">
        <ele>832.017</ele>
        <time>2018-06-15T12:33:57Z</time>
      </trkpt>
      <trkpt lat="42.594656" lon="-5.568965">
        <ele>832.887</ele>
        <time>2018-06-15T12:33:59Z</time>
      </trkpt>
      <trkpt lat="42.594699" lon="-5.569000">
        <ele>832.915</ele>
        <time>2018-06-15T12:34:01Z</time>
      </trkpt>
      <trkpt lat="42.594750" lon="-5.569044">
        <ele>832.508</ele>
        <time>2018-06-15T12:34:04Z</time>
      </trkpt>
      <trkpt lat="42.594792" lon="-5.569084">
        <ele>831.913</ele>
        <time>2018-06-15T12:34:06Z</time>
      </trkpt>
      <trkpt lat="42.594835" lon="-5.569125">
        <ele>831.926</ele>
        <time>2018-06-15T12:34:08Z</time>
      </trkpt>
      <trkpt lat="42.594887" lon="-5.569155">
        <ele>831.999</ele>
        <time>2018-06-15T12:34:10Z</time>
      </trkpt>
      <trkpt lat="42.594926" lon="-5.569192">
        <ele>831.533</ele>
        <time>2018-06-15T12:34:12Z</time>
      </trkpt>
      <trkpt lat="42.594962" lon="-5.569231">
        <ele>831.322</ele>
        <time>2018-06-15T12:34:14Z</time>
      </trkpt>
      <trkpt lat="42.595008" lon="-5.569275">
        <ele>831.632</ele>
        <time>2018-06-15T12:34:16Z</time>
      </trkpt>
      <trkpt lat="42.595049" lon="-5.569325">
        <ele>831.842</ele>
        <time>2018-06-15T12:34:18Z</time>
      </trkpt>
      <trkpt lat="42.595088" lon="-5.569382">
        <ele>831.912</ele>
        <time>2018-06-15T12:34:20Z</time>
      </trkpt>
      <trkpt lat="42.595130" lon="-5.569427">
        <ele>831.651</ele>
        <time>2018-06-15T12:34:22Z</time>
      </trkpt>
      <trkpt lat="42.595175" lon="-5.569459">
        <ele>831.401</ele>
        <time>2018-06-15T12:34:24Z</time>
      </trkpt>
      <trkpt lat="42.595213" lon="-5.569495">
        <ele>831.311</ele>
        <time>2018-06-15T12:34:26Z</time>
      </trkpt>
      <trkpt lat="42.595269" lon="-5.569549">
        <ele>832.008</ele>
        <time>2018-06-15T12:34:29Z</time>
      </trkpt>
      <trkpt lat="42.595317" lon="-5.569582">
        <ele>832.077</ele>
        <time>2018-06-15T12:34:31Z</time>
      </trkpt>
      <trkpt lat="42.595366" lon="-5.569611">
        <ele>832.030</ele>
        <time>2018-06-15T12:34:33Z</time>
      </trkpt>
      <trkpt lat="42.595422" lon="-5.569642">
        <ele>832.093</ele>
        <time>2018-06-15T12:34:35Z</time>
      </trkpt>
      <trkpt lat="42.595482" lon="-5.569669">
        <ele>832.047</ele>
        <time>2018-06-15T12:34:37Z</time>
      </trkpt>
      <trkpt lat="42.595539" lon="-5.569686">
        <ele>831.276</ele>
        <time>2018-06-15T12:34:39Z</time>
      </trkpt>
      <trkpt lat="42.595591" lon="-5.569694">
        <ele>831.546</ele>
        <time>2018-06-15T12:34:41Z</time>
      </trkpt>
      <trkpt lat="42.595642" lon="-5.569698">
        <ele>832.156</ele>
        <time>2018-06-15T12:34:43Z</time>
      </trkpt>
      <trkpt lat="42.595690" lon="-5.569701">
        <ele>833.756</ele>
        <time>2018-06-15T12:34:45Z</time>
      </trkpt>
      <trkpt lat="42.595735" lon="-5.569706">
        <ele>834.628</ele>
        <time>2018-06-15T12:34:47Z</time>
      </trkpt>
      <trkpt lat="42.595780" lon="-5.569718">
        <ele>835.689</ele>
        <time>2018-06-15T12:34:49Z</time>
      </trkpt>
      <trkpt lat="42.595826" lon="-5.569718">
        <ele>836.617</ele>
        <time>2018-06-15T12:34:51Z</time>
      </trkpt>
      <trkpt lat="42.595885" lon="-5.569736">
        <ele>838.408</ele>
        <time>2018-06-15T12:34:54Z</time>
      </trkpt>
      <trkpt lat="42.595940" lon="-5.569764">
        <ele>839.144</ele>
        <time>2018-06-15T12:34:57Z</time>
      </trkpt>
      <trkpt lat="42.595997" lon="-5.569795">
        <ele>838.727</ele>
        <time>2018-06-15T12:35:00Z</time>
      </trkpt>
      <trkpt lat="42.596060" lon="-5.569810">
        <ele>838.130</ele>
        <time>2018-06-15T12:35:03Z</time>
      </trkpt>
      <trkpt lat="42.596106" lon="-5.569825">
        <ele>838.144</ele>
        <time>2018-06-15T12:35:06Z</time>
      </trkpt>
      <trkpt lat="42.596163" lon="-5.569857">
        <ele>838.543</ele>
        <time>2018-06-15T12:35:10Z</time>
      </trkpt>
      <trkpt lat="42.596225" lon="-5.569878">
        <ele>839.183</ele>
        <time>2018-06-15T12:35:13Z</time>
      </trkpt>
      <trkpt lat="42.596269" lon="-5.569895">
        <ele>839.523</ele>
        <time>2018-06-15T12:35:15Z</time>
      </trkpt>
      <trkpt lat="42.596316" lon="-5.569913">
        <ele>840.113</ele>
        <time>2018-06-15T12:35:17Z</time>
      </trkpt>
      <trkpt lat="42.596366" lon="-5.569931">
        <ele>841.316</ele>
        <time>2018-06-15T12:35:19Z</time>
      </trkpt>
      <trkpt lat="42.596425" lon="-5.569948">
        <ele>842.476</ele>
        <time>2018-06-15T12:35:22Z</time>
      </trkpt>
      <trkpt lat="42.596476" lon="-5.569954">
        <ele>843.513</ele>
        <time>2018-06-15T12:35:25Z</time>
      </trkpt>
      <trkpt lat="42.596523" lon="-5.569944">
        <ele>842.908</ele>
        <time>2018-06-15T12:35:27Z</time>
      </trkpt>
      <trkpt lat="42.596585" lon="-5.569937">
        <ele>842.283</ele>
        <time>2018-06-15T12:35:30Z</time>
      </trkpt>
      <trkpt lat="42.596635" lon="-5.569931">
        <ele>841.446</ele>
        <time>2018-06-15T12:35:33Z</time>
      </trkpt>
      <trkpt lat="42.596687" lon="-5.569911">
        <ele>838.519</ele>
        <time>2018-06-15T12:35:36Z</time>
      </trkpt>
      <trkpt lat="42.596739" lon="-5.569902">
        <ele>836.463</ele>
        <time>2018-06-15T12:35:39Z</time>
      </trkpt>
      <trkpt lat="42.596791" lon="-5.569905">
        <ele>835.942</ele>
        <time>2018-06-15T12:35:42Z</time>
      </trkpt>
      <trkpt lat="42.596841" lon="-5.569956">
        <ele>835.632</ele>
        <time>2018-06-15T12:35:45Z</time>
      </trkpt>
      <trkpt lat="42.596895" lon="-5.569975">
        <ele>834.242</ele>
        <time>2018-06-15T12:35:48Z</time>
      </trkpt>
      <trkpt lat="42.596941" lon="-5.569980">
        <ele>833.892</ele>
        <time>2018-06-15T12:35:50Z</time>
      </trkpt>
      <trkpt lat="42.596990" lon="-5.569984">
        <ele>833.575</ele>
        <time>2018-06-15T12:35:52Z</time>
      </trkpt>
      <trkpt lat="42.597051" lon="-5.569997">
        <ele>832.928</ele>
        <time>2018-06-15T12:35:55Z</time>
      </trkpt>
      <trkpt lat="42.597097" lon="-5.569998">
        <ele>832.620</ele>
        <time>2018-06-15T12:35:58Z</time>
      </trkpt>
      <trkpt lat="42.597161" lon="-5.570011">
        <ele>832.408</ele>
        <time>2018-06-15T12:36:01Z</time>
      </trkpt>
      <trkpt lat="42.597222" lon="-5.570021">
        <ele>831.979</ele>
        <time>2018-06-15T12:36:04Z</time>
      </trkpt>
      <trkpt lat="42.597271" lon="-5.570027">
        <ele>832.052</ele>
        <time>2018-06-15T12:36:06Z</time>
      </trkpt>
      <trkpt lat="42.597316" lon="-5.570043">
        <ele>832.165</ele>
        <time>2018-06-15T12:36:08Z</time>
      </trkpt>
      <trkpt lat="42.597381" lon="-5.570060">
        <ele>832.599</ele>
        <time>2018-06-15T12:36:11Z</time>
      </trkpt>
      <trkpt lat="42.597442" lon="-5.570076">
        <ele>832.848</ele>
        <time>2018-06-15T12:36:14Z</time>
      </trkpt>
      <trkpt lat="42.597487" lon="-5.570095">
        <ele>833.898</ele>
        <time>2018-06-15T12:36:16Z</time>
      </trkpt>
      <trkpt lat="42.597548" lon="-5.570130">
        <ele>835.648</ele>
        <time>2018-06-15T12:36:19Z</time>
      </trkpt>
      <trkpt lat="42.597596" lon="-5.570154">
        <ele>837.188</ele>
        <time>2018-06-15T12:36:22Z</time>
      </trkpt>
      <trkpt lat="42.597638" lon="-5.570180">
        <ele>838.095</ele>
        <time>2018-06-15T12:36:27Z</time>
      </trkpt>
      <trkpt lat="42.597682" lon="-5.570197">
        <ele>838.949</ele>
        <time>2018-06-15T12:36:31Z</time>
      </trkpt>
      <trkpt lat="42.597748" lon="-5.570193">
        <ele>839.523</ele>
        <time>2018-06-15T12:36:34Z</time>
      </trkpt>
      <trkpt lat="42.597809" lon="-5.570201">
        <ele>838.208</ele>
        <time>2018-06-15T12:36:36Z</time>
      </trkpt>
      <trkpt lat="42.597853" lon="-5.570221">
        <ele>838.651</ele>
        <time>2018-06-15T12:36:38Z</time>
      </trkpt>
      <trkpt lat="42.597898" lon="-5.570260">
        <ele>838.954</ele>
        <time>2018-06-15T12:36:41Z</time>
      </trkpt>
      <trkpt lat="42.597944" lon="-5.570298">
        <ele>839.137</ele>
        <time>2018-06-15T12:36:45Z</time>
      </trkpt>
      <trkpt lat="42.597981" lon="-5.570340">
        <ele>838.081</ele>
        <time>2018-06-15T12:36:53Z</time>
      </trkpt>
      <trkpt lat="42.598026" lon="-5.570340">
        <ele>836.970</ele>
        <time>2018-06-15T12:36:59Z</time>
      </trkpt>
      <trkpt lat="42.598071" lon="-5.570339">
        <ele>836.320</ele>
        <time>2018-06-15T12:37:18Z</time>
      </trkpt>
      <trkpt lat="42.598081" lon="-5.570271">
        <ele>835.510</ele>
        <time>2018-06-15T12:37:30Z</time>
      </trkpt>
      <trkpt lat="42.598068" lon="-5.570197">
        <ele>835.450</ele>
        <time>2018-06-15T12:38:11Z</time>
      </trkpt>
      <trkpt lat="42.598095" lon="-5.570117">
        <ele>835.418</ele>
        <time>2018-06-15T12:38:14Z</time>
      </trkpt>
      <trkpt lat="42.598111" lon="-5.570055">
        <ele>835.898</ele>
        <time>2018-06-15T12:38:16Z</time>
      </trkpt>
      <trkpt lat="42.598125" lon="-5.569993">
        <ele>836.017</ele>
        <time>2018-06-15T12:38:18Z</time>
      </trkpt>
      <trkpt lat="42.598144" lon="-5.569927">
        <ele>836.108</ele>
        <time>2018-06-15T12:38:20Z</time>
      </trkpt>
      <trkpt lat="42.598159" lon="-5.569868">
        <ele>836.653</ele>
        <time>2018-06-15T12:38:22Z</time>
      </trkpt>
      <trkpt lat="42.598199" lon="-5.569817">
        <ele>836.586</ele>
        <time>2018-06-15T12:38:25Z</time>
      </trkpt>
      <trkpt lat="42.598225" lon="-5.569751">
        <ele>836.499</ele>
        <time>2018-06-15T12:38:29Z</time>
      </trkpt>
      <trkpt lat="42.598228" lon="-5.569688">
        <ele>836.453</ele>
        <time>2018-06-15T12:38:32Z</time>
      </trkpt>
      <trkpt lat="42.598240" lon="-5.569608">
        <ele>836.422</ele>
        <time>2018-06-15T12:38:35Z</time>
      </trkpt>
      <trkpt lat="42.598262" lon="-5.569530">
        <ele>836.452</ele>
        <time>2018-06-15T12:38:38Z</time>
      </trkpt>
      <trkpt lat="42.598296" lon="-5.569462">
        <ele>836.482</ele>
        <time>2018-06-15T12:38:41Z</time>
      </trkpt>
      <trkpt lat="42.598320" lon="-5.569392">
        <ele>836.862</ele>
        <time>2018-06-15T12:38:44Z</time>
      </trkpt>
      <trkpt lat="42.598350" lon="-5.569321">
        <ele>837.042</ele>
        <time>2018-06-15T12:38:47Z</time>
      </trkpt>
      <trkpt lat="42.598372" lon="-5.569252">
        <ele>837.122</ele>
        <time>2018-06-15T12:38:50Z</time>
      </trkpt>
      <trkpt lat="42.598383" lon="-5.569174">
        <ele>837.214</ele>
        <time>2018-06-15T12:38:53Z</time>
      </trkpt>
      <trkpt lat="42.598399" lon="-5.569090">
        <ele>838.108</ele>
        <time>2018-06-15T12:38:56Z</time>
      </trkpt>
      <trkpt lat="42.598429" lon="-5.569022">
        <ele>838.666</ele>
        <time>2018-06-15T12:38:59Z</time>
      </trkpt>
      <trkpt lat="42.598434" lon="-5.568960">
        <ele>839.399</ele>
        <time>2018-06-15T12:39:02Z</time>
      </trkpt>
      <trkpt lat="42.598448" lon="-5.568896">
        <ele>840.192</ele>
        <time>2018-06-15T12:39:10Z</time>
      </trkpt>
      <trkpt lat="42.598405" lon="-5.568915">
        <ele>841.436</ele>
        <time>2018-06-15T12:39:32Z</time>
      </trkpt>
      <trkpt lat="42.598377" lon="-5.568965">
        <ele>841.425</ele>
        <time>2018-06-15T12:41:40Z</time>
      </trkpt>
      <trkpt lat="42.598375" lon="-5.569036">
        <ele>841.445</ele>
        <time>2018-06-15T12:41:43Z</time>
      </trkpt>
      <trkpt lat="42.598369" lon="-5.569105">
        <ele>841.045</ele>
        <time>2018-06-15T12:41:46Z</time>
      </trkpt>
      <trkpt lat="42.598361" lon="-5.569169">
        <ele>841.285</ele>
        <time>2018-06-15T12:41:50Z</time>
      </trkpt>
      <trkpt lat="42.598302" lon="-5.569158">
        <ele>841.751</ele>
        <time>2018-06-15T12:44:09Z</time>
      </trkpt>
      <trkpt lat="42.599141" lon="-5.566583">
        <ele>841.00</ele>
        <time>2020-08-20T12:09:25Z</time>
      </trkpt>
      <trkpt lat="42.599240" lon="-5.566200">
        <ele>841.00</ele>
        <time>2020-08-20T12:09:32Z</time>
      </trkpt>
      <trkpt lat="42.599290" lon="-5.566230">
        <ele>841.00</ele>
        <time>2020-08-20T12:09:33Z</time>
      </trkpt>
      <trkpt lat="42.599310" lon="-5.566140">
        <ele>841.00</ele>
        <time>2020-08-20T12:09:35Z</time>
      </trkpt>
      <trkpt lat="42.599360" lon="-5.565870">
        <ele>841.00</ele>
        <time>2020-08-20T12:09:41Z</time>
      </trkpt>
      <trkpt lat="42.599530" lon="-5.565930">
        <ele>841.00</ele>
        <time>2020-08-20T12:09:45Z</time>
      </trkpt>
      <trkpt lat="42.599860" lon="-5.566240">
        <ele>841.00</ele>
        <time>2020-08-20T12:09:56Z</time>
      </trkpt>
      <trkpt lat="42.600300" lon="-5.566530">
        <ele>841.00</ele>
        <time>2020-08-20T12:10:09Z</time>
      </trkpt>
      <trkpt lat="42.601480" lon="-5.567030">
        <ele>842.00</ele>
        <time>2020-08-20T12:10:42Z</time>
      </trkpt>
      <trkpt lat="42.601550" lon="-5.567060">
        <ele>842.00</ele>
        <time>2020-08-20T12:10:44Z</time>
      </trkpt>
      <trkpt lat="42.601560" lon="-5.567070">
        <ele>842.00</ele>
        <time>2020-08-20T12:10:45Z</time>
      </trkpt>
      <trkpt lat="42.602740" lon="-5.567590">
        <ele>842.00</ele>
        <time>2020-08-20T12:11:18Z</time>
      </trkpt>
      <trkpt lat="42.602870" lon="-5.567650">
        <ele>842.00</ele>
        <time>2020-08-20T12:11:21Z</time>
      </trkpt>
      <trkpt lat="42.602920" lon="-5.567680">
        <ele>842.00</ele>
        <time>2020-08-20T12:11:23Z</time>
      </trkpt>
      <trkpt lat="42.602960" lon="-5.567730">
        <ele>842.00</ele>
        <time>2020-08-20T12:11:24Z</time>
      </trkpt>
      <trkpt lat="42.602980" lon="-5.567770">
        <ele>842.00</ele>
        <time>2020-08-20T12:11:25Z</time>
      </trkpt>
      <trkpt lat="42.603000" lon="-5.567800">
        <ele>842.00</ele>
        <time>2020-08-20T12:11:26Z</time>
      </trkpt>
      <trkpt lat="42.603010" lon="-5.567850">
        <ele>844.00</ele>
        <time>2020-08-20T12:11:27Z</time>
      </trkpt>
      <trkpt lat="42.603010" lon="-5.567900">
        <ele>844.00</ele>
        <time>2020-08-20T12:11:28Z</time>
      </trkpt>
      <trkpt lat="42.603010" lon="-5.567970">
        <ele>844.00</ele>
        <time>2020-08-20T12:11:29Z</time>
      </trkpt>
      <trkpt lat="42.602990" lon="-5.568040">
        <ele>844.00</ele>
        <time>2020-08-20T12:11:31Z</time>
      </trkpt>
      <trkpt lat="42.602780" lon="-5.568850">
        <ele>844.00</ele>
        <time>2020-08-20T12:11:48Z</time>
      </trkpt>
      <trkpt lat="42.602770" lon="-5.568910">
        <ele>844.00</ele>
        <time>2020-08-20T12:11:49Z</time>
      </trkpt>
      <trkpt lat="42.602560" lon="-5.569750">
        <ele>844.00</ele>
        <time>2020-08-20T12:12:06Z</time>
      </trkpt>
      <trkpt lat="42.602560" lon="-5.569800">
        <ele>844.00</ele>
        <time>2020-08-20T12:12:07Z</time>
      </trkpt>
      <trkpt lat="42.602570" lon="-5.569830">
        <ele>844.00</ele>
        <time>2020-08-20T12:12:08Z</time>
      </trkpt>
      <trkpt lat="42.602600" lon="-5.569870">
        <ele>844.00</ele>
        <time>2020-08-20T12:12:09Z</time>
      </trkpt>
      <trkpt lat="42.602650" lon="-5.569910">
        <ele>844.00</ele>
        <time>2020-08-20T12:12:11Z</time>
      </trkpt>
      <trkpt lat="42.602690" lon="-5.569930">
        <ele>844.00</ele>
        <time>2020-08-20T12:12:12Z</time>
      </trkpt>
      <trkpt lat="42.602760" lon="-5.569930">
        <ele>844.00</ele>
        <time>2020-08-20T12:12:14Z</time>
      </trkpt>
      <trkpt lat="42.602790" lon="-5.569910">
        <ele>844.00</ele>
        <time>2020-08-20T12:12:15Z</time>
      </trkpt>
      <trkpt lat="42.602830" lon="-5.569900">
        <ele>844.00</ele>
        <time>2020-08-20T12:12:16Z</time>
      </trkpt>
      <trkpt lat="42.602860" lon="-5.569900">
        <ele>844.00</ele>
        <time>2020-08-20T12:12:17Z</time>
      </trkpt>
      <trkpt lat="42.602900" lon="-5.569920">
        <ele>844.00</ele>
        <time>2020-08-20T12:12:18Z</time>
      </trkpt>
      <trkpt lat="42.602930" lon="-5.569940">
        <ele>844.00</ele>
        <time>2020-08-20T12:12:19Z</time>
      </trkpt>
      <trkpt lat="42.602960" lon="-5.569970">
        <ele>844.00</ele>
        <time>2020-08-20T12:12:20Z</time>
      </trkpt>
      <trkpt lat="42.602980" lon="-5.570020">
        <ele>844.00</ele>
        <time>2020-08-20T12:12:21Z</time>
      </trkpt>
      <trkpt lat="42.602990" lon="-5.570080">
        <ele>844.00</ele>
        <time>2020-08-20T12:12:22Z</time>
      </trkpt>
      <trkpt lat="42.602990" lon="-5.570130">
        <ele>844.00</ele>
        <time>2020-08-20T12:12:23Z</time>
      </trkpt>
      <trkpt lat="42.602990" lon="-5.570190">
        <ele>844.00</ele>
        <time>2020-08-20T12:12:24Z</time>
      </trkpt>
      <trkpt lat="42.602970" lon="-5.570240">
        <ele>844.00</ele>
        <time>2020-08-20T12:12:25Z</time>
      </trkpt>
      <trkpt lat="42.602940" lon="-5.570280">
        <ele>844.00</ele>
        <time>2020-08-20T12:12:26Z</time>
      </trkpt>
      <trkpt lat="42.602910" lon="-5.570310">
        <ele>844.00</ele>
        <time>2020-08-20T12:12:27Z</time>
      </trkpt>
      <trkpt lat="42.602870" lon="-5.570330">
        <ele>844.00</ele>
        <time>2020-08-20T12:12:28Z</time>
      </trkpt>
      <trkpt lat="42.602830" lon="-5.570330">
        <ele>844.00</ele>
        <time>2020-08-20T12:12:30Z</time>
      </trkpt>
      <trkpt lat="42.602790" lon="-5.570330">
        <ele>844.00</ele>
        <time>2020-08-20T12:12:31Z</time>
      </trkpt>
      <trkpt lat="42.602750" lon="-5.570300">
        <ele>844.00</ele>
        <time>2020-08-20T12:12:32Z</time>
      </trkpt>
      <trkpt lat="42.602720" lon="-5.570270">
        <ele>844.00</ele>
        <time>2020-08-20T12:12:33Z</time>
      </trkpt>
      <trkpt lat="42.602680" lon="-5.570280">
        <ele>844.00</ele>
        <time>2020-08-20T12:12:34Z</time>
      </trkpt>
      <trkpt lat="42.602650" lon="-5.570310">
        <ele>844.00</ele>
        <time>2020-08-20T12:12:35Z</time>
      </trkpt>
      <trkpt lat="42.602630" lon="-5.570350">
        <ele>844.00</ele>
        <time>2020-08-20T12:12:36Z</time>
      </trkpt>
      <trkpt lat="42.602580" lon="-5.570470">
        <ele>845.00</ele>
        <time>2020-08-20T12:12:39Z</time>
      </trkpt>
      <trkpt lat="42.602550" lon="-5.570590">
        <ele>845.00</ele>
        <time>2020-08-20T12:12:41Z</time>
      </trkpt>
      <trkpt lat="42.602540" lon="-5.570760">
        <ele>845.00</ele>
        <time>2020-08-20T12:12:44Z</time>
      </trkpt>
      <trkpt lat="42.602660" lon="-5.571680">
        <ele>845.00</ele>
        <time>2020-08-20T12:13:03Z</time>
      </trkpt>
      <trkpt lat="42.602660" lon="-5.571740">
        <ele>845.00</ele>
        <time>2020-08-20T12:13:04Z</time>
      </trkpt>
      <trkpt lat="42.602650" lon="-5.571840">
        <ele>845.00</ele>
        <time>2020-08-20T12:13:06Z</time>
      </trkpt>
      <trkpt lat="42.602530" lon="-5.571870">
        <ele>845.00</ele>
        <time>2020-08-20T12:13:09Z</time>
      </trkpt>
      <trkpt lat="42.602300" lon="-5.571920">
        <ele>845.00</ele>
        <time>2020-08-20T12:13:15Z</time>
      </trkpt>
      <trkpt lat="42.602080" lon="-5.571980">
        <ele>845.00</ele>
        <time>2020-08-20T12:13:21Z</time>
      </trkpt>
      <trkpt lat="42.601870" lon="-5.572030">
        <ele>845.00</ele>
        <time>2020-08-20T12:13:27Z</time>
      </trkpt>
      <trkpt lat="42.601790" lon="-5.572050">
        <ele>845.00</ele>
        <time>2020-08-20T12:13:29Z</time>
      </trkpt>
      <trkpt lat="42.601740" lon="-5.572050">
        <ele>845.00</ele>
        <time>2020-08-20T12:13:31Z</time>
      </trkpt>
      <trkpt lat="42.601660" lon="-5.572030">
        <ele>845.00</ele>
        <time>2020-08-20T12:13:33Z</time>
      </trkpt>
      <trkpt lat="42.600590" lon="-5.571520">
        <ele>842.00</ele>
        <time>2020-08-20T12:14:03Z</time>
      </trkpt>
      <trkpt lat="42.600540" lon="-5.571770">
        <ele>842.00</ele>
        <time>2020-08-20T12:14:08Z</time>
      </trkpt>
      <trkpt lat="42.600240" lon="-5.573510">
        <ele>842.00</ele>
        <time>2020-08-20T12:14:43Z</time>
      </trkpt>
      <trkpt lat="42.600220" lon="-5.573620">
        <ele>842.00</ele>
        <time>2020-08-20T12:14:46Z</time>
      </trkpt>
      <trkpt lat="42.600180" lon="-5.573730">
        <ele>842.00</ele>
        <time>2020-08-20T12:14:48Z</time>
      </trkpt>
      <trkpt lat="42.599790" lon="-5.574940">
        <ele>844.00</ele>
        <time>2020-08-20T12:15:14Z</time>
      </trkpt>
      <trkpt lat="42.599670" lon="-5.575290">
        <ele>844.00</ele>
        <time>2020-08-20T12:15:22Z</time>
      </trkpt>
      <trkpt lat="42.599640" lon="-5.575380">
        <ele>844.00</ele>
        <time>2020-08-20T12:15:24Z</time>
      </trkpt>
      <trkpt lat="42.599640" lon="-5.575440">
        <ele>844.00</ele>
        <time>2020-08-20T12:15:25Z</time>
      </trkpt>
      <trkpt lat="42.599700" lon="-5.575500">
        <ele>844.00</ele>
        <time>2020-08-20T12:15:27Z</time>
      </trkpt>
      <trkpt lat="42.599760" lon="-5.575580">
        <ele>844.00</ele>
        <time>2020-08-20T12:15:29Z</time>
      </trkpt>
      <trkpt lat="42.599790" lon="-5.575680">
        <ele>844.00</ele>
        <time>2020-08-20T12:15:31Z</time>
      </trkpt>
      <trkpt lat="42.599810" lon="-5.575780">
        <ele>844.00</ele>
        <time>2020-08-20T12:15:33Z</time>
      </trkpt>
      <trkpt lat="42.599810" lon="-5.575880">
        <ele>844.00</ele>
        <time>2020-08-20T12:15:35Z</time>
      </trkpt>
      <trkpt lat="42.599800" lon="-5.575980">
        <ele>844.00</ele>
        <time>2020-08-20T12:15:37Z</time>
      </trkpt>
      <trkpt lat="42.599890" lon="-5.576020">
        <ele>844.00</ele>
        <time>2020-08-20T12:15:40Z</time>
      </trkpt>
      <trkpt lat="42.600850" lon="-5.576490">
        <ele>842.00</ele>
        <time>2020-08-20T12:16:07Z</time>
      </trkpt>
      <trkpt lat="42.601010" lon="-5.576570">
        <ele>842.00</ele>
        <time>2020-08-20T12:16:11Z</time>
      </trkpt>
      <trkpt lat="42.601070" lon="-5.576720">
        <ele>842.00</ele>
        <time>2020-08-20T12:16:15Z</time>
      </trkpt>
      <trkpt lat="42.601420" lon="-5.577710">
        <ele>842.00</ele>
        <time>2020-08-20T12:16:36Z</time>
      </trkpt>
      <trkpt lat="42.601440" lon="-5.577750">
        <ele>842.00</ele>
        <time>2020-08-20T12:16:37Z</time>
      </trkpt>
      <trkpt lat="42.601440" lon="-5.577820">
        <ele>842.00</ele>
        <time>2020-08-20T12:16:39Z</time>
      </trkpt>
      <trkpt lat="42.601420" lon="-5.577890">
        <ele>842.00</ele>
        <time>2020-08-20T12:16:40Z</time>
      </trkpt>
      <trkpt lat="42.601390" lon="-5.578030">
        <ele>842.00</ele>
        <time>2020-08-20T12:16:43Z</time>
      </trkpt>
      <trkpt lat="42.601360" lon="-5.578030">
        <ele>842.00</ele>
        <time>2020-08-20T12:16:44Z</time>
      </trkpt>
      <trkpt lat="42.600990" lon="-5.578270">
        <ele>844.00</ele>
        <time>2020-08-20T12:16:55Z</time>
      </trkpt>
      <trkpt lat="42.601020" lon="-5.578370">
        <ele>844.00</ele>
        <time>2020-08-20T12:16:57Z</time>
      </trkpt>
      <trkpt lat="42.601430" lon="-5.579520">
        <ele>844.00</ele>
        <time>2020-08-20T12:17:22Z</time>
      </trkpt>
      <trkpt lat="42.601470" lon="-5.579630">
        <ele>844.00</ele>
        <time>2020-08-20T12:17:24Z</time>
      </trkpt>
      <trkpt lat="42.601790" lon="-5.579400">
        <ele>844.00</ele>
        <time>2020-08-20T12:17:34Z</time>
      </trkpt>
      <trkpt lat="42.601850" lon="-5.579360">
        <ele>844.00</ele>
        <time>2020-08-20T12:17:36Z</time>
      </trkpt>
      <trkpt lat="42.601890" lon="-5.579350">
        <ele>844.00</ele>
        <time>2020-08-20T12:17:37Z</time>
      </trkpt>
      <trkpt lat="42.601930" lon="-5.579370">
        <ele>844.00</ele>
        <time>2020-08-20T12:17:38Z</time>
      </trkpt>
      <trkpt lat="42.601980" lon="-5.579410">
        <ele>844.00</ele>
        <time>2020-08-20T12:17:40Z</time>
      </trkpt>
      <trkpt lat="42.602030" lon="-5.579370">
        <ele>844.00</ele>
        <time>2020-08-20T12:17:41Z</time>
      </trkpt>
      <trkpt lat="42.602090" lon="-5.579340">
        <ele>844.00</ele>
        <time>2020-08-20T12:17:43Z</time>
      </trkpt>
      <trkpt lat="42.602150" lon="-5.579340">
        <ele>844.00</ele>
        <time>2020-08-20T12:17:45Z</time>
      </trkpt>
      <trkpt lat="42.602210" lon="-5.579360">
        <ele>844.00</ele>
        <time>2020-08-20T12:17:46Z</time>
      </trkpt>
      <trkpt lat="42.602250" lon="-5.579390">
        <ele>844.00</ele>
        <time>2020-08-20T12:17:47Z</time>
      </trkpt>
      <trkpt lat="42.602290" lon="-5.579430">
        <ele>844.00</ele>
        <time>2020-08-20T12:17:49Z</time>
      </trkpt>
      <trkpt lat="42.602440" lon="-5.579540">
        <ele>844.00</ele>
        <time>2020-08-20T12:17:53Z</time>
      </trkpt>
      <trkpt lat="42.602480" lon="-5.579560">
        <ele>844.00</ele>
        <time>2020-08-20T12:17:54Z</time>
      </trkpt>
      <trkpt lat="42.602470" lon="-5.579610">
        <ele>844.00</ele>
        <time>2020-08-20T12:17:55Z</time>
      </trkpt>
      <trkpt lat="42.602430" lon="-5.579870">
        <ele>840.00</ele>
        <time>2020-08-20T12:18:01Z</time>
      </trkpt>
      <trkpt lat="42.602430" lon="-5.579920">
        <ele>840.00</ele>
        <time>2020-08-20T12:18:02Z</time>
      </trkpt>
      <trkpt lat="42.602450" lon="-5.580000">
        <ele>840.00</ele>
        <time>2020-08-20T12:18:03Z</time>
      </trkpt>
      <trkpt lat="42.602450" lon="-5.580020">
        <ele>840.00</ele>
        <time>2020-08-20T12:18:04Z</time>
      </trkpt>
      <trkpt lat="42.602490" lon="-5.580060">
        <ele>840.00</ele>
        <time>2020-08-20T12:18:05Z</time>
      </trkpt>
      <trkpt lat="42.602530" lon="-5.580120">
        <ele>840.00</ele>
        <time>2020-08-20T12:18:07Z</time>
      </trkpt>
      <trkpt lat="42.602600" lon="-5.580230">
        <ele>840.00</ele>
        <time>2020-08-20T12:18:09Z</time>
      </trkpt>
      <trkpt lat="42.602640" lon="-5.580290">
        <ele>840.00</ele>
        <time>2020-08-20T12:18:11Z</time>
      </trkpt>
      <trkpt lat="42.602850" lon="-5.580800">
        <ele>840.00</ele>
        <time>2020-08-20T12:18:23Z</time>
      </trkpt>
      <trkpt lat="42.602870" lon="-5.580890">
        <ele>840.00</ele>
        <time>2020-08-20T12:18:24Z</time>
      </trkpt>
      <trkpt lat="42.602870" lon="-5.580940">
        <ele>840.00</ele>
        <time>2020-08-20T12:18:25Z</time>
      </trkpt>
      <trkpt lat="42.602870" lon="-5.580970">
        <ele>840.00</ele>
        <time>2020-08-20T12:18:26Z</time>
      </trkpt>
      <trkpt lat="42.602910" lon="-5.581010">
        <ele>840.00</ele>
        <time>2020-08-20T12:18:27Z</time>
      </trkpt>
      <trkpt lat="42.602950" lon="-5.581050">
        <ele>840.00</ele>
        <time>2020-08-20T12:18:29Z</time>
      </trkpt>
      <trkpt lat="42.602990" lon="-5.581100">
        <ele>840.00</ele>
        <time>2020-08-20T12:18:30Z</time>
      </trkpt>
      <trkpt lat="42.603040" lon="-5.581160">
        <ele>840.00</ele>
        <time>2020-08-20T12:18:32Z</time>
      </trkpt>
      <trkpt lat="42.603090" lon="-5.581220">
        <ele>840.00</ele>
        <time>2020-08-20T12:18:34Z</time>
      </trkpt>
      <trkpt lat="42.603250" lon="-5.581460">
        <ele>840.00</ele>
        <time>2020-08-20T12:18:40Z</time>
      </trkpt>
      <trkpt lat="42.603340" lon="-5.581600">
        <ele>840.00</ele>
        <time>2020-08-20T12:18:44Z</time>
      </trkpt>
      <trkpt lat="42.603340" lon="-5.581640">
        <ele>840.00</ele>
        <time>2020-08-20T12:18:45Z</time>
      </trkpt>
      <trkpt lat="42.603340" lon="-5.581700">
        <ele>840.00</ele>
        <time>2020-08-20T12:18:46Z</time>
      </trkpt>
      <trkpt lat="42.603290" lon="-5.581760">
        <ele>840.00</ele>
        <time>2020-08-20T12:18:47Z</time>
      </trkpt>
      <trkpt lat="42.603280" lon="-5.581770">
        <ele>840.00</ele>
        <time>2020-08-20T12:18:48Z</time>
      </trkpt>
      <trkpt lat="42.603230" lon="-5.581820">
        <ele>840.00</ele>
        <time>2020-08-20T12:18:49Z</time>
      </trkpt>
      <trkpt lat="42.603200" lon="-5.581860">
        <ele>840.00</ele>
        <time>2020-08-20T12:18:51Z</time>
      </trkpt>
      <trkpt lat="42.603180" lon="-5.581950">
        <ele>840.00</ele>
        <time>2020-08-20T12:18:52Z</time>
      </trkpt>
      <trkpt lat="42.603150" lon="-5.582070">
        <ele>840.00</ele>
        <time>2020-08-20T12:18:55Z</time>
      </trkpt>
      <trkpt lat="42.603290" lon="-5.582530">
        <ele>840.00</ele>
        <time>2020-08-20T12:19:05Z</time>
      </trkpt>
      <trkpt lat="42.603490" lon="-5.583210">
        <ele>832.00</ele>
        <time>2020-08-20T12:19:19Z</time>
      </trkpt>
      <trkpt lat="42.603560" lon="-5.583450">
        <ele>832.00</ele>
        <time>2020-08-20T12:19:24Z</time>
      </trkpt>
      <trkpt lat="42.603610" lon="-5.583550">
        <ele>832.00</ele>
        <time>2020-08-20T12:19:27Z</time>
      </trkpt>
      <trkpt lat="42.603670" lon="-5.583660">
        <ele>832.00</ele>
        <time>2020-08-20T12:19:29Z</time>
      </trkpt>
      <trkpt lat="42.603680" lon="-5.583740">
        <ele>832.00</ele>
        <time>2020-08-20T12:19:31Z</time>
      </trkpt>
      <trkpt lat="42.603670" lon="-5.583780">
        <ele>832.00</ele>
        <time>2020-08-20T12:19:32Z</time>
      </trkpt>
      <trkpt lat="42.603660" lon="-5.583820">
        <ele>832.00</ele>
        <time>2020-08-20T12:19:33Z</time>
      </trkpt>
      <trkpt lat="42.603580" lon="-5.584040">
        <ele>832.00</ele>
        <time>2020-08-20T12:19:37Z</time>
      </trkpt>
      <trkpt lat="42.605090" lon="-5.586160">
        <ele>830.00</ele>
        <time>2020-08-20T12:20:42Z</time>
      </trkpt>
      <trkpt lat="42.605140" lon="-5.586190">
        <ele>830.00</ele>
        <time>2020-08-20T12:20:44Z</time>
      </trkpt>
      <trkpt lat="42.605240" lon="-5.586190">
        <ele>830.00</ele>
        <time>2020-08-20T12:20:47Z</time>
      </trkpt>
      <trkpt lat="42.605430" lon="-5.586310">
        <ele>830.00</ele>
        <time>2020-08-20T12:20:52Z</time>
      </trkpt>
      <trkpt lat="42.605810" lon="-5.586470">
        <ele>830.00</ele>
        <time>2020-08-20T12:21:03Z</time>
      </trkpt>
      <trkpt lat="42.606080" lon="-5.586670">
        <ele>830.00</ele>
        <time>2020-08-20T12:21:11Z</time>
      </trkpt>
      <trkpt lat="42.606250" lon="-5.586820">
        <ele>830.00</ele>
        <time>2020-08-20T12:21:16Z</time>
      </trkpt>
      <trkpt lat="42.606460" lon="-5.587070">
        <ele>830.00</ele>
        <time>2020-08-20T12:21:24Z</time>
      </trkpt>
      <trkpt lat="42.606720" lon="-5.587350">
        <ele>831.00</ele>
        <time>2020-08-20T12:21:33Z</time>
      </trkpt>
      <trkpt lat="42.607370" lon="-5.588080">
        <ele>831.00</ele>
        <time>2020-08-20T12:21:55Z</time>
      </trkpt>
      <trkpt lat="42.607390" lon="-5.588130">
        <ele>831.00</ele>
        <time>2020-08-20T12:21:56Z</time>
      </trkpt>
      <trkpt lat="42.607540" lon="-5.588510">
        <ele>831.00</ele>
        <time>2020-08-20T12:22:05Z</time>
      </trkpt>
      <trkpt lat="42.607710" lon="-5.588820">
        <ele>831.00</ele>
        <time>2020-08-20T12:22:13Z</time>
      </trkpt>
      <trkpt lat="42.607980" lon="-5.589130">
        <ele>831.00</ele>
        <time>2020-08-20T12:22:22Z</time>
      </trkpt>
      <trkpt lat="42.608170" lon="-5.589350">
        <ele>831.00</ele>
        <time>2020-08-20T12:22:29Z</time>
      </trkpt>
      <trkpt lat="42.608420" lon="-5.589720">
        <ele>831.00</ele>
        <time>2020-08-20T12:22:39Z</time>
      </trkpt>
      <trkpt lat="42.608550" lon="-5.589880">
        <ele>831.00</ele>
        <time>2020-08-20T12:22:43Z</time>
      </trkpt>
      <trkpt lat="42.608620" lon="-5.589930">
        <ele>831.00</ele>
        <time>2020-08-20T12:22:45Z</time>
      </trkpt>
      <trkpt lat="42.608590" lon="-5.590020">
        <ele>831.00</ele>
        <time>2020-08-20T12:22:47Z</time>
      </trkpt>
      <trkpt lat="42.608660" lon="-5.590060">
        <ele>831.00</ele>
        <time>2020-08-20T12:22:49Z</time>
      </trkpt>
      <trkpt lat="42.608900" lon="-5.590170">
        <ele>831.00</ele>
        <time>2020-08-20T12:22:56Z</time>
      </trkpt>
      <trkpt lat="42.609120" lon="-5.590230">
        <ele>831.00</ele>
        <time>2020-08-20T12:23:02Z</time>
      </trkpt>
      <trkpt lat="42.609280" lon="-5.590270">
        <ele>831.00</ele>
        <time>2020-08-20T12:23:06Z</time>
      </trkpt>
      <trkpt lat="42.609460" lon="-5.590270">
        <ele>831.00</ele>
        <time>2020-08-20T12:23:11Z</time>
      </trkpt>
      <trkpt lat="42.609780" lon="-5.590170">
        <ele>831.00</ele>
        <time>2020-08-20T12:23:20Z</time>
      </trkpt>
      <trkpt lat="42.609910" lon="-5.590190">
        <ele>831.00</ele>
        <time>2020-08-20T12:23:23Z</time>
      </trkpt>
      <trkpt lat="42.610060" lon="-5.590260">
        <ele>831.00</ele>
        <time>2020-08-20T12:23:28Z</time>
      </trkpt>
      <trkpt lat="42.611310" lon="-5.591240">
        <ele>832.00</ele>
        <time>2020-08-20T12:24:06Z</time>
      </trkpt>
      <trkpt lat="42.611530" lon="-5.591280">
        <ele>832.00</ele>
        <time>2020-08-20T12:24:12Z</time>
      </trkpt>
      <trkpt lat="42.611900" lon="-5.591480">
        <ele>832.00</ele>
        <time>2020-08-20T12:24:23Z</time>
      </trkpt>
      <trkpt lat="42.612270" lon="-5.591660">
        <ele>832.00</ele>
        <time>2020-08-20T12:24:33Z</time>
      </trkpt>
      <trkpt lat="42.612440" lon="-5.591800">
        <ele>832.00</ele>
        <time>2020-08-20T12:24:39Z</time>
      </trkpt>
      <trkpt lat="42.612730" lon="-5.592070">
        <ele>832.00</ele>
        <time>2020-08-20T12:24:48Z</time>
      </trkpt>
      <trkpt lat="42.612910" lon="-5.592180">
        <ele>832.00</ele>
        <time>2020-08-20T12:24:53Z</time>
      </trkpt>
      <trkpt lat="42.613030" lon="-5.592240">
        <ele>832.00</ele>
        <time>2020-08-20T12:24:57Z</time>
      </trkpt>
      <trkpt lat="42.613480" lon="-5.592690">
        <ele>836.00</ele>
        <time>2020-08-20T12:25:12Z</time>
      </trkpt>
      <trkpt lat="42.613730" lon="-5.592940">
        <ele>836.00</ele>
        <time>2020-08-20T12:25:20Z</time>
      </trkpt>
      <trkpt lat="42.614440" lon="-5.593670">
        <ele>836.00</ele>
        <time>2020-08-20T12:25:44Z</time>
      </trkpt>
      <trkpt lat="42.614590" lon="-5.593820">
        <ele>836.00</ele>
        <time>2020-08-20T12:25:49Z</time>
      </trkpt>
      <trkpt lat="42.615200" lon="-5.594420">
        <ele>836.00</ele>
        <time>2020-08-20T12:26:09Z</time>
      </trkpt>
      <trkpt lat="42.615430" lon="-5.594580">
        <ele>838.00</ele>
        <time>2020-08-20T12:26:16Z</time>
      </trkpt>
      <trkpt lat="42.615460" lon="-5.594680">
        <ele>838.00</ele>
        <time>2020-08-20T12:26:18Z</time>
      </trkpt>
      <trkpt lat="42.615530" lon="-5.594720">
        <ele>838.00</ele>
        <time>2020-08-20T12:26:20Z</time>
      </trkpt>
      <trkpt lat="42.615700" lon="-5.594820">
        <ele>838.00</ele>
        <time>2020-08-20T12:26:25Z</time>
      </trkpt>
      <trkpt lat="42.615800" lon="-5.594800">
        <ele>838.00</ele>
        <time>2020-08-20T12:26:28Z</time>
      </trkpt>
      <trkpt lat="42.615890" lon="-5.594860">
        <ele>838.00</ele>
        <time>2020-08-20T12:26:30Z</time>
      </trkpt>
      <trkpt lat="42.619180" lon="-5.596890">
        <ele>839.00</ele>
        <time>2020-08-20T12:28:07Z</time>
      </trkpt>
      <trkpt lat="42.619320" lon="-5.596950">
        <ele>839.00</ele>
        <time>2020-08-20T12:28:11Z</time>
      </trkpt>
      <trkpt lat="42.620540" lon="-5.597600">
        <ele>843.00</ele>
        <time>2020-08-20T12:28:46Z</time>
      </trkpt>
      <trkpt lat="42.620620" lon="-5.597620">
        <ele>843.00</ele>
        <time>2020-08-20T12:28:48Z</time>
      </trkpt>
      <trkpt lat="42.620630" lon="-5.597580">
        <ele>843.00</ele>
        <time>2020-08-20T12:28:49Z</time>
      </trkpt>
      <trkpt lat="42.620670" lon="-5.597530">
        <ele>843.00</ele>
        <time>2020-08-20T12:28:50Z</time>
      </trkpt>
      <trkpt lat="42.620710" lon="-5.597500">
        <ele>843.00</ele>
        <time>2020-08-20T12:28:52Z</time>
      </trkpt>
      <trkpt lat="42.620760" lon="-5.597470">
        <ele>843.00</ele>
        <time>2020-08-20T12:28:53Z</time>
      </trkpt>
      <trkpt lat="42.620780" lon="-5.597430">
        <ele>843.00</ele>
        <time>2020-08-20T12:28:54Z</time>
      </trkpt>
      <trkpt lat="42.620910" lon="-5.596940">
        <ele>843.00</ele>
        <time>2020-08-20T12:29:04Z</time>
      </trkpt>
      <trkpt lat="42.620950" lon="-5.596810">
        <ele>843.00</ele>
        <time>2020-08-20T12:29:07Z</time>
      </trkpt>
      <trkpt lat="42.620980" lon="-5.596690">
        <ele>843.00</ele>
        <time>2020-08-20T12:29:10Z</time>
      </trkpt>
      <trkpt lat="42.621050" lon="-5.596480">
        <ele>843.00</ele>
        <time>2020-08-20T12:29:14Z</time>
      </trkpt>
      <trkpt lat="42.621070" lon="-5.596460">
        <ele>843.00</ele>
        <time>2020-08-20T12:29:15Z</time>
      </trkpt>
      <trkpt lat="42.621150" lon="-5.596410">
        <ele>843.00</ele>
        <time>2020-08-20T12:29:17Z</time>
      </trkpt>
      <trkpt lat="42.621200" lon="-5.596330">
        <ele>843.00</ele>
        <time>2020-08-20T12:29:19Z</time>
      </trkpt>
      <trkpt lat="42.621270" lon="-5.596210">
        <ele>843.00</ele>
        <time>2020-08-20T12:29:22Z</time>
      </trkpt>
      <trkpt lat="42.621660" lon="-5.595490">
        <ele>850.00</ele>
        <time>2020-08-20T12:29:40Z</time>
      </trkpt>
      <trkpt lat="42.621760" lon="-5.595300">
        <ele>850.00</ele>
        <time>2020-08-20T12:29:44Z</time>
      </trkpt>
      <trkpt lat="42.622220" lon="-5.594460">
        <ele>850.00</ele>
        <time>2020-08-20T12:30:05Z</time>
      </trkpt>
      <trkpt lat="42.622260" lon="-5.594500">
        <ele>850.00</ele>
        <time>2020-08-20T12:30:06Z</time>
      </trkpt>
      <trkpt lat="42.622480" lon="-5.594080">
        <ele>850.00</ele>
        <time>2020-08-20T12:30:16Z</time>
      </trkpt>
      <trkpt lat="42.622520" lon="-5.594010">
        <ele>850.00</ele>
        <time>2020-08-20T12:30:18Z</time>
      </trkpt>
      <trkpt lat="42.622680" lon="-5.594200">
        <ele>850.00</ele>
        <time>2020-08-20T12:30:24Z</time>
      </trkpt>
      <trkpt lat="42.623160" lon="-5.594770">
        <ele>859.00</ele>
        <time>2020-08-20T12:30:41Z</time>
      </trkpt>
      <trkpt lat="42.623390" lon="-5.594980">
        <ele>859.00</ele>
        <time>2020-08-20T12:30:48Z</time>
      </trkpt>
      <trkpt lat="42.623540" lon="-5.595100">
        <ele>859.00</ele>
        <time>2020-08-20T12:30:53Z</time>
      </trkpt>
      <trkpt lat="42.623840" lon="-5.595280">
        <ele>859.00</ele>
        <time>2020-08-20T12:31:02Z</time>
      </trkpt>
      <trkpt lat="42.624590" lon="-5.595710">
        <ele>859.00</ele>
        <time>2020-08-20T12:31:23Z</time>
      </trkpt>
      <trkpt lat="42.625480" lon="-5.596190">
        <ele>859.00</ele>
        <time>2020-08-20T12:31:49Z</time>
      </trkpt>
      <trkpt lat="42.626370" lon="-5.596700">
        <ele>859.00</ele>
        <time>2020-08-20T12:32:15Z</time>
      </trkpt>
      <trkpt lat="42.626610" lon="-5.596840">
        <ele>859.00</ele>
        <time>2020-08-20T12:32:22Z</time>
      </trkpt>
      <trkpt lat="42.627340" lon="-5.597240">
        <ele>859.00</ele>
        <time>2020-08-20T12:32:43Z</time>
      </trkpt>
      <trkpt lat="42.627990" lon="-5.597620">
        <ele>860.00</ele>
        <time>2020-08-20T12:33:02Z</time>
      </trkpt>
      <trkpt lat="42.628300" lon="-5.597750">
        <ele>860.00</ele>
        <time>2020-08-20T12:33:10Z</time>
      </trkpt>
      <trkpt lat="42.628600" lon="-5.597840">
        <ele>860.00</ele>
        <time>2020-08-20T12:33:19Z</time>
      </trkpt>
      <trkpt lat="42.629580" lon="-5.598120">
        <ele>860.00</ele>
        <time>2020-08-20T12:33:45Z</time>
      </trkpt>
      <trkpt lat="42.630510" lon="-5.598340">
        <ele>860.00</ele>
        <time>2020-08-20T12:34:11Z</time>
      </trkpt>
      <trkpt lat="42.630740" lon="-5.598430">
        <ele>858.00</ele>
        <time>2020-08-20T12:34:17Z</time>
      </trkpt>
      <trkpt lat="42.630960" lon="-5.598570">
        <ele>858.00</ele>
        <time>2020-08-20T12:34:24Z</time>
      </trkpt>
      <trkpt lat="42.631620" lon="-5.599010">
        <ele>858.00</ele>
        <time>2020-08-20T12:34:43Z</time>
      </trkpt>
      <trkpt lat="42.631710" lon="-5.599070">
        <ele>858.00</ele>
        <time>2020-08-20T12:34:46Z</time>
      </trkpt>
      <trkpt lat="42.631860" lon="-5.599230">
        <ele>858.00</ele>
        <time>2020-08-20T12:34:51Z</time>
      </trkpt>
      <trkpt lat="42.631900" lon="-5.599210">
        <ele>858.00</ele>
        <time>2020-08-20T12:34:52Z</time>
      </trkpt>
      <trkpt lat="42.631940" lon="-5.599210">
        <ele>858.00</ele>
        <time>2020-08-20T12:34:53Z</time>
      </trkpt>
      <trkpt lat="42.631980" lon="-5.599230">
        <ele>858.00</ele>
        <time>2020-08-20T12:34:54Z</time>
      </trkpt>
      <trkpt lat="42.632020" lon="-5.599260">
        <ele>858.00</ele>
        <time>2020-08-20T12:34:56Z</time>
      </trkpt>
      <trkpt lat="42.632050" lon="-5.599300">
        <ele>858.00</ele>
        <time>2020-08-20T12:34:57Z</time>
      </trkpt>
      <trkpt lat="42.632070" lon="-5.599350">
        <ele>858.00</ele>
        <time>2020-08-20T12:34:58Z</time>
      </trkpt>
      <trkpt lat="42.632080" lon="-5.599410">
        <ele>858.00</ele>
        <time>2020-08-20T12:34:59Z</time>
      </trkpt>
      <trkpt lat="42.632070" lon="-5.599470">
        <ele>858.00</ele>
        <time>2020-08-20T12:35:00Z</time>
      </trkpt>
      <trkpt lat="42.632050" lon="-5.599540">
        <ele>852.00</ele>
        <time>2020-08-20T12:35:02Z</time>
      </trkpt>
      <trkpt lat="42.632000" lon="-5.599590">
        <ele>852.00</ele>
        <time>2020-08-20T12:35:03Z</time>
      </trkpt>
      <trkpt lat="42.631950" lon="-5.599620">
        <ele>852.00</ele>
        <time>2020-08-20T12:35:05Z</time>
      </trkpt>
      <trkpt lat="42.631890" lon="-5.599620">
        <ele>852.00</ele>
        <time>2020-08-20T12:35:06Z</time>
      </trkpt>
      <trkpt lat="42.631840" lon="-5.599590">
        <ele>852.00</ele>
        <time>2020-08-20T12:35:08Z</time>
      </trkpt>
      <trkpt lat="42.631740" lon="-5.599700">
        <ele>852.00</ele>
        <time>2020-08-20T12:35:11Z</time>
      </trkpt>
      <trkpt lat="42.631740" lon="-5.599720">
        <ele>852.00</ele>
        <time>2020-08-20T12:35:12Z</time>
      </trkpt>
      <trkpt lat="42.631690" lon="-5.600730">
        <ele>852.00</ele>
        <time>2020-08-20T12:35:32Z</time>
      </trkpt>
      <trkpt lat="42.634120" lon="-5.600950">
        <ele>856.00</ele>
        <time>2020-08-20T12:36:37Z</time>
      </trkpt>
      <trkpt lat="42.634110" lon="-5.600140">
        <ele>856.00</ele>
        <time>2020-08-20T12:36:53Z</time>
      </trkpt>
      <trkpt lat="42.634160" lon="-5.600130">
        <ele>856.00</ele>
        <time>2020-08-20T12:36:54Z</time>
      </trkpt>
      <trkpt lat="42.634260" lon="-5.600020">
        <ele>856.00</ele>
        <time>2020-08-20T12:36:57Z</time>
      </trkpt>
      <trkpt lat="42.634300" lon="-5.600010">
        <ele>856.00</ele>
        <time>2020-08-20T12:36:58Z</time>
      </trkpt>
      <trkpt lat="42.634810" lon="-5.600220">
        <ele>858.00</ele>
        <time>2020-08-20T12:37:13Z</time>
      </trkpt>
      <trkpt lat="42.635200" lon="-5.600370">
        <ele>858.00</ele>
        <time>2020-08-20T12:37:23Z</time>
      </trkpt>
      <trkpt lat="42.636100" lon="-5.600730">
        <ele>858.00</ele>
        <time>2020-08-20T12:37:49Z</time>
      </trkpt>
      <trkpt lat="42.637160" lon="-5.601190">
        <ele>859.00</ele>
        <time>2020-08-20T12:38:18Z</time>
      </trkpt>
      <trkpt lat="42.638010" lon="-5.601580">
        <ele>859.00</ele>
        <time>2020-08-20T12:38:42Z</time>
      </trkpt>
      <trkpt lat="42.638680" lon="-5.601880">
        <ele>859.00</ele>
        <time>2020-08-20T12:39:01Z</time>
      </trkpt>
      <trkpt lat="42.638670" lon="-5.601930">
        <ele>859.00</ele>
        <time>2020-08-20T12:39:02Z</time>
      </trkpt>
      <trkpt lat="42.638380" lon="-5.603540">
        <ele>846.00</ele>
        <time>2020-08-20T12:39:35Z</time>
      </trkpt>
      <trkpt lat="42.638130" lon="-5.604190">
        <ele>846.00</ele>
        <time>2020-08-20T12:39:49Z</time>
      </trkpt>
      <trkpt lat="42.638110" lon="-5.604400">
        <ele>846.00</ele>
        <time>2020-08-20T12:39:53Z</time>
      </trkpt>
      <trkpt lat="42.637330" lon="-5.607100">
        <ele>846.00</ele>
        <time>2020-08-20T12:40:50Z</time>
      </trkpt>
      <trkpt lat="42.637370" lon="-5.607120">
        <ele>846.00</ele>
        <time>2020-08-20T12:40:51Z</time>
      </trkpt>
      <trkpt lat="42.637360" lon="-5.607160">
        <ele>846.00</ele>
        <time>2020-08-20T12:40:52Z</time>
      </trkpt>
      <trkpt lat="42.637350" lon="-5.607370">
        <ele>846.00</ele>
        <time>2020-08-20T12:40:56Z</time>
      </trkpt>
      <trkpt lat="42.637380" lon="-5.607410">
        <ele>846.00</ele>
        <time>2020-08-20T12:40:58Z</time>
      </trkpt>
      <trkpt lat="42.637400" lon="-5.607460">
        <ele>846.00</ele>
        <time>2020-08-20T12:40:59Z</time>
      </trkpt>
      <trkpt lat="42.637410" lon="-5.607520">
        <ele>846.00</ele>
        <time>2020-08-20T12:41:00Z</time>
      </trkpt>
      <trkpt lat="42.637400" lon="-5.607580">
        <ele>846.00</ele>
        <time>2020-08-20T12:41:01Z</time>
      </trkpt>
      <trkpt lat="42.637390" lon="-5.607630">
        <ele>846.00</ele>
        <time>2020-08-20T12:41:02Z</time>
      </trkpt>
      <trkpt lat="42.637370" lon="-5.607670">
        <ele>846.00</ele>
        <time>2020-08-20T12:41:03Z</time>
      </trkpt>
      <trkpt lat="42.637340" lon="-5.607700">
        <ele>846.00</ele>
        <time>2020-08-20T12:41:04Z</time>
      </trkpt>
      <trkpt lat="42.637310" lon="-5.607730">
        <ele>846.00</ele>
        <time>2020-08-20T12:41:05Z</time>
      </trkpt>
      <trkpt lat="42.637280" lon="-5.607740">
        <ele>846.00</ele>
        <time>2020-08-20T12:41:06Z</time>
      </trkpt>
      <trkpt lat="42.637200" lon="-5.607890">
        <ele>846.00</ele>
        <time>2020-08-20T12:41:09Z</time>
      </trkpt>
      <trkpt lat="42.637080" lon="-5.608740">
        <ele>846.00</ele>
        <time>2020-08-20T12:41:26Z</time>
      </trkpt>
      <trkpt lat="42.637070" lon="-5.608880">
        <ele>846.00</ele>
        <time>2020-08-20T12:41:29Z</time>
      </trkpt>
      <trkpt lat="42.637110" lon="-5.608910">
        <ele>846.00</ele>
        <time>2020-08-20T12:41:30Z</time>
      </trkpt>
      <trkpt lat="42.637150" lon="-5.608950">
        <ele>846.00</ele>
        <time>2020-08-20T12:41:32Z</time>
      </trkpt>
      <trkpt lat="42.637170" lon="-5.609010">
        <ele>846.00</ele>
        <time>2020-08-20T12:41:33Z</time>
      </trkpt>
      <trkpt lat="42.637180" lon="-5.609080">
        <ele>846.00</ele>
        <time>2020-08-20T12:41:34Z</time>
      </trkpt>
      <trkpt lat="42.637170" lon="-5.609140">
        <ele>846.00</ele>
        <time>2020-08-20T12:41:36Z</time>
      </trkpt>
      <trkpt lat="42.637150" lon="-5.609190">
        <ele>846.00</ele>
        <time>2020-08-20T12:41:37Z</time>
      </trkpt>
      <trkpt lat="42.637120" lon="-5.609230">
        <ele>846.00</ele>
        <time>2020-08-20T12:41:38Z</time>
      </trkpt>
      <trkpt lat="42.637080" lon="-5.609260">
        <ele>846.00</ele>
        <time>2020-08-20T12:41:39Z</time>
      </trkpt>
      <trkpt lat="42.637040" lon="-5.609270">
        <ele>846.00</ele>
        <time>2020-08-20T12:41:40Z</time>
      </trkpt>
      <trkpt lat="42.636990" lon="-5.609270">
        <ele>845.00</ele>
        <time>2020-08-20T12:41:42Z</time>
      </trkpt>
      <trkpt lat="42.636940" lon="-5.609440">
        <ele>845.00</ele>
        <time>2020-08-20T12:41:45Z</time>
      </trkpt>
      <trkpt lat="42.636540" lon="-5.610800">
        <ele>845.00</ele>
        <time>2020-08-20T12:42:14Z</time>
      </trkpt>
      <trkpt lat="42.636530" lon="-5.610880">
        <ele>845.00</ele>
        <time>2020-08-20T12:42:16Z</time>
      </trkpt>
      <trkpt lat="42.636530" lon="-5.610970">
        <ele>845.00</ele>
        <time>2020-08-20T12:42:17Z</time>
      </trkpt>
      <trkpt lat="42.636550" lon="-5.611090">
        <ele>845.00</ele>
        <time>2020-08-20T12:42:20Z</time>
      </trkpt>
      <trkpt lat="42.636570" lon="-5.611150">
        <ele>845.00</ele>
        <time>2020-08-20T12:42:21Z</time>
      </trkpt>
      <trkpt lat="42.636580" lon="-5.611220">
        <ele>845.00</ele>
        <time>2020-08-20T12:42:22Z</time>
      </trkpt>
      <trkpt lat="42.636580" lon="-5.611290">
        <ele>845.00</ele>
        <time>2020-08-20T12:42:24Z</time>
      </trkpt>
      <trkpt lat="42.636550" lon="-5.611360">
        <ele>845.00</ele>
        <time>2020-08-20T12:42:25Z</time>
      </trkpt>
      <trkpt lat="42.636520" lon="-5.611400">
        <ele>845.00</ele>
        <time>2020-08-20T12:42:27Z</time>
      </trkpt>
      <trkpt lat="42.636480" lon="-5.611420">
        <ele>845.00</ele>
        <time>2020-08-20T12:42:28Z</time>
      </trkpt>
      <trkpt lat="42.636440" lon="-5.611440">
        <ele>845.00</ele>
        <time>2020-08-20T12:42:29Z</time>
      </trkpt>
      <trkpt lat="42.636390" lon="-5.611500">
        <ele>845.00</ele>
        <time>2020-08-20T12:42:31Z</time>
      </trkpt>
      <trkpt lat="42.636370" lon="-5.611550">
        <ele>845.00</ele>
        <time>2020-08-20T12:42:32Z</time>
      </trkpt>
      <trkpt lat="42.636340" lon="-5.611680">
        <ele>845.00</ele>
        <time>2020-08-20T12:42:34Z</time>
      </trkpt>
      <trkpt lat="42.636360" lon="-5.611840">
        <ele>845.00</ele>
        <time>2020-08-20T12:42:38Z</time>
      </trkpt>
      <trkpt lat="42.636440" lon="-5.612010">
        <ele>848.00</ele>
        <time>2020-08-20T12:42:42Z</time>
      </trkpt>
      <trkpt lat="42.636530" lon="-5.612110">
        <ele>848.00</ele>
        <time>2020-08-20T12:42:45Z</time>
      </trkpt>
      <trkpt lat="42.636720" lon="-5.612190">
        <ele>848.00</ele>
        <time>2020-08-20T12:42:50Z</time>
      </trkpt>
      <trkpt lat="42.637060" lon="-5.612280">
        <ele>848.00</ele>
        <time>2020-08-20T12:42:59Z</time>
      </trkpt>
      <trkpt lat="42.637160" lon="-5.612350">
        <ele>848.00</ele>
        <time>2020-08-20T12:43:02Z</time>
      </trkpt>
      <trkpt lat="42.637310" lon="-5.612520">
        <ele>848.00</ele>
        <time>2020-08-20T12:43:07Z</time>
      </trkpt>
      <trkpt lat="42.637350" lon="-5.612610">
        <ele>848.00</ele>
        <time>2020-08-20T12:43:10Z</time>
      </trkpt>
      <trkpt lat="42.637430" lon="-5.612840">
        <ele>848.00</ele>
        <time>2020-08-20T12:43:15Z</time>
      </trkpt>
      <trkpt lat="42.637500" lon="-5.613000">
        <ele>848.00</ele>
        <time>2020-08-20T12:43:18Z</time>
      </trkpt>
      <trkpt lat="42.637600" lon="-5.613080">
        <ele>848.00</ele>
        <time>2020-08-20T12:43:21Z</time>
      </trkpt>
      <trkpt lat="42.638590" lon="-5.613380">
        <ele>848.00</ele>
        <time>2020-08-20T12:43:48Z</time>
      </trkpt>
      <trkpt lat="42.639520" lon="-5.613760">
        <ele>850.00</ele>
        <time>2020-08-20T12:44:14Z</time>
      </trkpt>
      <trkpt lat="42.639720" lon="-5.613930">
        <ele>850.00</ele>
        <time>2020-08-20T12:44:21Z</time>
      </trkpt>
      <trkpt lat="42.640210" lon="-5.614420">
        <ele>850.00</ele>
        <time>2020-08-20T12:44:37Z</time>
      </trkpt>
      <trkpt lat="42.640330" lon="-5.614600">
        <ele>848.00</ele>
        <time>2020-08-20T12:44:42Z</time>
      </trkpt>
      <trkpt lat="42.640370" lon="-5.614710">
        <ele>848.00</ele>
        <time>2020-08-20T12:44:44Z</time>
      </trkpt>
      <trkpt lat="42.640400" lon="-5.614780">
        <ele>848.00</ele>
        <time>2020-08-20T12:44:46Z</time>
      </trkpt>
      <trkpt lat="42.640410" lon="-5.614840">
        <ele>848.00</ele>
        <time>2020-08-20T12:44:47Z</time>
      </trkpt>
      <trkpt lat="42.640430" lon="-5.614960">
        <ele>848.00</ele>
        <time>2020-08-20T12:44:49Z</time>
      </trkpt>
      <trkpt lat="42.640440" lon="-5.615010">
        <ele>848.00</ele>
        <time>2020-08-20T12:44:50Z</time>
      </trkpt>
      <trkpt lat="42.640220" lon="-5.615420">
        <ele>848.00</ele>
        <time>2020-08-20T12:45:00Z</time>
      </trkpt>
      <trkpt lat="42.639950" lon="-5.615770">
        <ele>848.00</ele>
        <time>2020-08-20T12:45:10Z</time>
      </trkpt>
      <trkpt lat="42.639720" lon="-5.615940">
        <ele>848.00</ele>
        <time>2020-08-20T12:45:17Z</time>
      </trkpt>
      <trkpt lat="42.639650" lon="-5.615990">
        <ele>848.00</ele>
        <time>2020-08-20T12:45:19Z</time>
      </trkpt>
      <trkpt lat="42.639210" lon="-5.616340">
        <ele>848.00</ele>
        <time>2020-08-20T12:45:33Z</time>
      </trkpt>
      <trkpt lat="42.638510" lon="-5.616790">
        <ele>848.00</ele>
        <time>2020-08-20T12:45:54Z</time>
      </trkpt>
      <trkpt lat="42.637870" lon="-5.617170">
        <ele>848.00</ele>
        <time>2020-08-20T12:46:12Z</time>
      </trkpt>
      <trkpt lat="42.637770" lon="-5.617240">
        <ele>848.00</ele>
        <time>2020-08-20T12:46:15Z</time>
      </trkpt>
      <trkpt lat="42.637570" lon="-5.617110">
        <ele>848.00</ele>
        <time>2020-08-20T12:46:21Z</time>
      </trkpt>
      <trkpt lat="42.637370" lon="-5.616970">
        <ele>848.00</ele>
        <time>2020-08-20T12:46:27Z</time>
      </trkpt>
      <trkpt lat="42.637270" lon="-5.617010">
        <ele>848.00</ele>
        <time>2020-08-20T12:46:30Z</time>
      </trkpt>
      <trkpt lat="42.637170" lon="-5.617140">
        <ele>848.00</ele>
        <time>2020-08-20T12:46:34Z</time>
      </trkpt>
      <trkpt lat="42.637000" lon="-5.617610">
        <ele>848.00</ele>
        <time>2020-08-20T12:46:44Z</time>
      </trkpt>
      <trkpt lat="42.636900" lon="-5.618270">
        <ele>847.00</ele>
        <time>2020-08-20T12:46:57Z</time>
      </trkpt>
      <trkpt lat="42.636800" lon="-5.618980">
        <ele>847.00</ele>
        <time>2020-08-20T12:47:11Z</time>
      </trkpt>
      <trkpt lat="42.636770" lon="-5.619200">
        <ele>847.00</ele>
        <time>2020-08-20T12:47:16Z</time>
      </trkpt>
      <trkpt lat="42.636720" lon="-5.619500">
        <ele>847.00</ele>
        <time>2020-08-20T12:47:22Z</time>
      </trkpt>
      <trkpt lat="42.636720" lon="-5.619590">
        <ele>847.00</ele>
        <time>2020-08-20T12:47:24Z</time>
      </trkpt>
      <trkpt lat="42.636710" lon="-5.619630">
        <ele>847.00</ele>
        <time>2020-08-20T12:47:25Z</time>
      </trkpt>
      <trkpt lat="42.636700" lon="-5.619790">
        <ele>847.00</ele>
        <time>2020-08-20T12:47:28Z</time>
      </trkpt>
      <trkpt lat="42.636420" lon="-5.619790">
        <ele>848.00</ele>
        <time>2020-08-20T12:47:35Z</time>
      </trkpt>
      <trkpt lat="42.635780" lon="-5.619780">
        <ele>848.00</ele>
        <time>2020-08-20T12:47:52Z</time>
      </trkpt>
      <trkpt lat="42.635310" lon="-5.620420">
        <ele>848.00</ele>
        <time>2020-08-20T12:48:10Z</time>
      </trkpt>
      <trkpt lat="42.635060" lon="-5.620860">
        <ele>848.00</ele>
        <time>2020-08-20T12:48:21Z</time>
      </trkpt>
      <trkpt lat="42.634930" lon="-5.621180">
        <ele>848.00</ele>
        <time>2020-08-20T12:48:28Z</time>
      </trkpt>
      <trkpt lat="42.634790" lon="-5.621850">
        <ele>851.00</ele>
        <time>2020-08-20T12:48:42Z</time>
      </trkpt>
      <trkpt lat="42.635280" lon="-5.621860">
        <ele>851.00</ele>
        <time>2020-08-20T12:48:55Z</time>
      </trkpt>
      <trkpt lat="42.635560" lon="-5.621860">
        <ele>851.00</ele>
        <time>2020-08-20T12:49:02Z</time>
      </trkpt>
      <trkpt lat="42.635820" lon="-5.621860">
        <ele>851.00</ele>
        <time>2020-08-20T12:49:09Z</time>
      </trkpt>
      <trkpt lat="42.635970" lon="-5.621930">
        <ele>851.00</ele>
        <time>2020-08-20T12:49:14Z</time>
      </trkpt>
      <trkpt lat="42.636160" lon="-5.622010">
        <ele>851.00</ele>
        <time>2020-08-20T12:49:19Z</time>
      </trkpt>
      <trkpt lat="42.636480" lon="-5.622150">
        <ele>851.00</ele>
        <time>2020-08-20T12:49:28Z</time>
      </trkpt>
      <trkpt lat="42.636550" lon="-5.622720">
        <ele>851.00</ele>
        <time>2020-08-20T12:49:39Z</time>
      </trkpt>
      <trkpt lat="42.636640" lon="-5.623060">
        <ele>858.00</ele>
        <time>2020-08-20T12:49:46Z</time>
      </trkpt>
      <trkpt lat="42.636700" lon="-5.623270">
        <ele>858.00</ele>
        <time>2020-08-20T12:49:51Z</time>
      </trkpt>
      <trkpt lat="42.636770" lon="-5.623520">
        <ele>858.00</ele>
        <time>2020-08-20T12:49:56Z</time>
      </trkpt>
      <trkpt lat="42.636780" lon="-5.623560">
        <ele>858.00</ele>
        <time>2020-08-20T12:49:57Z</time>
      </trkpt>
      <trkpt lat="42.636760" lon="-5.623750">
        <ele>858.00</ele>
        <time>2020-08-20T12:50:01Z</time>
      </trkpt>
      <trkpt lat="42.636750" lon="-5.623900">
        <ele>858.00</ele>
        <time>2020-08-20T12:50:04Z</time>
      </trkpt>
      <trkpt lat="42.636720" lon="-5.624560">
        <ele>858.00</ele>
        <time>2020-08-20T12:50:17Z</time>
      </trkpt>
      <trkpt lat="42.636730" lon="-5.624790">
        <ele>858.00</ele>
        <time>2020-08-20T12:50:21Z</time>
      </trkpt>
      <trkpt lat="42.636740" lon="-5.625040">
        <ele>858.00</ele>
        <time>2020-08-20T12:50:26Z</time>
      </trkpt>
      <trkpt lat="42.636750" lon="-5.625130">
        <ele>858.00</ele>
        <time>2020-08-20T12:50:28Z</time>
      </trkpt>
      <trkpt lat="42.636640" lon="-5.625640">
        <ele>858.00</ele>
        <time>2020-08-20T12:50:38Z</time>
      </trkpt>
      <trkpt lat="42.636610" lon="-5.625810">
        <ele>858.00</ele>
        <time>2020-08-20T12:50:42Z</time>
      </trkpt>
      <trkpt lat="42.636490" lon="-5.626540">
        <ele>862.00</ele>
        <time>2020-08-20T12:50:56Z</time>
      </trkpt>
      <trkpt lat="42.636540" lon="-5.627500">
        <ele>862.00</ele>
        <time>2020-08-20T12:51:15Z</time>
      </trkpt>
      <trkpt lat="42.636650" lon="-5.628050">
        <ele>862.00</ele>
        <time>2020-08-20T12:51:27Z</time>
      </trkpt>
      <trkpt lat="42.636960" lon="-5.628850">
        <ele>862.00</ele>
        <time>2020-08-20T12:51:44Z</time>
      </trkpt>
      <trkpt lat="42.637060" lon="-5.629230">
        <ele>862.00</ele>
        <time>2020-08-20T12:51:52Z</time>
      </trkpt>
      <trkpt lat="42.637990" lon="-5.630380">
        <ele>868.00</ele>
        <time>2020-08-20T12:52:26Z</time>
      </trkpt>
      <trkpt lat="42.638790" lon="-5.631120">
        <ele>868.00</ele>
        <time>2020-08-20T12:52:52Z</time>
      </trkpt>
      <trkpt lat="42.639200" lon="-5.631640">
        <ele>868.00</ele>
        <time>2020-08-20T12:53:07Z</time>
      </trkpt>
      <trkpt lat="42.639730" lon="-5.632480">
        <ele>872.00</ele>
        <time>2020-08-20T12:53:28Z</time>
      </trkpt>
      <trkpt lat="42.640130" lon="-5.632950">
        <ele>872.00</ele>
        <time>2020-08-20T12:53:43Z</time>
      </trkpt>
      <trkpt lat="42.640690" lon="-5.633900">
        <ele>872.00</ele>
        <time>2020-08-20T12:54:06Z</time>
      </trkpt>
      <trkpt lat="42.641110" lon="-5.634770">
        <ele>874.00</ele>
        <time>2020-08-20T12:54:27Z</time>
      </trkpt>
      <trkpt lat="42.642080" lon="-5.635340">
        <ele>874.00</ele>
        <time>2020-08-20T12:54:55Z</time>
      </trkpt>
      <trkpt lat="42.642300" lon="-5.635370">
        <ele>874.00</ele>
        <time>2020-08-20T12:55:01Z</time>
      </trkpt>
      <trkpt lat="42.642530" lon="-5.635340">
        <ele>878.00</ele>
        <time>2020-08-20T12:55:07Z</time>
      </trkpt>
      <trkpt lat="42.643210" lon="-5.635260">
        <ele>878.00</ele>
        <time>2020-08-20T12:55:25Z</time>
      </trkpt>
      <trkpt lat="42.644850" lon="-5.635390">
        <ele>878.00</ele>
        <time>2020-08-20T12:56:09Z</time>
      </trkpt>
      <trkpt lat="42.644600" lon="-5.635670">
        <ele>893.00</ele>
        <time>2020-08-20T12:56:18Z</time>
      </trkpt>
      <trkpt lat="42.644120" lon="-5.636250">
        <ele>893.00</ele>
        <time>2020-08-20T12:56:35Z</time>
      </trkpt>
      <trkpt lat="42.643990" lon="-5.636400">
        <ele>893.00</ele>
        <time>2020-08-20T12:56:40Z</time>
      </trkpt>
      <trkpt lat="42.643890" lon="-5.636510">
        <ele>893.00</ele>
        <time>2020-08-20T12:56:43Z</time>
      </trkpt>
      <trkpt lat="42.643740" lon="-5.636650">
        <ele>893.00</ele>
        <time>2020-08-20T12:56:48Z</time>
      </trkpt>
      <trkpt lat="42.643370" lon="-5.636960">
        <ele>893.00</ele>
        <time>2020-08-20T12:57:00Z</time>
      </trkpt>
      <trkpt lat="42.643240" lon="-5.637080">
        <ele>893.00</ele>
        <time>2020-08-20T12:57:04Z</time>
      </trkpt>
      <trkpt lat="42.643080" lon="-5.637290">
        <ele>893.00</ele>
        <time>2020-08-20T12:57:10Z</time>
      </trkpt>
      <trkpt lat="42.642940" lon="-5.637490">
        <ele>893.00</ele>
        <time>2020-08-20T12:57:15Z</time>
      </trkpt>
      <trkpt lat="42.642790" lon="-5.637730">
        <ele>893.00</ele>
        <time>2020-08-20T12:57:21Z</time>
      </trkpt>
      <trkpt lat="42.642610" lon="-5.638000">
        <ele>909.00</ele>
        <time>2020-08-20T12:57:29Z</time>
      </trkpt>
      <trkpt lat="42.642500" lon="-5.638140">
        <ele>909.00</ele>
        <time>2020-08-20T12:57:33Z</time>
      </trkpt>
      <trkpt lat="42.642390" lon="-5.638290">
        <ele>909.00</ele>
        <time>2020-08-20T12:57:37Z</time>
      </trkpt>
      <trkpt lat="42.642220" lon="-5.638690">
        <ele>909.00</ele>
        <time>2020-08-20T12:57:46Z</time>
      </trkpt>
      <trkpt lat="42.641970" lon="-5.639210">
        <ele>909.00</ele>
        <time>2020-08-20T12:57:58Z</time>
      </trkpt>
      <trkpt lat="42.641840" lon="-5.639460">
        <ele>909.00</ele>
        <time>2020-08-20T12:58:04Z</time>
      </trkpt>
      <trkpt lat="42.641710" lon="-5.639800">
        <ele>909.00</ele>
        <time>2020-08-20T12:58:12Z</time>
      </trkpt>
      <trkpt lat="42.641640" lon="-5.640020">
        <ele>909.00</ele>
        <time>2020-08-20T12:58:16Z</time>
      </trkpt>
      <trkpt lat="42.641580" lon="-5.640270">
        <ele>909.00</ele>
        <time>2020-08-20T12:58:21Z</time>
      </trkpt>
      <trkpt lat="42.641510" lon="-5.640520">
        <ele>909.00</ele>
        <time>2020-08-20T12:58:27Z</time>
      </trkpt>
      <trkpt lat="42.641470" lon="-5.640630">
        <ele>909.00</ele>
        <time>2020-08-20T12:58:29Z</time>
      </trkpt>
      <trkpt lat="42.641430" lon="-5.640710">
        <ele>909.00</ele>
        <time>2020-08-20T12:58:31Z</time>
      </trkpt>
      <trkpt lat="42.641320" lon="-5.640900">
        <ele>919.00</ele>
        <time>2020-08-20T12:58:36Z</time>
      </trkpt>
      <trkpt lat="42.641200" lon="-5.641110">
        <ele>919.00</ele>
        <time>2020-08-20T12:58:41Z</time>
      </trkpt>
      <trkpt lat="42.641110" lon="-5.641310">
        <ele>919.00</ele>
        <time>2020-08-20T12:58:46Z</time>
      </trkpt>
      <trkpt lat="42.641000" lon="-5.641590">
        <ele>919.00</ele>
        <time>2020-08-20T12:58:52Z</time>
      </trkpt>
      <trkpt lat="42.640920" lon="-5.641820">
        <ele>919.00</ele>
        <time>2020-08-20T12:58:57Z</time>
      </trkpt>
      <trkpt lat="42.640860" lon="-5.642040">
        <ele>919.00</ele>
        <time>2020-08-20T12:59:01Z</time>
      </trkpt>
      <trkpt lat="42.640830" lon="-5.642240">
        <ele>919.00</ele>
        <time>2020-08-20T12:59:05Z</time>
      </trkpt>
      <trkpt lat="42.640800" lon="-5.642480">
        <ele>919.00</ele>
        <time>2020-08-20T12:59:10Z</time>
      </trkpt>
      <trkpt lat="42.640780" lon="-5.642690">
        <ele>919.00</ele>
        <time>2020-08-20T12:59:14Z</time>
      </trkpt>
      <trkpt lat="42.640770" lon="-5.642890">
        <ele>919.00</ele>
        <time>2020-08-20T12:59:18Z</time>
      </trkpt>
      <trkpt lat="42.640760" lon="-5.643050">
        <ele>919.00</ele>
        <time>2020-08-20T12:59:22Z</time>
      </trkpt>
      <trkpt lat="42.640750" lon="-5.643170">
        <ele>919.00</ele>
        <time>2020-08-20T12:59:24Z</time>
      </trkpt>
      <trkpt lat="42.640720" lon="-5.643320">
        <ele>919.00</ele>
        <time>2020-08-20T12:59:27Z</time>
      </trkpt>
      <trkpt lat="42.640690" lon="-5.643510">
        <ele>919.00</ele>
        <time>2020-08-20T12:59:31Z</time>
      </trkpt>
      <trkpt lat="42.640670" lon="-5.643690">
        <ele>919.00</ele>
        <time>2020-08-20T12:59:34Z</time>
      </trkpt>
      <trkpt lat="42.640650" lon="-5.643820">
        <ele>919.00</ele>
        <time>2020-08-20T12:59:37Z</time>
      </trkpt>
      <trkpt lat="42.640620" lon="-5.643960">
        <ele>919.00</ele>
        <time>2020-08-20T12:59:40Z</time>
      </trkpt>
      <trkpt lat="42.640590" lon="-5.644110">
        <ele>919.00</ele>
        <time>2020-08-20T12:59:43Z</time>
      </trkpt>
      <trkpt lat="42.640570" lon="-5.644250">
        <ele>919.00</ele>
        <time>2020-08-20T12:59:46Z</time>
      </trkpt>
      <trkpt lat="42.640550" lon="-5.644440">
        <ele>929.00</ele>
        <time>2020-08-20T12:59:49Z</time>
      </trkpt>
      <trkpt lat="42.640530" lon="-5.644760">
        <ele>929.00</ele>
        <time>2020-08-20T12:59:56Z</time>
      </trkpt>
      <trkpt lat="42.640520" lon="-5.644960">
        <ele>929.00</ele>
        <time>2020-08-20T13:00:00Z</time>
      </trkpt>
      <trkpt lat="42.640520" lon="-5.645070">
        <ele>929.00</ele>
        <time>2020-08-20T13:00:02Z</time>
      </trkpt>
      <trkpt lat="42.640540" lon="-5.645210">
        <ele>929.00</ele>
        <time>2020-08-20T13:00:05Z</time>
      </trkpt>
      <trkpt lat="42.640590" lon="-5.645450">
        <ele>929.00</ele>
        <time>2020-08-20T13:00:10Z</time>
      </trkpt>
      <trkpt lat="42.640610" lon="-5.645540">
        <ele>929.00</ele>
        <time>2020-08-20T13:00:11Z</time>
      </trkpt>
      <trkpt lat="42.640610" lon="-5.645620">
        <ele>929.00</ele>
        <time>2020-08-20T13:00:13Z</time>
      </trkpt>
      <trkpt lat="42.640610" lon="-5.645750">
        <ele>929.00</ele>
        <time>2020-08-20T13:00:16Z</time>
      </trkpt>
      <trkpt lat="42.640610" lon="-5.645890">
        <ele>929.00</ele>
        <time>2020-08-20T13:00:18Z</time>
      </trkpt>
      <trkpt lat="42.640600" lon="-5.646050">
        <ele>929.00</ele>
        <time>2020-08-20T13:00:21Z</time>
      </trkpt>
      <trkpt lat="42.640590" lon="-5.646250">
        <ele>929.00</ele>
        <time>2020-08-20T13:00:25Z</time>
      </trkpt>
      <trkpt lat="42.640590" lon="-5.646500">
        <ele>929.00</ele>
        <time>2020-08-20T13:00:30Z</time>
      </trkpt>
      <trkpt lat="42.640580" lon="-5.646760">
        <ele>929.00</ele>
        <time>2020-08-20T13:00:35Z</time>
      </trkpt>
      <trkpt lat="42.640570" lon="-5.646970">
        <ele>929.00</ele>
        <time>2020-08-20T13:00:40Z</time>
      </trkpt>
      <trkpt lat="42.640560" lon="-5.647250">
        <ele>929.00</ele>
        <time>2020-08-20T13:00:45Z</time>
      </trkpt>
      <trkpt lat="42.640560" lon="-5.647430">
        <ele>929.00</ele>
        <time>2020-08-20T13:00:49Z</time>
      </trkpt>
      <trkpt lat="42.640570" lon="-5.647610">
        <ele>929.00</ele>
        <time>2020-08-20T13:00:52Z</time>
      </trkpt>
      <trkpt lat="42.640590" lon="-5.647820">
        <ele>929.00</ele>
        <time>2020-08-20T13:00:56Z</time>
      </trkpt>
      <trkpt lat="42.640620" lon="-5.648020">
        <ele>941.00</ele>
        <time>2020-08-20T13:01:00Z</time>
      </trkpt>
      <trkpt lat="42.640640" lon="-5.648140">
        <ele>941.00</ele>
        <time>2020-08-20T13:01:03Z</time>
      </trkpt>
      <trkpt lat="42.640680" lon="-5.648300">
        <ele>941.00</ele>
        <time>2020-08-20T13:01:06Z</time>
      </trkpt>
      <trkpt lat="42.640740" lon="-5.648500">
        <ele>941.00</ele>
        <time>2020-08-20T13:01:10Z</time>
      </trkpt>
      <trkpt lat="42.640780" lon="-5.648740">
        <ele>941.00</ele>
        <time>2020-08-20T13:01:15Z</time>
      </trkpt>
      <trkpt lat="42.640830" lon="-5.648990">
        <ele>941.00</ele>
        <time>2020-08-20T13:01:20Z</time>
      </trkpt>
      <trkpt lat="42.640860" lon="-5.649140">
        <ele>941.00</ele>
        <time>2020-08-20T13:01:23Z</time>
      </trkpt>
      <trkpt lat="42.640880" lon="-5.649260">
        <ele>941.00</ele>
        <time>2020-08-20T13:01:26Z</time>
      </trkpt>
      <trkpt lat="42.640890" lon="-5.649390">
        <ele>941.00</ele>
        <time>2020-08-20T13:01:28Z</time>
      </trkpt>
      <trkpt lat="42.640880" lon="-5.649530">
        <ele>941.00</ele>
        <time>2020-08-20T13:01:31Z</time>
      </trkpt>
      <trkpt lat="42.640870" lon="-5.649620">
        <ele>941.00</ele>
        <time>2020-08-20T13:01:33Z</time>
      </trkpt>
      <trkpt lat="42.640850" lon="-5.649710">
        <ele>941.00</ele>
        <time>2020-08-20T13:01:35Z</time>
      </trkpt>
      <trkpt lat="42.640820" lon="-5.649780">
        <ele>941.00</ele>
        <time>2020-08-20T13:01:36Z</time>
      </trkpt>
      <trkpt lat="42.640780" lon="-5.649870">
        <ele>941.00</ele>
        <time>2020-08-20T13:01:38Z</time>
      </trkpt>
      <trkpt lat="42.640750" lon="-5.649980">
        <ele>941.00</ele>
        <time>2020-08-20T13:01:41Z</time>
      </trkpt>
      <trkpt lat="42.640740" lon="-5.650110">
        <ele>941.00</ele>
        <time>2020-08-20T13:01:43Z</time>
      </trkpt>
      <trkpt lat="42.640720" lon="-5.650310">
        <ele>941.00</ele>
        <time>2020-08-20T13:01:47Z</time>
      </trkpt>
      <trkpt lat="42.640720" lon="-5.650500">
        <ele>941.00</ele>
        <time>2020-08-20T13:01:51Z</time>
      </trkpt>
      <trkpt lat="42.640720" lon="-5.650620">
        <ele>941.00</ele>
        <time>2020-08-20T13:01:53Z</time>
      </trkpt>
      <trkpt lat="42.640730" lon="-5.650830">
        <ele>941.00</ele>
        <time>2020-08-20T13:01:57Z</time>
      </trkpt>
      <trkpt lat="42.640740" lon="-5.651000">
        <ele>941.00</ele>
        <time>2020-08-20T13:02:01Z</time>
      </trkpt>
      <trkpt lat="42.640770" lon="-5.651170">
        <ele>941.00</ele>
        <time>2020-08-20T13:02:04Z</time>
      </trkpt>
      <trkpt lat="42.640810" lon="-5.651470">
        <ele>944.00</ele>
        <time>2020-08-20T13:02:10Z</time>
      </trkpt>
      <trkpt lat="42.640860" lon="-5.651760">
        <ele>944.00</ele>
        <time>2020-08-20T13:02:16Z</time>
      </trkpt>
      <trkpt lat="42.640920" lon="-5.652080">
        <ele>944.00</ele>
        <time>2020-08-20T13:02:23Z</time>
      </trkpt>
      <trkpt lat="42.640990" lon="-5.652390">
        <ele>944.00</ele>
        <time>2020-08-20T13:02:29Z</time>
      </trkpt>
      <trkpt lat="42.641050" lon="-5.652680">
        <ele>944.00</ele>
        <time>2020-08-20T13:02:35Z</time>
      </trkpt>
      <trkpt lat="42.641140" lon="-5.653060">
        <ele>944.00</ele>
        <time>2020-08-20T13:02:43Z</time>
      </trkpt>
      <trkpt lat="42.641180" lon="-5.653300">
        <ele>944.00</ele>
        <time>2020-08-20T13:02:48Z</time>
      </trkpt>
      <trkpt lat="42.641210" lon="-5.653490">
        <ele>944.00</ele>
        <time>2020-08-20T13:02:51Z</time>
      </trkpt>
      <trkpt lat="42.641230" lon="-5.653570">
        <ele>944.00</ele>
        <time>2020-08-20T13:02:53Z</time>
      </trkpt>
      <trkpt lat="42.641270" lon="-5.653710">
        <ele>944.00</ele>
        <time>2020-08-20T13:02:56Z</time>
      </trkpt>
      <trkpt lat="42.641390" lon="-5.654210">
        <ele>944.00</ele>
        <time>2020-08-20T13:03:06Z</time>
      </trkpt>
      <trkpt lat="42.641430" lon="-5.654390">
        <ele>944.00</ele>
        <time>2020-08-20T13:03:10Z</time>
      </trkpt>
      <trkpt lat="42.641470" lon="-5.654610">
        <ele>944.00</ele>
        <time>2020-08-20T13:03:14Z</time>
      </trkpt>
      <trkpt lat="42.641490" lon="-5.654750">
        <ele>944.00</ele>
        <time>2020-08-20T13:03:17Z</time>
      </trkpt>
      <trkpt lat="42.641490" lon="-5.654830">
        <ele>944.00</ele>
        <time>2020-08-20T13:03:19Z</time>
      </trkpt>
      <trkpt lat="42.641490" lon="-5.654940">
        <ele>948.00</ele>
        <time>2020-08-20T13:03:21Z</time>
      </trkpt>
      <trkpt lat="42.641470" lon="-5.655040">
        <ele>948.00</ele>
        <time>2020-08-20T13:03:23Z</time>
      </trkpt>
      <trkpt lat="42.641460" lon="-5.655140">
        <ele>948.00</ele>
        <time>2020-08-20T13:03:25Z</time>
      </trkpt>
      <trkpt lat="42.641430" lon="-5.655260">
        <ele>948.00</ele>
        <time>2020-08-20T13:03:28Z</time>
      </trkpt>
      <trkpt lat="42.641390" lon="-5.655390">
        <ele>948.00</ele>
        <time>2020-08-20T13:03:30Z</time>
      </trkpt>
      <trkpt lat="42.641330" lon="-5.655580">
        <ele>948.00</ele>
        <time>2020-08-20T13:03:34Z</time>
      </trkpt>
      <trkpt lat="42.641310" lon="-5.655670">
        <ele>948.00</ele>
        <time>2020-08-20T13:03:36Z</time>
      </trkpt>
      <trkpt lat="42.641280" lon="-5.655800">
        <ele>948.00</ele>
        <time>2020-08-20T13:03:39Z</time>
      </trkpt>
      <trkpt lat="42.641220" lon="-5.656100">
        <ele>948.00</ele>
        <time>2020-08-20T13:03:45Z</time>
      </trkpt>
      <trkpt lat="42.641180" lon="-5.656340">
        <ele>948.00</ele>
        <time>2020-08-20T13:03:50Z</time>
      </trkpt>
      <trkpt lat="42.641140" lon="-5.656560">
        <ele>948.00</ele>
        <time>2020-08-20T13:03:54Z</time>
      </trkpt>
      <trkpt lat="42.641080" lon="-5.656780">
        <ele>948.00</ele>
        <time>2020-08-20T13:03:59Z</time>
      </trkpt>
      <trkpt lat="42.641020" lon="-5.656990">
        <ele>948.00</ele>
        <time>2020-08-20T13:04:03Z</time>
      </trkpt>
      <trkpt lat="42.640990" lon="-5.657150">
        <ele>948.00</ele>
        <time>2020-08-20T13:04:07Z</time>
      </trkpt>
      <trkpt lat="42.640960" lon="-5.657280">
        <ele>948.00</ele>
        <time>2020-08-20T13:04:09Z</time>
      </trkpt>
      <trkpt lat="42.640910" lon="-5.657490">
        <ele>948.00</ele>
        <time>2020-08-20T13:04:14Z</time>
      </trkpt>
      <trkpt lat="42.640890" lon="-5.657700">
        <ele>948.00</ele>
        <time>2020-08-20T13:04:18Z</time>
      </trkpt>
      <trkpt lat="42.640870" lon="-5.657900">
        <ele>948.00</ele>
        <time>2020-08-20T13:04:22Z</time>
      </trkpt>
      <trkpt lat="42.640850" lon="-5.658050">
        <ele>948.00</ele>
        <time>2020-08-20T13:04:25Z</time>
      </trkpt>
      <trkpt lat="42.640840" lon="-5.658250">
        <ele>948.00</ele>
        <time>2020-08-20T13:04:29Z</time>
      </trkpt>
      <trkpt lat="42.640850" lon="-5.658490">
        <ele>956.00</ele>
        <time>2020-08-20T13:04:33Z</time>
      </trkpt>
      <trkpt lat="42.640850" lon="-5.658720">
        <ele>956.00</ele>
        <time>2020-08-20T13:04:38Z</time>
      </trkpt>
      <trkpt lat="42.640850" lon="-5.658950">
        <ele>956.00</ele>
        <time>2020-08-20T13:04:42Z</time>
      </trkpt>
      <trkpt lat="42.640850" lon="-5.659190">
        <ele>956.00</ele>
        <time>2020-08-20T13:04:47Z</time>
      </trkpt>
      <trkpt lat="42.640850" lon="-5.659460">
        <ele>956.00</ele>
        <time>2020-08-20T13:04:52Z</time>
      </trkpt>
      <trkpt lat="42.640840" lon="-5.659700">
        <ele>956.00</ele>
        <time>2020-08-20T13:04:57Z</time>
      </trkpt>
      <trkpt lat="42.640850" lon="-5.659990">
        <ele>956.00</ele>
        <time>2020-08-20T13:05:03Z</time>
      </trkpt>
      <trkpt lat="42.640850" lon="-5.660510">
        <ele>956.00</ele>
        <time>2020-08-20T13:05:13Z</time>
      </trkpt>
      <trkpt lat="42.640840" lon="-5.660700">
        <ele>956.00</ele>
        <time>2020-08-20T13:05:17Z</time>
      </trkpt>
      <trkpt lat="42.640840" lon="-5.660900">
        <ele>956.00</ele>
        <time>2020-08-20T13:05:21Z</time>
      </trkpt>
      <trkpt lat="42.640830" lon="-5.661080">
        <ele>956.00</ele>
        <time>2020-08-20T13:05:24Z</time>
      </trkpt>
      <trkpt lat="42.640820" lon="-5.661240">
        <ele>956.00</ele>
        <time>2020-08-20T13:05:27Z</time>
      </trkpt>
      <trkpt lat="42.640830" lon="-5.661460">
        <ele>956.00</ele>
        <time>2020-08-20T13:05:32Z</time>
      </trkpt>
      <trkpt lat="42.640830" lon="-5.661630">
        <ele>956.00</ele>
        <time>2020-08-20T13:05:35Z</time>
      </trkpt>
      <trkpt lat="42.640840" lon="-5.661820">
        <ele>956.00</ele>
        <time>2020-08-20T13:05:39Z</time>
      </trkpt>
      <trkpt lat="42.640850" lon="-5.661980">
        <ele>964.00</ele>
        <time>2020-08-20T13:05:42Z</time>
      </trkpt>
      <trkpt lat="42.640860" lon="-5.662150">
        <ele>964.00</ele>
        <time>2020-08-20T13:05:45Z</time>
      </trkpt>
      <trkpt lat="42.640880" lon="-5.662370">
        <ele>964.00</ele>
        <time>2020-08-20T13:05:50Z</time>
      </trkpt>
      <trkpt lat="42.640900" lon="-5.662560">
        <ele>964.00</ele>
        <time>2020-08-20T13:05:54Z</time>
      </trkpt>
      <trkpt lat="42.640920" lon="-5.662740">
        <ele>964.00</ele>
        <time>2020-08-20T13:05:57Z</time>
      </trkpt>
      <trkpt lat="42.640920" lon="-5.662940">
        <ele>964.00</ele>
        <time>2020-08-20T13:06:01Z</time>
      </trkpt>
      <trkpt lat="42.640920" lon="-5.663190">
        <ele>964.00</ele>
        <time>2020-08-20T13:06:06Z</time>
      </trkpt>
      <trkpt lat="42.640920" lon="-5.663410">
        <ele>964.00</ele>
        <time>2020-08-20T13:06:10Z</time>
      </trkpt>
      <trkpt lat="42.640920" lon="-5.663620">
        <ele>964.00</ele>
        <time>2020-08-20T13:06:14Z</time>
      </trkpt>
      <trkpt lat="42.640910" lon="-5.663730">
        <ele>964.00</ele>
        <time>2020-08-20T13:06:17Z</time>
      </trkpt>
      <trkpt lat="42.640880" lon="-5.663870">
        <ele>964.00</ele>
        <time>2020-08-20T13:06:19Z</time>
      </trkpt>
      <trkpt lat="42.640860" lon="-5.663990">
        <ele>964.00</ele>
        <time>2020-08-20T13:06:22Z</time>
      </trkpt>
      <trkpt lat="42.640820" lon="-5.664140">
        <ele>964.00</ele>
        <time>2020-08-20T13:06:25Z</time>
      </trkpt>
      <trkpt lat="42.640760" lon="-5.664290">
        <ele>964.00</ele>
        <time>2020-08-20T13:06:28Z</time>
      </trkpt>
      <trkpt lat="42.640710" lon="-5.664450">
        <ele>964.00</ele>
        <time>2020-08-20T13:06:32Z</time>
      </trkpt>
      <trkpt lat="42.640660" lon="-5.664640">
        <ele>964.00</ele>
        <time>2020-08-20T13:06:36Z</time>
      </trkpt>
      <trkpt lat="42.640580" lon="-5.664860">
        <ele>964.00</ele>
        <time>2020-08-20T13:06:41Z</time>
      </trkpt>
      <trkpt lat="42.640530" lon="-5.665010">
        <ele>964.00</ele>
        <time>2020-08-20T13:06:44Z</time>
      </trkpt>
      <trkpt lat="42.640500" lon="-5.665140">
        <ele>964.00</ele>
        <time>2020-08-20T13:06:46Z</time>
      </trkpt>
      <trkpt lat="42.640480" lon="-5.665240">
        <ele>964.00</ele>
        <time>2020-08-20T13:06:48Z</time>
      </trkpt>
      <trkpt lat="42.640450" lon="-5.665390">
        <ele>964.00</ele>
        <time>2020-08-20T13:06:52Z</time>
      </trkpt>
      <trkpt lat="42.640420" lon="-5.665620">
        <ele>982.00</ele>
        <time>2020-08-20T13:06:56Z</time>
      </trkpt>
      <trkpt lat="42.640400" lon="-5.665820">
        <ele>982.00</ele>
        <time>2020-08-20T13:07:00Z</time>
      </trkpt>
      <trkpt lat="42.640390" lon="-5.666050">
        <ele>982.00</ele>
        <time>2020-08-20T13:07:05Z</time>
      </trkpt>
      <trkpt lat="42.640380" lon="-5.666150">
        <ele>982.00</ele>
        <time>2020-08-20T13:07:07Z</time>
      </trkpt>
      <trkpt lat="42.640360" lon="-5.666260">
        <ele>982.00</ele>
        <time>2020-08-20T13:07:09Z</time>
      </trkpt>
      <trkpt lat="42.640320" lon="-5.666410">
        <ele>982.00</ele>
        <time>2020-08-20T13:07:12Z</time>
      </trkpt>
      <trkpt lat="42.640290" lon="-5.666570">
        <ele>982.00</ele>
        <time>2020-08-20T13:07:15Z</time>
      </trkpt>
      <trkpt lat="42.640270" lon="-5.666710">
        <ele>982.00</ele>
        <time>2020-08-20T13:07:18Z</time>
      </trkpt>
      <trkpt lat="42.640240" lon="-5.666850">
        <ele>982.00</ele>
        <time>2020-08-20T13:07:21Z</time>
      </trkpt>
      <trkpt lat="42.640220" lon="-5.667040">
        <ele>982.00</ele>
        <time>2020-08-20T13:07:25Z</time>
      </trkpt>
      <trkpt lat="42.640190" lon="-5.667230">
        <ele>982.00</ele>
        <time>2020-08-20T13:07:28Z</time>
      </trkpt>
      <trkpt lat="42.640170" lon="-5.667330">
        <ele>982.00</ele>
        <time>2020-08-20T13:07:31Z</time>
      </trkpt>
      <trkpt lat="42.640150" lon="-5.667430">
        <ele>982.00</ele>
        <time>2020-08-20T13:07:33Z</time>
      </trkpt>
      <trkpt lat="42.640070" lon="-5.667760">
        <ele>982.00</ele>
        <time>2020-08-20T13:07:39Z</time>
      </trkpt>
      <trkpt lat="42.640000" lon="-5.668100">
        <ele>982.00</ele>
        <time>2020-08-20T13:07:46Z</time>
      </trkpt>
      <trkpt lat="42.639970" lon="-5.668240">
        <ele>982.00</ele>
        <time>2020-08-20T13:07:49Z</time>
      </trkpt>
      <trkpt lat="42.639950" lon="-5.668340">
        <ele>982.00</ele>
        <time>2020-08-20T13:07:51Z</time>
      </trkpt>
      <trkpt lat="42.639940" lon="-5.668470">
        <ele>982.00</ele>
        <time>2020-08-20T13:07:54Z</time>
      </trkpt>
      <trkpt lat="42.639920" lon="-5.668600">
        <ele>982.00</ele>
        <time>2020-08-20T13:07:56Z</time>
      </trkpt>
      <trkpt lat="42.639900" lon="-5.668730">
        <ele>982.00</ele>
        <time>2020-08-20T13:07:59Z</time>
      </trkpt>
      <trkpt lat="42.639860" lon="-5.668880">
        <ele>982.00</ele>
        <time>2020-08-20T13:08:02Z</time>
      </trkpt>
      <trkpt lat="42.639820" lon="-5.669010">
        <ele>981.00</ele>
        <time>2020-08-20T13:08:05Z</time>
      </trkpt>
      <trkpt lat="42.639770" lon="-5.669110">
        <ele>981.00</ele>
        <time>2020-08-20T13:08:07Z</time>
      </trkpt>
      <trkpt lat="42.639670" lon="-5.669270">
        <ele>981.00</ele>
        <time>2020-08-20T13:08:11Z</time>
      </trkpt>
      <trkpt lat="42.639490" lon="-5.669540">
        <ele>981.00</ele>
        <time>2020-08-20T13:08:19Z</time>
      </trkpt>
      <trkpt lat="42.639270" lon="-5.669860">
        <ele>981.00</ele>
        <time>2020-08-20T13:08:27Z</time>
      </trkpt>
      <trkpt lat="42.639040" lon="-5.670200">
        <ele>981.00</ele>
        <time>2020-08-20T13:08:36Z</time>
      </trkpt>
      <trkpt lat="42.638930" lon="-5.670400">
        <ele>981.00</ele>
        <time>2020-08-20T13:08:41Z</time>
      </trkpt>
      <trkpt lat="42.638850" lon="-5.670550">
        <ele>981.00</ele>
        <time>2020-08-20T13:08:45Z</time>
      </trkpt>
      <trkpt lat="42.638790" lon="-5.670730">
        <ele>981.00</ele>
        <time>2020-08-20T13:08:49Z</time>
      </trkpt>
      <trkpt lat="42.638730" lon="-5.670900">
        <ele>981.00</ele>
        <time>2020-08-20T13:08:52Z</time>
      </trkpt>
      <trkpt lat="42.638700" lon="-5.671000">
        <ele>981.00</ele>
        <time>2020-08-20T13:08:55Z</time>
      </trkpt>
      <trkpt lat="42.638690" lon="-5.671080">
        <ele>981.00</ele>
        <time>2020-08-20T13:08:56Z</time>
      </trkpt>
      <trkpt lat="42.638690" lon="-5.671130">
        <ele>981.00</ele>
        <time>2020-08-20T13:08:57Z</time>
      </trkpt>
      <trkpt lat="42.638690" lon="-5.671230">
        <ele>981.00</ele>
        <time>2020-08-20T13:08:59Z</time>
      </trkpt>
      <trkpt lat="42.638690" lon="-5.671360">
        <ele>981.00</ele>
        <time>2020-08-20T13:09:02Z</time>
      </trkpt>
      <trkpt lat="42.638680" lon="-5.671680">
        <ele>981.00</ele>
        <time>2020-08-20T13:09:08Z</time>
      </trkpt>
      <trkpt lat="42.638670" lon="-5.672000">
        <ele>979.00</ele>
        <time>2020-08-20T13:09:14Z</time>
      </trkpt>
      <trkpt lat="42.638670" lon="-5.672240">
        <ele>979.00</ele>
        <time>2020-08-20T13:09:19Z</time>
      </trkpt>
      <trkpt lat="42.638660" lon="-5.672430">
        <ele>979.00</ele>
        <time>2020-08-20T13:09:23Z</time>
      </trkpt>
      <trkpt lat="42.638660" lon="-5.672570">
        <ele>979.00</ele>
        <time>2020-08-20T13:09:25Z</time>
      </trkpt>
      <trkpt lat="42.638670" lon="-5.672720">
        <ele>979.00</ele>
        <time>2020-08-20T13:09:28Z</time>
      </trkpt>
      <trkpt lat="42.638670" lon="-5.672800">
        <ele>979.00</ele>
        <time>2020-08-20T13:09:30Z</time>
      </trkpt>
      <trkpt lat="42.638660" lon="-5.672870">
        <ele>979.00</ele>
        <time>2020-08-20T13:09:31Z</time>
      </trkpt>
      <trkpt lat="42.638610" lon="-5.673090">
        <ele>979.00</ele>
        <time>2020-08-20T13:09:36Z</time>
      </trkpt>
      <trkpt lat="42.638590" lon="-5.673220">
        <ele>979.00</ele>
        <time>2020-08-20T13:09:39Z</time>
      </trkpt>
      <trkpt lat="42.638560" lon="-5.673360">
        <ele>979.00</ele>
        <time>2020-08-20T13:09:41Z</time>
      </trkpt>
      <trkpt lat="42.638520" lon="-5.673580">
        <ele>979.00</ele>
        <time>2020-08-20T13:09:46Z</time>
      </trkpt>
      <trkpt lat="42.638490" lon="-5.673760">
        <ele>979.00</ele>
        <time>2020-08-20T13:09:49Z</time>
      </trkpt>
      <trkpt lat="42.638450" lon="-5.673880">
        <ele>979.00</ele>
        <time>2020-08-20T13:09:52Z</time>
      </trkpt>
      <trkpt lat="42.638420" lon="-5.673980">
        <ele>979.00</ele>
        <time>2020-08-20T13:09:54Z</time>
      </trkpt>
      <trkpt lat="42.638410" lon="-5.674030">
        <ele>979.00</ele>
        <time>2020-08-20T13:09:55Z</time>
      </trkpt>
      <trkpt lat="42.638400" lon="-5.674070">
        <ele>979.00</ele>
        <time>2020-08-20T13:09:56Z</time>
      </trkpt>
      <trkpt lat="42.638400" lon="-5.674150">
        <ele>979.00</ele>
        <time>2020-08-20T13:09:58Z</time>
      </trkpt>
      <trkpt lat="42.638390" lon="-5.674210">
        <ele>979.00</ele>
        <time>2020-08-20T13:09:59Z</time>
      </trkpt>
      <trkpt lat="42.638370" lon="-5.674270">
        <ele>979.00</ele>
        <time>2020-08-20T13:10:00Z</time>
      </trkpt>
      <trkpt lat="42.638340" lon="-5.674340">
        <ele>979.00</ele>
        <time>2020-08-20T13:10:02Z</time>
      </trkpt>
      <trkpt lat="42.638300" lon="-5.674390">
        <ele>979.00</ele>
        <time>2020-08-20T13:10:03Z</time>
      </trkpt>
      <trkpt lat="42.638250" lon="-5.674470">
        <ele>979.00</ele>
        <time>2020-08-20T13:10:05Z</time>
      </trkpt>
      <trkpt lat="42.638240" lon="-5.674510">
        <ele>979.00</ele>
        <time>2020-08-20T13:10:06Z</time>
      </trkpt>
      <trkpt lat="42.638210" lon="-5.674570">
        <ele>979.00</ele>
        <time>2020-08-20T13:10:07Z</time>
      </trkpt>
      <trkpt lat="42.638160" lon="-5.674640">
        <ele>979.00</ele>
        <time>2020-08-20T13:10:09Z</time>
      </trkpt>
      <trkpt lat="42.638030" lon="-5.674820">
        <ele>979.00</ele>
        <time>2020-08-20T13:10:14Z</time>
      </trkpt>
      <trkpt lat="42.637940" lon="-5.674940">
        <ele>979.00</ele>
        <time>2020-08-20T13:10:18Z</time>
      </trkpt>
      <trkpt lat="42.637860" lon="-5.675080">
        <ele>979.00</ele>
        <time>2020-08-20T13:10:21Z</time>
      </trkpt>
      <trkpt lat="42.637800" lon="-5.675190">
        <ele>986.00</ele>
        <time>2020-08-20T13:10:24Z</time>
      </trkpt>
      <trkpt lat="42.637780" lon="-5.675260">
        <ele>986.00</ele>
        <time>2020-08-20T13:10:25Z</time>
      </trkpt>
      <trkpt lat="42.637760" lon="-5.675380">
        <ele>986.00</ele>
        <time>2020-08-20T13:10:28Z</time>
      </trkpt>
      <trkpt lat="42.637740" lon="-5.675540">
        <ele>986.00</ele>
        <time>2020-08-20T13:10:31Z</time>
      </trkpt>
      <trkpt lat="42.637750" lon="-5.675670">
        <ele>986.00</ele>
        <time>2020-08-20T13:10:34Z</time>
      </trkpt>
      <trkpt lat="42.637700" lon="-5.676060">
        <ele>986.00</ele>
        <time>2020-08-20T13:10:41Z</time>
      </trkpt>
      <trkpt lat="42.637720" lon="-5.676630">
        <ele>986.00</ele>
        <time>2020-08-20T13:10:53Z</time>
      </trkpt>
      <trkpt lat="42.637870" lon="-5.677580">
        <ele>986.00</ele>
        <time>2020-08-20T13:11:12Z</time>
      </trkpt>
      <trkpt lat="42.637880" lon="-5.677850">
        <ele>986.00</ele>
        <time>2020-08-20T13:11:17Z</time>
      </trkpt>
      <trkpt lat="42.638070" lon="-5.678480">
        <ele>986.00</ele>
        <time>2020-08-20T13:11:30Z</time>
      </trkpt>
      <trkpt lat="42.639110" lon="-5.679610">
        <ele>992.00</ele>
        <time>2020-08-20T13:12:06Z</time>
      </trkpt>
      <trkpt lat="42.639390" lon="-5.680080">
        <ele>992.00</ele>
        <time>2020-08-20T13:12:18Z</time>
      </trkpt>
      <trkpt lat="42.639490" lon="-5.680340">
        <ele>992.00</ele>
        <time>2020-08-20T13:12:24Z</time>
      </trkpt>
      <trkpt lat="42.639560" lon="-5.680900">
        <ele>992.00</ele>
        <time>2020-08-20T13:12:35Z</time>
      </trkpt>
      <trkpt lat="42.639740" lon="-5.681440">
        <ele>998.00</ele>
        <time>2020-08-20T13:12:46Z</time>
      </trkpt>
      <trkpt lat="42.639990" lon="-5.681890">
        <ele>998.00</ele>
        <time>2020-08-20T13:12:57Z</time>
      </trkpt>
      <trkpt lat="42.640530" lon="-5.682320">
        <ele>998.00</ele>
        <time>2020-08-20T13:13:14Z</time>
      </trkpt>
      <trkpt lat="42.641410" lon="-5.683170">
        <ele>998.00</ele>
        <time>2020-08-20T13:13:43Z</time>
      </trkpt>
      <trkpt lat="42.642050" lon="-5.683870">
        <ele>1003.00</ele>
        <time>2020-08-20T13:14:05Z</time>
      </trkpt>
      <trkpt lat="42.642330" lon="-5.684050">
        <ele>1003.00</ele>
        <time>2020-08-20T13:14:13Z</time>
      </trkpt>
      <trkpt lat="42.642760" lon="-5.684130">
        <ele>1003.00</ele>
        <time>2020-08-20T13:14:25Z</time>
      </trkpt>
      <trkpt lat="42.643150" lon="-5.684140">
        <ele>1003.00</ele>
        <time>2020-08-20T13:14:35Z</time>
      </trkpt>
      <trkpt lat="42.644380" lon="-5.684280">
        <ele>1007.00</ele>
        <time>2020-08-20T13:15:08Z</time>
      </trkpt>
      <trkpt lat="42.644940" lon="-5.684450">
        <ele>1007.00</ele>
        <time>2020-08-20T13:15:24Z</time>
      </trkpt>
      <trkpt lat="42.645380" lon="-5.684690">
        <ele>1007.00</ele>
        <time>2020-08-20T13:15:36Z</time>
      </trkpt>
      <trkpt lat="42.645750" lon="-5.685030">
        <ele>1007.00</ele>
        <time>2020-08-20T13:15:48Z</time>
      </trkpt>
      <trkpt lat="42.645860" lon="-5.685300">
        <ele>1007.00</ele>
        <time>2020-08-20T13:15:54Z</time>
      </trkpt>
      <trkpt lat="42.645880" lon="-5.685530">
        <ele>1007.00</ele>
        <time>2020-08-20T13:15:59Z</time>
      </trkpt>
      <trkpt lat="42.645790" lon="-5.685830">
        <ele>1007.00</ele>
        <time>2020-08-20T13:16:05Z</time>
      </trkpt>
      <trkpt lat="42.645730" lon="-5.686090">
        <ele>1018.00</ele>
        <time>2020-08-20T13:16:10Z</time>
      </trkpt>
      <trkpt lat="42.645750" lon="-5.686320">
        <ele>1018.00</ele>
        <time>2020-08-20T13:16:15Z</time>
      </trkpt>
      <trkpt lat="42.645890" lon="-5.686500">
        <ele>1018.00</ele>
        <time>2020-08-20T13:16:20Z</time>
      </trkpt>
      <trkpt lat="42.646530" lon="-5.686790">
        <ele>1018.00</ele>
        <time>2020-08-20T13:16:38Z</time>
      </trkpt>
      <trkpt lat="42.647310" lon="-5.687280">
        <ele>1018.00</ele>
        <time>2020-08-20T13:17:01Z</time>
      </trkpt>
      <trkpt lat="42.647810" lon="-5.687740">
        <ele>1018.00</ele>
        <time>2020-08-20T13:17:17Z</time>
      </trkpt>
      <trkpt lat="42.648530" lon="-5.688530">
        <ele>1025.00</ele>
        <time>2020-08-20T13:17:42Z</time>
      </trkpt>
      <trkpt lat="42.649320" lon="-5.689420">
        <ele>1025.00</ele>
        <time>2020-08-20T13:18:09Z</time>
      </trkpt>
      <trkpt lat="42.649830" lon="-5.690250">
        <ele>1025.00</ele>
        <time>2020-08-20T13:18:31Z</time>
      </trkpt>
      <trkpt lat="42.650020" lon="-5.690570">
        <ele>1032.00</ele>
        <time>2020-08-20T13:18:39Z</time>
      </trkpt>
      <trkpt lat="42.650330" lon="-5.691160">
        <ele>1032.00</ele>
        <time>2020-08-20T13:18:53Z</time>
      </trkpt>
      <trkpt lat="42.650660" lon="-5.691400">
        <ele>1032.00</ele>
        <time>2020-08-20T13:19:03Z</time>
      </trkpt>
      <trkpt lat="42.651370" lon="-5.691710">
        <ele>1032.00</ele>
        <time>2020-08-20T13:19:23Z</time>
      </trkpt>
      <trkpt lat="42.652470" lon="-5.691980">
        <ele>1045.00</ele>
        <time>2020-08-20T13:19:53Z</time>
      </trkpt>
      <trkpt lat="42.653300" lon="-5.692100">
        <ele>1045.00</ele>
        <time>2020-08-20T13:20:15Z</time>
      </trkpt>
      <trkpt lat="42.653980" lon="-5.692310">
        <ele>1045.00</ele>
        <time>2020-08-20T13:20:34Z</time>
      </trkpt>
      <trkpt lat="42.655010" lon="-5.692700">
        <ele>1048.00</ele>
        <time>2020-08-20T13:21:02Z</time>
      </trkpt>
      <trkpt lat="42.655620" lon="-5.692810">
        <ele>1048.00</ele>
        <time>2020-08-20T13:21:19Z</time>
      </trkpt>
      <trkpt lat="42.656290" lon="-5.692830">
        <ele>1048.00</ele>
        <time>2020-08-20T13:21:37Z</time>
      </trkpt>
      <trkpt lat="42.656950" lon="-5.692930">
        <ele>1048.00</ele>
        <time>2020-08-20T13:21:54Z</time>
      </trkpt>
      <trkpt lat="42.660000" lon="-5.693210">
        <ele>1059.00</ele>
        <time>2020-08-20T13:23:16Z</time>
      </trkpt>
      <trkpt lat="42.660880" lon="-5.693210">
        <ele>1059.00</ele>
        <time>2020-08-20T13:23:40Z</time>
      </trkpt>
      <trkpt lat="42.661690" lon="-5.692960">
        <ele>1059.00</ele>
        <time>2020-08-20T13:24:02Z</time>
      </trkpt>
      <trkpt lat="42.662010" lon="-5.692840">
        <ele>1059.00</ele>
        <time>2020-08-20T13:24:11Z</time>
      </trkpt>
      <trkpt lat="42.662940" lon="-5.692500">
        <ele>1061.00</ele>
        <time>2020-08-20T13:24:36Z</time>
      </trkpt>
      <trkpt lat="42.663360" lon="-5.692470">
        <ele>1061.00</ele>
        <time>2020-08-20T13:24:48Z</time>
      </trkpt>
      <trkpt lat="42.664010" lon="-5.692570">
        <ele>1061.00</ele>
        <time>2020-08-20T13:25:05Z</time>
      </trkpt>
      <trkpt lat="42.664770" lon="-5.692740">
        <ele>1061.00</ele>
        <time>2020-08-20T13:25:26Z</time>
      </trkpt>
      <trkpt lat="42.665020" lon="-5.693050">
        <ele>1065.00</ele>
        <time>2020-08-20T13:25:35Z</time>
      </trkpt>
      <trkpt lat="42.665450" lon="-5.693830">
        <ele>1065.00</ele>
        <time>2020-08-20T13:25:54Z</time>
      </trkpt>
      <trkpt lat="42.665720" lon="-5.694600">
        <ele>1065.00</ele>
        <time>2020-08-20T13:26:11Z</time>
      </trkpt>
      <trkpt lat="42.665760" lon="-5.694930">
        <ele>1065.00</ele>
        <time>2020-08-20T13:26:17Z</time>
      </trkpt>
      <trkpt lat="42.665720" lon="-5.695310">
        <ele>1065.00</ele>
        <time>2020-08-20T13:26:25Z</time>
      </trkpt>
      <trkpt lat="42.667070" lon="-5.698140">
        <ele>1068.00</ele>
        <time>2020-08-20T13:27:31Z</time>
      </trkpt>
      <trkpt lat="42.668000" lon="-5.699970">
        <ele>1073.00</ele>
        <time>2020-08-20T13:28:15Z</time>
      </trkpt>
      <trkpt lat="42.668500" lon="-5.701130">
        <ele>1073.00</ele>
        <time>2020-08-20T13:28:41Z</time>
      </trkpt>
      <trkpt lat="42.669000" lon="-5.702100">
        <ele>1073.00</ele>
        <time>2020-08-20T13:29:04Z</time>
      </trkpt>
      <trkpt lat="42.669460" lon="-5.703500">
        <ele>1075.00</ele>
        <time>2020-08-20T13:29:35Z</time>
      </trkpt>
      <trkpt lat="42.669590" lon="-5.703930">
        <ele>1075.00</ele>
        <time>2020-08-20T13:29:44Z</time>
      </trkpt>
      <trkpt lat="42.669750" lon="-5.704420">
        <ele>1075.00</ele>
        <time>2020-08-20T13:29:54Z</time>
      </trkpt>
      <trkpt lat="42.669790" lon="-5.704560">
        <ele>1075.00</ele>
        <time>2020-08-20T13:29:57Z</time>
      </trkpt>
      <trkpt lat="42.670080" lon="-5.705310">
        <ele>1075.00</ele>
        <time>2020-08-20T13:30:14Z</time>
      </trkpt>
      <trkpt lat="42.670310" lon="-5.705940">
        <ele>1075.00</ele>
        <time>2020-08-20T13:30:28Z</time>
      </trkpt>
      <trkpt lat="42.670380" lon="-5.706390">
        <ele>1075.00</ele>
        <time>2020-08-20T13:30:37Z</time>
      </trkpt>
      <trkpt lat="42.670610" lon="-5.707540">
        <ele>1075.00</ele>
        <time>2020-08-20T13:31:00Z</time>
      </trkpt>
      <trkpt lat="42.670990" lon="-5.709580">
        <ele>1076.00</ele>
        <time>2020-08-20T13:31:41Z</time>
      </trkpt>
      <trkpt lat="42.671340" lon="-5.712600">
        <ele>1077.00</ele>
        <time>2020-08-20T13:32:41Z</time>
      </trkpt>
      <trkpt lat="42.671460" lon="-5.713630">
        <ele>1077.00</ele>
        <time>2020-08-20T13:33:02Z</time>
      </trkpt>
      <trkpt lat="42.671630" lon="-5.714190">
        <ele>1077.00</ele>
        <time>2020-08-20T13:33:14Z</time>
      </trkpt>
      <trkpt lat="42.672290" lon="-5.715640">
        <ele>1077.00</ele>
        <time>2020-08-20T13:33:47Z</time>
      </trkpt>
      <trkpt lat="42.672950" lon="-5.717360">
        <ele>1079.00</ele>
        <time>2020-08-20T13:34:25Z</time>
      </trkpt>
      <trkpt lat="42.673320" lon="-5.718820">
        <ele>1079.00</ele>
        <time>2020-08-20T13:34:56Z</time>
      </trkpt>
      <trkpt lat="42.673560" lon="-5.719700">
        <ele>1083.00</ele>
        <time>2020-08-20T13:35:14Z</time>
      </trkpt>
      <trkpt lat="42.673550" lon="-5.720130">
        <ele>1083.00</ele>
        <time>2020-08-20T13:35:23Z</time>
      </trkpt>
      <trkpt lat="42.673500" lon="-5.720400">
        <ele>1083.00</ele>
        <time>2020-08-20T13:35:28Z</time>
      </trkpt>
      <trkpt lat="42.673360" lon="-5.720940">
        <ele>1083.00</ele>
        <time>2020-08-20T13:35:39Z</time>
      </trkpt>
      <trkpt lat="42.673210" lon="-5.721660">
        <ele>1083.00</ele>
        <time>2020-08-20T13:35:54Z</time>
      </trkpt>
      <trkpt lat="42.673110" lon="-5.722260">
        <ele>1083.00</ele>
        <time>2020-08-20T13:36:06Z</time>
      </trkpt>
      <trkpt lat="42.672940" lon="-5.722660">
        <ele>1085.00</ele>
        <time>2020-08-20T13:36:15Z</time>
      </trkpt>
      <trkpt lat="42.672740" lon="-5.723060">
        <ele>1085.00</ele>
        <time>2020-08-20T13:36:25Z</time>
      </trkpt>
      <trkpt lat="42.672510" lon="-5.723800">
        <ele>1085.00</ele>
        <time>2020-08-20T13:36:41Z</time>
      </trkpt>
      <trkpt lat="42.672420" lon="-5.724460">
        <ele>1085.00</ele>
        <time>2020-08-20T13:36:54Z</time>
      </trkpt>
      <trkpt lat="42.672530" lon="-5.724960">
        <ele>1085.00</ele>
        <time>2020-08-20T13:37:04Z</time>
      </trkpt>
      <trkpt lat="42.673000" lon="-5.726120">
        <ele>1092.00</ele>
        <time>2020-08-20T13:37:30Z</time>
      </trkpt>
      <trkpt lat="42.673420" lon="-5.727510">
        <ele>1092.00</ele>
        <time>2020-08-20T13:38:00Z</time>
      </trkpt>
      <trkpt lat="42.673620" lon="-5.728280">
        <ele>1092.00</ele>
        <time>2020-08-20T13:38:16Z</time>
      </trkpt>
      <trkpt lat="42.674050" lon="-5.730090">
        <ele>1094.00</ele>
        <time>2020-08-20T13:38:53Z</time>
      </trkpt>
      <trkpt lat="42.674520" lon="-5.731950">
        <ele>1094.00</ele>
        <time>2020-08-20T13:39:32Z</time>
      </trkpt>
      <trkpt lat="42.674640" lon="-5.732680">
        <ele>1101.00</ele>
        <time>2020-08-20T13:39:46Z</time>
      </trkpt>
      <trkpt lat="42.675370" lon="-5.734410">
        <ele>1101.00</ele>
        <time>2020-08-20T13:40:25Z</time>
      </trkpt>
      <trkpt lat="42.675740" lon="-5.735760">
        <ele>1103.00</ele>
        <time>2020-08-20T13:40:54Z</time>
      </trkpt>
      <trkpt lat="42.675930" lon="-5.736070">
        <ele>1103.00</ele>
        <time>2020-08-20T13:41:02Z</time>
      </trkpt>
      <trkpt lat="42.676560" lon="-5.736730">
        <ele>1103.00</ele>
        <time>2020-08-20T13:41:23Z</time>
      </trkpt>
      <trkpt lat="42.677520" lon="-5.738170">
        <ele>1103.00</ele>
        <time>2020-08-20T13:42:01Z</time>
      </trkpt>
      <trkpt lat="42.677640" lon="-5.738380">
        <ele>1105.00</ele>
        <time>2020-08-20T13:42:06Z</time>
      </trkpt>
      <trkpt lat="42.678260" lon="-5.739450">
        <ele>1105.00</ele>
        <time>2020-08-20T13:42:33Z</time>
      </trkpt>
      <trkpt lat="42.678750" lon="-5.740520">
        <ele>1105.00</ele>
        <time>2020-08-20T13:42:58Z</time>
      </trkpt>
      <trkpt lat="42.679720" lon="-5.742300">
        <ele>1101.00</ele>
        <time>2020-08-20T13:43:41Z</time>
      </trkpt>
      <trkpt lat="42.680360" lon="-5.743460">
        <ele>1101.00</ele>
        <time>2020-08-20T13:44:10Z</time>
      </trkpt>
      <trkpt lat="42.681330" lon="-5.745180">
        <ele>1102.00</ele>
        <time>2020-08-20T13:44:52Z</time>
      </trkpt>
      <trkpt lat="42.681910" lon="-5.745820">
        <ele>1102.00</ele>
        <time>2020-08-20T13:45:12Z</time>
      </trkpt>
      <trkpt lat="42.682580" lon="-5.746780">
        <ele>1102.00</ele>
        <time>2020-08-20T13:45:38Z</time>
      </trkpt>
      <trkpt lat="42.682830" lon="-5.747430">
        <ele>1102.00</ele>
        <time>2020-08-20T13:45:53Z</time>
      </trkpt>
      <trkpt lat="42.683130" lon="-5.747910">
        <ele>1102.00</ele>
        <time>2020-08-20T13:46:05Z</time>
      </trkpt>
      <trkpt lat="42.684140" lon="-5.749120">
        <ele>1102.00</ele>
        <time>2020-08-20T13:46:41Z</time>
      </trkpt>
      <trkpt lat="42.684590" lon="-5.749870">
        <ele>1102.00</ele>
        <time>2020-08-20T13:47:00Z</time>
      </trkpt>
      <trkpt lat="42.684860" lon="-5.750450">
        <ele>1102.00</ele>
        <time>2020-08-20T13:47:14Z</time>
      </trkpt>
      <trkpt lat="42.685550" lon="-5.752800">
        <ele>1098.00</ele>
        <time>2020-08-20T13:48:03Z</time>
      </trkpt>
      <trkpt lat="42.685930" lon="-5.753990">
        <ele>1098.00</ele>
        <time>2020-08-20T13:48:29Z</time>
      </trkpt>
      <trkpt lat="42.686390" lon="-5.755110">
        <ele>1098.00</ele>
        <time>2020-08-20T13:48:54Z</time>
      </trkpt>
      <trkpt lat="42.686700" lon="-5.755610">
        <ele>1098.00</ele>
        <time>2020-08-20T13:49:07Z</time>
      </trkpt>
      <trkpt lat="42.686900" lon="-5.756100">
        <ele>1098.00</ele>
        <time>2020-08-20T13:49:18Z</time>
      </trkpt>
      <trkpt lat="42.687130" lon="-5.756230">
        <ele>1098.00</ele>
        <time>2020-08-20T13:49:24Z</time>
      </trkpt>
      <trkpt lat="42.687290" lon="-5.756440">
        <ele>1098.00</ele>
        <time>2020-08-20T13:49:30Z</time>
      </trkpt>
      <trkpt lat="42.687540" lon="-5.756920">
        <ele>1098.00</ele>
        <time>2020-08-20T13:49:42Z</time>
      </trkpt>
      <trkpt lat="42.687730" lon="-5.757860">
        <ele>1098.00</ele>
        <time>2020-08-20T13:50:01Z</time>
      </trkpt>
      <trkpt lat="42.687900" lon="-5.758430">
        <ele>1098.00</ele>
        <time>2020-08-20T13:50:13Z</time>
      </trkpt>
      <trkpt lat="42.688020" lon="-5.758790">
        <ele>1098.00</ele>
        <time>2020-08-20T13:50:21Z</time>
      </trkpt>
      <trkpt lat="42.688190" lon="-5.759540">
        <ele>1098.00</ele>
        <time>2020-08-20T13:50:36Z</time>
      </trkpt>
      <trkpt lat="42.688370" lon="-5.760020">
        <ele>1098.00</ele>
        <time>2020-08-20T13:50:47Z</time>
      </trkpt>
      <trkpt lat="42.688360" lon="-5.760300">
        <ele>1098.00</ele>
        <time>2020-08-20T13:50:52Z</time>
      </trkpt>
      <trkpt lat="42.688590" lon="-5.761020">
        <ele>1098.00</ele>
        <time>2020-08-20T13:51:08Z</time>
      </trkpt>
      <trkpt lat="42.688700" lon="-5.762050">
        <ele>1098.00</ele>
        <time>2020-08-20T13:51:28Z</time>
      </trkpt>
      <trkpt lat="42.688890" lon="-5.762580">
        <ele>1083.00</ele>
        <time>2020-08-20T13:51:40Z</time>
      </trkpt>
      <trkpt lat="42.689180" lon="-5.763300">
        <ele>1083.00</ele>
        <time>2020-08-20T13:51:56Z</time>
      </trkpt>
      <trkpt lat="42.689360" lon="-5.763710">
        <ele>1083.00</ele>
        <time>2020-08-20T13:52:05Z</time>
      </trkpt>
      <trkpt lat="42.689420" lon="-5.764310">
        <ele>1083.00</ele>
        <time>2020-08-20T13:52:17Z</time>
      </trkpt>
      <trkpt lat="42.689560" lon="-5.764750">
        <ele>1083.00</ele>
        <time>2020-08-20T13:52:27Z</time>
      </trkpt>
      <trkpt lat="42.690010" lon="-5.764720">
        <ele>1083.00</ele>
        <time>2020-08-20T13:52:39Z</time>
      </trkpt>
      <trkpt lat="42.690480" lon="-5.764740">
        <ele>1088.00</ele>
        <time>2020-08-20T13:52:51Z</time>
      </trkpt>
      <trkpt lat="42.692480" lon="-5.764800">
        <ele>1088.00</ele>
        <time>2020-08-20T13:53:45Z</time>
      </trkpt>
      <trkpt lat="42.693280" lon="-5.764840">
        <ele>1092.00</ele>
        <time>2020-08-20T13:54:06Z</time>
      </trkpt>
      <trkpt lat="42.694430" lon="-5.764940">
        <ele>1092.00</ele>
        <time>2020-08-20T13:54:37Z</time>
      </trkpt>
      <trkpt lat="42.695090" lon="-5.765050">
        <ele>1092.00</ele>
        <time>2020-08-20T13:54:55Z</time>
      </trkpt>
      <trkpt lat="42.697450" lon="-5.765320">
        <ele>1097.00</ele>
        <time>2020-08-20T13:55:58Z</time>
      </trkpt>
      <trkpt lat="42.698330" lon="-5.765430">
        <ele>1099.00</ele>
        <time>2020-08-20T13:56:22Z</time>
      </trkpt>
      <trkpt lat="42.698660" lon="-5.765410">
        <ele>1099.00</ele>
        <time>2020-08-20T13:56:30Z</time>
      </trkpt>
      <trkpt lat="42.699610" lon="-5.765190">
        <ele>1099.00</ele>
        <time>2020-08-20T13:56:56Z</time>
      </trkpt>
      <trkpt lat="42.700440" lon="-5.767670">
        <ele>1104.00</ele>
        <time>2020-08-20T13:57:50Z</time>
      </trkpt>
      <trkpt lat="42.700850" lon="-5.768910">
        <ele>1104.00</ele>
        <time>2020-08-20T13:58:16Z</time>
      </trkpt>
      <trkpt lat="42.701370" lon="-5.770020">
        <ele>1109.00</ele>
        <time>2020-08-20T13:58:42Z</time>
      </trkpt>
      <trkpt lat="42.701900" lon="-5.771370">
        <ele>1109.00</ele>
        <time>2020-08-20T13:59:12Z</time>
      </trkpt>
      <trkpt lat="42.702020" lon="-5.771830">
        <ele>1109.00</ele>
        <time>2020-08-20T13:59:22Z</time>
      </trkpt>
      <trkpt lat="42.701950" lon="-5.772180">
        <ele>1109.00</ele>
        <time>2020-08-20T13:59:29Z</time>
      </trkpt>
      <trkpt lat="42.701800" lon="-5.773060">
        <ele>1115.00</ele>
        <time>2020-08-20T13:59:47Z</time>
      </trkpt>
      <trkpt lat="42.701670" lon="-5.774010">
        <ele>1115.00</ele>
        <time>2020-08-20T14:00:06Z</time>
      </trkpt>
      <trkpt lat="42.701520" lon="-5.775400">
        <ele>1115.00</ele>
        <time>2020-08-20T14:00:33Z</time>
      </trkpt>
      <trkpt lat="42.701250" lon="-5.776080">
        <ele>1109.00</ele>
        <time>2020-08-20T14:00:48Z</time>
      </trkpt>
      <trkpt lat="42.701050" lon="-5.776500">
        <ele>1109.00</ele>
        <time>2020-08-20T14:00:58Z</time>
      </trkpt>
      <trkpt lat="42.700850" lon="-5.776860">
        <ele>1109.00</ele>
        <time>2020-08-20T14:01:07Z</time>
      </trkpt>
      <trkpt lat="42.700740" lon="-5.777170">
        <ele>1109.00</ele>
        <time>2020-08-20T14:01:14Z</time>
      </trkpt>
      <trkpt lat="42.700640" lon="-5.777470">
        <ele>1109.00</ele>
        <time>2020-08-20T14:01:20Z</time>
      </trkpt>
      <trkpt lat="42.700560" lon="-5.778150">
        <ele>1109.00</ele>
        <time>2020-08-20T14:01:34Z</time>
      </trkpt>
      <trkpt lat="42.700570" lon="-5.778900">
        <ele>1109.00</ele>
        <time>2020-08-20T14:01:49Z</time>
      </trkpt>
      <trkpt lat="42.700590" lon="-5.779290">
        <ele>1109.00</ele>
        <time>2020-08-20T14:01:56Z</time>
      </trkpt>
      <trkpt lat="42.700700" lon="-5.779550">
        <ele>1106.00</ele>
        <time>2020-08-20T14:02:02Z</time>
      </trkpt>
      <trkpt lat="42.700980" lon="-5.779900">
        <ele>1106.00</ele>
        <time>2020-08-20T14:02:12Z</time>
      </trkpt>
      <trkpt lat="42.701490" lon="-5.780000">
        <ele>1106.00</ele>
        <time>2020-08-20T14:02:26Z</time>
      </trkpt>
      <trkpt lat="42.701950" lon="-5.780220">
        <ele>1106.00</ele>
        <time>2020-08-20T14:02:39Z</time>
      </trkpt>
      <trkpt lat="42.702570" lon="-5.780390">
        <ele>1106.00</ele>
        <time>2020-08-20T14:02:56Z</time>
      </trkpt>
      <trkpt lat="42.703010" lon="-5.780760">
        <ele>1096.00</ele>
        <time>2020-08-20T14:03:10Z</time>
      </trkpt>
      <trkpt lat="42.703590" lon="-5.781070">
        <ele>1096.00</ele>
        <time>2020-08-20T14:03:27Z</time>
      </trkpt>
      <trkpt lat="42.704010" lon="-5.781170">
        <ele>1096.00</ele>
        <time>2020-08-20T14:03:38Z</time>
      </trkpt>
      <trkpt lat="42.704370" lon="-5.781370">
        <ele>1096.00</ele>
        <time>2020-08-20T14:03:48Z</time>
      </trkpt>
      <trkpt lat="42.705040" lon="-5.781700">
        <ele>1096.00</ele>
        <time>2020-08-20T14:04:07Z</time>
      </trkpt>
      <trkpt lat="42.705340" lon="-5.781950">
        <ele>1096.00</ele>
        <time>2020-08-20T14:04:17Z</time>
      </trkpt>
      <trkpt lat="42.705460" lon="-5.782530">
        <ele>1078.00</ele>
        <time>2020-08-20T14:04:29Z</time>
      </trkpt>
      <trkpt lat="42.705610" lon="-5.783390">
        <ele>1078.00</ele>
        <time>2020-08-20T14:04:46Z</time>
      </trkpt>
      <trkpt lat="42.705940" lon="-5.784230">
        <ele>1078.00</ele>
        <time>2020-08-20T14:05:05Z</time>
      </trkpt>
      <trkpt lat="42.706020" lon="-5.784920">
        <ele>1048.00</ele>
        <time>2020-08-20T14:05:18Z</time>
      </trkpt>
      <trkpt lat="42.706210" lon="-5.785290">
        <ele>1048.00</ele>
        <time>2020-08-20T14:05:27Z</time>
      </trkpt>
      <trkpt lat="42.706370" lon="-5.785700">
        <ele>1048.00</ele>
        <time>2020-08-20T14:05:36Z</time>
      </trkpt>
      <trkpt lat="42.706440" lon="-5.786270">
        <ele>1048.00</ele>
        <time>2020-08-20T14:05:48Z</time>
      </trkpt>
      <trkpt lat="42.706600" lon="-5.786500">
        <ele>1048.00</ele>
        <time>2020-08-20T14:05:54Z</time>
      </trkpt>
      <trkpt lat="42.706960" lon="-5.786820">
        <ele>1048.00</ele>
        <time>2020-08-20T14:06:05Z</time>
      </trkpt>
      <trkpt lat="42.707160" lon="-5.787310">
        <ele>1048.00</ele>
        <time>2020-08-20T14:06:16Z</time>
      </trkpt>
      <trkpt lat="42.707340" lon="-5.787960">
        <ele>1026.00</ele>
        <time>2020-08-20T14:06:30Z</time>
      </trkpt>
      <trkpt lat="42.707510" lon="-5.788220">
        <ele>1026.00</ele>
        <time>2020-08-20T14:06:37Z</time>
      </trkpt>
      <trkpt lat="42.707640" lon="-5.788250">
        <ele>1026.00</ele>
        <time>2020-08-20T14:06:40Z</time>
      </trkpt>
      <trkpt lat="42.707810" lon="-5.788450">
        <ele>1026.00</ele>
        <time>2020-08-20T14:06:46Z</time>
      </trkpt>
      <trkpt lat="42.707780" lon="-5.788770">
        <ele>1026.00</ele>
        <time>2020-08-20T14:06:53Z</time>
      </trkpt>
      <trkpt lat="42.707750" lon="-5.789140">
        <ele>1026.00</ele>
        <time>2020-08-20T14:07:00Z</time>
      </trkpt>
      <trkpt lat="42.707850" lon="-5.789490">
        <ele>1026.00</ele>
        <time>2020-08-20T14:07:07Z</time>
      </trkpt>
      <trkpt lat="42.708150" lon="-5.789760">
        <ele>1026.00</ele>
        <time>2020-08-20T14:07:17Z</time>
      </trkpt>
      <trkpt lat="42.708410" lon="-5.790090">
        <ele>1026.00</ele>
        <time>2020-08-20T14:07:26Z</time>
      </trkpt>
      <trkpt lat="42.708680" lon="-5.790730">
        <ele>1015.00</ele>
        <time>2020-08-20T14:07:41Z</time>
      </trkpt>
      <trkpt lat="42.709010" lon="-5.791110">
        <ele>1015.00</ele>
        <time>2020-08-20T14:07:53Z</time>
      </trkpt>
      <trkpt lat="42.709310" lon="-5.791860">
        <ele>1015.00</ele>
        <time>2020-08-20T14:08:09Z</time>
      </trkpt>
      <trkpt lat="42.709500" lon="-5.792040">
        <ele>1015.00</ele>
        <time>2020-08-20T14:08:15Z</time>
      </trkpt>
      <trkpt lat="42.709700" lon="-5.792430">
        <ele>1015.00</ele>
        <time>2020-08-20T14:08:25Z</time>
      </trkpt>
      <trkpt lat="42.709740" lon="-5.792680">
        <ele>1015.00</ele>
        <time>2020-08-20T14:08:30Z</time>
      </trkpt>
      <trkpt lat="42.709820" lon="-5.792870">
        <ele>1015.00</ele>
        <time>2020-08-20T14:08:34Z</time>
      </trkpt>
      <trkpt lat="42.709950" lon="-5.793120">
        <ele>1015.00</ele>
        <time>2020-08-20T14:08:40Z</time>
      </trkpt>
      <trkpt lat="42.710000" lon="-5.793620">
        <ele>1001.00</ele>
        <time>2020-08-20T14:08:50Z</time>
      </trkpt>
      <trkpt lat="42.710130" lon="-5.794000">
        <ele>1001.00</ele>
        <time>2020-08-20T14:08:58Z</time>
      </trkpt>
      <trkpt lat="42.710290" lon="-5.794210">
        <ele>1001.00</ele>
        <time>2020-08-20T14:09:04Z</time>
      </trkpt>
      <trkpt lat="42.710460" lon="-5.794660">
        <ele>1001.00</ele>
        <time>2020-08-20T14:09:14Z</time>
      </trkpt>
      <trkpt lat="42.710600" lon="-5.794710">
        <ele>1001.00</ele>
        <time>2020-08-20T14:09:18Z</time>
      </trkpt>
      <trkpt lat="42.710860" lon="-5.794930">
        <ele>1001.00</ele>
        <time>2020-08-20T14:09:26Z</time>
      </trkpt>
      <trkpt lat="42.711370" lon="-5.795640">
        <ele>1001.00</ele>
        <time>2020-08-20T14:09:46Z</time>
      </trkpt>
      <trkpt lat="42.711550" lon="-5.795680">
        <ele>1001.00</ele>
        <time>2020-08-20T14:09:51Z</time>
      </trkpt>
      <trkpt lat="42.711920" lon="-5.795610">
        <ele>989.00</ele>
        <time>2020-08-20T14:10:01Z</time>
      </trkpt>
      <trkpt lat="42.712390" lon="-5.795400">
        <ele>989.00</ele>
        <time>2020-08-20T14:10:14Z</time>
      </trkpt>
      <trkpt lat="42.712640" lon="-5.795370">
        <ele>989.00</ele>
        <time>2020-08-20T14:10:20Z</time>
      </trkpt>
      <trkpt lat="42.712800" lon="-5.795330">
        <ele>989.00</ele>
        <time>2020-08-20T14:10:25Z</time>
      </trkpt>
      <trkpt lat="42.712880" lon="-5.795290">
        <ele>989.00</ele>
        <time>2020-08-20T14:10:27Z</time>
      </trkpt>
      <trkpt lat="42.712980" lon="-5.795280">
        <ele>989.00</ele>
        <time>2020-08-20T14:10:30Z</time>
      </trkpt>
      <trkpt lat="42.713100" lon="-5.795290">
        <ele>989.00</ele>
        <time>2020-08-20T14:10:33Z</time>
      </trkpt>
      <trkpt lat="42.713230" lon="-5.795310">
        <ele>989.00</ele>
        <time>2020-08-20T14:10:36Z</time>
      </trkpt>
      <trkpt lat="42.713430" lon="-5.795330">
        <ele>989.00</ele>
        <time>2020-08-20T14:10:42Z</time>
      </trkpt>
      <trkpt lat="42.713580" lon="-5.795320">
        <ele>989.00</ele>
        <time>2020-08-20T14:10:46Z</time>
      </trkpt>
      <trkpt lat="42.713740" lon="-5.795350">
        <ele>989.00</ele>
        <time>2020-08-20T14:10:50Z</time>
      </trkpt>
      <trkpt lat="42.713870" lon="-5.795370">
        <ele>989.00</ele>
        <time>2020-08-20T14:10:54Z</time>
      </trkpt>
      <trkpt lat="42.714150" lon="-5.795410">
        <ele>989.00</ele>
        <time>2020-08-20T14:11:01Z</time>
      </trkpt>
      <trkpt lat="42.714340" lon="-5.795460">
        <ele>982.00</ele>
        <time>2020-08-20T14:11:06Z</time>
      </trkpt>
      <trkpt lat="42.714560" lon="-5.795510">
        <ele>982.00</ele>
        <time>2020-08-20T14:11:12Z</time>
      </trkpt>
      <trkpt lat="42.714670" lon="-5.795510">
        <ele>982.00</ele>
        <time>2020-08-20T14:11:15Z</time>
      </trkpt>
      <trkpt lat="42.714850" lon="-5.795430">
        <ele>982.00</ele>
        <time>2020-08-20T14:11:20Z</time>
      </trkpt>
      <trkpt lat="42.715050" lon="-5.795360">
        <ele>982.00</ele>
        <time>2020-08-20T14:11:26Z</time>
      </trkpt>
      <trkpt lat="42.715340" lon="-5.795230">
        <ele>982.00</ele>
        <time>2020-08-20T14:11:34Z</time>
      </trkpt>
      <trkpt lat="42.715690" lon="-5.795050">
        <ele>982.00</ele>
        <time>2020-08-20T14:11:44Z</time>
      </trkpt>
      <trkpt lat="42.715950" lon="-5.794900">
        <ele>982.00</ele>
        <time>2020-08-20T14:11:52Z</time>
      </trkpt>
      <trkpt lat="42.716300" lon="-5.794680">
        <ele>982.00</ele>
        <time>2020-08-20T14:12:02Z</time>
      </trkpt>
      <trkpt lat="42.716550" lon="-5.794520">
        <ele>982.00</ele>
        <time>2020-08-20T14:12:09Z</time>
      </trkpt>
      <trkpt lat="42.716870" lon="-5.794330">
        <ele>972.00</ele>
        <time>2020-08-20T14:12:19Z</time>
      </trkpt>
      <trkpt lat="42.717220" lon="-5.794080">
        <ele>972.00</ele>
        <time>2020-08-20T14:12:29Z</time>
      </trkpt>
      <trkpt lat="42.717350" lon="-5.793990">
        <ele>972.00</ele>
        <time>2020-08-20T14:12:33Z</time>
      </trkpt>
      <trkpt lat="42.717420" lon="-5.793920">
        <ele>972.00</ele>
        <time>2020-08-20T14:12:35Z</time>
      </trkpt>
      <trkpt lat="42.717530" lon="-5.793800">
        <ele>972.00</ele>
        <time>2020-08-20T14:12:39Z</time>
      </trkpt>
      <trkpt lat="42.717620" lon="-5.793670">
        <ele>972.00</ele>
        <time>2020-08-20T14:12:43Z</time>
      </trkpt>
      <trkpt lat="42.717700" lon="-5.793590">
        <ele>972.00</ele>
        <time>2020-08-20T14:12:45Z</time>
      </trkpt>
      <trkpt lat="42.717780" lon="-5.793520">
        <ele>972.00</ele>
        <time>2020-08-20T14:12:48Z</time>
      </trkpt>
      <trkpt lat="42.717910" lon="-5.793460">
        <ele>972.00</ele>
        <time>2020-08-20T14:12:51Z</time>
      </trkpt>
      <trkpt lat="42.718010" lon="-5.793410">
        <ele>972.00</ele>
        <time>2020-08-20T14:12:54Z</time>
      </trkpt>
      <trkpt lat="42.718100" lon="-5.793320">
        <ele>972.00</ele>
        <time>2020-08-20T14:12:57Z</time>
      </trkpt>
      <trkpt lat="42.718190" lon="-5.793250">
        <ele>972.00</ele>
        <time>2020-08-20T14:13:00Z</time>
      </trkpt>
      <trkpt lat="42.718240" lon="-5.793200">
        <ele>972.00</ele>
        <time>2020-08-20T14:13:02Z</time>
      </trkpt>
      <trkpt lat="42.718280" lon="-5.793070">
        <ele>972.00</ele>
        <time>2020-08-20T14:13:04Z</time>
      </trkpt>
      <trkpt lat="42.718330" lon="-5.792980">
        <ele>972.00</ele>
        <time>2020-08-20T14:13:07Z</time>
      </trkpt>
      <trkpt lat="42.718400" lon="-5.792850">
        <ele>972.00</ele>
        <time>2020-08-20T14:13:10Z</time>
      </trkpt>
      <trkpt lat="42.718450" lon="-5.792750">
        <ele>972.00</ele>
        <time>2020-08-20T14:13:12Z</time>
      </trkpt>
      <trkpt lat="42.718500" lon="-5.792690">
        <ele>972.00</ele>
        <time>2020-08-20T14:13:14Z</time>
      </trkpt>
      <trkpt lat="42.718530" lon="-5.792670">
        <ele>972.00</ele>
        <time>2020-08-20T14:13:15Z</time>
      </trkpt>
      <trkpt lat="42.718540" lon="-5.792950">
        <ele>993.00</ele>
        <time>2020-08-20T14:13:20Z</time>
      </trkpt>
      <trkpt lat="42.718600" lon="-5.793100">
        <ele>993.00</ele>
        <time>2020-08-20T14:13:24Z</time>
      </trkpt>
      <trkpt lat="42.718780" lon="-5.793550">
        <ele>993.00</ele>
        <time>2020-08-20T14:13:34Z</time>
      </trkpt>
      <trkpt lat="42.718820" lon="-5.793620">
        <ele>993.00</ele>
        <time>2020-08-20T14:13:36Z</time>
      </trkpt>
      <trkpt lat="42.718920" lon="-5.793700">
        <ele>993.00</ele>
        <time>2020-08-20T14:13:39Z</time>
      </trkpt>
      <trkpt lat="42.719010" lon="-5.793750">
        <ele>993.00</ele>
        <time>2020-08-20T14:13:41Z</time>
      </trkpt>
      <trkpt lat="42.719060" lon="-5.793790">
        <ele>993.00</ele>
        <time>2020-08-20T14:13:43Z</time>
      </trkpt>
      <trkpt lat="42.719130" lon="-5.793870">
        <ele>993.00</ele>
        <time>2020-08-20T14:13:45Z</time>
      </trkpt>
      <trkpt lat="42.719230" lon="-5.793980">
        <ele>993.00</ele>
        <time>2020-08-20T14:13:49Z</time>
      </trkpt>
      <trkpt lat="42.719320" lon="-5.794060">
        <ele>993.00</ele>
        <time>2020-08-20T14:13:52Z</time>
      </trkpt>
      <trkpt lat="42.719380" lon="-5.794150">
        <ele>993.00</ele>
        <time>2020-08-20T14:13:54Z</time>
      </trkpt>
      <trkpt lat="42.719470" lon="-5.794320">
        <ele>993.00</ele>
        <time>2020-08-20T14:13:58Z</time>
      </trkpt>
      <trkpt lat="42.719540" lon="-5.794420">
        <ele>993.00</ele>
        <time>2020-08-20T14:14:01Z</time>
      </trkpt>
      <trkpt lat="42.719680" lon="-5.794510">
        <ele>993.00</ele>
        <time>2020-08-20T14:14:05Z</time>
      </trkpt>
      <trkpt lat="42.719760" lon="-5.794600">
        <ele>993.00</ele>
        <time>2020-08-20T14:14:08Z</time>
      </trkpt>
      <trkpt lat="42.719830" lon="-5.794680">
        <ele>993.00</ele>
        <time>2020-08-20T14:14:10Z</time>
      </trkpt>
      <trkpt lat="42.719940" lon="-5.794800">
        <ele>993.00</ele>
        <time>2020-08-20T14:14:14Z</time>
      </trkpt>
      <trkpt lat="42.720020" lon="-5.794910">
        <ele>993.00</ele>
        <time>2020-08-20T14:14:17Z</time>
      </trkpt>
      <trkpt lat="42.720070" lon="-5.795010">
        <ele>993.00</ele>
        <time>2020-08-20T14:14:19Z</time>
      </trkpt>
      <trkpt lat="42.720130" lon="-5.795060">
        <ele>993.00</ele>
        <time>2020-08-20T14:14:21Z</time>
      </trkpt>
      <trkpt lat="42.720160" lon="-5.795060">
        <ele>993.00</ele>
        <time>2020-08-20T14:14:22Z</time>
      </trkpt>
      <trkpt lat="42.720190" lon="-5.795030">
        <ele>993.00</ele>
        <time>2020-08-20T14:14:23Z</time>
      </trkpt>
      <trkpt lat="42.720220" lon="-5.795050">
        <ele>993.00</ele>
        <time>2020-08-20T14:14:24Z</time>
      </trkpt>
      <trkpt lat="42.720300" lon="-5.795110">
        <ele>993.00</ele>
        <time>2020-08-20T14:14:26Z</time>
      </trkpt>
      <trkpt lat="42.720320" lon="-5.795120">
        <ele>993.00</ele>
        <time>2020-08-20T14:14:27Z</time>
      </trkpt>
      <trkpt lat="42.720340" lon="-5.795070">
        <ele>993.00</ele>
        <time>2020-08-20T14:14:28Z</time>
      </trkpt>
      <trkpt lat="42.720430" lon="-5.794930">
        <ele>1003.00</ele>
        <time>2020-08-20T14:14:32Z</time>
      </trkpt>
      <trkpt lat="42.720510" lon="-5.794860">
        <ele>1003.00</ele>
        <time>2020-08-20T14:14:34Z</time>
      </trkpt>
      <trkpt lat="42.720630" lon="-5.794840">
        <ele>1003.00</ele>
        <time>2020-08-20T14:14:37Z</time>
      </trkpt>
      <trkpt lat="42.720770" lon="-5.794860">
        <ele>1003.00</ele>
        <time>2020-08-20T14:14:41Z</time>
      </trkpt>
      <trkpt lat="42.720900" lon="-5.794850">
        <ele>1003.00</ele>
        <time>2020-08-20T14:14:45Z</time>
      </trkpt>
      <trkpt lat="42.721060" lon="-5.794760">
        <ele>1003.00</ele>
        <time>2020-08-20T14:14:49Z</time>
      </trkpt>
      <trkpt lat="42.721480" lon="-5.794480">
        <ele>1003.00</ele>
        <time>2020-08-20T14:15:02Z</time>
      </trkpt>
      <trkpt lat="42.721900" lon="-5.794210">
        <ele>1003.00</ele>
        <time>2020-08-20T14:15:14Z</time>
      </trkpt>
      <trkpt lat="42.722020" lon="-5.794110">
        <ele>1003.00</ele>
        <time>2020-08-20T14:15:18Z</time>
      </trkpt>
      <trkpt lat="42.722120" lon="-5.793960">
        <ele>1003.00</ele>
        <time>2020-08-20T14:15:22Z</time>
      </trkpt>
      <trkpt lat="42.722230" lon="-5.793630">
        <ele>1003.00</ele>
        <time>2020-08-20T14:15:29Z</time>
      </trkpt>
      <trkpt lat="42.722310" lon="-5.793380">
        <ele>1003.00</ele>
        <time>2020-08-20T14:15:34Z</time>
      </trkpt>
      <trkpt lat="42.722400" lon="-5.793180">
        <ele>1003.00</ele>
        <time>2020-08-20T14:15:39Z</time>
      </trkpt>
      <trkpt lat="42.722500" lon="-5.793110">
        <ele>1002.00</ele>
        <time>2020-08-20T14:15:42Z</time>
      </trkpt>
      <trkpt lat="42.722670" lon="-5.793090">
        <ele>1002.00</ele>
        <time>2020-08-20T14:15:47Z</time>
      </trkpt>
      <trkpt lat="42.722830" lon="-5.793190">
        <ele>1002.00</ele>
        <time>2020-08-20T14:15:51Z</time>
      </trkpt>
      <trkpt lat="42.723020" lon="-5.793290">
        <ele>1002.00</ele>
        <time>2020-08-20T14:15:57Z</time>
      </trkpt>
      <trkpt lat="42.723200" lon="-5.793280">
        <ele>1002.00</ele>
        <time>2020-08-20T14:16:01Z</time>
      </trkpt>
      <trkpt lat="42.723450" lon="-5.793190">
        <ele>1002.00</ele>
        <time>2020-08-20T14:16:08Z</time>
      </trkpt>
      <trkpt lat="42.723950" lon="-5.792990">
        <ele>1002.00</ele>
        <time>2020-08-20T14:16:22Z</time>
      </trkpt>
      <trkpt lat="42.724520" lon="-5.792890">
        <ele>1002.00</ele>
        <time>2020-08-20T14:16:38Z</time>
      </trkpt>
      <trkpt lat="42.724730" lon="-5.792820">
        <ele>984.00</ele>
        <time>2020-08-20T14:16:43Z</time>
      </trkpt>
      <trkpt lat="42.725980" lon="-5.792430">
        <ele>984.00</ele>
        <time>2020-08-20T14:17:18Z</time>
      </trkpt>
      <trkpt lat="42.726280" lon="-5.792330">
        <ele>984.00</ele>
        <time>2020-08-20T14:17:26Z</time>
      </trkpt>
      <trkpt lat="42.726420" lon="-5.792240">
        <ele>984.00</ele>
        <time>2020-08-20T14:17:30Z</time>
      </trkpt>
      <trkpt lat="42.726580" lon="-5.792120">
        <ele>984.00</ele>
        <time>2020-08-20T14:17:35Z</time>
      </trkpt>
      <trkpt lat="42.727000" lon="-5.791790">
        <ele>969.00</ele>
        <time>2020-08-20T14:17:48Z</time>
      </trkpt>
      <trkpt lat="42.727130" lon="-5.791650">
        <ele>969.00</ele>
        <time>2020-08-20T14:17:52Z</time>
      </trkpt>
      <trkpt lat="42.727220" lon="-5.791420">
        <ele>969.00</ele>
        <time>2020-08-20T14:17:57Z</time>
      </trkpt>
      <trkpt lat="42.727420" lon="-5.790430">
        <ele>969.00</ele>
        <time>2020-08-20T14:18:18Z</time>
      </trkpt>
      <trkpt lat="42.727500" lon="-5.790170">
        <ele>969.00</ele>
        <time>2020-08-20T14:18:23Z</time>
      </trkpt>
      <trkpt lat="42.727640" lon="-5.790260">
        <ele>969.00</ele>
        <time>2020-08-20T14:18:27Z</time>
      </trkpt>
      <trkpt lat="42.727820" lon="-5.790400">
        <ele>969.00</ele>
        <time>2020-08-20T14:18:33Z</time>
      </trkpt>
      <trkpt lat="42.728070" lon="-5.790270">
        <ele>969.00</ele>
        <time>2020-08-20T14:18:40Z</time>
      </trkpt>
      <trkpt lat="42.728200" lon="-5.790210">
        <ele>969.00</ele>
        <time>2020-08-20T14:18:44Z</time>
      </trkpt>
      <trkpt lat="42.728440" lon="-5.790530">
        <ele>969.00</ele>
        <time>2020-08-20T14:18:53Z</time>
      </trkpt>
      <trkpt lat="42.728510" lon="-5.790780">
        <ele>969.00</ele>
        <time>2020-08-20T14:18:58Z</time>
      </trkpt>
      <trkpt lat="42.728590" lon="-5.791030">
        <ele>969.00</ele>
        <time>2020-08-20T14:19:03Z</time>
      </trkpt>
      <trkpt lat="42.728630" lon="-5.791270">
        <ele>969.00</ele>
        <time>2020-08-20T14:19:08Z</time>
      </trkpt>
      <trkpt lat="42.728620" lon="-5.791600">
        <ele>969.00</ele>
        <time>2020-08-20T14:19:15Z</time>
      </trkpt>
      <trkpt lat="42.728670" lon="-5.792020">
        <ele>969.00</ele>
        <time>2020-08-20T14:19:23Z</time>
      </trkpt>
      <trkpt lat="42.728900" lon="-5.791980">
        <ele>969.00</ele>
        <time>2020-08-20T14:19:29Z</time>
      </trkpt>
      <trkpt lat="42.729150" lon="-5.791870">
        <ele>969.00</ele>
        <time>2020-08-20T14:19:36Z</time>
      </trkpt>
      <trkpt lat="42.729400" lon="-5.791720">
        <ele>969.00</ele>
        <time>2020-08-20T14:19:43Z</time>
      </trkpt>
      <trkpt lat="42.729300" lon="-5.791410">
        <ele>969.00</ele>
        <time>2020-08-20T14:19:50Z</time>
      </trkpt>
      <trkpt lat="42.729210" lon="-5.791160">
        <ele>969.00</ele>
        <time>2020-08-20T14:19:56Z</time>
      </trkpt>
      <trkpt lat="42.729150" lon="-5.790930">
        <ele>969.00</ele>
        <time>2020-08-20T14:20:00Z</time>
      </trkpt>
      <trkpt lat="42.728940" lon="-5.790920">
        <ele>963.00</ele>
        <time>2020-08-20T14:20:06Z</time>
      </trkpt>
      <trkpt lat="42.728830" lon="-5.790790">
        <ele>963.00</ele>
        <time>2020-08-20T14:20:10Z</time>
      </trkpt>
      <trkpt lat="42.728660" lon="-5.790690">
        <ele>963.00</ele>
        <time>2020-08-20T14:20:15Z</time>
      </trkpt>
      <trkpt lat="42.728510" lon="-5.790780">
        <ele>963.00</ele>
        <time>2020-08-20T14:20:19Z</time>
      </trkpt>
      <trkpt lat="42.728440" lon="-5.790530">
        <ele>963.00</ele>
        <time>2020-08-20T14:20:24Z</time>
      </trkpt>
      <trkpt lat="42.728200" lon="-5.790210">
        <ele>963.00</ele>
        <time>2020-08-20T14:20:33Z</time>
      </trkpt>
      <trkpt lat="42.728070" lon="-5.790270">
        <ele>963.00</ele>
        <time>2020-08-20T14:20:37Z</time>
      </trkpt>
      <trkpt lat="42.727820" lon="-5.790400">
        <ele>963.00</ele>
        <time>2020-08-20T14:20:44Z</time>
      </trkpt>
      <trkpt lat="42.727640" lon="-5.790260">
        <ele>963.00</ele>
        <time>2020-08-20T14:20:50Z</time>
      </trkpt>
      <trkpt lat="42.727500" lon="-5.790170">
        <ele>963.00</ele>
        <time>2020-08-20T14:20:54Z</time>
      </trkpt>
      <trkpt lat="42.727420" lon="-5.790430">
        <ele>963.00</ele>
        <time>2020-08-20T14:20:59Z</time>
      </trkpt>
      <trkpt lat="42.727220" lon="-5.791420">
        <ele>966.00</ele>
        <time>2020-08-20T14:21:20Z</time>
      </trkpt>
      <trkpt lat="42.727130" lon="-5.791650">
        <ele>966.00</ele>
        <time>2020-08-20T14:21:25Z</time>
      </trkpt>
      <trkpt lat="42.727000" lon="-5.791790">
        <ele>966.00</ele>
        <time>2020-08-20T14:21:29Z</time>
      </trkpt>
      <trkpt lat="42.726580" lon="-5.792120">
        <ele>966.00</ele>
        <time>2020-08-20T14:21:42Z</time>
      </trkpt>
      <trkpt lat="42.726420" lon="-5.792240">
        <ele>966.00</ele>
        <time>2020-08-20T14:21:47Z</time>
      </trkpt>
      <trkpt lat="42.726280" lon="-5.792330">
        <ele>966.00</ele>
        <time>2020-08-20T14:21:51Z</time>
      </trkpt>
      <trkpt lat="42.725980" lon="-5.792430">
        <ele>954.00</ele>
        <time>2020-08-20T14:21:59Z</time>
      </trkpt>
      <trkpt lat="42.724730" lon="-5.792820">
        <ele>954.00</ele>
        <time>2020-08-20T14:22:34Z</time>
      </trkpt>
      <trkpt lat="42.724520" lon="-5.792890">
        <ele>954.00</ele>
        <time>2020-08-20T14:22:39Z</time>
      </trkpt>
      <trkpt lat="42.723950" lon="-5.792990">
        <ele>965.00</ele>
        <time>2020-08-20T14:22:55Z</time>
      </trkpt>
      <trkpt lat="42.723450" lon="-5.793190">
        <ele>965.00</ele>
        <time>2020-08-20T14:23:09Z</time>
      </trkpt>
      <trkpt lat="42.723200" lon="-5.793280">
        <ele>965.00</ele>
        <time>2020-08-20T14:23:16Z</time>
      </trkpt>
      <trkpt lat="42.723020" lon="-5.793290">
        <ele>965.00</ele>
        <time>2020-08-20T14:23:20Z</time>
      </trkpt>
      <trkpt lat="42.722830" lon="-5.793190">
        <ele>965.00</ele>
        <time>2020-08-20T14:23:26Z</time>
      </trkpt>
      <trkpt lat="42.722670" lon="-5.793090">
        <ele>965.00</ele>
        <time>2020-08-20T14:23:31Z</time>
      </trkpt>
      <trkpt lat="42.722500" lon="-5.793110">
        <ele>965.00</ele>
        <time>2020-08-20T14:23:35Z</time>
      </trkpt>
      <trkpt lat="42.722400" lon="-5.793180">
        <ele>965.00</ele>
        <time>2020-08-20T14:23:38Z</time>
      </trkpt>
      <trkpt lat="42.722310" lon="-5.793380">
        <ele>965.00</ele>
        <time>2020-08-20T14:23:43Z</time>
      </trkpt>
      <trkpt lat="42.722230" lon="-5.793630">
        <ele>965.00</ele>
        <time>2020-08-20T14:23:48Z</time>
      </trkpt>
      <trkpt lat="42.722120" lon="-5.793960">
        <ele>962.00</ele>
        <time>2020-08-20T14:23:55Z</time>
      </trkpt>
      <trkpt lat="42.722020" lon="-5.794110">
        <ele>962.00</ele>
        <time>2020-08-20T14:23:59Z</time>
      </trkpt>
      <trkpt lat="42.721900" lon="-5.794210">
        <ele>962.00</ele>
        <time>2020-08-20T14:24:03Z</time>
      </trkpt>
      <trkpt lat="42.721480" lon="-5.794480">
        <ele>962.00</ele>
        <time>2020-08-20T14:24:15Z</time>
      </trkpt>
      <trkpt lat="42.721060" lon="-5.794760">
        <ele>962.00</ele>
        <time>2020-08-20T14:24:28Z</time>
      </trkpt>
      <trkpt lat="42.720900" lon="-5.794850">
        <ele>962.00</ele>
        <time>2020-08-20T14:24:32Z</time>
      </trkpt>
      <trkpt lat="42.720770" lon="-5.794860">
        <ele>962.00</ele>
        <time>2020-08-20T14:24:36Z</time>
      </trkpt>
      <trkpt lat="42.720630" lon="-5.794840">
        <ele>962.00</ele>
        <time>2020-08-20T14:24:40Z</time>
      </trkpt>
      <trkpt lat="42.720510" lon="-5.794860">
        <ele>962.00</ele>
        <time>2020-08-20T14:24:43Z</time>
      </trkpt>
      <trkpt lat="42.720430" lon="-5.794930">
        <ele>962.00</ele>
        <time>2020-08-20T14:24:45Z</time>
      </trkpt>
      <trkpt lat="42.720340" lon="-5.795070">
        <ele>962.00</ele>
        <time>2020-08-20T14:24:49Z</time>
      </trkpt>
      <trkpt lat="42.720320" lon="-5.795120">
        <ele>962.00</ele>
        <time>2020-08-20T14:24:50Z</time>
      </trkpt>
      <trkpt lat="42.720100" lon="-5.795690">
        <ele>962.00</ele>
        <time>2020-08-20T14:25:03Z</time>
      </trkpt>
      <trkpt lat="42.719980" lon="-5.795830">
        <ele>966.00</ele>
        <time>2020-08-20T14:25:07Z</time>
      </trkpt>
      <trkpt lat="42.719690" lon="-5.796010">
        <ele>966.00</ele>
        <time>2020-08-20T14:25:16Z</time>
      </trkpt>
      <trkpt lat="42.719350" lon="-5.796220">
        <ele>966.00</ele>
        <time>2020-08-20T14:25:26Z</time>
      </trkpt>
      <trkpt lat="42.719180" lon="-5.796260">
        <ele>966.00</ele>
        <time>2020-08-20T14:25:30Z</time>
      </trkpt>
      <trkpt lat="42.719010" lon="-5.796250">
        <ele>966.00</ele>
        <time>2020-08-20T14:25:35Z</time>
      </trkpt>
      <trkpt lat="42.718900" lon="-5.796210">
        <ele>966.00</ele>
        <time>2020-08-20T14:25:38Z</time>
      </trkpt>
      <trkpt lat="42.718760" lon="-5.796240">
        <ele>966.00</ele>
        <time>2020-08-20T14:25:42Z</time>
      </trkpt>
      <trkpt lat="42.718650" lon="-5.796330">
        <ele>966.00</ele>
        <time>2020-08-20T14:25:45Z</time>
      </trkpt>
      <trkpt lat="42.718510" lon="-5.796580">
        <ele>966.00</ele>
        <time>2020-08-20T14:25:51Z</time>
      </trkpt>
      <trkpt lat="42.718290" lon="-5.796900">
        <ele>966.00</ele>
        <time>2020-08-20T14:26:00Z</time>
      </trkpt>
      <trkpt lat="42.718170" lon="-5.797040">
        <ele>966.00</ele>
        <time>2020-08-20T14:26:04Z</time>
      </trkpt>
      <trkpt lat="42.717710" lon="-5.797380">
        <ele>968.00</ele>
        <time>2020-08-20T14:26:18Z</time>
      </trkpt>
      <trkpt lat="42.717390" lon="-5.797590">
        <ele>968.00</ele>
        <time>2020-08-20T14:26:27Z</time>
      </trkpt>
      <trkpt lat="42.717280" lon="-5.797620">
        <ele>968.00</ele>
        <time>2020-08-20T14:26:30Z</time>
      </trkpt>
      <trkpt lat="42.717170" lon="-5.797620">
        <ele>968.00</ele>
        <time>2020-08-20T14:26:33Z</time>
      </trkpt>
      <trkpt lat="42.717060" lon="-5.797670">
        <ele>968.00</ele>
        <time>2020-08-20T14:26:36Z</time>
      </trkpt>
      <trkpt lat="42.716970" lon="-5.797790">
        <ele>968.00</ele>
        <time>2020-08-20T14:26:40Z</time>
      </trkpt>
      <trkpt lat="42.716890" lon="-5.797990">
        <ele>968.00</ele>
        <time>2020-08-20T14:26:44Z</time>
      </trkpt>
      <trkpt lat="42.716800" lon="-5.798230">
        <ele>968.00</ele>
        <time>2020-08-20T14:26:50Z</time>
      </trkpt>
      <trkpt lat="42.716670" lon="-5.798450">
        <ele>968.00</ele>
        <time>2020-08-20T14:26:55Z</time>
      </trkpt>
      <trkpt lat="42.716560" lon="-5.798540">
        <ele>968.00</ele>
        <time>2020-08-20T14:26:59Z</time>
      </trkpt>
      <trkpt lat="42.715900" lon="-5.798900">
        <ele>968.00</ele>
        <time>2020-08-20T14:27:18Z</time>
      </trkpt>
      <trkpt lat="42.715700" lon="-5.799010">
        <ele>968.00</ele>
        <time>2020-08-20T14:27:23Z</time>
      </trkpt>
      <trkpt lat="42.715580" lon="-5.799150">
        <ele>964.00</ele>
        <time>2020-08-20T14:27:28Z</time>
      </trkpt>
      <trkpt lat="42.715500" lon="-5.799390">
        <ele>964.00</ele>
        <time>2020-08-20T14:27:33Z</time>
      </trkpt>
      <trkpt lat="42.715490" lon="-5.799590">
        <ele>964.00</ele>
        <time>2020-08-20T14:27:37Z</time>
      </trkpt>
      <trkpt lat="42.715520" lon="-5.799870">
        <ele>964.00</ele>
        <time>2020-08-20T14:27:42Z</time>
      </trkpt>
      <trkpt lat="42.715540" lon="-5.800110">
        <ele>964.00</ele>
        <time>2020-08-20T14:27:47Z</time>
      </trkpt>
      <trkpt lat="42.715510" lon="-5.800290">
        <ele>964.00</ele>
        <time>2020-08-20T14:27:51Z</time>
      </trkpt>
      <trkpt lat="42.715450" lon="-5.800470">
        <ele>964.00</ele>
        <time>2020-08-20T14:27:54Z</time>
      </trkpt>
      <trkpt lat="42.715340" lon="-5.800600">
        <ele>964.00</ele>
        <time>2020-08-20T14:27:58Z</time>
      </trkpt>
      <trkpt lat="42.714950" lon="-5.800800">
        <ele>964.00</ele>
        <time>2020-08-20T14:28:09Z</time>
      </trkpt>
      <trkpt lat="42.714620" lon="-5.800960">
        <ele>964.00</ele>
        <time>2020-08-20T14:28:19Z</time>
      </trkpt>
      <trkpt lat="42.714420" lon="-5.801040">
        <ele>964.00</ele>
        <time>2020-08-20T14:28:24Z</time>
      </trkpt>
      <trkpt lat="42.714190" lon="-5.801050">
        <ele>964.00</ele>
        <time>2020-08-20T14:28:31Z</time>
      </trkpt>
      <trkpt lat="42.713970" lon="-5.801010">
        <ele>964.00</ele>
        <time>2020-08-20T14:28:36Z</time>
      </trkpt>
      <trkpt lat="42.713790" lon="-5.801020">
        <ele>962.00</ele>
        <time>2020-08-20T14:28:41Z</time>
      </trkpt>
      <trkpt lat="42.713530" lon="-5.801070">
        <ele>962.00</ele>
        <time>2020-08-20T14:28:48Z</time>
      </trkpt>
      <trkpt lat="42.713120" lon="-5.801110">
        <ele>962.00</ele>
        <time>2020-08-20T14:28:59Z</time>
      </trkpt>
      <trkpt lat="42.713050" lon="-5.801140">
        <ele>962.00</ele>
        <time>2020-08-20T14:29:01Z</time>
      </trkpt>
      <trkpt lat="42.713030" lon="-5.801220">
        <ele>962.00</ele>
        <time>2020-08-20T14:29:03Z</time>
      </trkpt>
      <trkpt lat="42.713060" lon="-5.801320">
        <ele>962.00</ele>
        <time>2020-08-20T14:29:05Z</time>
      </trkpt>
      <trkpt lat="42.713150" lon="-5.801400">
        <ele>962.00</ele>
        <time>2020-08-20T14:29:08Z</time>
      </trkpt>
      <trkpt lat="42.713370" lon="-5.801530">
        <ele>962.00</ele>
        <time>2020-08-20T14:29:14Z</time>
      </trkpt>
      <trkpt lat="42.713550" lon="-5.801750">
        <ele>962.00</ele>
        <time>2020-08-20T14:29:21Z</time>
      </trkpt>
      <trkpt lat="42.713690" lon="-5.801960">
        <ele>962.00</ele>
        <time>2020-08-20T14:29:26Z</time>
      </trkpt>
      <trkpt lat="42.713870" lon="-5.802220">
        <ele>962.00</ele>
        <time>2020-08-20T14:29:33Z</time>
      </trkpt>
      <trkpt lat="42.714030" lon="-5.802480">
        <ele>962.00</ele>
        <time>2020-08-20T14:29:40Z</time>
      </trkpt>
      <trkpt lat="42.714170" lon="-5.802580">
        <ele>962.00</ele>
        <time>2020-08-20T14:29:44Z</time>
      </trkpt>
      <trkpt lat="42.714570" lon="-5.802680">
        <ele>963.00</ele>
        <time>2020-08-20T14:29:55Z</time>
      </trkpt>
      <trkpt lat="42.714920" lon="-5.803090">
        <ele>963.00</ele>
        <time>2020-08-20T14:30:07Z</time>
      </trkpt>
      <trkpt lat="42.713070" lon="-5.805740">
        <ele>959.00</ele>
        <time>2020-08-20T14:31:19Z</time>
      </trkpt>
      <trkpt lat="42.712670" lon="-5.806280">
        <ele>959.00</ele>
        <time>2020-08-20T14:31:34Z</time>
      </trkpt>
      <trkpt lat="42.712460" lon="-5.806450">
        <ele>959.00</ele>
        <time>2020-08-20T14:31:41Z</time>
      </trkpt>
      <trkpt lat="42.712250" lon="-5.806550">
        <ele>959.00</ele>
        <time>2020-08-20T14:31:47Z</time>
      </trkpt>
      <trkpt lat="42.710880" lon="-5.806920">
        <ele>944.00</ele>
        <time>2020-08-20T14:32:24Z</time>
      </trkpt>
      <trkpt lat="42.710630" lon="-5.807000">
        <ele>944.00</ele>
        <time>2020-08-20T14:32:31Z</time>
      </trkpt>
      <trkpt lat="42.710710" lon="-5.807580">
        <ele>944.00</ele>
        <time>2020-08-20T14:32:42Z</time>
      </trkpt>
      <trkpt lat="42.710780" lon="-5.807800">
        <ele>944.00</ele>
        <time>2020-08-20T14:32:47Z</time>
      </trkpt>
      <trkpt lat="42.711110" lon="-5.808160">
        <ele>944.00</ele>
        <time>2020-08-20T14:32:58Z</time>
      </trkpt>
      <trkpt lat="42.711480" lon="-5.808990">
        <ele>943.00</ele>
        <time>2020-08-20T14:33:18Z</time>
      </trkpt>
      <trkpt lat="42.711710" lon="-5.809500">
        <ele>943.00</ele>
        <time>2020-08-20T14:33:29Z</time>
      </trkpt>
      <trkpt lat="42.711940" lon="-5.811020">
        <ele>943.00</ele>
        <time>2020-08-20T14:34:00Z</time>
      </trkpt>
      <trkpt lat="42.712010" lon="-5.811220">
        <ele>943.00</ele>
        <time>2020-08-20T14:34:04Z</time>
      </trkpt>
      <trkpt lat="42.712270" lon="-5.811530">
        <ele>943.00</ele>
        <time>2020-08-20T14:34:13Z</time>
      </trkpt>
      <trkpt lat="42.713100" lon="-5.812440">
        <ele>940.00</ele>
        <time>2020-08-20T14:34:42Z</time>
      </trkpt>
      <trkpt lat="42.713590" lon="-5.813020">
        <ele>940.00</ele>
        <time>2020-08-20T14:34:59Z</time>
      </trkpt>
      <trkpt lat="42.713820" lon="-5.813280">
        <ele>940.00</ele>
        <time>2020-08-20T14:35:07Z</time>
      </trkpt>
      <trkpt lat="42.714040" lon="-5.814070">
        <ele>934.00</ele>
        <time>2020-08-20T14:35:24Z</time>
      </trkpt>
      <trkpt lat="42.714180" lon="-5.814400">
        <ele>934.00</ele>
        <time>2020-08-20T14:35:31Z</time>
      </trkpt>
      <trkpt lat="42.714470" lon="-5.814760">
        <ele>934.00</ele>
        <time>2020-08-20T14:35:42Z</time>
      </trkpt>
      <trkpt lat="42.715180" lon="-5.815980">
        <ele>934.00</ele>
        <time>2020-08-20T14:36:12Z</time>
      </trkpt>
      <trkpt lat="42.715350" lon="-5.816110">
        <ele>934.00</ele>
        <time>2020-08-20T14:36:17Z</time>
      </trkpt>
      <trkpt lat="42.715500" lon="-5.816130">
        <ele>934.00</ele>
        <time>2020-08-20T14:36:22Z</time>
      </trkpt>
      <trkpt lat="42.715870" lon="-5.816020">
        <ele>934.00</ele>
        <time>2020-08-20T14:36:32Z</time>
      </trkpt>
      <trkpt lat="42.716020" lon="-5.816000">
        <ele>934.00</ele>
        <time>2020-08-20T14:36:36Z</time>
      </trkpt>
      <trkpt lat="42.716160" lon="-5.816100">
        <ele>934.00</ele>
        <time>2020-08-20T14:36:40Z</time>
      </trkpt>
      <trkpt lat="42.716680" lon="-5.816910">
        <ele>934.00</ele>
        <time>2020-08-20T14:37:01Z</time>
      </trkpt>
      <trkpt lat="42.716770" lon="-5.817200">
        <ele>934.00</ele>
        <time>2020-08-20T14:37:07Z</time>
      </trkpt>
      <trkpt lat="42.716820" lon="-5.818860">
        <ele>934.00</ele>
        <time>2020-08-20T14:37:40Z</time>
      </trkpt>
      <trkpt lat="42.716840" lon="-5.819500">
        <ele>934.00</ele>
        <time>2020-08-20T14:37:52Z</time>
      </trkpt>
      <trkpt lat="42.716840" lon="-5.819620">
        <ele>934.00</ele>
        <time>2020-08-20T14:37:55Z</time>
      </trkpt>
      <trkpt lat="42.716630" lon="-5.819880">
        <ele>934.00</ele>
        <time>2020-08-20T14:38:02Z</time>
      </trkpt>
      <trkpt lat="42.716300" lon="-5.819970">
        <ele>934.00</ele>
        <time>2020-08-20T14:38:11Z</time>
      </trkpt>
      <trkpt lat="42.716180" lon="-5.820080">
        <ele>934.00</ele>
        <time>2020-08-20T14:38:15Z</time>
      </trkpt>
      <trkpt lat="42.716100" lon="-5.820370">
        <ele>934.00</ele>
        <time>2020-08-20T14:38:21Z</time>
      </trkpt>
      <trkpt lat="42.715640" lon="-5.820900">
        <ele>934.00</ele>
        <time>2020-08-20T14:38:37Z</time>
      </trkpt>
      <trkpt lat="42.715430" lon="-5.821280">
        <ele>934.00</ele>
        <time>2020-08-20T14:38:47Z</time>
      </trkpt>
      <trkpt lat="42.715220" lon="-5.821420">
        <ele>936.00</ele>
        <time>2020-08-20T14:38:53Z</time>
      </trkpt>
      <trkpt lat="42.714870" lon="-5.821670">
        <ele>936.00</ele>
        <time>2020-08-20T14:39:03Z</time>
      </trkpt>
      <trkpt lat="42.714700" lon="-5.821810">
        <ele>936.00</ele>
        <time>2020-08-20T14:39:09Z</time>
      </trkpt>
      <trkpt lat="42.714240" lon="-5.822380">
        <ele>936.00</ele>
        <time>2020-08-20T14:39:25Z</time>
      </trkpt>
      <trkpt lat="42.714100" lon="-5.822520">
        <ele>936.00</ele>
        <time>2020-08-20T14:39:30Z</time>
      </trkpt>
      <trkpt lat="42.713730" lon="-5.822610">
        <ele>936.00</ele>
        <time>2020-08-20T14:39:40Z</time>
      </trkpt>
      <trkpt lat="42.713260" lon="-5.822860">
        <ele>935.00</ele>
        <time>2020-08-20T14:39:54Z</time>
      </trkpt>
      <trkpt lat="42.712920" lon="-5.823170">
        <ele>935.00</ele>
        <time>2020-08-20T14:40:05Z</time>
      </trkpt>
      <trkpt lat="42.712520" lon="-5.823540">
        <ele>935.00</ele>
        <time>2020-08-20T14:40:17Z</time>
      </trkpt>
      <trkpt lat="42.712340" lon="-5.823610">
        <ele>935.00</ele>
        <time>2020-08-20T14:40:22Z</time>
      </trkpt>
      <trkpt lat="42.712060" lon="-5.823640">
        <ele>935.00</ele>
        <time>2020-08-20T14:40:30Z</time>
      </trkpt>
      <trkpt lat="42.711220" lon="-5.824140">
        <ele>935.00</ele>
        <time>2020-08-20T14:40:54Z</time>
      </trkpt>
      <trkpt lat="42.711320" lon="-5.824640">
        <ele>934.00</ele>
        <time>2020-08-20T14:41:05Z</time>
      </trkpt>
      <trkpt lat="42.711380" lon="-5.824930">
        <ele>934.00</ele>
        <time>2020-08-20T14:41:11Z</time>
      </trkpt>
      <trkpt lat="42.711400" lon="-5.825270">
        <ele>934.00</ele>
        <time>2020-08-20T14:41:17Z</time>
      </trkpt>
      <trkpt lat="42.711340" lon="-5.825620">
        <ele>934.00</ele>
        <time>2020-08-20T14:41:24Z</time>
      </trkpt>
      <trkpt lat="42.711250" lon="-5.825890">
        <ele>934.00</ele>
        <time>2020-08-20T14:41:30Z</time>
      </trkpt>
      <trkpt lat="42.711090" lon="-5.826210">
        <ele>934.00</ele>
        <time>2020-08-20T14:41:38Z</time>
      </trkpt>
      <trkpt lat="42.711010" lon="-5.826580">
        <ele>934.00</ele>
        <time>2020-08-20T14:41:45Z</time>
      </trkpt>
      <trkpt lat="42.710910" lon="-5.827020">
        <ele>934.00</ele>
        <time>2020-08-20T14:41:54Z</time>
      </trkpt>
      <trkpt lat="42.710850" lon="-5.827360">
        <ele>934.00</ele>
        <time>2020-08-20T14:42:01Z</time>
      </trkpt>
      <trkpt lat="42.710780" lon="-5.827850">
        <ele>934.00</ele>
        <time>2020-08-20T14:42:11Z</time>
      </trkpt>
      <trkpt lat="42.710620" lon="-5.828410">
        <ele>932.00</ele>
        <time>2020-08-20T14:42:23Z</time>
      </trkpt>
      <trkpt lat="42.710450" lon="-5.828870">
        <ele>932.00</ele>
        <time>2020-08-20T14:42:33Z</time>
      </trkpt>
      <trkpt lat="42.710440" lon="-5.828910">
        <ele>932.00</ele>
        <time>2020-08-20T14:42:34Z</time>
      </trkpt>
      <trkpt lat="42.710400" lon="-5.829130">
        <ele>932.00</ele>
        <time>2020-08-20T14:42:38Z</time>
      </trkpt>
      <trkpt lat="42.710010" lon="-5.829170">
        <ele>932.00</ele>
        <time>2020-08-20T14:42:49Z</time>
      </trkpt>
      <trkpt lat="42.709320" lon="-5.829440">
        <ele>932.00</ele>
        <time>2020-08-20T14:43:08Z</time>
      </trkpt>
      <trkpt lat="42.708850" lon="-5.829490">
        <ele>931.00</ele>
        <time>2020-08-20T14:43:20Z</time>
      </trkpt>
      <trkpt lat="42.708650" lon="-5.829480">
        <ele>931.00</ele>
        <time>2020-08-20T14:43:26Z</time>
      </trkpt>
      <trkpt lat="42.708330" lon="-5.829640">
        <ele>931.00</ele>
        <time>2020-08-20T14:43:35Z</time>
      </trkpt>
      <trkpt lat="42.708090" lon="-5.829360">
        <ele>931.00</ele>
        <time>2020-08-20T14:43:43Z</time>
      </trkpt>
      <trkpt lat="42.707950" lon="-5.829430">
        <ele>931.00</ele>
        <time>2020-08-20T14:43:47Z</time>
      </trkpt>
      <trkpt lat="42.707800" lon="-5.829520">
        <ele>931.00</ele>
        <time>2020-08-20T14:43:52Z</time>
      </trkpt>
      <trkpt lat="42.707710" lon="-5.829510">
        <ele>931.00</ele>
        <time>2020-08-20T14:43:54Z</time>
      </trkpt>
      <trkpt lat="42.707520" lon="-5.829410">
        <ele>931.00</ele>
        <time>2020-08-20T14:44:00Z</time>
      </trkpt>
      <trkpt lat="42.707170" lon="-5.829350">
        <ele>931.00</ele>
        <time>2020-08-20T14:44:09Z</time>
      </trkpt>
      <trkpt lat="42.707000" lon="-5.829340">
        <ele>931.00</ele>
        <time>2020-08-20T14:44:13Z</time>
      </trkpt>
      <trkpt lat="42.706800" lon="-5.829260">
        <ele>931.00</ele>
        <time>2020-08-20T14:44:19Z</time>
      </trkpt>
      <trkpt lat="42.706560" lon="-5.829070">
        <ele>931.00</ele>
        <time>2020-08-20T14:44:26Z</time>
      </trkpt>
      <trkpt lat="42.706040" lon="-5.828640">
        <ele>932.00</ele>
        <time>2020-08-20T14:44:43Z</time>
      </trkpt>
      <trkpt lat="42.705680" lon="-5.828310">
        <ele>932.00</ele>
        <time>2020-08-20T14:44:54Z</time>
      </trkpt>
      <trkpt lat="42.705540" lon="-5.828090">
        <ele>932.00</ele>
        <time>2020-08-20T14:45:00Z</time>
      </trkpt>
      <trkpt lat="42.705450" lon="-5.828040">
        <ele>932.00</ele>
        <time>2020-08-20T14:45:03Z</time>
      </trkpt>
      <trkpt lat="42.705250" lon="-5.827990">
        <ele>932.00</ele>
        <time>2020-08-20T14:45:08Z</time>
      </trkpt>
      <trkpt lat="42.704830" lon="-5.827920">
        <ele>932.00</ele>
        <time>2020-08-20T14:45:19Z</time>
      </trkpt>
      <trkpt lat="42.704150" lon="-5.827860">
        <ele>930.00</ele>
        <time>2020-08-20T14:45:38Z</time>
      </trkpt>
      <trkpt lat="42.703790" lon="-5.827510">
        <ele>930.00</ele>
        <time>2020-08-20T14:45:49Z</time>
      </trkpt>
      <trkpt lat="42.703550" lon="-5.827170">
        <ele>930.00</ele>
        <time>2020-08-20T14:45:59Z</time>
      </trkpt>
      <trkpt lat="42.703400" lon="-5.827160">
        <ele>930.00</ele>
        <time>2020-08-20T14:46:03Z</time>
      </trkpt>
      <trkpt lat="42.702280" lon="-5.827580">
        <ele>930.00</ele>
        <time>2020-08-20T14:46:34Z</time>
      </trkpt>
      <trkpt lat="42.702070" lon="-5.827610">
        <ele>930.00</ele>
        <time>2020-08-20T14:46:39Z</time>
      </trkpt>
      <trkpt lat="42.701860" lon="-5.827560">
        <ele>935.00</ele>
        <time>2020-08-20T14:46:45Z</time>
      </trkpt>
      <trkpt lat="42.701690" lon="-5.827600">
        <ele>935.00</ele>
        <time>2020-08-20T14:46:50Z</time>
      </trkpt>
      <trkpt lat="42.701530" lon="-5.827640">
        <ele>935.00</ele>
        <time>2020-08-20T14:46:54Z</time>
      </trkpt>
      <trkpt lat="42.701360" lon="-5.827640">
        <ele>935.00</ele>
        <time>2020-08-20T14:46:59Z</time>
      </trkpt>
      <trkpt lat="42.701090" lon="-5.827720">
        <ele>935.00</ele>
        <time>2020-08-20T14:47:06Z</time>
      </trkpt>
      <trkpt lat="42.700740" lon="-5.827930">
        <ele>935.00</ele>
        <time>2020-08-20T14:47:16Z</time>
      </trkpt>
      <trkpt lat="42.700350" lon="-5.828110">
        <ele>935.00</ele>
        <time>2020-08-20T14:47:27Z</time>
      </trkpt>
      <trkpt lat="42.700160" lon="-5.828180">
        <ele>935.00</ele>
        <time>2020-08-20T14:47:32Z</time>
      </trkpt>
      <trkpt lat="42.699920" lon="-5.828230">
        <ele>935.00</ele>
        <time>2020-08-20T14:47:39Z</time>
      </trkpt>
      <trkpt lat="42.699610" lon="-5.828380">
        <ele>935.00</ele>
        <time>2020-08-20T14:47:48Z</time>
      </trkpt>
      <trkpt lat="42.699130" lon="-5.828440">
        <ele>925.00</ele>
        <time>2020-08-20T14:48:01Z</time>
      </trkpt>
      <trkpt lat="42.698510" lon="-5.828640">
        <ele>925.00</ele>
        <time>2020-08-20T14:48:18Z</time>
      </trkpt>
      <trkpt lat="42.697300" lon="-5.828660">
        <ele>925.00</ele>
        <time>2020-08-20T14:48:50Z</time>
      </trkpt>
      <trkpt lat="42.697110" lon="-5.828670">
        <ele>925.00</ele>
        <time>2020-08-20T14:48:55Z</time>
      </trkpt>
      <trkpt lat="42.696920" lon="-5.828570">
        <ele>925.00</ele>
        <time>2020-08-20T14:49:00Z</time>
      </trkpt>
      <trkpt lat="42.696670" lon="-5.828510">
        <ele>927.00</ele>
        <time>2020-08-20T14:49:07Z</time>
      </trkpt>
      <trkpt lat="42.696380" lon="-5.828460">
        <ele>927.00</ele>
        <time>2020-08-20T14:49:15Z</time>
      </trkpt>
      <trkpt lat="42.695990" lon="-5.828420">
        <ele>927.00</ele>
        <time>2020-08-20T14:49:25Z</time>
      </trkpt>
      <trkpt lat="42.695250" lon="-5.828540">
        <ele>927.00</ele>
        <time>2020-08-20T14:49:45Z</time>
      </trkpt>
      <trkpt lat="42.694370" lon="-5.828740">
        <ele>927.00</ele>
        <time>2020-08-20T14:50:09Z</time>
      </trkpt>
      <trkpt lat="42.693670" lon="-5.828920">
        <ele>927.00</ele>
        <time>2020-08-20T14:50:28Z</time>
      </trkpt>
      <trkpt lat="42.693340" lon="-5.828930">
        <ele>927.00</ele>
        <time>2020-08-20T14:50:37Z</time>
      </trkpt>
      <trkpt lat="42.692800" lon="-5.828820">
        <ele>927.00</ele>
        <time>2020-08-20T14:50:52Z</time>
      </trkpt>
      <trkpt lat="42.692650" lon="-5.828820">
        <ele>927.00</ele>
        <time>2020-08-20T14:50:56Z</time>
      </trkpt>
      <trkpt lat="42.692370" lon="-5.828970">
        <ele>927.00</ele>
        <time>2020-08-20T14:51:04Z</time>
      </trkpt>
      <trkpt lat="42.692010" lon="-5.829060">
        <ele>927.00</ele>
        <time>2020-08-20T14:51:13Z</time>
      </trkpt>
      <trkpt lat="42.691550" lon="-5.829040">
        <ele>927.00</ele>
        <time>2020-08-20T14:51:26Z</time>
      </trkpt>
      <trkpt lat="42.691370" lon="-5.829060">
        <ele>927.00</ele>
        <time>2020-08-20T14:51:31Z</time>
      </trkpt>
      <trkpt lat="42.691080" lon="-5.829150">
        <ele>927.00</ele>
        <time>2020-08-20T14:51:39Z</time>
      </trkpt>
      <trkpt lat="42.690610" lon="-5.829440">
        <ele>927.00</ele>
        <time>2020-08-20T14:51:52Z</time>
      </trkpt>
      <trkpt lat="42.689990" lon="-5.829860">
        <ele>927.00</ele>
        <time>2020-08-20T14:52:11Z</time>
      </trkpt>
      <trkpt lat="42.689610" lon="-5.830010">
        <ele>927.00</ele>
        <time>2020-08-20T14:52:21Z</time>
      </trkpt>
      <trkpt lat="42.689290" lon="-5.830140">
        <ele>927.00</ele>
        <time>2020-08-20T14:52:30Z</time>
      </trkpt>
      <trkpt lat="42.689110" lon="-5.830240">
        <ele>925.00</ele>
        <time>2020-08-20T14:52:36Z</time>
      </trkpt>
      <trkpt lat="42.688790" lon="-5.830500">
        <ele>925.00</ele>
        <time>2020-08-20T14:52:46Z</time>
      </trkpt>
      <trkpt lat="42.688280" lon="-5.831040">
        <ele>925.00</ele>
        <time>2020-08-20T14:53:03Z</time>
      </trkpt>
      <trkpt lat="42.683320" lon="-5.831400">
        <ele>919.00</ele>
        <time>2020-08-20T14:55:15Z</time>
      </trkpt>
      <trkpt lat="42.683210" lon="-5.829220">
        <ele>919.00</ele>
        <time>2020-08-20T14:55:58Z</time>
      </trkpt>
      <trkpt lat="42.678180" lon="-5.829500">
        <ele>915.00</ele>
        <time>2020-08-20T14:58:13Z</time>
      </trkpt>
      <trkpt lat="42.677970" lon="-5.829510">
        <ele>915.00</ele>
        <time>2020-08-20T14:58:19Z</time>
      </trkpt>
      <trkpt lat="42.675440" lon="-5.829130">
        <ele>914.00</ele>
        <time>2020-08-20T14:59:27Z</time>
      </trkpt>
      <trkpt lat="42.674130" lon="-5.828910">
        <ele>914.00</ele>
        <time>2020-08-20T15:00:02Z</time>
      </trkpt>
      <trkpt lat="42.673910" lon="-5.828900">
        <ele>914.00</ele>
        <time>2020-08-20T15:00:08Z</time>
      </trkpt>
      <trkpt lat="42.673830" lon="-5.828900">
        <ele>914.00</ele>
        <time>2020-08-20T15:00:10Z</time>
      </trkpt>
      <trkpt lat="42.672820" lon="-5.828930">
        <ele>913.00</ele>
        <time>2020-08-20T15:00:37Z</time>
      </trkpt>
      <trkpt lat="42.671870" lon="-5.828180">
        <ele>913.00</ele>
        <time>2020-08-20T15:01:06Z</time>
      </trkpt>
      <trkpt lat="42.669930" lon="-5.827710">
        <ele>912.00</ele>
        <time>2020-08-20T15:01:59Z</time>
      </trkpt>
      <trkpt lat="42.669330" lon="-5.827600">
        <ele>912.00</ele>
        <time>2020-08-20T15:02:15Z</time>
      </trkpt>
      <trkpt lat="42.666520" lon="-5.827550">
        <ele>910.00</ele>
        <time>2020-08-20T15:03:30Z</time>
      </trkpt>
      <trkpt lat="42.665640" lon="-5.827220">
        <ele>909.00</ele>
        <time>2020-08-20T15:03:54Z</time>
      </trkpt>
      <trkpt lat="42.665500" lon="-5.827170">
        <ele>909.00</ele>
        <time>2020-08-20T15:03:58Z</time>
      </trkpt>
      <trkpt lat="42.665370" lon="-5.827750">
        <ele>909.00</ele>
        <time>2020-08-20T15:04:10Z</time>
      </trkpt>
      <trkpt lat="42.665170" lon="-5.828110">
        <ele>909.00</ele>
        <time>2020-08-20T15:04:19Z</time>
      </trkpt>
      <trkpt lat="42.665080" lon="-5.828320">
        <ele>909.00</ele>
        <time>2020-08-20T15:04:24Z</time>
      </trkpt>
      <trkpt lat="42.664800" lon="-5.829240">
        <ele>909.00</ele>
        <time>2020-08-20T15:04:43Z</time>
      </trkpt>
      <trkpt lat="42.664510" lon="-5.829460">
        <ele>909.00</ele>
        <time>2020-08-20T15:04:52Z</time>
      </trkpt>
      <trkpt lat="42.664470" lon="-5.829460">
        <ele>909.00</ele>
        <time>2020-08-20T15:04:53Z</time>
      </trkpt>
      <trkpt lat="42.664310" lon="-5.829420">
        <ele>909.00</ele>
        <time>2020-08-20T15:04:58Z</time>
      </trkpt>
      <trkpt lat="42.664290" lon="-5.829640">
        <ele>909.00</ele>
        <time>2020-08-20T15:05:02Z</time>
      </trkpt>
      <trkpt lat="42.664300" lon="-5.829910">
        <ele>909.00</ele>
        <time>2020-08-20T15:05:07Z</time>
      </trkpt>
      <trkpt lat="42.664370" lon="-5.830920">
        <ele>909.00</ele>
        <time>2020-08-20T15:05:27Z</time>
      </trkpt>
      <trkpt lat="42.664380" lon="-5.831050">
        <ele>909.00</ele>
        <time>2020-08-20T15:05:30Z</time>
      </trkpt>
      <trkpt lat="42.663900" lon="-5.831250">
        <ele>909.00</ele>
        <time>2020-08-20T15:05:43Z</time>
      </trkpt>
      <trkpt lat="42.663600" lon="-5.831390">
        <ele>909.00</ele>
        <time>2020-08-20T15:05:52Z</time>
      </trkpt>
      <trkpt lat="42.663460" lon="-5.831410">
        <ele>909.00</ele>
        <time>2020-08-20T15:05:56Z</time>
      </trkpt>
      <trkpt lat="42.663190" lon="-5.831340">
        <ele>909.00</ele>
        <time>2020-08-20T15:06:03Z</time>
      </trkpt>
      <trkpt lat="42.662970" lon="-5.831240">
        <ele>909.00</ele>
        <time>2020-08-20T15:06:09Z</time>
      </trkpt>
      <trkpt lat="42.662660" lon="-5.831120">
        <ele>907.00</ele>
        <time>2020-08-20T15:06:18Z</time>
      </trkpt>
      <trkpt lat="42.662470" lon="-5.831130">
        <ele>907.00</ele>
        <time>2020-08-20T15:06:23Z</time>
      </trkpt>
      <trkpt lat="42.662340" lon="-5.831190">
        <ele>907.00</ele>
        <time>2020-08-20T15:06:26Z</time>
      </trkpt>
      <trkpt lat="42.662260" lon="-5.831290">
        <ele>907.00</ele>
        <time>2020-08-20T15:06:29Z</time>
      </trkpt>
      <trkpt lat="42.662030" lon="-5.831640">
        <ele>907.00</ele>
        <time>2020-08-20T15:06:39Z</time>
      </trkpt>
      <trkpt lat="42.661610" lon="-5.832340">
        <ele>907.00</ele>
        <time>2020-08-20T15:06:56Z</time>
      </trkpt>
      <trkpt lat="42.661470" lon="-5.832560">
        <ele>907.00</ele>
        <time>2020-08-20T15:07:02Z</time>
      </trkpt>
      <trkpt lat="42.661380" lon="-5.832650">
        <ele>907.00</ele>
        <time>2020-08-20T15:07:05Z</time>
      </trkpt>
      <trkpt lat="42.661230" lon="-5.832770">
        <ele>907.00</ele>
        <time>2020-08-20T15:07:10Z</time>
      </trkpt>
      <trkpt lat="42.661080" lon="-5.832820">
        <ele>908.00</ele>
        <time>2020-08-20T15:07:14Z</time>
      </trkpt>
      <trkpt lat="42.660730" lon="-5.832850">
        <ele>908.00</ele>
        <time>2020-08-20T15:07:23Z</time>
      </trkpt>
      <trkpt lat="42.660680" lon="-5.832820">
        <ele>908.00</ele>
        <time>2020-08-20T15:07:25Z</time>
      </trkpt>
      <trkpt lat="42.660660" lon="-5.832760">
        <ele>908.00</ele>
        <time>2020-08-20T15:07:26Z</time>
      </trkpt>
      <trkpt lat="42.660660" lon="-5.832710">
        <ele>908.00</ele>
        <time>2020-08-20T15:07:27Z</time>
      </trkpt>
      <trkpt lat="42.660660" lon="-5.832630">
        <ele>908.00</ele>
        <time>2020-08-20T15:07:28Z</time>
      </trkpt>
      <trkpt lat="42.660630" lon="-5.832570">
        <ele>908.00</ele>
        <time>2020-08-20T15:07:30Z</time>
      </trkpt>
      <trkpt lat="42.660410" lon="-5.832450">
        <ele>908.00</ele>
        <time>2020-08-20T15:07:36Z</time>
      </trkpt>
      <trkpt lat="42.660110" lon="-5.832220">
        <ele>908.00</ele>
        <time>2020-08-20T15:07:45Z</time>
      </trkpt>
      <trkpt lat="42.659940" lon="-5.832110">
        <ele>908.00</ele>
        <time>2020-08-20T15:07:50Z</time>
      </trkpt>
      <trkpt lat="42.659540" lon="-5.832040">
        <ele>908.00</ele>
        <time>2020-08-20T15:08:01Z</time>
      </trkpt>
      <trkpt lat="42.659320" lon="-5.832030">
        <ele>908.00</ele>
        <time>2020-08-20T15:08:07Z</time>
      </trkpt>
      <trkpt lat="42.659150" lon="-5.832070">
        <ele>908.00</ele>
        <time>2020-08-20T15:08:12Z</time>
      </trkpt>
      <trkpt lat="42.659050" lon="-5.832120">
        <ele>908.00</ele>
        <time>2020-08-20T15:08:15Z</time>
      </trkpt>
      <trkpt lat="42.658810" lon="-5.832350">
        <ele>909.00</ele>
        <time>2020-08-20T15:08:22Z</time>
      </trkpt>
      <trkpt lat="42.658660" lon="-5.832520">
        <ele>909.00</ele>
        <time>2020-08-20T15:08:28Z</time>
      </trkpt>
      <trkpt lat="42.657250" lon="-5.832390">
        <ele>909.00</ele>
        <time>2020-08-20T15:09:05Z</time>
      </trkpt>
      <trkpt lat="42.655310" lon="-5.832220">
        <ele>908.00</ele>
        <time>2020-08-20T15:09:57Z</time>
      </trkpt>
      <trkpt lat="42.654840" lon="-5.832320">
        <ele>908.00</ele>
        <time>2020-08-20T15:10:10Z</time>
      </trkpt>
      <trkpt lat="42.652710" lon="-5.832780">
        <ele>907.00</ele>
        <time>2020-08-20T15:11:08Z</time>
      </trkpt>
      <trkpt lat="42.651620" lon="-5.833040">
        <ele>907.00</ele>
        <time>2020-08-20T15:11:37Z</time>
      </trkpt>
      <trkpt lat="42.651420" lon="-5.833220">
        <ele>909.00</ele>
        <time>2020-08-20T15:11:44Z</time>
      </trkpt>
      <trkpt lat="42.650150" lon="-5.834870">
        <ele>909.00</ele>
        <time>2020-08-20T15:12:31Z</time>
      </trkpt>
      <trkpt lat="42.649990" lon="-5.835030">
        <ele>909.00</ele>
        <time>2020-08-20T15:12:36Z</time>
      </trkpt>
      <trkpt lat="42.649770" lon="-5.835190">
        <ele>909.00</ele>
        <time>2020-08-20T15:12:43Z</time>
      </trkpt>
      <trkpt lat="42.649500" lon="-5.835420">
        <ele>906.00</ele>
        <time>2020-08-20T15:12:51Z</time>
      </trkpt>
      <trkpt lat="42.649540" lon="-5.835530">
        <ele>906.00</ele>
        <time>2020-08-20T15:12:53Z</time>
      </trkpt>
      <trkpt lat="42.649600" lon="-5.835680">
        <ele>906.00</ele>
        <time>2020-08-20T15:12:57Z</time>
      </trkpt>
      <trkpt lat="42.649460" lon="-5.836140">
        <ele>906.00</ele>
        <time>2020-08-20T15:13:07Z</time>
      </trkpt>
      <trkpt lat="42.649140" lon="-5.836910">
        <ele>906.00</ele>
        <time>2020-08-20T15:13:24Z</time>
      </trkpt>
      <trkpt lat="42.648890" lon="-5.837530">
        <ele>906.00</ele>
        <time>2020-08-20T15:13:38Z</time>
      </trkpt>
      <trkpt lat="42.648560" lon="-5.838360">
        <ele>906.00</ele>
        <time>2020-08-20T15:13:56Z</time>
      </trkpt>
      <trkpt lat="42.648500" lon="-5.838710">
        <ele>904.00</ele>
        <time>2020-08-20T15:14:03Z</time>
      </trkpt>
      <trkpt lat="42.648440" lon="-5.839080">
        <ele>904.00</ele>
        <time>2020-08-20T15:14:11Z</time>
      </trkpt>
      <trkpt lat="42.648580" lon="-5.839910">
        <ele>904.00</ele>
        <time>2020-08-20T15:14:28Z</time>
      </trkpt>
      <trkpt lat="42.648590" lon="-5.839990">
        <ele>904.00</ele>
        <time>2020-08-20T15:14:29Z</time>
      </trkpt>
      <trkpt lat="42.648660" lon="-5.840030">
        <ele>904.00</ele>
        <time>2020-08-20T15:14:31Z</time>
      </trkpt>
      <trkpt lat="42.648730" lon="-5.840950">
        <ele>904.00</ele>
        <time>2020-08-20T15:14:49Z</time>
      </trkpt>
      <trkpt lat="42.648510" lon="-5.841000">
        <ele>904.00</ele>
        <time>2020-08-20T15:14:55Z</time>
      </trkpt>
      <trkpt lat="42.648470" lon="-5.841130">
        <ele>904.00</ele>
        <time>2020-08-20T15:14:58Z</time>
      </trkpt>
      <trkpt lat="42.648450" lon="-5.841510">
        <ele>904.00</ele>
        <time>2020-08-20T15:15:06Z</time>
      </trkpt>
      <trkpt lat="42.648470" lon="-5.841870">
        <ele>905.00</ele>
        <time>2020-08-20T15:15:13Z</time>
      </trkpt>
      <trkpt lat="42.648470" lon="-5.842310">
        <ele>905.00</ele>
        <time>2020-08-20T15:15:21Z</time>
      </trkpt>
      <trkpt lat="42.648450" lon="-5.842550">
        <ele>905.00</ele>
        <time>2020-08-20T15:15:26Z</time>
      </trkpt>
      <trkpt lat="42.648370" lon="-5.843000">
        <ele>905.00</ele>
        <time>2020-08-20T15:15:35Z</time>
      </trkpt>
      <trkpt lat="42.648220" lon="-5.843030">
        <ele>905.00</ele>
        <time>2020-08-20T15:15:39Z</time>
      </trkpt>
      <trkpt lat="42.648030" lon="-5.843200">
        <ele>905.00</ele>
        <time>2020-08-20T15:15:45Z</time>
      </trkpt>
      <trkpt lat="42.647460" lon="-5.844110">
        <ele>905.00</ele>
        <time>2020-08-20T15:16:09Z</time>
      </trkpt>
      <trkpt lat="42.647110" lon="-5.844550">
        <ele>905.00</ele>
        <time>2020-08-20T15:16:22Z</time>
      </trkpt>
      <trkpt lat="42.647050" lon="-5.844790">
        <ele>905.00</ele>
        <time>2020-08-20T15:16:27Z</time>
      </trkpt>
      <trkpt lat="42.647090" lon="-5.845060">
        <ele>905.00</ele>
        <time>2020-08-20T15:16:32Z</time>
      </trkpt>
      <trkpt lat="42.647280" lon="-5.845530">
        <ele>905.00</ele>
        <time>2020-08-20T15:16:43Z</time>
      </trkpt>
      <trkpt lat="42.647490" lon="-5.845840">
        <ele>905.00</ele>
        <time>2020-08-20T15:16:51Z</time>
      </trkpt>
      <trkpt lat="42.647630" lon="-5.846130">
        <ele>905.00</ele>
        <time>2020-08-20T15:16:58Z</time>
      </trkpt>
      <trkpt lat="42.647860" lon="-5.846450">
        <ele>905.00</ele>
        <time>2020-08-20T15:17:06Z</time>
      </trkpt>
      <trkpt lat="42.647890" lon="-5.847070">
        <ele>905.00</ele>
        <time>2020-08-20T15:17:19Z</time>
      </trkpt>
      <trkpt lat="42.647130" lon="-5.849810">
        <ele>910.00</ele>
        <time>2020-08-20T15:18:16Z</time>
      </trkpt>
      <trkpt lat="42.646790" lon="-5.850430">
        <ele>910.00</ele>
        <time>2020-08-20T15:18:31Z</time>
      </trkpt>
      <trkpt lat="42.646450" lon="-5.850990">
        <ele>930.00</ele>
        <time>2020-08-20T15:18:46Z</time>
      </trkpt>
      <trkpt lat="42.645600" lon="-5.852630">
        <ele>930.00</ele>
        <time>2020-08-20T15:19:25Z</time>
      </trkpt>
      <trkpt lat="42.645490" lon="-5.852960">
        <ele>930.00</ele>
        <time>2020-08-20T15:19:32Z</time>
      </trkpt>
      <trkpt lat="42.645380" lon="-5.853330">
        <ele>965.00</ele>
        <time>2020-08-20T15:19:40Z</time>
      </trkpt>
      <trkpt lat="42.645090" lon="-5.853720">
        <ele>965.00</ele>
        <time>2020-08-20T15:19:51Z</time>
      </trkpt>
      <trkpt lat="42.644540" lon="-5.854210">
        <ele>965.00</ele>
        <time>2020-08-20T15:20:09Z</time>
      </trkpt>
      <trkpt lat="42.644280" lon="-5.854380">
        <ele>965.00</ele>
        <time>2020-08-20T15:20:16Z</time>
      </trkpt>
      <trkpt lat="42.643990" lon="-5.854630">
        <ele>965.00</ele>
        <time>2020-08-20T15:20:25Z</time>
      </trkpt>
      <trkpt lat="42.643960" lon="-5.854820">
        <ele>965.00</ele>
        <time>2020-08-20T15:20:29Z</time>
      </trkpt>
      <trkpt lat="42.643970" lon="-5.855630">
        <ele>973.00</ele>
        <time>2020-08-20T15:20:45Z</time>
      </trkpt>
      <trkpt lat="42.643950" lon="-5.855900">
        <ele>973.00</ele>
        <time>2020-08-20T15:20:50Z</time>
      </trkpt>
      <trkpt lat="42.643570" lon="-5.857330">
        <ele>973.00</ele>
        <time>2020-08-20T15:21:20Z</time>
      </trkpt>
      <trkpt lat="42.643680" lon="-5.857700">
        <ele>973.00</ele>
        <time>2020-08-20T15:21:28Z</time>
      </trkpt>
      <trkpt lat="42.643700" lon="-5.858180">
        <ele>973.00</ele>
        <time>2020-08-20T15:21:38Z</time>
      </trkpt>
      <trkpt lat="42.643600" lon="-5.858980">
        <ele>973.00</ele>
        <time>2020-08-20T15:21:54Z</time>
      </trkpt>
      <trkpt lat="42.643590" lon="-5.859620">
        <ele>974.00</ele>
        <time>2020-08-20T15:22:06Z</time>
      </trkpt>
      <trkpt lat="42.643570" lon="-5.859860">
        <ele>974.00</ele>
        <time>2020-08-20T15:22:11Z</time>
      </trkpt>
      <trkpt lat="42.643640" lon="-5.860130">
        <ele>974.00</ele>
        <time>2020-08-20T15:22:17Z</time>
      </trkpt>
      <trkpt lat="42.643800" lon="-5.860420">
        <ele>974.00</ele>
        <time>2020-08-20T15:22:24Z</time>
      </trkpt>
      <trkpt lat="42.644090" lon="-5.861210">
        <ele>974.00</ele>
        <time>2020-08-20T15:22:41Z</time>
      </trkpt>
      <trkpt lat="42.644170" lon="-5.862000">
        <ele>974.00</ele>
        <time>2020-08-20T15:22:57Z</time>
      </trkpt>
      <trkpt lat="42.644320" lon="-5.862550">
        <ele>960.00</ele>
        <time>2020-08-20T15:23:08Z</time>
      </trkpt>
      <trkpt lat="42.644360" lon="-5.863210">
        <ele>960.00</ele>
        <time>2020-08-20T15:23:21Z</time>
      </trkpt>
      <trkpt lat="42.644260" lon="-5.863990">
        <ele>960.00</ele>
        <time>2020-08-20T15:23:37Z</time>
      </trkpt>
      <trkpt lat="42.644270" lon="-5.864190">
        <ele>960.00</ele>
        <time>2020-08-20T15:23:41Z</time>
      </trkpt>
      <trkpt lat="42.644210" lon="-5.864400">
        <ele>960.00</ele>
        <time>2020-08-20T15:23:45Z</time>
      </trkpt>
      <trkpt lat="42.644120" lon="-5.865210">
        <ele>960.00</ele>
        <time>2020-08-20T15:24:01Z</time>
      </trkpt>
      <trkpt lat="42.643990" lon="-5.865820">
        <ele>958.00</ele>
        <time>2020-08-20T15:24:14Z</time>
      </trkpt>
      <trkpt lat="42.643930" lon="-5.866160">
        <ele>958.00</ele>
        <time>2020-08-20T15:24:21Z</time>
      </trkpt>
      <trkpt lat="42.643850" lon="-5.866500">
        <ele>958.00</ele>
        <time>2020-08-20T15:24:28Z</time>
      </trkpt>
      <trkpt lat="42.643690" lon="-5.867010">
        <ele>958.00</ele>
        <time>2020-08-20T15:24:39Z</time>
      </trkpt>
      <trkpt lat="42.643410" lon="-5.867700">
        <ele>958.00</ele>
        <time>2020-08-20T15:24:54Z</time>
      </trkpt>
      <trkpt lat="42.643250" lon="-5.868250">
        <ele>958.00</ele>
        <time>2020-08-20T15:25:06Z</time>
      </trkpt>
      <trkpt lat="42.643160" lon="-5.868570">
        <ele>958.00</ele>
        <time>2020-08-20T15:25:12Z</time>
      </trkpt>
      <trkpt lat="42.643030" lon="-5.868890">
        <ele>958.00</ele>
        <time>2020-08-20T15:25:20Z</time>
      </trkpt>
      <trkpt lat="42.643020" lon="-5.869360">
        <ele>976.00</ele>
        <time>2020-08-20T15:25:29Z</time>
      </trkpt>
      <trkpt lat="42.642920" lon="-5.869590">
        <ele>976.00</ele>
        <time>2020-08-20T15:25:34Z</time>
      </trkpt>
      <trkpt lat="42.642700" lon="-5.869790">
        <ele>976.00</ele>
        <time>2020-08-20T15:25:41Z</time>
      </trkpt>
      <trkpt lat="42.642540" lon="-5.869970">
        <ele>976.00</ele>
        <time>2020-08-20T15:25:47Z</time>
      </trkpt>
      <trkpt lat="42.642450" lon="-5.870210">
        <ele>976.00</ele>
        <time>2020-08-20T15:25:52Z</time>
      </trkpt>
      <trkpt lat="42.642360" lon="-5.870550">
        <ele>976.00</ele>
        <time>2020-08-20T15:25:59Z</time>
      </trkpt>
      <trkpt lat="42.642330" lon="-5.870850">
        <ele>976.00</ele>
        <time>2020-08-20T15:26:05Z</time>
      </trkpt>
      <trkpt lat="42.642330" lon="-5.871180">
        <ele>976.00</ele>
        <time>2020-08-20T15:26:12Z</time>
      </trkpt>
      <trkpt lat="42.642380" lon="-5.871440">
        <ele>976.00</ele>
        <time>2020-08-20T15:26:17Z</time>
      </trkpt>
      <trkpt lat="42.642430" lon="-5.871640">
        <ele>976.00</ele>
        <time>2020-08-20T15:26:21Z</time>
      </trkpt>
      <trkpt lat="42.642410" lon="-5.871760">
        <ele>976.00</ele>
        <time>2020-08-20T15:26:23Z</time>
      </trkpt>
      <trkpt lat="42.641880" lon="-5.872280">
        <ele>985.00</ele>
        <time>2020-08-20T15:26:41Z</time>
      </trkpt>
      <trkpt lat="42.641730" lon="-5.872240">
        <ele>985.00</ele>
        <time>2020-08-20T15:26:45Z</time>
      </trkpt>
      <trkpt lat="42.641470" lon="-5.872460">
        <ele>985.00</ele>
        <time>2020-08-20T15:26:53Z</time>
      </trkpt>
      <trkpt lat="42.639750" lon="-5.873700">
        <ele>985.00</ele>
        <time>2020-08-20T15:27:45Z</time>
      </trkpt>
      <trkpt lat="42.640370" lon="-5.878080">
        <ele>985.00</ele>
        <time>2020-08-20T15:29:13Z</time>
      </trkpt>
      <trkpt lat="42.640580" lon="-5.879360">
        <ele>985.00</ele>
        <time>2020-08-20T15:29:39Z</time>
      </trkpt>
      <trkpt lat="42.640680" lon="-5.879400">
        <ele>985.00</ele>
        <time>2020-08-20T15:29:41Z</time>
      </trkpt>
      <trkpt lat="42.641850" lon="-5.879160">
        <ele>988.00</ele>
        <time>2020-08-20T15:30:13Z</time>
      </trkpt>
      <trkpt lat="42.641910" lon="-5.879230">
        <ele>988.00</ele>
        <time>2020-08-20T15:30:15Z</time>
      </trkpt>
      <trkpt lat="42.642660" lon="-5.881200">
        <ele>988.00</ele>
        <time>2020-08-20T15:30:59Z</time>
      </trkpt>
      <trkpt lat="42.641510" lon="-5.882370">
        <ele>997.00</ele>
        <time>2020-08-20T15:31:37Z</time>
      </trkpt>
      <trkpt lat="42.640660" lon="-5.883110">
        <ele>997.00</ele>
        <time>2020-08-20T15:32:04Z</time>
      </trkpt>
      <trkpt lat="42.640230" lon="-5.883320">
        <ele>997.00</ele>
        <time>2020-08-20T15:32:16Z</time>
      </trkpt>
      <trkpt lat="42.639740" lon="-5.883630">
        <ele>1005.00</ele>
        <time>2020-08-20T15:32:31Z</time>
      </trkpt>
      <trkpt lat="42.639380" lon="-5.883860">
        <ele>1005.00</ele>
        <time>2020-08-20T15:32:41Z</time>
      </trkpt>
      <trkpt lat="42.637970" lon="-5.884640">
        <ele>1009.00</ele>
        <time>2020-08-20T15:33:22Z</time>
      </trkpt>
      <trkpt lat="42.633630" lon="-5.887150">
        <ele>1011.00</ele>
        <time>2020-08-20T15:35:28Z</time>
      </trkpt>
      <trkpt lat="42.633700" lon="-5.887220">
        <ele>1011.00</ele>
        <time>2020-08-20T15:35:30Z</time>
      </trkpt>
      <trkpt lat="42.634320" lon="-5.887560">
        <ele>1010.00</ele>
        <time>2020-08-20T15:35:48Z</time>
      </trkpt>
      <trkpt lat="42.635040" lon="-5.887760">
        <ele>1010.00</ele>
        <time>2020-08-20T15:36:08Z</time>
      </trkpt>
      <trkpt lat="42.635520" lon="-5.887910">
        <ele>1010.00</ele>
        <time>2020-08-20T15:36:21Z</time>
      </trkpt>
      <trkpt lat="42.638750" lon="-5.889700">
        <ele>1004.00</ele>
        <time>2020-08-20T15:37:54Z</time>
      </trkpt>
      <trkpt lat="42.639330" lon="-5.890030">
        <ele>1004.00</ele>
        <time>2020-08-20T15:38:11Z</time>
      </trkpt>
      <trkpt lat="42.639990" lon="-5.890710">
        <ele>1004.00</ele>
        <time>2020-08-20T15:38:33Z</time>
      </trkpt>
      <trkpt lat="42.640760" lon="-5.891550">
        <ele>1004.00</ele>
        <time>2020-08-20T15:38:59Z</time>
      </trkpt>
      <trkpt lat="42.642110" lon="-5.893110">
        <ele>1002.00</ele>
        <time>2020-08-20T15:39:47Z</time>
      </trkpt>
      <trkpt lat="42.642560" lon="-5.893480">
        <ele>1002.00</ele>
        <time>2020-08-20T15:40:01Z</time>
      </trkpt>
      <trkpt lat="42.645250" lon="-5.892980">
        <ele>1010.00</ele>
        <time>2020-08-20T15:41:13Z</time>
      </trkpt>
      <trkpt lat="42.648360" lon="-5.893310">
        <ele>1014.00</ele>
        <time>2020-08-20T15:42:37Z</time>
      </trkpt>
      <trkpt lat="42.649810" lon="-5.893310">
        <ele>1014.00</ele>
        <time>2020-08-20T15:43:15Z</time>
      </trkpt>
      <trkpt lat="42.653580" lon="-5.893010">
        <ele>1038.00</ele>
        <time>2020-08-20T15:44:56Z</time>
      </trkpt>
      <trkpt lat="42.654880" lon="-5.893130">
        <ele>1038.00</ele>
        <time>2020-08-20T15:45:31Z</time>
      </trkpt>
      <trkpt lat="42.655060" lon="-5.893440">
        <ele>1038.00</ele>
        <time>2020-08-20T15:45:39Z</time>
      </trkpt>
      <trkpt lat="42.654830" lon="-5.895210">
        <ele>1046.00</ele>
        <time>2020-08-20T15:46:14Z</time>
      </trkpt>
      <trkpt lat="42.654830" lon="-5.895380">
        <ele>1046.00</ele>
        <time>2020-08-20T15:46:18Z</time>
      </trkpt>
      <trkpt lat="42.654850" lon="-5.895530">
        <ele>1046.00</ele>
        <time>2020-08-20T15:46:21Z</time>
      </trkpt>
      <trkpt lat="42.654890" lon="-5.895670">
        <ele>1046.00</ele>
        <time>2020-08-20T15:46:24Z</time>
      </trkpt>
      <trkpt lat="42.654970" lon="-5.895860">
        <ele>1046.00</ele>
        <time>2020-08-20T15:46:28Z</time>
      </trkpt>
      <trkpt lat="42.655200" lon="-5.896260">
        <ele>1046.00</ele>
        <time>2020-08-20T15:46:38Z</time>
      </trkpt>
      <trkpt lat="42.655270" lon="-5.896420">
        <ele>1046.00</ele>
        <time>2020-08-20T15:46:41Z</time>
      </trkpt>
      <trkpt lat="42.655290" lon="-5.896500">
        <ele>1046.00</ele>
        <time>2020-08-20T15:46:43Z</time>
      </trkpt>
      <trkpt lat="42.655270" lon="-5.896640">
        <ele>1046.00</ele>
        <time>2020-08-20T15:46:46Z</time>
      </trkpt>
      <trkpt lat="42.655090" lon="-5.897150">
        <ele>1046.00</ele>
        <time>2020-08-20T15:46:57Z</time>
      </trkpt>
      <trkpt lat="42.654900" lon="-5.897680">
        <ele>1053.00</ele>
        <time>2020-08-20T15:47:09Z</time>
      </trkpt>
      <trkpt lat="42.654490" lon="-5.898670">
        <ele>1053.00</ele>
        <time>2020-08-20T15:47:31Z</time>
      </trkpt>
      <trkpt lat="42.654130" lon="-5.899480">
        <ele>1053.00</ele>
        <time>2020-08-20T15:47:50Z</time>
      </trkpt>
      <trkpt lat="42.654090" lon="-5.899670">
        <ele>1053.00</ele>
        <time>2020-08-20T15:47:53Z</time>
      </trkpt>
      <trkpt lat="42.654060" lon="-5.899990">
        <ele>1053.00</ele>
        <time>2020-08-20T15:48:00Z</time>
      </trkpt>
      <trkpt lat="42.654030" lon="-5.900440">
        <ele>1053.00</ele>
        <time>2020-08-20T15:48:09Z</time>
      </trkpt>
      <trkpt lat="42.653980" lon="-5.900900">
        <ele>1056.00</ele>
        <time>2020-08-20T15:48:18Z</time>
      </trkpt>
      <trkpt lat="42.653920" lon="-5.901570">
        <ele>1056.00</ele>
        <time>2020-08-20T15:48:31Z</time>
      </trkpt>
      <trkpt lat="42.653830" lon="-5.901940">
        <ele>1056.00</ele>
        <time>2020-08-20T15:48:39Z</time>
      </trkpt>
      <trkpt lat="42.653770" lon="-5.902090">
        <ele>1056.00</ele>
        <time>2020-08-20T15:48:42Z</time>
      </trkpt>
      <trkpt lat="42.653680" lon="-5.902220">
        <ele>1056.00</ele>
        <time>2020-08-20T15:48:46Z</time>
      </trkpt>
      <trkpt lat="42.653560" lon="-5.902340">
        <ele>1056.00</ele>
        <time>2020-08-20T15:48:50Z</time>
      </trkpt>
      <trkpt lat="42.653030" lon="-5.902740">
        <ele>1056.00</ele>
        <time>2020-08-20T15:49:06Z</time>
      </trkpt>
      <trkpt lat="42.652790" lon="-5.902970">
        <ele>1056.00</ele>
        <time>2020-08-20T15:49:14Z</time>
      </trkpt>
      <trkpt lat="42.652680" lon="-5.903100">
        <ele>1056.00</ele>
        <time>2020-08-20T15:49:17Z</time>
      </trkpt>
      <trkpt lat="42.652400" lon="-5.903680">
        <ele>1058.00</ele>
        <time>2020-08-20T15:49:31Z</time>
      </trkpt>
      <trkpt lat="42.652320" lon="-5.903940">
        <ele>1058.00</ele>
        <time>2020-08-20T15:49:37Z</time>
      </trkpt>
      <trkpt lat="42.652280" lon="-5.904290">
        <ele>1058.00</ele>
        <time>2020-08-20T15:49:44Z</time>
      </trkpt>
      <trkpt lat="42.652250" lon="-5.904710">
        <ele>1058.00</ele>
        <time>2020-08-20T15:49:52Z</time>
      </trkpt>
      <trkpt lat="42.652270" lon="-5.904930">
        <ele>1058.00</ele>
        <time>2020-08-20T15:49:56Z</time>
      </trkpt>
      <trkpt lat="42.652370" lon="-5.905230">
        <ele>1058.00</ele>
        <time>2020-08-20T15:50:03Z</time>
      </trkpt>
      <trkpt lat="42.652500" lon="-5.905530">
        <ele>1058.00</ele>
        <time>2020-08-20T15:50:10Z</time>
      </trkpt>
      <trkpt lat="42.652610" lon="-5.905730">
        <ele>1058.00</ele>
        <time>2020-08-20T15:50:14Z</time>
      </trkpt>
      <trkpt lat="42.652760" lon="-5.906000">
        <ele>1055.00</ele>
        <time>2020-08-20T15:50:21Z</time>
      </trkpt>
      <trkpt lat="42.652970" lon="-5.906390">
        <ele>1055.00</ele>
        <time>2020-08-20T15:50:31Z</time>
      </trkpt>
      <trkpt lat="42.653010" lon="-5.906580">
        <ele>1055.00</ele>
        <time>2020-08-20T15:50:35Z</time>
      </trkpt>
      <trkpt lat="42.653000" lon="-5.906790">
        <ele>1055.00</ele>
        <time>2020-08-20T15:50:39Z</time>
      </trkpt>
      <trkpt lat="42.652920" lon="-5.907010">
        <ele>1055.00</ele>
        <time>2020-08-20T15:50:43Z</time>
      </trkpt>
      <trkpt lat="42.652830" lon="-5.907120">
        <ele>1055.00</ele>
        <time>2020-08-20T15:50:47Z</time>
      </trkpt>
      <trkpt lat="42.652640" lon="-5.907230">
        <ele>1055.00</ele>
        <time>2020-08-20T15:50:52Z</time>
      </trkpt>
      <trkpt lat="42.651870" lon="-5.907610">
        <ele>1055.00</ele>
        <time>2020-08-20T15:51:14Z</time>
      </trkpt>
      <trkpt lat="42.651630" lon="-5.907760">
        <ele>1055.00</ele>
        <time>2020-08-20T15:51:21Z</time>
      </trkpt>
      <trkpt lat="42.651520" lon="-5.907870">
        <ele>1055.00</ele>
        <time>2020-08-20T15:51:25Z</time>
      </trkpt>
      <trkpt lat="42.651230" lon="-5.908350">
        <ele>1051.00</ele>
        <time>2020-08-20T15:51:37Z</time>
      </trkpt>
      <trkpt lat="42.650580" lon="-5.909520">
        <ele>1051.00</ele>
        <time>2020-08-20T15:52:06Z</time>
      </trkpt>
      <trkpt lat="42.650240" lon="-5.910080">
        <ele>1051.00</ele>
        <time>2020-08-20T15:52:20Z</time>
      </trkpt>
      <trkpt lat="42.650160" lon="-5.910330">
        <ele>1051.00</ele>
        <time>2020-08-20T15:52:25Z</time>
      </trkpt>
      <trkpt lat="42.650050" lon="-5.910950">
        <ele>1051.00</ele>
        <time>2020-08-20T15:52:38Z</time>
      </trkpt>
      <trkpt lat="42.649960" lon="-5.911870">
        <ele>1045.00</ele>
        <time>2020-08-20T15:52:56Z</time>
      </trkpt>
      <trkpt lat="42.649960" lon="-5.912950">
        <ele>1045.00</ele>
        <time>2020-08-20T15:53:17Z</time>
      </trkpt>
      <trkpt lat="42.649920" lon="-5.913180">
        <ele>1045.00</ele>
        <time>2020-08-20T15:53:22Z</time>
      </trkpt>
      <trkpt lat="42.649710" lon="-5.913640">
        <ele>1045.00</ele>
        <time>2020-08-20T15:53:33Z</time>
      </trkpt>
      <trkpt lat="42.649580" lon="-5.913880">
        <ele>1045.00</ele>
        <time>2020-08-20T15:53:39Z</time>
      </trkpt>
      <trkpt lat="42.649480" lon="-5.914080">
        <ele>1045.00</ele>
        <time>2020-08-20T15:53:43Z</time>
      </trkpt>
      <trkpt lat="42.649380" lon="-5.914350">
        <ele>1045.00</ele>
        <time>2020-08-20T15:53:49Z</time>
      </trkpt>
      <trkpt lat="42.649290" lon="-5.914850">
        <ele>1034.00</ele>
        <time>2020-08-20T15:53:59Z</time>
      </trkpt>
      <trkpt lat="42.649250" lon="-5.915070">
        <ele>1034.00</ele>
        <time>2020-08-20T15:54:04Z</time>
      </trkpt>
      <trkpt lat="42.649240" lon="-5.915310">
        <ele>1034.00</ele>
        <time>2020-08-20T15:54:09Z</time>
      </trkpt>
      <trkpt lat="42.649260" lon="-5.915580">
        <ele>1034.00</ele>
        <time>2020-08-20T15:54:14Z</time>
      </trkpt>
      <trkpt lat="42.649330" lon="-5.915970">
        <ele>1034.00</ele>
        <time>2020-08-20T15:54:22Z</time>
      </trkpt>
      <trkpt lat="42.649340" lon="-5.916340">
        <ele>1034.00</ele>
        <time>2020-08-20T15:54:29Z</time>
      </trkpt>
      <trkpt lat="42.649350" lon="-5.916740">
        <ele>1034.00</ele>
        <time>2020-08-20T15:54:37Z</time>
      </trkpt>
      <trkpt lat="42.649390" lon="-5.916860">
        <ele>1034.00</ele>
        <time>2020-08-20T15:54:40Z</time>
      </trkpt>
      <trkpt lat="42.649470" lon="-5.916930">
        <ele>1034.00</ele>
        <time>2020-08-20T15:54:42Z</time>
      </trkpt>
      <trkpt lat="42.649990" lon="-5.917330">
        <ele>1029.00</ele>
        <time>2020-08-20T15:54:58Z</time>
      </trkpt>
      <trkpt lat="42.650170" lon="-5.917510">
        <ele>1029.00</ele>
        <time>2020-08-20T15:55:04Z</time>
      </trkpt>
      <trkpt lat="42.650310" lon="-5.917710">
        <ele>1029.00</ele>
        <time>2020-08-20T15:55:09Z</time>
      </trkpt>
      <trkpt lat="42.650420" lon="-5.917970">
        <ele>1029.00</ele>
        <time>2020-08-20T15:55:15Z</time>
      </trkpt>
      <trkpt lat="42.650520" lon="-5.918250">
        <ele>1029.00</ele>
        <time>2020-08-20T15:55:21Z</time>
      </trkpt>
      <trkpt lat="42.650570" lon="-5.918520">
        <ele>1029.00</ele>
        <time>2020-08-20T15:55:27Z</time>
      </trkpt>
      <trkpt lat="42.650610" lon="-5.918880">
        <ele>1029.00</ele>
        <time>2020-08-20T15:55:34Z</time>
      </trkpt>
      <trkpt lat="42.650620" lon="-5.919220">
        <ele>1029.00</ele>
        <time>2020-08-20T15:55:41Z</time>
      </trkpt>
      <trkpt lat="42.650650" lon="-5.919930">
        <ele>1029.00</ele>
        <time>2020-08-20T15:55:55Z</time>
      </trkpt>
      <trkpt lat="42.650670" lon="-5.920260">
        <ele>1029.00</ele>
        <time>2020-08-20T15:56:01Z</time>
      </trkpt>
      <trkpt lat="42.650650" lon="-5.920380">
        <ele>1041.00</ele>
        <time>2020-08-20T15:56:04Z</time>
      </trkpt>
      <trkpt lat="42.650520" lon="-5.920660">
        <ele>1041.00</ele>
        <time>2020-08-20T15:56:10Z</time>
      </trkpt>
      <trkpt lat="42.650390" lon="-5.921070">
        <ele>1041.00</ele>
        <time>2020-08-20T15:56:19Z</time>
      </trkpt>
      <trkpt lat="42.650210" lon="-5.921560">
        <ele>1041.00</ele>
        <time>2020-08-20T15:56:30Z</time>
      </trkpt>
      <trkpt lat="42.649690" lon="-5.922900">
        <ele>1041.00</ele>
        <time>2020-08-20T15:56:59Z</time>
      </trkpt>
      <trkpt lat="42.649250" lon="-5.923670">
        <ele>1046.00</ele>
        <time>2020-08-20T15:57:19Z</time>
      </trkpt>
      <trkpt lat="42.649160" lon="-5.923840">
        <ele>1046.00</ele>
        <time>2020-08-20T15:57:23Z</time>
      </trkpt>
      <trkpt lat="42.649000" lon="-5.924140">
        <ele>1046.00</ele>
        <time>2020-08-20T15:57:30Z</time>
      </trkpt>
      <trkpt lat="42.648920" lon="-5.924440">
        <ele>1046.00</ele>
        <time>2020-08-20T15:57:36Z</time>
      </trkpt>
      <trkpt lat="42.648950" lon="-5.924850">
        <ele>1046.00</ele>
        <time>2020-08-20T15:57:44Z</time>
      </trkpt>
      <trkpt lat="42.648960" lon="-5.925410">
        <ele>1046.00</ele>
        <time>2020-08-20T15:57:55Z</time>
      </trkpt>
      <trkpt lat="42.648930" lon="-5.925870">
        <ele>1046.00</ele>
        <time>2020-08-20T15:58:04Z</time>
      </trkpt>
      <trkpt lat="42.648750" lon="-5.926370">
        <ele>1046.00</ele>
        <time>2020-08-20T15:58:15Z</time>
      </trkpt>
      <trkpt lat="42.648560" lon="-5.926750">
        <ele>1030.00</ele>
        <time>2020-08-20T15:58:24Z</time>
      </trkpt>
      <trkpt lat="42.647860" lon="-5.927270">
        <ele>1030.00</ele>
        <time>2020-08-20T15:58:46Z</time>
      </trkpt>
      <trkpt lat="42.647270" lon="-5.927850">
        <ele>1030.00</ele>
        <time>2020-08-20T15:59:05Z</time>
      </trkpt>
      <trkpt lat="42.647270" lon="-5.928020">
        <ele>1030.00</ele>
        <time>2020-08-20T15:59:09Z</time>
      </trkpt>
      <trkpt lat="42.647250" lon="-5.929700">
        <ele>1017.00</ele>
        <time>2020-08-20T15:59:42Z</time>
      </trkpt>
      <trkpt lat="42.646970" lon="-5.930130">
        <ele>1017.00</ele>
        <time>2020-08-20T15:59:53Z</time>
      </trkpt>
      <trkpt lat="42.647750" lon="-5.930670">
        <ele>1017.00</ele>
        <time>2020-08-20T16:00:16Z</time>
      </trkpt>
      <trkpt lat="42.647750" lon="-5.930940">
        <ele>1017.00</ele>
        <time>2020-08-20T16:00:22Z</time>
      </trkpt>
      <trkpt lat="42.647750" lon="-5.931330">
        <ele>1017.00</ele>
        <time>2020-08-20T16:00:29Z</time>
      </trkpt>
      <trkpt lat="42.646670" lon="-5.932750">
        <ele>1047.00</ele>
        <time>2020-08-20T16:01:09Z</time>
      </trkpt>
      <trkpt lat="42.645370" lon="-5.933800">
        <ele>1045.00</ele>
        <time>2020-08-20T16:01:50Z</time>
      </trkpt>
      <trkpt lat="42.644690" lon="-5.934910">
        <ele>1045.00</ele>
        <time>2020-08-20T16:02:18Z</time>
      </trkpt>
      <trkpt lat="42.644020" lon="-5.936730">
        <ele>1026.00</ele>
        <time>2020-08-20T16:02:58Z</time>
      </trkpt>
      <trkpt lat="42.643890" lon="-5.937080">
        <ele>1026.00</ele>
        <time>2020-08-20T16:03:06Z</time>
      </trkpt>
      <trkpt lat="42.643150" lon="-5.937680">
        <ele>1026.00</ele>
        <time>2020-08-20T16:03:29Z</time>
      </trkpt>
      <trkpt lat="42.642130" lon="-5.939480">
        <ele>1021.00</ele>
        <time>2020-08-20T16:04:14Z</time>
      </trkpt>
      <trkpt lat="42.641820" lon="-5.940880">
        <ele>1021.00</ele>
        <time>2020-08-20T16:04:42Z</time>
      </trkpt>
      <trkpt lat="42.641490" lon="-5.941120">
        <ele>1021.00</ele>
        <time>2020-08-20T16:04:52Z</time>
      </trkpt>
      <trkpt lat="42.641220" lon="-5.941740">
        <ele>1011.00</ele>
        <time>2020-08-20T16:05:06Z</time>
      </trkpt>
      <trkpt lat="42.640720" lon="-5.943070">
        <ele>1011.00</ele>
        <time>2020-08-20T16:05:36Z</time>
      </trkpt>
      <trkpt lat="42.640430" lon="-5.943710">
        <ele>1011.00</ele>
        <time>2020-08-20T16:05:51Z</time>
      </trkpt>
      <trkpt lat="42.640350" lon="-5.944880">
        <ele>1029.00</ele>
        <time>2020-08-20T16:06:14Z</time>
      </trkpt>
      <trkpt lat="42.640410" lon="-5.945100">
        <ele>1029.00</ele>
        <time>2020-08-20T16:06:18Z</time>
      </trkpt>
      <trkpt lat="42.640490" lon="-5.945290">
        <ele>1029.00</ele>
        <time>2020-08-20T16:06:23Z</time>
      </trkpt>
      <trkpt lat="42.641120" lon="-5.946190">
        <ele>1029.00</ele>
        <time>2020-08-20T16:06:47Z</time>
      </trkpt>
      <trkpt lat="42.641190" lon="-5.946340">
        <ele>1029.00</ele>
        <time>2020-08-20T16:06:50Z</time>
      </trkpt>
      <trkpt lat="42.641270" lon="-5.946720">
        <ele>1029.00</ele>
        <time>2020-08-20T16:06:58Z</time>
      </trkpt>
      <trkpt lat="42.641320" lon="-5.946950">
        <ele>1029.00</ele>
        <time>2020-08-20T16:07:03Z</time>
      </trkpt>
      <trkpt lat="42.641330" lon="-5.947210">
        <ele>1029.00</ele>
        <time>2020-08-20T16:07:08Z</time>
      </trkpt>
      <trkpt lat="42.641290" lon="-5.947600">
        <ele>1029.00</ele>
        <time>2020-08-20T16:07:16Z</time>
      </trkpt>
      <trkpt lat="42.641250" lon="-5.948090">
        <ele>1020.00</ele>
        <time>2020-08-20T16:07:25Z</time>
      </trkpt>
      <trkpt lat="42.641300" lon="-5.948490">
        <ele>1020.00</ele>
        <time>2020-08-20T16:07:33Z</time>
      </trkpt>
      <trkpt lat="42.641360" lon="-5.948630">
        <ele>1020.00</ele>
        <time>2020-08-20T16:07:37Z</time>
      </trkpt>
      <trkpt lat="42.641310" lon="-5.948770">
        <ele>1020.00</ele>
        <time>2020-08-20T16:07:40Z</time>
      </trkpt>
      <trkpt lat="42.641270" lon="-5.948900">
        <ele>1020.00</ele>
        <time>2020-08-20T16:07:42Z</time>
      </trkpt>
      <trkpt lat="42.641130" lon="-5.949120">
        <ele>1020.00</ele>
        <time>2020-08-20T16:07:48Z</time>
      </trkpt>
      <trkpt lat="42.640980" lon="-5.949310">
        <ele>1020.00</ele>
        <time>2020-08-20T16:07:54Z</time>
      </trkpt>
      <trkpt lat="42.640780" lon="-5.949540">
        <ele>1020.00</ele>
        <time>2020-08-20T16:08:01Z</time>
      </trkpt>
      <trkpt lat="42.640640" lon="-5.949760">
        <ele>1020.00</ele>
        <time>2020-08-20T16:08:06Z</time>
      </trkpt>
      <trkpt lat="42.640460" lon="-5.949980">
        <ele>1020.00</ele>
        <time>2020-08-20T16:08:13Z</time>
      </trkpt>
      <trkpt lat="42.640330" lon="-5.949970">
        <ele>1020.00</ele>
        <time>2020-08-20T16:08:16Z</time>
      </trkpt>
      <trkpt lat="42.640160" lon="-5.949960">
        <ele>1020.00</ele>
        <time>2020-08-20T16:08:21Z</time>
      </trkpt>
      <trkpt lat="42.640330" lon="-5.950320">
        <ele>1020.00</ele>
        <time>2020-08-20T16:08:29Z</time>
      </trkpt>
      <trkpt lat="42.640670" lon="-5.950650">
        <ele>1020.00</ele>
        <time>2020-08-20T16:08:40Z</time>
      </trkpt>
      <trkpt lat="42.640860" lon="-5.950900">
        <ele>1020.00</ele>
        <time>2020-08-20T16:08:48Z</time>
      </trkpt>
      <trkpt lat="42.641090" lon="-5.951260">
        <ele>1020.00</ele>
        <time>2020-08-20T16:08:57Z</time>
      </trkpt>
      <trkpt lat="42.641280" lon="-5.951540">
        <ele>1020.00</ele>
        <time>2020-08-20T16:09:04Z</time>
      </trkpt>
      <trkpt lat="42.641360" lon="-5.952590">
        <ele>1020.00</ele>
        <time>2020-08-20T16:09:25Z</time>
      </trkpt>
      <trkpt lat="42.641310" lon="-5.953640">
        <ele>1016.00</ele>
        <time>2020-08-20T16:09:46Z</time>
      </trkpt>
      <trkpt lat="42.641330" lon="-5.955030">
        <ele>1016.00</ele>
        <time>2020-08-20T16:10:13Z</time>
      </trkpt>
      <trkpt lat="42.641130" lon="-5.955950">
        <ele>1016.00</ele>
        <time>2020-08-20T16:10:32Z</time>
      </trkpt>
      <trkpt lat="42.641080" lon="-5.956560">
        <ele>1016.00</ele>
        <time>2020-08-20T16:10:44Z</time>
      </trkpt>
      <trkpt lat="42.641070" lon="-5.956970">
        <ele>992.00</ele>
        <time>2020-08-20T16:10:52Z</time>
      </trkpt>
      <trkpt lat="42.641320" lon="-5.957660">
        <ele>992.00</ele>
        <time>2020-08-20T16:11:07Z</time>
      </trkpt>
      <trkpt lat="42.641650" lon="-5.959160">
        <ele>992.00</ele>
        <time>2020-08-20T16:11:38Z</time>
      </trkpt>
      <trkpt lat="42.642630" lon="-5.961600">
        <ele>976.00</ele>
        <time>2020-08-20T16:12:33Z</time>
      </trkpt>
      <trkpt lat="42.642810" lon="-5.962560">
        <ele>976.00</ele>
        <time>2020-08-20T16:12:52Z</time>
      </trkpt>
      <trkpt lat="42.642880" lon="-5.962950">
        <ele>976.00</ele>
        <time>2020-08-20T16:13:00Z</time>
      </trkpt>
      <trkpt lat="42.643310" lon="-5.964520">
        <ele>986.00</ele>
        <time>2020-08-20T16:13:33Z</time>
      </trkpt>
      <trkpt lat="42.643350" lon="-5.964980">
        <ele>986.00</ele>
        <time>2020-08-20T16:13:42Z</time>
      </trkpt>
      <trkpt lat="42.643260" lon="-5.966010">
        <ele>986.00</ele>
        <time>2020-08-20T16:14:02Z</time>
      </trkpt>
      <trkpt lat="42.643230" lon="-5.966050">
        <ele>986.00</ele>
        <time>2020-08-20T16:14:04Z</time>
      </trkpt>
      <trkpt lat="42.643270" lon="-5.966130">
        <ele>986.00</ele>
        <time>2020-08-20T16:14:05Z</time>
      </trkpt>
      <trkpt lat="42.643360" lon="-5.966690">
        <ele>995.00</ele>
        <time>2020-08-20T16:14:17Z</time>
      </trkpt>
      <trkpt lat="42.643370" lon="-5.967000">
        <ele>995.00</ele>
        <time>2020-08-20T16:14:23Z</time>
      </trkpt>
      <trkpt lat="42.643550" lon="-5.967730">
        <ele>995.00</ele>
        <time>2020-08-20T16:14:38Z</time>
      </trkpt>
      <trkpt lat="42.643140" lon="-5.968060">
        <ele>995.00</ele>
        <time>2020-08-20T16:14:51Z</time>
      </trkpt>
      <trkpt lat="42.642890" lon="-5.968340">
        <ele>995.00</ele>
        <time>2020-08-20T16:14:59Z</time>
      </trkpt>
      <trkpt lat="42.643120" lon="-5.968890">
        <ele>995.00</ele>
        <time>2020-08-20T16:15:12Z</time>
      </trkpt>
      <trkpt lat="42.643490" lon="-5.969530">
        <ele>995.00</ele>
        <time>2020-08-20T16:15:28Z</time>
      </trkpt>
      <trkpt lat="42.643640" lon="-5.970160">
        <ele>995.00</ele>
        <time>2020-08-20T16:15:41Z</time>
      </trkpt>
      <trkpt lat="42.643750" lon="-5.970940">
        <ele>995.00</ele>
        <time>2020-08-20T16:15:56Z</time>
      </trkpt>
      <trkpt lat="42.644180" lon="-5.972190">
        <ele>995.00</ele>
        <time>2020-08-20T16:16:23Z</time>
      </trkpt>
      <trkpt lat="42.644330" lon="-5.973370">
        <ele>995.00</ele>
        <time>2020-08-20T16:16:47Z</time>
      </trkpt>
      <trkpt lat="42.644440" lon="-5.973870">
        <ele>995.00</ele>
        <time>2020-08-20T16:16:57Z</time>
      </trkpt>
      <trkpt lat="42.644990" lon="-5.974770">
        <ele>995.00</ele>
        <time>2020-08-20T16:17:20Z</time>
      </trkpt>
      <trkpt lat="42.645380" lon="-5.975490">
        <ele>995.00</ele>
        <time>2020-08-20T16:17:38Z</time>
      </trkpt>
      <trkpt lat="42.645420" lon="-5.975460">
        <ele>995.00</ele>
        <time>2020-08-20T16:17:39Z</time>
      </trkpt>
      <trkpt lat="42.645500" lon="-5.975430">
        <ele>995.00</ele>
        <time>2020-08-20T16:17:41Z</time>
      </trkpt>
      <trkpt lat="42.645580" lon="-5.975420">
        <ele>1002.00</ele>
        <time>2020-08-20T16:17:43Z</time>
      </trkpt>
      <trkpt lat="42.645700" lon="-5.975400">
        <ele>1002.00</ele>
        <time>2020-08-20T16:17:47Z</time>
      </trkpt>
      <trkpt lat="42.645790" lon="-5.975370">
        <ele>1002.00</ele>
        <time>2020-08-20T16:17:49Z</time>
      </trkpt>
      <trkpt lat="42.645880" lon="-5.975310">
        <ele>1002.00</ele>
        <time>2020-08-20T16:17:52Z</time>
      </trkpt>
      <trkpt lat="42.645990" lon="-5.975220">
        <ele>1002.00</ele>
        <time>2020-08-20T16:17:55Z</time>
      </trkpt>
      <trkpt lat="42.646070" lon="-5.975110">
        <ele>1002.00</ele>
        <time>2020-08-20T16:17:58Z</time>
      </trkpt>
      <trkpt lat="42.646180" lon="-5.974980">
        <ele>1002.00</ele>
        <time>2020-08-20T16:18:02Z</time>
      </trkpt>
      <trkpt lat="42.646500" lon="-5.974390">
        <ele>1002.00</ele>
        <time>2020-08-20T16:18:17Z</time>
      </trkpt>
      <trkpt lat="42.646610" lon="-5.974200">
        <ele>1002.00</ele>
        <time>2020-08-20T16:18:21Z</time>
      </trkpt>
      <trkpt lat="42.646670" lon="-5.974130">
        <ele>1002.00</ele>
        <time>2020-08-20T16:18:23Z</time>
      </trkpt>
      <trkpt lat="42.646720" lon="-5.974110">
        <ele>1002.00</ele>
        <time>2020-08-20T16:18:25Z</time>
      </trkpt>
      <trkpt lat="42.646760" lon="-5.974100">
        <ele>1002.00</ele>
        <time>2020-08-20T16:18:26Z</time>
      </trkpt>
      <trkpt lat="42.646820" lon="-5.974100">
        <ele>1002.00</ele>
        <time>2020-08-20T16:18:28Z</time>
      </trkpt>
      <trkpt lat="42.646860" lon="-5.974110">
        <ele>1002.00</ele>
        <time>2020-08-20T16:18:29Z</time>
      </trkpt>
      <trkpt lat="42.646910" lon="-5.974140">
        <ele>1002.00</ele>
        <time>2020-08-20T16:18:30Z</time>
      </trkpt>
      <trkpt lat="42.646950" lon="-5.974190">
        <ele>1002.00</ele>
        <time>2020-08-20T16:18:32Z</time>
      </trkpt>
      <trkpt lat="42.647250" lon="-5.974820">
        <ele>1002.00</ele>
        <time>2020-08-20T16:18:46Z</time>
      </trkpt>
      <trkpt lat="42.647460" lon="-5.975180">
        <ele>1012.00</ele>
        <time>2020-08-20T16:18:55Z</time>
      </trkpt>
      <trkpt lat="42.647640" lon="-5.975410">
        <ele>1012.00</ele>
        <time>2020-08-20T16:19:02Z</time>
      </trkpt>
      <trkpt lat="42.647800" lon="-5.975580">
        <ele>1012.00</ele>
        <time>2020-08-20T16:19:07Z</time>
      </trkpt>
      <trkpt lat="42.647940" lon="-5.975800">
        <ele>1012.00</ele>
        <time>2020-08-20T16:19:13Z</time>
      </trkpt>
      <trkpt lat="42.648080" lon="-5.976070">
        <ele>1012.00</ele>
        <time>2020-08-20T16:19:20Z</time>
      </trkpt>
      <trkpt lat="42.648410" lon="-5.976660">
        <ele>1012.00</ele>
        <time>2020-08-20T16:19:34Z</time>
      </trkpt>
      <trkpt lat="42.648550" lon="-5.976880">
        <ele>1012.00</ele>
        <time>2020-08-20T16:19:40Z</time>
      </trkpt>
      <trkpt lat="42.648660" lon="-5.977060">
        <ele>1012.00</ele>
        <time>2020-08-20T16:19:44Z</time>
      </trkpt>
      <trkpt lat="42.648800" lon="-5.977210">
        <ele>1012.00</ele>
        <time>2020-08-20T16:19:49Z</time>
      </trkpt>
      <trkpt lat="42.648900" lon="-5.977360">
        <ele>1012.00</ele>
        <time>2020-08-20T16:19:53Z</time>
      </trkpt>
      <trkpt lat="42.648980" lon="-5.977520">
        <ele>1012.00</ele>
        <time>2020-08-20T16:19:57Z</time>
      </trkpt>
      <trkpt lat="42.649140" lon="-5.977800">
        <ele>1021.00</ele>
        <time>2020-08-20T16:20:04Z</time>
      </trkpt>
      <trkpt lat="42.649250" lon="-5.977990">
        <ele>1021.00</ele>
        <time>2020-08-20T16:20:09Z</time>
      </trkpt>
      <trkpt lat="42.649350" lon="-5.978180">
        <ele>1021.00</ele>
        <time>2020-08-20T16:20:13Z</time>
      </trkpt>
      <trkpt lat="42.649470" lon="-5.978410">
        <ele>1021.00</ele>
        <time>2020-08-20T16:20:19Z</time>
      </trkpt>
      <trkpt lat="42.649690" lon="-5.978820">
        <ele>1021.00</ele>
        <time>2020-08-20T16:20:29Z</time>
      </trkpt>
      <trkpt lat="42.649890" lon="-5.979170">
        <ele>1021.00</ele>
        <time>2020-08-20T16:20:38Z</time>
      </trkpt>
      <trkpt lat="42.650020" lon="-5.979360">
        <ele>1021.00</ele>
        <time>2020-08-20T16:20:43Z</time>
      </trkpt>
      <trkpt lat="42.650170" lon="-5.979510">
        <ele>1021.00</ele>
        <time>2020-08-20T16:20:48Z</time>
      </trkpt>
      <trkpt lat="42.650360" lon="-5.979650">
        <ele>1021.00</ele>
        <time>2020-08-20T16:20:53Z</time>
      </trkpt>
      <trkpt lat="42.650540" lon="-5.979780">
        <ele>1021.00</ele>
        <time>2020-08-20T16:20:59Z</time>
      </trkpt>
      <trkpt lat="42.650660" lon="-5.979890">
        <ele>1021.00</ele>
        <time>2020-08-20T16:21:03Z</time>
      </trkpt>
      <trkpt lat="42.650810" lon="-5.980080">
        <ele>1021.00</ele>
        <time>2020-08-20T16:21:08Z</time>
      </trkpt>
      <trkpt lat="42.650930" lon="-5.980280">
        <ele>1033.00</ele>
        <time>2020-08-20T16:21:13Z</time>
      </trkpt>
      <trkpt lat="42.651060" lon="-5.980510">
        <ele>1033.00</ele>
        <time>2020-08-20T16:21:19Z</time>
      </trkpt>
      <trkpt lat="42.651170" lon="-5.980710">
        <ele>1033.00</ele>
        <time>2020-08-20T16:21:24Z</time>
      </trkpt>
      <trkpt lat="42.651350" lon="-5.980920">
        <ele>1033.00</ele>
        <time>2020-08-20T16:21:30Z</time>
      </trkpt>
      <trkpt lat="42.651840" lon="-5.981350">
        <ele>1033.00</ele>
        <time>2020-08-20T16:21:46Z</time>
      </trkpt>
      <trkpt lat="42.651950" lon="-5.981520">
        <ele>1033.00</ele>
        <time>2020-08-20T16:21:50Z</time>
      </trkpt>
      <trkpt lat="42.652050" lon="-5.981660">
        <ele>1033.00</ele>
        <time>2020-08-20T16:21:54Z</time>
      </trkpt>
      <trkpt lat="42.652130" lon="-5.981780">
        <ele>1033.00</ele>
        <time>2020-08-20T16:21:57Z</time>
      </trkpt>
      <trkpt lat="42.652190" lon="-5.981810">
        <ele>1033.00</ele>
        <time>2020-08-20T16:21:59Z</time>
      </trkpt>
      <trkpt lat="42.652500" lon="-5.981940">
        <ele>1033.00</ele>
        <time>2020-08-20T16:22:08Z</time>
      </trkpt>
      <trkpt lat="42.653180" lon="-5.982220">
        <ele>1036.00</ele>
        <time>2020-08-20T16:22:27Z</time>
      </trkpt>
      <trkpt lat="42.653990" lon="-5.982590">
        <ele>1036.00</ele>
        <time>2020-08-20T16:22:49Z</time>
      </trkpt>
      <trkpt lat="42.654880" lon="-5.982970">
        <ele>1036.00</ele>
        <time>2020-08-20T16:23:14Z</time>
      </trkpt>
      <trkpt lat="42.655160" lon="-5.983110">
        <ele>1037.00</ele>
        <time>2020-08-20T16:23:22Z</time>
      </trkpt>
      <trkpt lat="42.655500" lon="-5.983300">
        <ele>1037.00</ele>
        <time>2020-08-20T16:23:32Z</time>
      </trkpt>
      <trkpt lat="42.655890" lon="-5.983540">
        <ele>1037.00</ele>
        <time>2020-08-20T16:23:44Z</time>
      </trkpt>
      <trkpt lat="42.656180" lon="-5.983800">
        <ele>1037.00</ele>
        <time>2020-08-20T16:23:53Z</time>
      </trkpt>
      <trkpt lat="42.656380" lon="-5.983950">
        <ele>1037.00</ele>
        <time>2020-08-20T16:23:59Z</time>
      </trkpt>
      <trkpt lat="42.656770" lon="-5.984330">
        <ele>1037.00</ele>
        <time>2020-08-20T16:24:12Z</time>
      </trkpt>
      <trkpt lat="42.656930" lon="-5.984470">
        <ele>1037.00</ele>
        <time>2020-08-20T16:24:17Z</time>
      </trkpt>
      <trkpt lat="42.657490" lon="-5.985060">
        <ele>1037.00</ele>
        <time>2020-08-20T16:24:36Z</time>
      </trkpt>
      <trkpt lat="42.657830" lon="-5.985440">
        <ele>1037.00</ele>
        <time>2020-08-20T16:24:48Z</time>
      </trkpt>
      <trkpt lat="42.658130" lon="-5.985790">
        <ele>1037.00</ele>
        <time>2020-08-20T16:24:58Z</time>
      </trkpt>
      <trkpt lat="42.658700" lon="-5.986380">
        <ele>1037.00</ele>
        <time>2020-08-20T16:25:17Z</time>
      </trkpt>
      <trkpt lat="42.658970" lon="-5.986670">
        <ele>1037.00</ele>
        <time>2020-08-20T16:25:26Z</time>
      </trkpt>
      <trkpt lat="42.659350" lon="-5.987080">
        <ele>1037.00</ele>
        <time>2020-08-20T16:25:39Z</time>
      </trkpt>
      <trkpt lat="42.660990" lon="-5.988800">
        <ele>1039.00</ele>
        <time>2020-08-20T16:26:35Z</time>
      </trkpt>
      <trkpt lat="42.662650" lon="-5.990200">
        <ele>1045.00</ele>
        <time>2020-08-20T16:27:27Z</time>
      </trkpt>
      <trkpt lat="42.663530" lon="-5.991000">
        <ele>1045.00</ele>
        <time>2020-08-20T16:27:55Z</time>
      </trkpt>
      <trkpt lat="42.665520" lon="-5.991860">
        <ele>1049.00</ele>
        <time>2020-08-20T16:28:51Z</time>
      </trkpt>
      <trkpt lat="42.667400" lon="-5.992790">
        <ele>1058.00</ele>
        <time>2020-08-20T16:29:44Z</time>
      </trkpt>
      <trkpt lat="42.668600" lon="-5.993580">
        <ele>1058.00</ele>
        <time>2020-08-20T16:30:20Z</time>
      </trkpt>
      <trkpt lat="42.669220" lon="-5.994250">
        <ele>1063.00</ele>
        <time>2020-08-20T16:30:41Z</time>
      </trkpt>
      <trkpt lat="42.672380" lon="-6.000040">
        <ele>1075.00</ele>
        <time>2020-08-20T16:33:03Z</time>
      </trkpt>
      <trkpt lat="42.672540" lon="-6.000330">
        <ele>1075.00</ele>
        <time>2020-08-20T16:33:10Z</time>
      </trkpt>
      <trkpt lat="42.672920" lon="-6.000710">
        <ele>1075.00</ele>
        <time>2020-08-20T16:33:23Z</time>
      </trkpt>
      <trkpt lat="42.674480" lon="-6.001600">
        <ele>1085.00</ele>
        <time>2020-08-20T16:34:08Z</time>
      </trkpt>
      <trkpt lat="42.677800" lon="-6.005130">
        <ele>1092.00</ele>
        <time>2020-08-20T16:36:00Z</time>
      </trkpt>
      <trkpt lat="42.678350" lon="-6.005750">
        <ele>1100.00</ele>
        <time>2020-08-20T16:36:19Z</time>
      </trkpt>
      <trkpt lat="42.680220" lon="-6.005190">
        <ele>1100.00</ele>
        <time>2020-08-20T16:37:11Z</time>
      </trkpt>
      <trkpt lat="42.680310" lon="-6.005250">
        <ele>1100.00</ele>
        <time>2020-08-20T16:37:13Z</time>
      </trkpt>
      <trkpt lat="42.680370" lon="-6.005450">
        <ele>1100.00</ele>
        <time>2020-08-20T16:37:18Z</time>
      </trkpt>
      <trkpt lat="42.680550" lon="-6.007060">
        <ele>1109.00</ele>
        <time>2020-08-20T16:37:50Z</time>
      </trkpt>
      <trkpt lat="42.680460" lon="-6.007660">
        <ele>1109.00</ele>
        <time>2020-08-20T16:38:02Z</time>
      </trkpt>
      <trkpt lat="42.680790" lon="-6.009390">
        <ele>1109.00</ele>
        <time>2020-08-20T16:38:37Z</time>
      </trkpt>
      <trkpt lat="42.680740" lon="-6.009630">
        <ele>1121.00</ele>
        <time>2020-08-20T16:38:42Z</time>
      </trkpt>
      <trkpt lat="42.680260" lon="-6.010190">
        <ele>1121.00</ele>
        <time>2020-08-20T16:38:58Z</time>
      </trkpt>
      <trkpt lat="42.680370" lon="-6.010590">
        <ele>1121.00</ele>
        <time>2020-08-20T16:39:07Z</time>
      </trkpt>
      <trkpt lat="42.680510" lon="-6.010930">
        <ele>1121.00</ele>
        <time>2020-08-20T16:39:14Z</time>
      </trkpt>
      <trkpt lat="42.680890" lon="-6.011550">
        <ele>1121.00</ele>
        <time>2020-08-20T16:39:30Z</time>
      </trkpt>
      <trkpt lat="42.680290" lon="-6.012330">
        <ele>1137.00</ele>
        <time>2020-08-20T16:39:53Z</time>
      </trkpt>
      <trkpt lat="42.680390" lon="-6.012330">
        <ele>1137.00</ele>
        <time>2020-08-20T16:39:55Z</time>
      </trkpt>
      <trkpt lat="42.680710" lon="-6.012090">
        <ele>1137.00</ele>
        <time>2020-08-20T16:40:05Z</time>
      </trkpt>
      <trkpt lat="42.681150" lon="-6.011930">
        <ele>1137.00</ele>
        <time>2020-08-20T16:40:17Z</time>
      </trkpt>
      <trkpt lat="42.681790" lon="-6.011860">
        <ele>1137.00</ele>
        <time>2020-08-20T16:40:34Z</time>
      </trkpt>
      <trkpt lat="42.682220" lon="-6.011740">
        <ele>1137.00</ele>
        <time>2020-08-20T16:40:46Z</time>
      </trkpt>
      <trkpt lat="42.682360" lon="-6.011730">
        <ele>1137.00</ele>
        <time>2020-08-20T16:40:50Z</time>
      </trkpt>
      <trkpt lat="42.682610" lon="-6.012160">
        <ele>1137.00</ele>
        <time>2020-08-20T16:41:01Z</time>
      </trkpt>
      <trkpt lat="42.682830" lon="-6.012430">
        <ele>1144.00</ele>
        <time>2020-08-20T16:41:08Z</time>
      </trkpt>
      <trkpt lat="42.683000" lon="-6.012810">
        <ele>1144.00</ele>
        <time>2020-08-20T16:41:17Z</time>
      </trkpt>
      <trkpt lat="42.683420" lon="-6.013250">
        <ele>1144.00</ele>
        <time>2020-08-20T16:41:31Z</time>
      </trkpt>
      <trkpt lat="42.683490" lon="-6.013430">
        <ele>1144.00</ele>
        <time>2020-08-20T16:41:35Z</time>
      </trkpt>
      <trkpt lat="42.683460" lon="-6.013550">
        <ele>1144.00</ele>
        <time>2020-08-20T16:41:38Z</time>
      </trkpt>
      <trkpt lat="42.683370" lon="-6.013590">
        <ele>1144.00</ele>
        <time>2020-08-20T16:41:40Z</time>
      </trkpt>
      <trkpt lat="42.683270" lon="-6.013680">
        <ele>1144.00</ele>
        <time>2020-08-20T16:41:44Z</time>
      </trkpt>
      <trkpt lat="42.683150" lon="-6.013750">
        <ele>1144.00</ele>
        <time>2020-08-20T16:41:47Z</time>
      </trkpt>
      <trkpt lat="42.683050" lon="-6.013780">
        <ele>1144.00</ele>
        <time>2020-08-20T16:41:50Z</time>
      </trkpt>
      <trkpt lat="42.682980" lon="-6.013790">
        <ele>1144.00</ele>
        <time>2020-08-20T16:41:52Z</time>
      </trkpt>
      <trkpt lat="42.682840" lon="-6.013810">
        <ele>1144.00</ele>
        <time>2020-08-20T16:41:55Z</time>
      </trkpt>
      <trkpt lat="42.682720" lon="-6.013920">
        <ele>1144.00</ele>
        <time>2020-08-20T16:41:59Z</time>
      </trkpt>
      <trkpt lat="42.682610" lon="-6.014120">
        <ele>1144.00</ele>
        <time>2020-08-20T16:42:04Z</time>
      </trkpt>
      <trkpt lat="42.682470" lon="-6.014280">
        <ele>1144.00</ele>
        <time>2020-08-20T16:42:09Z</time>
      </trkpt>
      <trkpt lat="42.682290" lon="-6.014590">
        <ele>1150.00</ele>
        <time>2020-08-20T16:42:17Z</time>
      </trkpt>
      <trkpt lat="42.682170" lon="-6.014890">
        <ele>1150.00</ele>
        <time>2020-08-20T16:42:24Z</time>
      </trkpt>
      <trkpt lat="42.682040" lon="-6.015210">
        <ele>1150.00</ele>
        <time>2020-08-20T16:42:31Z</time>
      </trkpt>
      <trkpt lat="42.681870" lon="-6.015690">
        <ele>1150.00</ele>
        <time>2020-08-20T16:42:41Z</time>
      </trkpt>
      <trkpt lat="42.681890" lon="-6.016100">
        <ele>1150.00</ele>
        <time>2020-08-20T16:42:49Z</time>
      </trkpt>
      <trkpt lat="42.681840" lon="-6.016300">
        <ele>1150.00</ele>
        <time>2020-08-20T16:42:53Z</time>
      </trkpt>
      <trkpt lat="42.681840" lon="-6.016770">
        <ele>1150.00</ele>
        <time>2020-08-20T16:43:03Z</time>
      </trkpt>
      <trkpt lat="42.681710" lon="-6.017280">
        <ele>1150.00</ele>
        <time>2020-08-20T16:43:13Z</time>
      </trkpt>
      <trkpt lat="42.681470" lon="-6.017850">
        <ele>1153.00</ele>
        <time>2020-08-20T16:43:26Z</time>
      </trkpt>
      <trkpt lat="42.681300" lon="-6.018280">
        <ele>1153.00</ele>
        <time>2020-08-20T16:43:36Z</time>
      </trkpt>
      <trkpt lat="42.681990" lon="-6.018170">
        <ele>1153.00</ele>
        <time>2020-08-20T16:43:54Z</time>
      </trkpt>
      <trkpt lat="42.682050" lon="-6.018150">
        <ele>1153.00</ele>
        <time>2020-08-20T16:43:56Z</time>
      </trkpt>
      <trkpt lat="42.682120" lon="-6.018100">
        <ele>1153.00</ele>
        <time>2020-08-20T16:43:58Z</time>
      </trkpt>
      <trkpt lat="42.682180" lon="-6.018080">
        <ele>1153.00</ele>
        <time>2020-08-20T16:44:00Z</time>
      </trkpt>
      <trkpt lat="42.683340" lon="-6.018040">
        <ele>1150.00</ele>
        <time>2020-08-20T16:44:31Z</time>
      </trkpt>
      <trkpt lat="42.684570" lon="-6.019000">
        <ele>1150.00</ele>
        <time>2020-08-20T16:45:09Z</time>
      </trkpt>
      <trkpt lat="42.685020" lon="-6.019650">
        <ele>1150.00</ele>
        <time>2020-08-20T16:45:26Z</time>
      </trkpt>
      <trkpt lat="42.685600" lon="-6.019150">
        <ele>1140.00</ele>
        <time>2020-08-20T16:45:44Z</time>
      </trkpt>
      <trkpt lat="42.685710" lon="-6.019130">
        <ele>1140.00</ele>
        <time>2020-08-20T16:45:47Z</time>
      </trkpt>
      <trkpt lat="42.685820" lon="-6.019140">
        <ele>1140.00</ele>
        <time>2020-08-20T16:45:50Z</time>
      </trkpt>
      <trkpt lat="42.686900" lon="-6.019830">
        <ele>1130.00</ele>
        <time>2020-08-20T16:46:22Z</time>
      </trkpt>
      <trkpt lat="42.687230" lon="-6.019830">
        <ele>1130.00</ele>
        <time>2020-08-20T16:46:31Z</time>
      </trkpt>
      <trkpt lat="42.687520" lon="-6.019800">
        <ele>1130.00</ele>
        <time>2020-08-20T16:46:39Z</time>
      </trkpt>
      <trkpt lat="42.687660" lon="-6.019660">
        <ele>1130.00</ele>
        <time>2020-08-20T16:46:43Z</time>
      </trkpt>
      <trkpt lat="42.687810" lon="-6.019310">
        <ele>1130.00</ele>
        <time>2020-08-20T16:46:51Z</time>
      </trkpt>
      <trkpt lat="42.687870" lon="-6.019160">
        <ele>1130.00</ele>
        <time>2020-08-20T16:46:55Z</time>
      </trkpt>
      <trkpt lat="42.687880" lon="-6.019050">
        <ele>1130.00</ele>
        <time>2020-08-20T16:46:57Z</time>
      </trkpt>
      <trkpt lat="42.687860" lon="-6.018870">
        <ele>1130.00</ele>
        <time>2020-08-20T16:47:01Z</time>
      </trkpt>
      <trkpt lat="42.687700" lon="-6.018260">
        <ele>1103.00</ele>
        <time>2020-08-20T16:47:13Z</time>
      </trkpt>
      <trkpt lat="42.687680" lon="-6.018150">
        <ele>1103.00</ele>
        <time>2020-08-20T16:47:15Z</time>
      </trkpt>
      <trkpt lat="42.687700" lon="-6.018030">
        <ele>1103.00</ele>
        <time>2020-08-20T16:47:18Z</time>
      </trkpt>
      <trkpt lat="42.687920" lon="-6.017440">
        <ele>1103.00</ele>
        <time>2020-08-20T16:47:31Z</time>
      </trkpt>
      <trkpt lat="42.687980" lon="-6.017330">
        <ele>1103.00</ele>
        <time>2020-08-20T16:47:34Z</time>
      </trkpt>
      <trkpt lat="42.688320" lon="-6.017030">
        <ele>1103.00</ele>
        <time>2020-08-20T16:47:44Z</time>
      </trkpt>
      <trkpt lat="42.688900" lon="-6.016570">
        <ele>1103.00</ele>
        <time>2020-08-20T16:48:02Z</time>
      </trkpt>
      <trkpt lat="42.689000" lon="-6.016540">
        <ele>1103.00</ele>
        <time>2020-08-20T16:48:05Z</time>
      </trkpt>
      <trkpt lat="42.689070" lon="-6.016530">
        <ele>1103.00</ele>
        <time>2020-08-20T16:48:07Z</time>
      </trkpt>
      <trkpt lat="42.689160" lon="-6.016550">
        <ele>1103.00</ele>
        <time>2020-08-20T16:48:09Z</time>
      </trkpt>
      <trkpt lat="42.689250" lon="-6.016620">
        <ele>1103.00</ele>
        <time>2020-08-20T16:48:12Z</time>
      </trkpt>
      <trkpt lat="42.689330" lon="-6.016700">
        <ele>1103.00</ele>
        <time>2020-08-20T16:48:15Z</time>
      </trkpt>
      <trkpt lat="42.689490" lon="-6.016780">
        <ele>1098.00</ele>
        <time>2020-08-20T16:48:19Z</time>
      </trkpt>
      <trkpt lat="42.689750" lon="-6.016920">
        <ele>1098.00</ele>
        <time>2020-08-20T16:48:27Z</time>
      </trkpt>
      <trkpt lat="42.690360" lon="-6.017150">
        <ele>1098.00</ele>
        <time>2020-08-20T16:48:44Z</time>
      </trkpt>
      <trkpt lat="42.690510" lon="-6.017240">
        <ele>1098.00</ele>
        <time>2020-08-20T16:48:48Z</time>
      </trkpt>
      <trkpt lat="42.691650" lon="-6.017690">
        <ele>1108.00</ele>
        <time>2020-08-20T16:49:20Z</time>
      </trkpt>
      <trkpt lat="42.691810" lon="-6.017690">
        <ele>1108.00</ele>
        <time>2020-08-20T16:49:24Z</time>
      </trkpt>
      <trkpt lat="42.691940" lon="-6.017500">
        <ele>1108.00</ele>
        <time>2020-08-20T16:49:29Z</time>
      </trkpt>
      <trkpt lat="42.692000" lon="-6.017120">
        <ele>1108.00</ele>
        <time>2020-08-20T16:49:37Z</time>
      </trkpt>
      <trkpt lat="42.692260" lon="-6.016460">
        <ele>1108.00</ele>
        <time>2020-08-20T16:49:52Z</time>
      </trkpt>
      <trkpt lat="42.692580" lon="-6.016820">
        <ele>1108.00</ele>
        <time>2020-08-20T16:50:03Z</time>
      </trkpt>
      <trkpt lat="42.692760" lon="-6.017100">
        <ele>1108.00</ele>
        <time>2020-08-20T16:50:10Z</time>
      </trkpt>
      <trkpt lat="42.693840" lon="-6.017960">
        <ele>1123.00</ele>
        <time>2020-08-20T16:50:43Z</time>
      </trkpt>
      <trkpt lat="42.695320" lon="-6.018820">
        <ele>1145.00</ele>
        <time>2020-08-20T16:51:26Z</time>
      </trkpt>
      <trkpt lat="42.696190" lon="-6.019720">
        <ele>1145.00</ele>
        <time>2020-08-20T16:51:56Z</time>
      </trkpt>
      <trkpt lat="42.696800" lon="-6.020310">
        <ele>1145.00</ele>
        <time>2020-08-20T16:52:16Z</time>
      </trkpt>
      <trkpt lat="42.696990" lon="-6.020530">
        <ele>1145.00</ele>
        <time>2020-08-20T16:52:22Z</time>
      </trkpt>
      <trkpt lat="42.697350" lon="-6.021010">
        <ele>1171.00</ele>
        <time>2020-08-20T16:52:36Z</time>
      </trkpt>
      <trkpt lat="42.698790" lon="-6.022650">
        <ele>1171.00</ele>
        <time>2020-08-20T16:53:26Z</time>
      </trkpt>
      <trkpt lat="42.698910" lon="-6.022760">
        <ele>1183.00</ele>
        <time>2020-08-20T16:53:30Z</time>
      </trkpt>
      <trkpt lat="42.699050" lon="-6.022960">
        <ele>1183.00</ele>
        <time>2020-08-20T16:53:35Z</time>
      </trkpt>
      <trkpt lat="42.699230" lon="-6.023440">
        <ele>1183.00</ele>
        <time>2020-08-20T16:53:46Z</time>
      </trkpt>
      <trkpt lat="42.699350" lon="-6.023770">
        <ele>1183.00</ele>
        <time>2020-08-20T16:53:53Z</time>
      </trkpt>
      <trkpt lat="42.699500" lon="-6.024060">
        <ele>1183.00</ele>
        <time>2020-08-20T16:54:00Z</time>
      </trkpt>
      <trkpt lat="42.699820" lon="-6.024610">
        <ele>1183.00</ele>
        <time>2020-08-20T16:54:14Z</time>
      </trkpt>
      <trkpt lat="42.700110" lon="-6.025410">
        <ele>1200.00</ele>
        <time>2020-08-20T16:54:31Z</time>
      </trkpt>
      <trkpt lat="42.700420" lon="-6.026660">
        <ele>1200.00</ele>
        <time>2020-08-20T16:54:57Z</time>
      </trkpt>
      <trkpt lat="42.700630" lon="-6.027520">
        <ele>1200.00</ele>
        <time>2020-08-20T16:55:15Z</time>
      </trkpt>
      <trkpt lat="42.700860" lon="-6.028410">
        <ele>1200.00</ele>
        <time>2020-08-20T16:55:33Z</time>
      </trkpt>
      <trkpt lat="42.701360" lon="-6.030780">
        <ele>1221.00</ele>
        <time>2020-08-20T16:56:22Z</time>
      </trkpt>
      <trkpt lat="42.701940" lon="-6.031610">
        <ele>1221.00</ele>
        <time>2020-08-20T16:56:44Z</time>
      </trkpt>
      <trkpt lat="42.702120" lon="-6.031910">
        <ele>1249.00</ele>
        <time>2020-08-20T16:56:52Z</time>
      </trkpt>
      <trkpt lat="42.702320" lon="-6.032420">
        <ele>1249.00</ele>
        <time>2020-08-20T16:57:03Z</time>
      </trkpt>
      <trkpt lat="42.702710" lon="-6.032790">
        <ele>1249.00</ele>
        <time>2020-08-20T16:57:16Z</time>
      </trkpt>
      <trkpt lat="42.702920" lon="-6.033260">
        <ele>1249.00</ele>
        <time>2020-08-20T16:57:27Z</time>
      </trkpt>
      <trkpt lat="42.703420" lon="-6.033560">
        <ele>1249.00</ele>
        <time>2020-08-20T16:57:41Z</time>
      </trkpt>
      <trkpt lat="42.703570" lon="-6.033750">
        <ele>1249.00</ele>
        <time>2020-08-20T16:57:47Z</time>
      </trkpt>
      <trkpt lat="42.704660" lon="-6.036190">
        <ele>1276.00</ele>
        <time>2020-08-20T16:58:43Z</time>
      </trkpt>
      <trkpt lat="42.705030" lon="-6.037090">
        <ele>1276.00</ele>
        <time>2020-08-20T16:59:03Z</time>
      </trkpt>
      <trkpt lat="42.705270" lon="-6.037830">
        <ele>1299.00</ele>
        <time>2020-08-20T16:59:19Z</time>
      </trkpt>
      <trkpt lat="42.705350" lon="-6.038090">
        <ele>1299.00</ele>
        <time>2020-08-20T16:59:25Z</time>
      </trkpt>
      <trkpt lat="42.705680" lon="-6.038610">
        <ele>1299.00</ele>
        <time>2020-08-20T16:59:38Z</time>
      </trkpt>
      <trkpt lat="42.706500" lon="-6.038670">
        <ele>1299.00</ele>
        <time>2020-08-20T17:00:00Z</time>
      </trkpt>
      <trkpt lat="42.706480" lon="-6.038800">
        <ele>1299.00</ele>
        <time>2020-08-20T17:00:03Z</time>
      </trkpt>
      <trkpt lat="42.706650" lon="-6.039250">
        <ele>1299.00</ele>
        <time>2020-08-20T17:00:13Z</time>
      </trkpt>
      <trkpt lat="42.707020" lon="-6.040170">
        <ele>1324.00</ele>
        <time>2020-08-20T17:00:33Z</time>
      </trkpt>
      <trkpt lat="42.707210" lon="-6.040590">
        <ele>1324.00</ele>
        <time>2020-08-20T17:00:43Z</time>
      </trkpt>
      <trkpt lat="42.707340" lon="-6.040960">
        <ele>1324.00</ele>
        <time>2020-08-20T17:00:51Z</time>
      </trkpt>
      <trkpt lat="42.707430" lon="-6.041310">
        <ele>1324.00</ele>
        <time>2020-08-20T17:00:58Z</time>
      </trkpt>
      <trkpt lat="42.707540" lon="-6.041770">
        <ele>1324.00</ele>
        <time>2020-08-20T17:01:08Z</time>
      </trkpt>
      <trkpt lat="42.707480" lon="-6.042660">
        <ele>1324.00</ele>
        <time>2020-08-20T17:01:25Z</time>
      </trkpt>
      <trkpt lat="42.707420" lon="-6.043320">
        <ele>1348.00</ele>
        <time>2020-08-20T17:01:38Z</time>
      </trkpt>
      <trkpt lat="42.707520" lon="-6.043510">
        <ele>1348.00</ele>
        <time>2020-08-20T17:01:43Z</time>
      </trkpt>
      <trkpt lat="42.707600" lon="-6.043760">
        <ele>1348.00</ele>
        <time>2020-08-20T17:01:48Z</time>
      </trkpt>
      <trkpt lat="42.707660" lon="-6.044140">
        <ele>1348.00</ele>
        <time>2020-08-20T17:01:56Z</time>
      </trkpt>
      <trkpt lat="42.707800" lon="-6.045230">
        <ele>1348.00</ele>
        <time>2020-08-20T17:02:18Z</time>
      </trkpt>
      <trkpt lat="42.708310" lon="-6.046590">
        <ele>1390.00</ele>
        <time>2020-08-20T17:02:48Z</time>
      </trkpt>
      <trkpt lat="42.708770" lon="-6.047530">
        <ele>1390.00</ele>
        <time>2020-08-20T17:03:10Z</time>
      </trkpt>
      <trkpt lat="42.709210" lon="-6.048480">
        <ele>1390.00</ele>
        <time>2020-08-20T17:03:32Z</time>
      </trkpt>
      <trkpt lat="42.709580" lon="-6.049330">
        <ele>1390.00</ele>
        <time>2020-08-20T17:03:51Z</time>
      </trkpt>
      <trkpt lat="42.709810" lon="-6.049830">
        <ele>1426.00</ele>
        <time>2020-08-20T17:04:03Z</time>
      </trkpt>
      <trkpt lat="42.709980" lon="-6.050190">
        <ele>1426.00</ele>
        <time>2020-08-20T17:04:11Z</time>
      </trkpt>
      <trkpt lat="42.710060" lon="-6.050400">
        <ele>1426.00</ele>
        <time>2020-08-20T17:04:16Z</time>
      </trkpt>
      <trkpt lat="42.710090" lon="-6.050820">
        <ele>1426.00</ele>
        <time>2020-08-20T17:04:24Z</time>
      </trkpt>
      <trkpt lat="42.710160" lon="-6.051330">
        <ele>1426.00</ele>
        <time>2020-08-20T17:04:34Z</time>
      </trkpt>
      <trkpt lat="42.710400" lon="-6.052000">
        <ele>1426.00</ele>
        <time>2020-08-20T17:04:49Z</time>
      </trkpt>
      <trkpt lat="42.710580" lon="-6.052460">
        <ele>1426.00</ele>
        <time>2020-08-20T17:04:59Z</time>
      </trkpt>
      <trkpt lat="42.710700" lon="-6.052640">
        <ele>1461.00</ele>
        <time>2020-08-20T17:05:04Z</time>
      </trkpt>
      <trkpt lat="42.710770" lon="-6.052740">
        <ele>1461.00</ele>
        <time>2020-08-20T17:05:07Z</time>
      </trkpt>
      <trkpt lat="42.711090" lon="-6.053530">
        <ele>1461.00</ele>
        <time>2020-08-20T17:05:24Z</time>
      </trkpt>
      <trkpt lat="42.711250" lon="-6.054000">
        <ele>1461.00</ele>
        <time>2020-08-20T17:05:35Z</time>
      </trkpt>
      <trkpt lat="42.711380" lon="-6.054350">
        <ele>1461.00</ele>
        <time>2020-08-20T17:05:42Z</time>
      </trkpt>
      <trkpt lat="42.711570" lon="-6.054820">
        <ele>1461.00</ele>
        <time>2020-08-20T17:05:53Z</time>
      </trkpt>
      <trkpt lat="42.711630" lon="-6.055040">
        <ele>1461.00</ele>
        <time>2020-08-20T17:05:57Z</time>
      </trkpt>
      <trkpt lat="42.711700" lon="-6.055350">
        <ele>1461.00</ele>
        <time>2020-08-20T17:06:04Z</time>
      </trkpt>
      <trkpt lat="42.711750" lon="-6.055600">
        <ele>1461.00</ele>
        <time>2020-08-20T17:06:09Z</time>
      </trkpt>
      <trkpt lat="42.711800" lon="-6.056010">
        <ele>1457.00</ele>
        <time>2020-08-20T17:06:17Z</time>
      </trkpt>
      <trkpt lat="42.711830" lon="-6.056230">
        <ele>1457.00</ele>
        <time>2020-08-20T17:06:21Z</time>
      </trkpt>
      <trkpt lat="42.711870" lon="-6.056490">
        <ele>1457.00</ele>
        <time>2020-08-20T17:06:27Z</time>
      </trkpt>
      <trkpt lat="42.711950" lon="-6.057140">
        <ele>1457.00</ele>
        <time>2020-08-20T17:06:40Z</time>
      </trkpt>
      <trkpt lat="42.712060" lon="-6.057970">
        <ele>1457.00</ele>
        <time>2020-08-20T17:06:56Z</time>
      </trkpt>
      <trkpt lat="42.712100" lon="-6.058550">
        <ele>1457.00</ele>
        <time>2020-08-20T17:07:08Z</time>
      </trkpt>
      <trkpt lat="42.712090" lon="-6.058810">
        <ele>1457.00</ele>
        <time>2020-08-20T17:07:13Z</time>
      </trkpt>
      <trkpt lat="42.712000" lon="-6.059990">
        <ele>1449.00</ele>
        <time>2020-08-20T17:07:36Z</time>
      </trkpt>
      <trkpt lat="42.711850" lon="-6.060730">
        <ele>1449.00</ele>
        <time>2020-08-20T17:07:51Z</time>
      </trkpt>
      <trkpt lat="42.711790" lon="-6.061070">
        <ele>1449.00</ele>
        <time>2020-08-20T17:07:58Z</time>
      </trkpt>
      <trkpt lat="42.711740" lon="-6.061340">
        <ele>1449.00</ele>
        <time>2020-08-20T17:08:03Z</time>
      </trkpt>
      <trkpt lat="42.711770" lon="-6.061800">
        <ele>1449.00</ele>
        <time>2020-08-20T17:08:12Z</time>
      </trkpt>
      <trkpt lat="42.711870" lon="-6.062400">
        <ele>1449.00</ele>
        <time>2020-08-20T17:08:24Z</time>
      </trkpt>
      <trkpt lat="42.712030" lon="-6.063140">
        <ele>1456.00</ele>
        <time>2020-08-20T17:08:40Z</time>
      </trkpt>
      <trkpt lat="42.712120" lon="-6.063570">
        <ele>1456.00</ele>
        <time>2020-08-20T17:08:48Z</time>
      </trkpt>
      <trkpt lat="42.712160" lon="-6.063880">
        <ele>1456.00</ele>
        <time>2020-08-20T17:08:55Z</time>
      </trkpt>
      <trkpt lat="42.712130" lon="-6.064140">
        <ele>1456.00</ele>
        <time>2020-08-20T17:09:00Z</time>
      </trkpt>
      <trkpt lat="42.711870" lon="-6.065060">
        <ele>1456.00</ele>
        <time>2020-08-20T17:09:19Z</time>
      </trkpt>
      <trkpt lat="42.711760" lon="-6.065330">
        <ele>1456.00</ele>
        <time>2020-08-20T17:09:25Z</time>
      </trkpt>
      <trkpt lat="42.711420" lon="-6.066170">
        <ele>1456.00</ele>
        <time>2020-08-20T17:09:44Z</time>
      </trkpt>
      <trkpt lat="42.711370" lon="-6.066490">
        <ele>1456.00</ele>
        <time>2020-08-20T17:09:50Z</time>
      </trkpt>
      <trkpt lat="42.711400" lon="-6.066810">
        <ele>1456.00</ele>
        <time>2020-08-20T17:09:57Z</time>
      </trkpt>
      <trkpt lat="42.711440" lon="-6.067220">
        <ele>1456.00</ele>
        <time>2020-08-20T17:10:05Z</time>
      </trkpt>
      <trkpt lat="42.711300" lon="-6.067540">
        <ele>1456.00</ele>
        <time>2020-08-20T17:10:12Z</time>
      </trkpt>
      <trkpt lat="42.711210" lon="-6.067560">
        <ele>1456.00</ele>
        <time>2020-08-20T17:10:15Z</time>
      </trkpt>
      <trkpt lat="42.710920" lon="-6.067410">
        <ele>1456.00</ele>
        <time>2020-08-20T17:10:23Z</time>
      </trkpt>
      <trkpt lat="42.711000" lon="-6.067750">
        <ele>1456.00</ele>
        <time>2020-08-20T17:10:30Z</time>
      </trkpt>
      <trkpt lat="42.711440" lon="-6.068790">
        <ele>1456.00</ele>
        <time>2020-08-20T17:10:53Z</time>
      </trkpt>
      <trkpt lat="42.711650" lon="-6.069200">
        <ele>1467.00</ele>
        <time>2020-08-20T17:11:03Z</time>
      </trkpt>
      <trkpt lat="42.711600" lon="-6.071020">
        <ele>1467.00</ele>
        <time>2020-08-20T17:11:39Z</time>
      </trkpt>
      <trkpt lat="42.711430" lon="-6.071380">
        <ele>1467.00</ele>
        <time>2020-08-20T17:11:47Z</time>
      </trkpt>
      <trkpt lat="42.710950" lon="-6.072090">
        <ele>1467.00</ele>
        <time>2020-08-20T17:12:06Z</time>
      </trkpt>
      <trkpt lat="42.710340" lon="-6.072870">
        <ele>1437.00</ele>
        <time>2020-08-20T17:12:29Z</time>
      </trkpt>
      <trkpt lat="42.710160" lon="-6.072990">
        <ele>1437.00</ele>
        <time>2020-08-20T17:12:34Z</time>
      </trkpt>
      <trkpt lat="42.710230" lon="-6.073670">
        <ele>1437.00</ele>
        <time>2020-08-20T17:12:48Z</time>
      </trkpt>
      <trkpt lat="42.710240" lon="-6.073800">
        <ele>1437.00</ele>
        <time>2020-08-20T17:12:50Z</time>
      </trkpt>
      <trkpt lat="42.710020" lon="-6.073770">
        <ele>1437.00</ele>
        <time>2020-08-20T17:12:56Z</time>
      </trkpt>
      <trkpt lat="42.709780" lon="-6.073620">
        <ele>1437.00</ele>
        <time>2020-08-20T17:13:03Z</time>
      </trkpt>
      <trkpt lat="42.709430" lon="-6.073720">
        <ele>1437.00</ele>
        <time>2020-08-20T17:13:13Z</time>
      </trkpt>
      <trkpt lat="42.709110" lon="-6.073600">
        <ele>1436.00</ele>
        <time>2020-08-20T17:13:22Z</time>
      </trkpt>
      <trkpt lat="42.708400" lon="-6.073880">
        <ele>1436.00</ele>
        <time>2020-08-20T17:13:41Z</time>
      </trkpt>
      <trkpt lat="42.708410" lon="-6.073980">
        <ele>1436.00</ele>
        <time>2020-08-20T17:13:43Z</time>
      </trkpt>
      <trkpt lat="42.708520" lon="-6.073960">
        <ele>1436.00</ele>
        <time>2020-08-20T17:13:46Z</time>
      </trkpt>
      <trkpt lat="42.708620" lon="-6.074020">
        <ele>1436.00</ele>
        <time>2020-08-20T17:13:49Z</time>
      </trkpt>
      <trkpt lat="42.708870" lon="-6.074230">
        <ele>1436.00</ele>
        <time>2020-08-20T17:13:57Z</time>
      </trkpt>
      <trkpt lat="42.709210" lon="-6.074570">
        <ele>1436.00</ele>
        <time>2020-08-20T17:14:08Z</time>
      </trkpt>
      <trkpt lat="42.709260" lon="-6.074730">
        <ele>1436.00</ele>
        <time>2020-08-20T17:14:12Z</time>
      </trkpt>
      <trkpt lat="42.709480" lon="-6.075400">
        <ele>1436.00</ele>
        <time>2020-08-20T17:14:26Z</time>
      </trkpt>
      <trkpt lat="42.709600" lon="-6.075580">
        <ele>1433.00</ele>
        <time>2020-08-20T17:14:31Z</time>
      </trkpt>
      <trkpt lat="42.709770" lon="-6.075790">
        <ele>1433.00</ele>
        <time>2020-08-20T17:14:37Z</time>
      </trkpt>
      <trkpt lat="42.709970" lon="-6.076010">
        <ele>1433.00</ele>
        <time>2020-08-20T17:14:44Z</time>
      </trkpt>
      <trkpt lat="42.710160" lon="-6.076230">
        <ele>1433.00</ele>
        <time>2020-08-20T17:14:51Z</time>
      </trkpt>
      <trkpt lat="42.710210" lon="-6.076360">
        <ele>1433.00</ele>
        <time>2020-08-20T17:14:53Z</time>
      </trkpt>
      <trkpt lat="42.710220" lon="-6.076560">
        <ele>1433.00</ele>
        <time>2020-08-20T17:14:57Z</time>
      </trkpt>
      <trkpt lat="42.710200" lon="-6.076700">
        <ele>1433.00</ele>
        <time>2020-08-20T17:15:00Z</time>
      </trkpt>
      <trkpt lat="42.710170" lon="-6.076790">
        <ele>1433.00</ele>
        <time>2020-08-20T17:15:02Z</time>
      </trkpt>
      <trkpt lat="42.710110" lon="-6.076930">
        <ele>1433.00</ele>
        <time>2020-08-20T17:15:05Z</time>
      </trkpt>
      <trkpt lat="42.710060" lon="-6.077070">
        <ele>1433.00</ele>
        <time>2020-08-20T17:15:08Z</time>
      </trkpt>
      <trkpt lat="42.709950" lon="-6.077470">
        <ele>1433.00</ele>
        <time>2020-08-20T17:15:17Z</time>
      </trkpt>
      <trkpt lat="42.709930" lon="-6.077730">
        <ele>1433.00</ele>
        <time>2020-08-20T17:15:22Z</time>
      </trkpt>
      <trkpt lat="42.710100" lon="-6.078970">
        <ele>1446.00</ele>
        <time>2020-08-20T17:15:47Z</time>
      </trkpt>
      <trkpt lat="42.710170" lon="-6.079260">
        <ele>1446.00</ele>
        <time>2020-08-20T17:15:53Z</time>
      </trkpt>
      <trkpt lat="42.710130" lon="-6.079420">
        <ele>1446.00</ele>
        <time>2020-08-20T17:15:56Z</time>
      </trkpt>
      <trkpt lat="42.710020" lon="-6.079580">
        <ele>1446.00</ele>
        <time>2020-08-20T17:16:00Z</time>
      </trkpt>
      <trkpt lat="42.709930" lon="-6.079740">
        <ele>1446.00</ele>
        <time>2020-08-20T17:16:04Z</time>
      </trkpt>
      <trkpt lat="42.709870" lon="-6.079980">
        <ele>1446.00</ele>
        <time>2020-08-20T17:16:09Z</time>
      </trkpt>
      <trkpt lat="42.709880" lon="-6.080230">
        <ele>1446.00</ele>
        <time>2020-08-20T17:16:14Z</time>
      </trkpt>
      <trkpt lat="42.709950" lon="-6.080640">
        <ele>1446.00</ele>
        <time>2020-08-20T17:16:22Z</time>
      </trkpt>
      <trkpt lat="42.710070" lon="-6.081040">
        <ele>1446.00</ele>
        <time>2020-08-20T17:16:31Z</time>
      </trkpt>
      <trkpt lat="42.710340" lon="-6.081520">
        <ele>1446.00</ele>
        <time>2020-08-20T17:16:43Z</time>
      </trkpt>
      <trkpt lat="42.710470" lon="-6.081870">
        <ele>1446.00</ele>
        <time>2020-08-20T17:16:50Z</time>
      </trkpt>
      <trkpt lat="42.710460" lon="-6.081970">
        <ele>1408.00</ele>
        <time>2020-08-20T17:16:52Z</time>
      </trkpt>
      <trkpt lat="42.710420" lon="-6.082000">
        <ele>1408.00</ele>
        <time>2020-08-20T17:16:54Z</time>
      </trkpt>
      <trkpt lat="42.710350" lon="-6.082010">
        <ele>1408.00</ele>
        <time>2020-08-20T17:16:55Z</time>
      </trkpt>
      <trkpt lat="42.710260" lon="-6.082010">
        <ele>1408.00</ele>
        <time>2020-08-20T17:16:58Z</time>
      </trkpt>
      <trkpt lat="42.710130" lon="-6.082070">
        <ele>1408.00</ele>
        <time>2020-08-20T17:17:02Z</time>
      </trkpt>
      <trkpt lat="42.710030" lon="-6.082200">
        <ele>1408.00</ele>
        <time>2020-08-20T17:17:05Z</time>
      </trkpt>
      <trkpt lat="42.709940" lon="-6.082280">
        <ele>1408.00</ele>
        <time>2020-08-20T17:17:08Z</time>
      </trkpt>
      <trkpt lat="42.709600" lon="-6.082330">
        <ele>1408.00</ele>
        <time>2020-08-20T17:17:17Z</time>
      </trkpt>
      <trkpt lat="42.709550" lon="-6.082370">
        <ele>1408.00</ele>
        <time>2020-08-20T17:17:19Z</time>
      </trkpt>
      <trkpt lat="42.709500" lon="-6.082480">
        <ele>1408.00</ele>
        <time>2020-08-20T17:17:21Z</time>
      </trkpt>
      <trkpt lat="42.709440" lon="-6.082740">
        <ele>1408.00</ele>
        <time>2020-08-20T17:17:27Z</time>
      </trkpt>
      <trkpt lat="42.709390" lon="-6.083150">
        <ele>1408.00</ele>
        <time>2020-08-20T17:17:35Z</time>
      </trkpt>
      <trkpt lat="42.709430" lon="-6.083560">
        <ele>1408.00</ele>
        <time>2020-08-20T17:17:43Z</time>
      </trkpt>
      <trkpt lat="42.709500" lon="-6.083800">
        <ele>1408.00</ele>
        <time>2020-08-20T17:17:48Z</time>
      </trkpt>
      <trkpt lat="42.709620" lon="-6.084030">
        <ele>1408.00</ele>
        <time>2020-08-20T17:17:54Z</time>
      </trkpt>
      <trkpt lat="42.710250" lon="-6.084790">
        <ele>1372.00</ele>
        <time>2020-08-20T17:18:16Z</time>
      </trkpt>
      <trkpt lat="42.710600" lon="-6.085060">
        <ele>1372.00</ele>
        <time>2020-08-20T17:18:27Z</time>
      </trkpt>
      <trkpt lat="42.710820" lon="-6.085150">
        <ele>1372.00</ele>
        <time>2020-08-20T17:18:33Z</time>
      </trkpt>
      <trkpt lat="42.711010" lon="-6.085160">
        <ele>1372.00</ele>
        <time>2020-08-20T17:18:38Z</time>
      </trkpt>
      <trkpt lat="42.711360" lon="-6.085170">
        <ele>1372.00</ele>
        <time>2020-08-20T17:18:47Z</time>
      </trkpt>
      <trkpt lat="42.711560" lon="-6.085230">
        <ele>1372.00</ele>
        <time>2020-08-20T17:18:53Z</time>
      </trkpt>
      <trkpt lat="42.711700" lon="-6.085310">
        <ele>1372.00</ele>
        <time>2020-08-20T17:18:57Z</time>
      </trkpt>
      <trkpt lat="42.711880" lon="-6.085470">
        <ele>1372.00</ele>
        <time>2020-08-20T17:19:03Z</time>
      </trkpt>
      <trkpt lat="42.712080" lon="-6.085640">
        <ele>1343.00</ele>
        <time>2020-08-20T17:19:09Z</time>
      </trkpt>
      <trkpt lat="42.712390" lon="-6.085930">
        <ele>1343.00</ele>
        <time>2020-08-20T17:19:19Z</time>
      </trkpt>
      <trkpt lat="42.712580" lon="-6.085960">
        <ele>1343.00</ele>
        <time>2020-08-20T17:19:24Z</time>
      </trkpt>
      <trkpt lat="42.712810" lon="-6.086910">
        <ele>1343.00</ele>
        <time>2020-08-20T17:19:44Z</time>
      </trkpt>
      <trkpt lat="42.713310" lon="-6.088180">
        <ele>1316.00</ele>
        <time>2020-08-20T17:20:12Z</time>
      </trkpt>
      <trkpt lat="42.713640" lon="-6.088710">
        <ele>1316.00</ele>
        <time>2020-08-20T17:20:26Z</time>
      </trkpt>
      <trkpt lat="42.713820" lon="-6.089470">
        <ele>1316.00</ele>
        <time>2020-08-20T17:20:41Z</time>
      </trkpt>
      <trkpt lat="42.714150" lon="-6.089960">
        <ele>1316.00</ele>
        <time>2020-08-20T17:20:54Z</time>
      </trkpt>
      <trkpt lat="42.714410" lon="-6.090660">
        <ele>1317.00</ele>
        <time>2020-08-20T17:21:10Z</time>
      </trkpt>
      <trkpt lat="42.714710" lon="-6.091380">
        <ele>1317.00</ele>
        <time>2020-08-20T17:21:26Z</time>
      </trkpt>
      <trkpt lat="42.714740" lon="-6.091530">
        <ele>1317.00</ele>
        <time>2020-08-20T17:21:29Z</time>
      </trkpt>
      <trkpt lat="42.715010" lon="-6.092720">
        <ele>1317.00</ele>
        <time>2020-08-20T17:21:54Z</time>
      </trkpt>
      <trkpt lat="42.715300" lon="-6.093560">
        <ele>1316.00</ele>
        <time>2020-08-20T17:22:12Z</time>
      </trkpt>
      <trkpt lat="42.715500" lon="-6.094120">
        <ele>1316.00</ele>
        <time>2020-08-20T17:22:24Z</time>
      </trkpt>
      <trkpt lat="42.715960" lon="-6.095030">
        <ele>1316.00</ele>
        <time>2020-08-20T17:22:46Z</time>
      </trkpt>
      <trkpt lat="42.715970" lon="-6.095260">
        <ele>1316.00</ele>
        <time>2020-08-20T17:22:50Z</time>
      </trkpt>
      <trkpt lat="42.716020" lon="-6.095460">
        <ele>1316.00</ele>
        <time>2020-08-20T17:22:54Z</time>
      </trkpt>
      <trkpt lat="42.716010" lon="-6.095740">
        <ele>1316.00</ele>
        <time>2020-08-20T17:23:00Z</time>
      </trkpt>
      <trkpt lat="42.716000" lon="-6.095960">
        <ele>1331.00</ele>
        <time>2020-08-20T17:23:04Z</time>
      </trkpt>
      <trkpt lat="42.715990" lon="-6.096220">
        <ele>1331.00</ele>
        <time>2020-08-20T17:23:09Z</time>
      </trkpt>
      <trkpt lat="42.716040" lon="-6.096420">
        <ele>1331.00</ele>
        <time>2020-08-20T17:23:13Z</time>
      </trkpt>
      <trkpt lat="42.716040" lon="-6.096710">
        <ele>1331.00</ele>
        <time>2020-08-20T17:23:19Z</time>
      </trkpt>
      <trkpt lat="42.716020" lon="-6.096980">
        <ele>1331.00</ele>
        <time>2020-08-20T17:23:24Z</time>
      </trkpt>
      <trkpt lat="42.716060" lon="-6.097210">
        <ele>1331.00</ele>
        <time>2020-08-20T17:23:29Z</time>
      </trkpt>
      <trkpt lat="42.716220" lon="-6.097830">
        <ele>1331.00</ele>
        <time>2020-08-20T17:23:42Z</time>
      </trkpt>
      <trkpt lat="42.716450" lon="-6.098290">
        <ele>1331.00</ele>
        <time>2020-08-20T17:23:53Z</time>
      </trkpt>
      <trkpt lat="42.716730" lon="-6.098940">
        <ele>1331.00</ele>
        <time>2020-08-20T17:24:08Z</time>
      </trkpt>
      <trkpt lat="42.717080" lon="-6.100260">
        <ele>1335.00</ele>
        <time>2020-08-20T17:24:35Z</time>
      </trkpt>
      <trkpt lat="42.717280" lon="-6.100900">
        <ele>1335.00</ele>
        <time>2020-08-20T17:24:49Z</time>
      </trkpt>
      <trkpt lat="42.717530" lon="-6.101110">
        <ele>1335.00</ele>
        <time>2020-08-20T17:24:57Z</time>
      </trkpt>
      <trkpt lat="42.718100" lon="-6.101070">
        <ele>1335.00</ele>
        <time>2020-08-20T17:25:12Z</time>
      </trkpt>
      <trkpt lat="42.718190" lon="-6.100870">
        <ele>1335.00</ele>
        <time>2020-08-20T17:25:17Z</time>
      </trkpt>
      <trkpt lat="42.718260" lon="-6.100670">
        <ele>1335.00</ele>
        <time>2020-08-20T17:25:21Z</time>
      </trkpt>
      <trkpt lat="42.718400" lon="-6.100530">
        <ele>1333.00</ele>
        <time>2020-08-20T17:25:26Z</time>
      </trkpt>
      <trkpt lat="42.718710" lon="-6.100680">
        <ele>1333.00</ele>
        <time>2020-08-20T17:25:34Z</time>
      </trkpt>
      <trkpt lat="42.719010" lon="-6.101550">
        <ele>1333.00</ele>
        <time>2020-08-20T17:25:53Z</time>
      </trkpt>
      <trkpt lat="42.719200" lon="-6.102510">
        <ele>1333.00</ele>
        <time>2020-08-20T17:26:13Z</time>
      </trkpt>
      <trkpt lat="42.719300" lon="-6.103090">
        <ele>1333.00</ele>
        <time>2020-08-20T17:26:24Z</time>
      </trkpt>
      <trkpt lat="42.719260" lon="-6.103780">
        <ele>1296.00</ele>
        <time>2020-08-20T17:26:38Z</time>
      </trkpt>
      <trkpt lat="42.719290" lon="-6.104120">
        <ele>1296.00</ele>
        <time>2020-08-20T17:26:45Z</time>
      </trkpt>
      <trkpt lat="42.719460" lon="-6.104790">
        <ele>1296.00</ele>
        <time>2020-08-20T17:26:59Z</time>
      </trkpt>
      <trkpt lat="42.719470" lon="-6.105100">
        <ele>1296.00</ele>
        <time>2020-08-20T17:27:05Z</time>
      </trkpt>
      <trkpt lat="42.719410" lon="-6.106240">
        <ele>1296.00</ele>
        <time>2020-08-20T17:27:27Z</time>
      </trkpt>
      <trkpt lat="42.719460" lon="-6.106610">
        <ele>1296.00</ele>
        <time>2020-08-20T17:27:35Z</time>
      </trkpt>
      <trkpt lat="42.719680" lon="-6.107330">
        <ele>1286.00</ele>
        <time>2020-08-20T17:27:50Z</time>
      </trkpt>
      <trkpt lat="42.719660" lon="-6.107740">
        <ele>1286.00</ele>
        <time>2020-08-20T17:27:58Z</time>
      </trkpt>
      <trkpt lat="42.719390" lon="-6.108420">
        <ele>1286.00</ele>
        <time>2020-08-20T17:28:13Z</time>
      </trkpt>
      <trkpt lat="42.719320" lon="-6.108760">
        <ele>1286.00</ele>
        <time>2020-08-20T17:28:20Z</time>
      </trkpt>
      <trkpt lat="42.719350" lon="-6.109160">
        <ele>1286.00</ele>
        <time>2020-08-20T17:28:28Z</time>
      </trkpt>
      <trkpt lat="42.719410" lon="-6.109560">
        <ele>1286.00</ele>
        <time>2020-08-20T17:28:36Z</time>
      </trkpt>
      <trkpt lat="42.719390" lon="-6.110120">
        <ele>1286.00</ele>
        <time>2020-08-20T17:28:47Z</time>
      </trkpt>
      <trkpt lat="42.719210" lon="-6.110920">
        <ele>1279.00</ele>
        <time>2020-08-20T17:29:03Z</time>
      </trkpt>
      <trkpt lat="42.719170" lon="-6.111410">
        <ele>1279.00</ele>
        <time>2020-08-20T17:29:13Z</time>
      </trkpt>
      <trkpt lat="42.719190" lon="-6.114250">
        <ele>1293.00</ele>
        <time>2020-08-20T17:30:09Z</time>
      </trkpt>
      <trkpt lat="42.719180" lon="-6.116680">
        <ele>1293.00</ele>
        <time>2020-08-20T17:30:56Z</time>
      </trkpt>
      <trkpt lat="42.719180" lon="-6.117750">
        <ele>1274.00</ele>
        <time>2020-08-20T17:31:18Z</time>
      </trkpt>
      <trkpt lat="42.719160" lon="-6.118690">
        <ele>1274.00</ele>
        <time>2020-08-20T17:31:36Z</time>
      </trkpt>
      <trkpt lat="42.719160" lon="-6.119220">
        <ele>1274.00</ele>
        <time>2020-08-20T17:31:46Z</time>
      </trkpt>
      <trkpt lat="42.719150" lon="-6.119970">
        <ele>1274.00</ele>
        <time>2020-08-20T17:32:01Z</time>
      </trkpt>
      <trkpt lat="42.719040" lon="-6.119730">
        <ele>1274.00</ele>
        <time>2020-08-20T17:32:07Z</time>
      </trkpt>
      <trkpt lat="42.718930" lon="-6.119500">
        <ele>1274.00</ele>
        <time>2020-08-20T17:32:12Z</time>
      </trkpt>
      <trkpt lat="42.718830" lon="-6.119390">
        <ele>1259.00</ele>
        <time>2020-08-20T17:32:15Z</time>
      </trkpt>
      <trkpt lat="42.718530" lon="-6.119490">
        <ele>1259.00</ele>
        <time>2020-08-20T17:32:24Z</time>
      </trkpt>
      <trkpt lat="42.718280" lon="-6.119660">
        <ele>1259.00</ele>
        <time>2020-08-20T17:32:31Z</time>
      </trkpt>
      <trkpt lat="42.718190" lon="-6.119800">
        <ele>1259.00</ele>
        <time>2020-08-20T17:32:35Z</time>
      </trkpt>
      <trkpt lat="42.718170" lon="-6.120010">
        <ele>1259.00</ele>
        <time>2020-08-20T17:32:39Z</time>
      </trkpt>
      <trkpt lat="42.718180" lon="-6.120780">
        <ele>1259.00</ele>
        <time>2020-08-20T17:32:54Z</time>
      </trkpt>
      <trkpt lat="42.718120" lon="-6.121670">
        <ele>1259.00</ele>
        <time>2020-08-20T17:33:12Z</time>
      </trkpt>
      <trkpt lat="42.718020" lon="-6.121960">
        <ele>1259.00</ele>
        <time>2020-08-20T17:33:18Z</time>
      </trkpt>
      <trkpt lat="42.717910" lon="-6.122100">
        <ele>1259.00</ele>
        <time>2020-08-20T17:33:22Z</time>
      </trkpt>
      <trkpt lat="42.717820" lon="-6.122170">
        <ele>1256.00</ele>
        <time>2020-08-20T17:33:25Z</time>
      </trkpt>
      <trkpt lat="42.717700" lon="-6.122190">
        <ele>1256.00</ele>
        <time>2020-08-20T17:33:28Z</time>
      </trkpt>
      <trkpt lat="42.717570" lon="-6.122190">
        <ele>1256.00</ele>
        <time>2020-08-20T17:33:31Z</time>
      </trkpt>
      <trkpt lat="42.717380" lon="-6.122110">
        <ele>1256.00</ele>
        <time>2020-08-20T17:33:37Z</time>
      </trkpt>
      <trkpt lat="42.717250" lon="-6.122030">
        <ele>1256.00</ele>
        <time>2020-08-20T17:33:41Z</time>
      </trkpt>
      <trkpt lat="42.717190" lon="-6.121880">
        <ele>1256.00</ele>
        <time>2020-08-20T17:33:44Z</time>
      </trkpt>
      <trkpt lat="42.717110" lon="-6.121750">
        <ele>1256.00</ele>
        <time>2020-08-20T17:33:47Z</time>
      </trkpt>
      <trkpt lat="42.717010" lon="-6.121730">
        <ele>1256.00</ele>
        <time>2020-08-20T17:33:50Z</time>
      </trkpt>
      <trkpt lat="42.717060" lon="-6.121940">
        <ele>1256.00</ele>
        <time>2020-08-20T17:33:54Z</time>
      </trkpt>
      <trkpt lat="42.717170" lon="-6.122300">
        <ele>1256.00</ele>
        <time>2020-08-20T17:34:02Z</time>
      </trkpt>
      <trkpt lat="42.717280" lon="-6.122440">
        <ele>1256.00</ele>
        <time>2020-08-20T17:34:06Z</time>
      </trkpt>
      <trkpt lat="42.717720" lon="-6.122750">
        <ele>1256.00</ele>
        <time>2020-08-20T17:34:19Z</time>
      </trkpt>
      <trkpt lat="42.717980" lon="-6.122920">
        <ele>1256.00</ele>
        <time>2020-08-20T17:34:27Z</time>
      </trkpt>
      <trkpt lat="42.718160" lon="-6.123030">
        <ele>1256.00</ele>
        <time>2020-08-20T17:34:32Z</time>
      </trkpt>
      <trkpt lat="42.718310" lon="-6.123040">
        <ele>1263.00</ele>
        <time>2020-08-20T17:34:36Z</time>
      </trkpt>
      <trkpt lat="42.718450" lon="-6.122950">
        <ele>1263.00</ele>
        <time>2020-08-20T17:34:40Z</time>
      </trkpt>
      <trkpt lat="42.718580" lon="-6.122920">
        <ele>1263.00</ele>
        <time>2020-08-20T17:34:44Z</time>
      </trkpt>
      <trkpt lat="42.718610" lon="-6.122920">
        <ele>1263.00</ele>
        <time>2020-08-20T17:34:45Z</time>
      </trkpt>
      <trkpt lat="42.718640" lon="-6.123100">
        <ele>1263.00</ele>
        <time>2020-08-20T17:34:48Z</time>
      </trkpt>
      <trkpt lat="42.718630" lon="-6.123230">
        <ele>1263.00</ele>
        <time>2020-08-20T17:34:51Z</time>
      </trkpt>
      <trkpt lat="42.718600" lon="-6.123530">
        <ele>1263.00</ele>
        <time>2020-08-20T17:34:57Z</time>
      </trkpt>
      <trkpt lat="42.718590" lon="-6.123770">
        <ele>1263.00</ele>
        <time>2020-08-20T17:35:01Z</time>
      </trkpt>
      <trkpt lat="42.718670" lon="-6.123960">
        <ele>1263.00</ele>
        <time>2020-08-20T17:35:06Z</time>
      </trkpt>
      <trkpt lat="42.718750" lon="-6.124110">
        <ele>1263.00</ele>
        <time>2020-08-20T17:35:09Z</time>
      </trkpt>
      <trkpt lat="42.718820" lon="-6.124190">
        <ele>1263.00</ele>
        <time>2020-08-20T17:35:12Z</time>
      </trkpt>
      <trkpt lat="42.719030" lon="-6.124200">
        <ele>1263.00</ele>
        <time>2020-08-20T17:35:17Z</time>
      </trkpt>
      <trkpt lat="42.719200" lon="-6.124180">
        <ele>1263.00</ele>
        <time>2020-08-20T17:35:22Z</time>
      </trkpt>
      <trkpt lat="42.719280" lon="-6.124210">
        <ele>1263.00</ele>
        <time>2020-08-20T17:35:24Z</time>
      </trkpt>
      <trkpt lat="42.719360" lon="-6.124320">
        <ele>1263.00</ele>
        <time>2020-08-20T17:35:27Z</time>
      </trkpt>
      <trkpt lat="42.719320" lon="-6.124500">
        <ele>1263.00</ele>
        <time>2020-08-20T17:35:31Z</time>
      </trkpt>
      <trkpt lat="42.719290" lon="-6.124720">
        <ele>1263.00</ele>
        <time>2020-08-20T17:35:35Z</time>
      </trkpt>
      <trkpt lat="42.719330" lon="-6.124940">
        <ele>1263.00</ele>
        <time>2020-08-20T17:35:40Z</time>
      </trkpt>
      <trkpt lat="42.719550" lon="-6.125160">
        <ele>1272.00</ele>
        <time>2020-08-20T17:35:47Z</time>
      </trkpt>
      <trkpt lat="42.719690" lon="-6.125300">
        <ele>1272.00</ele>
        <time>2020-08-20T17:35:52Z</time>
      </trkpt>
      <trkpt lat="42.719780" lon="-6.125500">
        <ele>1272.00</ele>
        <time>2020-08-20T17:35:56Z</time>
      </trkpt>
      <trkpt lat="42.719780" lon="-6.125630">
        <ele>1272.00</ele>
        <time>2020-08-20T17:35:59Z</time>
      </trkpt>
      <trkpt lat="42.719660" lon="-6.125830">
        <ele>1272.00</ele>
        <time>2020-08-20T17:36:04Z</time>
      </trkpt>
      <trkpt lat="42.719460" lon="-6.126050">
        <ele>1272.00</ele>
        <time>2020-08-20T17:36:11Z</time>
      </trkpt>
      <trkpt lat="42.719350" lon="-6.126310">
        <ele>1272.00</ele>
        <time>2020-08-20T17:36:17Z</time>
      </trkpt>
      <trkpt lat="42.719280" lon="-6.126380">
        <ele>1272.00</ele>
        <time>2020-08-20T17:36:19Z</time>
      </trkpt>
      <trkpt lat="42.719180" lon="-6.126570">
        <ele>1272.00</ele>
        <time>2020-08-20T17:36:24Z</time>
      </trkpt>
      <trkpt lat="42.719120" lon="-6.126840">
        <ele>1272.00</ele>
        <time>2020-08-20T17:36:29Z</time>
      </trkpt>
      <trkpt lat="42.719120" lon="-6.127140">
        <ele>1272.00</ele>
        <time>2020-08-20T17:36:35Z</time>
      </trkpt>
      <trkpt lat="42.719200" lon="-6.127440">
        <ele>1272.00</ele>
        <time>2020-08-20T17:36:41Z</time>
      </trkpt>
      <trkpt lat="42.719550" lon="-6.128060">
        <ele>1293.00</ele>
        <time>2020-08-20T17:36:57Z</time>
      </trkpt>
      <trkpt lat="42.719620" lon="-6.128340">
        <ele>1293.00</ele>
        <time>2020-08-20T17:37:03Z</time>
      </trkpt>
      <trkpt lat="42.719610" lon="-6.128610">
        <ele>1293.00</ele>
        <time>2020-08-20T17:37:08Z</time>
      </trkpt>
      <trkpt lat="42.719540" lon="-6.128840">
        <ele>1293.00</ele>
        <time>2020-08-20T17:37:13Z</time>
      </trkpt>
      <trkpt lat="42.719200" lon="-6.129310">
        <ele>1293.00</ele>
        <time>2020-08-20T17:37:26Z</time>
      </trkpt>
      <trkpt lat="42.719120" lon="-6.129580">
        <ele>1293.00</ele>
        <time>2020-08-20T17:37:31Z</time>
      </trkpt>
      <trkpt lat="42.719100" lon="-6.129880">
        <ele>1293.00</ele>
        <time>2020-08-20T17:37:37Z</time>
      </trkpt>
      <trkpt lat="42.719130" lon="-6.130120">
        <ele>1293.00</ele>
        <time>2020-08-20T17:37:42Z</time>
      </trkpt>
      <trkpt lat="42.719210" lon="-6.130330">
        <ele>1301.00</ele>
        <time>2020-08-20T17:37:47Z</time>
      </trkpt>
      <trkpt lat="42.719360" lon="-6.130520">
        <ele>1301.00</ele>
        <time>2020-08-20T17:37:52Z</time>
      </trkpt>
      <trkpt lat="42.719520" lon="-6.130610">
        <ele>1301.00</ele>
        <time>2020-08-20T17:37:57Z</time>
      </trkpt>
      <trkpt lat="42.719840" lon="-6.130620">
        <ele>1301.00</ele>
        <time>2020-08-20T17:38:05Z</time>
      </trkpt>
      <trkpt lat="42.719980" lon="-6.130620">
        <ele>1301.00</ele>
        <time>2020-08-20T17:38:09Z</time>
      </trkpt>
      <trkpt lat="42.720120" lon="-6.130650">
        <ele>1301.00</ele>
        <time>2020-08-20T17:38:13Z</time>
      </trkpt>
      <trkpt lat="42.720300" lon="-6.130810">
        <ele>1301.00</ele>
        <time>2020-08-20T17:38:19Z</time>
      </trkpt>
      <trkpt lat="42.720400" lon="-6.130980">
        <ele>1301.00</ele>
        <time>2020-08-20T17:38:23Z</time>
      </trkpt>
      <trkpt lat="42.720450" lon="-6.131150">
        <ele>1301.00</ele>
        <time>2020-08-20T17:38:26Z</time>
      </trkpt>
      <trkpt lat="42.720480" lon="-6.131340">
        <ele>1301.00</ele>
        <time>2020-08-20T17:38:30Z</time>
      </trkpt>
      <trkpt lat="42.720450" lon="-6.131550">
        <ele>1301.00</ele>
        <time>2020-08-20T17:38:34Z</time>
      </trkpt>
      <trkpt lat="42.720300" lon="-6.132060">
        <ele>1276.00</ele>
        <time>2020-08-20T17:38:45Z</time>
      </trkpt>
      <trkpt lat="42.720290" lon="-6.132310">
        <ele>1276.00</ele>
        <time>2020-08-20T17:38:50Z</time>
      </trkpt>
      <trkpt lat="42.720440" lon="-6.134130">
        <ele>1276.00</ele>
        <time>2020-08-20T17:39:26Z</time>
      </trkpt>
      <trkpt lat="42.720510" lon="-6.134410">
        <ele>1276.00</ele>
        <time>2020-08-20T17:39:32Z</time>
      </trkpt>
      <trkpt lat="42.721000" lon="-6.135740">
        <ele>1239.00</ele>
        <time>2020-08-20T17:40:01Z</time>
      </trkpt>
      <trkpt lat="42.721040" lon="-6.136080">
        <ele>1239.00</ele>
        <time>2020-08-20T17:40:08Z</time>
      </trkpt>
      <trkpt lat="42.721010" lon="-6.136440">
        <ele>1239.00</ele>
        <time>2020-08-20T17:40:15Z</time>
      </trkpt>
      <trkpt lat="42.720880" lon="-6.136970">
        <ele>1239.00</ele>
        <time>2020-08-20T17:40:26Z</time>
      </trkpt>
      <trkpt lat="42.720880" lon="-6.137380">
        <ele>1239.00</ele>
        <time>2020-08-20T17:40:34Z</time>
      </trkpt>
      <trkpt lat="42.720950" lon="-6.137820">
        <ele>1239.00</ele>
        <time>2020-08-20T17:40:43Z</time>
      </trkpt>
      <trkpt lat="42.721520" lon="-6.139690">
        <ele>1241.00</ele>
        <time>2020-08-20T17:41:23Z</time>
      </trkpt>
      <trkpt lat="42.721600" lon="-6.140050">
        <ele>1241.00</ele>
        <time>2020-08-20T17:41:30Z</time>
      </trkpt>
      <trkpt lat="42.721600" lon="-6.140240">
        <ele>1241.00</ele>
        <time>2020-08-20T17:41:34Z</time>
      </trkpt>
      <trkpt lat="42.721570" lon="-6.140950">
        <ele>1241.00</ele>
        <time>2020-08-20T17:41:48Z</time>
      </trkpt>
      <trkpt lat="42.721580" lon="-6.141250">
        <ele>1247.00</ele>
        <time>2020-08-20T17:41:54Z</time>
      </trkpt>
      <trkpt lat="42.721690" lon="-6.141570">
        <ele>1247.00</ele>
        <time>2020-08-20T17:42:01Z</time>
      </trkpt>
      <trkpt lat="42.721780" lon="-6.141740">
        <ele>1247.00</ele>
        <time>2020-08-20T17:42:05Z</time>
      </trkpt>
      <trkpt lat="42.722220" lon="-6.142240">
        <ele>1247.00</ele>
        <time>2020-08-20T17:42:20Z</time>
      </trkpt>
      <trkpt lat="42.722340" lon="-6.142480">
        <ele>1247.00</ele>
        <time>2020-08-20T17:42:26Z</time>
      </trkpt>
      <trkpt lat="42.722440" lon="-6.142830">
        <ele>1247.00</ele>
        <time>2020-08-20T17:42:33Z</time>
      </trkpt>
      <trkpt lat="42.722510" lon="-6.143450">
        <ele>1247.00</ele>
        <time>2020-08-20T17:42:45Z</time>
      </trkpt>
      <trkpt lat="42.722470" lon="-6.143710">
        <ele>1247.00</ele>
        <time>2020-08-20T17:42:51Z</time>
      </trkpt>
      <trkpt lat="42.722540" lon="-6.143890">
        <ele>1247.00</ele>
        <time>2020-08-20T17:42:55Z</time>
      </trkpt>
      <trkpt lat="42.722660" lon="-6.144340">
        <ele>1228.00</ele>
        <time>2020-08-20T17:43:04Z</time>
      </trkpt>
      <trkpt lat="42.722840" lon="-6.144720">
        <ele>1228.00</ele>
        <time>2020-08-20T17:43:13Z</time>
      </trkpt>
      <trkpt lat="42.723150" lon="-6.145340">
        <ele>1228.00</ele>
        <time>2020-08-20T17:43:28Z</time>
      </trkpt>
      <trkpt lat="42.723390" lon="-6.145900">
        <ele>1228.00</ele>
        <time>2020-08-20T17:43:40Z</time>
      </trkpt>
      <trkpt lat="42.723660" lon="-6.146670">
        <ele>1228.00</ele>
        <time>2020-08-20T17:43:57Z</time>
      </trkpt>
      <trkpt lat="42.724030" lon="-6.147410">
        <ele>1227.00</ele>
        <time>2020-08-20T17:44:15Z</time>
      </trkpt>
      <trkpt lat="42.724230" lon="-6.148010">
        <ele>1227.00</ele>
        <time>2020-08-20T17:44:28Z</time>
      </trkpt>
      <trkpt lat="42.724230" lon="-6.148150">
        <ele>1227.00</ele>
        <time>2020-08-20T17:44:30Z</time>
      </trkpt>
      <trkpt lat="42.724190" lon="-6.148430">
        <ele>1227.00</ele>
        <time>2020-08-20T17:44:36Z</time>
      </trkpt>
      <trkpt lat="42.724200" lon="-6.148640">
        <ele>1227.00</ele>
        <time>2020-08-20T17:44:40Z</time>
      </trkpt>
      <trkpt lat="42.724230" lon="-6.148860">
        <ele>1227.00</ele>
        <time>2020-08-20T17:44:44Z</time>
      </trkpt>
      <trkpt lat="42.724360" lon="-6.149360">
        <ele>1227.00</ele>
        <time>2020-08-20T17:44:55Z</time>
      </trkpt>
      <trkpt lat="42.724530" lon="-6.149780">
        <ele>1227.00</ele>
        <time>2020-08-20T17:45:04Z</time>
      </trkpt>
      <trkpt lat="42.724740" lon="-6.150100">
        <ele>1227.00</ele>
        <time>2020-08-20T17:45:13Z</time>
      </trkpt>
      <trkpt lat="42.724960" lon="-6.150400">
        <ele>1236.00</ele>
        <time>2020-08-20T17:45:21Z</time>
      </trkpt>
      <trkpt lat="42.725200" lon="-6.150680">
        <ele>1236.00</ele>
        <time>2020-08-20T17:45:29Z</time>
      </trkpt>
      <trkpt lat="42.725460" lon="-6.150890">
        <ele>1236.00</ele>
        <time>2020-08-20T17:45:37Z</time>
      </trkpt>
      <trkpt lat="42.725600" lon="-6.150920">
        <ele>1236.00</ele>
        <time>2020-08-20T17:45:41Z</time>
      </trkpt>
      <trkpt lat="42.725670" lon="-6.150900">
        <ele>1236.00</ele>
        <time>2020-08-20T17:45:43Z</time>
      </trkpt>
      <trkpt lat="42.725840" lon="-6.150760">
        <ele>1236.00</ele>
        <time>2020-08-20T17:45:48Z</time>
      </trkpt>
      <trkpt lat="42.725940" lon="-6.150600">
        <ele>1236.00</ele>
        <time>2020-08-20T17:45:53Z</time>
      </trkpt>
      <trkpt lat="42.726020" lon="-6.150470">
        <ele>1236.00</ele>
        <time>2020-08-20T17:45:56Z</time>
      </trkpt>
      <trkpt lat="42.726110" lon="-6.150450">
        <ele>1236.00</ele>
        <time>2020-08-20T17:45:58Z</time>
      </trkpt>
      <trkpt lat="42.726210" lon="-6.150480">
        <ele>1236.00</ele>
        <time>2020-08-20T17:46:01Z</time>
      </trkpt>
      <trkpt lat="42.726430" lon="-6.150630">
        <ele>1236.00</ele>
        <time>2020-08-20T17:46:08Z</time>
      </trkpt>
      <trkpt lat="42.726450" lon="-6.150730">
        <ele>1236.00</ele>
        <time>2020-08-20T17:46:10Z</time>
      </trkpt>
      <trkpt lat="42.726370" lon="-6.151140">
        <ele>1236.00</ele>
        <time>2020-08-20T17:46:18Z</time>
      </trkpt>
      <trkpt lat="42.726340" lon="-6.151420">
        <ele>1236.00</ele>
        <time>2020-08-20T17:46:24Z</time>
      </trkpt>
      <trkpt lat="42.726400" lon="-6.151850">
        <ele>1235.00</ele>
        <time>2020-08-20T17:46:32Z</time>
      </trkpt>
      <trkpt lat="42.726390" lon="-6.151970">
        <ele>1235.00</ele>
        <time>2020-08-20T17:46:35Z</time>
      </trkpt>
      <trkpt lat="42.726480" lon="-6.152370">
        <ele>1235.00</ele>
        <time>2020-08-20T17:46:43Z</time>
      </trkpt>
      <trkpt lat="42.726600" lon="-6.152790">
        <ele>1235.00</ele>
        <time>2020-08-20T17:46:52Z</time>
      </trkpt>
      <trkpt lat="42.726640" lon="-6.153050">
        <ele>1235.00</ele>
        <time>2020-08-20T17:46:57Z</time>
      </trkpt>
      <trkpt lat="42.726630" lon="-6.153770">
        <ele>1235.00</ele>
        <time>2020-08-20T17:47:11Z</time>
      </trkpt>
      <trkpt lat="42.726570" lon="-6.154190">
        <ele>1235.00</ele>
        <time>2020-08-20T17:47:19Z</time>
      </trkpt>
      <trkpt lat="42.726580" lon="-6.154470">
        <ele>1235.00</ele>
        <time>2020-08-20T17:47:25Z</time>
      </trkpt>
      <trkpt lat="42.726520" lon="-6.154630">
        <ele>1235.00</ele>
        <time>2020-08-20T17:47:28Z</time>
      </trkpt>
      <trkpt lat="42.726460" lon="-6.154730">
        <ele>1235.00</ele>
        <time>2020-08-20T17:47:31Z</time>
      </trkpt>
      <trkpt lat="42.726420" lon="-6.154800">
        <ele>1235.00</ele>
        <time>2020-08-20T17:47:33Z</time>
      </trkpt>
      <trkpt lat="42.726380" lon="-6.154990">
        <ele>1235.00</ele>
        <time>2020-08-20T17:47:37Z</time>
      </trkpt>
      <trkpt lat="42.726360" lon="-6.155100">
        <ele>1235.00</ele>
        <time>2020-08-20T17:47:39Z</time>
      </trkpt>
      <trkpt lat="42.726330" lon="-6.155580">
        <ele>1253.00</ele>
        <time>2020-08-20T17:47:48Z</time>
      </trkpt>
      <trkpt lat="42.726300" lon="-6.155750">
        <ele>1253.00</ele>
        <time>2020-08-20T17:47:52Z</time>
      </trkpt>
      <trkpt lat="42.726290" lon="-6.155990">
        <ele>1253.00</ele>
        <time>2020-08-20T17:47:56Z</time>
      </trkpt>
      <trkpt lat="42.726330" lon="-6.156340">
        <ele>1253.00</ele>
        <time>2020-08-20T17:48:03Z</time>
      </trkpt>
      <trkpt lat="42.726290" lon="-6.156580">
        <ele>1253.00</ele>
        <time>2020-08-20T17:48:08Z</time>
      </trkpt>
      <trkpt lat="42.726170" lon="-6.156830">
        <ele>1253.00</ele>
        <time>2020-08-20T17:48:14Z</time>
      </trkpt>
      <trkpt lat="42.726140" lon="-6.157000">
        <ele>1253.00</ele>
        <time>2020-08-20T17:48:17Z</time>
      </trkpt>
      <trkpt lat="42.726170" lon="-6.157160">
        <ele>1253.00</ele>
        <time>2020-08-20T17:48:21Z</time>
      </trkpt>
      <trkpt lat="42.726350" lon="-6.157480">
        <ele>1253.00</ele>
        <time>2020-08-20T17:48:29Z</time>
      </trkpt>
      <trkpt lat="42.726410" lon="-6.157530">
        <ele>1253.00</ele>
        <time>2020-08-20T17:48:30Z</time>
      </trkpt>
      <trkpt lat="42.726600" lon="-6.157720">
        <ele>1253.00</ele>
        <time>2020-08-20T17:48:37Z</time>
      </trkpt>
      <trkpt lat="42.726800" lon="-6.158080">
        <ele>1253.00</ele>
        <time>2020-08-20T17:48:46Z</time>
      </trkpt>
      <trkpt lat="42.727660" lon="-6.159930">
        <ele>1270.00</ele>
        <time>2020-08-20T17:49:29Z</time>
      </trkpt>
      <trkpt lat="42.729050" lon="-6.163270">
        <ele>1265.00</ele>
        <time>2020-08-20T17:50:44Z</time>
      </trkpt>
      <trkpt lat="42.729140" lon="-6.163490">
        <ele>1265.00</ele>
        <time>2020-08-20T17:50:49Z</time>
      </trkpt>
      <trkpt lat="42.729150" lon="-6.163660">
        <ele>1265.00</ele>
        <time>2020-08-20T17:50:52Z</time>
      </trkpt>
      <trkpt lat="42.729120" lon="-6.163860">
        <ele>1265.00</ele>
        <time>2020-08-20T17:50:56Z</time>
      </trkpt>
      <trkpt lat="42.728930" lon="-6.164350">
        <ele>1221.00</ele>
        <time>2020-08-20T17:51:07Z</time>
      </trkpt>
      <trkpt lat="42.728930" lon="-6.164670">
        <ele>1221.00</ele>
        <time>2020-08-20T17:51:13Z</time>
      </trkpt>
      <trkpt lat="42.729020" lon="-6.164970">
        <ele>1221.00</ele>
        <time>2020-08-20T17:51:20Z</time>
      </trkpt>
      <trkpt lat="42.729520" lon="-6.165540">
        <ele>1221.00</ele>
        <time>2020-08-20T17:51:37Z</time>
      </trkpt>
      <trkpt lat="42.729630" lon="-6.165680">
        <ele>1221.00</ele>
        <time>2020-08-20T17:51:41Z</time>
      </trkpt>
      <trkpt lat="42.729680" lon="-6.165810">
        <ele>1221.00</ele>
        <time>2020-08-20T17:51:44Z</time>
      </trkpt>
      <trkpt lat="42.729730" lon="-6.166080">
        <ele>1221.00</ele>
        <time>2020-08-20T17:51:50Z</time>
      </trkpt>
      <trkpt lat="42.729730" lon="-6.166350">
        <ele>1221.00</ele>
        <time>2020-08-20T17:51:55Z</time>
      </trkpt>
      <trkpt lat="42.729610" lon="-6.166620">
        <ele>1221.00</ele>
        <time>2020-08-20T17:52:01Z</time>
      </trkpt>
      <trkpt lat="42.729430" lon="-6.166810">
        <ele>1221.00</ele>
        <time>2020-08-20T17:52:07Z</time>
      </trkpt>
      <trkpt lat="42.728960" lon="-6.166970">
        <ele>1220.00</ele>
        <time>2020-08-20T17:52:20Z</time>
      </trkpt>
      <trkpt lat="42.728850" lon="-6.167080">
        <ele>1220.00</ele>
        <time>2020-08-20T17:52:24Z</time>
      </trkpt>
      <trkpt lat="42.728790" lon="-6.167130">
        <ele>1220.00</ele>
        <time>2020-08-20T17:52:26Z</time>
      </trkpt>
      <trkpt lat="42.728680" lon="-6.167360">
        <ele>1220.00</ele>
        <time>2020-08-20T17:52:31Z</time>
      </trkpt>
      <trkpt lat="42.728630" lon="-6.167670">
        <ele>1220.00</ele>
        <time>2020-08-20T17:52:37Z</time>
      </trkpt>
      <trkpt lat="42.728680" lon="-6.167960">
        <ele>1220.00</ele>
        <time>2020-08-20T17:52:43Z</time>
      </trkpt>
      <trkpt lat="42.728770" lon="-6.168120">
        <ele>1220.00</ele>
        <time>2020-08-20T17:52:47Z</time>
      </trkpt>
      <trkpt lat="42.729080" lon="-6.168400">
        <ele>1220.00</ele>
        <time>2020-08-20T17:52:57Z</time>
      </trkpt>
      <trkpt lat="42.730480" lon="-6.169380">
        <ele>1217.00</ele>
        <time>2020-08-20T17:53:39Z</time>
      </trkpt>
      <trkpt lat="42.730640" lon="-6.169590">
        <ele>1217.00</ele>
        <time>2020-08-20T17:53:45Z</time>
      </trkpt>
      <trkpt lat="42.730720" lon="-6.169830">
        <ele>1217.00</ele>
        <time>2020-08-20T17:53:50Z</time>
      </trkpt>
      <trkpt lat="42.730700" lon="-6.170100">
        <ele>1217.00</ele>
        <time>2020-08-20T17:53:55Z</time>
      </trkpt>
      <trkpt lat="42.730580" lon="-6.170370">
        <ele>1217.00</ele>
        <time>2020-08-20T17:54:02Z</time>
      </trkpt>
      <trkpt lat="42.729900" lon="-6.170840">
        <ele>1217.00</ele>
        <time>2020-08-20T17:54:22Z</time>
      </trkpt>
      <trkpt lat="42.729830" lon="-6.170960">
        <ele>1217.00</ele>
        <time>2020-08-20T17:54:25Z</time>
      </trkpt>
      <trkpt lat="42.729780" lon="-6.171160">
        <ele>1217.00</ele>
        <time>2020-08-20T17:54:29Z</time>
      </trkpt>
      <trkpt lat="42.729800" lon="-6.171390">
        <ele>1228.00</ele>
        <time>2020-08-20T17:54:34Z</time>
      </trkpt>
      <trkpt lat="42.729870" lon="-6.171630">
        <ele>1228.00</ele>
        <time>2020-08-20T17:54:39Z</time>
      </trkpt>
      <trkpt lat="42.730040" lon="-6.171810">
        <ele>1228.00</ele>
        <time>2020-08-20T17:54:45Z</time>
      </trkpt>
      <trkpt lat="42.730980" lon="-6.172070">
        <ele>1228.00</ele>
        <time>2020-08-20T17:55:10Z</time>
      </trkpt>
      <trkpt lat="42.731010" lon="-6.172090">
        <ele>1228.00</ele>
        <time>2020-08-20T17:55:11Z</time>
      </trkpt>
      <trkpt lat="42.731090" lon="-6.172150">
        <ele>1228.00</ele>
        <time>2020-08-20T17:55:13Z</time>
      </trkpt>
      <trkpt lat="42.731160" lon="-6.172270">
        <ele>1228.00</ele>
        <time>2020-08-20T17:55:16Z</time>
      </trkpt>
      <trkpt lat="42.731250" lon="-6.172490">
        <ele>1228.00</ele>
        <time>2020-08-20T17:55:21Z</time>
      </trkpt>
      <trkpt lat="42.731370" lon="-6.172670">
        <ele>1228.00</ele>
        <time>2020-08-20T17:55:26Z</time>
      </trkpt>
      <trkpt lat="42.731700" lon="-6.173000">
        <ele>1228.00</ele>
        <time>2020-08-20T17:55:37Z</time>
      </trkpt>
      <trkpt lat="42.732330" lon="-6.173370">
        <ele>1234.00</ele>
        <time>2020-08-20T17:55:55Z</time>
      </trkpt>
      <trkpt lat="42.732530" lon="-6.173390">
        <ele>1234.00</ele>
        <time>2020-08-20T17:56:01Z</time>
      </trkpt>
      <trkpt lat="42.732770" lon="-6.173340">
        <ele>1234.00</ele>
        <time>2020-08-20T17:56:07Z</time>
      </trkpt>
      <trkpt lat="42.732920" lon="-6.173360">
        <ele>1234.00</ele>
        <time>2020-08-20T17:56:11Z</time>
      </trkpt>
      <trkpt lat="42.733070" lon="-6.173440">
        <ele>1234.00</ele>
        <time>2020-08-20T17:56:16Z</time>
      </trkpt>
      <trkpt lat="42.733180" lon="-6.173620">
        <ele>1234.00</ele>
        <time>2020-08-20T17:56:20Z</time>
      </trkpt>
      <trkpt lat="42.733270" lon="-6.173820">
        <ele>1234.00</ele>
        <time>2020-08-20T17:56:25Z</time>
      </trkpt>
      <trkpt lat="42.733340" lon="-6.173960">
        <ele>1234.00</ele>
        <time>2020-08-20T17:56:28Z</time>
      </trkpt>
      <trkpt lat="42.733520" lon="-6.174170">
        <ele>1234.00</ele>
        <time>2020-08-20T17:56:34Z</time>
      </trkpt>
      <trkpt lat="42.733700" lon="-6.174330">
        <ele>1229.00</ele>
        <time>2020-08-20T17:56:40Z</time>
      </trkpt>
      <trkpt lat="42.733810" lon="-6.174530">
        <ele>1229.00</ele>
        <time>2020-08-20T17:56:45Z</time>
      </trkpt>
      <trkpt lat="42.733920" lon="-6.174950">
        <ele>1229.00</ele>
        <time>2020-08-20T17:56:54Z</time>
      </trkpt>
      <trkpt lat="42.734000" lon="-6.175150">
        <ele>1229.00</ele>
        <time>2020-08-20T17:56:58Z</time>
      </trkpt>
      <trkpt lat="42.734510" lon="-6.175580">
        <ele>1229.00</ele>
        <time>2020-08-20T17:57:14Z</time>
      </trkpt>
      <trkpt lat="42.734740" lon="-6.175720">
        <ele>1229.00</ele>
        <time>2020-08-20T17:57:21Z</time>
      </trkpt>
      <trkpt lat="42.734940" lon="-6.175770">
        <ele>1229.00</ele>
        <time>2020-08-20T17:57:27Z</time>
      </trkpt>
      <trkpt lat="42.735250" lon="-6.175810">
        <ele>1229.00</ele>
        <time>2020-08-20T17:57:35Z</time>
      </trkpt>
      <trkpt lat="42.735410" lon="-6.175920">
        <ele>1229.00</ele>
        <time>2020-08-20T17:57:40Z</time>
      </trkpt>
      <trkpt lat="42.735510" lon="-6.176110">
        <ele>1229.00</ele>
        <time>2020-08-20T17:57:44Z</time>
      </trkpt>
      <trkpt lat="42.735570" lon="-6.176360">
        <ele>1213.00</ele>
        <time>2020-08-20T17:57:49Z</time>
      </trkpt>
      <trkpt lat="42.735550" lon="-6.176630">
        <ele>1213.00</ele>
        <time>2020-08-20T17:57:55Z</time>
      </trkpt>
      <trkpt lat="42.735420" lon="-6.176900">
        <ele>1213.00</ele>
        <time>2020-08-20T17:58:01Z</time>
      </trkpt>
      <trkpt lat="42.735230" lon="-6.177110">
        <ele>1213.00</ele>
        <time>2020-08-20T17:58:08Z</time>
      </trkpt>
      <trkpt lat="42.734970" lon="-6.177280">
        <ele>1213.00</ele>
        <time>2020-08-20T17:58:15Z</time>
      </trkpt>
      <trkpt lat="42.733930" lon="-6.177470">
        <ele>1217.00</ele>
        <time>2020-08-20T17:58:43Z</time>
      </trkpt>
      <trkpt lat="42.733070" lon="-6.177290">
        <ele>1217.00</ele>
        <time>2020-08-20T17:59:07Z</time>
      </trkpt>
      <trkpt lat="42.732870" lon="-6.177370">
        <ele>1217.00</ele>
        <time>2020-08-20T17:59:12Z</time>
      </trkpt>
      <trkpt lat="42.732700" lon="-6.177550">
        <ele>1217.00</ele>
        <time>2020-08-20T17:59:18Z</time>
      </trkpt>
      <trkpt lat="42.732610" lon="-6.177820">
        <ele>1217.00</ele>
        <time>2020-08-20T17:59:24Z</time>
      </trkpt>
      <trkpt lat="42.732530" lon="-6.178390">
        <ele>1217.00</ele>
        <time>2020-08-20T17:59:35Z</time>
      </trkpt>
      <trkpt lat="42.732500" lon="-6.178780">
        <ele>1212.00</ele>
        <time>2020-08-20T17:59:43Z</time>
      </trkpt>
      <trkpt lat="42.732540" lon="-6.179040">
        <ele>1212.00</ele>
        <time>2020-08-20T17:59:48Z</time>
      </trkpt>
      <trkpt lat="42.732640" lon="-6.179260">
        <ele>1212.00</ele>
        <time>2020-08-20T17:59:53Z</time>
      </trkpt>
      <trkpt lat="42.732800" lon="-6.179450">
        <ele>1212.00</ele>
        <time>2020-08-20T17:59:59Z</time>
      </trkpt>
      <trkpt lat="42.733230" lon="-6.179860">
        <ele>1212.00</ele>
        <time>2020-08-20T18:00:13Z</time>
      </trkpt>
      <trkpt lat="42.733350" lon="-6.180040">
        <ele>1212.00</ele>
        <time>2020-08-20T18:00:18Z</time>
      </trkpt>
      <trkpt lat="42.733390" lon="-6.180300">
        <ele>1212.00</ele>
        <time>2020-08-20T18:00:23Z</time>
      </trkpt>
      <trkpt lat="42.733370" lon="-6.180600">
        <ele>1212.00</ele>
        <time>2020-08-20T18:00:29Z</time>
      </trkpt>
      <trkpt lat="42.733110" lon="-6.181050">
        <ele>1212.00</ele>
        <time>2020-08-20T18:00:40Z</time>
      </trkpt>
      <trkpt lat="42.733010" lon="-6.181410">
        <ele>1212.00</ele>
        <time>2020-08-20T18:00:48Z</time>
      </trkpt>
      <trkpt lat="42.732720" lon="-6.182680">
        <ele>1185.00</ele>
        <time>2020-08-20T18:01:14Z</time>
      </trkpt>
      <trkpt lat="42.732710" lon="-6.183010">
        <ele>1185.00</ele>
        <time>2020-08-20T18:01:20Z</time>
      </trkpt>
      <trkpt lat="42.732750" lon="-6.183250">
        <ele>1185.00</ele>
        <time>2020-08-20T18:01:25Z</time>
      </trkpt>
      <trkpt lat="42.732970" lon="-6.183900">
        <ele>1135.00</ele>
        <time>2020-08-20T18:01:39Z</time>
      </trkpt>
      <trkpt lat="42.733000" lon="-6.184160">
        <ele>1135.00</ele>
        <time>2020-08-20T18:01:44Z</time>
      </trkpt>
      <trkpt lat="42.732980" lon="-6.184610">
        <ele>1135.00</ele>
        <time>2020-08-20T18:01:53Z</time>
      </trkpt>
      <trkpt lat="42.733010" lon="-6.185060">
        <ele>1135.00</ele>
        <time>2020-08-20T18:02:02Z</time>
      </trkpt>
      <trkpt lat="42.733120" lon="-6.185800">
        <ele>1135.00</ele>
        <time>2020-08-20T18:02:17Z</time>
      </trkpt>
      <trkpt lat="42.733300" lon="-6.186510">
        <ele>1105.00</ele>
        <time>2020-08-20T18:02:31Z</time>
      </trkpt>
      <trkpt lat="42.733390" lon="-6.186780">
        <ele>1105.00</ele>
        <time>2020-08-20T18:02:37Z</time>
      </trkpt>
      <trkpt lat="42.733440" lon="-6.186940">
        <ele>1105.00</ele>
        <time>2020-08-20T18:02:41Z</time>
      </trkpt>
      <trkpt lat="42.733650" lon="-6.187350">
        <ele>1105.00</ele>
        <time>2020-08-20T18:02:50Z</time>
      </trkpt>
      <trkpt lat="42.733980" lon="-6.187730">
        <ele>1105.00</ele>
        <time>2020-08-20T18:03:02Z</time>
      </trkpt>
      <trkpt lat="42.734840" lon="-6.188590">
        <ele>1105.00</ele>
        <time>2020-08-20T18:03:30Z</time>
      </trkpt>
      <trkpt lat="42.734990" lon="-6.188800">
        <ele>1080.00</ele>
        <time>2020-08-20T18:03:36Z</time>
      </trkpt>
      <trkpt lat="42.735090" lon="-6.189090">
        <ele>1080.00</ele>
        <time>2020-08-20T18:03:43Z</time>
      </trkpt>
      <trkpt lat="42.735150" lon="-6.189380">
        <ele>1080.00</ele>
        <time>2020-08-20T18:03:48Z</time>
      </trkpt>
      <trkpt lat="42.735200" lon="-6.189640">
        <ele>1080.00</ele>
        <time>2020-08-20T18:03:54Z</time>
      </trkpt>
      <trkpt lat="42.735200" lon="-6.190070">
        <ele>1080.00</ele>
        <time>2020-08-20T18:04:02Z</time>
      </trkpt>
      <trkpt lat="42.735240" lon="-6.190520">
        <ele>1080.00</ele>
        <time>2020-08-20T18:04:11Z</time>
      </trkpt>
      <trkpt lat="42.735390" lon="-6.191260">
        <ele>1080.00</ele>
        <time>2020-08-20T18:04:26Z</time>
      </trkpt>
      <trkpt lat="42.735480" lon="-6.191540">
        <ele>1080.00</ele>
        <time>2020-08-20T18:04:32Z</time>
      </trkpt>
      <trkpt lat="42.736100" lon="-6.192590">
        <ele>1056.00</ele>
        <time>2020-08-20T18:04:59Z</time>
      </trkpt>
      <trkpt lat="42.736140" lon="-6.192780">
        <ele>1056.00</ele>
        <time>2020-08-20T18:05:02Z</time>
      </trkpt>
      <trkpt lat="42.736150" lon="-6.192980">
        <ele>1056.00</ele>
        <time>2020-08-20T18:05:06Z</time>
      </trkpt>
      <trkpt lat="42.736090" lon="-6.193230">
        <ele>1056.00</ele>
        <time>2020-08-20T18:05:12Z</time>
      </trkpt>
      <trkpt lat="42.735930" lon="-6.193450">
        <ele>1056.00</ele>
        <time>2020-08-20T18:05:18Z</time>
      </trkpt>
      <trkpt lat="42.735660" lon="-6.193620">
        <ele>1056.00</ele>
        <time>2020-08-20T18:05:26Z</time>
      </trkpt>
      <trkpt lat="42.735330" lon="-6.193780">
        <ele>1056.00</ele>
        <time>2020-08-20T18:05:35Z</time>
      </trkpt>
      <trkpt lat="42.735220" lon="-6.193930">
        <ele>1056.00</ele>
        <time>2020-08-20T18:05:39Z</time>
      </trkpt>
      <trkpt lat="42.735160" lon="-6.194090">
        <ele>1056.00</ele>
        <time>2020-08-20T18:05:43Z</time>
      </trkpt>
      <trkpt lat="42.735140" lon="-6.194360">
        <ele>1056.00</ele>
        <time>2020-08-20T18:05:48Z</time>
      </trkpt>
      <trkpt lat="42.735100" lon="-6.195260">
        <ele>1049.00</ele>
        <time>2020-08-20T18:06:06Z</time>
      </trkpt>
      <trkpt lat="42.735150" lon="-6.195690">
        <ele>1049.00</ele>
        <time>2020-08-20T18:06:14Z</time>
      </trkpt>
      <trkpt lat="42.735140" lon="-6.195890">
        <ele>1049.00</ele>
        <time>2020-08-20T18:06:18Z</time>
      </trkpt>
      <trkpt lat="42.735090" lon="-6.196070">
        <ele>1049.00</ele>
        <time>2020-08-20T18:06:22Z</time>
      </trkpt>
      <trkpt lat="42.734820" lon="-6.196450">
        <ele>1049.00</ele>
        <time>2020-08-20T18:06:32Z</time>
      </trkpt>
      <trkpt lat="42.734700" lon="-6.196680">
        <ele>1049.00</ele>
        <time>2020-08-20T18:06:38Z</time>
      </trkpt>
      <trkpt lat="42.734580" lon="-6.197170">
        <ele>1049.00</ele>
        <time>2020-08-20T18:06:48Z</time>
      </trkpt>
      <trkpt lat="42.734540" lon="-6.197550">
        <ele>1049.00</ele>
        <time>2020-08-20T18:06:55Z</time>
      </trkpt>
      <trkpt lat="42.734410" lon="-6.197990">
        <ele>1033.00</ele>
        <time>2020-08-20T18:07:05Z</time>
      </trkpt>
      <trkpt lat="42.734120" lon="-6.198680">
        <ele>1033.00</ele>
        <time>2020-08-20T18:07:20Z</time>
      </trkpt>
      <trkpt lat="42.733980" lon="-6.198910">
        <ele>1033.00</ele>
        <time>2020-08-20T18:07:26Z</time>
      </trkpt>
      <trkpt lat="42.733700" lon="-6.199250">
        <ele>1033.00</ele>
        <time>2020-08-20T18:07:36Z</time>
      </trkpt>
      <trkpt lat="42.733040" lon="-6.199770">
        <ele>1033.00</ele>
        <time>2020-08-20T18:07:57Z</time>
      </trkpt>
      <trkpt lat="42.732880" lon="-6.200000">
        <ele>1033.00</ele>
        <time>2020-08-20T18:08:03Z</time>
      </trkpt>
      <trkpt lat="42.732840" lon="-6.200170">
        <ele>1033.00</ele>
        <time>2020-08-20T18:08:06Z</time>
      </trkpt>
      <trkpt lat="42.732820" lon="-6.200330">
        <ele>1033.00</ele>
        <time>2020-08-20T18:08:10Z</time>
      </trkpt>
      <trkpt lat="42.732830" lon="-6.200700">
        <ele>1017.00</ele>
        <time>2020-08-20T18:08:17Z</time>
      </trkpt>
      <trkpt lat="42.732810" lon="-6.200900">
        <ele>1017.00</ele>
        <time>2020-08-20T18:08:21Z</time>
      </trkpt>
      <trkpt lat="42.732750" lon="-6.201060">
        <ele>1017.00</ele>
        <time>2020-08-20T18:08:24Z</time>
      </trkpt>
      <trkpt lat="42.732350" lon="-6.201530">
        <ele>1017.00</ele>
        <time>2020-08-20T18:08:38Z</time>
      </trkpt>
      <trkpt lat="42.731960" lon="-6.201720">
        <ele>1017.00</ele>
        <time>2020-08-20T18:08:49Z</time>
      </trkpt>
      <trkpt lat="42.731790" lon="-6.201930">
        <ele>1017.00</ele>
        <time>2020-08-20T18:08:56Z</time>
      </trkpt>
      <trkpt lat="42.731450" lon="-6.202210">
        <ele>1017.00</ele>
        <time>2020-08-20T18:09:06Z</time>
      </trkpt>
      <trkpt lat="42.731250" lon="-6.202380">
        <ele>1017.00</ele>
        <time>2020-08-20T18:09:13Z</time>
      </trkpt>
      <trkpt lat="42.730600" lon="-6.202680">
        <ele>1015.00</ele>
        <time>2020-08-20T18:09:31Z</time>
      </trkpt>
      <trkpt lat="42.730500" lon="-6.202780">
        <ele>1015.00</ele>
        <time>2020-08-20T18:09:34Z</time>
      </trkpt>
      <trkpt lat="42.730460" lon="-6.202960">
        <ele>1015.00</ele>
        <time>2020-08-20T18:09:38Z</time>
      </trkpt>
      <trkpt lat="42.730360" lon="-6.203160">
        <ele>1015.00</ele>
        <time>2020-08-20T18:09:43Z</time>
      </trkpt>
      <trkpt lat="42.730350" lon="-6.203300">
        <ele>1015.00</ele>
        <time>2020-08-20T18:09:45Z</time>
      </trkpt>
      <trkpt lat="42.730430" lon="-6.203860">
        <ele>1015.00</ele>
        <time>2020-08-20T18:09:57Z</time>
      </trkpt>
      <trkpt lat="42.730440" lon="-6.204280">
        <ele>1015.00</ele>
        <time>2020-08-20T18:10:05Z</time>
      </trkpt>
      <trkpt lat="42.730590" lon="-6.204610">
        <ele>1015.00</ele>
        <time>2020-08-20T18:10:12Z</time>
      </trkpt>
      <trkpt lat="42.730580" lon="-6.204800">
        <ele>1015.00</ele>
        <time>2020-08-20T18:10:16Z</time>
      </trkpt>
      <trkpt lat="42.730450" lon="-6.204910">
        <ele>1015.00</ele>
        <time>2020-08-20T18:10:20Z</time>
      </trkpt>
      <trkpt lat="42.730110" lon="-6.204950">
        <ele>1009.00</ele>
        <time>2020-08-20T18:10:29Z</time>
      </trkpt>
      <trkpt lat="42.729900" lon="-6.204860">
        <ele>1009.00</ele>
        <time>2020-08-20T18:10:35Z</time>
      </trkpt>
      <trkpt lat="42.729780" lon="-6.204900">
        <ele>1009.00</ele>
        <time>2020-08-20T18:10:39Z</time>
      </trkpt>
      <trkpt lat="42.729710" lon="-6.204990">
        <ele>1009.00</ele>
        <time>2020-08-20T18:10:41Z</time>
      </trkpt>
      <trkpt lat="42.729690" lon="-6.205160">
        <ele>1009.00</ele>
        <time>2020-08-20T18:10:44Z</time>
      </trkpt>
      <trkpt lat="42.729710" lon="-6.205920">
        <ele>1009.00</ele>
        <time>2020-08-20T18:10:59Z</time>
      </trkpt>
      <trkpt lat="42.729670" lon="-6.206150">
        <ele>1009.00</ele>
        <time>2020-08-20T18:11:04Z</time>
      </trkpt>
      <trkpt lat="42.729450" lon="-6.206510">
        <ele>1009.00</ele>
        <time>2020-08-20T18:11:13Z</time>
      </trkpt>
      <trkpt lat="42.729330" lon="-6.207200">
        <ele>1009.00</ele>
        <time>2020-08-20T18:11:27Z</time>
      </trkpt>
      <trkpt lat="42.728980" lon="-6.207920">
        <ele>1010.00</ele>
        <time>2020-08-20T18:11:44Z</time>
      </trkpt>
      <trkpt lat="42.728950" lon="-6.208070">
        <ele>1010.00</ele>
        <time>2020-08-20T18:11:47Z</time>
      </trkpt>
      <trkpt lat="42.728980" lon="-6.208360">
        <ele>1010.00</ele>
        <time>2020-08-20T18:11:53Z</time>
      </trkpt>
      <trkpt lat="42.728900" lon="-6.208790">
        <ele>1010.00</ele>
        <time>2020-08-20T18:12:02Z</time>
      </trkpt>
      <trkpt lat="42.728890" lon="-6.209040">
        <ele>1010.00</ele>
        <time>2020-08-20T18:12:07Z</time>
      </trkpt>
      <trkpt lat="42.728830" lon="-6.209480">
        <ele>1010.00</ele>
        <time>2020-08-20T18:12:15Z</time>
      </trkpt>
      <trkpt lat="42.728870" lon="-6.209690">
        <ele>1010.00</ele>
        <time>2020-08-20T18:12:20Z</time>
      </trkpt>
      <trkpt lat="42.729050" lon="-6.209730">
        <ele>1010.00</ele>
        <time>2020-08-20T18:12:24Z</time>
      </trkpt>
      <trkpt lat="42.729410" lon="-6.209580">
        <ele>1010.00</ele>
        <time>2020-08-20T18:12:35Z</time>
      </trkpt>
      <trkpt lat="42.729490" lon="-6.209570">
        <ele>1010.00</ele>
        <time>2020-08-20T18:12:37Z</time>
      </trkpt>
      <trkpt lat="42.729540" lon="-6.209680">
        <ele>1010.00</ele>
        <time>2020-08-20T18:12:39Z</time>
      </trkpt>
      <trkpt lat="42.729510" lon="-6.210270">
        <ele>990.00</ele>
        <time>2020-08-20T18:12:51Z</time>
      </trkpt>
      <trkpt lat="42.729450" lon="-6.210540">
        <ele>990.00</ele>
        <time>2020-08-20T18:12:56Z</time>
      </trkpt>
      <trkpt lat="42.729460" lon="-6.210740">
        <ele>990.00</ele>
        <time>2020-08-20T18:13:00Z</time>
      </trkpt>
      <trkpt lat="42.729530" lon="-6.211030">
        <ele>990.00</ele>
        <time>2020-08-20T18:13:06Z</time>
      </trkpt>
      <trkpt lat="42.729270" lon="-6.211400">
        <ele>990.00</ele>
        <time>2020-08-20T18:13:16Z</time>
      </trkpt>
      <trkpt lat="42.729230" lon="-6.211350">
        <ele>990.00</ele>
        <time>2020-08-20T18:13:18Z</time>
      </trkpt>
      <trkpt lat="42.729040" lon="-6.211100">
        <ele>990.00</ele>
        <time>2020-08-20T18:13:25Z</time>
      </trkpt>
      <trkpt lat="42.728900" lon="-6.211180">
        <ele>990.00</ele>
        <time>2020-08-20T18:13:29Z</time>
      </trkpt>
      <trkpt lat="42.728780" lon="-6.211170">
        <ele>990.00</ele>
        <time>2020-08-20T18:13:32Z</time>
      </trkpt>
      <trkpt lat="42.728630" lon="-6.211110">
        <ele>990.00</ele>
        <time>2020-08-20T18:13:36Z</time>
      </trkpt>
      <trkpt lat="42.728460" lon="-6.210990">
        <ele>990.00</ele>
        <time>2020-08-20T18:13:41Z</time>
      </trkpt>
      <trkpt lat="42.728270" lon="-6.210900">
        <ele>990.00</ele>
        <time>2020-08-20T18:13:47Z</time>
      </trkpt>
      <trkpt lat="42.728000" lon="-6.210810">
        <ele>990.00</ele>
        <time>2020-08-20T18:13:54Z</time>
      </trkpt>
      <trkpt lat="42.727790" lon="-6.210690">
        <ele>1036.00</ele>
        <time>2020-08-20T18:14:00Z</time>
      </trkpt>
      <trkpt lat="42.727720" lon="-6.210610">
        <ele>1036.00</ele>
        <time>2020-08-20T18:14:03Z</time>
      </trkpt>
      <trkpt lat="42.727680" lon="-6.210390">
        <ele>1036.00</ele>
        <time>2020-08-20T18:14:07Z</time>
      </trkpt>
      <trkpt lat="42.727620" lon="-6.210230">
        <ele>1036.00</ele>
        <time>2020-08-20T18:14:11Z</time>
      </trkpt>
      <trkpt lat="42.727530" lon="-6.210180">
        <ele>1036.00</ele>
        <time>2020-08-20T18:14:13Z</time>
      </trkpt>
      <trkpt lat="42.727390" lon="-6.210190">
        <ele>1036.00</ele>
        <time>2020-08-20T18:14:17Z</time>
      </trkpt>
      <trkpt lat="42.727270" lon="-6.210240">
        <ele>1036.00</ele>
        <time>2020-08-20T18:14:20Z</time>
      </trkpt>
      <trkpt lat="42.727200" lon="-6.210270">
        <ele>1036.00</ele>
        <time>2020-08-20T18:14:22Z</time>
      </trkpt>
      <trkpt lat="42.726950" lon="-6.210200">
        <ele>1036.00</ele>
        <time>2020-08-20T18:14:29Z</time>
      </trkpt>
      <trkpt lat="42.726630" lon="-6.210020">
        <ele>1036.00</ele>
        <time>2020-08-20T18:14:38Z</time>
      </trkpt>
      <trkpt lat="42.726350" lon="-6.209910">
        <ele>1036.00</ele>
        <time>2020-08-20T18:14:46Z</time>
      </trkpt>
      <trkpt lat="42.726060" lon="-6.209740">
        <ele>1036.00</ele>
        <time>2020-08-20T18:14:55Z</time>
      </trkpt>
      <trkpt lat="42.725430" lon="-6.209160">
        <ele>1042.00</ele>
        <time>2020-08-20T18:15:15Z</time>
      </trkpt>
      <trkpt lat="42.725310" lon="-6.209020">
        <ele>1042.00</ele>
        <time>2020-08-20T18:15:19Z</time>
      </trkpt>
      <trkpt lat="42.725070" lon="-6.208740">
        <ele>1042.00</ele>
        <time>2020-08-20T18:15:28Z</time>
      </trkpt>
      <trkpt lat="42.724880" lon="-6.208520">
        <ele>1042.00</ele>
        <time>2020-08-20T18:15:34Z</time>
      </trkpt>
      <trkpt lat="42.724820" lon="-6.208560">
        <ele>1042.00</ele>
        <time>2020-08-20T18:15:36Z</time>
      </trkpt>
      <trkpt lat="42.724720" lon="-6.208650">
        <ele>1008.00</ele>
        <time>2020-08-20T18:15:39Z</time>
      </trkpt>
      <trkpt lat="42.724510" lon="-6.208430">
        <ele>1008.00</ele>
        <time>2020-08-20T18:15:46Z</time>
      </trkpt>
      <trkpt lat="42.724400" lon="-6.208260">
        <ele>1008.00</ele>
        <time>2020-08-20T18:15:51Z</time>
      </trkpt>
      <trkpt lat="42.724270" lon="-6.208420">
        <ele>1008.00</ele>
        <time>2020-08-20T18:15:55Z</time>
      </trkpt>
      <trkpt lat="42.724080" lon="-6.208500">
        <ele>1008.00</ele>
        <time>2020-08-20T18:16:01Z</time>
      </trkpt>
      <trkpt lat="42.723860" lon="-6.208440">
        <ele>1008.00</ele>
        <time>2020-08-20T18:16:07Z</time>
      </trkpt>
      <trkpt lat="42.723680" lon="-6.208350">
        <ele>1008.00</ele>
        <time>2020-08-20T18:16:12Z</time>
      </trkpt>
      <trkpt lat="42.723540" lon="-6.208190">
        <ele>1008.00</ele>
        <time>2020-08-20T18:16:17Z</time>
      </trkpt>
      <trkpt lat="42.723310" lon="-6.207940">
        <ele>1008.00</ele>
        <time>2020-08-20T18:16:25Z</time>
      </trkpt>
      <trkpt lat="42.722850" lon="-6.207640">
        <ele>1008.00</ele>
        <time>2020-08-20T18:16:38Z</time>
      </trkpt>
      <trkpt lat="42.722340" lon="-6.207460">
        <ele>988.00</ele>
        <time>2020-08-20T18:16:52Z</time>
      </trkpt>
      <trkpt lat="42.722090" lon="-6.207820">
        <ele>988.00</ele>
        <time>2020-08-20T18:17:02Z</time>
      </trkpt>
      <trkpt lat="42.721910" lon="-6.208000">
        <ele>988.00</ele>
        <time>2020-08-20T18:17:08Z</time>
      </trkpt>
      <trkpt lat="42.721600" lon="-6.208270">
        <ele>988.00</ele>
        <time>2020-08-20T18:17:18Z</time>
      </trkpt>
      <trkpt lat="42.721450" lon="-6.208480">
        <ele>988.00</ele>
        <time>2020-08-20T18:17:24Z</time>
      </trkpt>
      <trkpt lat="42.721330" lon="-6.208780">
        <ele>988.00</ele>
        <time>2020-08-20T18:17:30Z</time>
      </trkpt>
      <trkpt lat="42.721220" lon="-6.209150">
        <ele>988.00</ele>
        <time>2020-08-20T18:17:38Z</time>
      </trkpt>
      <trkpt lat="42.721130" lon="-6.209680">
        <ele>988.00</ele>
        <time>2020-08-20T18:17:49Z</time>
      </trkpt>
      <trkpt lat="42.721100" lon="-6.209950">
        <ele>988.00</ele>
        <time>2020-08-20T18:17:54Z</time>
      </trkpt>
      <trkpt lat="42.721120" lon="-6.210190">
        <ele>978.00</ele>
        <time>2020-08-20T18:17:59Z</time>
      </trkpt>
      <trkpt lat="42.721130" lon="-6.210360">
        <ele>978.00</ele>
        <time>2020-08-20T18:18:02Z</time>
      </trkpt>
      <trkpt lat="42.720770" lon="-6.210610">
        <ele>978.00</ele>
        <time>2020-08-20T18:18:13Z</time>
      </trkpt>
      <trkpt lat="42.720350" lon="-6.210780">
        <ele>978.00</ele>
        <time>2020-08-20T18:18:25Z</time>
      </trkpt>
      <trkpt lat="42.720180" lon="-6.210940">
        <ele>978.00</ele>
        <time>2020-08-20T18:18:30Z</time>
      </trkpt>
      <trkpt lat="42.719850" lon="-6.211710">
        <ele>978.00</ele>
        <time>2020-08-20T18:18:48Z</time>
      </trkpt>
      <trkpt lat="42.719690" lon="-6.211940">
        <ele>978.00</ele>
        <time>2020-08-20T18:18:54Z</time>
      </trkpt>
      <trkpt lat="42.718540" lon="-6.212540">
        <ele>983.00</ele>
        <time>2020-08-20T18:19:27Z</time>
      </trkpt>
      <trkpt lat="42.718190" lon="-6.212860">
        <ele>983.00</ele>
        <time>2020-08-20T18:19:38Z</time>
      </trkpt>
      <trkpt lat="42.717890" lon="-6.213180">
        <ele>983.00</ele>
        <time>2020-08-20T18:19:48Z</time>
      </trkpt>
      <trkpt lat="42.717060" lon="-6.213780">
        <ele>970.00</ele>
        <time>2020-08-20T18:20:14Z</time>
      </trkpt>
      <trkpt lat="42.716800" lon="-6.214070">
        <ele>970.00</ele>
        <time>2020-08-20T18:20:22Z</time>
      </trkpt>
      <trkpt lat="42.716720" lon="-6.214310">
        <ele>970.00</ele>
        <time>2020-08-20T18:20:28Z</time>
      </trkpt>
      <trkpt lat="42.716620" lon="-6.214670">
        <ele>970.00</ele>
        <time>2020-08-20T18:20:35Z</time>
      </trkpt>
      <trkpt lat="42.716500" lon="-6.215600">
        <ele>970.00</ele>
        <time>2020-08-20T18:20:54Z</time>
      </trkpt>
      <trkpt lat="42.716360" lon="-6.215970">
        <ele>970.00</ele>
        <time>2020-08-20T18:21:02Z</time>
      </trkpt>
      <trkpt lat="42.715740" lon="-6.216810">
        <ele>962.00</ele>
        <time>2020-08-20T18:21:25Z</time>
      </trkpt>
      <trkpt lat="42.715540" lon="-6.216970">
        <ele>962.00</ele>
        <time>2020-08-20T18:21:31Z</time>
      </trkpt>
      <trkpt lat="42.714970" lon="-6.217140">
        <ele>962.00</ele>
        <time>2020-08-20T18:21:47Z</time>
      </trkpt>
      <trkpt lat="42.714330" lon="-6.217240">
        <ele>962.00</ele>
        <time>2020-08-20T18:22:04Z</time>
      </trkpt>
      <trkpt lat="42.713330" lon="-6.217870">
        <ele>950.00</ele>
        <time>2020-08-20T18:22:34Z</time>
      </trkpt>
      <trkpt lat="42.712970" lon="-6.217970">
        <ele>950.00</ele>
        <time>2020-08-20T18:22:44Z</time>
      </trkpt>
      <trkpt lat="42.712240" lon="-6.217900">
        <ele>950.00</ele>
        <time>2020-08-20T18:23:03Z</time>
      </trkpt>
      <trkpt lat="42.711870" lon="-6.217960">
        <ele>950.00</ele>
        <time>2020-08-20T18:23:13Z</time>
      </trkpt>
      <trkpt lat="42.711030" lon="-6.218490">
        <ele>950.00</ele>
        <time>2020-08-20T18:23:38Z</time>
      </trkpt>
      <trkpt lat="42.710720" lon="-6.218680">
        <ele>944.00</ele>
        <time>2020-08-20T18:23:47Z</time>
      </trkpt>
      <trkpt lat="42.710250" lon="-6.218850">
        <ele>944.00</ele>
        <time>2020-08-20T18:24:00Z</time>
      </trkpt>
      <trkpt lat="42.709940" lon="-6.219060">
        <ele>944.00</ele>
        <time>2020-08-20T18:24:09Z</time>
      </trkpt>
      <trkpt lat="42.709650" lon="-6.219320">
        <ele>944.00</ele>
        <time>2020-08-20T18:24:18Z</time>
      </trkpt>
      <trkpt lat="42.709010" lon="-6.219900">
        <ele>944.00</ele>
        <time>2020-08-20T18:24:39Z</time>
      </trkpt>
      <trkpt lat="42.708740" lon="-6.220090">
        <ele>944.00</ele>
        <time>2020-08-20T18:24:47Z</time>
      </trkpt>
      <trkpt lat="42.707370" lon="-6.220710">
        <ele>934.00</ele>
        <time>2020-08-20T18:25:26Z</time>
      </trkpt>
      <trkpt lat="42.707210" lon="-6.220860">
        <ele>934.00</ele>
        <time>2020-08-20T18:25:31Z</time>
      </trkpt>
      <trkpt lat="42.707040" lon="-6.221180">
        <ele>934.00</ele>
        <time>2020-08-20T18:25:39Z</time>
      </trkpt>
      <trkpt lat="42.706830" lon="-6.221440">
        <ele>934.00</ele>
        <time>2020-08-20T18:25:46Z</time>
      </trkpt>
      <trkpt lat="42.706580" lon="-6.221660">
        <ele>934.00</ele>
        <time>2020-08-20T18:25:54Z</time>
      </trkpt>
      <trkpt lat="42.706300" lon="-6.221830">
        <ele>931.00</ele>
        <time>2020-08-20T18:26:02Z</time>
      </trkpt>
      <trkpt lat="42.705780" lon="-6.222020">
        <ele>931.00</ele>
        <time>2020-08-20T18:26:17Z</time>
      </trkpt>
      <trkpt lat="42.705180" lon="-6.222470">
        <ele>931.00</ele>
        <time>2020-08-20T18:26:35Z</time>
      </trkpt>
      <trkpt lat="42.704950" lon="-6.222540">
        <ele>931.00</ele>
        <time>2020-08-20T18:26:41Z</time>
      </trkpt>
      <trkpt lat="42.704040" lon="-6.222560">
        <ele>931.00</ele>
        <time>2020-08-20T18:27:06Z</time>
      </trkpt>
      <trkpt lat="42.703870" lon="-6.222640">
        <ele>931.00</ele>
        <time>2020-08-20T18:27:10Z</time>
      </trkpt>
      <trkpt lat="42.702970" lon="-6.223450">
        <ele>931.00</ele>
        <time>2020-08-20T18:27:39Z</time>
      </trkpt>
      <trkpt lat="42.702290" lon="-6.223980">
        <ele>931.00</ele>
        <time>2020-08-20T18:28:00Z</time>
      </trkpt>
      <trkpt lat="42.702080" lon="-6.224180">
        <ele>931.00</ele>
        <time>2020-08-20T18:28:07Z</time>
      </trkpt>
      <trkpt lat="42.701540" lon="-6.224980">
        <ele>926.00</ele>
        <time>2020-08-20T18:28:28Z</time>
      </trkpt>
      <trkpt lat="42.701160" lon="-6.225430">
        <ele>926.00</ele>
        <time>2020-08-20T18:28:42Z</time>
      </trkpt>
      <trkpt lat="42.700830" lon="-6.225850">
        <ele>926.00</ele>
        <time>2020-08-20T18:28:54Z</time>
      </trkpt>
      <trkpt lat="42.700620" lon="-6.226110">
        <ele>926.00</ele>
        <time>2020-08-20T18:29:01Z</time>
      </trkpt>
      <trkpt lat="42.700500" lon="-6.226240">
        <ele>926.00</ele>
        <time>2020-08-20T18:29:06Z</time>
      </trkpt>
      <trkpt lat="42.700210" lon="-6.226570">
        <ele>926.00</ele>
        <time>2020-08-20T18:29:16Z</time>
      </trkpt>
      <trkpt lat="42.699990" lon="-6.226880">
        <ele>926.00</ele>
        <time>2020-08-20T18:29:24Z</time>
      </trkpt>
      <trkpt lat="42.699830" lon="-6.227110">
        <ele>926.00</ele>
        <time>2020-08-20T18:29:30Z</time>
      </trkpt>
      <trkpt lat="42.699760" lon="-6.227190">
        <ele>926.00</ele>
        <time>2020-08-20T18:29:33Z</time>
      </trkpt>
      <trkpt lat="42.699530" lon="-6.227490">
        <ele>919.00</ele>
        <time>2020-08-20T18:29:41Z</time>
      </trkpt>
      <trkpt lat="42.699220" lon="-6.227950">
        <ele>919.00</ele>
        <time>2020-08-20T18:29:54Z</time>
      </trkpt>
      <trkpt lat="42.699130" lon="-6.228080">
        <ele>919.00</ele>
        <time>2020-08-20T18:29:57Z</time>
      </trkpt>
      <trkpt lat="42.699030" lon="-6.228280">
        <ele>919.00</ele>
        <time>2020-08-20T18:30:02Z</time>
      </trkpt>
      <trkpt lat="42.698970" lon="-6.228370">
        <ele>919.00</ele>
        <time>2020-08-20T18:30:04Z</time>
      </trkpt>
      <trkpt lat="42.698890" lon="-6.228530">
        <ele>919.00</ele>
        <time>2020-08-20T18:30:08Z</time>
      </trkpt>
      <trkpt lat="42.698780" lon="-6.228690">
        <ele>919.00</ele>
        <time>2020-08-20T18:30:12Z</time>
      </trkpt>
      <trkpt lat="42.698550" lon="-6.228880">
        <ele>919.00</ele>
        <time>2020-08-20T18:30:20Z</time>
      </trkpt>
      <trkpt lat="42.698450" lon="-6.228980">
        <ele>919.00</ele>
        <time>2020-08-20T18:30:23Z</time>
      </trkpt>
      <trkpt lat="42.698140" lon="-6.229140">
        <ele>919.00</ele>
        <time>2020-08-20T18:30:32Z</time>
      </trkpt>
      <trkpt lat="42.697970" lon="-6.229220">
        <ele>919.00</ele>
        <time>2020-08-20T18:30:36Z</time>
      </trkpt>
      <trkpt lat="42.697360" lon="-6.229250">
        <ele>920.00</ele>
        <time>2020-08-20T18:30:53Z</time>
      </trkpt>
      <trkpt lat="42.696970" lon="-6.229540">
        <ele>920.00</ele>
        <time>2020-08-20T18:31:05Z</time>
      </trkpt>
      <trkpt lat="42.696810" lon="-6.229930">
        <ele>920.00</ele>
        <time>2020-08-20T18:31:13Z</time>
      </trkpt>
      <trkpt lat="42.696510" lon="-6.230380">
        <ele>920.00</ele>
        <time>2020-08-20T18:31:25Z</time>
      </trkpt>
      <trkpt lat="42.696480" lon="-6.230520">
        <ele>920.00</ele>
        <time>2020-08-20T18:31:28Z</time>
      </trkpt>
      <trkpt lat="42.696470" lon="-6.230580">
        <ele>920.00</ele>
        <time>2020-08-20T18:31:29Z</time>
      </trkpt>
      <trkpt lat="42.696330" lon="-6.230810">
        <ele>920.00</ele>
        <time>2020-08-20T18:31:35Z</time>
      </trkpt>
      <trkpt lat="42.696210" lon="-6.230940">
        <ele>920.00</ele>
        <time>2020-08-20T18:31:39Z</time>
      </trkpt>
      <trkpt lat="42.695910" lon="-6.230990">
        <ele>920.00</ele>
        <time>2020-08-20T18:31:47Z</time>
      </trkpt>
      <trkpt lat="42.695580" lon="-6.231250">
        <ele>910.00</ele>
        <time>2020-08-20T18:31:58Z</time>
      </trkpt>
      <trkpt lat="42.695430" lon="-6.231290">
        <ele>910.00</ele>
        <time>2020-08-20T18:32:02Z</time>
      </trkpt>
      <trkpt lat="42.694750" lon="-6.231900">
        <ele>910.00</ele>
        <time>2020-08-20T18:32:24Z</time>
      </trkpt>
      <trkpt lat="42.694470" lon="-6.232290">
        <ele>910.00</ele>
        <time>2020-08-20T18:32:34Z</time>
      </trkpt>
      <trkpt lat="42.694100" lon="-6.232930">
        <ele>910.00</ele>
        <time>2020-08-20T18:32:50Z</time>
      </trkpt>
      <trkpt lat="42.694040" lon="-6.233040">
        <ele>910.00</ele>
        <time>2020-08-20T18:32:53Z</time>
      </trkpt>
      <trkpt lat="42.693990" lon="-6.233070">
        <ele>910.00</ele>
        <time>2020-08-20T18:32:54Z</time>
      </trkpt>
      <trkpt lat="42.693920" lon="-6.233070">
        <ele>910.00</ele>
        <time>2020-08-20T18:32:56Z</time>
      </trkpt>
      <trkpt lat="42.693880" lon="-6.233260">
        <ele>910.00</ele>
        <time>2020-08-20T18:33:00Z</time>
      </trkpt>
      <trkpt lat="42.693800" lon="-6.233470">
        <ele>910.00</ele>
        <time>2020-08-20T18:33:05Z</time>
      </trkpt>
      <trkpt lat="42.693670" lon="-6.233660">
        <ele>903.00</ele>
        <time>2020-08-20T18:33:10Z</time>
      </trkpt>
      <trkpt lat="42.693300" lon="-6.233970">
        <ele>903.00</ele>
        <time>2020-08-20T18:33:21Z</time>
      </trkpt>
      <trkpt lat="42.693050" lon="-6.234130">
        <ele>903.00</ele>
        <time>2020-08-20T18:33:29Z</time>
      </trkpt>
      <trkpt lat="42.692890" lon="-6.234160">
        <ele>903.00</ele>
        <time>2020-08-20T18:33:33Z</time>
      </trkpt>
      <trkpt lat="42.692700" lon="-6.234170">
        <ele>903.00</ele>
        <time>2020-08-20T18:33:38Z</time>
      </trkpt>
      <trkpt lat="42.692500" lon="-6.234120">
        <ele>903.00</ele>
        <time>2020-08-20T18:33:44Z</time>
      </trkpt>
      <trkpt lat="42.692250" lon="-6.233930">
        <ele>903.00</ele>
        <time>2020-08-20T18:33:51Z</time>
      </trkpt>
      <trkpt lat="42.692090" lon="-6.233860">
        <ele>903.00</ele>
        <time>2020-08-20T18:33:56Z</time>
      </trkpt>
      <trkpt lat="42.691900" lon="-6.233840">
        <ele>903.00</ele>
        <time>2020-08-20T18:34:01Z</time>
      </trkpt>
      <trkpt lat="42.691480" lon="-6.233960">
        <ele>903.00</ele>
        <time>2020-08-20T18:34:12Z</time>
      </trkpt>
      <trkpt lat="42.690940" lon="-6.234150">
        <ele>898.00</ele>
        <time>2020-08-20T18:34:27Z</time>
      </trkpt>
      <trkpt lat="42.690160" lon="-6.234770">
        <ele>898.00</ele>
        <time>2020-08-20T18:34:51Z</time>
      </trkpt>
      <trkpt lat="42.689900" lon="-6.235030">
        <ele>898.00</ele>
        <time>2020-08-20T18:35:00Z</time>
      </trkpt>
      <trkpt lat="42.689700" lon="-6.235370">
        <ele>898.00</ele>
        <time>2020-08-20T18:35:09Z</time>
      </trkpt>
      <trkpt lat="42.689510" lon="-6.235750">
        <ele>898.00</ele>
        <time>2020-08-20T18:35:18Z</time>
      </trkpt>
      <trkpt lat="42.689410" lon="-6.236100">
        <ele>898.00</ele>
        <time>2020-08-20T18:35:25Z</time>
      </trkpt>
      <trkpt lat="42.689370" lon="-6.236460">
        <ele>896.00</ele>
        <time>2020-08-20T18:35:32Z</time>
      </trkpt>
      <trkpt lat="42.689470" lon="-6.238290">
        <ele>896.00</ele>
        <time>2020-08-20T18:36:08Z</time>
      </trkpt>
      <trkpt lat="42.689460" lon="-6.238670">
        <ele>896.00</ele>
        <time>2020-08-20T18:36:16Z</time>
      </trkpt>
      <trkpt lat="42.689320" lon="-6.239360">
        <ele>896.00</ele>
        <time>2020-08-20T18:36:30Z</time>
      </trkpt>
      <trkpt lat="42.689140" lon="-6.239770">
        <ele>903.00</ele>
        <time>2020-08-20T18:36:39Z</time>
      </trkpt>
      <trkpt lat="42.688930" lon="-6.240030">
        <ele>903.00</ele>
        <time>2020-08-20T18:36:47Z</time>
      </trkpt>
      <trkpt lat="42.688460" lon="-6.240430">
        <ele>903.00</ele>
        <time>2020-08-20T18:37:01Z</time>
      </trkpt>
      <trkpt lat="42.688150" lon="-6.240600">
        <ele>903.00</ele>
        <time>2020-08-20T18:37:10Z</time>
      </trkpt>
      <trkpt lat="42.687850" lon="-6.240660">
        <ele>903.00</ele>
        <time>2020-08-20T18:37:19Z</time>
      </trkpt>
      <trkpt lat="42.687160" lon="-6.240560">
        <ele>903.00</ele>
        <time>2020-08-20T18:37:37Z</time>
      </trkpt>
      <trkpt lat="42.686980" lon="-6.240580">
        <ele>903.00</ele>
        <time>2020-08-20T18:37:42Z</time>
      </trkpt>
      <trkpt lat="42.686780" lon="-6.240690">
        <ele>904.00</ele>
        <time>2020-08-20T18:37:48Z</time>
      </trkpt>
      <trkpt lat="42.686620" lon="-6.240890">
        <ele>904.00</ele>
        <time>2020-08-20T18:37:53Z</time>
      </trkpt>
      <trkpt lat="42.686520" lon="-6.241200">
        <ele>904.00</ele>
        <time>2020-08-20T18:38:00Z</time>
      </trkpt>
      <trkpt lat="42.686360" lon="-6.242050">
        <ele>904.00</ele>
        <time>2020-08-20T18:38:17Z</time>
      </trkpt>
      <trkpt lat="42.686240" lon="-6.242290">
        <ele>904.00</ele>
        <time>2020-08-20T18:38:23Z</time>
      </trkpt>
      <trkpt lat="42.686030" lon="-6.242600">
        <ele>904.00</ele>
        <time>2020-08-20T18:38:31Z</time>
      </trkpt>
      <trkpt lat="42.685770" lon="-6.242880">
        <ele>904.00</ele>
        <time>2020-08-20T18:38:40Z</time>
      </trkpt>
      <trkpt lat="42.684640" lon="-6.243610">
        <ele>893.00</ele>
        <time>2020-08-20T18:39:14Z</time>
      </trkpt>
      <trkpt lat="42.684480" lon="-6.243780">
        <ele>893.00</ele>
        <time>2020-08-20T18:39:19Z</time>
      </trkpt>
      <trkpt lat="42.684370" lon="-6.244010">
        <ele>893.00</ele>
        <time>2020-08-20T18:39:24Z</time>
      </trkpt>
      <trkpt lat="42.684320" lon="-6.244430">
        <ele>893.00</ele>
        <time>2020-08-20T18:39:33Z</time>
      </trkpt>
      <trkpt lat="42.684210" lon="-6.246490">
        <ele>890.00</ele>
        <time>2020-08-20T18:40:13Z</time>
      </trkpt>
      <trkpt lat="42.684100" lon="-6.246810">
        <ele>890.00</ele>
        <time>2020-08-20T18:40:20Z</time>
      </trkpt>
      <trkpt lat="42.683960" lon="-6.246980">
        <ele>890.00</ele>
        <time>2020-08-20T18:40:25Z</time>
      </trkpt>
      <trkpt lat="42.683730" lon="-6.247140">
        <ele>890.00</ele>
        <time>2020-08-20T18:40:32Z</time>
      </trkpt>
      <trkpt lat="42.683020" lon="-6.247380">
        <ele>890.00</ele>
        <time>2020-08-20T18:40:52Z</time>
      </trkpt>
      <trkpt lat="42.682830" lon="-6.247500">
        <ele>890.00</ele>
        <time>2020-08-20T18:40:57Z</time>
      </trkpt>
      <trkpt lat="42.682680" lon="-6.247680">
        <ele>890.00</ele>
        <time>2020-08-20T18:41:03Z</time>
      </trkpt>
      <trkpt lat="42.682550" lon="-6.247880">
        <ele>890.00</ele>
        <time>2020-08-20T18:41:08Z</time>
      </trkpt>
      <trkpt lat="42.682240" lon="-6.248870">
        <ele>892.00</ele>
        <time>2020-08-20T18:41:29Z</time>
      </trkpt>
      <trkpt lat="42.682070" lon="-6.249190">
        <ele>892.00</ele>
        <time>2020-08-20T18:41:37Z</time>
      </trkpt>
      <trkpt lat="42.681800" lon="-6.249480">
        <ele>892.00</ele>
        <time>2020-08-20T18:41:46Z</time>
      </trkpt>
      <trkpt lat="42.681510" lon="-6.249660">
        <ele>892.00</ele>
        <time>2020-08-20T18:41:55Z</time>
      </trkpt>
      <trkpt lat="42.680840" lon="-6.249840">
        <ele>892.00</ele>
        <time>2020-08-20T18:42:13Z</time>
      </trkpt>
      <trkpt lat="42.680570" lon="-6.249980">
        <ele>899.00</ele>
        <time>2020-08-20T18:42:20Z</time>
      </trkpt>
      <trkpt lat="42.680340" lon="-6.250150">
        <ele>899.00</ele>
        <time>2020-08-20T18:42:27Z</time>
      </trkpt>
      <trkpt lat="42.679830" lon="-6.250760">
        <ele>899.00</ele>
        <time>2020-08-20T18:42:46Z</time>
      </trkpt>
      <trkpt lat="42.679610" lon="-6.250960">
        <ele>899.00</ele>
        <time>2020-08-20T18:42:53Z</time>
      </trkpt>
      <trkpt lat="42.679400" lon="-6.251120">
        <ele>899.00</ele>
        <time>2020-08-20T18:42:59Z</time>
      </trkpt>
      <trkpt lat="42.679140" lon="-6.251240">
        <ele>899.00</ele>
        <time>2020-08-20T18:43:06Z</time>
      </trkpt>
      <trkpt lat="42.678890" lon="-6.251310">
        <ele>899.00</ele>
        <time>2020-08-20T18:43:13Z</time>
      </trkpt>
      <trkpt lat="42.678030" lon="-6.251400">
        <ele>877.00</ele>
        <time>2020-08-20T18:43:36Z</time>
      </trkpt>
      <trkpt lat="42.677740" lon="-6.251490">
        <ele>877.00</ele>
        <time>2020-08-20T18:43:44Z</time>
      </trkpt>
      <trkpt lat="42.677480" lon="-6.251640">
        <ele>877.00</ele>
        <time>2020-08-20T18:43:52Z</time>
      </trkpt>
      <trkpt lat="42.677110" lon="-6.252050">
        <ele>877.00</ele>
        <time>2020-08-20T18:44:05Z</time>
      </trkpt>
      <trkpt lat="42.676650" lon="-6.252900">
        <ele>877.00</ele>
        <time>2020-08-20T18:44:25Z</time>
      </trkpt>
      <trkpt lat="42.676400" lon="-6.253220">
        <ele>877.00</ele>
        <time>2020-08-20T18:44:34Z</time>
      </trkpt>
      <trkpt lat="42.676100" lon="-6.253510">
        <ele>877.00</ele>
        <time>2020-08-20T18:44:44Z</time>
      </trkpt>
      <trkpt lat="42.675270" lon="-6.254260">
        <ele>877.00</ele>
        <time>2020-08-20T18:45:11Z</time>
      </trkpt>
      <trkpt lat="42.674760" lon="-6.254650">
        <ele>877.00</ele>
        <time>2020-08-20T18:45:27Z</time>
      </trkpt>
      <trkpt lat="42.673880" lon="-6.255470">
        <ele>874.00</ele>
        <time>2020-08-20T18:45:55Z</time>
      </trkpt>
      <trkpt lat="42.672690" lon="-6.257020">
        <ele>874.00</ele>
        <time>2020-08-20T18:46:39Z</time>
      </trkpt>
      <trkpt lat="42.671740" lon="-6.257680">
        <ele>871.00</ele>
        <time>2020-08-20T18:47:08Z</time>
      </trkpt>
      <trkpt lat="42.671450" lon="-6.257850">
        <ele>871.00</ele>
        <time>2020-08-20T18:47:16Z</time>
      </trkpt>
      <trkpt lat="42.671180" lon="-6.257870">
        <ele>871.00</ele>
        <time>2020-08-20T18:47:23Z</time>
      </trkpt>
      <trkpt lat="42.670900" lon="-6.257830">
        <ele>871.00</ele>
        <time>2020-08-20T18:47:31Z</time>
      </trkpt>
      <trkpt lat="42.670600" lon="-6.257760">
        <ele>871.00</ele>
        <time>2020-08-20T18:47:39Z</time>
      </trkpt>
      <trkpt lat="42.669950" lon="-6.257570">
        <ele>871.00</ele>
        <time>2020-08-20T18:47:57Z</time>
      </trkpt>
      <trkpt lat="42.669590" lon="-6.257550">
        <ele>871.00</ele>
        <time>2020-08-20T18:48:06Z</time>
      </trkpt>
      <trkpt lat="42.668580" lon="-6.257680">
        <ele>878.00</ele>
        <time>2020-08-20T18:48:33Z</time>
      </trkpt>
      <trkpt lat="42.668310" lon="-6.257770">
        <ele>878.00</ele>
        <time>2020-08-20T18:48:41Z</time>
      </trkpt>
      <trkpt lat="42.667620" lon="-6.258220">
        <ele>878.00</ele>
        <time>2020-08-20T18:49:01Z</time>
      </trkpt>
      <trkpt lat="42.667310" lon="-6.258560">
        <ele>878.00</ele>
        <time>2020-08-20T18:49:12Z</time>
      </trkpt>
      <trkpt lat="42.667170" lon="-6.258680">
        <ele>878.00</ele>
        <time>2020-08-20T18:49:16Z</time>
      </trkpt>
      <trkpt lat="42.666830" lon="-6.258930">
        <ele>877.00</ele>
        <time>2020-08-20T18:49:27Z</time>
      </trkpt>
      <trkpt lat="42.666760" lon="-6.259000">
        <ele>877.00</ele>
        <time>2020-08-20T18:49:29Z</time>
      </trkpt>
      <trkpt lat="42.666690" lon="-6.259060">
        <ele>877.00</ele>
        <time>2020-08-20T18:49:31Z</time>
      </trkpt>
      <trkpt lat="42.666590" lon="-6.259210">
        <ele>877.00</ele>
        <time>2020-08-20T18:49:35Z</time>
      </trkpt>
      <trkpt lat="42.666470" lon="-6.259610">
        <ele>877.00</ele>
        <time>2020-08-20T18:49:44Z</time>
      </trkpt>
      <trkpt lat="42.666390" lon="-6.259870">
        <ele>877.00</ele>
        <time>2020-08-20T18:49:49Z</time>
      </trkpt>
      <trkpt lat="42.666000" lon="-6.260440">
        <ele>877.00</ele>
        <time>2020-08-20T18:50:04Z</time>
      </trkpt>
      <trkpt lat="42.665760" lon="-6.261020">
        <ele>877.00</ele>
        <time>2020-08-20T18:50:18Z</time>
      </trkpt>
      <trkpt lat="42.665710" lon="-6.261350">
        <ele>877.00</ele>
        <time>2020-08-20T18:50:24Z</time>
      </trkpt>
      <trkpt lat="42.665710" lon="-6.261650">
        <ele>877.00</ele>
        <time>2020-08-20T18:50:30Z</time>
      </trkpt>
      <trkpt lat="42.665800" lon="-6.262000">
        <ele>867.00</ele>
        <time>2020-08-20T18:50:37Z</time>
      </trkpt>
      <trkpt lat="42.665930" lon="-6.262300">
        <ele>867.00</ele>
        <time>2020-08-20T18:50:44Z</time>
      </trkpt>
      <trkpt lat="42.665950" lon="-6.262530">
        <ele>867.00</ele>
        <time>2020-08-20T18:50:49Z</time>
      </trkpt>
      <trkpt lat="42.665950" lon="-6.262820">
        <ele>867.00</ele>
        <time>2020-08-20T18:50:54Z</time>
      </trkpt>
      <trkpt lat="42.665900" lon="-6.263080">
        <ele>867.00</ele>
        <time>2020-08-20T18:51:00Z</time>
      </trkpt>
      <trkpt lat="42.665780" lon="-6.263260">
        <ele>867.00</ele>
        <time>2020-08-20T18:51:04Z</time>
      </trkpt>
      <trkpt lat="42.665640" lon="-6.263410">
        <ele>867.00</ele>
        <time>2020-08-20T18:51:09Z</time>
      </trkpt>
      <trkpt lat="42.665460" lon="-6.263530">
        <ele>867.00</ele>
        <time>2020-08-20T18:51:15Z</time>
      </trkpt>
      <trkpt lat="42.665270" lon="-6.263620">
        <ele>867.00</ele>
        <time>2020-08-20T18:51:20Z</time>
      </trkpt>
      <trkpt lat="42.665080" lon="-6.263640">
        <ele>867.00</ele>
        <time>2020-08-20T18:51:25Z</time>
      </trkpt>
      <trkpt lat="42.664880" lon="-6.263560">
        <ele>867.00</ele>
        <time>2020-08-20T18:51:31Z</time>
      </trkpt>
      <trkpt lat="42.664670" lon="-6.263360">
        <ele>867.00</ele>
        <time>2020-08-20T18:51:37Z</time>
      </trkpt>
      <trkpt lat="42.664450" lon="-6.263050">
        <ele>865.00</ele>
        <time>2020-08-20T18:51:46Z</time>
      </trkpt>
      <trkpt lat="42.663820" lon="-6.262440">
        <ele>865.00</ele>
        <time>2020-08-20T18:52:07Z</time>
      </trkpt>
      <trkpt lat="42.663580" lon="-6.262320">
        <ele>865.00</ele>
        <time>2020-08-20T18:52:13Z</time>
      </trkpt>
      <trkpt lat="42.663180" lon="-6.262210">
        <ele>865.00</ele>
        <time>2020-08-20T18:52:24Z</time>
      </trkpt>
      <trkpt lat="42.663040" lon="-6.262220">
        <ele>865.00</ele>
        <time>2020-08-20T18:52:28Z</time>
      </trkpt>
      <trkpt lat="42.662900" lon="-6.262280">
        <ele>865.00</ele>
        <time>2020-08-20T18:52:32Z</time>
      </trkpt>
      <trkpt lat="42.662640" lon="-6.262440">
        <ele>865.00</ele>
        <time>2020-08-20T18:52:40Z</time>
      </trkpt>
      <trkpt lat="42.662120" lon="-6.262620">
        <ele>858.00</ele>
        <time>2020-08-20T18:52:54Z</time>
      </trkpt>
      <trkpt lat="42.661980" lon="-6.262730">
        <ele>858.00</ele>
        <time>2020-08-20T18:52:58Z</time>
      </trkpt>
      <trkpt lat="42.661850" lon="-6.262870">
        <ele>858.00</ele>
        <time>2020-08-20T18:53:03Z</time>
      </trkpt>
      <trkpt lat="42.661340" lon="-6.263560">
        <ele>858.00</ele>
        <time>2020-08-20T18:53:22Z</time>
      </trkpt>
      <trkpt lat="42.661160" lon="-6.263660">
        <ele>858.00</ele>
        <time>2020-08-20T18:53:27Z</time>
      </trkpt>
      <trkpt lat="42.660960" lon="-6.263680">
        <ele>858.00</ele>
        <time>2020-08-20T18:53:33Z</time>
      </trkpt>
      <trkpt lat="42.660670" lon="-6.263650">
        <ele>858.00</ele>
        <time>2020-08-20T18:53:40Z</time>
      </trkpt>
      <trkpt lat="42.660400" lon="-6.263690">
        <ele>858.00</ele>
        <time>2020-08-20T18:53:48Z</time>
      </trkpt>
      <trkpt lat="42.659690" lon="-6.263890">
        <ele>889.00</ele>
        <time>2020-08-20T18:54:07Z</time>
      </trkpt>
      <trkpt lat="42.659560" lon="-6.263950">
        <ele>889.00</ele>
        <time>2020-08-20T18:54:11Z</time>
      </trkpt>
      <trkpt lat="42.659440" lon="-6.264040">
        <ele>889.00</ele>
        <time>2020-08-20T18:54:14Z</time>
      </trkpt>
      <trkpt lat="42.659320" lon="-6.264180">
        <ele>889.00</ele>
        <time>2020-08-20T18:54:18Z</time>
      </trkpt>
      <trkpt lat="42.657550" lon="-6.267060">
        <ele>863.00</ele>
        <time>2020-08-20T18:55:32Z</time>
      </trkpt>
      <trkpt lat="42.657430" lon="-6.267190">
        <ele>863.00</ele>
        <time>2020-08-20T18:55:36Z</time>
      </trkpt>
      <trkpt lat="42.657260" lon="-6.267310">
        <ele>863.00</ele>
        <time>2020-08-20T18:55:41Z</time>
      </trkpt>
      <trkpt lat="42.657000" lon="-6.267330">
        <ele>863.00</ele>
        <time>2020-08-20T18:55:48Z</time>
      </trkpt>
      <trkpt lat="42.656050" lon="-6.267030">
        <ele>882.00</ele>
        <time>2020-08-20T18:56:14Z</time>
      </trkpt>
      <trkpt lat="42.655840" lon="-6.267010">
        <ele>882.00</ele>
        <time>2020-08-20T18:56:20Z</time>
      </trkpt>
      <trkpt lat="42.655630" lon="-6.267050">
        <ele>882.00</ele>
        <time>2020-08-20T18:56:26Z</time>
      </trkpt>
      <trkpt lat="42.655430" lon="-6.267190">
        <ele>882.00</ele>
        <time>2020-08-20T18:56:32Z</time>
      </trkpt>
      <trkpt lat="42.655140" lon="-6.267380">
        <ele>882.00</ele>
        <time>2020-08-20T18:56:40Z</time>
      </trkpt>
      <trkpt lat="42.654860" lon="-6.267610">
        <ele>882.00</ele>
        <time>2020-08-20T18:56:49Z</time>
      </trkpt>
      <trkpt lat="42.654420" lon="-6.268030">
        <ele>894.00</ele>
        <time>2020-08-20T18:57:03Z</time>
      </trkpt>
      <trkpt lat="42.654250" lon="-6.268150">
        <ele>894.00</ele>
        <time>2020-08-20T18:57:09Z</time>
      </trkpt>
      <trkpt lat="42.653410" lon="-6.268510">
        <ele>894.00</ele>
        <time>2020-08-20T18:57:32Z</time>
      </trkpt>
      <trkpt lat="42.653260" lon="-6.268620">
        <ele>894.00</ele>
        <time>2020-08-20T18:57:37Z</time>
      </trkpt>
      <trkpt lat="42.653140" lon="-6.268770">
        <ele>894.00</ele>
        <time>2020-08-20T18:57:41Z</time>
      </trkpt>
      <trkpt lat="42.652880" lon="-6.269260">
        <ele>894.00</ele>
        <time>2020-08-20T18:57:53Z</time>
      </trkpt>
      <trkpt lat="42.652780" lon="-6.269370">
        <ele>894.00</ele>
        <time>2020-08-20T18:57:56Z</time>
      </trkpt>
      <trkpt lat="42.652640" lon="-6.269440">
        <ele>894.00</ele>
        <time>2020-08-20T18:58:00Z</time>
      </trkpt>
      <trkpt lat="42.652410" lon="-6.269500">
        <ele>894.00</ele>
        <time>2020-08-20T18:58:07Z</time>
      </trkpt>
      <trkpt lat="42.652200" lon="-6.269440">
        <ele>876.00</ele>
        <time>2020-08-20T18:58:12Z</time>
      </trkpt>
      <trkpt lat="42.651770" lon="-6.269220">
        <ele>876.00</ele>
        <time>2020-08-20T18:58:25Z</time>
      </trkpt>
      <trkpt lat="42.651570" lon="-6.269190">
        <ele>876.00</ele>
        <time>2020-08-20T18:58:30Z</time>
      </trkpt>
      <trkpt lat="42.651310" lon="-6.269230">
        <ele>876.00</ele>
        <time>2020-08-20T18:58:37Z</time>
      </trkpt>
      <trkpt lat="42.651100" lon="-6.269340">
        <ele>876.00</ele>
        <time>2020-08-20T18:58:43Z</time>
      </trkpt>
      <trkpt lat="42.650900" lon="-6.269500">
        <ele>876.00</ele>
        <time>2020-08-20T18:58:49Z</time>
      </trkpt>
      <trkpt lat="42.650740" lon="-6.269710">
        <ele>876.00</ele>
        <time>2020-08-20T18:58:55Z</time>
      </trkpt>
      <trkpt lat="42.650560" lon="-6.269980">
        <ele>876.00</ele>
        <time>2020-08-20T18:59:02Z</time>
      </trkpt>
      <trkpt lat="42.650220" lon="-6.270830">
        <ele>862.00</ele>
        <time>2020-08-20T18:59:21Z</time>
      </trkpt>
      <trkpt lat="42.650070" lon="-6.271000">
        <ele>862.00</ele>
        <time>2020-08-20T18:59:26Z</time>
      </trkpt>
      <trkpt lat="42.649790" lon="-6.271160">
        <ele>862.00</ele>
        <time>2020-08-20T18:59:35Z</time>
      </trkpt>
      <trkpt lat="42.648320" lon="-6.271210">
        <ele>862.00</ele>
        <time>2020-08-20T19:00:14Z</time>
      </trkpt>
      <trkpt lat="42.647980" lon="-6.271200">
        <ele>862.00</ele>
        <time>2020-08-20T19:00:23Z</time>
      </trkpt>
      <trkpt lat="42.647730" lon="-6.271130">
        <ele>862.00</ele>
        <time>2020-08-20T19:00:30Z</time>
      </trkpt>
      <trkpt lat="42.647470" lon="-6.270990">
        <ele>862.00</ele>
        <time>2020-08-20T19:00:37Z</time>
      </trkpt>
      <trkpt lat="42.647290" lon="-6.270840">
        <ele>862.00</ele>
        <time>2020-08-20T19:00:43Z</time>
      </trkpt>
      <trkpt lat="42.646560" lon="-6.269890">
        <ele>862.00</ele>
        <time>2020-08-20T19:01:10Z</time>
      </trkpt>
      <trkpt lat="42.646370" lon="-6.269730">
        <ele>862.00</ele>
        <time>2020-08-20T19:01:16Z</time>
      </trkpt>
      <trkpt lat="42.646180" lon="-6.269660">
        <ele>862.00</ele>
        <time>2020-08-20T19:01:21Z</time>
      </trkpt>
      <trkpt lat="42.646000" lon="-6.269680">
        <ele>862.00</ele>
        <time>2020-08-20T19:01:26Z</time>
      </trkpt>
      <trkpt lat="42.645820" lon="-6.269820">
        <ele>862.00</ele>
        <time>2020-08-20T19:01:31Z</time>
      </trkpt>
      <trkpt lat="42.645390" lon="-6.270250">
        <ele>831.00</ele>
        <time>2020-08-20T19:01:46Z</time>
      </trkpt>
      <trkpt lat="42.644900" lon="-6.270630">
        <ele>831.00</ele>
        <time>2020-08-20T19:02:01Z</time>
      </trkpt>
      <trkpt lat="42.643700" lon="-6.271490">
        <ele>831.00</ele>
        <time>2020-08-20T19:02:37Z</time>
      </trkpt>
      <trkpt lat="42.643430" lon="-6.271590">
        <ele>827.00</ele>
        <time>2020-08-20T19:02:45Z</time>
      </trkpt>
      <trkpt lat="42.642950" lon="-6.271640">
        <ele>827.00</ele>
        <time>2020-08-20T19:02:57Z</time>
      </trkpt>
      <trkpt lat="42.642260" lon="-6.271940">
        <ele>827.00</ele>
        <time>2020-08-20T19:03:17Z</time>
      </trkpt>
      <trkpt lat="42.641180" lon="-6.272130">
        <ele>827.00</ele>
        <time>2020-08-20T19:03:46Z</time>
      </trkpt>
      <trkpt lat="42.640950" lon="-6.272070">
        <ele>829.00</ele>
        <time>2020-08-20T19:03:52Z</time>
      </trkpt>
      <trkpt lat="42.640340" lon="-6.271660">
        <ele>829.00</ele>
        <time>2020-08-20T19:04:10Z</time>
      </trkpt>
      <trkpt lat="42.640160" lon="-6.271600">
        <ele>829.00</ele>
        <time>2020-08-20T19:04:15Z</time>
      </trkpt>
      <trkpt lat="42.639980" lon="-6.271640">
        <ele>829.00</ele>
        <time>2020-08-20T19:04:20Z</time>
      </trkpt>
      <trkpt lat="42.639780" lon="-6.271720">
        <ele>829.00</ele>
        <time>2020-08-20T19:04:26Z</time>
      </trkpt>
      <trkpt lat="42.639630" lon="-6.271870">
        <ele>829.00</ele>
        <time>2020-08-20T19:04:31Z</time>
      </trkpt>
      <trkpt lat="42.638500" lon="-6.273450">
        <ele>825.00</ele>
        <time>2020-08-20T19:05:14Z</time>
      </trkpt>
      <trkpt lat="42.638330" lon="-6.273590">
        <ele>825.00</ele>
        <time>2020-08-20T19:05:19Z</time>
      </trkpt>
      <trkpt lat="42.638150" lon="-6.273640">
        <ele>825.00</ele>
        <time>2020-08-20T19:05:24Z</time>
      </trkpt>
      <trkpt lat="42.637050" lon="-6.273750">
        <ele>825.00</ele>
        <time>2020-08-20T19:05:54Z</time>
      </trkpt>
      <trkpt lat="42.636820" lon="-6.273810">
        <ele>825.00</ele>
        <time>2020-08-20T19:06:00Z</time>
      </trkpt>
      <trkpt lat="42.636610" lon="-6.273930">
        <ele>808.00</ele>
        <time>2020-08-20T19:06:06Z</time>
      </trkpt>
      <trkpt lat="42.636430" lon="-6.274110">
        <ele>808.00</ele>
        <time>2020-08-20T19:06:12Z</time>
      </trkpt>
      <trkpt lat="42.636310" lon="-6.274330">
        <ele>808.00</ele>
        <time>2020-08-20T19:06:17Z</time>
      </trkpt>
      <trkpt lat="42.636010" lon="-6.275120">
        <ele>808.00</ele>
        <time>2020-08-20T19:06:35Z</time>
      </trkpt>
      <trkpt lat="42.635860" lon="-6.275280">
        <ele>808.00</ele>
        <time>2020-08-20T19:06:40Z</time>
      </trkpt>
      <trkpt lat="42.635750" lon="-6.275340">
        <ele>808.00</ele>
        <time>2020-08-20T19:06:43Z</time>
      </trkpt>
      <trkpt lat="42.635440" lon="-6.275420">
        <ele>808.00</ele>
        <time>2020-08-20T19:06:52Z</time>
      </trkpt>
      <trkpt lat="42.635270" lon="-6.275530">
        <ele>808.00</ele>
        <time>2020-08-20T19:06:57Z</time>
      </trkpt>
      <trkpt lat="42.635100" lon="-6.275650">
        <ele>808.00</ele>
        <time>2020-08-20T19:07:02Z</time>
      </trkpt>
      <trkpt lat="42.634770" lon="-6.276010">
        <ele>808.00</ele>
        <time>2020-08-20T19:07:13Z</time>
      </trkpt>
      <trkpt lat="42.634360" lon="-6.276350">
        <ele>804.00</ele>
        <time>2020-08-20T19:07:26Z</time>
      </trkpt>
      <trkpt lat="42.634060" lon="-6.276460">
        <ele>804.00</ele>
        <time>2020-08-20T19:07:34Z</time>
      </trkpt>
      <trkpt lat="42.633770" lon="-6.276470">
        <ele>804.00</ele>
        <time>2020-08-20T19:07:42Z</time>
      </trkpt>
      <trkpt lat="42.632460" lon="-6.276070">
        <ele>804.00</ele>
        <time>2020-08-20T19:08:18Z</time>
      </trkpt>
      <trkpt lat="42.632290" lon="-6.276120">
        <ele>804.00</ele>
        <time>2020-08-20T19:08:22Z</time>
      </trkpt>
      <trkpt lat="42.632140" lon="-6.276200">
        <ele>808.00</ele>
        <time>2020-08-20T19:08:27Z</time>
      </trkpt>
      <trkpt lat="42.631960" lon="-6.276350">
        <ele>808.00</ele>
        <time>2020-08-20T19:08:32Z</time>
      </trkpt>
      <trkpt lat="42.631830" lon="-6.276550">
        <ele>808.00</ele>
        <time>2020-08-20T19:08:38Z</time>
      </trkpt>
      <trkpt lat="42.631730" lon="-6.276770">
        <ele>808.00</ele>
        <time>2020-08-20T19:08:43Z</time>
      </trkpt>
      <trkpt lat="42.631540" lon="-6.277560">
        <ele>808.00</ele>
        <time>2020-08-20T19:08:59Z</time>
      </trkpt>
      <trkpt lat="42.631390" lon="-6.277920">
        <ele>808.00</ele>
        <time>2020-08-20T19:09:07Z</time>
      </trkpt>
      <trkpt lat="42.631220" lon="-6.278240">
        <ele>808.00</ele>
        <time>2020-08-20T19:09:15Z</time>
      </trkpt>
      <trkpt lat="42.630880" lon="-6.278700">
        <ele>808.00</ele>
        <time>2020-08-20T19:09:28Z</time>
      </trkpt>
      <trkpt lat="42.630730" lon="-6.278930">
        <ele>808.00</ele>
        <time>2020-08-20T19:09:34Z</time>
      </trkpt>
      <trkpt lat="42.630510" lon="-6.279680">
        <ele>805.00</ele>
        <time>2020-08-20T19:09:50Z</time>
      </trkpt>
      <trkpt lat="42.630440" lon="-6.279930">
        <ele>805.00</ele>
        <time>2020-08-20T19:09:55Z</time>
      </trkpt>
      <trkpt lat="42.630310" lon="-6.280110">
        <ele>805.00</ele>
        <time>2020-08-20T19:10:00Z</time>
      </trkpt>
      <trkpt lat="42.630130" lon="-6.280210">
        <ele>805.00</ele>
        <time>2020-08-20T19:10:05Z</time>
      </trkpt>
      <trkpt lat="42.629540" lon="-6.280330">
        <ele>805.00</ele>
        <time>2020-08-20T19:10:21Z</time>
      </trkpt>
      <trkpt lat="42.629250" lon="-6.280330">
        <ele>805.00</ele>
        <time>2020-08-20T19:10:29Z</time>
      </trkpt>
      <trkpt lat="42.628570" lon="-6.280190">
        <ele>814.00</ele>
        <time>2020-08-20T19:10:47Z</time>
      </trkpt>
      <trkpt lat="42.628280" lon="-6.280200">
        <ele>814.00</ele>
        <time>2020-08-20T19:10:55Z</time>
      </trkpt>
      <trkpt lat="42.628160" lon="-6.280240">
        <ele>814.00</ele>
        <time>2020-08-20T19:10:58Z</time>
      </trkpt>
      <trkpt lat="42.628050" lon="-6.280330">
        <ele>814.00</ele>
        <time>2020-08-20T19:11:02Z</time>
      </trkpt>
      <trkpt lat="42.627560" lon="-6.280730">
        <ele>814.00</ele>
        <time>2020-08-20T19:11:17Z</time>
      </trkpt>
      <trkpt lat="42.627400" lon="-6.280820">
        <ele>814.00</ele>
        <time>2020-08-20T19:11:21Z</time>
      </trkpt>
      <trkpt lat="42.627260" lon="-6.280860">
        <ele>814.00</ele>
        <time>2020-08-20T19:11:25Z</time>
      </trkpt>
      <trkpt lat="42.626130" lon="-6.280850">
        <ele>814.00</ele>
        <time>2020-08-20T19:11:55Z</time>
      </trkpt>
      <trkpt lat="42.625390" lon="-6.280930">
        <ele>817.00</ele>
        <time>2020-08-20T19:12:15Z</time>
      </trkpt>
      <trkpt lat="42.624670" lon="-6.281110">
        <ele>817.00</ele>
        <time>2020-08-20T19:12:35Z</time>
      </trkpt>
      <trkpt lat="42.624190" lon="-6.281270">
        <ele>817.00</ele>
        <time>2020-08-20T19:12:48Z</time>
      </trkpt>
      <trkpt lat="42.623960" lon="-6.281410">
        <ele>817.00</ele>
        <time>2020-08-20T19:12:55Z</time>
      </trkpt>
      <trkpt lat="42.623490" lon="-6.281870">
        <ele>810.00</ele>
        <time>2020-08-20T19:13:10Z</time>
      </trkpt>
      <trkpt lat="42.623010" lon="-6.282280">
        <ele>810.00</ele>
        <time>2020-08-20T19:13:25Z</time>
      </trkpt>
      <trkpt lat="42.622820" lon="-6.282460">
        <ele>810.00</ele>
        <time>2020-08-20T19:13:32Z</time>
      </trkpt>
      <trkpt lat="42.621960" lon="-6.283520">
        <ele>810.00</ele>
        <time>2020-08-20T19:14:03Z</time>
      </trkpt>
      <trkpt lat="42.621460" lon="-6.283960">
        <ele>790.00</ele>
        <time>2020-08-20T19:14:19Z</time>
      </trkpt>
      <trkpt lat="42.620800" lon="-6.284420">
        <ele>790.00</ele>
        <time>2020-08-20T19:14:38Z</time>
      </trkpt>
      <trkpt lat="42.620480" lon="-6.284570">
        <ele>790.00</ele>
        <time>2020-08-20T19:14:47Z</time>
      </trkpt>
      <trkpt lat="42.620150" lon="-6.284670">
        <ele>790.00</ele>
        <time>2020-08-20T19:14:56Z</time>
      </trkpt>
      <trkpt lat="42.619820" lon="-6.284670">
        <ele>790.00</ele>
        <time>2020-08-20T19:15:05Z</time>
      </trkpt>
      <trkpt lat="42.619190" lon="-6.284600">
        <ele>783.00</ele>
        <time>2020-08-20T19:15:22Z</time>
      </trkpt>
      <trkpt lat="42.619020" lon="-6.284620">
        <ele>783.00</ele>
        <time>2020-08-20T19:15:27Z</time>
      </trkpt>
      <trkpt lat="42.618850" lon="-6.284720">
        <ele>783.00</ele>
        <time>2020-08-20T19:15:32Z</time>
      </trkpt>
      <trkpt lat="42.618650" lon="-6.284980">
        <ele>783.00</ele>
        <time>2020-08-20T19:15:39Z</time>
      </trkpt>
      <trkpt lat="42.618500" lon="-6.285250">
        <ele>783.00</ele>
        <time>2020-08-20T19:15:46Z</time>
      </trkpt>
      <trkpt lat="42.618390" lon="-6.285560">
        <ele>783.00</ele>
        <time>2020-08-20T19:15:52Z</time>
      </trkpt>
      <trkpt lat="42.618200" lon="-6.286800">
        <ele>783.00</ele>
        <time>2020-08-20T19:16:17Z</time>
      </trkpt>
      <trkpt lat="42.618050" lon="-6.287850">
        <ele>777.00</ele>
        <time>2020-08-20T19:16:38Z</time>
      </trkpt>
      <trkpt lat="42.617610" lon="-6.289240">
        <ele>777.00</ele>
        <time>2020-08-20T19:17:08Z</time>
      </trkpt>
      <trkpt lat="42.617510" lon="-6.289720">
        <ele>777.00</ele>
        <time>2020-08-20T19:17:18Z</time>
      </trkpt>
      <trkpt lat="42.617430" lon="-6.290180">
        <ele>777.00</ele>
        <time>2020-08-20T19:17:27Z</time>
      </trkpt>
      <trkpt lat="42.617410" lon="-6.290730">
        <ele>777.00</ele>
        <time>2020-08-20T19:17:38Z</time>
      </trkpt>
      <trkpt lat="42.617340" lon="-6.290700">
        <ele>778.00</ele>
        <time>2020-08-20T19:17:40Z</time>
      </trkpt>
      <trkpt lat="42.617320" lon="-6.290670">
        <ele>778.00</ele>
        <time>2020-08-20T19:17:41Z</time>
      </trkpt>
      <trkpt lat="42.617300" lon="-6.290630">
        <ele>778.00</ele>
        <time>2020-08-20T19:17:42Z</time>
      </trkpt>
      <trkpt lat="42.617270" lon="-6.290450">
        <ele>778.00</ele>
        <time>2020-08-20T19:17:45Z</time>
      </trkpt>
      <trkpt lat="42.617240" lon="-6.290410">
        <ele>778.00</ele>
        <time>2020-08-20T19:17:47Z</time>
      </trkpt>
      <trkpt lat="42.617150" lon="-6.290340">
        <ele>778.00</ele>
        <time>2020-08-20T19:17:49Z</time>
      </trkpt>
      <trkpt lat="42.616960" lon="-6.290240">
        <ele>778.00</ele>
        <time>2020-08-20T19:17:55Z</time>
      </trkpt>
      <trkpt lat="42.616840" lon="-6.290190">
        <ele>778.00</ele>
        <time>2020-08-20T19:17:58Z</time>
      </trkpt>
      <trkpt lat="42.616750" lon="-6.290110">
        <ele>778.00</ele>
        <time>2020-08-20T19:18:01Z</time>
      </trkpt>
      <trkpt lat="42.616730" lon="-6.290040">
        <ele>778.00</ele>
        <time>2020-08-20T19:18:02Z</time>
      </trkpt>
      <trkpt lat="42.616740" lon="-6.289950">
        <ele>778.00</ele>
        <time>2020-08-20T19:18:04Z</time>
      </trkpt>
      <trkpt lat="42.616770" lon="-6.289840">
        <ele>778.00</ele>
        <time>2020-08-20T19:18:07Z</time>
      </trkpt>
      <trkpt lat="42.616800" lon="-6.289670">
        <ele>778.00</ele>
        <time>2020-08-20T19:18:10Z</time>
      </trkpt>
      <trkpt lat="42.616820" lon="-6.289440">
        <ele>778.00</ele>
        <time>2020-08-20T19:18:15Z</time>
      </trkpt>
      <trkpt lat="42.616810" lon="-6.288910">
        <ele>778.00</ele>
        <time>2020-08-20T19:18:25Z</time>
      </trkpt>
      <trkpt lat="42.616790" lon="-6.288750">
        <ele>778.00</ele>
        <time>2020-08-20T19:18:28Z</time>
      </trkpt>
      <trkpt lat="42.616760" lon="-6.288660">
        <ele>778.00</ele>
        <time>2020-08-20T19:18:30Z</time>
      </trkpt>
      <trkpt lat="42.616710" lon="-6.288640">
        <ele>778.00</ele>
        <time>2020-08-20T19:18:32Z</time>
      </trkpt>
      <trkpt lat="42.616650" lon="-6.288670">
        <ele>778.00</ele>
        <time>2020-08-20T19:18:33Z</time>
      </trkpt>
      <trkpt lat="42.616590" lon="-6.288800">
        <ele>778.00</ele>
        <time>2020-08-20T19:18:36Z</time>
      </trkpt>
      <trkpt lat="42.616550" lon="-6.289150">
        <ele>778.00</ele>
        <time>2020-08-20T19:18:43Z</time>
      </trkpt>
      <trkpt lat="42.616450" lon="-6.289450">
        <ele>774.00</ele>
        <time>2020-08-20T19:18:50Z</time>
      </trkpt>
      <trkpt lat="42.616190" lon="-6.289810">
        <ele>774.00</ele>
        <time>2020-08-20T19:19:00Z</time>
      </trkpt>
      <trkpt lat="42.615940" lon="-6.289950">
        <ele>774.00</ele>
        <time>2020-08-20T19:19:07Z</time>
      </trkpt>
      <trkpt lat="42.615480" lon="-6.290090">
        <ele>774.00</ele>
        <time>2020-08-20T19:19:19Z</time>
      </trkpt>
      <trkpt lat="42.615440" lon="-6.290140">
        <ele>774.00</ele>
        <time>2020-08-20T19:19:21Z</time>
      </trkpt>
      <trkpt lat="42.615420" lon="-6.290200">
        <ele>774.00</ele>
        <time>2020-08-20T19:19:22Z</time>
      </trkpt>
      <trkpt lat="42.615430" lon="-6.290410">
        <ele>774.00</ele>
        <time>2020-08-20T19:19:26Z</time>
      </trkpt>
      <trkpt lat="42.615430" lon="-6.290620">
        <ele>774.00</ele>
        <time>2020-08-20T19:19:30Z</time>
      </trkpt>
      <trkpt lat="42.615420" lon="-6.290780">
        <ele>774.00</ele>
        <time>2020-08-20T19:19:34Z</time>
      </trkpt>
      <trkpt lat="42.615350" lon="-6.290940">
        <ele>774.00</ele>
        <time>2020-08-20T19:19:37Z</time>
      </trkpt>
      <trkpt lat="42.615240" lon="-6.291120">
        <ele>774.00</ele>
        <time>2020-08-20T19:19:42Z</time>
      </trkpt>
      <trkpt lat="42.615000" lon="-6.291410">
        <ele>774.00</ele>
        <time>2020-08-20T19:19:50Z</time>
      </trkpt>
      <trkpt lat="42.614750" lon="-6.291510">
        <ele>774.00</ele>
        <time>2020-08-20T19:19:57Z</time>
      </trkpt>
      <trkpt lat="42.614430" lon="-6.291530">
        <ele>774.00</ele>
        <time>2020-08-20T19:20:06Z</time>
      </trkpt>
      <trkpt lat="42.614200" lon="-6.291650">
        <ele>774.00</ele>
        <time>2020-08-20T19:20:13Z</time>
      </trkpt>
      <trkpt lat="42.614050" lon="-6.291860">
        <ele>774.00</ele>
        <time>2020-08-20T19:20:18Z</time>
      </trkpt>
      <trkpt lat="42.613890" lon="-6.292330">
        <ele>774.00</ele>
        <time>2020-08-20T19:20:28Z</time>
      </trkpt>
      <trkpt lat="42.613820" lon="-6.292480">
        <ele>774.00</ele>
        <time>2020-08-20T19:20:32Z</time>
      </trkpt>
      <trkpt lat="42.613760" lon="-6.292610">
        <ele>774.00</ele>
        <time>2020-08-20T19:20:35Z</time>
      </trkpt>
      <trkpt lat="42.613610" lon="-6.292740">
        <ele>774.00</ele>
        <time>2020-08-20T19:20:40Z</time>
      </trkpt>
      <trkpt lat="42.613490" lon="-6.292830">
        <ele>774.00</ele>
        <time>2020-08-20T19:20:43Z</time>
      </trkpt>
      <trkpt lat="42.613370" lon="-6.292890">
        <ele>774.00</ele>
        <time>2020-08-20T19:20:47Z</time>
      </trkpt>
      <trkpt lat="42.613170" lon="-6.292920">
        <ele>774.00</ele>
        <time>2020-08-20T19:20:52Z</time>
      </trkpt>
      <trkpt lat="42.612580" lon="-6.293020">
        <ele>771.00</ele>
        <time>2020-08-20T19:21:08Z</time>
      </trkpt>
      <trkpt lat="42.612530" lon="-6.293020">
        <ele>771.00</ele>
        <time>2020-08-20T19:21:09Z</time>
      </trkpt>
      <trkpt lat="42.612110" lon="-6.292930">
        <ele>771.00</ele>
        <time>2020-08-20T19:21:21Z</time>
      </trkpt>
      <trkpt lat="42.611880" lon="-6.292950">
        <ele>771.00</ele>
        <time>2020-08-20T19:21:27Z</time>
      </trkpt>
      <trkpt lat="42.611660" lon="-6.292990">
        <ele>778.00</ele>
        <time>2020-08-20T19:21:33Z</time>
      </trkpt>
      <trkpt lat="42.611590" lon="-6.292950">
        <ele>778.00</ele>
        <time>2020-08-20T19:21:35Z</time>
      </trkpt>
      <trkpt lat="42.611530" lon="-6.292870">
        <ele>778.00</ele>
        <time>2020-08-20T19:21:37Z</time>
      </trkpt>
      <trkpt lat="42.611510" lon="-6.292770">
        <ele>778.00</ele>
        <time>2020-08-20T19:21:39Z</time>
      </trkpt>
      <trkpt lat="42.611500" lon="-6.292640">
        <ele>778.00</ele>
        <time>2020-08-20T19:21:42Z</time>
      </trkpt>
      <trkpt lat="42.611540" lon="-6.292450">
        <ele>778.00</ele>
        <time>2020-08-20T19:21:46Z</time>
      </trkpt>
      <trkpt lat="42.611530" lon="-6.292230">
        <ele>778.00</ele>
        <time>2020-08-20T19:21:50Z</time>
      </trkpt>
      <trkpt lat="42.611480" lon="-6.292150">
        <ele>778.00</ele>
        <time>2020-08-20T19:21:52Z</time>
      </trkpt>
      <trkpt lat="42.611370" lon="-6.292120">
        <ele>778.00</ele>
        <time>2020-08-20T19:21:55Z</time>
      </trkpt>
      <trkpt lat="42.611250" lon="-6.292180">
        <ele>778.00</ele>
        <time>2020-08-20T19:21:58Z</time>
      </trkpt>
      <trkpt lat="42.611160" lon="-6.292320">
        <ele>778.00</ele>
        <time>2020-08-20T19:22:02Z</time>
      </trkpt>
      <trkpt lat="42.611130" lon="-6.292520">
        <ele>778.00</ele>
        <time>2020-08-20T19:22:06Z</time>
      </trkpt>
      <trkpt lat="42.611110" lon="-6.292610">
        <ele>778.00</ele>
        <time>2020-08-20T19:22:08Z</time>
      </trkpt>
      <trkpt lat="42.611090" lon="-6.292670">
        <ele>778.00</ele>
        <time>2020-08-20T19:22:09Z</time>
      </trkpt>
      <trkpt lat="42.611010" lon="-6.292790">
        <ele>778.00</ele>
        <time>2020-08-20T19:22:12Z</time>
      </trkpt>
      <trkpt lat="42.610760" lon="-6.292880">
        <ele>778.00</ele>
        <time>2020-08-20T19:22:19Z</time>
      </trkpt>
      <trkpt lat="42.610570" lon="-6.292950">
        <ele>778.00</ele>
        <time>2020-08-20T19:22:25Z</time>
      </trkpt>
      <trkpt lat="42.610500" lon="-6.292970">
        <ele>778.00</ele>
        <time>2020-08-20T19:22:27Z</time>
      </trkpt>
      <trkpt lat="42.610400" lon="-6.292970">
        <ele>803.00</ele>
        <time>2020-08-20T19:22:29Z</time>
      </trkpt>
      <trkpt lat="42.610300" lon="-6.292930">
        <ele>803.00</ele>
        <time>2020-08-20T19:22:32Z</time>
      </trkpt>
      <trkpt lat="42.610220" lon="-6.292870">
        <ele>803.00</ele>
        <time>2020-08-20T19:22:34Z</time>
      </trkpt>
      <trkpt lat="42.610170" lon="-6.292820">
        <ele>803.00</ele>
        <time>2020-08-20T19:22:36Z</time>
      </trkpt>
      <trkpt lat="42.610090" lon="-6.292800">
        <ele>803.00</ele>
        <time>2020-08-20T19:22:38Z</time>
      </trkpt>
      <trkpt lat="42.610050" lon="-6.292820">
        <ele>803.00</ele>
        <time>2020-08-20T19:22:39Z</time>
      </trkpt>
      <trkpt lat="42.610010" lon="-6.292890">
        <ele>803.00</ele>
        <time>2020-08-20T19:22:41Z</time>
      </trkpt>
      <trkpt lat="42.609720" lon="-6.293400">
        <ele>803.00</ele>
        <time>2020-08-20T19:22:54Z</time>
      </trkpt>
      <trkpt lat="42.609480" lon="-6.293650">
        <ele>803.00</ele>
        <time>2020-08-20T19:23:02Z</time>
      </trkpt>
      <trkpt lat="42.609290" lon="-6.293680">
        <ele>803.00</ele>
        <time>2020-08-20T19:23:07Z</time>
      </trkpt>
      <trkpt lat="42.609100" lon="-6.293440">
        <ele>803.00</ele>
        <time>2020-08-20T19:23:14Z</time>
      </trkpt>
      <trkpt lat="42.608840" lon="-6.293150">
        <ele>803.00</ele>
        <time>2020-08-20T19:23:23Z</time>
      </trkpt>
      <trkpt lat="42.608690" lon="-6.293090">
        <ele>803.00</ele>
        <time>2020-08-20T19:23:27Z</time>
      </trkpt>
      <trkpt lat="42.608570" lon="-6.293130">
        <ele>803.00</ele>
        <time>2020-08-20T19:23:30Z</time>
      </trkpt>
      <trkpt lat="42.608370" lon="-6.293230">
        <ele>803.00</ele>
        <time>2020-08-20T19:23:36Z</time>
      </trkpt>
      <trkpt lat="42.608170" lon="-6.293340">
        <ele>808.00</ele>
        <time>2020-08-20T19:23:42Z</time>
      </trkpt>
      <trkpt lat="42.608000" lon="-6.293490">
        <ele>808.00</ele>
        <time>2020-08-20T19:23:47Z</time>
      </trkpt>
      <trkpt lat="42.607900" lon="-6.293560">
        <ele>808.00</ele>
        <time>2020-08-20T19:23:50Z</time>
      </trkpt>
      <trkpt lat="42.607830" lon="-6.293670">
        <ele>808.00</ele>
        <time>2020-08-20T19:23:53Z</time>
      </trkpt>
      <trkpt lat="42.607760" lon="-6.293780">
        <ele>808.00</ele>
        <time>2020-08-20T19:23:56Z</time>
      </trkpt>
      <trkpt lat="42.607690" lon="-6.293900">
        <ele>808.00</ele>
        <time>2020-08-20T19:23:59Z</time>
      </trkpt>
      <trkpt lat="42.607510" lon="-6.294300">
        <ele>808.00</ele>
        <time>2020-08-20T19:24:08Z</time>
      </trkpt>
      <trkpt lat="42.607430" lon="-6.294380">
        <ele>808.00</ele>
        <time>2020-08-20T19:24:11Z</time>
      </trkpt>
      <trkpt lat="42.607370" lon="-6.294530">
        <ele>808.00</ele>
        <time>2020-08-20T19:24:14Z</time>
      </trkpt>
      <trkpt lat="42.607340" lon="-6.294660">
        <ele>808.00</ele>
        <time>2020-08-20T19:24:17Z</time>
      </trkpt>
      <trkpt lat="42.607330" lon="-6.294770">
        <ele>808.00</ele>
        <time>2020-08-20T19:24:19Z</time>
      </trkpt>
      <trkpt lat="42.607330" lon="-6.295100">
        <ele>808.00</ele>
        <time>2020-08-20T19:24:26Z</time>
      </trkpt>
      <trkpt lat="42.607310" lon="-6.295530">
        <ele>808.00</ele>
        <time>2020-08-20T19:24:34Z</time>
      </trkpt>
      <trkpt lat="42.607310" lon="-6.296030">
        <ele>808.00</ele>
        <time>2020-08-20T19:24:44Z</time>
      </trkpt>
      <trkpt lat="42.607290" lon="-6.296460">
        <ele>850.00</ele>
        <time>2020-08-20T19:24:52Z</time>
      </trkpt>
      <trkpt lat="42.607300" lon="-6.297510">
        <ele>850.00</ele>
        <time>2020-08-20T19:25:13Z</time>
      </trkpt>
      <trkpt lat="42.607270" lon="-6.298360">
        <ele>850.00</ele>
        <time>2020-08-20T19:25:30Z</time>
      </trkpt>
      <trkpt lat="42.607360" lon="-6.299220">
        <ele>850.00</ele>
        <time>2020-08-20T19:25:47Z</time>
      </trkpt>
      <trkpt lat="42.607380" lon="-6.299930">
        <ele>878.00</ele>
        <time>2020-08-20T19:26:01Z</time>
      </trkpt>
      <trkpt lat="42.607360" lon="-6.300430">
        <ele>878.00</ele>
        <time>2020-08-20T19:26:11Z</time>
      </trkpt>
      <trkpt lat="42.607250" lon="-6.301210">
        <ele>878.00</ele>
        <time>2020-08-20T19:26:26Z</time>
      </trkpt>
      <trkpt lat="42.607150" lon="-6.301590">
        <ele>878.00</ele>
        <time>2020-08-20T19:26:34Z</time>
      </trkpt>
      <trkpt lat="42.607060" lon="-6.301810">
        <ele>878.00</ele>
        <time>2020-08-20T19:26:39Z</time>
      </trkpt>
      <trkpt lat="42.606950" lon="-6.301940">
        <ele>878.00</ele>
        <time>2020-08-20T19:26:43Z</time>
      </trkpt>
      <trkpt lat="42.606810" lon="-6.302000">
        <ele>878.00</ele>
        <time>2020-08-20T19:26:47Z</time>
      </trkpt>
      <trkpt lat="42.606650" lon="-6.301950">
        <ele>878.00</ele>
        <time>2020-08-20T19:26:51Z</time>
      </trkpt>
      <trkpt lat="42.605610" lon="-6.301330">
        <ele>902.00</ele>
        <time>2020-08-20T19:27:22Z</time>
      </trkpt>
      <trkpt lat="42.605400" lon="-6.301240">
        <ele>902.00</ele>
        <time>2020-08-20T19:27:28Z</time>
      </trkpt>
      <trkpt lat="42.605260" lon="-6.301210">
        <ele>902.00</ele>
        <time>2020-08-20T19:27:31Z</time>
      </trkpt>
      <trkpt lat="42.605080" lon="-6.301220">
        <ele>902.00</ele>
        <time>2020-08-20T19:27:36Z</time>
      </trkpt>
      <trkpt lat="42.604640" lon="-6.301380">
        <ele>902.00</ele>
        <time>2020-08-20T19:27:48Z</time>
      </trkpt>
      <trkpt lat="42.604490" lon="-6.301460">
        <ele>902.00</ele>
        <time>2020-08-20T19:27:53Z</time>
      </trkpt>
      <trkpt lat="42.604330" lon="-6.301620">
        <ele>902.00</ele>
        <time>2020-08-20T19:27:58Z</time>
      </trkpt>
      <trkpt lat="42.603870" lon="-6.301940">
        <ele>898.00</ele>
        <time>2020-08-20T19:28:12Z</time>
      </trkpt>
      <trkpt lat="42.603730" lon="-6.302070">
        <ele>898.00</ele>
        <time>2020-08-20T19:28:16Z</time>
      </trkpt>
      <trkpt lat="42.603260" lon="-6.302660">
        <ele>898.00</ele>
        <time>2020-08-20T19:28:33Z</time>
      </trkpt>
      <trkpt lat="42.603040" lon="-6.302870">
        <ele>898.00</ele>
        <time>2020-08-20T19:28:41Z</time>
      </trkpt>
      <trkpt lat="42.602860" lon="-6.303010">
        <ele>898.00</ele>
        <time>2020-08-20T19:28:46Z</time>
      </trkpt>
      <trkpt lat="42.602700" lon="-6.303080">
        <ele>898.00</ele>
        <time>2020-08-20T19:28:51Z</time>
      </trkpt>
      <trkpt lat="42.602480" lon="-6.303130">
        <ele>898.00</ele>
        <time>2020-08-20T19:28:57Z</time>
      </trkpt>
      <trkpt lat="42.602260" lon="-6.303230">
        <ele>898.00</ele>
        <time>2020-08-20T19:29:03Z</time>
      </trkpt>
      <trkpt lat="42.601860" lon="-6.303500">
        <ele>882.00</ele>
        <time>2020-08-20T19:29:15Z</time>
      </trkpt>
      <trkpt lat="42.601720" lon="-6.303510">
        <ele>882.00</ele>
        <time>2020-08-20T19:29:19Z</time>
      </trkpt>
      <trkpt lat="42.601610" lon="-6.303490">
        <ele>882.00</ele>
        <time>2020-08-20T19:29:22Z</time>
      </trkpt>
      <trkpt lat="42.601500" lon="-6.303420">
        <ele>882.00</ele>
        <time>2020-08-20T19:29:25Z</time>
      </trkpt>
      <trkpt lat="42.601400" lon="-6.303280">
        <ele>882.00</ele>
        <time>2020-08-20T19:29:29Z</time>
      </trkpt>
      <trkpt lat="42.601290" lon="-6.303100">
        <ele>882.00</ele>
        <time>2020-08-20T19:29:33Z</time>
      </trkpt>
      <trkpt lat="42.601180" lon="-6.302840">
        <ele>882.00</ele>
        <time>2020-08-20T19:29:39Z</time>
      </trkpt>
      <trkpt lat="42.600940" lon="-6.302310">
        <ele>882.00</ele>
        <time>2020-08-20T19:29:51Z</time>
      </trkpt>
      <trkpt lat="42.600840" lon="-6.302210">
        <ele>882.00</ele>
        <time>2020-08-20T19:29:55Z</time>
      </trkpt>
      <trkpt lat="42.600650" lon="-6.302160">
        <ele>882.00</ele>
        <time>2020-08-20T19:30:00Z</time>
      </trkpt>
      <trkpt lat="42.600540" lon="-6.302210">
        <ele>882.00</ele>
        <time>2020-08-20T19:30:03Z</time>
      </trkpt>
      <trkpt lat="42.600460" lon="-6.302380">
        <ele>882.00</ele>
        <time>2020-08-20T19:30:07Z</time>
      </trkpt>
      <trkpt lat="42.600380" lon="-6.303200">
        <ele>882.00</ele>
        <time>2020-08-20T19:30:23Z</time>
      </trkpt>
      <trkpt lat="42.600340" lon="-6.303470">
        <ele>882.00</ele>
        <time>2020-08-20T19:30:29Z</time>
      </trkpt>
      <trkpt lat="42.600280" lon="-6.303730">
        <ele>882.00</ele>
        <time>2020-08-20T19:30:34Z</time>
      </trkpt>
      <trkpt lat="42.600170" lon="-6.304130">
        <ele>882.00</ele>
        <time>2020-08-20T19:30:42Z</time>
      </trkpt>
      <trkpt lat="42.600060" lon="-6.304290">
        <ele>882.00</ele>
        <time>2020-08-20T19:30:47Z</time>
      </trkpt>
      <trkpt lat="42.599880" lon="-6.304480">
        <ele>882.00</ele>
        <time>2020-08-20T19:30:53Z</time>
      </trkpt>
      <trkpt lat="42.599760" lon="-6.304670">
        <ele>882.00</ele>
        <time>2020-08-20T19:30:58Z</time>
      </trkpt>
      <trkpt lat="42.599610" lon="-6.304990">
        <ele>882.00</ele>
        <time>2020-08-20T19:31:05Z</time>
      </trkpt>
      <trkpt lat="42.599410" lon="-6.305500">
        <ele>882.00</ele>
        <time>2020-08-20T19:31:16Z</time>
      </trkpt>
      <trkpt lat="42.599330" lon="-6.305700">
        <ele>882.00</ele>
        <time>2020-08-20T19:31:21Z</time>
      </trkpt>
      <trkpt lat="42.599220" lon="-6.305890">
        <ele>882.00</ele>
        <time>2020-08-20T19:31:26Z</time>
      </trkpt>
      <trkpt lat="42.599000" lon="-6.306110">
        <ele>867.00</ele>
        <time>2020-08-20T19:31:33Z</time>
      </trkpt>
      <trkpt lat="42.598910" lon="-6.306240">
        <ele>867.00</ele>
        <time>2020-08-20T19:31:37Z</time>
      </trkpt>
      <trkpt lat="42.598860" lon="-6.306370">
        <ele>867.00</ele>
        <time>2020-08-20T19:31:39Z</time>
      </trkpt>
      <trkpt lat="42.598790" lon="-6.306590">
        <ele>867.00</ele>
        <time>2020-08-20T19:31:44Z</time>
      </trkpt>
      <trkpt lat="42.598760" lon="-6.306890">
        <ele>867.00</ele>
        <time>2020-08-20T19:31:50Z</time>
      </trkpt>
      <trkpt lat="42.598810" lon="-6.307130">
        <ele>867.00</ele>
        <time>2020-08-20T19:31:55Z</time>
      </trkpt>
      <trkpt lat="42.598910" lon="-6.307410">
        <ele>867.00</ele>
        <time>2020-08-20T19:32:01Z</time>
      </trkpt>
      <trkpt lat="42.598970" lon="-6.307660">
        <ele>867.00</ele>
        <time>2020-08-20T19:32:06Z</time>
      </trkpt>
      <trkpt lat="42.598980" lon="-6.307910">
        <ele>867.00</ele>
        <time>2020-08-20T19:32:11Z</time>
      </trkpt>
      <trkpt lat="42.598980" lon="-6.308660">
        <ele>859.00</ele>
        <time>2020-08-20T19:32:26Z</time>
      </trkpt>
      <trkpt lat="42.599060" lon="-6.309260">
        <ele>859.00</ele>
        <time>2020-08-20T19:32:38Z</time>
      </trkpt>
      <trkpt lat="42.599170" lon="-6.309910">
        <ele>859.00</ele>
        <time>2020-08-20T19:32:51Z</time>
      </trkpt>
      <trkpt lat="42.599190" lon="-6.310040">
        <ele>859.00</ele>
        <time>2020-08-20T19:32:54Z</time>
      </trkpt>
      <trkpt lat="42.599220" lon="-6.310190">
        <ele>859.00</ele>
        <time>2020-08-20T19:32:57Z</time>
      </trkpt>
      <trkpt lat="42.599250" lon="-6.310300">
        <ele>859.00</ele>
        <time>2020-08-20T19:32:59Z</time>
      </trkpt>
      <trkpt lat="42.599270" lon="-6.310370">
        <ele>859.00</ele>
        <time>2020-08-20T19:33:00Z</time>
      </trkpt>
      <trkpt lat="42.599310" lon="-6.310520">
        <ele>859.00</ele>
        <time>2020-08-20T19:33:04Z</time>
      </trkpt>
      <trkpt lat="42.599420" lon="-6.310860">
        <ele>859.00</ele>
        <time>2020-08-20T19:33:11Z</time>
      </trkpt>
      <trkpt lat="42.599520" lon="-6.311150">
        <ele>859.00</ele>
        <time>2020-08-20T19:33:17Z</time>
      </trkpt>
      <trkpt lat="42.599670" lon="-6.311400">
        <ele>859.00</ele>
        <time>2020-08-20T19:33:24Z</time>
      </trkpt>
      <trkpt lat="42.600000" lon="-6.311710">
        <ele>859.00</ele>
        <time>2020-08-20T19:33:34Z</time>
      </trkpt>
      <trkpt lat="42.600200" lon="-6.311960">
        <ele>846.00</ele>
        <time>2020-08-20T19:33:42Z</time>
      </trkpt>
      <trkpt lat="42.600260" lon="-6.312140">
        <ele>846.00</ele>
        <time>2020-08-20T19:33:45Z</time>
      </trkpt>
      <trkpt lat="42.600290" lon="-6.312810">
        <ele>846.00</ele>
        <time>2020-08-20T19:33:59Z</time>
      </trkpt>
      <trkpt lat="42.600370" lon="-6.313220">
        <ele>846.00</ele>
        <time>2020-08-20T19:34:07Z</time>
      </trkpt>
      <trkpt lat="42.600380" lon="-6.313480">
        <ele>846.00</ele>
        <time>2020-08-20T19:34:12Z</time>
      </trkpt>
      <trkpt lat="42.600230" lon="-6.314140">
        <ele>846.00</ele>
        <time>2020-08-20T19:34:26Z</time>
      </trkpt>
      <trkpt lat="42.600290" lon="-6.314240">
        <ele>846.00</ele>
        <time>2020-08-20T19:34:28Z</time>
      </trkpt>
      <trkpt lat="42.600320" lon="-6.314380">
        <ele>846.00</ele>
        <time>2020-08-20T19:34:31Z</time>
      </trkpt>
      <trkpt lat="42.600340" lon="-6.314500">
        <ele>846.00</ele>
        <time>2020-08-20T19:34:34Z</time>
      </trkpt>
      <trkpt lat="42.600290" lon="-6.314570">
        <ele>846.00</ele>
        <time>2020-08-20T19:34:35Z</time>
      </trkpt>
      <trkpt lat="42.600180" lon="-6.314650">
        <ele>846.00</ele>
        <time>2020-08-20T19:34:39Z</time>
      </trkpt>
      <trkpt lat="42.600060" lon="-6.314660">
        <ele>814.00</ele>
        <time>2020-08-20T19:34:42Z</time>
      </trkpt>
      <trkpt lat="42.599950" lon="-6.314690">
        <ele>814.00</ele>
        <time>2020-08-20T19:34:45Z</time>
      </trkpt>
      <trkpt lat="42.599490" lon="-6.314740">
        <ele>814.00</ele>
        <time>2020-08-20T19:34:57Z</time>
      </trkpt>
      <trkpt lat="42.598900" lon="-6.314850">
        <ele>814.00</ele>
        <time>2020-08-20T19:35:13Z</time>
      </trkpt>
      <trkpt lat="42.598520" lon="-6.314980">
        <ele>814.00</ele>
        <time>2020-08-20T19:35:24Z</time>
      </trkpt>
      <trkpt lat="42.598170" lon="-6.315160">
        <ele>814.00</ele>
        <time>2020-08-20T19:35:34Z</time>
      </trkpt>
      <trkpt lat="42.597770" lon="-6.315320">
        <ele>814.00</ele>
        <time>2020-08-20T19:35:45Z</time>
      </trkpt>
      <trkpt lat="42.597570" lon="-6.315410">
        <ele>814.00</ele>
        <time>2020-08-20T19:35:50Z</time>
      </trkpt>
      <trkpt lat="42.597500" lon="-6.315450">
        <ele>792.00</ele>
        <time>2020-08-20T19:35:52Z</time>
      </trkpt>
      <trkpt lat="42.597060" lon="-6.315720">
        <ele>792.00</ele>
        <time>2020-08-20T19:36:05Z</time>
      </trkpt>
      <trkpt lat="42.596940" lon="-6.315860">
        <ele>792.00</ele>
        <time>2020-08-20T19:36:10Z</time>
      </trkpt>
      <trkpt lat="42.596810" lon="-6.316090">
        <ele>792.00</ele>
        <time>2020-08-20T19:36:15Z</time>
      </trkpt>
      <trkpt lat="42.596700" lon="-6.316350">
        <ele>792.00</ele>
        <time>2020-08-20T19:36:21Z</time>
      </trkpt>
      <trkpt lat="42.596400" lon="-6.316750">
        <ele>792.00</ele>
        <time>2020-08-20T19:36:32Z</time>
      </trkpt>
      <trkpt lat="42.596250" lon="-6.316970">
        <ele>792.00</ele>
        <time>2020-08-20T19:36:38Z</time>
      </trkpt>
      <trkpt lat="42.596130" lon="-6.317180">
        <ele>792.00</ele>
        <time>2020-08-20T19:36:44Z</time>
      </trkpt>
      <trkpt lat="42.595290" lon="-6.319210">
        <ele>778.00</ele>
        <time>2020-08-20T19:37:29Z</time>
      </trkpt>
      <trkpt lat="42.595160" lon="-6.319410">
        <ele>778.00</ele>
        <time>2020-08-20T19:37:35Z</time>
      </trkpt>
      <trkpt lat="42.595060" lon="-6.319530">
        <ele>778.00</ele>
        <time>2020-08-20T19:37:38Z</time>
      </trkpt>
      <trkpt lat="42.594980" lon="-6.319620">
        <ele>778.00</ele>
        <time>2020-08-20T19:37:41Z</time>
      </trkpt>
      <trkpt lat="42.595030" lon="-6.319790">
        <ele>778.00</ele>
        <time>2020-08-20T19:37:45Z</time>
      </trkpt>
      <trkpt lat="42.595100" lon="-6.319940">
        <ele>778.00</ele>
        <time>2020-08-20T19:37:48Z</time>
      </trkpt>
      <trkpt lat="42.595160" lon="-6.320060">
        <ele>778.00</ele>
        <time>2020-08-20T19:37:51Z</time>
      </trkpt>
      <trkpt lat="42.595220" lon="-6.320130">
        <ele>778.00</ele>
        <time>2020-08-20T19:37:53Z</time>
      </trkpt>
      <trkpt lat="42.595290" lon="-6.320260">
        <ele>778.00</ele>
        <time>2020-08-20T19:37:56Z</time>
      </trkpt>
      <trkpt lat="42.595410" lon="-6.320520">
        <ele>778.00</ele>
        <time>2020-08-20T19:38:02Z</time>
      </trkpt>
      <trkpt lat="42.595630" lon="-6.320900">
        <ele>784.00</ele>
        <time>2020-08-20T19:38:12Z</time>
      </trkpt>
      <trkpt lat="42.595680" lon="-6.320970">
        <ele>784.00</ele>
        <time>2020-08-20T19:38:14Z</time>
      </trkpt>
      <trkpt lat="42.595700" lon="-6.321070">
        <ele>784.00</ele>
        <time>2020-08-20T19:38:16Z</time>
      </trkpt>
      <trkpt lat="42.595690" lon="-6.321200">
        <ele>784.00</ele>
        <time>2020-08-20T19:38:18Z</time>
      </trkpt>
      <trkpt lat="42.595640" lon="-6.321370">
        <ele>784.00</ele>
        <time>2020-08-20T19:38:22Z</time>
      </trkpt>
      <trkpt lat="42.595540" lon="-6.321650">
        <ele>784.00</ele>
        <time>2020-08-20T19:38:28Z</time>
      </trkpt>
      <trkpt lat="42.595540" lon="-6.321720">
        <ele>784.00</ele>
        <time>2020-08-20T19:38:29Z</time>
      </trkpt>
      <trkpt lat="42.595570" lon="-6.321800">
        <ele>784.00</ele>
        <time>2020-08-20T19:38:31Z</time>
      </trkpt>
      <trkpt lat="42.595560" lon="-6.321870">
        <ele>784.00</ele>
        <time>2020-08-20T19:38:33Z</time>
      </trkpt>
      <trkpt lat="42.595580" lon="-6.321920">
        <ele>784.00</ele>
        <time>2020-08-20T19:38:34Z</time>
      </trkpt>
      <trkpt lat="42.595610" lon="-6.321940">
        <ele>784.00</ele>
        <time>2020-08-20T19:38:35Z</time>
      </trkpt>
      <trkpt lat="42.595580" lon="-6.321990">
        <ele>784.00</ele>
        <time>2020-08-20T19:38:36Z</time>
      </trkpt>
      <trkpt lat="42.595570" lon="-6.322280">
        <ele>784.00</ele>
        <time>2020-08-20T19:38:42Z</time>
      </trkpt>
      <trkpt lat="42.595730" lon="-6.322350">
        <ele>784.00</ele>
        <time>2020-08-20T19:38:46Z</time>
      </trkpt>
      <trkpt lat="42.595740" lon="-6.322410">
        <ele>784.00</ele>
        <time>2020-08-20T19:38:47Z</time>
      </trkpt>
      <trkpt lat="42.595710" lon="-6.322520">
        <ele>784.00</ele>
        <time>2020-08-20T19:38:50Z</time>
      </trkpt>
      <trkpt lat="42.595630" lon="-6.322720">
        <ele>784.00</ele>
        <time>2020-08-20T19:38:54Z</time>
      </trkpt>
      <trkpt lat="42.595580" lon="-6.322830">
        <ele>784.00</ele>
        <time>2020-08-20T19:38:57Z</time>
      </trkpt>
      <trkpt lat="42.595710" lon="-6.322920">
        <ele>729.00</ele>
        <time>2020-08-20T19:58:02Z</time>
      </trkpt>
      <trkpt lat="42.595810" lon="-6.322950">
        <ele>729.00</ele>
        <time>2020-08-20T19:58:04Z</time>
      </trkpt>
      <trkpt lat="42.595970" lon="-6.323120">
        <ele>729.00</ele>
        <time>2020-08-20T19:58:10Z</time>
      </trkpt>
      <trkpt lat="42.596110" lon="-6.323210">
        <ele>729.00</ele>
        <time>2020-08-20T19:58:14Z</time>
      </trkpt>
      <trkpt lat="42.596180" lon="-6.323280">
        <ele>729.00</ele>
        <time>2020-08-20T19:58:16Z</time>
      </trkpt>
      <trkpt lat="42.596090" lon="-6.323520">
        <ele>729.00</ele>
        <time>2020-08-20T19:58:22Z</time>
      </trkpt>
      <trkpt lat="42.596020" lon="-6.323640">
        <ele>729.00</ele>
        <time>2020-08-20T19:58:25Z</time>
      </trkpt>
      <trkpt lat="42.595960" lon="-6.323710">
        <ele>729.00</ele>
        <time>2020-08-20T19:58:27Z</time>
      </trkpt>
      <trkpt lat="42.595950" lon="-6.323790">
        <ele>729.00</ele>
        <time>2020-08-20T19:58:28Z</time>
      </trkpt>
      <trkpt lat="42.595920" lon="-6.323920">
        <ele>729.00</ele>
        <time>2020-08-20T19:58:31Z</time>
      </trkpt>
      <trkpt lat="42.595780" lon="-6.324340">
        <ele>729.00</ele>
        <time>2020-08-20T19:58:40Z</time>
      </trkpt>
      <trkpt lat="42.595690" lon="-6.324720">
        <ele>728.00</ele>
        <time>2020-08-20T19:58:48Z</time>
      </trkpt>
      <trkpt lat="42.595530" lon="-6.325620">
        <ele>728.00</ele>
        <time>2020-08-20T19:59:06Z</time>
      </trkpt>
      <trkpt lat="42.595510" lon="-6.325770">
        <ele>728.00</ele>
        <time>2020-08-20T19:59:09Z</time>
      </trkpt>
      <trkpt lat="42.595510" lon="-6.325930">
        <ele>728.00</ele>
        <time>2020-08-20T19:59:12Z</time>
      </trkpt>
      <trkpt lat="42.595520" lon="-6.326100">
        <ele>728.00</ele>
        <time>2020-08-20T19:59:16Z</time>
      </trkpt>
      <trkpt lat="42.595560" lon="-6.326290">
        <ele>728.00</ele>
        <time>2020-08-20T19:59:19Z</time>
      </trkpt>
      <trkpt lat="42.595950" lon="-6.327630">
        <ele>728.00</ele>
        <time>2020-08-20T19:59:48Z</time>
      </trkpt>
      <trkpt lat="42.596080" lon="-6.328080">
        <ele>726.00</ele>
        <time>2020-08-20T19:59:57Z</time>
      </trkpt>
      <trkpt lat="42.596160" lon="-6.328310">
        <ele>726.00</ele>
        <time>2020-08-20T20:00:02Z</time>
      </trkpt>
      <trkpt lat="42.596310" lon="-6.328600">
        <ele>726.00</ele>
        <time>2020-08-20T20:00:09Z</time>
      </trkpt>
      <trkpt lat="42.596510" lon="-6.328920">
        <ele>726.00</ele>
        <time>2020-08-20T20:00:18Z</time>
      </trkpt>
      <trkpt lat="42.596650" lon="-6.329230">
        <ele>726.00</ele>
        <time>2020-08-20T20:00:25Z</time>
      </trkpt>
      <trkpt lat="42.596700" lon="-6.329410">
        <ele>726.00</ele>
        <time>2020-08-20T20:00:28Z</time>
      </trkpt>
      <trkpt lat="42.596720" lon="-6.329560">
        <ele>726.00</ele>
        <time>2020-08-20T20:00:31Z</time>
      </trkpt>
      <trkpt lat="42.596730" lon="-6.329700">
        <ele>726.00</ele>
        <time>2020-08-20T20:00:34Z</time>
      </trkpt>
      <trkpt lat="42.597040" lon="-6.329770">
        <ele>726.00</ele>
        <time>2020-08-20T20:00:43Z</time>
      </trkpt>
      <trkpt lat="42.597240" lon="-6.329890">
        <ele>726.00</ele>
        <time>2020-08-20T20:00:48Z</time>
      </trkpt>
      <trkpt lat="42.597360" lon="-6.329970">
        <ele>726.00</ele>
        <time>2020-08-20T20:00:52Z</time>
      </trkpt>
      <trkpt lat="42.597480" lon="-6.330030">
        <ele>726.00</ele>
        <time>2020-08-20T20:00:55Z</time>
      </trkpt>
      <trkpt lat="42.597580" lon="-6.330070">
        <ele>726.00</ele>
        <time>2020-08-20T20:00:58Z</time>
      </trkpt>
      <trkpt lat="42.597670" lon="-6.330080">
        <ele>726.00</ele>
        <time>2020-08-20T20:01:01Z</time>
      </trkpt>
      <trkpt lat="42.597910" lon="-6.330060">
        <ele>764.00</ele>
        <time>2020-08-20T20:01:07Z</time>
      </trkpt>
      <trkpt lat="42.598470" lon="-6.330170">
        <ele>764.00</ele>
        <time>2020-08-20T20:01:22Z</time>
      </trkpt>
      <trkpt lat="42.598850" lon="-6.330340">
        <ele>764.00</ele>
        <time>2020-08-20T20:01:33Z</time>
      </trkpt>
      <trkpt lat="42.599010" lon="-6.330410">
        <ele>790.00</ele>
        <time>2020-08-20T20:01:37Z</time>
      </trkpt>
      <trkpt lat="42.599100" lon="-6.330450">
        <ele>790.00</ele>
        <time>2020-08-20T20:01:40Z</time>
      </trkpt>
      <trkpt lat="42.599390" lon="-6.330500">
        <ele>790.00</ele>
        <time>2020-08-20T20:01:48Z</time>
      </trkpt>
      <trkpt lat="42.599650" lon="-6.330500">
        <ele>790.00</ele>
        <time>2020-08-20T20:01:55Z</time>
      </trkpt>
      <trkpt lat="42.599720" lon="-6.330520">
        <ele>790.00</ele>
        <time>2020-08-20T20:01:57Z</time>
      </trkpt>
      <trkpt lat="42.599780" lon="-6.330560">
        <ele>790.00</ele>
        <time>2020-08-20T20:01:58Z</time>
      </trkpt>
      <trkpt lat="42.599970" lon="-6.330580">
        <ele>790.00</ele>
        <time>2020-08-20T20:02:03Z</time>
      </trkpt>
      <trkpt lat="42.600020" lon="-6.330610">
        <ele>790.00</ele>
        <time>2020-08-20T20:02:05Z</time>
      </trkpt>
      <trkpt lat="42.600080" lon="-6.330670">
        <ele>790.00</ele>
        <time>2020-08-20T20:02:07Z</time>
      </trkpt>
      <trkpt lat="42.600110" lon="-6.330720">
        <ele>790.00</ele>
        <time>2020-08-20T20:02:08Z</time>
      </trkpt>
      <trkpt lat="42.600150" lon="-6.330800">
        <ele>790.00</ele>
        <time>2020-08-20T20:02:10Z</time>
      </trkpt>
      <trkpt lat="42.600220" lon="-6.330860">
        <ele>790.00</ele>
        <time>2020-08-20T20:02:12Z</time>
      </trkpt>
      <trkpt lat="42.600310" lon="-6.330930">
        <ele>818.00</ele>
        <time>2020-08-20T20:02:15Z</time>
      </trkpt>
      <trkpt lat="42.600380" lon="-6.330990">
        <ele>818.00</ele>
        <time>2020-08-20T20:02:17Z</time>
      </trkpt>
      <trkpt lat="42.600420" lon="-6.331050">
        <ele>818.00</ele>
        <time>2020-08-20T20:02:19Z</time>
      </trkpt>
      <trkpt lat="42.600440" lon="-6.331140">
        <ele>818.00</ele>
        <time>2020-08-20T20:02:21Z</time>
      </trkpt>
      <trkpt lat="42.600420" lon="-6.331220">
        <ele>818.00</ele>
        <time>2020-08-20T20:02:22Z</time>
      </trkpt>
      <trkpt lat="42.600390" lon="-6.331290">
        <ele>818.00</ele>
        <time>2020-08-20T20:02:24Z</time>
      </trkpt>
      <trkpt lat="42.600330" lon="-6.331360">
        <ele>818.00</ele>
        <time>2020-08-20T20:02:26Z</time>
      </trkpt>
      <trkpt lat="42.600190" lon="-6.331470">
        <ele>818.00</ele>
        <time>2020-08-20T20:02:30Z</time>
      </trkpt>
      <trkpt lat="42.599970" lon="-6.331510">
        <ele>818.00</ele>
        <time>2020-08-20T20:02:36Z</time>
      </trkpt>
      <trkpt lat="42.599440" lon="-6.331650">
        <ele>818.00</ele>
        <time>2020-08-20T20:02:51Z</time>
      </trkpt>
      <trkpt lat="42.598880" lon="-6.332250">
        <ele>818.00</ele>
        <time>2020-08-20T20:03:10Z</time>
      </trkpt>
      <trkpt lat="42.598510" lon="-6.332410">
        <ele>818.00</ele>
        <time>2020-08-20T20:03:20Z</time>
      </trkpt>
      <trkpt lat="42.598320" lon="-6.332770">
        <ele>850.00</ele>
        <time>2020-08-20T20:03:29Z</time>
      </trkpt>
      <trkpt lat="42.597900" lon="-6.333480">
        <ele>850.00</ele>
        <time>2020-08-20T20:03:47Z</time>
      </trkpt>
      <trkpt lat="42.597890" lon="-6.333710">
        <ele>850.00</ele>
        <time>2020-08-20T20:03:51Z</time>
      </trkpt>
      <trkpt lat="42.597960" lon="-6.333830">
        <ele>850.00</ele>
        <time>2020-08-20T20:03:54Z</time>
      </trkpt>
      <trkpt lat="42.598260" lon="-6.333770">
        <ele>850.00</ele>
        <time>2020-08-20T20:04:02Z</time>
      </trkpt>
      <trkpt lat="42.598520" lon="-6.333580">
        <ele>850.00</ele>
        <time>2020-08-20T20:04:10Z</time>
      </trkpt>
      <trkpt lat="42.598730" lon="-6.333690">
        <ele>850.00</ele>
        <time>2020-08-20T20:04:16Z</time>
      </trkpt>
      <trkpt lat="42.599170" lon="-6.333610">
        <ele>850.00</ele>
        <time>2020-08-20T20:04:28Z</time>
      </trkpt>
      <trkpt lat="42.599700" lon="-6.333980">
        <ele>875.00</ele>
        <time>2020-08-20T20:04:44Z</time>
      </trkpt>
      <trkpt lat="42.600570" lon="-6.335010">
        <ele>875.00</ele>
        <time>2020-08-20T20:05:15Z</time>
      </trkpt>
      <trkpt lat="42.600660" lon="-6.335620">
        <ele>875.00</ele>
        <time>2020-08-20T20:05:27Z</time>
      </trkpt>
      <trkpt lat="42.600990" lon="-6.336220">
        <ele>915.00</ele>
        <time>2020-08-20T20:05:42Z</time>
      </trkpt>
      <trkpt lat="42.601280" lon="-6.336470">
        <ele>915.00</ele>
        <time>2020-08-20T20:05:51Z</time>
      </trkpt>
      <trkpt lat="42.601630" lon="-6.336630">
        <ele>915.00</ele>
        <time>2020-08-20T20:06:01Z</time>
      </trkpt>
      <trkpt lat="42.601840" lon="-6.336880">
        <ele>915.00</ele>
        <time>2020-08-20T20:06:08Z</time>
      </trkpt>
      <trkpt lat="42.601860" lon="-6.337350">
        <ele>915.00</ele>
        <time>2020-08-20T20:06:18Z</time>
      </trkpt>
      <trkpt lat="42.602000" lon="-6.337820">
        <ele>915.00</ele>
        <time>2020-08-20T20:06:28Z</time>
      </trkpt>
      <trkpt lat="42.601840" lon="-6.338110">
        <ele>915.00</ele>
        <time>2020-08-20T20:06:35Z</time>
      </trkpt>
      <trkpt lat="42.601790" lon="-6.338230">
        <ele>915.00</ele>
        <time>2020-08-20T20:06:38Z</time>
      </trkpt>
      <trkpt lat="42.601990" lon="-6.338730">
        <ele>915.00</ele>
        <time>2020-08-20T20:06:49Z</time>
      </trkpt>
      <trkpt lat="42.602280" lon="-6.339100">
        <ele>940.00</ele>
        <time>2020-08-20T20:06:59Z</time>
      </trkpt>
      <trkpt lat="42.602270" lon="-6.339380">
        <ele>940.00</ele>
        <time>2020-08-20T20:07:05Z</time>
      </trkpt>
      <trkpt lat="42.602670" lon="-6.339810">
        <ele>940.00</ele>
        <time>2020-08-20T20:07:18Z</time>
      </trkpt>
      <trkpt lat="42.602770" lon="-6.340100">
        <ele>940.00</ele>
        <time>2020-08-20T20:07:25Z</time>
      </trkpt>
      <trkpt lat="42.602740" lon="-6.340440">
        <ele>940.00</ele>
        <time>2020-08-20T20:07:32Z</time>
      </trkpt>
      <trkpt lat="42.602740" lon="-6.340780">
        <ele>940.00</ele>
        <time>2020-08-20T20:07:38Z</time>
      </trkpt>
      <trkpt lat="42.602880" lon="-6.341120">
        <ele>940.00</ele>
        <time>2020-08-20T20:07:46Z</time>
      </trkpt>
      <trkpt lat="42.603030" lon="-6.341260">
        <ele>940.00</ele>
        <time>2020-08-20T20:07:51Z</time>
      </trkpt>
      <trkpt lat="42.603290" lon="-6.341260">
        <ele>940.00</ele>
        <time>2020-08-20T20:07:58Z</time>
      </trkpt>
      <trkpt lat="42.603580" lon="-6.343580">
        <ele>928.00</ele>
        <time>2020-08-20T20:08:44Z</time>
      </trkpt>
      <trkpt lat="42.603290" lon="-6.344540">
        <ele>928.00</ele>
        <time>2020-08-20T20:09:04Z</time>
      </trkpt>
      <trkpt lat="42.602470" lon="-6.346010">
        <ele>898.00</ele>
        <time>2020-08-20T20:09:41Z</time>
      </trkpt>
      <trkpt lat="42.601590" lon="-6.348660">
        <ele>860.00</ele>
        <time>2020-08-20T20:10:38Z</time>
      </trkpt>
      <trkpt lat="42.601730" lon="-6.349450">
        <ele>860.00</ele>
        <time>2020-08-20T20:10:54Z</time>
      </trkpt>
      <trkpt lat="42.601850" lon="-6.349870">
        <ele>860.00</ele>
        <time>2020-08-20T20:11:03Z</time>
      </trkpt>
      <trkpt lat="42.602090" lon="-6.351250">
        <ele>823.00</ele>
        <time>2020-08-20T20:11:31Z</time>
      </trkpt>
      <trkpt lat="42.602200" lon="-6.351830">
        <ele>823.00</ele>
        <time>2020-08-20T20:11:42Z</time>
      </trkpt>
      <trkpt lat="42.602210" lon="-6.352560">
        <ele>823.00</ele>
        <time>2020-08-20T20:11:57Z</time>
      </trkpt>
      <trkpt lat="42.602430" lon="-6.353070">
        <ele>823.00</ele>
        <time>2020-08-20T20:12:08Z</time>
      </trkpt>
      <trkpt lat="42.602480" lon="-6.353380">
        <ele>823.00</ele>
        <time>2020-08-20T20:12:15Z</time>
      </trkpt>
      <trkpt lat="42.602480" lon="-6.353900">
        <ele>823.00</ele>
        <time>2020-08-20T20:12:25Z</time>
      </trkpt>
      <trkpt lat="42.602320" lon="-6.354080">
        <ele>823.00</ele>
        <time>2020-08-20T20:12:30Z</time>
      </trkpt>
      <trkpt lat="42.602280" lon="-6.354340">
        <ele>810.00</ele>
        <time>2020-08-20T20:12:36Z</time>
      </trkpt>
      <trkpt lat="42.602310" lon="-6.354570">
        <ele>810.00</ele>
        <time>2020-08-20T20:12:40Z</time>
      </trkpt>
      <trkpt lat="42.602490" lon="-6.354780">
        <ele>810.00</ele>
        <time>2020-08-20T20:12:46Z</time>
      </trkpt>
      <trkpt lat="42.603320" lon="-6.355280">
        <ele>810.00</ele>
        <time>2020-08-20T20:13:11Z</time>
      </trkpt>
      <trkpt lat="42.603420" lon="-6.355480">
        <ele>810.00</ele>
        <time>2020-08-20T20:13:15Z</time>
      </trkpt>
      <trkpt lat="42.603480" lon="-6.355740">
        <ele>810.00</ele>
        <time>2020-08-20T20:13:21Z</time>
      </trkpt>
      <trkpt lat="42.603600" lon="-6.356780">
        <ele>810.00</ele>
        <time>2020-08-20T20:13:42Z</time>
      </trkpt>
      <trkpt lat="42.604270" lon="-6.358450">
        <ele>785.00</ele>
        <time>2020-08-20T20:14:19Z</time>
      </trkpt>
      <trkpt lat="42.604250" lon="-6.359390">
        <ele>785.00</ele>
        <time>2020-08-20T20:14:37Z</time>
      </trkpt>
      <trkpt lat="42.604410" lon="-6.360470">
        <ele>755.00</ele>
        <time>2020-08-20T20:14:59Z</time>
      </trkpt>
      <trkpt lat="42.604330" lon="-6.361520">
        <ele>755.00</ele>
        <time>2020-08-20T20:15:20Z</time>
      </trkpt>
      <trkpt lat="42.604240" lon="-6.361840">
        <ele>755.00</ele>
        <time>2020-08-20T20:15:27Z</time>
      </trkpt>
      <trkpt lat="42.604280" lon="-6.362140">
        <ele>755.00</ele>
        <time>2020-08-20T20:15:33Z</time>
      </trkpt>
      <trkpt lat="42.604280" lon="-6.362530">
        <ele>755.00</ele>
        <time>2020-08-20T20:15:40Z</time>
      </trkpt>
      <trkpt lat="42.603980" lon="-6.363770">
        <ele>735.00</ele>
        <time>2020-08-20T20:16:06Z</time>
      </trkpt>
      <trkpt lat="42.603840" lon="-6.364880">
        <ele>735.00</ele>
        <time>2020-08-20T20:16:28Z</time>
      </trkpt>
      <trkpt lat="42.604600" lon="-6.365740">
        <ele>735.00</ele>
        <time>2020-08-20T20:16:55Z</time>
      </trkpt>
      <trkpt lat="42.604590" lon="-6.365970">
        <ele>735.00</ele>
        <time>2020-08-20T20:16:59Z</time>
      </trkpt>
      <trkpt lat="42.604550" lon="-6.366140">
        <ele>735.00</ele>
        <time>2020-08-20T20:17:03Z</time>
      </trkpt>
      <trkpt lat="42.604250" lon="-6.366530">
        <ele>725.00</ele>
        <time>2020-08-20T20:17:14Z</time>
      </trkpt>
      <trkpt lat="42.604190" lon="-6.366650">
        <ele>725.00</ele>
        <time>2020-08-20T20:17:16Z</time>
      </trkpt>
      <trkpt lat="42.604200" lon="-6.366890">
        <ele>725.00</ele>
        <time>2020-08-20T20:17:21Z</time>
      </trkpt>
      <trkpt lat="42.604160" lon="-6.367280">
        <ele>725.00</ele>
        <time>2020-08-20T20:17:29Z</time>
      </trkpt>
      <trkpt lat="42.604080" lon="-6.367770">
        <ele>725.00</ele>
        <time>2020-08-20T20:17:39Z</time>
      </trkpt>
      <trkpt lat="42.603930" lon="-6.368210">
        <ele>725.00</ele>
        <time>2020-08-20T20:17:48Z</time>
      </trkpt>
      <trkpt lat="42.603670" lon="-6.368530">
        <ele>725.00</ele>
        <time>2020-08-20T20:17:58Z</time>
      </trkpt>
      <trkpt lat="42.603480" lon="-6.368900">
        <ele>725.00</ele>
        <time>2020-08-20T20:18:07Z</time>
      </trkpt>
      <trkpt lat="42.603460" lon="-6.369030">
        <ele>725.00</ele>
        <time>2020-08-20T20:18:09Z</time>
      </trkpt>
      <trkpt lat="42.603500" lon="-6.369170">
        <ele>725.00</ele>
        <time>2020-08-20T20:18:12Z</time>
      </trkpt>
      <trkpt lat="42.603620" lon="-6.369300">
        <ele>725.00</ele>
        <time>2020-08-20T20:18:16Z</time>
      </trkpt>
      <trkpt lat="42.603460" lon="-6.369870">
        <ele>714.00</ele>
        <time>2020-08-20T20:18:28Z</time>
      </trkpt>
      <trkpt lat="42.603150" lon="-6.371160">
        <ele>714.00</ele>
        <time>2020-08-20T20:18:55Z</time>
      </trkpt>
      <trkpt lat="42.603070" lon="-6.371620">
        <ele>714.00</ele>
        <time>2020-08-20T20:19:04Z</time>
      </trkpt>
      <trkpt lat="42.602970" lon="-6.372170">
        <ele>714.00</ele>
        <time>2020-08-20T20:19:15Z</time>
      </trkpt>
      <trkpt lat="42.602760" lon="-6.373340">
        <ele>698.00</ele>
        <time>2020-08-20T20:19:39Z</time>
      </trkpt>
      <trkpt lat="42.602660" lon="-6.374030">
        <ele>698.00</ele>
        <time>2020-08-20T20:19:53Z</time>
      </trkpt>
      <trkpt lat="42.602640" lon="-6.374270">
        <ele>698.00</ele>
        <time>2020-08-20T20:19:58Z</time>
      </trkpt>
      <trkpt lat="42.602600" lon="-6.374460">
        <ele>698.00</ele>
        <time>2020-08-20T20:20:02Z</time>
      </trkpt>
      <trkpt lat="42.602590" lon="-6.374770">
        <ele>698.00</ele>
        <time>2020-08-20T20:20:08Z</time>
      </trkpt>
      <trkpt lat="42.602580" lon="-6.376200">
        <ele>698.00</ele>
        <time>2020-08-20T20:20:36Z</time>
      </trkpt>
      <trkpt lat="42.602550" lon="-6.376840">
        <ele>689.00</ele>
        <time>2020-08-20T20:20:48Z</time>
      </trkpt>
      <trkpt lat="42.602560" lon="-6.377690">
        <ele>689.00</ele>
        <time>2020-08-20T20:21:05Z</time>
      </trkpt>
      <trkpt lat="42.602570" lon="-6.378230">
        <ele>689.00</ele>
        <time>2020-08-20T20:21:16Z</time>
      </trkpt>
      <trkpt lat="42.602560" lon="-6.378810">
        <ele>689.00</ele>
        <time>2020-08-20T20:21:27Z</time>
      </trkpt>
      <trkpt lat="42.602610" lon="-6.379230">
        <ele>689.00</ele>
        <time>2020-08-20T20:21:36Z</time>
      </trkpt>
      <trkpt lat="42.602620" lon="-6.379940">
        <ele>682.00</ele>
        <time>2020-08-20T20:21:49Z</time>
      </trkpt>
      <trkpt lat="42.602630" lon="-6.380480">
        <ele>682.00</ele>
        <time>2020-08-20T20:22:00Z</time>
      </trkpt>
      <trkpt lat="42.602590" lon="-6.380800">
        <ele>682.00</ele>
        <time>2020-08-20T20:22:06Z</time>
      </trkpt>
      <trkpt lat="42.602440" lon="-6.381210">
        <ele>682.00</ele>
        <time>2020-08-20T20:22:15Z</time>
      </trkpt>
      <trkpt lat="42.602240" lon="-6.381800">
        <ele>682.00</ele>
        <time>2020-08-20T20:22:28Z</time>
      </trkpt>
      <trkpt lat="42.602190" lon="-6.382150">
        <ele>682.00</ele>
        <time>2020-08-20T20:22:35Z</time>
      </trkpt>
      <trkpt lat="42.602170" lon="-6.382540">
        <ele>682.00</ele>
        <time>2020-08-20T20:22:43Z</time>
      </trkpt>
      <trkpt lat="42.602190" lon="-6.382870">
        <ele>682.00</ele>
        <time>2020-08-20T20:22:49Z</time>
      </trkpt>
      <trkpt lat="42.602240" lon="-6.383160">
        <ele>682.00</ele>
        <time>2020-08-20T20:22:55Z</time>
      </trkpt>
      <trkpt lat="42.602400" lon="-6.383570">
        <ele>672.00</ele>
        <time>2020-08-20T20:23:04Z</time>
      </trkpt>
      <trkpt lat="42.602760" lon="-6.384260">
        <ele>672.00</ele>
        <time>2020-08-20T20:23:21Z</time>
      </trkpt>
      <trkpt lat="42.602980" lon="-6.384770">
        <ele>672.00</ele>
        <time>2020-08-20T20:23:33Z</time>
      </trkpt>
      <trkpt lat="42.603130" lon="-6.385290">
        <ele>672.00</ele>
        <time>2020-08-20T20:23:44Z</time>
      </trkpt>
      <trkpt lat="42.603250" lon="-6.385860">
        <ele>672.00</ele>
        <time>2020-08-20T20:23:55Z</time>
      </trkpt>
      <trkpt lat="42.603470" lon="-6.386750">
        <ele>670.00</ele>
        <time>2020-08-20T20:24:14Z</time>
      </trkpt>
      <trkpt lat="42.603450" lon="-6.387200">
        <ele>670.00</ele>
        <time>2020-08-20T20:24:23Z</time>
      </trkpt>
      <trkpt lat="42.603360" lon="-6.387610">
        <ele>670.00</ele>
        <time>2020-08-20T20:24:31Z</time>
      </trkpt>
      <trkpt lat="42.603270" lon="-6.388520">
        <ele>670.00</ele>
        <time>2020-08-20T20:24:49Z</time>
      </trkpt>
      <trkpt lat="42.603170" lon="-6.389200">
        <ele>670.00</ele>
        <time>2020-08-20T20:25:03Z</time>
      </trkpt>
      <trkpt lat="42.602920" lon="-6.390210">
        <ele>664.00</ele>
        <time>2020-08-20T20:25:24Z</time>
      </trkpt>
      <trkpt lat="42.602790" lon="-6.391060">
        <ele>664.00</ele>
        <time>2020-08-20T20:25:41Z</time>
      </trkpt>
      <trkpt lat="42.603270" lon="-6.391600">
        <ele>664.00</ele>
        <time>2020-08-20T20:25:57Z</time>
      </trkpt>
      <trkpt lat="42.603480" lon="-6.391860">
        <ele>664.00</ele>
        <time>2020-08-20T20:26:05Z</time>
      </trkpt>
      <trkpt lat="42.603580" lon="-6.391840">
        <ele>664.00</ele>
        <time>2020-08-20T20:26:08Z</time>
      </trkpt>
      <trkpt lat="42.604210" lon="-6.392520">
        <ele>664.00</ele>
        <time>2020-08-20T20:26:29Z</time>
      </trkpt>
      <trkpt lat="42.604350" lon="-6.392650">
        <ele>664.00</ele>
        <time>2020-08-20T20:26:34Z</time>
      </trkpt>
      <trkpt lat="42.604800" lon="-6.393140">
        <ele>664.00</ele>
        <time>2020-08-20T20:26:49Z</time>
      </trkpt>
      <trkpt lat="42.604980" lon="-6.393490">
        <ele>664.00</ele>
        <time>2020-08-20T20:26:58Z</time>
      </trkpt>
      <trkpt lat="42.604760" lon="-6.393800">
        <ele>664.00</ele>
        <time>2020-08-20T20:27:06Z</time>
      </trkpt>
      <trkpt lat="42.604710" lon="-6.393880">
        <ele>664.00</ele>
        <time>2020-08-20T20:27:08Z</time>
      </trkpt>
      <trkpt lat="42.604570" lon="-6.394110">
        <ele>664.00</ele>
        <time>2020-08-20T20:27:14Z</time>
      </trkpt>
      <trkpt lat="42.604500" lon="-6.394320">
        <ele>664.00</ele>
        <time>2020-08-20T20:27:19Z</time>
      </trkpt>
      <trkpt lat="42.604410" lon="-6.394610">
        <ele>662.00</ele>
        <time>2020-08-20T20:27:25Z</time>
      </trkpt>
      <trkpt lat="42.604330" lon="-6.394830">
        <ele>662.00</ele>
        <time>2020-08-20T20:27:30Z</time>
      </trkpt>
      <trkpt lat="42.604320" lon="-6.394930">
        <ele>662.00</ele>
        <time>2020-08-20T20:27:32Z</time>
      </trkpt>
      <trkpt lat="42.604340" lon="-6.395100">
        <ele>662.00</ele>
        <time>2020-08-20T20:27:35Z</time>
      </trkpt>
      <trkpt lat="42.604370" lon="-6.395320">
        <ele>662.00</ele>
        <time>2020-08-20T20:27:39Z</time>
      </trkpt>
      <trkpt lat="42.604410" lon="-6.395610">
        <ele>662.00</ele>
        <time>2020-08-20T20:27:45Z</time>
      </trkpt>
      <trkpt lat="42.604440" lon="-6.395890">
        <ele>662.00</ele>
        <time>2020-08-20T20:27:51Z</time>
      </trkpt>
      <trkpt lat="42.604480" lon="-6.396250">
        <ele>662.00</ele>
        <time>2020-08-20T20:27:58Z</time>
      </trkpt>
      <trkpt lat="42.604500" lon="-6.396320">
        <ele>662.00</ele>
        <time>2020-08-20T20:27:59Z</time>
      </trkpt>
      <trkpt lat="42.604520" lon="-6.396400">
        <ele>662.00</ele>
        <time>2020-08-20T20:28:01Z</time>
      </trkpt>
      <trkpt lat="42.604500" lon="-6.396490">
        <ele>662.00</ele>
        <time>2020-08-20T20:28:03Z</time>
      </trkpt>
      <trkpt lat="42.604500" lon="-6.396550">
        <ele>662.00</ele>
        <time>2020-08-20T20:28:04Z</time>
      </trkpt>
      <trkpt lat="42.604470" lon="-6.396730">
        <ele>662.00</ele>
        <time>2020-08-20T20:28:08Z</time>
      </trkpt>
      <trkpt lat="42.604470" lon="-6.396840">
        <ele>662.00</ele>
        <time>2020-08-20T20:28:10Z</time>
      </trkpt>
      <trkpt lat="42.604470" lon="-6.397120">
        <ele>662.00</ele>
        <time>2020-08-20T20:28:15Z</time>
      </trkpt>
      <trkpt lat="42.604480" lon="-6.397430">
        <ele>662.00</ele>
        <time>2020-08-20T20:28:21Z</time>
      </trkpt>
      <trkpt lat="42.604480" lon="-6.397610">
        <ele>662.00</ele>
        <time>2020-08-20T20:28:25Z</time>
      </trkpt>
      <trkpt lat="42.604500" lon="-6.397770">
        <ele>662.00</ele>
        <time>2020-08-20T20:28:28Z</time>
      </trkpt>
      <trkpt lat="42.604540" lon="-6.397980">
        <ele>662.00</ele>
        <time>2020-08-20T20:28:32Z</time>
      </trkpt>
      <trkpt lat="42.604570" lon="-6.398210">
        <ele>659.00</ele>
        <time>2020-08-20T20:28:37Z</time>
      </trkpt>
      <trkpt lat="42.604620" lon="-6.398450">
        <ele>659.00</ele>
        <time>2020-08-20T20:28:42Z</time>
      </trkpt>
      <trkpt lat="42.604670" lon="-6.398670">
        <ele>659.00</ele>
        <time>2020-08-20T20:28:46Z</time>
      </trkpt>
      <trkpt lat="42.604710" lon="-6.398820">
        <ele>659.00</ele>
        <time>2020-08-20T20:28:50Z</time>
      </trkpt>
      <trkpt lat="42.604780" lon="-6.399030">
        <ele>659.00</ele>
        <time>2020-08-20T20:28:54Z</time>
      </trkpt>
      <trkpt lat="42.604930" lon="-6.399300">
        <ele>659.00</ele>
        <time>2020-08-20T20:29:01Z</time>
      </trkpt>
      <trkpt lat="42.605120" lon="-6.399620">
        <ele>659.00</ele>
        <time>2020-08-20T20:29:09Z</time>
      </trkpt>
      <trkpt lat="42.605440" lon="-6.400180">
        <ele>659.00</ele>
        <time>2020-08-20T20:29:23Z</time>
      </trkpt>
      <trkpt lat="42.605760" lon="-6.400830">
        <ele>659.00</ele>
        <time>2020-08-20T20:29:38Z</time>
      </trkpt>
      <trkpt lat="42.606350" lon="-6.402620">
        <ele>657.00</ele>
        <time>2020-08-20T20:30:17Z</time>
      </trkpt>
      <trkpt lat="42.606450" lon="-6.402820">
        <ele>657.00</ele>
        <time>2020-08-20T20:30:21Z</time>
      </trkpt>
      <trkpt lat="42.606590" lon="-6.402950">
        <ele>657.00</ele>
        <time>2020-08-20T20:30:26Z</time>
      </trkpt>
      <trkpt lat="42.606770" lon="-6.403210">
        <ele>657.00</ele>
        <time>2020-08-20T20:30:33Z</time>
      </trkpt>
      <trkpt lat="42.607010" lon="-6.403660">
        <ele>657.00</ele>
        <time>2020-08-20T20:30:44Z</time>
      </trkpt>
      <trkpt lat="42.607270" lon="-6.404050">
        <ele>657.00</ele>
        <time>2020-08-20T20:30:54Z</time>
      </trkpt>
      <trkpt lat="42.607420" lon="-6.404230">
        <ele>655.00</ele>
        <time>2020-08-20T20:31:00Z</time>
      </trkpt>
      <trkpt lat="42.607520" lon="-6.404320">
        <ele>655.00</ele>
        <time>2020-08-20T20:31:03Z</time>
      </trkpt>
      <trkpt lat="42.607640" lon="-6.404380">
        <ele>655.00</ele>
        <time>2020-08-20T20:31:06Z</time>
      </trkpt>
      <trkpt lat="42.607740" lon="-6.404390">
        <ele>655.00</ele>
        <time>2020-08-20T20:31:09Z</time>
      </trkpt>
      <trkpt lat="42.608210" lon="-6.404380">
        <ele>655.00</ele>
        <time>2020-08-20T20:31:22Z</time>
      </trkpt>
      <trkpt lat="42.608580" lon="-6.404450">
        <ele>655.00</ele>
        <time>2020-08-20T20:31:31Z</time>
      </trkpt>
      <trkpt lat="42.608730" lon="-6.404510">
        <ele>655.00</ele>
        <time>2020-08-20T20:31:36Z</time>
      </trkpt>
      <trkpt lat="42.608970" lon="-6.404580">
        <ele>655.00</ele>
        <time>2020-08-20T20:31:42Z</time>
      </trkpt>
      <trkpt lat="42.609240" lon="-6.404630">
        <ele>655.00</ele>
        <time>2020-08-20T20:31:50Z</time>
      </trkpt>
      <trkpt lat="42.609460" lon="-6.404680">
        <ele>655.00</ele>
        <time>2020-08-20T20:31:55Z</time>
      </trkpt>
      <trkpt lat="42.609560" lon="-6.404680">
        <ele>655.00</ele>
        <time>2020-08-20T20:31:58Z</time>
      </trkpt>
      <trkpt lat="42.609750" lon="-6.404690">
        <ele>664.00</ele>
        <time>2020-08-20T20:32:03Z</time>
      </trkpt>
      <trkpt lat="42.609890" lon="-6.404730">
        <ele>664.00</ele>
        <time>2020-08-20T20:32:07Z</time>
      </trkpt>
      <trkpt lat="42.610690" lon="-6.405180">
        <ele>664.00</ele>
        <time>2020-08-20T20:32:30Z</time>
      </trkpt>
      <trkpt lat="42.610970" lon="-6.405300">
        <ele>664.00</ele>
        <time>2020-08-20T20:32:38Z</time>
      </trkpt>
      <trkpt lat="42.611090" lon="-6.405330">
        <ele>664.00</ele>
        <time>2020-08-20T20:32:41Z</time>
      </trkpt>
      <trkpt lat="42.611030" lon="-6.405220">
        <ele>664.00</ele>
        <time>2020-08-20T20:32:44Z</time>
      </trkpt>
      <trkpt lat="42.610660" lon="-6.404600">
        <ele>664.00</ele>
        <time>2020-08-20T20:33:00Z</time>
      </trkpt>
      <trkpt lat="42.610440" lon="-6.404210">
        <ele>664.00</ele>
        <time>2020-08-20T20:33:09Z</time>
      </trkpt>
      <trkpt lat="42.610500" lon="-6.404170">
        <ele>664.00</ele>
        <time>2020-08-20T20:33:11Z</time>
      </trkpt>
      <trkpt lat="42.610580" lon="-6.404210">
        <ele>664.00</ele>
        <time>2020-08-20T20:33:13Z</time>
      </trkpt>
      <trkpt lat="42.610750" lon="-6.404380">
        <ele>663.00</ele>
        <time>2020-08-20T20:33:19Z</time>
      </trkpt>
      <trkpt lat="42.610900" lon="-6.404480">
        <ele>663.00</ele>
        <time>2020-08-20T20:33:24Z</time>
      </trkpt>
      <trkpt lat="42.611010" lon="-6.404520">
        <ele>663.00</ele>
        <time>2020-08-20T20:33:27Z</time>
      </trkpt>
      <trkpt lat="42.611070" lon="-6.404520">
        <ele>663.00</ele>
        <time>2020-08-20T20:33:28Z</time>
      </trkpt>
      <trkpt lat="42.611140" lon="-6.404610">
        <ele>663.00</ele>
        <time>2020-08-20T20:33:31Z</time>
      </trkpt>
      <trkpt lat="42.611520" lon="-6.404910">
        <ele>663.00</ele>
        <time>2020-08-20T20:33:42Z</time>
      </trkpt>
      <trkpt lat="42.611650" lon="-6.405030">
        <ele>663.00</ele>
        <time>2020-08-20T20:33:47Z</time>
      </trkpt>
      <trkpt lat="42.611790" lon="-6.405400">
        <ele>663.00</ele>
        <time>2020-08-20T20:33:55Z</time>
      </trkpt>
      <trkpt lat="42.612080" lon="-6.406080">
        <ele>663.00</ele>
        <time>2020-08-20T20:34:10Z</time>
      </trkpt>
      <trkpt lat="42.612180" lon="-6.406390">
        <ele>663.00</ele>
        <time>2020-08-20T20:34:17Z</time>
      </trkpt>
      <trkpt lat="42.612430" lon="-6.406890">
        <ele>658.00</ele>
        <time>2020-08-20T20:34:29Z</time>
      </trkpt>
      <trkpt lat="42.612740" lon="-6.407480">
        <ele>658.00</ele>
        <time>2020-08-20T20:34:43Z</time>
      </trkpt>
      <trkpt lat="42.613210" lon="-6.408160">
        <ele>658.00</ele>
        <time>2020-08-20T20:35:01Z</time>
      </trkpt>
      <trkpt lat="42.613360" lon="-6.408370">
        <ele>658.00</ele>
        <time>2020-08-20T20:35:07Z</time>
      </trkpt>
      <trkpt lat="42.613560" lon="-6.408700">
        <ele>658.00</ele>
        <time>2020-08-20T20:35:16Z</time>
      </trkpt>
      <trkpt lat="42.613820" lon="-6.409260">
        <ele>658.00</ele>
        <time>2020-08-20T20:35:29Z</time>
      </trkpt>
      <trkpt lat="42.613980" lon="-6.409630">
        <ele>661.00</ele>
        <time>2020-08-20T20:35:37Z</time>
      </trkpt>
      <trkpt lat="42.614160" lon="-6.410020">
        <ele>661.00</ele>
        <time>2020-08-20T20:35:46Z</time>
      </trkpt>
      <trkpt lat="42.614260" lon="-6.410380">
        <ele>661.00</ele>
        <time>2020-08-20T20:35:54Z</time>
      </trkpt>
      <trkpt lat="42.614340" lon="-6.410790">
        <ele>661.00</ele>
        <time>2020-08-20T20:36:02Z</time>
      </trkpt>
      <trkpt lat="42.614430" lon="-6.411150">
        <ele>661.00</ele>
        <time>2020-08-20T20:36:09Z</time>
      </trkpt>
      <trkpt lat="42.614450" lon="-6.411250">
        <ele>661.00</ele>
        <time>2020-08-20T20:36:12Z</time>
      </trkpt>
      <trkpt lat="42.614470" lon="-6.411350">
        <ele>661.00</ele>
        <time>2020-08-20T20:36:14Z</time>
      </trkpt>
      <trkpt lat="42.614500" lon="-6.411510">
        <ele>661.00</ele>
        <time>2020-08-20T20:36:17Z</time>
      </trkpt>
      <trkpt lat="42.614550" lon="-6.411620">
        <ele>661.00</ele>
        <time>2020-08-20T20:36:19Z</time>
      </trkpt>
      <trkpt lat="42.614580" lon="-6.411640">
        <ele>661.00</ele>
        <time>2020-08-20T20:36:20Z</time>
      </trkpt>
      <trkpt lat="42.614590" lon="-6.411690">
        <ele>661.00</ele>
        <time>2020-08-20T20:36:21Z</time>
      </trkpt>
      <trkpt lat="42.614570" lon="-6.411740">
        <ele>661.00</ele>
        <time>2020-08-20T20:36:22Z</time>
      </trkpt>
      <trkpt lat="42.614540" lon="-6.411760">
        <ele>661.00</ele>
        <time>2020-08-20T20:36:23Z</time>
      </trkpt>
      <trkpt lat="42.614500" lon="-6.411810">
        <ele>661.00</ele>
        <time>2020-08-20T20:36:25Z</time>
      </trkpt>
      <trkpt lat="42.614470" lon="-6.411870">
        <ele>661.00</ele>
        <time>2020-08-20T20:36:26Z</time>
      </trkpt>
      <trkpt lat="42.614460" lon="-6.411960">
        <ele>661.00</ele>
        <time>2020-08-20T20:36:28Z</time>
      </trkpt>
      <trkpt lat="42.614460" lon="-6.412190">
        <ele>661.00</ele>
        <time>2020-08-20T20:36:33Z</time>
      </trkpt>
      <trkpt lat="42.614450" lon="-6.412330">
        <ele>661.00</ele>
        <time>2020-08-20T20:36:35Z</time>
      </trkpt>
      <trkpt lat="42.614420" lon="-6.412400">
        <ele>661.00</ele>
        <time>2020-08-20T20:36:37Z</time>
      </trkpt>
      <trkpt lat="42.614410" lon="-6.412480">
        <ele>661.00</ele>
        <time>2020-08-20T20:36:38Z</time>
      </trkpt>
      <trkpt lat="42.614440" lon="-6.412580">
        <ele>661.00</ele>
        <time>2020-08-20T20:36:41Z</time>
      </trkpt>
      <trkpt lat="42.614470" lon="-6.412690">
        <ele>652.00</ele>
        <time>2020-08-20T20:36:43Z</time>
      </trkpt>
      <trkpt lat="42.614490" lon="-6.412790">
        <ele>652.00</ele>
        <time>2020-08-20T20:36:45Z</time>
      </trkpt>
      <trkpt lat="42.614530" lon="-6.412950">
        <ele>652.00</ele>
        <time>2020-08-20T20:36:48Z</time>
      </trkpt>
      <trkpt lat="42.614540" lon="-6.413030">
        <ele>652.00</ele>
        <time>2020-08-20T20:36:50Z</time>
      </trkpt>
      <trkpt lat="42.614580" lon="-6.413280">
        <ele>652.00</ele>
        <time>2020-08-20T20:36:55Z</time>
      </trkpt>
      <trkpt lat="42.614610" lon="-6.413470">
        <ele>652.00</ele>
        <time>2020-08-20T20:36:59Z</time>
      </trkpt>
      <trkpt lat="42.614620" lon="-6.413580">
        <ele>652.00</ele>
        <time>2020-08-20T20:37:01Z</time>
      </trkpt>
      <trkpt lat="42.614630" lon="-6.413740">
        <ele>652.00</ele>
        <time>2020-08-20T20:37:04Z</time>
      </trkpt>
      <trkpt lat="42.614650" lon="-6.413930">
        <ele>652.00</ele>
        <time>2020-08-20T20:37:08Z</time>
      </trkpt>
      <trkpt lat="42.614610" lon="-6.414150">
        <ele>652.00</ele>
        <time>2020-08-20T20:37:12Z</time>
      </trkpt>
      <trkpt lat="42.614650" lon="-6.414170">
        <ele>652.00</ele>
        <time>2020-08-20T20:37:13Z</time>
      </trkpt>
      <trkpt lat="42.614670" lon="-6.414230">
        <ele>652.00</ele>
        <time>2020-08-20T20:37:15Z</time>
      </trkpt>
      <trkpt lat="42.614710" lon="-6.414340">
        <ele>652.00</ele>
        <time>2020-08-20T20:37:17Z</time>
      </trkpt>
      <trkpt lat="42.614720" lon="-6.414400">
        <ele>652.00</ele>
        <time>2020-08-20T20:37:18Z</time>
      </trkpt>
      <trkpt lat="42.614720" lon="-6.414500">
        <ele>652.00</ele>
        <time>2020-08-20T20:37:20Z</time>
      </trkpt>
      <trkpt lat="42.614650" lon="-6.414540">
        <ele>652.00</ele>
        <time>2020-08-20T20:37:22Z</time>
      </trkpt>
      <trkpt lat="42.614560" lon="-6.414620">
        <ele>652.00</ele>
        <time>2020-08-20T20:37:25Z</time>
      </trkpt>
      <trkpt lat="42.614520" lon="-6.414810">
        <ele>652.00</ele>
        <time>2020-08-20T20:37:29Z</time>
      </trkpt>
      <trkpt lat="42.614480" lon="-6.415000">
        <ele>652.00</ele>
        <time>2020-08-20T20:37:33Z</time>
      </trkpt>
      <trkpt lat="42.614470" lon="-6.415060">
        <ele>652.00</ele>
        <time>2020-08-20T20:37:34Z</time>
      </trkpt>
      <trkpt lat="42.614440" lon="-6.415180">
        <ele>652.00</ele>
        <time>2020-08-20T20:37:37Z</time>
      </trkpt>
      <trkpt lat="42.614360" lon="-6.415450">
        <ele>645.00</ele>
        <time>2020-08-20T20:37:43Z</time>
      </trkpt>
      <trkpt lat="42.614220" lon="-6.415910">
        <ele>645.00</ele>
        <time>2020-08-20T20:37:52Z</time>
      </trkpt>
      <trkpt lat="42.614210" lon="-6.415990">
        <ele>645.00</ele>
        <time>2020-08-20T20:37:54Z</time>
      </trkpt>
      <trkpt lat="42.614180" lon="-6.416160">
        <ele>645.00</ele>
        <time>2020-08-20T20:37:57Z</time>
      </trkpt>
      <trkpt lat="42.614170" lon="-6.416320">
        <ele>645.00</ele>
        <time>2020-08-20T20:38:01Z</time>
      </trkpt>
      <trkpt lat="42.614170" lon="-6.416440">
        <ele>645.00</ele>
        <time>2020-08-20T20:38:03Z</time>
      </trkpt>
      <trkpt lat="42.614160" lon="-6.416530">
        <ele>645.00</ele>
        <time>2020-08-20T20:38:05Z</time>
      </trkpt>
      <trkpt lat="42.614150" lon="-6.416680">
        <ele>645.00</ele>
        <time>2020-08-20T20:38:08Z</time>
      </trkpt>
      <trkpt lat="42.614140" lon="-6.416750">
        <ele>645.00</ele>
        <time>2020-08-20T20:38:09Z</time>
      </trkpt>
      <trkpt lat="42.614120" lon="-6.416890">
        <ele>645.00</ele>
        <time>2020-08-20T20:38:12Z</time>
      </trkpt>
      <trkpt lat="42.614080" lon="-6.417060">
        <ele>645.00</ele>
        <time>2020-08-20T20:38:15Z</time>
      </trkpt>
      <trkpt lat="42.614260" lon="-6.417110">
        <ele>645.00</ele>
        <time>2020-08-20T20:38:20Z</time>
      </trkpt>
      <trkpt lat="42.614330" lon="-6.417130">
        <ele>645.00</ele>
        <time>2020-08-20T20:38:22Z</time>
      </trkpt>
      <trkpt lat="42.614430" lon="-6.417180">
        <ele>645.00</ele>
        <time>2020-08-20T20:38:25Z</time>
      </trkpt>
      <trkpt lat="42.614450" lon="-6.417190">
        <ele>645.00</ele>
        <time>2020-08-20T20:38:26Z</time>
      </trkpt>
      <trkpt lat="42.614530" lon="-6.417300">
        <ele>634.00</ele>
        <time>2020-08-20T20:38:29Z</time>
      </trkpt>
      <trkpt lat="42.614450" lon="-6.417390">
        <ele>634.00</ele>
        <time>2020-08-20T20:38:31Z</time>
      </trkpt>
      <trkpt lat="42.614360" lon="-6.417490">
        <ele>634.00</ele>
        <time>2020-08-20T20:38:35Z</time>
      </trkpt>
      <trkpt lat="42.614300" lon="-6.417580">
        <ele>634.00</ele>
        <time>2020-08-20T20:38:37Z</time>
      </trkpt>
      <trkpt lat="42.614230" lon="-6.417670">
        <ele>634.00</ele>
        <time>2020-08-20T20:38:40Z</time>
      </trkpt>
      <trkpt lat="42.614050" lon="-6.417970">
        <ele>634.00</ele>
        <time>2020-08-20T20:38:47Z</time>
      </trkpt>
      <trkpt lat="42.613940" lon="-6.418200">
        <ele>634.00</ele>
        <time>2020-08-20T20:38:53Z</time>
      </trkpt>
      <trkpt lat="42.613760" lon="-6.418600">
        <ele>634.00</ele>
        <time>2020-08-20T20:39:02Z</time>
      </trkpt>
      <trkpt lat="42.613680" lon="-6.418780">
        <ele>634.00</ele>
        <time>2020-08-20T20:39:06Z</time>
      </trkpt>
      <trkpt lat="42.613900" lon="-6.419040">
        <ele>634.00</ele>
        <time>2020-08-20T20:39:14Z</time>
      </trkpt>
      <trkpt lat="42.614110" lon="-6.419320">
        <ele>634.00</ele>
        <time>2020-08-20T20:39:22Z</time>
      </trkpt>
      <trkpt lat="42.614240" lon="-6.419480">
        <ele>634.00</ele>
        <time>2020-08-20T20:39:26Z</time>
      </trkpt>
      <trkpt lat="42.614370" lon="-6.419660">
        <ele>634.00</ele>
        <time>2020-08-20T20:39:31Z</time>
      </trkpt>
      <trkpt lat="42.614450" lon="-6.419780">
        <ele>634.00</ele>
        <time>2020-08-20T20:39:34Z</time>
      </trkpt>
      <trkpt lat="42.614460" lon="-6.419800">
        <ele>634.00</ele>
        <time>2020-08-20T20:39:35Z</time>
      </trkpt>
      <trkpt lat="42.614860" lon="-6.420460">
        <ele>632.00</ele>
        <time>2020-08-20T20:39:52Z</time>
      </trkpt>
      <trkpt lat="42.614910" lon="-6.420530">
        <ele>632.00</ele>
        <time>2020-08-20T20:39:54Z</time>
      </trkpt>
      <trkpt lat="42.615220" lon="-6.420880">
        <ele>632.00</ele>
        <time>2020-08-20T20:40:04Z</time>
      </trkpt>
      <trkpt lat="42.615630" lon="-6.421380">
        <ele>632.00</ele>
        <time>2020-08-20T20:40:19Z</time>
      </trkpt>
      <trkpt lat="42.615650" lon="-6.421450">
        <ele>632.00</ele>
        <time>2020-08-20T20:40:21Z</time>
      </trkpt>
      <trkpt lat="42.615680" lon="-6.421530">
        <ele>632.00</ele>
        <time>2020-08-20T20:40:22Z</time>
      </trkpt>
      <trkpt lat="42.615670" lon="-6.421610">
        <ele>632.00</ele>
        <time>2020-08-20T20:40:24Z</time>
      </trkpt>
      <trkpt lat="42.615630" lon="-6.421660">
        <ele>632.00</ele>
        <time>2020-08-20T20:40:25Z</time>
      </trkpt>
      <trkpt lat="42.615580" lon="-6.421730">
        <ele>632.00</ele>
        <time>2020-08-20T20:40:27Z</time>
      </trkpt>
      <trkpt lat="42.615350" lon="-6.421900">
        <ele>632.00</ele>
        <time>2020-08-20T20:40:34Z</time>
      </trkpt>
      <trkpt lat="42.614800" lon="-6.422380">
        <ele>645.00</ele>
        <time>2020-08-20T20:40:52Z</time>
      </trkpt>
      <trkpt lat="42.614790" lon="-6.422440">
        <ele>645.00</ele>
        <time>2020-08-20T20:40:53Z</time>
      </trkpt>
      <trkpt lat="42.614760" lon="-6.422460">
        <ele>645.00</ele>
        <time>2020-08-20T20:40:54Z</time>
      </trkpt>
      <trkpt lat="42.614720" lon="-6.422450">
        <ele>645.00</ele>
        <time>2020-08-20T20:40:55Z</time>
      </trkpt>
      <trkpt lat="42.614710" lon="-6.422440">
        <ele>645.00</ele>
        <time>2020-08-20T20:40:56Z</time>
      </trkpt>
      <trkpt lat="42.614650" lon="-6.422510">
        <ele>645.00</ele>
        <time>2020-08-20T20:40:58Z</time>
      </trkpt>
      <trkpt lat="42.614030" lon="-6.423160">
        <ele>645.00</ele>
        <time>2020-08-20T20:41:19Z</time>
      </trkpt>
      <trkpt lat="42.613590" lon="-6.423650">
        <ele>652.00</ele>
        <time>2020-08-20T20:41:34Z</time>
      </trkpt>
      <trkpt lat="42.613280" lon="-6.424000">
        <ele>652.00</ele>
        <time>2020-08-20T20:41:45Z</time>
      </trkpt>
      <trkpt lat="42.613190" lon="-6.424080">
        <ele>652.00</ele>
        <time>2020-08-20T20:41:48Z</time>
      </trkpt>
      <trkpt lat="42.612890" lon="-6.424380">
        <ele>652.00</ele>
        <time>2020-08-20T20:41:58Z</time>
      </trkpt>
      <trkpt lat="42.612720" lon="-6.424540">
        <ele>652.00</ele>
        <time>2020-08-20T20:42:03Z</time>
      </trkpt>
      <trkpt lat="42.612530" lon="-6.424700">
        <ele>652.00</ele>
        <time>2020-08-20T20:42:09Z</time>
      </trkpt>
      <trkpt lat="42.612390" lon="-6.424800">
        <ele>652.00</ele>
        <time>2020-08-20T20:42:13Z</time>
      </trkpt>
      <trkpt lat="42.612240" lon="-6.424880">
        <ele>652.00</ele>
        <time>2020-08-20T20:42:18Z</time>
      </trkpt>
      <trkpt lat="42.612060" lon="-6.424930">
        <ele>652.00</ele>
        <time>2020-08-20T20:42:23Z</time>
      </trkpt>
      <trkpt lat="42.611860" lon="-6.424950">
        <ele>651.00</ele>
        <time>2020-08-20T20:42:28Z</time>
      </trkpt>
      <trkpt lat="42.611730" lon="-6.424920">
        <ele>651.00</ele>
        <time>2020-08-20T20:42:31Z</time>
      </trkpt>
      <trkpt lat="42.611670" lon="-6.424910">
        <ele>651.00</ele>
        <time>2020-08-20T20:42:33Z</time>
      </trkpt>
      <trkpt lat="42.611380" lon="-6.424840">
        <ele>651.00</ele>
        <time>2020-08-20T20:42:41Z</time>
      </trkpt>
      <trkpt lat="42.611190" lon="-6.424790">
        <ele>651.00</ele>
        <time>2020-08-20T20:42:46Z</time>
      </trkpt>
      <trkpt lat="42.611130" lon="-6.424770">
        <ele>651.00</ele>
        <time>2020-08-20T20:42:48Z</time>
      </trkpt>
      <trkpt lat="42.610830" lon="-6.424660">
        <ele>651.00</ele>
        <time>2020-08-20T20:42:56Z</time>
      </trkpt>
      <trkpt lat="42.610810" lon="-6.424690">
        <ele>651.00</ele>
        <time>2020-08-20T20:42:57Z</time>
      </trkpt>
      <trkpt lat="42.610770" lon="-6.424710">
        <ele>651.00</ele>
        <time>2020-08-20T20:42:58Z</time>
      </trkpt>
      <trkpt lat="42.610730" lon="-6.424680">
        <ele>651.00</ele>
        <time>2020-08-20T20:42:59Z</time>
      </trkpt>
      <trkpt lat="42.610720" lon="-6.424660">
        <ele>651.00</ele>
        <time>2020-08-20T20:43:00Z</time>
      </trkpt>
      <trkpt lat="42.610680" lon="-6.424690">
        <ele>651.00</ele>
        <time>2020-08-20T20:43:01Z</time>
      </trkpt>
      <trkpt lat="42.610640" lon="-6.424720">
        <ele>651.00</ele>
        <time>2020-08-20T20:43:02Z</time>
      </trkpt>
      <trkpt lat="42.610590" lon="-6.424740">
        <ele>651.00</ele>
        <time>2020-08-20T20:43:04Z</time>
      </trkpt>
      <trkpt lat="42.610540" lon="-6.424740">
        <ele>651.00</ele>
        <time>2020-08-20T20:43:05Z</time>
      </trkpt>
      <trkpt lat="42.610480" lon="-6.424720">
        <ele>651.00</ele>
        <time>2020-08-20T20:43:07Z</time>
      </trkpt>
      <trkpt lat="42.610450" lon="-6.424660">
        <ele>651.00</ele>
        <time>2020-08-20T20:43:08Z</time>
      </trkpt>
      <trkpt lat="42.610420" lon="-6.424540">
        <ele>651.00</ele>
        <time>2020-08-20T20:43:10Z</time>
      </trkpt>
      <trkpt lat="42.610350" lon="-6.424400">
        <ele>651.00</ele>
        <time>2020-08-20T20:43:14Z</time>
      </trkpt>
      <trkpt lat="42.610320" lon="-6.424370">
        <ele>651.00</ele>
        <time>2020-08-20T20:43:15Z</time>
      </trkpt>
      <trkpt lat="42.610280" lon="-6.424370">
        <ele>651.00</ele>
        <time>2020-08-20T20:43:16Z</time>
      </trkpt>
      <trkpt lat="42.610240" lon="-6.424400">
        <ele>651.00</ele>
        <time>2020-08-20T20:43:17Z</time>
      </trkpt>
      <trkpt lat="42.610220" lon="-6.424470">
        <ele>651.00</ele>
        <time>2020-08-20T20:43:19Z</time>
      </trkpt>
      <trkpt lat="42.610220" lon="-6.424560">
        <ele>651.00</ele>
        <time>2020-08-20T20:43:20Z</time>
      </trkpt>
      <trkpt lat="42.610220" lon="-6.424890">
        <ele>651.00</ele>
        <time>2020-08-20T20:43:27Z</time>
      </trkpt>
      <trkpt lat="42.610240" lon="-6.425330">
        <ele>649.00</ele>
        <time>2020-08-20T20:43:36Z</time>
      </trkpt>
      <trkpt lat="42.610330" lon="-6.426000">
        <ele>649.00</ele>
        <time>2020-08-20T20:43:49Z</time>
      </trkpt>
      <trkpt lat="42.610330" lon="-6.426090">
        <ele>649.00</ele>
        <time>2020-08-20T20:43:51Z</time>
      </trkpt>
      <trkpt lat="42.610300" lon="-6.426500">
        <ele>649.00</ele>
        <time>2020-08-20T20:43:59Z</time>
      </trkpt>
      <trkpt lat="42.609300" lon="-6.426460">
        <ele>649.00</ele>
        <time>2020-08-20T20:44:26Z</time>
      </trkpt>
      <trkpt lat="42.608610" lon="-6.426450">
        <ele>648.00</ele>
        <time>2020-08-20T20:44:44Z</time>
      </trkpt>
      <trkpt lat="42.608000" lon="-6.426460">
        <ele>648.00</ele>
        <time>2020-08-20T20:45:00Z</time>
      </trkpt>
      <trkpt lat="42.608060" lon="-6.426630">
        <ele>648.00</ele>
        <time>2020-08-20T20:45:04Z</time>
      </trkpt>
      <trkpt lat="42.608260" lon="-6.427280">
        <ele>648.00</ele>
        <time>2020-08-20T20:45:18Z</time>
      </trkpt>
      <trkpt lat="42.608400" lon="-6.427800">
        <ele>648.00</ele>
        <time>2020-08-20T20:45:29Z</time>
      </trkpt>
      <trkpt lat="42.608480" lon="-6.428040">
        <ele>648.00</ele>
        <time>2020-08-20T20:45:34Z</time>
      </trkpt>
      <trkpt lat="42.608650" lon="-6.428560">
        <ele>648.00</ele>
        <time>2020-08-20T20:45:45Z</time>
      </trkpt>
      <trkpt lat="42.608750" lon="-6.429010">
        <ele>649.00</ele>
        <time>2020-08-20T20:45:54Z</time>
      </trkpt>
      <trkpt lat="42.608800" lon="-6.429360">
        <ele>649.00</ele>
        <time>2020-08-20T20:46:01Z</time>
      </trkpt>
      <trkpt lat="42.608860" lon="-6.429840">
        <ele>649.00</ele>
        <time>2020-08-20T20:46:11Z</time>
      </trkpt>
      <trkpt lat="42.608910" lon="-6.430380">
        <ele>649.00</ele>
        <time>2020-08-20T20:46:22Z</time>
      </trkpt>
      <trkpt lat="42.608970" lon="-6.430830">
        <ele>649.00</ele>
        <time>2020-08-20T20:46:31Z</time>
      </trkpt>
      <trkpt lat="42.608990" lon="-6.431250">
        <ele>649.00</ele>
        <time>2020-08-20T20:46:39Z</time>
      </trkpt>
      <trkpt lat="42.609020" lon="-6.431680">
        <ele>649.00</ele>
        <time>2020-08-20T20:46:47Z</time>
      </trkpt>
      <trkpt lat="42.609060" lon="-6.431860">
        <ele>649.00</ele>
        <time>2020-08-20T20:46:51Z</time>
      </trkpt>
      <trkpt lat="42.608960" lon="-6.432130">
        <ele>649.00</ele>
        <time>2020-08-20T20:46:57Z</time>
      </trkpt>
      <trkpt lat="42.608730" lon="-6.432670">
        <ele>656.00</ele>
        <time>2020-08-20T20:47:09Z</time>
      </trkpt>
      <trkpt lat="42.607880" lon="-6.434480">
        <ele>656.00</ele>
        <time>2020-08-20T20:47:51Z</time>
      </trkpt>
      <trkpt lat="42.607580" lon="-6.435080">
        <ele>656.00</ele>
        <time>2020-08-20T20:48:06Z</time>
      </trkpt>
      <trkpt lat="42.607470" lon="-6.435280">
        <ele>656.00</ele>
        <time>2020-08-20T20:48:11Z</time>
      </trkpt>
      <trkpt lat="42.607110" lon="-6.435840">
        <ele>662.00</ele>
        <time>2020-08-20T20:48:25Z</time>
      </trkpt>
      <trkpt lat="42.606880" lon="-6.436380">
        <ele>662.00</ele>
        <time>2020-08-20T20:48:38Z</time>
      </trkpt>
      <trkpt lat="42.606440" lon="-6.437470">
        <ele>662.00</ele>
        <time>2020-08-20T20:49:02Z</time>
      </trkpt>
      <trkpt lat="42.606390" lon="-6.437600">
        <ele>662.00</ele>
        <time>2020-08-20T20:49:05Z</time>
      </trkpt>
      <trkpt lat="42.606340" lon="-6.437760">
        <ele>662.00</ele>
        <time>2020-08-20T20:49:08Z</time>
      </trkpt>
      <trkpt lat="42.606240" lon="-6.437930">
        <ele>662.00</ele>
        <time>2020-08-20T20:49:13Z</time>
      </trkpt>
      <trkpt lat="42.605780" lon="-6.438530">
        <ele>669.00</ele>
        <time>2020-08-20T20:49:30Z</time>
      </trkpt>
      <trkpt lat="42.605350" lon="-6.439060">
        <ele>669.00</ele>
        <time>2020-08-20T20:49:45Z</time>
      </trkpt>
      <trkpt lat="42.605040" lon="-6.439360">
        <ele>669.00</ele>
        <time>2020-08-20T20:49:55Z</time>
      </trkpt>
      <trkpt lat="42.604970" lon="-6.439420">
        <ele>669.00</ele>
        <time>2020-08-20T20:49:58Z</time>
      </trkpt>
      <trkpt lat="42.604860" lon="-6.439480">
        <ele>669.00</ele>
        <time>2020-08-20T20:50:01Z</time>
      </trkpt>
      <trkpt lat="42.604720" lon="-6.439560">
        <ele>669.00</ele>
        <time>2020-08-20T20:50:05Z</time>
      </trkpt>
      <trkpt lat="42.604550" lon="-6.439580">
        <ele>669.00</ele>
        <time>2020-08-20T20:50:09Z</time>
      </trkpt>
      <trkpt lat="42.604440" lon="-6.439640">
        <ele>669.00</ele>
        <time>2020-08-20T20:50:12Z</time>
      </trkpt>
      <trkpt lat="42.604310" lon="-6.439740">
        <ele>669.00</ele>
        <time>2020-08-20T20:50:16Z</time>
      </trkpt>
      <trkpt lat="42.604260" lon="-6.439780">
        <ele>669.00</ele>
        <time>2020-08-20T20:50:18Z</time>
      </trkpt>
      <trkpt lat="42.604120" lon="-6.439880">
        <ele>669.00</ele>
        <time>2020-08-20T20:50:22Z</time>
      </trkpt>
      <trkpt lat="42.603990" lon="-6.439970">
        <ele>669.00</ele>
        <time>2020-08-20T20:50:26Z</time>
      </trkpt>
      <trkpt lat="42.603940" lon="-6.439990">
        <ele>669.00</ele>
        <time>2020-08-20T20:50:28Z</time>
      </trkpt>
      <trkpt lat="42.603810" lon="-6.440000">
        <ele>680.00</ele>
        <time>2020-08-20T20:50:31Z</time>
      </trkpt>
      <trkpt lat="42.603710" lon="-6.439990">
        <ele>680.00</ele>
        <time>2020-08-20T20:50:34Z</time>
      </trkpt>
      <trkpt lat="42.603620" lon="-6.440000">
        <ele>680.00</ele>
        <time>2020-08-20T20:50:36Z</time>
      </trkpt>
      <trkpt lat="42.603470" lon="-6.440160">
        <ele>680.00</ele>
        <time>2020-08-20T20:50:41Z</time>
      </trkpt>
      <trkpt lat="42.603260" lon="-6.440390">
        <ele>680.00</ele>
        <time>2020-08-20T20:50:48Z</time>
      </trkpt>
      <trkpt lat="42.603020" lon="-6.440640">
        <ele>680.00</ele>
        <time>2020-08-20T20:50:56Z</time>
      </trkpt>
      <trkpt lat="42.602730" lon="-6.440980">
        <ele>680.00</ele>
        <time>2020-08-20T20:51:07Z</time>
      </trkpt>
      <trkpt lat="42.602410" lon="-6.441430">
        <ele>680.00</ele>
        <time>2020-08-20T20:51:19Z</time>
      </trkpt>
      <trkpt lat="42.602340" lon="-6.441540">
        <ele>680.00</ele>
        <time>2020-08-20T20:51:22Z</time>
      </trkpt>
      <trkpt lat="42.602040" lon="-6.442010">
        <ele>680.00</ele>
        <time>2020-08-20T20:51:34Z</time>
      </trkpt>
      <trkpt lat="42.601790" lon="-6.442390">
        <ele>682.00</ele>
        <time>2020-08-20T20:51:44Z</time>
      </trkpt>
      <trkpt lat="42.601690" lon="-6.442540">
        <ele>682.00</ele>
        <time>2020-08-20T20:51:48Z</time>
      </trkpt>
      <trkpt lat="42.601350" lon="-6.443070">
        <ele>682.00</ele>
        <time>2020-08-20T20:52:02Z</time>
      </trkpt>
      <trkpt lat="42.601180" lon="-6.443340">
        <ele>682.00</ele>
        <time>2020-08-20T20:52:09Z</time>
      </trkpt>
      <trkpt lat="42.601100" lon="-6.443480">
        <ele>682.00</ele>
        <time>2020-08-20T20:52:12Z</time>
      </trkpt>
      <trkpt lat="42.601060" lon="-6.443560">
        <ele>682.00</ele>
        <time>2020-08-20T20:52:14Z</time>
      </trkpt>
      <trkpt lat="42.601000" lon="-6.443710">
        <ele>682.00</ele>
        <time>2020-08-20T20:52:18Z</time>
      </trkpt>
      <trkpt lat="42.600970" lon="-6.443830">
        <ele>682.00</ele>
        <time>2020-08-20T20:52:20Z</time>
      </trkpt>
      <trkpt lat="42.600940" lon="-6.444040">
        <ele>682.00</ele>
        <time>2020-08-20T20:52:24Z</time>
      </trkpt>
      <trkpt lat="42.600930" lon="-6.444220">
        <ele>682.00</ele>
        <time>2020-08-20T20:52:28Z</time>
      </trkpt>
      <trkpt lat="42.600940" lon="-6.444400">
        <ele>682.00</ele>
        <time>2020-08-20T20:52:31Z</time>
      </trkpt>
      <trkpt lat="42.600970" lon="-6.444820">
        <ele>682.00</ele>
        <time>2020-08-20T20:52:40Z</time>
      </trkpt>
      <trkpt lat="42.600960" lon="-6.445200">
        <ele>682.00</ele>
        <time>2020-08-20T20:52:47Z</time>
      </trkpt>
      <trkpt lat="42.600890" lon="-6.445740">
        <ele>683.00</ele>
        <time>2020-08-20T20:52:58Z</time>
      </trkpt>
      <trkpt lat="42.600720" lon="-6.446820">
        <ele>683.00</ele>
        <time>2020-08-20T20:53:20Z</time>
      </trkpt>
      <trkpt lat="42.600640" lon="-6.447330">
        <ele>683.00</ele>
        <time>2020-08-20T20:53:30Z</time>
      </trkpt>
      <trkpt lat="42.600560" lon="-6.447770">
        <ele>683.00</ele>
        <time>2020-08-20T20:53:39Z</time>
      </trkpt>
      <trkpt lat="42.600460" lon="-6.448090">
        <ele>683.00</ele>
        <time>2020-08-20T20:53:46Z</time>
      </trkpt>
      <trkpt lat="42.600350" lon="-6.448380">
        <ele>683.00</ele>
        <time>2020-08-20T20:53:52Z</time>
      </trkpt>
      <trkpt lat="42.600180" lon="-6.448690">
        <ele>683.00</ele>
        <time>2020-08-20T20:54:00Z</time>
      </trkpt>
      <trkpt lat="42.599980" lon="-6.449010">
        <ele>695.00</ele>
        <time>2020-08-20T20:54:08Z</time>
      </trkpt>
      <trkpt lat="42.599360" lon="-6.450000">
        <ele>695.00</ele>
        <time>2020-08-20T20:54:34Z</time>
      </trkpt>
      <trkpt lat="42.598900" lon="-6.450820">
        <ele>695.00</ele>
        <time>2020-08-20T20:54:54Z</time>
      </trkpt>
      <trkpt lat="42.598330" lon="-6.451850">
        <ele>679.00</ele>
        <time>2020-08-20T20:55:19Z</time>
      </trkpt>
      <trkpt lat="42.597890" lon="-6.452660">
        <ele>679.00</ele>
        <time>2020-08-20T20:55:39Z</time>
      </trkpt>
      <trkpt lat="42.597280" lon="-6.453760">
        <ele>679.00</ele>
        <time>2020-08-20T20:56:06Z</time>
      </trkpt>
      <trkpt lat="42.596910" lon="-6.454420">
        <ele>677.00</ele>
        <time>2020-08-20T20:56:22Z</time>
      </trkpt>
      <trkpt lat="42.596580" lon="-6.454900">
        <ele>677.00</ele>
        <time>2020-08-20T20:56:35Z</time>
      </trkpt>
      <trkpt lat="42.596220" lon="-6.455300">
        <ele>677.00</ele>
        <time>2020-08-20T20:56:48Z</time>
      </trkpt>
      <trkpt lat="42.596000" lon="-6.455470">
        <ele>677.00</ele>
        <time>2020-08-20T20:56:55Z</time>
      </trkpt>
      <trkpt lat="42.595910" lon="-6.455530">
        <ele>677.00</ele>
        <time>2020-08-20T20:56:57Z</time>
      </trkpt>
      <trkpt lat="42.595460" lon="-6.455790">
        <ele>677.00</ele>
        <time>2020-08-20T20:57:10Z</time>
      </trkpt>
      <trkpt lat="42.595140" lon="-6.455970">
        <ele>677.00</ele>
        <time>2020-08-20T20:57:20Z</time>
      </trkpt>
      <trkpt lat="42.594340" lon="-6.456430">
        <ele>696.00</ele>
        <time>2020-08-20T20:57:43Z</time>
      </trkpt>
      <trkpt lat="42.593710" lon="-6.456790">
        <ele>696.00</ele>
        <time>2020-08-20T20:58:01Z</time>
      </trkpt>
      <trkpt lat="42.592880" lon="-6.457270">
        <ele>696.00</ele>
        <time>2020-08-20T20:58:25Z</time>
      </trkpt>
      <trkpt lat="42.592530" lon="-6.457460">
        <ele>696.00</ele>
        <time>2020-08-20T20:58:35Z</time>
      </trkpt>
      <trkpt lat="42.591910" lon="-6.457840">
        <ele>728.00</ele>
        <time>2020-08-20T20:58:53Z</time>
      </trkpt>
      <trkpt lat="42.591700" lon="-6.457960">
        <ele>728.00</ele>
        <time>2020-08-20T20:58:59Z</time>
      </trkpt>
      <trkpt lat="42.591530" lon="-6.458120">
        <ele>728.00</ele>
        <time>2020-08-20T20:59:05Z</time>
      </trkpt>
      <trkpt lat="42.591290" lon="-6.458430">
        <ele>728.00</ele>
        <time>2020-08-20T20:59:14Z</time>
      </trkpt>
      <trkpt lat="42.590990" lon="-6.458800">
        <ele>728.00</ele>
        <time>2020-08-20T20:59:25Z</time>
      </trkpt>
      <trkpt lat="42.590800" lon="-6.459030">
        <ele>728.00</ele>
        <time>2020-08-20T20:59:31Z</time>
      </trkpt>
      <trkpt lat="42.590590" lon="-6.459180">
        <ele>728.00</ele>
        <time>2020-08-20T20:59:38Z</time>
      </trkpt>
      <trkpt lat="42.590320" lon="-6.459290">
        <ele>728.00</ele>
        <time>2020-08-20T20:59:45Z</time>
      </trkpt>
      <trkpt lat="42.590020" lon="-6.459410">
        <ele>728.00</ele>
        <time>2020-08-20T20:59:54Z</time>
      </trkpt>
      <trkpt lat="42.589780" lon="-6.459500">
        <ele>732.00</ele>
        <time>2020-08-20T21:00:00Z</time>
      </trkpt>
      <trkpt lat="42.589510" lon="-6.459640">
        <ele>732.00</ele>
        <time>2020-08-20T21:00:08Z</time>
      </trkpt>
      <trkpt lat="42.589220" lon="-6.459870">
        <ele>732.00</ele>
        <time>2020-08-20T21:00:17Z</time>
      </trkpt>
      <trkpt lat="42.588890" lon="-6.460190">
        <ele>732.00</ele>
        <time>2020-08-20T21:00:28Z</time>
      </trkpt>
      <trkpt lat="42.588590" lon="-6.460510">
        <ele>732.00</ele>
        <time>2020-08-20T21:00:38Z</time>
      </trkpt>
      <trkpt lat="42.587390" lon="-6.461790">
        <ele>729.00</ele>
        <time>2020-08-20T21:01:19Z</time>
      </trkpt>
      <trkpt lat="42.587350" lon="-6.461840">
        <ele>729.00</ele>
        <time>2020-08-20T21:01:20Z</time>
      </trkpt>
      <trkpt lat="42.587140" lon="-6.462080">
        <ele>729.00</ele>
        <time>2020-08-20T21:01:28Z</time>
      </trkpt>
      <trkpt lat="42.586850" lon="-6.462560">
        <ele>729.00</ele>
        <time>2020-08-20T21:01:40Z</time>
      </trkpt>
      <trkpt lat="42.586490" lon="-6.463170">
        <ele>729.00</ele>
        <time>2020-08-20T21:01:55Z</time>
      </trkpt>
      <trkpt lat="42.586200" lon="-6.463690">
        <ele>729.00</ele>
        <time>2020-08-20T21:02:08Z</time>
      </trkpt>
      <trkpt lat="42.585970" lon="-6.464090">
        <ele>730.00</ele>
        <time>2020-08-20T21:02:18Z</time>
      </trkpt>
      <trkpt lat="42.585690" lon="-6.464430">
        <ele>730.00</ele>
        <time>2020-08-20T21:02:28Z</time>
      </trkpt>
      <trkpt lat="42.585150" lon="-6.465030">
        <ele>730.00</ele>
        <time>2020-08-20T21:02:47Z</time>
      </trkpt>
      <trkpt lat="42.584730" lon="-6.465500">
        <ele>730.00</ele>
        <time>2020-08-20T21:03:01Z</time>
      </trkpt>
      <trkpt lat="42.584430" lon="-6.465860">
        <ele>730.00</ele>
        <time>2020-08-20T21:03:12Z</time>
      </trkpt>
      <trkpt lat="42.584360" lon="-6.465940">
        <ele>730.00</ele>
        <time>2020-08-20T21:03:14Z</time>
      </trkpt>
      <trkpt lat="42.584240" lon="-6.466080">
        <ele>730.00</ele>
        <time>2020-08-20T21:03:19Z</time>
      </trkpt>
      <trkpt lat="42.584180" lon="-6.466010">
        <ele>746.00</ele>
        <time>2020-08-20T21:03:21Z</time>
      </trkpt>
      <trkpt lat="42.583930" lon="-6.465970">
        <ele>746.00</ele>
        <time>2020-08-20T21:03:27Z</time>
      </trkpt>
      <trkpt lat="42.583410" lon="-6.465900">
        <ele>746.00</ele>
        <time>2020-08-20T21:03:41Z</time>
      </trkpt>
      <trkpt lat="42.583030" lon="-6.465850">
        <ele>746.00</ele>
        <time>2020-08-20T21:03:52Z</time>
      </trkpt>
      <trkpt lat="42.582800" lon="-6.465840">
        <ele>746.00</ele>
        <time>2020-08-20T21:03:58Z</time>
      </trkpt>
      <trkpt lat="42.582680" lon="-6.465850">
        <ele>746.00</ele>
        <time>2020-08-20T21:04:01Z</time>
      </trkpt>
      <trkpt lat="42.582310" lon="-6.465880">
        <ele>746.00</ele>
        <time>2020-08-20T21:04:11Z</time>
      </trkpt>
      <trkpt lat="42.582010" lon="-6.465880">
        <ele>746.00</ele>
        <time>2020-08-20T21:04:19Z</time>
      </trkpt>
      <trkpt lat="42.581770" lon="-6.465910">
        <ele>746.00</ele>
        <time>2020-08-20T21:04:25Z</time>
      </trkpt>
      <trkpt lat="42.581700" lon="-6.465910">
        <ele>746.00</ele>
        <time>2020-08-20T21:04:27Z</time>
      </trkpt>
      <trkpt lat="42.581590" lon="-6.465910">
        <ele>746.00</ele>
        <time>2020-08-20T21:04:30Z</time>
      </trkpt>
      <trkpt lat="42.581480" lon="-6.465860">
        <ele>719.00</ele>
        <time>2020-08-20T21:04:33Z</time>
      </trkpt>
      <trkpt lat="42.581410" lon="-6.465830">
        <ele>719.00</ele>
        <time>2020-08-20T21:04:35Z</time>
      </trkpt>
      <trkpt lat="42.581370" lon="-6.465920">
        <ele>719.00</ele>
        <time>2020-08-20T21:04:37Z</time>
      </trkpt>
      <trkpt lat="42.581340" lon="-6.465960">
        <ele>719.00</ele>
        <time>2020-08-20T21:04:38Z</time>
      </trkpt>
      <trkpt lat="42.581220" lon="-6.466050">
        <ele>719.00</ele>
        <time>2020-08-20T21:04:42Z</time>
      </trkpt>
      <trkpt lat="42.581110" lon="-6.466190">
        <ele>719.00</ele>
        <time>2020-08-20T21:04:46Z</time>
      </trkpt>
      <trkpt lat="42.581020" lon="-6.466340">
        <ele>719.00</ele>
        <time>2020-08-20T21:04:50Z</time>
      </trkpt>
      <trkpt lat="42.580880" lon="-6.466730">
        <ele>719.00</ele>
        <time>2020-08-20T21:04:58Z</time>
      </trkpt>
      <trkpt lat="42.580790" lon="-6.466990">
        <ele>719.00</ele>
        <time>2020-08-20T21:05:04Z</time>
      </trkpt>
      <trkpt lat="42.580700" lon="-6.467270">
        <ele>719.00</ele>
        <time>2020-08-20T21:05:10Z</time>
      </trkpt>
      <trkpt lat="42.580810" lon="-6.467380">
        <ele>719.00</ele>
        <time>2020-08-20T21:05:14Z</time>
      </trkpt>
      <trkpt lat="42.580870" lon="-6.467450">
        <ele>719.00</ele>
        <time>2020-08-20T21:05:16Z</time>
      </trkpt>
      <trkpt lat="42.580900" lon="-6.467520">
        <ele>719.00</ele>
        <time>2020-08-20T21:05:17Z</time>
      </trkpt>
      <trkpt lat="42.580940" lon="-6.467610">
        <ele>719.00</ele>
        <time>2020-08-20T21:05:19Z</time>
      </trkpt>
      <trkpt lat="42.580980" lon="-6.467710">
        <ele>719.00</ele>
        <time>2020-08-20T21:05:22Z</time>
      </trkpt>
      <trkpt lat="42.581000" lon="-6.467770">
        <ele>719.00</ele>
        <time>2020-08-20T21:05:23Z</time>
      </trkpt>
      <trkpt lat="42.581020" lon="-6.467850">
        <ele>719.00</ele>
        <time>2020-08-20T21:05:25Z</time>
      </trkpt>
      <trkpt lat="42.581060" lon="-6.467970">
        <ele>719.00</ele>
        <time>2020-08-20T21:05:27Z</time>
      </trkpt>
      <trkpt lat="42.581070" lon="-6.468030">
        <ele>719.00</ele>
        <time>2020-08-20T21:05:28Z</time>
      </trkpt>
      <trkpt lat="42.581100" lon="-6.468120">
        <ele>719.00</ele>
        <time>2020-08-20T21:05:30Z</time>
      </trkpt>
      <trkpt lat="42.581130" lon="-6.468230">
        <ele>719.00</ele>
        <time>2020-08-20T21:05:33Z</time>
      </trkpt>
      <trkpt lat="42.581200" lon="-6.468420">
        <ele>719.00</ele>
        <time>2020-08-20T21:05:37Z</time>
      </trkpt>
      <trkpt lat="42.581240" lon="-6.468530">
        <ele>719.00</ele>
        <time>2020-08-20T21:05:39Z</time>
      </trkpt>
      <trkpt lat="42.581330" lon="-6.468620">
        <ele>691.00</ele>
        <time>2020-08-20T21:05:42Z</time>
      </trkpt>
      <trkpt lat="42.581400" lon="-6.468720">
        <ele>691.00</ele>
        <time>2020-08-20T21:05:45Z</time>
      </trkpt>
      <trkpt lat="42.581480" lon="-6.468900">
        <ele>691.00</ele>
        <time>2020-08-20T21:05:49Z</time>
      </trkpt>
      <trkpt lat="42.581520" lon="-6.469130">
        <ele>691.00</ele>
        <time>2020-08-20T21:05:54Z</time>
      </trkpt>
      <trkpt lat="42.581520" lon="-6.469320">
        <ele>691.00</ele>
        <time>2020-08-20T21:05:58Z</time>
      </trkpt>
      <trkpt lat="42.581530" lon="-6.469550">
        <ele>691.00</ele>
        <time>2020-08-20T21:06:02Z</time>
      </trkpt>
      <trkpt lat="42.581550" lon="-6.469580">
        <ele>691.00</ele>
        <time>2020-08-20T21:06:03Z</time>
      </trkpt>
      <trkpt lat="42.581580" lon="-6.469560">
        <ele>691.00</ele>
        <time>2020-08-20T21:06:04Z</time>
      </trkpt>
      <trkpt lat="42.581620" lon="-6.469560">
        <ele>691.00</ele>
        <time>2020-08-20T21:06:05Z</time>
      </trkpt>
      <trkpt lat="42.581650" lon="-6.469590">
        <ele>691.00</ele>
        <time>2020-08-20T21:06:06Z</time>
      </trkpt>
      <trkpt lat="42.581660" lon="-6.469640">
        <ele>691.00</ele>
        <time>2020-08-20T21:06:07Z</time>
      </trkpt>
      <trkpt lat="42.581640" lon="-6.469710">
        <ele>691.00</ele>
        <time>2020-08-20T21:06:08Z</time>
      </trkpt>
      <trkpt lat="42.581610" lon="-6.469730">
        <ele>691.00</ele>
        <time>2020-08-20T21:06:09Z</time>
      </trkpt>
      <trkpt lat="42.581600" lon="-6.469770">
        <ele>691.00</ele>
        <time>2020-08-20T21:06:10Z</time>
      </trkpt>
      <trkpt lat="42.581590" lon="-6.469960">
        <ele>691.00</ele>
        <time>2020-08-20T21:06:14Z</time>
      </trkpt>
      <trkpt lat="42.581580" lon="-6.470300">
        <ele>691.00</ele>
        <time>2020-08-20T21:06:21Z</time>
      </trkpt>
      <trkpt lat="42.581520" lon="-6.470770">
        <ele>691.00</ele>
        <time>2020-08-20T21:06:30Z</time>
      </trkpt>
      <trkpt lat="42.581480" lon="-6.470940">
        <ele>691.00</ele>
        <time>2020-08-20T21:06:33Z</time>
      </trkpt>
      <trkpt lat="42.581460" lon="-6.471130">
        <ele>691.00</ele>
        <time>2020-08-20T21:06:37Z</time>
      </trkpt>
      <trkpt lat="42.581450" lon="-6.471340">
        <ele>691.00</ele>
        <time>2020-08-20T21:06:41Z</time>
      </trkpt>
      <trkpt lat="42.581490" lon="-6.472760">
        <ele>678.00</ele>
        <time>2020-08-20T21:07:09Z</time>
      </trkpt>
      <trkpt lat="42.581510" lon="-6.473820">
        <ele>678.00</ele>
        <time>2020-08-20T21:07:30Z</time>
      </trkpt>
      <trkpt lat="42.581510" lon="-6.475300">
        <ele>678.00</ele>
        <time>2020-08-20T21:07:59Z</time>
      </trkpt>
      <trkpt lat="42.581510" lon="-6.476940">
        <ele>666.00</ele>
        <time>2020-08-20T21:08:32Z</time>
      </trkpt>
      <trkpt lat="42.581510" lon="-6.477280">
        <ele>666.00</ele>
        <time>2020-08-20T21:08:38Z</time>
      </trkpt>
      <trkpt lat="42.581530" lon="-6.477550">
        <ele>666.00</ele>
        <time>2020-08-20T21:08:44Z</time>
      </trkpt>
      <trkpt lat="42.581560" lon="-6.477730">
        <ele>666.00</ele>
        <time>2020-08-20T21:08:47Z</time>
      </trkpt>
      <trkpt lat="42.581600" lon="-6.477930">
        <ele>666.00</ele>
        <time>2020-08-20T21:08:51Z</time>
      </trkpt>
      <trkpt lat="42.581690" lon="-6.478250">
        <ele>666.00</ele>
        <time>2020-08-20T21:08:58Z</time>
      </trkpt>
      <trkpt lat="42.582600" lon="-6.481310">
        <ele>651.00</ele>
        <time>2020-08-20T21:10:03Z</time>
      </trkpt>
      <trkpt lat="42.582730" lon="-6.481800">
        <ele>651.00</ele>
        <time>2020-08-20T21:10:13Z</time>
      </trkpt>
      <trkpt lat="42.582790" lon="-6.482190">
        <ele>651.00</ele>
        <time>2020-08-20T21:10:21Z</time>
      </trkpt>
      <trkpt lat="42.582850" lon="-6.482600">
        <ele>637.00</ele>
        <time>2020-08-20T21:10:29Z</time>
      </trkpt>
      <trkpt lat="42.582910" lon="-6.483220">
        <ele>637.00</ele>
        <time>2020-08-20T21:10:42Z</time>
      </trkpt>
      <trkpt lat="42.583040" lon="-6.484340">
        <ele>637.00</ele>
        <time>2020-08-20T21:11:04Z</time>
      </trkpt>
      <trkpt lat="42.583250" lon="-6.486460">
        <ele>634.00</ele>
        <time>2020-08-20T21:11:46Z</time>
      </trkpt>
      <trkpt lat="42.583360" lon="-6.487360">
        <ele>634.00</ele>
        <time>2020-08-20T21:12:04Z</time>
      </trkpt>
      <trkpt lat="42.583420" lon="-6.487610">
        <ele>634.00</ele>
        <time>2020-08-20T21:12:09Z</time>
      </trkpt>
      <trkpt lat="42.583510" lon="-6.487860">
        <ele>634.00</ele>
        <time>2020-08-20T21:12:15Z</time>
      </trkpt>
      <trkpt lat="42.583910" lon="-6.488760">
        <ele>634.00</ele>
        <time>2020-08-20T21:12:35Z</time>
      </trkpt>
      <trkpt lat="42.584060" lon="-6.489160">
        <ele>622.00</ele>
        <time>2020-08-20T21:12:44Z</time>
      </trkpt>
      <trkpt lat="42.584140" lon="-6.489450">
        <ele>622.00</ele>
        <time>2020-08-20T21:12:50Z</time>
      </trkpt>
      <trkpt lat="42.584200" lon="-6.489770">
        <ele>622.00</ele>
        <time>2020-08-20T21:12:57Z</time>
      </trkpt>
      <trkpt lat="42.584230" lon="-6.490060">
        <ele>622.00</ele>
        <time>2020-08-20T21:13:02Z</time>
      </trkpt>
      <trkpt lat="42.584240" lon="-6.490330">
        <ele>622.00</ele>
        <time>2020-08-20T21:13:08Z</time>
      </trkpt>
      <trkpt lat="42.584230" lon="-6.490670">
        <ele>622.00</ele>
        <time>2020-08-20T21:13:14Z</time>
      </trkpt>
      <trkpt lat="42.584200" lon="-6.490910">
        <ele>622.00</ele>
        <time>2020-08-20T21:13:19Z</time>
      </trkpt>
      <trkpt lat="42.584140" lon="-6.491240">
        <ele>622.00</ele>
        <time>2020-08-20T21:13:26Z</time>
      </trkpt>
      <trkpt lat="42.584040" lon="-6.491600">
        <ele>622.00</ele>
        <time>2020-08-20T21:13:33Z</time>
      </trkpt>
      <trkpt lat="42.583890" lon="-6.492000">
        <ele>622.00</ele>
        <time>2020-08-20T21:13:42Z</time>
      </trkpt>
      <trkpt lat="42.583700" lon="-6.492460">
        <ele>622.00</ele>
        <time>2020-08-20T21:13:53Z</time>
      </trkpt>
      <trkpt lat="42.583400" lon="-6.493070">
        <ele>622.00</ele>
        <time>2020-08-20T21:14:07Z</time>
      </trkpt>
      <trkpt lat="42.583060" lon="-6.493780">
        <ele>622.00</ele>
        <time>2020-08-20T21:14:24Z</time>
      </trkpt>
      <trkpt lat="42.582970" lon="-6.493940">
        <ele>622.00</ele>
        <time>2020-08-20T21:14:28Z</time>
      </trkpt>
      <trkpt lat="42.582880" lon="-6.494090">
        <ele>622.00</ele>
        <time>2020-08-20T21:14:32Z</time>
      </trkpt>
      <trkpt lat="42.582770" lon="-6.494220">
        <ele>622.00</ele>
        <time>2020-08-20T21:14:35Z</time>
      </trkpt>
      <trkpt lat="42.582650" lon="-6.494350">
        <ele>622.00</ele>
        <time>2020-08-20T21:14:40Z</time>
      </trkpt>
      <trkpt lat="42.582520" lon="-6.494450">
        <ele>622.00</ele>
        <time>2020-08-20T21:14:44Z</time>
      </trkpt>
      <trkpt lat="42.582380" lon="-6.494540">
        <ele>622.00</ele>
        <time>2020-08-20T21:14:48Z</time>
      </trkpt>
      <trkpt lat="42.581960" lon="-6.494690">
        <ele>622.00</ele>
        <time>2020-08-20T21:14:59Z</time>
      </trkpt>
      <trkpt lat="42.581710" lon="-6.494810">
        <ele>632.00</ele>
        <time>2020-08-20T21:15:06Z</time>
      </trkpt>
      <trkpt lat="42.581530" lon="-6.494940">
        <ele>632.00</ele>
        <time>2020-08-20T21:15:12Z</time>
      </trkpt>
      <trkpt lat="42.581400" lon="-6.495090">
        <ele>632.00</ele>
        <time>2020-08-20T21:15:16Z</time>
      </trkpt>
      <trkpt lat="42.581320" lon="-6.495190">
        <ele>632.00</ele>
        <time>2020-08-20T21:15:19Z</time>
      </trkpt>
      <trkpt lat="42.581250" lon="-6.495310">
        <ele>632.00</ele>
        <time>2020-08-20T21:15:22Z</time>
      </trkpt>
      <trkpt lat="42.581140" lon="-6.495580">
        <ele>632.00</ele>
        <time>2020-08-20T21:15:28Z</time>
      </trkpt>
      <trkpt lat="42.581040" lon="-6.495820">
        <ele>632.00</ele>
        <time>2020-08-20T21:15:34Z</time>
      </trkpt>
      <trkpt lat="42.580900" lon="-6.496210">
        <ele>632.00</ele>
        <time>2020-08-20T21:15:42Z</time>
      </trkpt>
      <trkpt lat="42.580790" lon="-6.496500">
        <ele>632.00</ele>
        <time>2020-08-20T21:15:49Z</time>
      </trkpt>
      <trkpt lat="42.580700" lon="-6.496770">
        <ele>632.00</ele>
        <time>2020-08-20T21:15:55Z</time>
      </trkpt>
      <trkpt lat="42.580630" lon="-6.496960">
        <ele>632.00</ele>
        <time>2020-08-20T21:15:59Z</time>
      </trkpt>
      <trkpt lat="42.580200" lon="-6.498230">
        <ele>627.00</ele>
        <time>2020-08-20T21:16:26Z</time>
      </trkpt>
      <trkpt lat="42.580110" lon="-6.498490">
        <ele>627.00</ele>
        <time>2020-08-20T21:16:32Z</time>
      </trkpt>
      <trkpt lat="42.580060" lon="-6.498510">
        <ele>627.00</ele>
        <time>2020-08-20T21:16:33Z</time>
      </trkpt>
      <trkpt lat="42.580000" lon="-6.498590">
        <ele>627.00</ele>
        <time>2020-08-20T21:16:36Z</time>
      </trkpt>
      <trkpt lat="42.579810" lon="-6.498830">
        <ele>627.00</ele>
        <time>2020-08-20T21:16:42Z</time>
      </trkpt>
      <trkpt lat="42.579540" lon="-6.499220">
        <ele>627.00</ele>
        <time>2020-08-20T21:16:53Z</time>
      </trkpt>
      <trkpt lat="42.579220" lon="-6.499710">
        <ele>627.00</ele>
        <time>2020-08-20T21:17:06Z</time>
      </trkpt>
      <trkpt lat="42.578880" lon="-6.500250">
        <ele>627.00</ele>
        <time>2020-08-20T21:17:20Z</time>
      </trkpt>
      <trkpt lat="42.578720" lon="-6.500520">
        <ele>642.00</ele>
        <time>2020-08-20T21:17:27Z</time>
      </trkpt>
      <trkpt lat="42.578540" lon="-6.500760">
        <ele>642.00</ele>
        <time>2020-08-20T21:17:33Z</time>
      </trkpt>
      <trkpt lat="42.578420" lon="-6.500920">
        <ele>642.00</ele>
        <time>2020-08-20T21:17:38Z</time>
      </trkpt>
      <trkpt lat="42.578300" lon="-6.501070">
        <ele>642.00</ele>
        <time>2020-08-20T21:17:42Z</time>
      </trkpt>
      <trkpt lat="42.578220" lon="-6.501170">
        <ele>642.00</ele>
        <time>2020-08-20T21:17:45Z</time>
      </trkpt>
      <trkpt lat="42.578130" lon="-6.501270">
        <ele>642.00</ele>
        <time>2020-08-20T21:17:48Z</time>
      </trkpt>
      <trkpt lat="42.578080" lon="-6.501370">
        <ele>642.00</ele>
        <time>2020-08-20T21:17:51Z</time>
      </trkpt>
      <trkpt lat="42.578030" lon="-6.501460">
        <ele>642.00</ele>
        <time>2020-08-20T21:17:53Z</time>
      </trkpt>
      <trkpt lat="42.577970" lon="-6.501590">
        <ele>642.00</ele>
        <time>2020-08-20T21:17:56Z</time>
      </trkpt>
      <trkpt lat="42.577950" lon="-6.501670">
        <ele>642.00</ele>
        <time>2020-08-20T21:17:58Z</time>
      </trkpt>
      <trkpt lat="42.577910" lon="-6.501820">
        <ele>642.00</ele>
        <time>2020-08-20T21:18:01Z</time>
      </trkpt>
      <trkpt lat="42.577850" lon="-6.502050">
        <ele>642.00</ele>
        <time>2020-08-20T21:18:06Z</time>
      </trkpt>
      <trkpt lat="42.577760" lon="-6.502280">
        <ele>642.00</ele>
        <time>2020-08-20T21:18:11Z</time>
      </trkpt>
      <trkpt lat="42.577650" lon="-6.502500">
        <ele>642.00</ele>
        <time>2020-08-20T21:18:16Z</time>
      </trkpt>
      <trkpt lat="42.577530" lon="-6.502710">
        <ele>642.00</ele>
        <time>2020-08-20T21:18:21Z</time>
      </trkpt>
      <trkpt lat="42.577330" lon="-6.502980">
        <ele>642.00</ele>
        <time>2020-08-20T21:18:29Z</time>
      </trkpt>
      <trkpt lat="42.577190" lon="-6.503170">
        <ele>636.00</ele>
        <time>2020-08-20T21:18:34Z</time>
      </trkpt>
      <trkpt lat="42.577070" lon="-6.503320">
        <ele>636.00</ele>
        <time>2020-08-20T21:18:38Z</time>
      </trkpt>
      <trkpt lat="42.576990" lon="-6.503410">
        <ele>636.00</ele>
        <time>2020-08-20T21:18:41Z</time>
      </trkpt>
      <trkpt lat="42.576750" lon="-6.503650">
        <ele>636.00</ele>
        <time>2020-08-20T21:18:49Z</time>
      </trkpt>
      <trkpt lat="42.576680" lon="-6.503740">
        <ele>636.00</ele>
        <time>2020-08-20T21:18:52Z</time>
      </trkpt>
      <trkpt lat="42.576580" lon="-6.503880">
        <ele>636.00</ele>
        <time>2020-08-20T21:18:55Z</time>
      </trkpt>
      <trkpt lat="42.576540" lon="-6.503980">
        <ele>636.00</ele>
        <time>2020-08-20T21:18:58Z</time>
      </trkpt>
      <trkpt lat="42.576480" lon="-6.504100">
        <ele>636.00</ele>
        <time>2020-08-20T21:19:01Z</time>
      </trkpt>
      <trkpt lat="42.576440" lon="-6.504180">
        <ele>636.00</ele>
        <time>2020-08-20T21:19:02Z</time>
      </trkpt>
      <trkpt lat="42.576420" lon="-6.504220">
        <ele>636.00</ele>
        <time>2020-08-20T21:19:03Z</time>
      </trkpt>
      <trkpt lat="42.576360" lon="-6.504340">
        <ele>636.00</ele>
        <time>2020-08-20T21:19:06Z</time>
      </trkpt>
      <trkpt lat="42.576330" lon="-6.504430">
        <ele>636.00</ele>
        <time>2020-08-20T21:19:08Z</time>
      </trkpt>
      <trkpt lat="42.576310" lon="-6.504570">
        <ele>636.00</ele>
        <time>2020-08-20T21:19:11Z</time>
      </trkpt>
      <trkpt lat="42.576290" lon="-6.504720">
        <ele>636.00</ele>
        <time>2020-08-20T21:19:14Z</time>
      </trkpt>
      <trkpt lat="42.576260" lon="-6.504930">
        <ele>636.00</ele>
        <time>2020-08-20T21:19:18Z</time>
      </trkpt>
      <trkpt lat="42.576200" lon="-6.505230">
        <ele>636.00</ele>
        <time>2020-08-20T21:19:24Z</time>
      </trkpt>
      <trkpt lat="42.576140" lon="-6.505450">
        <ele>636.00</ele>
        <time>2020-08-20T21:19:29Z</time>
      </trkpt>
      <trkpt lat="42.576050" lon="-6.505670">
        <ele>636.00</ele>
        <time>2020-08-20T21:19:34Z</time>
      </trkpt>
      <trkpt lat="42.575960" lon="-6.505860">
        <ele>636.00</ele>
        <time>2020-08-20T21:19:38Z</time>
      </trkpt>
      <trkpt lat="42.575880" lon="-6.506010">
        <ele>632.00</ele>
        <time>2020-08-20T21:19:42Z</time>
      </trkpt>
      <trkpt lat="42.575810" lon="-6.506150">
        <ele>632.00</ele>
        <time>2020-08-20T21:19:45Z</time>
      </trkpt>
      <trkpt lat="42.575790" lon="-6.506180">
        <ele>632.00</ele>
        <time>2020-08-20T21:19:46Z</time>
      </trkpt>
      <trkpt lat="42.575740" lon="-6.506250">
        <ele>632.00</ele>
        <time>2020-08-20T21:19:48Z</time>
      </trkpt>
      <trkpt lat="42.575740" lon="-6.506350">
        <ele>632.00</ele>
        <time>2020-08-20T21:19:50Z</time>
      </trkpt>
      <trkpt lat="42.575740" lon="-6.506640">
        <ele>632.00</ele>
        <time>2020-08-20T21:19:56Z</time>
      </trkpt>
      <trkpt lat="42.575790" lon="-6.507040">
        <ele>632.00</ele>
        <time>2020-08-20T21:20:04Z</time>
      </trkpt>
      <trkpt lat="42.575790" lon="-6.507230">
        <ele>632.00</ele>
        <time>2020-08-20T21:20:07Z</time>
      </trkpt>
      <trkpt lat="42.575760" lon="-6.507510">
        <ele>632.00</ele>
        <time>2020-08-20T21:20:13Z</time>
      </trkpt>
      <trkpt lat="42.575830" lon="-6.507540">
        <ele>632.00</ele>
        <time>2020-08-20T21:20:15Z</time>
      </trkpt>
      <trkpt lat="42.575920" lon="-6.507730">
        <ele>632.00</ele>
        <time>2020-08-20T21:20:19Z</time>
      </trkpt>
      <trkpt lat="42.575980" lon="-6.507810">
        <ele>632.00</ele>
        <time>2020-08-20T21:20:22Z</time>
      </trkpt>
      <trkpt lat="42.576030" lon="-6.507860">
        <ele>632.00</ele>
        <time>2020-08-20T21:20:23Z</time>
      </trkpt>
      <trkpt lat="42.576060" lon="-6.508000">
        <ele>632.00</ele>
        <time>2020-08-20T21:20:26Z</time>
      </trkpt>
      <trkpt lat="42.576190" lon="-6.508170">
        <ele>632.00</ele>
        <time>2020-08-20T21:20:31Z</time>
      </trkpt>
      <trkpt lat="42.576260" lon="-6.508240">
        <ele>632.00</ele>
        <time>2020-08-20T21:20:33Z</time>
      </trkpt>
      <trkpt lat="42.576340" lon="-6.508360">
        <ele>632.00</ele>
        <time>2020-08-20T21:20:36Z</time>
      </trkpt>
      <trkpt lat="42.576410" lon="-6.508470">
        <ele>632.00</ele>
        <time>2020-08-20T21:20:39Z</time>
      </trkpt>
      <trkpt lat="42.576510" lon="-6.508690">
        <ele>632.00</ele>
        <time>2020-08-20T21:20:44Z</time>
      </trkpt>
      <trkpt lat="42.576550" lon="-6.508810">
        <ele>632.00</ele>
        <time>2020-08-20T21:20:47Z</time>
      </trkpt>
      <trkpt lat="42.576580" lon="-6.509060">
        <ele>632.00</ele>
        <time>2020-08-20T21:20:52Z</time>
      </trkpt>
      <trkpt lat="42.576630" lon="-6.509260">
        <ele>606.00</ele>
        <time>2020-08-20T21:20:56Z</time>
      </trkpt>
      <trkpt lat="42.576690" lon="-6.509500">
        <ele>606.00</ele>
        <time>2020-08-20T21:21:01Z</time>
      </trkpt>
      <trkpt lat="42.576780" lon="-6.509760">
        <ele>606.00</ele>
        <time>2020-08-20T21:21:07Z</time>
      </trkpt>
      <trkpt lat="42.576950" lon="-6.510140">
        <ele>606.00</ele>
        <time>2020-08-20T21:21:16Z</time>
      </trkpt>
      <trkpt lat="42.577010" lon="-6.510290">
        <ele>606.00</ele>
        <time>2020-08-20T21:21:19Z</time>
      </trkpt>
      <trkpt lat="42.577090" lon="-6.510480">
        <ele>606.00</ele>
        <time>2020-08-20T21:21:23Z</time>
      </trkpt>
      <trkpt lat="42.577150" lon="-6.510640">
        <ele>606.00</ele>
        <time>2020-08-20T21:21:27Z</time>
      </trkpt>
      <trkpt lat="42.577140" lon="-6.510940">
        <ele>606.00</ele>
        <time>2020-08-20T21:21:33Z</time>
      </trkpt>
      <trkpt lat="42.577140" lon="-6.511250">
        <ele>606.00</ele>
        <time>2020-08-20T21:21:39Z</time>
      </trkpt>
      <trkpt lat="42.577150" lon="-6.511310">
        <ele>606.00</ele>
        <time>2020-08-20T21:21:40Z</time>
      </trkpt>
      <trkpt lat="42.577170" lon="-6.511450">
        <ele>606.00</ele>
        <time>2020-08-20T21:21:43Z</time>
      </trkpt>
      <trkpt lat="42.577130" lon="-6.511520">
        <ele>606.00</ele>
        <time>2020-08-20T21:21:44Z</time>
      </trkpt>
      <trkpt lat="42.577080" lon="-6.511700">
        <ele>606.00</ele>
        <time>2020-08-20T21:21:48Z</time>
      </trkpt>
      <trkpt lat="42.577030" lon="-6.511940">
        <ele>606.00</ele>
        <time>2020-08-20T21:21:53Z</time>
      </trkpt>
      <trkpt lat="42.576900" lon="-6.512300">
        <ele>602.00</ele>
        <time>2020-08-20T21:22:01Z</time>
      </trkpt>
      <trkpt lat="42.576750" lon="-6.512610">
        <ele>602.00</ele>
        <time>2020-08-20T21:22:08Z</time>
      </trkpt>
      <trkpt lat="42.576580" lon="-6.512860">
        <ele>602.00</ele>
        <time>2020-08-20T21:22:15Z</time>
      </trkpt>
      <trkpt lat="42.576390" lon="-6.513090">
        <ele>602.00</ele>
        <time>2020-08-20T21:22:22Z</time>
      </trkpt>
      <trkpt lat="42.576300" lon="-6.513140">
        <ele>602.00</ele>
        <time>2020-08-20T21:22:24Z</time>
      </trkpt>
      <trkpt lat="42.576230" lon="-6.513220">
        <ele>602.00</ele>
        <time>2020-08-20T21:22:27Z</time>
      </trkpt>
      <trkpt lat="42.576150" lon="-6.513310">
        <ele>602.00</ele>
        <time>2020-08-20T21:22:30Z</time>
      </trkpt>
      <trkpt lat="42.576090" lon="-6.513400">
        <ele>602.00</ele>
        <time>2020-08-20T21:22:32Z</time>
      </trkpt>
      <trkpt lat="42.576030" lon="-6.513490">
        <ele>602.00</ele>
        <time>2020-08-20T21:22:34Z</time>
      </trkpt>
      <trkpt lat="42.575980" lon="-6.513600">
        <ele>602.00</ele>
        <time>2020-08-20T21:22:37Z</time>
      </trkpt>
      <trkpt lat="42.575940" lon="-6.513710">
        <ele>602.00</ele>
        <time>2020-08-20T21:22:39Z</time>
      </trkpt>
      <trkpt lat="42.575890" lon="-6.513810">
        <ele>602.00</ele>
        <time>2020-08-20T21:22:42Z</time>
      </trkpt>
      <trkpt lat="42.575860" lon="-6.513940">
        <ele>602.00</ele>
        <time>2020-08-20T21:22:44Z</time>
      </trkpt>
      <trkpt lat="42.575840" lon="-6.514050">
        <ele>602.00</ele>
        <time>2020-08-20T21:22:47Z</time>
      </trkpt>
      <trkpt lat="42.575800" lon="-6.514180">
        <ele>602.00</ele>
        <time>2020-08-20T21:22:49Z</time>
      </trkpt>
      <trkpt lat="42.575750" lon="-6.514290">
        <ele>602.00</ele>
        <time>2020-08-20T21:22:52Z</time>
      </trkpt>
      <trkpt lat="42.575710" lon="-6.514410">
        <ele>602.00</ele>
        <time>2020-08-20T21:22:55Z</time>
      </trkpt>
      <trkpt lat="42.575660" lon="-6.514500">
        <ele>602.00</ele>
        <time>2020-08-20T21:22:57Z</time>
      </trkpt>
      <trkpt lat="42.575620" lon="-6.514600">
        <ele>602.00</ele>
        <time>2020-08-20T21:22:59Z</time>
      </trkpt>
      <trkpt lat="42.575560" lon="-6.514730">
        <ele>602.00</ele>
        <time>2020-08-20T21:23:02Z</time>
      </trkpt>
      <trkpt lat="42.575510" lon="-6.514880">
        <ele>602.00</ele>
        <time>2020-08-20T21:23:05Z</time>
      </trkpt>
      <trkpt lat="42.575470" lon="-6.514960">
        <ele>602.00</ele>
        <time>2020-08-20T21:23:07Z</time>
      </trkpt>
      <trkpt lat="42.575430" lon="-6.515080">
        <ele>591.00</ele>
        <time>2020-08-20T21:23:10Z</time>
      </trkpt>
      <trkpt lat="42.575380" lon="-6.515190">
        <ele>591.00</ele>
        <time>2020-08-20T21:23:12Z</time>
      </trkpt>
      <trkpt lat="42.575360" lon="-6.515300">
        <ele>591.00</ele>
        <time>2020-08-20T21:23:15Z</time>
      </trkpt>
      <trkpt lat="42.575300" lon="-6.515410">
        <ele>591.00</ele>
        <time>2020-08-20T21:23:17Z</time>
      </trkpt>
      <trkpt lat="42.575240" lon="-6.515520">
        <ele>591.00</ele>
        <time>2020-08-20T21:23:20Z</time>
      </trkpt>
      <trkpt lat="42.575160" lon="-6.515600">
        <ele>591.00</ele>
        <time>2020-08-20T21:23:23Z</time>
      </trkpt>
      <trkpt lat="42.575110" lon="-6.515710">
        <ele>591.00</ele>
        <time>2020-08-20T21:23:25Z</time>
      </trkpt>
      <trkpt lat="42.575040" lon="-6.515790">
        <ele>591.00</ele>
        <time>2020-08-20T21:23:28Z</time>
      </trkpt>
      <trkpt lat="42.574990" lon="-6.515890">
        <ele>591.00</ele>
        <time>2020-08-20T21:23:30Z</time>
      </trkpt>
      <trkpt lat="42.574930" lon="-6.515940">
        <ele>591.00</ele>
        <time>2020-08-20T21:23:32Z</time>
      </trkpt>
      <trkpt lat="42.574870" lon="-6.516040">
        <ele>591.00</ele>
        <time>2020-08-20T21:23:34Z</time>
      </trkpt>
      <trkpt lat="42.574800" lon="-6.516110">
        <ele>591.00</ele>
        <time>2020-08-20T21:23:37Z</time>
      </trkpt>
      <trkpt lat="42.574720" lon="-6.516190">
        <ele>591.00</ele>
        <time>2020-08-20T21:23:39Z</time>
      </trkpt>
      <trkpt lat="42.574660" lon="-6.516290">
        <ele>591.00</ele>
        <time>2020-08-20T21:23:42Z</time>
      </trkpt>
      <trkpt lat="42.574620" lon="-6.516400">
        <ele>591.00</ele>
        <time>2020-08-20T21:23:44Z</time>
      </trkpt>
      <trkpt lat="42.574560" lon="-6.516510">
        <ele>591.00</ele>
        <time>2020-08-20T21:23:47Z</time>
      </trkpt>
      <trkpt lat="42.574500" lon="-6.516620">
        <ele>591.00</ele>
        <time>2020-08-20T21:23:50Z</time>
      </trkpt>
      <trkpt lat="42.574390" lon="-6.516640">
        <ele>591.00</ele>
        <time>2020-08-20T21:23:53Z</time>
      </trkpt>
      <trkpt lat="42.574300" lon="-6.516590">
        <ele>591.00</ele>
        <time>2020-08-20T21:23:55Z</time>
      </trkpt>
      <trkpt lat="42.574220" lon="-6.516530">
        <ele>591.00</ele>
        <time>2020-08-20T21:23:58Z</time>
      </trkpt>
      <trkpt lat="42.574120" lon="-6.516430">
        <ele>591.00</ele>
        <time>2020-08-20T21:24:01Z</time>
      </trkpt>
      <trkpt lat="42.574070" lon="-6.516440">
        <ele>591.00</ele>
        <time>2020-08-20T21:24:02Z</time>
      </trkpt>
      <trkpt lat="42.574020" lon="-6.516330">
        <ele>591.00</ele>
        <time>2020-08-20T21:24:05Z</time>
      </trkpt>
      <trkpt lat="42.573960" lon="-6.516190">
        <ele>591.00</ele>
        <time>2020-08-20T21:24:08Z</time>
      </trkpt>
      <trkpt lat="42.573900" lon="-6.516070">
        <ele>591.00</ele>
        <time>2020-08-20T21:24:11Z</time>
      </trkpt>
      <trkpt lat="42.573760" lon="-6.515970">
        <ele>608.00</ele>
        <time>2020-08-20T21:24:15Z</time>
      </trkpt>
      <trkpt lat="42.573690" lon="-6.515910">
        <ele>608.00</ele>
        <time>2020-08-20T21:24:17Z</time>
      </trkpt>
      <trkpt lat="42.573610" lon="-6.515800">
        <ele>608.00</ele>
        <time>2020-08-20T21:24:20Z</time>
      </trkpt>
      <trkpt lat="42.573480" lon="-6.515600">
        <ele>608.00</ele>
        <time>2020-08-20T21:24:26Z</time>
      </trkpt>
      <trkpt lat="42.573430" lon="-6.515510">
        <ele>608.00</ele>
        <time>2020-08-20T21:24:28Z</time>
      </trkpt>
      <trkpt lat="42.573240" lon="-6.515360">
        <ele>608.00</ele>
        <time>2020-08-20T21:24:34Z</time>
      </trkpt>
      <trkpt lat="42.573000" lon="-6.515120">
        <ele>608.00</ele>
        <time>2020-08-20T21:24:42Z</time>
      </trkpt>
      <trkpt lat="42.572840" lon="-6.515000">
        <ele>608.00</ele>
        <time>2020-08-20T21:24:47Z</time>
      </trkpt>
      <trkpt lat="42.572710" lon="-6.514940">
        <ele>608.00</ele>
        <time>2020-08-20T21:24:50Z</time>
      </trkpt>
      <trkpt lat="42.572550" lon="-6.514860">
        <ele>608.00</ele>
        <time>2020-08-20T21:24:55Z</time>
      </trkpt>
      <trkpt lat="42.572260" lon="-6.514760">
        <ele>608.00</ele>
        <time>2020-08-20T21:25:03Z</time>
      </trkpt>
      <trkpt lat="42.572020" lon="-6.514700">
        <ele>608.00</ele>
        <time>2020-08-20T21:25:09Z</time>
      </trkpt>
      <trkpt lat="42.571910" lon="-6.514620">
        <ele>608.00</ele>
        <time>2020-08-20T21:25:13Z</time>
      </trkpt>
      <trkpt lat="42.571800" lon="-6.514490">
        <ele>608.00</ele>
        <time>2020-08-20T21:25:17Z</time>
      </trkpt>
      <trkpt lat="42.571700" lon="-6.514280">
        <ele>610.00</ele>
        <time>2020-08-20T21:25:22Z</time>
      </trkpt>
      <trkpt lat="42.571620" lon="-6.514060">
        <ele>610.00</ele>
        <time>2020-08-20T21:25:26Z</time>
      </trkpt>
      <trkpt lat="42.571560" lon="-6.513750">
        <ele>610.00</ele>
        <time>2020-08-20T21:25:33Z</time>
      </trkpt>
      <trkpt lat="42.571500" lon="-6.513500">
        <ele>610.00</ele>
        <time>2020-08-20T21:25:38Z</time>
      </trkpt>
      <trkpt lat="42.571480" lon="-6.513170">
        <ele>610.00</ele>
        <time>2020-08-20T21:25:44Z</time>
      </trkpt>
      <trkpt lat="42.571460" lon="-6.512790">
        <ele>610.00</ele>
        <time>2020-08-20T21:25:52Z</time>
      </trkpt>
      <trkpt lat="42.571260" lon="-6.512390">
        <ele>610.00</ele>
        <time>2020-08-20T21:26:01Z</time>
      </trkpt>
      <trkpt lat="42.571110" lon="-6.512140">
        <ele>610.00</ele>
        <time>2020-08-20T21:26:08Z</time>
      </trkpt>
      <trkpt lat="42.570550" lon="-6.511700">
        <ele>610.00</ele>
        <time>2020-08-20T21:26:25Z</time>
      </trkpt>
      <trkpt lat="42.569720" lon="-6.511100">
        <ele>644.00</ele>
        <time>2020-08-20T21:26:50Z</time>
      </trkpt>
      <trkpt lat="42.569390" lon="-6.510910">
        <ele>644.00</ele>
        <time>2020-08-20T21:27:00Z</time>
      </trkpt>
      <trkpt lat="42.569300" lon="-6.510890">
        <ele>644.00</ele>
        <time>2020-08-20T21:27:02Z</time>
      </trkpt>
      <trkpt lat="42.569150" lon="-6.511070">
        <ele>644.00</ele>
        <time>2020-08-20T21:27:07Z</time>
      </trkpt>
      <trkpt lat="42.568900" lon="-6.511330">
        <ele>644.00</ele>
        <time>2020-08-20T21:27:16Z</time>
      </trkpt>
      <trkpt lat="42.568720" lon="-6.511390">
        <ele>644.00</ele>
        <time>2020-08-20T21:27:21Z</time>
      </trkpt>
      <trkpt lat="42.568290" lon="-6.511590">
        <ele>644.00</ele>
        <time>2020-08-20T21:27:33Z</time>
      </trkpt>
      <trkpt lat="42.567960" lon="-6.511640">
        <ele>680.00</ele>
        <time>2020-08-20T21:27:42Z</time>
      </trkpt>
      <trkpt lat="42.567620" lon="-6.511640">
        <ele>680.00</ele>
        <time>2020-08-20T21:27:51Z</time>
      </trkpt>
      <trkpt lat="42.567220" lon="-6.511780">
        <ele>680.00</ele>
        <time>2020-08-20T21:28:02Z</time>
      </trkpt>
      <trkpt lat="42.566830" lon="-6.511800">
        <ele>680.00</ele>
        <time>2020-08-20T21:28:12Z</time>
      </trkpt>
      <trkpt lat="42.566440" lon="-6.511930">
        <ele>680.00</ele>
        <time>2020-08-20T21:28:23Z</time>
      </trkpt>
      <trkpt lat="42.565910" lon="-6.512380">
        <ele>680.00</ele>
        <time>2020-08-20T21:28:40Z</time>
      </trkpt>
      <trkpt lat="42.565630" lon="-6.512920">
        <ele>705.00</ele>
        <time>2020-08-20T21:28:53Z</time>
      </trkpt>
      <trkpt lat="42.565430" lon="-6.512910">
        <ele>705.00</ele>
        <time>2020-08-20T21:28:58Z</time>
      </trkpt>
      <trkpt lat="42.565230" lon="-6.512930">
        <ele>705.00</ele>
        <time>2020-08-20T21:29:04Z</time>
      </trkpt>
      <trkpt lat="42.564920" lon="-6.513020">
        <ele>705.00</ele>
        <time>2020-08-20T21:29:12Z</time>
      </trkpt>
      <trkpt lat="42.564520" lon="-6.512890">
        <ele>705.00</ele>
        <time>2020-08-20T21:29:23Z</time>
      </trkpt>
      <trkpt lat="42.564150" lon="-6.512710">
        <ele>705.00</ele>
        <time>2020-08-20T21:29:34Z</time>
      </trkpt>
      <trkpt lat="42.562850" lon="-6.512030">
        <ele>730.00</ele>
        <time>2020-08-20T21:30:11Z</time>
      </trkpt>
      <trkpt lat="42.561530" lon="-6.511560">
        <ele>730.00</ele>
        <time>2020-08-20T21:30:47Z</time>
      </trkpt>
      <trkpt lat="42.561080" lon="-6.511190">
        <ele>730.00</ele>
        <time>2020-08-20T21:31:01Z</time>
      </trkpt>
      <trkpt lat="42.559950" lon="-6.510470">
        <ele>747.00</ele>
        <time>2020-08-20T21:31:35Z</time>
      </trkpt>
      <trkpt lat="42.559910" lon="-6.510680">
        <ele>747.00</ele>
        <time>2020-08-20T21:31:39Z</time>
      </trkpt>
      <trkpt lat="42.559760" lon="-6.510930">
        <ele>747.00</ele>
        <time>2020-08-20T21:31:45Z</time>
      </trkpt>
      <trkpt lat="42.559360" lon="-6.511430">
        <ele>747.00</ele>
        <time>2020-08-20T21:32:00Z</time>
      </trkpt>
      <trkpt lat="42.559140" lon="-6.511780">
        <ele>747.00</ele>
        <time>2020-08-20T21:32:09Z</time>
      </trkpt>
      <trkpt lat="42.558980" lon="-6.511970">
        <ele>747.00</ele>
        <time>2020-08-20T21:32:14Z</time>
      </trkpt>
      <trkpt lat="42.558520" lon="-6.512150">
        <ele>742.00</ele>
        <time>2020-08-20T21:32:27Z</time>
      </trkpt>
      <trkpt lat="42.558370" lon="-6.512300">
        <ele>742.00</ele>
        <time>2020-08-20T21:32:32Z</time>
      </trkpt>
      <trkpt lat="42.558030" lon="-6.512690">
        <ele>742.00</ele>
        <time>2020-08-20T21:32:44Z</time>
      </trkpt>
      <trkpt lat="42.557820" lon="-6.513040">
        <ele>742.00</ele>
        <time>2020-08-20T21:32:53Z</time>
      </trkpt>
      <trkpt lat="42.557700" lon="-6.513370">
        <ele>742.00</ele>
        <time>2020-08-20T21:33:00Z</time>
      </trkpt>
      <trkpt lat="42.557570" lon="-6.513810">
        <ele>742.00</ele>
        <time>2020-08-20T21:33:10Z</time>
      </trkpt>
      <trkpt lat="42.557540" lon="-6.513900">
        <ele>742.00</ele>
        <time>2020-08-20T21:33:12Z</time>
      </trkpt>
      <trkpt lat="42.557340" lon="-6.514340">
        <ele>742.00</ele>
        <time>2020-08-20T21:33:22Z</time>
      </trkpt>
      <trkpt lat="42.557090" lon="-6.514740">
        <ele>721.00</ele>
        <time>2020-08-20T21:33:32Z</time>
      </trkpt>
      <trkpt lat="42.556990" lon="-6.514950">
        <ele>721.00</ele>
        <time>2020-08-20T21:33:37Z</time>
      </trkpt>
      <trkpt lat="42.556930" lon="-6.515160">
        <ele>721.00</ele>
        <time>2020-08-20T21:33:41Z</time>
      </trkpt>
      <trkpt lat="42.556920" lon="-6.515400">
        <ele>721.00</ele>
        <time>2020-08-20T21:33:46Z</time>
      </trkpt>
      <trkpt lat="42.556990" lon="-6.515830">
        <ele>721.00</ele>
        <time>2020-08-20T21:33:55Z</time>
      </trkpt>
      <trkpt lat="42.557080" lon="-6.516460">
        <ele>721.00</ele>
        <time>2020-08-20T21:34:07Z</time>
      </trkpt>
      <trkpt lat="42.557160" lon="-6.517850">
        <ele>721.00</ele>
        <time>2020-08-20T21:34:35Z</time>
      </trkpt>
      <trkpt lat="42.557230" lon="-6.518620">
        <ele>692.00</ele>
        <time>2020-08-20T21:34:50Z</time>
      </trkpt>
      <trkpt lat="42.557220" lon="-6.518990">
        <ele>692.00</ele>
        <time>2020-08-20T21:34:57Z</time>
      </trkpt>
      <trkpt lat="42.557130" lon="-6.519250">
        <ele>692.00</ele>
        <time>2020-08-20T21:35:03Z</time>
      </trkpt>
      <trkpt lat="42.557110" lon="-6.519340">
        <ele>692.00</ele>
        <time>2020-08-20T21:35:05Z</time>
      </trkpt>
      <trkpt lat="42.556950" lon="-6.519770">
        <ele>692.00</ele>
        <time>2020-08-20T21:35:14Z</time>
      </trkpt>
      <trkpt lat="42.556880" lon="-6.519890">
        <ele>692.00</ele>
        <time>2020-08-20T21:35:17Z</time>
      </trkpt>
      <trkpt lat="42.556700" lon="-6.520190">
        <ele>692.00</ele>
        <time>2020-08-20T21:35:25Z</time>
      </trkpt>
      <trkpt lat="42.556550" lon="-6.520440">
        <ele>692.00</ele>
        <time>2020-08-20T21:35:31Z</time>
      </trkpt>
      <trkpt lat="42.556400" lon="-6.520860">
        <ele>692.00</ele>
        <time>2020-08-20T21:35:41Z</time>
      </trkpt>
      <trkpt lat="42.556240" lon="-6.521410">
        <ele>668.00</ele>
        <time>2020-08-20T21:35:52Z</time>
      </trkpt>
      <trkpt lat="42.556050" lon="-6.521800">
        <ele>668.00</ele>
        <time>2020-08-20T21:36:01Z</time>
      </trkpt>
      <trkpt lat="42.555840" lon="-6.522200">
        <ele>668.00</ele>
        <time>2020-08-20T21:36:11Z</time>
      </trkpt>
      <trkpt lat="42.555530" lon="-6.522700">
        <ele>668.00</ele>
        <time>2020-08-20T21:36:24Z</time>
      </trkpt>
      <trkpt lat="42.555330" lon="-6.523070">
        <ele>668.00</ele>
        <time>2020-08-20T21:36:33Z</time>
      </trkpt>
      <trkpt lat="42.555150" lon="-6.523480">
        <ele>668.00</ele>
        <time>2020-08-20T21:36:42Z</time>
      </trkpt>
      <trkpt lat="42.554990" lon="-6.523920">
        <ele>668.00</ele>
        <time>2020-08-20T21:36:52Z</time>
      </trkpt>
      <trkpt lat="42.554870" lon="-6.524160">
        <ele>648.00</ele>
        <time>2020-08-20T21:36:58Z</time>
      </trkpt>
      <trkpt lat="42.554790" lon="-6.524310">
        <ele>648.00</ele>
        <time>2020-08-20T21:37:01Z</time>
      </trkpt>
      <trkpt lat="42.554740" lon="-6.524580">
        <ele>648.00</ele>
        <time>2020-08-20T21:37:07Z</time>
      </trkpt>
      <trkpt lat="42.554740" lon="-6.525060">
        <ele>648.00</ele>
        <time>2020-08-20T21:37:16Z</time>
      </trkpt>
      <trkpt lat="42.554730" lon="-6.525340">
        <ele>648.00</ele>
        <time>2020-08-20T21:37:22Z</time>
      </trkpt>
      <trkpt lat="42.554650" lon="-6.525750">
        <ele>648.00</ele>
        <time>2020-08-20T21:37:30Z</time>
      </trkpt>
      <trkpt lat="42.554520" lon="-6.526190">
        <ele>648.00</ele>
        <time>2020-08-20T21:37:39Z</time>
      </trkpt>
      <trkpt lat="42.554440" lon="-6.526800">
        <ele>648.00</ele>
        <time>2020-08-20T21:37:52Z</time>
      </trkpt>
      <trkpt lat="42.554370" lon="-6.527090">
        <ele>648.00</ele>
        <time>2020-08-20T21:37:58Z</time>
      </trkpt>
      <trkpt lat="42.554180" lon="-6.527400">
        <ele>648.00</ele>
        <time>2020-08-20T21:38:06Z</time>
      </trkpt>
      <trkpt lat="42.553990" lon="-6.527570">
        <ele>638.00</ele>
        <time>2020-08-20T21:38:12Z</time>
      </trkpt>
      <trkpt lat="42.553790" lon="-6.527710">
        <ele>638.00</ele>
        <time>2020-08-20T21:38:18Z</time>
      </trkpt>
      <trkpt lat="42.553570" lon="-6.528050">
        <ele>638.00</ele>
        <time>2020-08-20T21:38:27Z</time>
      </trkpt>
      <trkpt lat="42.553340" lon="-6.528310">
        <ele>638.00</ele>
        <time>2020-08-20T21:38:35Z</time>
      </trkpt>
      <trkpt lat="42.553200" lon="-6.528620">
        <ele>638.00</ele>
        <time>2020-08-20T21:38:42Z</time>
      </trkpt>
      <trkpt lat="42.553130" lon="-6.529130">
        <ele>638.00</ele>
        <time>2020-08-20T21:38:52Z</time>
      </trkpt>
      <trkpt lat="42.553180" lon="-6.529510">
        <ele>638.00</ele>
        <time>2020-08-20T21:39:00Z</time>
      </trkpt>
      <trkpt lat="42.553310" lon="-6.530260">
        <ele>638.00</ele>
        <time>2020-08-20T21:39:15Z</time>
      </trkpt>
      <trkpt lat="42.553290" lon="-6.530520">
        <ele>611.00</ele>
        <time>2020-08-20T21:39:20Z</time>
      </trkpt>
      <trkpt lat="42.553170" lon="-6.530770">
        <ele>611.00</ele>
        <time>2020-08-20T21:39:26Z</time>
      </trkpt>
      <trkpt lat="42.553050" lon="-6.530960">
        <ele>611.00</ele>
        <time>2020-08-20T21:39:31Z</time>
      </trkpt>
      <trkpt lat="42.552810" lon="-6.531120">
        <ele>611.00</ele>
        <time>2020-08-20T21:39:38Z</time>
      </trkpt>
      <trkpt lat="42.552470" lon="-6.531330">
        <ele>611.00</ele>
        <time>2020-08-20T21:39:48Z</time>
      </trkpt>
      <trkpt lat="42.552240" lon="-6.531530">
        <ele>611.00</ele>
        <time>2020-08-20T21:39:55Z</time>
      </trkpt>
      <trkpt lat="42.552130" lon="-6.531730">
        <ele>611.00</ele>
        <time>2020-08-20T21:40:00Z</time>
      </trkpt>
      <trkpt lat="42.552070" lon="-6.531960">
        <ele>611.00</ele>
        <time>2020-08-20T21:40:05Z</time>
      </trkpt>
      <trkpt lat="42.552080" lon="-6.532430">
        <ele>611.00</ele>
        <time>2020-08-20T21:40:14Z</time>
      </trkpt>
      <trkpt lat="42.552070" lon="-6.532640">
        <ele>611.00</ele>
        <time>2020-08-20T21:40:18Z</time>
      </trkpt>
      <trkpt lat="42.552020" lon="-6.532760">
        <ele>611.00</ele>
        <time>2020-08-20T21:40:21Z</time>
      </trkpt>
      <trkpt lat="42.551830" lon="-6.532910">
        <ele>611.00</ele>
        <time>2020-08-20T21:40:27Z</time>
      </trkpt>
      <trkpt lat="42.551640" lon="-6.532950">
        <ele>588.00</ele>
        <time>2020-08-20T21:40:32Z</time>
      </trkpt>
      <trkpt lat="42.551500" lon="-6.533070">
        <ele>588.00</ele>
        <time>2020-08-20T21:40:36Z</time>
      </trkpt>
      <trkpt lat="42.551370" lon="-6.533400">
        <ele>588.00</ele>
        <time>2020-08-20T21:40:44Z</time>
      </trkpt>
      <trkpt lat="42.551240" lon="-6.533800">
        <ele>588.00</ele>
        <time>2020-08-20T21:40:52Z</time>
      </trkpt>
      <trkpt lat="42.551190" lon="-6.533940">
        <ele>588.00</ele>
        <time>2020-08-20T21:40:55Z</time>
      </trkpt>
      <trkpt lat="42.551090" lon="-6.534080">
        <ele>588.00</ele>
        <time>2020-08-20T21:40:59Z</time>
      </trkpt>
      <trkpt lat="42.550920" lon="-6.534240">
        <ele>588.00</ele>
        <time>2020-08-20T21:41:05Z</time>
      </trkpt>
      <trkpt lat="42.550730" lon="-6.534370">
        <ele>588.00</ele>
        <time>2020-08-20T21:41:10Z</time>
      </trkpt>
      <trkpt lat="42.550550" lon="-6.534480">
        <ele>588.00</ele>
        <time>2020-08-20T21:41:16Z</time>
      </trkpt>
      <trkpt lat="42.550350" lon="-6.534600">
        <ele>588.00</ele>
        <time>2020-08-20T21:41:22Z</time>
      </trkpt>
      <trkpt lat="42.550160" lon="-6.534660">
        <ele>588.00</ele>
        <time>2020-08-20T21:41:27Z</time>
      </trkpt>
      <trkpt lat="42.549850" lon="-6.534860">
        <ele>588.00</ele>
        <time>2020-08-20T21:41:36Z</time>
      </trkpt>
      <trkpt lat="42.549700" lon="-6.534930">
        <ele>563.00</ele>
        <time>2020-08-20T21:41:40Z</time>
      </trkpt>
      <trkpt lat="42.549620" lon="-6.534950">
        <ele>563.00</ele>
        <time>2020-08-20T21:41:42Z</time>
      </trkpt>
      <trkpt lat="42.549480" lon="-6.534970">
        <ele>563.00</ele>
        <time>2020-08-20T21:41:46Z</time>
      </trkpt>
      <trkpt lat="42.549280" lon="-6.534960">
        <ele>563.00</ele>
        <time>2020-08-20T21:41:51Z</time>
      </trkpt>
      <trkpt lat="42.549120" lon="-6.534850">
        <ele>563.00</ele>
        <time>2020-08-20T21:41:56Z</time>
      </trkpt>
      <trkpt lat="42.547980" lon="-6.534270">
        <ele>563.00</ele>
        <time>2020-08-20T21:42:29Z</time>
      </trkpt>
      <trkpt lat="42.547040" lon="-6.533810">
        <ele>561.00</ele>
        <time>2020-08-20T21:42:55Z</time>
      </trkpt>
      <trkpt lat="42.546880" lon="-6.533670">
        <ele>561.00</ele>
        <time>2020-08-20T21:43:01Z</time>
      </trkpt>
      <trkpt lat="42.546830" lon="-6.533660">
        <ele>561.00</ele>
        <time>2020-08-20T21:43:02Z</time>
      </trkpt>
      <trkpt lat="42.546780" lon="-6.533690">
        <ele>561.00</ele>
        <time>2020-08-20T21:43:03Z</time>
      </trkpt>
      <trkpt lat="42.546540" lon="-6.533950">
        <ele>561.00</ele>
        <time>2020-08-20T21:43:12Z</time>
      </trkpt>
      <trkpt lat="42.546450" lon="-6.534020">
        <ele>561.00</ele>
        <time>2020-08-20T21:43:14Z</time>
      </trkpt>
      <trkpt lat="42.545920" lon="-6.534150">
        <ele>561.00</ele>
        <time>2020-08-20T21:43:29Z</time>
      </trkpt>
      <trkpt lat="42.545800" lon="-6.534180">
        <ele>561.00</ele>
        <time>2020-08-20T21:43:32Z</time>
      </trkpt>
      <trkpt lat="42.545730" lon="-6.534210">
        <ele>561.00</ele>
        <time>2020-08-20T21:43:34Z</time>
      </trkpt>
      <trkpt lat="42.545650" lon="-6.534300">
        <ele>561.00</ele>
        <time>2020-08-20T21:43:37Z</time>
      </trkpt>
      <trkpt lat="42.545580" lon="-6.534390">
        <ele>561.00</ele>
        <time>2020-08-20T21:43:39Z</time>
      </trkpt>
      <trkpt lat="42.545480" lon="-6.534520">
        <ele>561.00</ele>
        <time>2020-08-20T21:43:43Z</time>
      </trkpt>
      <trkpt lat="42.545180" lon="-6.534856">
        <ele>561.00</ele>
        <time>2020-08-20T21:43:47Z</time>
      </trkpt>
      <trkpt lat="42.545410" lon="-6.535548">
        <ele>561.00</ele>
        <time>2020-08-20T21:43:50Z</time>
      </trkpt>
      <trkpt lat="42.545604" lon="-6.536257">
        <ele>561.00</ele>
        <time>2020-08-20T21:43:52Z</time>
      </trkpt>
      <trkpt lat="42.545532" lon="-6.537112">
        <ele>561.00</ele>
        <time>2020-08-20T21:43:53Z</time>
      </trkpt>
      <trkpt lat="42.545682" lon="-6.538028">
        <ele>561.00</ele>
        <time>2020-08-20T21:43:55Z</time>
      </trkpt>
    </trkseg>
  </trk>
</gpx>
